<?xml version="1.0" encoding="UTF-8" standalone="no" ?>
<gpx xmlns="http://www.topografix.com/GPX/1/1" xmlns:xsi="http://www.w3.org/2001/XMLSchema-instance" xsi:schemaLocation="http://www.topografix.com/GPX/1/1 http://www.topografix.com/GPX/1/1/gpx.xsd" version="1.1" creator="VisuGPX - https://www.visugpx.com">
  <metadata>
    <name>GTHL from CT - étape 8</name>
    <desc><![CDATA[GTHL Etape 8 : Montbonnet → Chilhac

Faite le 21/06/2023

Une des étapes les plus techniques du parcours depuis le départ.  La descente vers l'Allier mérite une attention particulière car très glissante et pleine de marches et de gros cailloux. La suite le long de l'Allier nous emmène jusqu'à Prades où le snack du camping nous restaure.
Cette première partie s'est faite sous la pluie, ce qui a rajouté un cran à la difficulté. 
La suite est assez classique avec alternance de montées et de descentes pour arriver à Langeac, plus grande commune du coin.
On finit à Chilhac, charmant petit village très typique qui possède une capacité d'hébergement assez importante. 
Dommage que le seul restaurant soit fermé ce jour.
Tout le monde est très sympa dans ce village qui voit sa population tripler en période estivale. 
]]></desc>
  </metadata>
  <trk>
    <name><![CDATA[GTHL from CT]]></name>
    <trkseg>
      <trkpt lat="44.98701" lon="3.74514">
        <ele>1121</ele>
        <time>2021-04-13T10:08:57Z</time>
      </trkpt>
      <trkpt lat="44.98703" lon="3.74513">
        <ele>1121</ele>
        <time>2021-04-13T10:08:58Z</time>
      </trkpt>
      <trkpt lat="44.98705" lon="3.74511">
        <ele>1120</ele>
        <time>2021-04-13T10:08:59Z</time>
      </trkpt>
      <trkpt lat="44.98709" lon="3.7451">
        <ele>1120</ele>
        <time>2021-04-13T10:09:00Z</time>
      </trkpt>
      <trkpt lat="44.98713" lon="3.74509">
        <ele>1120</ele>
        <time>2021-04-13T10:09:01Z</time>
      </trkpt>
      <trkpt lat="44.98719" lon="3.74507">
        <ele>1119</ele>
        <time>2021-04-13T10:09:03Z</time>
      </trkpt>
      <trkpt lat="44.98721" lon="3.74506">
        <ele>1119</ele>
        <time>2021-04-13T10:09:04Z</time>
      </trkpt>
      <trkpt lat="44.98724" lon="3.74505">
        <ele>1119</ele>
        <time>2021-04-13T10:09:05Z</time>
      </trkpt>
      <trkpt lat="44.98726" lon="3.74503">
        <ele>1118</ele>
        <time>2021-04-13T10:09:06Z</time>
      </trkpt>
      <trkpt lat="44.98729" lon="3.74502">
        <ele>1118</ele>
        <time>2021-04-13T10:09:07Z</time>
      </trkpt>
      <trkpt lat="44.98731" lon="3.745">
        <ele>1118</ele>
        <time>2021-04-13T10:09:08Z</time>
      </trkpt>
      <trkpt lat="44.98733" lon="3.74499">
        <ele>1117</ele>
        <time>2021-04-13T10:09:09Z</time>
      </trkpt>
      <trkpt lat="44.98736" lon="3.74497">
        <ele>1116</ele>
        <time>2021-04-13T10:09:12Z</time>
      </trkpt>
      <trkpt lat="44.98751" lon="3.74495">
        <ele>1114</ele>
        <time>2021-04-13T10:09:17Z</time>
      </trkpt>
      <trkpt lat="44.98756" lon="3.74495">
        <ele>1114</ele>
        <time>2021-04-13T10:09:18Z</time>
      </trkpt>
      <trkpt lat="44.98761" lon="3.74495">
        <ele>1113</ele>
        <time>2021-04-13T10:09:19Z</time>
      </trkpt>
      <trkpt lat="44.98766" lon="3.74495">
        <ele>1112</ele>
        <time>2021-04-13T10:09:20Z</time>
      </trkpt>
      <trkpt lat="44.98771" lon="3.74494">
        <ele>1112</ele>
        <time>2021-04-13T10:09:21Z</time>
      </trkpt>
      <trkpt lat="44.98775" lon="3.7449">
        <ele>1112</ele>
        <time>2021-04-13T10:09:22Z</time>
      </trkpt>
      <trkpt lat="44.98786" lon="3.74478">
        <ele>1111</ele>
        <time>2021-04-13T10:09:23Z</time>
      </trkpt>
      <trkpt lat="44.98791" lon="3.74473">
        <ele>1111</ele>
        <time>2021-04-13T10:09:24Z</time>
      </trkpt>
      <trkpt lat="44.98805" lon="3.74457">
        <ele>1110</ele>
        <time>2021-04-13T10:09:27Z</time>
      </trkpt>
      <trkpt lat="44.98814" lon="3.7445">
        <ele>1110</ele>
        <time>2021-04-13T10:09:29Z</time>
      </trkpt>
      <trkpt lat="44.98818" lon="3.74437">
        <ele>1109</ele>
        <time>2021-04-13T10:09:32Z</time>
      </trkpt>
      <trkpt lat="44.98817" lon="3.74433">
        <ele>1108</ele>
        <time>2021-04-13T10:09:33Z</time>
      </trkpt>
      <trkpt lat="44.98817" lon="3.7443">
        <ele>1107</ele>
        <time>2021-04-13T10:09:35Z</time>
      </trkpt>
      <trkpt lat="44.98816" lon="3.74426">
        <ele>1107</ele>
        <time>2021-04-13T10:09:36Z</time>
      </trkpt>
      <trkpt lat="44.98817" lon="3.74422">
        <ele>1106</ele>
        <time>2021-04-13T10:09:37Z</time>
      </trkpt>
      <trkpt lat="44.98817" lon="3.74419">
        <ele>1106</ele>
        <time>2021-04-13T10:09:38Z</time>
      </trkpt>
      <trkpt lat="44.9882" lon="3.74402">
        <ele>1106</ele>
        <time>2021-04-13T10:09:42Z</time>
      </trkpt>
      <trkpt lat="44.98821" lon="3.74398">
        <ele>1105</ele>
        <time>2021-04-13T10:09:43Z</time>
      </trkpt>
      <trkpt lat="44.98822" lon="3.74394">
        <ele>1105</ele>
        <time>2021-04-13T10:09:44Z</time>
      </trkpt>
      <trkpt lat="44.98822" lon="3.74389">
        <ele>1105</ele>
        <time>2021-04-13T10:09:45Z</time>
      </trkpt>
      <trkpt lat="44.98823" lon="3.74385">
        <ele>1105</ele>
        <time>2021-04-13T10:09:46Z</time>
      </trkpt>
      <trkpt lat="44.98822" lon="3.7438">
        <ele>1105</ele>
        <time>2021-04-13T10:09:47Z</time>
      </trkpt>
      <trkpt lat="44.98822" lon="3.74369">
        <ele>1105</ele>
        <time>2021-04-13T10:09:48Z</time>
      </trkpt>
      <trkpt lat="44.98822" lon="3.74363">
        <ele>1105</ele>
        <time>2021-04-13T10:09:49Z</time>
      </trkpt>
      <trkpt lat="44.98821" lon="3.74352">
        <ele>1104</ele>
        <time>2021-04-13T10:09:51Z</time>
      </trkpt>
      <trkpt lat="44.9882" lon="3.74346">
        <ele>1104</ele>
        <time>2021-04-13T10:09:53Z</time>
      </trkpt>
      <trkpt lat="44.98819" lon="3.7434">
        <ele>1104</ele>
        <time>2021-04-13T10:09:54Z</time>
      </trkpt>
      <trkpt lat="44.98818" lon="3.74333">
        <ele>1104</ele>
        <time>2021-04-13T10:09:55Z</time>
      </trkpt>
      <trkpt lat="44.98818" lon="3.74327">
        <ele>1104</ele>
        <time>2021-04-13T10:09:56Z</time>
      </trkpt>
      <trkpt lat="44.98816" lon="3.74322">
        <ele>1104</ele>
        <time>2021-04-13T10:09:57Z</time>
      </trkpt>
      <trkpt lat="44.98815" lon="3.74316">
        <ele>1104</ele>
        <time>2021-04-13T10:09:58Z</time>
      </trkpt>
      <trkpt lat="44.98813" lon="3.74311">
        <ele>1103</ele>
        <time>2021-04-13T10:09:59Z</time>
      </trkpt>
      <trkpt lat="44.98805" lon="3.74283">
        <ele>1104</ele>
        <time>2021-04-13T10:10:03Z</time>
      </trkpt>
      <trkpt lat="44.98804" lon="3.74278">
        <ele>1104</ele>
        <time>2021-04-13T10:10:04Z</time>
      </trkpt>
      <trkpt lat="44.98804" lon="3.74272">
        <ele>1104</ele>
        <time>2021-04-13T10:10:05Z</time>
      </trkpt>
      <trkpt lat="44.98805" lon="3.74266">
        <ele>1104</ele>
        <time>2021-04-13T10:10:06Z</time>
      </trkpt>
      <trkpt lat="44.98806" lon="3.7426">
        <ele>1104</ele>
        <time>2021-04-13T10:10:07Z</time>
      </trkpt>
      <trkpt lat="44.98808" lon="3.74255">
        <ele>1104</ele>
        <time>2021-04-13T10:10:08Z</time>
      </trkpt>
      <trkpt lat="44.9881" lon="3.7425">
        <ele>1104</ele>
        <time>2021-04-13T10:10:09Z</time>
      </trkpt>
      <trkpt lat="44.98813" lon="3.74246">
        <ele>1104</ele>
        <time>2021-04-13T10:10:10Z</time>
      </trkpt>
      <trkpt lat="44.98819" lon="3.74238">
        <ele>1104</ele>
        <time>2021-04-13T10:10:12Z</time>
      </trkpt>
      <trkpt lat="44.98822" lon="3.74233">
        <ele>1104</ele>
        <time>2021-04-13T10:10:14Z</time>
      </trkpt>
      <trkpt lat="44.98825" lon="3.74229">
        <ele>1104</ele>
        <time>2021-04-13T10:10:15Z</time>
      </trkpt>
      <trkpt lat="44.98828" lon="3.74224">
        <ele>1104</ele>
        <time>2021-04-13T10:10:16Z</time>
      </trkpt>
      <trkpt lat="44.9883" lon="3.7422">
        <ele>1104</ele>
        <time>2021-04-13T10:10:17Z</time>
      </trkpt>
      <trkpt lat="44.98833" lon="3.74215">
        <ele>1104</ele>
        <time>2021-04-13T10:10:18Z</time>
      </trkpt>
      <trkpt lat="44.98836" lon="3.74211">
        <ele>1104</ele>
        <time>2021-04-13T10:10:19Z</time>
      </trkpt>
      <trkpt lat="44.98839" lon="3.74206">
        <ele>1104</ele>
        <time>2021-04-13T10:10:20Z</time>
      </trkpt>
      <trkpt lat="44.98853" lon="3.74188">
        <ele>1105</ele>
        <time>2021-04-13T10:10:24Z</time>
      </trkpt>
      <trkpt lat="44.98856" lon="3.74187">
        <ele>1105</ele>
        <time>2021-04-13T10:10:25Z</time>
      </trkpt>
      <trkpt lat="44.98859" lon="3.74188">
        <ele>1105</ele>
        <time>2021-04-13T10:10:26Z</time>
      </trkpt>
      <trkpt lat="44.98862" lon="3.74189">
        <ele>1105</ele>
        <time>2021-04-13T10:10:27Z</time>
      </trkpt>
      <trkpt lat="44.98865" lon="3.7419">
        <ele>1105</ele>
        <time>2021-04-13T10:10:28Z</time>
      </trkpt>
      <trkpt lat="44.98869" lon="3.74193">
        <ele>1105</ele>
        <time>2021-04-13T10:10:29Z</time>
      </trkpt>
      <trkpt lat="44.98873" lon="3.74195">
        <ele>1105</ele>
        <time>2021-04-13T10:10:30Z</time>
      </trkpt>
      <trkpt lat="44.98877" lon="3.74197">
        <ele>1106</ele>
        <time>2021-04-13T10:10:31Z</time>
      </trkpt>
      <trkpt lat="44.98883" lon="3.74202">
        <ele>1106</ele>
        <time>2021-04-13T10:10:33Z</time>
      </trkpt>
      <trkpt lat="44.98887" lon="3.74205">
        <ele>1106</ele>
        <time>2021-04-13T10:10:34Z</time>
      </trkpt>
      <trkpt lat="44.98891" lon="3.74207">
        <ele>1106</ele>
        <time>2021-04-13T10:10:35Z</time>
      </trkpt>
      <trkpt lat="44.98894" lon="3.74208">
        <ele>1107</ele>
        <time>2021-04-13T10:10:36Z</time>
      </trkpt>
      <trkpt lat="44.98898" lon="3.74208">
        <ele>1107</ele>
        <time>2021-04-13T10:10:37Z</time>
      </trkpt>
      <trkpt lat="44.98901" lon="3.74205">
        <ele>1108</ele>
        <time>2021-04-13T10:10:38Z</time>
      </trkpt>
      <trkpt lat="44.98903" lon="3.742">
        <ele>1108</ele>
        <time>2021-04-13T10:10:40Z</time>
      </trkpt>
      <trkpt lat="44.98903" lon="3.74195">
        <ele>1109</ele>
        <time>2021-04-13T10:10:41Z</time>
      </trkpt>
      <trkpt lat="44.98906" lon="3.74178">
        <ele>1109</ele>
        <time>2021-04-13T10:10:45Z</time>
      </trkpt>
      <trkpt lat="44.98906" lon="3.74174">
        <ele>1109</ele>
        <time>2021-04-13T10:10:46Z</time>
      </trkpt>
      <trkpt lat="44.98909" lon="3.74166">
        <ele>1109</ele>
        <time>2021-04-13T10:10:47Z</time>
      </trkpt>
      <trkpt lat="44.9891" lon="3.74162">
        <ele>1110</ele>
        <time>2021-04-13T10:10:49Z</time>
      </trkpt>
      <trkpt lat="44.98911" lon="3.74159">
        <ele>1110</ele>
        <time>2021-04-13T10:10:50Z</time>
      </trkpt>
      <trkpt lat="44.98913" lon="3.74155">
        <ele>1110</ele>
        <time>2021-04-13T10:10:51Z</time>
      </trkpt>
      <trkpt lat="44.98914" lon="3.74151">
        <ele>1110</ele>
        <time>2021-04-13T10:10:52Z</time>
      </trkpt>
      <trkpt lat="44.98918" lon="3.74145">
        <ele>1110</ele>
        <time>2021-04-13T10:10:53Z</time>
      </trkpt>
      <trkpt lat="44.98922" lon="3.74138">
        <ele>1110</ele>
        <time>2021-04-13T10:10:56Z</time>
      </trkpt>
      <trkpt lat="44.98926" lon="3.74131">
        <ele>1111</ele>
        <time>2021-04-13T10:10:58Z</time>
      </trkpt>
      <trkpt lat="44.98928" lon="3.74128">
        <ele>1111</ele>
        <time>2021-04-13T10:10:59Z</time>
      </trkpt>
      <trkpt lat="44.98929" lon="3.74125">
        <ele>1111</ele>
        <time>2021-04-13T10:11:00Z</time>
      </trkpt>
      <trkpt lat="44.98931" lon="3.74122">
        <ele>1112</ele>
        <time>2021-04-13T10:11:02Z</time>
      </trkpt>
      <trkpt lat="44.98933" lon="3.74121">
        <ele>1113</ele>
        <time>2021-04-13T10:11:03Z</time>
      </trkpt>
      <trkpt lat="44.98939" lon="3.74116">
        <ele>1113</ele>
        <time>2021-04-13T10:11:05Z</time>
      </trkpt>
      <trkpt lat="44.98945" lon="3.74109">
        <ele>1114</ele>
        <time>2021-04-13T10:11:06Z</time>
      </trkpt>
      <trkpt lat="44.9895" lon="3.74084">
        <ele>1114</ele>
        <time>2021-04-13T10:11:11Z</time>
      </trkpt>
      <trkpt lat="44.9895" lon="3.7408">
        <ele>1114</ele>
        <time>2021-04-13T10:11:12Z</time>
      </trkpt>
      <trkpt lat="44.9895" lon="3.74076">
        <ele>1114</ele>
        <time>2021-04-13T10:11:13Z</time>
      </trkpt>
      <trkpt lat="44.9895" lon="3.74072">
        <ele>1115</ele>
        <time>2021-04-13T10:11:14Z</time>
      </trkpt>
      <trkpt lat="44.9895" lon="3.74067">
        <ele>1115</ele>
        <time>2021-04-13T10:11:15Z</time>
      </trkpt>
      <trkpt lat="44.9895" lon="3.74062">
        <ele>1115</ele>
        <time>2021-04-13T10:11:16Z</time>
      </trkpt>
      <trkpt lat="44.98949" lon="3.74057">
        <ele>1115</ele>
        <time>2021-04-13T10:11:17Z</time>
      </trkpt>
      <trkpt lat="44.98949" lon="3.74051">
        <ele>1115</ele>
        <time>2021-04-13T10:11:18Z</time>
      </trkpt>
      <trkpt lat="44.98948" lon="3.7404">
        <ele>1116</ele>
        <time>2021-04-13T10:11:20Z</time>
      </trkpt>
      <trkpt lat="44.98948" lon="3.74034">
        <ele>1116</ele>
        <time>2021-04-13T10:11:21Z</time>
      </trkpt>
      <trkpt lat="44.98948" lon="3.74028">
        <ele>1116</ele>
        <time>2021-04-13T10:11:22Z</time>
      </trkpt>
      <trkpt lat="44.98948" lon="3.74022">
        <ele>1117</ele>
        <time>2021-04-13T10:11:23Z</time>
      </trkpt>
      <trkpt lat="44.98948" lon="3.7401">
        <ele>1118</ele>
        <time>2021-04-13T10:11:25Z</time>
      </trkpt>
      <trkpt lat="44.98948" lon="3.74004">
        <ele>1119</ele>
        <time>2021-04-13T10:11:27Z</time>
      </trkpt>
      <trkpt lat="44.98948" lon="3.73997">
        <ele>1120</ele>
        <time>2021-04-13T10:11:28Z</time>
      </trkpt>
      <trkpt lat="44.98948" lon="3.73991">
        <ele>1121</ele>
        <time>2021-04-13T10:11:29Z</time>
      </trkpt>
      <trkpt lat="44.98948" lon="3.73964">
        <ele>1122</ele>
        <time>2021-04-13T10:11:33Z</time>
      </trkpt>
      <trkpt lat="44.98947" lon="3.73957">
        <ele>1123</ele>
        <time>2021-04-13T10:11:34Z</time>
      </trkpt>
      <trkpt lat="44.98946" lon="3.73943">
        <ele>1123</ele>
        <time>2021-04-13T10:11:35Z</time>
      </trkpt>
      <trkpt lat="44.98945" lon="3.73936">
        <ele>1124</ele>
        <time>2021-04-13T10:11:37Z</time>
      </trkpt>
      <trkpt lat="44.98944" lon="3.73928">
        <ele>1125</ele>
        <time>2021-04-13T10:11:38Z</time>
      </trkpt>
      <trkpt lat="44.98943" lon="3.73921">
        <ele>1125</ele>
        <time>2021-04-13T10:11:39Z</time>
      </trkpt>
      <trkpt lat="44.98942" lon="3.73914">
        <ele>1125</ele>
        <time>2021-04-13T10:11:40Z</time>
      </trkpt>
      <trkpt lat="44.98941" lon="3.73907">
        <ele>1126</ele>
        <time>2021-04-13T10:11:41Z</time>
      </trkpt>
      <trkpt lat="44.98939" lon="3.73893">
        <ele>1126</ele>
        <time>2021-04-13T10:11:43Z</time>
      </trkpt>
      <trkpt lat="44.98937" lon="3.73879">
        <ele>1127</ele>
        <time>2021-04-13T10:11:44Z</time>
      </trkpt>
      <trkpt lat="44.98936" lon="3.73872">
        <ele>1127</ele>
        <time>2021-04-13T10:11:46Z</time>
      </trkpt>
      <trkpt lat="44.98935" lon="3.73865">
        <ele>1127</ele>
        <time>2021-04-13T10:11:47Z</time>
      </trkpt>
      <trkpt lat="44.98934" lon="3.73858">
        <ele>1127</ele>
        <time>2021-04-13T10:11:48Z</time>
      </trkpt>
      <trkpt lat="44.98933" lon="3.73852">
        <ele>1127</ele>
        <time>2021-04-13T10:11:49Z</time>
      </trkpt>
      <trkpt lat="44.98932" lon="3.73846">
        <ele>1127</ele>
        <time>2021-04-13T10:11:50Z</time>
      </trkpt>
      <trkpt lat="44.98931" lon="3.7384">
        <ele>1127</ele>
        <time>2021-04-13T10:11:51Z</time>
      </trkpt>
      <trkpt lat="44.98933" lon="3.73807">
        <ele>1128</ele>
        <time>2021-04-13T10:11:55Z</time>
      </trkpt>
      <trkpt lat="44.98933" lon="3.73799">
        <ele>1128</ele>
        <time>2021-04-13T10:11:57Z</time>
      </trkpt>
      <trkpt lat="44.98934" lon="3.73792">
        <ele>1128</ele>
        <time>2021-04-13T10:11:58Z</time>
      </trkpt>
      <trkpt lat="44.98935" lon="3.73784">
        <ele>1128</ele>
        <time>2021-04-13T10:11:59Z</time>
      </trkpt>
      <trkpt lat="44.98936" lon="3.73777">
        <ele>1128</ele>
        <time>2021-04-13T10:12:00Z</time>
      </trkpt>
      <trkpt lat="44.98937" lon="3.73769">
        <ele>1128</ele>
        <time>2021-04-13T10:12:01Z</time>
      </trkpt>
      <trkpt lat="44.98939" lon="3.73762">
        <ele>1128</ele>
        <time>2021-04-13T10:12:02Z</time>
      </trkpt>
      <trkpt lat="44.98944" lon="3.73749">
        <ele>1128</ele>
        <time>2021-04-13T10:12:03Z</time>
      </trkpt>
      <trkpt lat="44.98948" lon="3.73736">
        <ele>1128</ele>
        <time>2021-04-13T10:12:05Z</time>
      </trkpt>
      <trkpt lat="44.9895" lon="3.73729">
        <ele>1128</ele>
        <time>2021-04-13T10:12:06Z</time>
      </trkpt>
      <trkpt lat="44.98952" lon="3.73722">
        <ele>1128</ele>
        <time>2021-04-13T10:12:07Z</time>
      </trkpt>
      <trkpt lat="44.98954" lon="3.73715">
        <ele>1128</ele>
        <time>2021-04-13T10:12:08Z</time>
      </trkpt>
      <trkpt lat="44.98956" lon="3.73708">
        <ele>1128</ele>
        <time>2021-04-13T10:12:09Z</time>
      </trkpt>
      <trkpt lat="44.98957" lon="3.73701">
        <ele>1128</ele>
        <time>2021-04-13T10:12:10Z</time>
      </trkpt>
      <trkpt lat="44.98959" lon="3.73694">
        <ele>1128</ele>
        <time>2021-04-13T10:12:11Z</time>
      </trkpt>
      <trkpt lat="44.9896" lon="3.73686">
        <ele>1128</ele>
        <time>2021-04-13T10:12:12Z</time>
      </trkpt>
      <trkpt lat="44.98966" lon="3.73657">
        <ele>1128</ele>
        <time>2021-04-13T10:12:17Z</time>
      </trkpt>
      <trkpt lat="44.98967" lon="3.7365">
        <ele>1128</ele>
        <time>2021-04-13T10:12:18Z</time>
      </trkpt>
      <trkpt lat="44.98968" lon="3.73643">
        <ele>1128</ele>
        <time>2021-04-13T10:12:19Z</time>
      </trkpt>
      <trkpt lat="44.98969" lon="3.73636">
        <ele>1128</ele>
        <time>2021-04-13T10:12:20Z</time>
      </trkpt>
      <trkpt lat="44.9897" lon="3.73629">
        <ele>1128</ele>
        <time>2021-04-13T10:12:21Z</time>
      </trkpt>
      <trkpt lat="44.98971" lon="3.73614">
        <ele>1128</ele>
        <time>2021-04-13T10:12:22Z</time>
      </trkpt>
      <trkpt lat="44.98972" lon="3.73607">
        <ele>1128</ele>
        <time>2021-04-13T10:12:23Z</time>
      </trkpt>
      <trkpt lat="44.98972" lon="3.736">
        <ele>1128</ele>
        <time>2021-04-13T10:12:25Z</time>
      </trkpt>
      <trkpt lat="44.98974" lon="3.73585">
        <ele>1128</ele>
        <time>2021-04-13T10:12:27Z</time>
      </trkpt>
      <trkpt lat="44.98974" lon="3.73578">
        <ele>1128</ele>
        <time>2021-04-13T10:12:28Z</time>
      </trkpt>
      <trkpt lat="44.98975" lon="3.73571">
        <ele>1128</ele>
        <time>2021-04-13T10:12:29Z</time>
      </trkpt>
      <trkpt lat="44.98975" lon="3.73565">
        <ele>1128</ele>
        <time>2021-04-13T10:12:30Z</time>
      </trkpt>
      <trkpt lat="44.98976" lon="3.73558">
        <ele>1128</ele>
        <time>2021-04-13T10:12:31Z</time>
      </trkpt>
      <trkpt lat="44.98977" lon="3.73551">
        <ele>1129</ele>
        <time>2021-04-13T10:12:32Z</time>
      </trkpt>
      <trkpt lat="44.98977" lon="3.73544">
        <ele>1129</ele>
        <time>2021-04-13T10:12:33Z</time>
      </trkpt>
      <trkpt lat="44.98977" lon="3.7353">
        <ele>1129</ele>
        <time>2021-04-13T10:12:34Z</time>
      </trkpt>
      <trkpt lat="44.98974" lon="3.73503">
        <ele>1129</ele>
        <time>2021-04-13T10:12:38Z</time>
      </trkpt>
      <trkpt lat="44.98972" lon="3.73496">
        <ele>1129</ele>
        <time>2021-04-13T10:12:39Z</time>
      </trkpt>
      <trkpt lat="44.98971" lon="3.73489">
        <ele>1129</ele>
        <time>2021-04-13T10:12:40Z</time>
      </trkpt>
      <trkpt lat="44.98968" lon="3.73483">
        <ele>1129</ele>
        <time>2021-04-13T10:12:41Z</time>
      </trkpt>
      <trkpt lat="44.98966" lon="3.73476">
        <ele>1129</ele>
        <time>2021-04-13T10:12:42Z</time>
      </trkpt>
      <trkpt lat="44.98964" lon="3.73469">
        <ele>1129</ele>
        <time>2021-04-13T10:12:43Z</time>
      </trkpt>
      <trkpt lat="44.98962" lon="3.73463">
        <ele>1129</ele>
        <time>2021-04-13T10:12:44Z</time>
      </trkpt>
      <trkpt lat="44.9896" lon="3.73456">
        <ele>1129</ele>
        <time>2021-04-13T10:12:45Z</time>
      </trkpt>
      <trkpt lat="44.98955" lon="3.73443">
        <ele>1129</ele>
        <time>2021-04-13T10:12:47Z</time>
      </trkpt>
      <trkpt lat="44.98953" lon="3.73436">
        <ele>1129</ele>
        <time>2021-04-13T10:12:48Z</time>
      </trkpt>
      <trkpt lat="44.98951" lon="3.7343">
        <ele>1129</ele>
        <time>2021-04-13T10:12:49Z</time>
      </trkpt>
      <trkpt lat="44.98949" lon="3.73424">
        <ele>1129</ele>
        <time>2021-04-13T10:12:50Z</time>
      </trkpt>
      <trkpt lat="44.98947" lon="3.73418">
        <ele>1128</ele>
        <time>2021-04-13T10:12:51Z</time>
      </trkpt>
      <trkpt lat="44.98945" lon="3.73411">
        <ele>1128</ele>
        <time>2021-04-13T10:12:52Z</time>
      </trkpt>
      <trkpt lat="44.98943" lon="3.73405">
        <ele>1128</ele>
        <time>2021-04-13T10:12:53Z</time>
      </trkpt>
      <trkpt lat="44.98941" lon="3.73398">
        <ele>1129</ele>
        <time>2021-04-13T10:12:54Z</time>
      </trkpt>
      <trkpt lat="44.98933" lon="3.73373">
        <ele>1128</ele>
        <time>2021-04-13T10:12:58Z</time>
      </trkpt>
      <trkpt lat="44.98931" lon="3.73366">
        <ele>1128</ele>
        <time>2021-04-13T10:12:59Z</time>
      </trkpt>
      <trkpt lat="44.98929" lon="3.73359">
        <ele>1128</ele>
        <time>2021-04-13T10:13:00Z</time>
      </trkpt>
      <trkpt lat="44.98927" lon="3.73353">
        <ele>1129</ele>
        <time>2021-04-13T10:13:01Z</time>
      </trkpt>
      <trkpt lat="44.98925" lon="3.73347">
        <ele>1129</ele>
        <time>2021-04-13T10:13:02Z</time>
      </trkpt>
      <trkpt lat="44.98923" lon="3.73341">
        <ele>1129</ele>
        <time>2021-04-13T10:13:03Z</time>
      </trkpt>
      <trkpt lat="44.98921" lon="3.73336">
        <ele>1129</ele>
        <time>2021-04-13T10:13:05Z</time>
      </trkpt>
      <trkpt lat="44.98916" lon="3.73324">
        <ele>1128</ele>
        <time>2021-04-13T10:13:06Z</time>
      </trkpt>
      <trkpt lat="44.98912" lon="3.73312">
        <ele>1129</ele>
        <time>2021-04-13T10:13:09Z</time>
      </trkpt>
      <trkpt lat="44.98911" lon="3.73307">
        <ele>1129</ele>
        <time>2021-04-13T10:13:10Z</time>
      </trkpt>
      <trkpt lat="44.98911" lon="3.73302">
        <ele>1129</ele>
        <time>2021-04-13T10:13:11Z</time>
      </trkpt>
      <trkpt lat="44.9891" lon="3.73299">
        <ele>1129</ele>
        <time>2021-04-13T10:13:12Z</time>
      </trkpt>
      <trkpt lat="44.9891" lon="3.73296">
        <ele>1129</ele>
        <time>2021-04-13T10:13:17Z</time>
      </trkpt>
      <trkpt lat="44.98909" lon="3.73284">
        <ele>1129</ele>
        <time>2021-04-13T10:13:19Z</time>
      </trkpt>
      <trkpt lat="44.98908" lon="3.73271">
        <ele>1129</ele>
        <time>2021-04-13T10:13:21Z</time>
      </trkpt>
      <trkpt lat="44.98908" lon="3.73264">
        <ele>1129</ele>
        <time>2021-04-13T10:13:23Z</time>
      </trkpt>
      <trkpt lat="44.98913" lon="3.73234">
        <ele>1129</ele>
        <time>2021-04-13T10:13:27Z</time>
      </trkpt>
      <trkpt lat="44.98915" lon="3.73229">
        <ele>1129</ele>
        <time>2021-04-13T10:13:28Z</time>
      </trkpt>
      <trkpt lat="44.98918" lon="3.73223">
        <ele>1129</ele>
        <time>2021-04-13T10:13:29Z</time>
      </trkpt>
      <trkpt lat="44.98921" lon="3.73218">
        <ele>1129</ele>
        <time>2021-04-13T10:13:30Z</time>
      </trkpt>
      <trkpt lat="44.98923" lon="3.73208">
        <ele>1129</ele>
        <time>2021-04-13T10:13:31Z</time>
      </trkpt>
      <trkpt lat="44.98924" lon="3.73202">
        <ele>1129</ele>
        <time>2021-04-13T10:13:33Z</time>
      </trkpt>
      <trkpt lat="44.98925" lon="3.73196">
        <ele>1129</ele>
        <time>2021-04-13T10:13:34Z</time>
      </trkpt>
      <trkpt lat="44.98925" lon="3.73189">
        <ele>1129</ele>
        <time>2021-04-13T10:13:35Z</time>
      </trkpt>
      <trkpt lat="44.98928" lon="3.73176">
        <ele>1129</ele>
        <time>2021-04-13T10:13:37Z</time>
      </trkpt>
      <trkpt lat="44.98934" lon="3.73157">
        <ele>1129</ele>
        <time>2021-04-13T10:13:40Z</time>
      </trkpt>
      <trkpt lat="44.98936" lon="3.73151">
        <ele>1129</ele>
        <time>2021-04-13T10:13:41Z</time>
      </trkpt>
      <trkpt lat="44.98942" lon="3.7314">
        <ele>1129</ele>
        <time>2021-04-13T10:13:42Z</time>
      </trkpt>
      <trkpt lat="44.98945" lon="3.73135">
        <ele>1129</ele>
        <time>2021-04-13T10:13:43Z</time>
      </trkpt>
      <trkpt lat="44.98948" lon="3.73129">
        <ele>1129</ele>
        <time>2021-04-13T10:13:44Z</time>
      </trkpt>
      <trkpt lat="44.98951" lon="3.73124">
        <ele>1129</ele>
        <time>2021-04-13T10:13:45Z</time>
      </trkpt>
      <trkpt lat="44.98955" lon="3.73119">
        <ele>1129</ele>
        <time>2021-04-13T10:13:46Z</time>
      </trkpt>
      <trkpt lat="44.98966" lon="3.73094">
        <ele>1129</ele>
        <time>2021-04-13T10:13:50Z</time>
      </trkpt>
      <trkpt lat="44.98968" lon="3.73088">
        <ele>1129</ele>
        <time>2021-04-13T10:13:51Z</time>
      </trkpt>
      <trkpt lat="44.9897" lon="3.73081">
        <ele>1129</ele>
        <time>2021-04-13T10:13:52Z</time>
      </trkpt>
      <trkpt lat="44.98972" lon="3.73074">
        <ele>1129</ele>
        <time>2021-04-13T10:13:54Z</time>
      </trkpt>
      <trkpt lat="44.98973" lon="3.73067">
        <ele>1128</ele>
        <time>2021-04-13T10:13:55Z</time>
      </trkpt>
      <trkpt lat="44.98975" lon="3.7306">
        <ele>1128</ele>
        <time>2021-04-13T10:13:56Z</time>
      </trkpt>
      <trkpt lat="44.98978" lon="3.73046">
        <ele>1128</ele>
        <time>2021-04-13T10:13:57Z</time>
      </trkpt>
      <trkpt lat="44.9898" lon="3.73039">
        <ele>1128</ele>
        <time>2021-04-13T10:13:59Z</time>
      </trkpt>
      <trkpt lat="44.98985" lon="3.73017">
        <ele>1128</ele>
        <time>2021-04-13T10:14:01Z</time>
      </trkpt>
      <trkpt lat="44.98987" lon="3.7301">
        <ele>1128</ele>
        <time>2021-04-13T10:14:02Z</time>
      </trkpt>
      <trkpt lat="44.98989" lon="3.73004">
        <ele>1128</ele>
        <time>2021-04-13T10:14:03Z</time>
      </trkpt>
      <trkpt lat="44.98992" lon="3.72997">
        <ele>1128</ele>
        <time>2021-04-13T10:14:04Z</time>
      </trkpt>
      <trkpt lat="44.98994" lon="3.7299">
        <ele>1128</ele>
        <time>2021-04-13T10:14:05Z</time>
      </trkpt>
      <trkpt lat="44.98996" lon="3.72983">
        <ele>1128</ele>
        <time>2021-04-13T10:14:06Z</time>
      </trkpt>
      <trkpt lat="44.98998" lon="3.72976">
        <ele>1128</ele>
        <time>2021-04-13T10:14:07Z</time>
      </trkpt>
      <trkpt lat="44.99" lon="3.72969">
        <ele>1128</ele>
        <time>2021-04-13T10:14:08Z</time>
      </trkpt>
      <trkpt lat="44.99008" lon="3.7294">
        <ele>1128</ele>
        <time>2021-04-13T10:14:13Z</time>
      </trkpt>
      <trkpt lat="44.99009" lon="3.72933">
        <ele>1128</ele>
        <time>2021-04-13T10:14:14Z</time>
      </trkpt>
      <trkpt lat="44.99011" lon="3.72926">
        <ele>1128</ele>
        <time>2021-04-13T10:14:15Z</time>
      </trkpt>
      <trkpt lat="44.99015" lon="3.72912">
        <ele>1128</ele>
        <time>2021-04-13T10:14:16Z</time>
      </trkpt>
      <trkpt lat="44.99016" lon="3.72905">
        <ele>1128</ele>
        <time>2021-04-13T10:14:18Z</time>
      </trkpt>
      <trkpt lat="44.99018" lon="3.72899">
        <ele>1128</ele>
        <time>2021-04-13T10:14:19Z</time>
      </trkpt>
      <trkpt lat="44.99021" lon="3.72886">
        <ele>1128</ele>
        <time>2021-04-13T10:14:20Z</time>
      </trkpt>
      <trkpt lat="44.99023" lon="3.72881">
        <ele>1128</ele>
        <time>2021-04-13T10:14:21Z</time>
      </trkpt>
      <trkpt lat="44.99026" lon="3.72875">
        <ele>1128</ele>
        <time>2021-04-13T10:14:23Z</time>
      </trkpt>
      <trkpt lat="44.9903" lon="3.72874">
        <ele>1128</ele>
        <time>2021-04-13T10:14:24Z</time>
      </trkpt>
      <trkpt lat="44.99034" lon="3.72876">
        <ele>1128</ele>
        <time>2021-04-13T10:14:25Z</time>
      </trkpt>
      <trkpt lat="44.99038" lon="3.72878">
        <ele>1128</ele>
        <time>2021-04-13T10:14:26Z</time>
      </trkpt>
      <trkpt lat="44.99043" lon="3.72881">
        <ele>1128</ele>
        <time>2021-04-13T10:14:27Z</time>
      </trkpt>
      <trkpt lat="44.99047" lon="3.72884">
        <ele>1128</ele>
        <time>2021-04-13T10:14:28Z</time>
      </trkpt>
      <trkpt lat="44.99052" lon="3.72887">
        <ele>1128</ele>
        <time>2021-04-13T10:14:29Z</time>
      </trkpt>
      <trkpt lat="44.99057" lon="3.7289">
        <ele>1128</ele>
        <time>2021-04-13T10:14:30Z</time>
      </trkpt>
      <trkpt lat="44.99075" lon="3.72902">
        <ele>1128</ele>
        <time>2021-04-13T10:14:34Z</time>
      </trkpt>
      <trkpt lat="44.9908" lon="3.72905">
        <ele>1128</ele>
        <time>2021-04-13T10:14:35Z</time>
      </trkpt>
      <trkpt lat="44.99084" lon="3.72908">
        <ele>1128</ele>
        <time>2021-04-13T10:14:36Z</time>
      </trkpt>
      <trkpt lat="44.99089" lon="3.72912">
        <ele>1129</ele>
        <time>2021-04-13T10:14:37Z</time>
      </trkpt>
      <trkpt lat="44.99094" lon="3.72915">
        <ele>1129</ele>
        <time>2021-04-13T10:14:38Z</time>
      </trkpt>
      <trkpt lat="44.99099" lon="3.72917">
        <ele>1129</ele>
        <time>2021-04-13T10:14:39Z</time>
      </trkpt>
      <trkpt lat="44.99104" lon="3.72919">
        <ele>1129</ele>
        <time>2021-04-13T10:14:40Z</time>
      </trkpt>
      <trkpt lat="44.99109" lon="3.72919">
        <ele>1129</ele>
        <time>2021-04-13T10:14:41Z</time>
      </trkpt>
      <trkpt lat="44.99119" lon="3.7292">
        <ele>1129</ele>
        <time>2021-04-13T10:14:44Z</time>
      </trkpt>
      <trkpt lat="44.99124" lon="3.7292">
        <ele>1129</ele>
        <time>2021-04-13T10:14:45Z</time>
      </trkpt>
      <trkpt lat="44.99129" lon="3.72919">
        <ele>1129</ele>
        <time>2021-04-13T10:14:46Z</time>
      </trkpt>
      <trkpt lat="44.99134" lon="3.72918">
        <ele>1129</ele>
        <time>2021-04-13T10:14:47Z</time>
      </trkpt>
      <trkpt lat="44.9914" lon="3.72917">
        <ele>1130</ele>
        <time>2021-04-13T10:14:48Z</time>
      </trkpt>
      <trkpt lat="44.99145" lon="3.72916">
        <ele>1130</ele>
        <time>2021-04-13T10:14:49Z</time>
      </trkpt>
      <trkpt lat="44.9915" lon="3.72914">
        <ele>1130</ele>
        <time>2021-04-13T10:14:50Z</time>
      </trkpt>
      <trkpt lat="44.9916" lon="3.7291">
        <ele>1130</ele>
        <time>2021-04-13T10:14:51Z</time>
      </trkpt>
      <trkpt lat="44.9918" lon="3.729">
        <ele>1130</ele>
        <time>2021-04-13T10:14:55Z</time>
      </trkpt>
      <trkpt lat="44.99185" lon="3.72899">
        <ele>1131</ele>
        <time>2021-04-13T10:14:56Z</time>
      </trkpt>
      <trkpt lat="44.9919" lon="3.72898">
        <ele>1131</ele>
        <time>2021-04-13T10:14:57Z</time>
      </trkpt>
      <trkpt lat="44.99196" lon="3.72896">
        <ele>1131</ele>
        <time>2021-04-13T10:14:59Z</time>
      </trkpt>
      <trkpt lat="44.99206" lon="3.72894">
        <ele>1131</ele>
        <time>2021-04-13T10:15:00Z</time>
      </trkpt>
      <trkpt lat="44.99211" lon="3.72892">
        <ele>1131</ele>
        <time>2021-04-13T10:15:01Z</time>
      </trkpt>
      <trkpt lat="44.99217" lon="3.7289">
        <ele>1131</ele>
        <time>2021-04-13T10:15:02Z</time>
      </trkpt>
      <trkpt lat="44.99222" lon="3.72888">
        <ele>1131</ele>
        <time>2021-04-13T10:15:03Z</time>
      </trkpt>
      <trkpt lat="44.99232" lon="3.72885">
        <ele>1131</ele>
        <time>2021-04-13T10:15:05Z</time>
      </trkpt>
      <trkpt lat="44.99238" lon="3.72883">
        <ele>1131</ele>
        <time>2021-04-13T10:15:06Z</time>
      </trkpt>
      <trkpt lat="44.99243" lon="3.72881">
        <ele>1131</ele>
        <time>2021-04-13T10:15:07Z</time>
      </trkpt>
      <trkpt lat="44.99248" lon="3.72879">
        <ele>1131</ele>
        <time>2021-04-13T10:15:08Z</time>
      </trkpt>
      <trkpt lat="44.99253" lon="3.72877">
        <ele>1131</ele>
        <time>2021-04-13T10:15:09Z</time>
      </trkpt>
      <trkpt lat="44.99258" lon="3.72876">
        <ele>1132</ele>
        <time>2021-04-13T10:15:10Z</time>
      </trkpt>
      <trkpt lat="44.99262" lon="3.72874">
        <ele>1132</ele>
        <time>2021-04-13T10:15:12Z</time>
      </trkpt>
      <trkpt lat="44.99272" lon="3.72872">
        <ele>1132</ele>
        <time>2021-04-13T10:15:13Z</time>
      </trkpt>
      <trkpt lat="44.99292" lon="3.72867">
        <ele>1132</ele>
        <time>2021-04-13T10:15:18Z</time>
      </trkpt>
      <trkpt lat="44.99297" lon="3.72866">
        <ele>1132</ele>
        <time>2021-04-13T10:15:19Z</time>
      </trkpt>
      <trkpt lat="44.99307" lon="3.72864">
        <ele>1132</ele>
        <time>2021-04-13T10:15:20Z</time>
      </trkpt>
      <trkpt lat="44.99312" lon="3.72862">
        <ele>1132</ele>
        <time>2021-04-13T10:15:22Z</time>
      </trkpt>
      <trkpt lat="44.99317" lon="3.72861">
        <ele>1132</ele>
        <time>2021-04-13T10:15:23Z</time>
      </trkpt>
      <trkpt lat="44.99322" lon="3.7286">
        <ele>1132</ele>
        <time>2021-04-13T10:15:24Z</time>
      </trkpt>
      <trkpt lat="44.99327" lon="3.7286">
        <ele>1132</ele>
        <time>2021-04-13T10:15:25Z</time>
      </trkpt>
      <trkpt lat="44.99332" lon="3.7286">
        <ele>1133</ele>
        <time>2021-04-13T10:15:26Z</time>
      </trkpt>
      <trkpt lat="44.99342" lon="3.72861">
        <ele>1133</ele>
        <time>2021-04-13T10:15:28Z</time>
      </trkpt>
      <trkpt lat="44.99347" lon="3.72862">
        <ele>1133</ele>
        <time>2021-04-13T10:15:29Z</time>
      </trkpt>
      <trkpt lat="44.99357" lon="3.72866">
        <ele>1133</ele>
        <time>2021-04-13T10:15:30Z</time>
      </trkpt>
      <trkpt lat="44.99366" lon="3.72872">
        <ele>1133</ele>
        <time>2021-04-13T10:15:32Z</time>
      </trkpt>
      <trkpt lat="44.99371" lon="3.72876">
        <ele>1133</ele>
        <time>2021-04-13T10:15:34Z</time>
      </trkpt>
      <trkpt lat="44.99375" lon="3.7288">
        <ele>1133</ele>
        <time>2021-04-13T10:15:35Z</time>
      </trkpt>
      <trkpt lat="44.99379" lon="3.72884">
        <ele>1133</ele>
        <time>2021-04-13T10:15:36Z</time>
      </trkpt>
      <trkpt lat="44.99383" lon="3.72889">
        <ele>1133</ele>
        <time>2021-04-13T10:15:37Z</time>
      </trkpt>
      <trkpt lat="44.99404" lon="3.72907">
        <ele>1133</ele>
        <time>2021-04-13T10:15:41Z</time>
      </trkpt>
      <trkpt lat="44.99408" lon="3.72911">
        <ele>1133</ele>
        <time>2021-04-13T10:15:42Z</time>
      </trkpt>
      <trkpt lat="44.99412" lon="3.72914">
        <ele>1133</ele>
        <time>2021-04-13T10:15:43Z</time>
      </trkpt>
      <trkpt lat="44.99416" lon="3.72918">
        <ele>1133</ele>
        <time>2021-04-13T10:15:44Z</time>
      </trkpt>
      <trkpt lat="44.9942" lon="3.72922">
        <ele>1133</ele>
        <time>2021-04-13T10:15:45Z</time>
      </trkpt>
      <trkpt lat="44.99424" lon="3.72925">
        <ele>1133</ele>
        <time>2021-04-13T10:15:46Z</time>
      </trkpt>
      <trkpt lat="44.99428" lon="3.72929">
        <ele>1133</ele>
        <time>2021-04-13T10:15:47Z</time>
      </trkpt>
      <trkpt lat="44.99432" lon="3.72933">
        <ele>1133</ele>
        <time>2021-04-13T10:15:48Z</time>
      </trkpt>
      <trkpt lat="44.9944" lon="3.72939">
        <ele>1133</ele>
        <time>2021-04-13T10:15:50Z</time>
      </trkpt>
      <trkpt lat="44.99445" lon="3.7294">
        <ele>1133</ele>
        <time>2021-04-13T10:15:51Z</time>
      </trkpt>
      <trkpt lat="44.99449" lon="3.7294">
        <ele>1134</ele>
        <time>2021-04-13T10:15:53Z</time>
      </trkpt>
      <trkpt lat="44.99453" lon="3.72938">
        <ele>1134</ele>
        <time>2021-04-13T10:15:54Z</time>
      </trkpt>
      <trkpt lat="44.99456" lon="3.72935">
        <ele>1135</ele>
        <time>2021-04-13T10:15:55Z</time>
      </trkpt>
      <trkpt lat="44.9946" lon="3.72931">
        <ele>1135</ele>
        <time>2021-04-13T10:15:56Z</time>
      </trkpt>
      <trkpt lat="44.99463" lon="3.72928">
        <ele>1135</ele>
        <time>2021-04-13T10:15:57Z</time>
      </trkpt>
      <trkpt lat="44.99467" lon="3.72925">
        <ele>1136</ele>
        <time>2021-04-13T10:15:58Z</time>
      </trkpt>
      <trkpt lat="44.99487" lon="3.7292">
        <ele>1136</ele>
        <time>2021-04-13T10:16:02Z</time>
      </trkpt>
      <trkpt lat="44.99492" lon="3.72921">
        <ele>1137</ele>
        <time>2021-04-13T10:16:03Z</time>
      </trkpt>
      <trkpt lat="44.99496" lon="3.72922">
        <ele>1137</ele>
        <time>2021-04-13T10:16:04Z</time>
      </trkpt>
      <trkpt lat="44.995" lon="3.72924">
        <ele>1137</ele>
        <time>2021-04-13T10:16:05Z</time>
      </trkpt>
      <trkpt lat="44.99505" lon="3.72925">
        <ele>1138</ele>
        <time>2021-04-13T10:16:06Z</time>
      </trkpt>
      <trkpt lat="44.99509" lon="3.72925">
        <ele>1138</ele>
        <time>2021-04-13T10:16:07Z</time>
      </trkpt>
      <trkpt lat="44.99518" lon="3.72926">
        <ele>1138</ele>
        <time>2021-04-13T10:16:09Z</time>
      </trkpt>
      <trkpt lat="44.99522" lon="3.72926">
        <ele>1139</ele>
        <time>2021-04-13T10:16:10Z</time>
      </trkpt>
      <trkpt lat="44.99531" lon="3.72926">
        <ele>1139</ele>
        <time>2021-04-13T10:16:12Z</time>
      </trkpt>
      <trkpt lat="44.99535" lon="3.72926">
        <ele>1139</ele>
        <time>2021-04-13T10:16:13Z</time>
      </trkpt>
      <trkpt lat="44.99538" lon="3.72926">
        <ele>1140</ele>
        <time>2021-04-13T10:16:14Z</time>
      </trkpt>
      <trkpt lat="44.99542" lon="3.72926">
        <ele>1140</ele>
        <time>2021-04-13T10:16:15Z</time>
      </trkpt>
      <trkpt lat="44.99545" lon="3.72925">
        <ele>1140</ele>
        <time>2021-04-13T10:16:16Z</time>
      </trkpt>
      <trkpt lat="44.99547" lon="3.72925">
        <ele>1140</ele>
        <time>2021-04-13T10:16:17Z</time>
      </trkpt>
      <trkpt lat="44.99549" lon="3.72925">
        <ele>1140</ele>
        <time>2021-04-13T10:16:18Z</time>
      </trkpt>
      <trkpt lat="44.99552" lon="3.72927">
        <ele>1141</ele>
        <time>2021-04-13T10:16:20Z</time>
      </trkpt>
      <trkpt lat="44.99556" lon="3.72929">
        <ele>1143</ele>
        <time>2021-04-13T10:17:03Z</time>
      </trkpt>
      <trkpt lat="44.99558" lon="3.7293">
        <ele>1143</ele>
        <time>2021-04-13T10:17:04Z</time>
      </trkpt>
      <trkpt lat="44.99557" lon="3.72931">
        <ele>1142</ele>
        <time>2021-04-13T10:17:25Z</time>
      </trkpt>
      <trkpt lat="44.99554" lon="3.72931">
        <ele>1142</ele>
        <time>2021-04-13T10:17:27Z</time>
      </trkpt>
      <trkpt lat="44.99552" lon="3.72931">
        <ele>1142</ele>
        <time>2021-04-13T10:17:29Z</time>
      </trkpt>
      <trkpt lat="44.99551" lon="3.72932">
        <ele>1142</ele>
        <time>2021-04-13T10:17:34Z</time>
      </trkpt>
      <trkpt lat="44.99553" lon="3.72934">
        <ele>1143</ele>
        <time>2021-04-13T10:17:41Z</time>
      </trkpt>
      <trkpt lat="44.99554" lon="3.72936">
        <ele>1143</ele>
        <time>2021-04-13T10:17:42Z</time>
      </trkpt>
      <trkpt lat="44.99553" lon="3.7294">
        <ele>1142</ele>
        <time>2021-04-13T10:17:59Z</time>
      </trkpt>
      <trkpt lat="44.99553" lon="3.72942">
        <ele>1142</ele>
        <time>2021-04-13T10:18:00Z</time>
      </trkpt>
      <trkpt lat="44.99552" lon="3.72935">
        <ele>1141</ele>
        <time>2021-04-13T10:18:29Z</time>
      </trkpt>
      <trkpt lat="44.99552" lon="3.72938">
        <ele>1142</ele>
        <time>2021-04-13T10:18:34Z</time>
      </trkpt>
      <trkpt lat="44.99552" lon="3.72938">
        <ele>1142</ele>
        <time>2021-04-13T10:18:38Z</time>
      </trkpt>
      <trkpt lat="44.99553" lon="3.72929">
        <ele>1142</ele>
        <time>2021-04-13T10:18:57Z</time>
      </trkpt>
      <trkpt lat="44.99553" lon="3.7293">
        <ele>1142</ele>
        <time>2021-04-13T10:19:04Z</time>
      </trkpt>
      <trkpt lat="44.99558" lon="3.72927">
        <ele>1142</ele>
        <time>2021-04-13T10:19:07Z</time>
      </trkpt>
      <trkpt lat="44.99568" lon="3.72922">
        <ele>1142</ele>
        <time>2021-04-13T10:19:13Z</time>
      </trkpt>
      <trkpt lat="44.9957" lon="3.72922">
        <ele>1142</ele>
        <time>2021-04-13T10:19:14Z</time>
      </trkpt>
      <trkpt lat="44.99572" lon="3.72921">
        <ele>1143</ele>
        <time>2021-04-13T10:19:16Z</time>
      </trkpt>
      <trkpt lat="44.99574" lon="3.7292">
        <ele>1143</ele>
        <time>2021-04-13T10:19:17Z</time>
      </trkpt>
      <trkpt lat="44.99576" lon="3.7292">
        <ele>1143</ele>
        <time>2021-04-13T10:19:18Z</time>
      </trkpt>
      <trkpt lat="44.99579" lon="3.72918">
        <ele>1143</ele>
        <time>2021-04-13T10:19:19Z</time>
      </trkpt>
      <trkpt lat="44.99581" lon="3.72917">
        <ele>1143</ele>
        <time>2021-04-13T10:19:20Z</time>
      </trkpt>
      <trkpt lat="44.99584" lon="3.72916">
        <ele>1144</ele>
        <time>2021-04-13T10:19:21Z</time>
      </trkpt>
      <trkpt lat="44.99589" lon="3.72913">
        <ele>1144</ele>
        <time>2021-04-13T10:19:23Z</time>
      </trkpt>
      <trkpt lat="44.99591" lon="3.72912">
        <ele>1144</ele>
        <time>2021-04-13T10:19:24Z</time>
      </trkpt>
      <trkpt lat="44.99594" lon="3.7291">
        <ele>1145</ele>
        <time>2021-04-13T10:19:25Z</time>
      </trkpt>
      <trkpt lat="44.99597" lon="3.72909">
        <ele>1145</ele>
        <time>2021-04-13T10:19:26Z</time>
      </trkpt>
      <trkpt lat="44.99601" lon="3.72905">
        <ele>1145</ele>
        <time>2021-04-13T10:19:27Z</time>
      </trkpt>
      <trkpt lat="44.99604" lon="3.72903">
        <ele>1146</ele>
        <time>2021-04-13T10:19:29Z</time>
      </trkpt>
      <trkpt lat="44.99606" lon="3.72901">
        <ele>1146</ele>
        <time>2021-04-13T10:19:30Z</time>
      </trkpt>
      <trkpt lat="44.99608" lon="3.72899">
        <ele>1146</ele>
        <time>2021-04-13T10:19:31Z</time>
      </trkpt>
      <trkpt lat="44.9962" lon="3.72889">
        <ele>1147</ele>
        <time>2021-04-13T10:19:35Z</time>
      </trkpt>
      <trkpt lat="44.99622" lon="3.72886">
        <ele>1147</ele>
        <time>2021-04-13T10:19:36Z</time>
      </trkpt>
      <trkpt lat="44.99625" lon="3.72883">
        <ele>1147</ele>
        <time>2021-04-13T10:19:37Z</time>
      </trkpt>
      <trkpt lat="44.99627" lon="3.7288">
        <ele>1148</ele>
        <time>2021-04-13T10:19:38Z</time>
      </trkpt>
      <trkpt lat="44.9963" lon="3.72877">
        <ele>1148</ele>
        <time>2021-04-13T10:19:39Z</time>
      </trkpt>
      <trkpt lat="44.99632" lon="3.72874">
        <ele>1148</ele>
        <time>2021-04-13T10:19:40Z</time>
      </trkpt>
      <trkpt lat="44.99634" lon="3.72871">
        <ele>1148</ele>
        <time>2021-04-13T10:19:41Z</time>
      </trkpt>
      <trkpt lat="44.99637" lon="3.72867">
        <ele>1148</ele>
        <time>2021-04-13T10:19:42Z</time>
      </trkpt>
      <trkpt lat="44.99641" lon="3.7286">
        <ele>1148</ele>
        <time>2021-04-13T10:19:44Z</time>
      </trkpt>
      <trkpt lat="44.99643" lon="3.72856">
        <ele>1148</ele>
        <time>2021-04-13T10:19:45Z</time>
      </trkpt>
      <trkpt lat="44.99646" lon="3.72853">
        <ele>1148</ele>
        <time>2021-04-13T10:19:46Z</time>
      </trkpt>
      <trkpt lat="44.99648" lon="3.72849">
        <ele>1149</ele>
        <time>2021-04-13T10:19:47Z</time>
      </trkpt>
      <trkpt lat="44.99649" lon="3.72845">
        <ele>1149</ele>
        <time>2021-04-13T10:19:48Z</time>
      </trkpt>
      <trkpt lat="44.9965" lon="3.72841">
        <ele>1149</ele>
        <time>2021-04-13T10:19:49Z</time>
      </trkpt>
      <trkpt lat="44.99651" lon="3.72837">
        <ele>1149</ele>
        <time>2021-04-13T10:19:50Z</time>
      </trkpt>
      <trkpt lat="44.99651" lon="3.72835">
        <ele>1149</ele>
        <time>2021-04-13T10:19:52Z</time>
      </trkpt>
      <trkpt lat="44.99646" lon="3.72842">
        <ele>1150</ele>
        <time>2021-04-13T10:20:05Z</time>
      </trkpt>
      <trkpt lat="44.99643" lon="3.72841">
        <ele>1147</ele>
        <time>2021-04-13T10:20:13Z</time>
      </trkpt>
      <trkpt lat="44.99647" lon="3.72837">
        <ele>1148</ele>
        <time>2021-04-13T10:20:43Z</time>
      </trkpt>
      <trkpt lat="44.99646" lon="3.72837">
        <ele>1149</ele>
        <time>2021-04-13T10:20:46Z</time>
      </trkpt>
      <trkpt lat="44.99644" lon="3.72833">
        <ele>1152</ele>
        <time>2021-04-13T10:21:05Z</time>
      </trkpt>
      <trkpt lat="44.99644" lon="3.72833">
        <ele>1152</ele>
        <time>2021-04-13T10:21:06Z</time>
      </trkpt>
      <trkpt lat="44.99644" lon="3.72832">
        <ele>1153</ele>
        <time>2021-04-13T10:21:08Z</time>
      </trkpt>
      <trkpt lat="44.99647" lon="3.72831">
        <ele>1153</ele>
        <time>2021-04-13T10:21:11Z</time>
      </trkpt>
      <trkpt lat="44.9965" lon="3.72829">
        <ele>1154</ele>
        <time>2021-04-13T10:21:20Z</time>
      </trkpt>
      <trkpt lat="44.99654" lon="3.72829">
        <ele>1155</ele>
        <time>2021-04-13T10:21:57Z</time>
      </trkpt>
      <trkpt lat="44.99655" lon="3.72824">
        <ele>1155</ele>
        <time>2021-04-13T10:21:58Z</time>
      </trkpt>
      <trkpt lat="44.99656" lon="3.72822">
        <ele>1155</ele>
        <time>2021-04-13T10:22:00Z</time>
      </trkpt>
      <trkpt lat="44.99658" lon="3.7282">
        <ele>1155</ele>
        <time>2021-04-13T10:22:01Z</time>
      </trkpt>
      <trkpt lat="44.99659" lon="3.72817">
        <ele>1155</ele>
        <time>2021-04-13T10:22:02Z</time>
      </trkpt>
      <trkpt lat="44.9966" lon="3.72815">
        <ele>1155</ele>
        <time>2021-04-13T10:22:03Z</time>
      </trkpt>
      <trkpt lat="44.99662" lon="3.72812">
        <ele>1155</ele>
        <time>2021-04-13T10:22:04Z</time>
      </trkpt>
      <trkpt lat="44.99668" lon="3.72799">
        <ele>1155</ele>
        <time>2021-04-13T10:22:08Z</time>
      </trkpt>
      <trkpt lat="44.99671" lon="3.72793">
        <ele>1156</ele>
        <time>2021-04-13T10:22:09Z</time>
      </trkpt>
      <trkpt lat="44.99673" lon="3.7279">
        <ele>1156</ele>
        <time>2021-04-13T10:22:11Z</time>
      </trkpt>
      <trkpt lat="44.99675" lon="3.72787">
        <ele>1156</ele>
        <time>2021-04-13T10:22:13Z</time>
      </trkpt>
      <trkpt lat="44.99677" lon="3.72783">
        <ele>1156</ele>
        <time>2021-04-13T10:22:15Z</time>
      </trkpt>
      <trkpt lat="44.99678" lon="3.72781">
        <ele>1156</ele>
        <time>2021-04-13T10:22:16Z</time>
      </trkpt>
      <trkpt lat="44.99679" lon="3.72779">
        <ele>1156</ele>
        <time>2021-04-13T10:22:17Z</time>
      </trkpt>
      <trkpt lat="44.9968" lon="3.72776">
        <ele>1156</ele>
        <time>2021-04-13T10:22:18Z</time>
      </trkpt>
      <trkpt lat="44.99683" lon="3.72771">
        <ele>1157</ele>
        <time>2021-04-13T10:22:20Z</time>
      </trkpt>
      <trkpt lat="44.99684" lon="3.72769">
        <ele>1157</ele>
        <time>2021-04-13T10:22:21Z</time>
      </trkpt>
      <trkpt lat="44.99686" lon="3.72765">
        <ele>1157</ele>
        <time>2021-04-13T10:22:22Z</time>
      </trkpt>
      <trkpt lat="44.99687" lon="3.72762">
        <ele>1157</ele>
        <time>2021-04-13T10:22:23Z</time>
      </trkpt>
      <trkpt lat="44.99688" lon="3.72758">
        <ele>1157</ele>
        <time>2021-04-13T10:22:24Z</time>
      </trkpt>
      <trkpt lat="44.99689" lon="3.72755">
        <ele>1157</ele>
        <time>2021-04-13T10:22:25Z</time>
      </trkpt>
      <trkpt lat="44.99689" lon="3.72751">
        <ele>1157</ele>
        <time>2021-04-13T10:22:26Z</time>
      </trkpt>
      <trkpt lat="44.9969" lon="3.72747">
        <ele>1157</ele>
        <time>2021-04-13T10:22:27Z</time>
      </trkpt>
      <trkpt lat="44.99691" lon="3.72729">
        <ele>1158</ele>
        <time>2021-04-13T10:22:31Z</time>
      </trkpt>
      <trkpt lat="44.99691" lon="3.72725">
        <ele>1158</ele>
        <time>2021-04-13T10:22:32Z</time>
      </trkpt>
      <trkpt lat="44.9969" lon="3.72721">
        <ele>1158</ele>
        <time>2021-04-13T10:22:33Z</time>
      </trkpt>
      <trkpt lat="44.9969" lon="3.72717">
        <ele>1158</ele>
        <time>2021-04-13T10:22:34Z</time>
      </trkpt>
      <trkpt lat="44.99689" lon="3.72713">
        <ele>1158</ele>
        <time>2021-04-13T10:22:35Z</time>
      </trkpt>
      <trkpt lat="44.99686" lon="3.727">
        <ele>1158</ele>
        <time>2021-04-13T10:22:38Z</time>
      </trkpt>
      <trkpt lat="44.99684" lon="3.72691">
        <ele>1158</ele>
        <time>2021-04-13T10:22:40Z</time>
      </trkpt>
      <trkpt lat="44.99683" lon="3.72687">
        <ele>1159</ele>
        <time>2021-04-13T10:22:41Z</time>
      </trkpt>
      <trkpt lat="44.99683" lon="3.72679">
        <ele>1159</ele>
        <time>2021-04-13T10:22:43Z</time>
      </trkpt>
      <trkpt lat="44.99684" lon="3.72675">
        <ele>1159</ele>
        <time>2021-04-13T10:22:44Z</time>
      </trkpt>
      <trkpt lat="44.99682" lon="3.72662">
        <ele>1159</ele>
        <time>2021-04-13T10:22:47Z</time>
      </trkpt>
      <trkpt lat="44.99681" lon="3.72657">
        <ele>1159</ele>
        <time>2021-04-13T10:22:48Z</time>
      </trkpt>
      <trkpt lat="44.99679" lon="3.72649">
        <ele>1160</ele>
        <time>2021-04-13T10:22:50Z</time>
      </trkpt>
      <trkpt lat="44.99678" lon="3.72645">
        <ele>1160</ele>
        <time>2021-04-13T10:22:51Z</time>
      </trkpt>
      <trkpt lat="44.99676" lon="3.72641">
        <ele>1160</ele>
        <time>2021-04-13T10:22:52Z</time>
      </trkpt>
      <trkpt lat="44.99674" lon="3.72637">
        <ele>1160</ele>
        <time>2021-04-13T10:22:53Z</time>
      </trkpt>
      <trkpt lat="44.99668" lon="3.7262">
        <ele>1161</ele>
        <time>2021-04-13T10:22:57Z</time>
      </trkpt>
      <trkpt lat="44.99666" lon="3.72611">
        <ele>1162</ele>
        <time>2021-04-13T10:22:59Z</time>
      </trkpt>
      <trkpt lat="44.99666" lon="3.72606">
        <ele>1162</ele>
        <time>2021-04-13T10:23:00Z</time>
      </trkpt>
      <trkpt lat="44.99666" lon="3.72601">
        <ele>1162</ele>
        <time>2021-04-13T10:23:01Z</time>
      </trkpt>
      <trkpt lat="44.99666" lon="3.72597">
        <ele>1162</ele>
        <time>2021-04-13T10:23:02Z</time>
      </trkpt>
      <trkpt lat="44.99667" lon="3.72594">
        <ele>1162</ele>
        <time>2021-04-13T10:23:03Z</time>
      </trkpt>
      <trkpt lat="44.99667" lon="3.7259">
        <ele>1162</ele>
        <time>2021-04-13T10:23:04Z</time>
      </trkpt>
      <trkpt lat="44.99668" lon="3.72587">
        <ele>1162</ele>
        <time>2021-04-13T10:23:05Z</time>
      </trkpt>
      <trkpt lat="44.9967" lon="3.72581">
        <ele>1162</ele>
        <time>2021-04-13T10:23:07Z</time>
      </trkpt>
      <trkpt lat="44.99672" lon="3.72578">
        <ele>1162</ele>
        <time>2021-04-13T10:23:08Z</time>
      </trkpt>
      <trkpt lat="44.99673" lon="3.72575">
        <ele>1163</ele>
        <time>2021-04-13T10:23:09Z</time>
      </trkpt>
      <trkpt lat="44.99675" lon="3.72572">
        <ele>1163</ele>
        <time>2021-04-13T10:23:10Z</time>
      </trkpt>
      <trkpt lat="44.99677" lon="3.7257">
        <ele>1163</ele>
        <time>2021-04-13T10:23:11Z</time>
      </trkpt>
      <trkpt lat="44.99679" lon="3.72568">
        <ele>1163</ele>
        <time>2021-04-13T10:23:12Z</time>
      </trkpt>
      <trkpt lat="44.9968" lon="3.72566">
        <ele>1163</ele>
        <time>2021-04-13T10:23:13Z</time>
      </trkpt>
      <trkpt lat="44.99684" lon="3.7256">
        <ele>1163</ele>
        <time>2021-04-13T10:23:15Z</time>
      </trkpt>
      <trkpt lat="44.9969" lon="3.72551">
        <ele>1164</ele>
        <time>2021-04-13T10:23:19Z</time>
      </trkpt>
      <trkpt lat="44.99692" lon="3.72548">
        <ele>1164</ele>
        <time>2021-04-13T10:23:20Z</time>
      </trkpt>
      <trkpt lat="44.99693" lon="3.72546">
        <ele>1165</ele>
        <time>2021-04-13T10:23:21Z</time>
      </trkpt>
      <trkpt lat="44.99702" lon="3.72538">
        <ele>1166</ele>
        <time>2021-04-13T10:23:25Z</time>
      </trkpt>
      <trkpt lat="44.99709" lon="3.7253">
        <ele>1167</ele>
        <time>2021-04-13T10:23:30Z</time>
      </trkpt>
      <trkpt lat="44.99717" lon="3.72523">
        <ele>1168</ele>
        <time>2021-04-13T10:23:33Z</time>
      </trkpt>
      <trkpt lat="44.99723" lon="3.72515">
        <ele>1169</ele>
        <time>2021-04-13T10:23:38Z</time>
      </trkpt>
      <trkpt lat="44.99729" lon="3.72501">
        <ele>1171</ele>
        <time>2021-04-13T10:23:43Z</time>
      </trkpt>
      <trkpt lat="44.99735" lon="3.72474">
        <ele>1173</ele>
        <time>2021-04-13T10:23:50Z</time>
      </trkpt>
      <trkpt lat="44.99737" lon="3.72459">
        <ele>1174</ele>
        <time>2021-04-13T10:23:54Z</time>
      </trkpt>
      <trkpt lat="44.99735" lon="3.72444">
        <ele>1176</ele>
        <time>2021-04-13T10:23:58Z</time>
      </trkpt>
      <trkpt lat="44.99734" lon="3.72436">
        <ele>1177</ele>
        <time>2021-04-13T10:24:00Z</time>
      </trkpt>
      <trkpt lat="44.99731" lon="3.7242">
        <ele>1178</ele>
        <time>2021-04-13T10:24:04Z</time>
      </trkpt>
      <trkpt lat="44.99729" lon="3.72409">
        <ele>1179</ele>
        <time>2021-04-13T10:24:07Z</time>
      </trkpt>
      <trkpt lat="44.99725" lon="3.72401">
        <ele>1180</ele>
        <time>2021-04-13T10:24:09Z</time>
      </trkpt>
      <trkpt lat="44.99724" lon="3.72397">
        <ele>1181</ele>
        <time>2021-04-13T10:24:10Z</time>
      </trkpt>
      <trkpt lat="44.9972" lon="3.72372">
        <ele>1183</ele>
        <time>2021-04-13T10:24:16Z</time>
      </trkpt>
      <trkpt lat="44.9972" lon="3.72358">
        <ele>1184</ele>
        <time>2021-04-13T10:24:19Z</time>
      </trkpt>
      <trkpt lat="44.99722" lon="3.72343">
        <ele>1185</ele>
        <time>2021-04-13T10:24:23Z</time>
      </trkpt>
      <trkpt lat="44.99724" lon="3.7233">
        <ele>1186</ele>
        <time>2021-04-13T10:24:26Z</time>
      </trkpt>
      <trkpt lat="44.99723" lon="3.72316">
        <ele>1187</ele>
        <time>2021-04-13T10:24:29Z</time>
      </trkpt>
      <trkpt lat="44.99724" lon="3.72303">
        <ele>1188</ele>
        <time>2021-04-13T10:24:32Z</time>
      </trkpt>
      <trkpt lat="44.99723" lon="3.7229">
        <ele>1189</ele>
        <time>2021-04-13T10:24:35Z</time>
      </trkpt>
      <trkpt lat="44.99721" lon="3.72274">
        <ele>1192</ele>
        <time>2021-04-13T10:24:39Z</time>
      </trkpt>
      <trkpt lat="44.9972" lon="3.72248">
        <ele>1195</ele>
        <time>2021-04-13T10:24:48Z</time>
      </trkpt>
      <trkpt lat="44.99727" lon="3.72244">
        <ele>1196</ele>
        <time>2021-04-13T10:24:51Z</time>
      </trkpt>
      <trkpt lat="44.99734" lon="3.72233">
        <ele>1197</ele>
        <time>2021-04-13T10:24:55Z</time>
      </trkpt>
      <trkpt lat="44.99739" lon="3.72222">
        <ele>1198</ele>
        <time>2021-04-13T10:24:58Z</time>
      </trkpt>
      <trkpt lat="44.99749" lon="3.7222">
        <ele>1199</ele>
        <time>2021-04-13T10:25:02Z</time>
      </trkpt>
      <trkpt lat="44.99754" lon="3.72223">
        <ele>1200</ele>
        <time>2021-04-13T10:25:04Z</time>
      </trkpt>
      <trkpt lat="44.99756" lon="3.72225">
        <ele>1200</ele>
        <time>2021-04-13T10:25:05Z</time>
      </trkpt>
      <trkpt lat="44.99759" lon="3.72227">
        <ele>1200</ele>
        <time>2021-04-13T10:25:06Z</time>
      </trkpt>
      <trkpt lat="44.99776" lon="3.72221">
        <ele>1208</ele>
        <time>2021-04-13T10:26:07Z</time>
      </trkpt>
      <trkpt lat="44.99775" lon="3.7222">
        <ele>1208</ele>
        <time>2021-04-13T10:26:10Z</time>
      </trkpt>
      <trkpt lat="44.99777" lon="3.72221">
        <ele>1208</ele>
        <time>2021-04-13T10:26:15Z</time>
      </trkpt>
      <trkpt lat="44.99777" lon="3.72218">
        <ele>1208</ele>
        <time>2021-04-13T10:26:17Z</time>
      </trkpt>
      <trkpt lat="44.99775" lon="3.7221">
        <ele>1208</ele>
        <time>2021-04-13T10:26:22Z</time>
      </trkpt>
      <trkpt lat="44.99774" lon="3.72207">
        <ele>1208</ele>
        <time>2021-04-13T10:26:24Z</time>
      </trkpt>
      <trkpt lat="44.99772" lon="3.72208">
        <ele>1209</ele>
        <time>2021-04-13T10:26:27Z</time>
      </trkpt>
      <trkpt lat="44.99772" lon="3.72214">
        <ele>1214</ele>
        <time>2021-04-13T10:26:49Z</time>
      </trkpt>
      <trkpt lat="44.99773" lon="3.72219">
        <ele>1215</ele>
        <time>2021-04-13T10:26:53Z</time>
      </trkpt>
      <trkpt lat="44.99775" lon="3.72221">
        <ele>1214</ele>
        <time>2021-04-13T10:26:56Z</time>
      </trkpt>
      <trkpt lat="44.99776" lon="3.72224">
        <ele>1213</ele>
        <time>2021-04-13T10:26:58Z</time>
      </trkpt>
      <trkpt lat="44.99776" lon="3.72227">
        <ele>1212</ele>
        <time>2021-04-13T10:27:00Z</time>
      </trkpt>
      <trkpt lat="44.99777" lon="3.7223">
        <ele>1212</ele>
        <time>2021-04-13T10:27:01Z</time>
      </trkpt>
      <trkpt lat="44.99777" lon="3.72234">
        <ele>1213</ele>
        <time>2021-04-13T10:27:02Z</time>
      </trkpt>
      <trkpt lat="44.99777" lon="3.72238">
        <ele>1213</ele>
        <time>2021-04-13T10:27:03Z</time>
      </trkpt>
      <trkpt lat="44.99779" lon="3.72243">
        <ele>1213</ele>
        <time>2021-04-13T10:27:04Z</time>
      </trkpt>
      <trkpt lat="44.99791" lon="3.72277">
        <ele>1213</ele>
        <time>2021-04-13T10:27:10Z</time>
      </trkpt>
      <trkpt lat="44.99795" lon="3.72278">
        <ele>1213</ele>
        <time>2021-04-13T10:27:11Z</time>
      </trkpt>
      <trkpt lat="44.99798" lon="3.72278">
        <ele>1213</ele>
        <time>2021-04-13T10:27:12Z</time>
      </trkpt>
      <trkpt lat="44.998" lon="3.72278">
        <ele>1213</ele>
        <time>2021-04-13T10:27:13Z</time>
      </trkpt>
      <trkpt lat="44.99802" lon="3.72278">
        <ele>1213</ele>
        <time>2021-04-13T10:27:14Z</time>
      </trkpt>
      <trkpt lat="44.99809" lon="3.7227">
        <ele>1214</ele>
        <time>2021-04-13T10:28:11Z</time>
      </trkpt>
      <trkpt lat="44.99812" lon="3.72268">
        <ele>1214</ele>
        <time>2021-04-13T10:28:12Z</time>
      </trkpt>
      <trkpt lat="44.99814" lon="3.72265">
        <ele>1214</ele>
        <time>2021-04-13T10:28:13Z</time>
      </trkpt>
      <trkpt lat="44.99818" lon="3.72262">
        <ele>1214</ele>
        <time>2021-04-13T10:28:15Z</time>
      </trkpt>
      <trkpt lat="44.9982" lon="3.72262">
        <ele>1214</ele>
        <time>2021-04-13T10:28:18Z</time>
      </trkpt>
      <trkpt lat="44.99814" lon="3.72262">
        <ele>1214</ele>
        <time>2021-04-13T10:28:35Z</time>
      </trkpt>
      <trkpt lat="44.99812" lon="3.72265">
        <ele>1214</ele>
        <time>2021-04-13T10:28:36Z</time>
      </trkpt>
      <trkpt lat="44.9981" lon="3.72267">
        <ele>1214</ele>
        <time>2021-04-13T10:28:38Z</time>
      </trkpt>
      <trkpt lat="44.99808" lon="3.72267">
        <ele>1214</ele>
        <time>2021-04-13T10:28:40Z</time>
      </trkpt>
      <trkpt lat="44.99805" lon="3.72266">
        <ele>1213</ele>
        <time>2021-04-13T10:28:44Z</time>
      </trkpt>
      <trkpt lat="44.99804" lon="3.72265">
        <ele>1213</ele>
        <time>2021-04-13T10:28:48Z</time>
      </trkpt>
      <trkpt lat="44.99804" lon="3.72281">
        <ele>1213</ele>
        <time>2021-04-13T10:29:33Z</time>
      </trkpt>
      <trkpt lat="44.99804" lon="3.72276">
        <ele>1213</ele>
        <time>2021-04-13T10:29:36Z</time>
      </trkpt>
      <trkpt lat="44.99805" lon="3.72273">
        <ele>1213</ele>
        <time>2021-04-13T10:29:39Z</time>
      </trkpt>
      <trkpt lat="44.99803" lon="3.72273">
        <ele>1213</ele>
        <time>2021-04-13T10:29:41Z</time>
      </trkpt>
      <trkpt lat="44.998" lon="3.72275">
        <ele>1213</ele>
        <time>2021-04-13T10:29:43Z</time>
      </trkpt>
      <trkpt lat="44.99798" lon="3.72278">
        <ele>1212</ele>
        <time>2021-04-13T10:29:45Z</time>
      </trkpt>
      <trkpt lat="44.99796" lon="3.72281">
        <ele>1212</ele>
        <time>2021-04-13T10:29:47Z</time>
      </trkpt>
      <trkpt lat="44.99794" lon="3.72284">
        <ele>1212</ele>
        <time>2021-04-13T10:29:49Z</time>
      </trkpt>
      <trkpt lat="44.99791" lon="3.72283">
        <ele>1211</ele>
        <time>2021-04-13T10:29:57Z</time>
      </trkpt>
      <trkpt lat="44.99791" lon="3.7228">
        <ele>1211</ele>
        <time>2021-04-13T10:29:59Z</time>
      </trkpt>
      <trkpt lat="44.99791" lon="3.72277">
        <ele>1211</ele>
        <time>2021-04-13T10:30:06Z</time>
      </trkpt>
      <trkpt lat="44.99793" lon="3.72276">
        <ele>1211</ele>
        <time>2021-04-13T10:30:33Z</time>
      </trkpt>
      <trkpt lat="44.99795" lon="3.72276">
        <ele>1211</ele>
        <time>2021-04-13T10:30:34Z</time>
      </trkpt>
      <trkpt lat="44.99797" lon="3.72275">
        <ele>1211</ele>
        <time>2021-04-13T10:30:37Z</time>
      </trkpt>
      <trkpt lat="44.998" lon="3.72275">
        <ele>1212</ele>
        <time>2021-04-13T10:30:39Z</time>
      </trkpt>
      <trkpt lat="44.99803" lon="3.72274">
        <ele>1212</ele>
        <time>2021-04-13T10:30:41Z</time>
      </trkpt>
      <trkpt lat="44.99812" lon="3.72269">
        <ele>1212</ele>
        <time>2021-04-13T10:30:51Z</time>
      </trkpt>
      <trkpt lat="44.99814" lon="3.72266">
        <ele>1213</ele>
        <time>2021-04-13T10:30:53Z</time>
      </trkpt>
      <trkpt lat="44.99816" lon="3.72265">
        <ele>1213</ele>
        <time>2021-04-13T10:30:55Z</time>
      </trkpt>
      <trkpt lat="44.99817" lon="3.72263">
        <ele>1213</ele>
        <time>2021-04-13T10:30:57Z</time>
      </trkpt>
      <trkpt lat="44.99819" lon="3.72261">
        <ele>1213</ele>
        <time>2021-04-13T10:30:59Z</time>
      </trkpt>
      <trkpt lat="44.99818" lon="3.72259">
        <ele>1211</ele>
        <time>2021-04-13T10:31:15Z</time>
      </trkpt>
      <trkpt lat="44.9982" lon="3.72256">
        <ele>1211</ele>
        <time>2021-04-13T10:31:16Z</time>
      </trkpt>
      <trkpt lat="44.99823" lon="3.72253">
        <ele>1211</ele>
        <time>2021-04-13T10:31:18Z</time>
      </trkpt>
      <trkpt lat="44.99828" lon="3.72246">
        <ele>1211</ele>
        <time>2021-04-13T10:31:20Z</time>
      </trkpt>
      <trkpt lat="44.99831" lon="3.7224">
        <ele>1211</ele>
        <time>2021-04-13T10:31:21Z</time>
      </trkpt>
      <trkpt lat="44.99834" lon="3.72235">
        <ele>1211</ele>
        <time>2021-04-13T10:31:22Z</time>
      </trkpt>
      <trkpt lat="44.99836" lon="3.72229">
        <ele>1211</ele>
        <time>2021-04-13T10:31:23Z</time>
      </trkpt>
      <trkpt lat="44.99839" lon="3.72224">
        <ele>1211</ele>
        <time>2021-04-13T10:31:24Z</time>
      </trkpt>
      <trkpt lat="44.99844" lon="3.72213">
        <ele>1211</ele>
        <time>2021-04-13T10:31:25Z</time>
      </trkpt>
      <trkpt lat="44.99846" lon="3.72208">
        <ele>1211</ele>
        <time>2021-04-13T10:31:26Z</time>
      </trkpt>
      <trkpt lat="44.9985" lon="3.72199">
        <ele>1211</ele>
        <time>2021-04-13T10:31:28Z</time>
      </trkpt>
      <trkpt lat="44.99858" lon="3.72184">
        <ele>1211</ele>
        <time>2021-04-13T10:31:32Z</time>
      </trkpt>
      <trkpt lat="44.99859" lon="3.72179">
        <ele>1211</ele>
        <time>2021-04-13T10:31:33Z</time>
      </trkpt>
      <trkpt lat="44.99861" lon="3.72175">
        <ele>1211</ele>
        <time>2021-04-13T10:31:34Z</time>
      </trkpt>
      <trkpt lat="44.99863" lon="3.72171">
        <ele>1211</ele>
        <time>2021-04-13T10:31:35Z</time>
      </trkpt>
      <trkpt lat="44.99864" lon="3.72166">
        <ele>1211</ele>
        <time>2021-04-13T10:31:36Z</time>
      </trkpt>
      <trkpt lat="44.99867" lon="3.72157">
        <ele>1212</ele>
        <time>2021-04-13T10:31:38Z</time>
      </trkpt>
      <trkpt lat="44.99869" lon="3.72153">
        <ele>1212</ele>
        <time>2021-04-13T10:31:39Z</time>
      </trkpt>
      <trkpt lat="44.99875" lon="3.72141">
        <ele>1212</ele>
        <time>2021-04-13T10:31:43Z</time>
      </trkpt>
      <trkpt lat="44.99887" lon="3.72118">
        <ele>1213</ele>
        <time>2021-04-13T10:31:49Z</time>
      </trkpt>
      <trkpt lat="44.99894" lon="3.72104">
        <ele>1213</ele>
        <time>2021-04-13T10:31:52Z</time>
      </trkpt>
      <trkpt lat="44.99901" lon="3.72091">
        <ele>1213</ele>
        <time>2021-04-13T10:31:54Z</time>
      </trkpt>
      <trkpt lat="44.99908" lon="3.72077">
        <ele>1213</ele>
        <time>2021-04-13T10:31:58Z</time>
      </trkpt>
      <trkpt lat="44.99915" lon="3.72066">
        <ele>1212</ele>
        <time>2021-04-13T10:32:01Z</time>
      </trkpt>
      <trkpt lat="44.99917" lon="3.72062">
        <ele>1212</ele>
        <time>2021-04-13T10:32:02Z</time>
      </trkpt>
      <trkpt lat="44.9992" lon="3.72057">
        <ele>1212</ele>
        <time>2021-04-13T10:32:03Z</time>
      </trkpt>
      <trkpt lat="44.99926" lon="3.72048">
        <ele>1211</ele>
        <time>2021-04-13T10:32:05Z</time>
      </trkpt>
      <trkpt lat="44.99939" lon="3.72029">
        <ele>1211</ele>
        <time>2021-04-13T10:32:09Z</time>
      </trkpt>
      <trkpt lat="44.99942" lon="3.72025">
        <ele>1211</ele>
        <time>2021-04-13T10:32:10Z</time>
      </trkpt>
      <trkpt lat="44.99947" lon="3.72014">
        <ele>1211</ele>
        <time>2021-04-13T10:32:13Z</time>
      </trkpt>
      <trkpt lat="44.99953" lon="3.71999">
        <ele>1211</ele>
        <time>2021-04-13T10:32:17Z</time>
      </trkpt>
      <trkpt lat="44.99961" lon="3.71987">
        <ele>1212</ele>
        <time>2021-04-13T10:32:20Z</time>
      </trkpt>
      <trkpt lat="44.99971" lon="3.71976">
        <ele>1213</ele>
        <time>2021-04-13T10:32:23Z</time>
      </trkpt>
      <trkpt lat="44.99979" lon="3.7197">
        <ele>1214</ele>
        <time>2021-04-13T10:32:25Z</time>
      </trkpt>
      <trkpt lat="44.99989" lon="3.71959">
        <ele>1214</ele>
        <time>2021-04-13T10:32:28Z</time>
      </trkpt>
      <trkpt lat="45.00007" lon="3.71947">
        <ele>1215</ele>
        <time>2021-04-13T10:32:34Z</time>
      </trkpt>
      <trkpt lat="45.00018" lon="3.71935">
        <ele>1216</ele>
        <time>2021-04-13T10:32:37Z</time>
      </trkpt>
      <trkpt lat="45.00025" lon="3.71927">
        <ele>1216</ele>
        <time>2021-04-13T10:32:39Z</time>
      </trkpt>
      <trkpt lat="45.00035" lon="3.7192">
        <ele>1216</ele>
        <time>2021-04-13T10:32:42Z</time>
      </trkpt>
      <trkpt lat="45.00047" lon="3.7191">
        <ele>1217</ele>
        <time>2021-04-13T10:32:45Z</time>
      </trkpt>
      <trkpt lat="45.00055" lon="3.71904">
        <ele>1217</ele>
        <time>2021-04-13T10:32:48Z</time>
      </trkpt>
      <trkpt lat="45.00064" lon="3.71901">
        <ele>1217</ele>
        <time>2021-04-13T10:32:50Z</time>
      </trkpt>
      <trkpt lat="45.00073" lon="3.71896">
        <ele>1217</ele>
        <time>2021-04-13T10:32:51Z</time>
      </trkpt>
      <trkpt lat="45.00114" lon="3.71869">
        <ele>1219</ele>
        <time>2021-04-13T10:33:01Z</time>
      </trkpt>
      <trkpt lat="45.00124" lon="3.71862">
        <ele>1219</ele>
        <time>2021-04-13T10:33:03Z</time>
      </trkpt>
      <trkpt lat="45.00133" lon="3.71856">
        <ele>1218</ele>
        <time>2021-04-13T10:33:05Z</time>
      </trkpt>
      <trkpt lat="45.00142" lon="3.71851">
        <ele>1218</ele>
        <time>2021-04-13T10:33:08Z</time>
      </trkpt>
      <trkpt lat="45.00151" lon="3.71843">
        <ele>1218</ele>
        <time>2021-04-13T10:33:10Z</time>
      </trkpt>
      <trkpt lat="45.00162" lon="3.71838">
        <ele>1218</ele>
        <time>2021-04-13T10:33:14Z</time>
      </trkpt>
      <trkpt lat="45.00174" lon="3.71831">
        <ele>1217</ele>
        <time>2021-04-13T10:33:17Z</time>
      </trkpt>
      <trkpt lat="45.00185" lon="3.71826">
        <ele>1218</ele>
        <time>2021-04-13T10:33:20Z</time>
      </trkpt>
      <trkpt lat="45.00205" lon="3.71817">
        <ele>1218</ele>
        <time>2021-04-13T10:33:24Z</time>
      </trkpt>
      <trkpt lat="45.00214" lon="3.71814">
        <ele>1218</ele>
        <time>2021-04-13T10:33:26Z</time>
      </trkpt>
      <trkpt lat="45.00223" lon="3.71808">
        <ele>1218</ele>
        <time>2021-04-13T10:33:28Z</time>
      </trkpt>
      <trkpt lat="45.00233" lon="3.71802">
        <ele>1218</ele>
        <time>2021-04-13T10:33:30Z</time>
      </trkpt>
      <trkpt lat="45.00244" lon="3.71793">
        <ele>1218</ele>
        <time>2021-04-13T10:33:33Z</time>
      </trkpt>
      <trkpt lat="45.00254" lon="3.71786">
        <ele>1219</ele>
        <time>2021-04-13T10:33:36Z</time>
      </trkpt>
      <trkpt lat="45.00262" lon="3.71779">
        <ele>1220</ele>
        <time>2021-04-13T10:33:39Z</time>
      </trkpt>
      <trkpt lat="45.00272" lon="3.71778">
        <ele>1220</ele>
        <time>2021-04-13T10:33:42Z</time>
      </trkpt>
      <trkpt lat="45.00311" lon="3.71763">
        <ele>1223</ele>
        <time>2021-04-13T10:33:56Z</time>
      </trkpt>
      <trkpt lat="45.00319" lon="3.71754">
        <ele>1223</ele>
        <time>2021-04-13T10:33:59Z</time>
      </trkpt>
      <trkpt lat="45.00331" lon="3.71746">
        <ele>1222</ele>
        <time>2021-04-13T10:34:03Z</time>
      </trkpt>
      <trkpt lat="45.00342" lon="3.71737">
        <ele>1221</ele>
        <time>2021-04-13T10:34:06Z</time>
      </trkpt>
      <trkpt lat="45.00354" lon="3.71728">
        <ele>1220</ele>
        <time>2021-04-13T10:34:07Z</time>
      </trkpt>
      <trkpt lat="45.00365" lon="3.71722">
        <ele>1218</ele>
        <time>2021-04-13T10:34:10Z</time>
      </trkpt>
      <trkpt lat="45.00376" lon="3.71712">
        <ele>1218</ele>
        <time>2021-04-13T10:34:12Z</time>
      </trkpt>
      <trkpt lat="45.00384" lon="3.71701">
        <ele>1218</ele>
        <time>2021-04-13T10:34:15Z</time>
      </trkpt>
      <trkpt lat="45.00389" lon="3.7169">
        <ele>1217</ele>
        <time>2021-04-13T10:34:18Z</time>
      </trkpt>
      <trkpt lat="45.00389" lon="3.71687">
        <ele>1217</ele>
        <time>2021-04-13T10:34:19Z</time>
      </trkpt>
      <trkpt lat="45.00395" lon="3.71685">
        <ele>1217</ele>
        <time>2021-04-13T10:34:22Z</time>
      </trkpt>
      <trkpt lat="45.00401" lon="3.71683">
        <ele>1217</ele>
        <time>2021-04-13T10:34:23Z</time>
      </trkpt>
      <trkpt lat="45.00407" lon="3.71682">
        <ele>1218</ele>
        <time>2021-04-13T10:34:24Z</time>
      </trkpt>
      <trkpt lat="45.00419" lon="3.71678">
        <ele>1218</ele>
        <time>2021-04-13T10:34:26Z</time>
      </trkpt>
      <trkpt lat="45.00425" lon="3.71676">
        <ele>1218</ele>
        <time>2021-04-13T10:34:28Z</time>
      </trkpt>
      <trkpt lat="45.00434" lon="3.71672">
        <ele>1218</ele>
        <time>2021-04-13T10:34:30Z</time>
      </trkpt>
      <trkpt lat="45.00478" lon="3.71654">
        <ele>1218</ele>
        <time>2021-04-13T10:34:39Z</time>
      </trkpt>
      <trkpt lat="45.00489" lon="3.7165">
        <ele>1218</ele>
        <time>2021-04-13T10:34:41Z</time>
      </trkpt>
      <trkpt lat="45.00501" lon="3.71644">
        <ele>1218</ele>
        <time>2021-04-13T10:34:44Z</time>
      </trkpt>
      <trkpt lat="45.00514" lon="3.71639">
        <ele>1218</ele>
        <time>2021-04-13T10:34:46Z</time>
      </trkpt>
      <trkpt lat="45.00523" lon="3.71632">
        <ele>1218</ele>
        <time>2021-04-13T10:34:48Z</time>
      </trkpt>
      <trkpt lat="45.00535" lon="3.71623">
        <ele>1217</ele>
        <time>2021-04-13T10:34:50Z</time>
      </trkpt>
      <trkpt lat="45.00545" lon="3.71616">
        <ele>1217</ele>
        <time>2021-04-13T10:34:52Z</time>
      </trkpt>
      <trkpt lat="45.00555" lon="3.71609">
        <ele>1217</ele>
        <time>2021-04-13T10:34:56Z</time>
      </trkpt>
      <trkpt lat="45.00579" lon="3.71594">
        <ele>1218</ele>
        <time>2021-04-13T10:35:01Z</time>
      </trkpt>
      <trkpt lat="45.00595" lon="3.71585">
        <ele>1218</ele>
        <time>2021-04-13T10:35:03Z</time>
      </trkpt>
      <trkpt lat="45.006" lon="3.71584">
        <ele>1218</ele>
        <time>2021-04-13T10:35:04Z</time>
      </trkpt>
      <trkpt lat="45.00604" lon="3.71583">
        <ele>1218</ele>
        <time>2021-04-13T10:35:06Z</time>
      </trkpt>
      <trkpt lat="45.00609" lon="3.71582">
        <ele>1218</ele>
        <time>2021-04-13T10:35:07Z</time>
      </trkpt>
      <trkpt lat="45.00613" lon="3.71582">
        <ele>1218</ele>
        <time>2021-04-13T10:35:08Z</time>
      </trkpt>
      <trkpt lat="45.00618" lon="3.7158">
        <ele>1218</ele>
        <time>2021-04-13T10:35:09Z</time>
      </trkpt>
      <trkpt lat="45.00622" lon="3.7158">
        <ele>1218</ele>
        <time>2021-04-13T10:35:10Z</time>
      </trkpt>
      <trkpt lat="45.00659" lon="3.71574">
        <ele>1219</ele>
        <time>2021-04-13T10:35:17Z</time>
      </trkpt>
      <trkpt lat="45.00664" lon="3.71572">
        <ele>1219</ele>
        <time>2021-04-13T10:35:18Z</time>
      </trkpt>
      <trkpt lat="45.00669" lon="3.71569">
        <ele>1219</ele>
        <time>2021-04-13T10:35:19Z</time>
      </trkpt>
      <trkpt lat="45.00674" lon="3.71568">
        <ele>1219</ele>
        <time>2021-04-13T10:35:20Z</time>
      </trkpt>
      <trkpt lat="45.00679" lon="3.71567">
        <ele>1219</ele>
        <time>2021-04-13T10:35:21Z</time>
      </trkpt>
      <trkpt lat="45.00684" lon="3.71566">
        <ele>1219</ele>
        <time>2021-04-13T10:35:22Z</time>
      </trkpt>
      <trkpt lat="45.00688" lon="3.71565">
        <ele>1219</ele>
        <time>2021-04-13T10:35:23Z</time>
      </trkpt>
      <trkpt lat="45.00692" lon="3.71565">
        <ele>1219</ele>
        <time>2021-04-13T10:35:24Z</time>
      </trkpt>
      <trkpt lat="45.00701" lon="3.71565">
        <ele>1220</ele>
        <time>2021-04-13T10:35:26Z</time>
      </trkpt>
      <trkpt lat="45.00705" lon="3.71563">
        <ele>1220</ele>
        <time>2021-04-13T10:35:27Z</time>
      </trkpt>
      <trkpt lat="45.0071" lon="3.71562">
        <ele>1220</ele>
        <time>2021-04-13T10:35:28Z</time>
      </trkpt>
      <trkpt lat="45.0072" lon="3.71556">
        <ele>1220</ele>
        <time>2021-04-13T10:35:30Z</time>
      </trkpt>
      <trkpt lat="45.00732" lon="3.71551">
        <ele>1219</ele>
        <time>2021-04-13T10:35:32Z</time>
      </trkpt>
      <trkpt lat="45.00743" lon="3.71547">
        <ele>1218</ele>
        <time>2021-04-13T10:35:35Z</time>
      </trkpt>
      <trkpt lat="45.00756" lon="3.71545">
        <ele>1219</ele>
        <time>2021-04-13T10:35:38Z</time>
      </trkpt>
      <trkpt lat="45.00768" lon="3.7154">
        <ele>1219</ele>
        <time>2021-04-13T10:35:40Z</time>
      </trkpt>
      <trkpt lat="45.00814" lon="3.71516">
        <ele>1219</ele>
        <time>2021-04-13T10:35:48Z</time>
      </trkpt>
      <trkpt lat="45.00825" lon="3.71511">
        <ele>1218</ele>
        <time>2021-04-13T10:35:50Z</time>
      </trkpt>
      <trkpt lat="45.00837" lon="3.71504">
        <ele>1218</ele>
        <time>2021-04-13T10:35:52Z</time>
      </trkpt>
      <trkpt lat="45.00851" lon="3.71494">
        <ele>1216</ele>
        <time>2021-04-13T10:35:55Z</time>
      </trkpt>
      <trkpt lat="45.00861" lon="3.71489">
        <ele>1215</ele>
        <time>2021-04-13T10:35:57Z</time>
      </trkpt>
      <trkpt lat="45.00866" lon="3.71486">
        <ele>1215</ele>
        <time>2021-04-13T10:35:58Z</time>
      </trkpt>
      <trkpt lat="45.00871" lon="3.71485">
        <ele>1214</ele>
        <time>2021-04-13T10:35:59Z</time>
      </trkpt>
      <trkpt lat="45.00879" lon="3.71486">
        <ele>1214</ele>
        <time>2021-04-13T10:36:00Z</time>
      </trkpt>
      <trkpt lat="45.00884" lon="3.71494">
        <ele>1214</ele>
        <time>2021-04-13T10:36:02Z</time>
      </trkpt>
      <trkpt lat="45.00885" lon="3.71499">
        <ele>1213</ele>
        <time>2021-04-13T10:36:03Z</time>
      </trkpt>
      <trkpt lat="45.00886" lon="3.71503">
        <ele>1213</ele>
        <time>2021-04-13T10:36:04Z</time>
      </trkpt>
      <trkpt lat="45.00888" lon="3.71511">
        <ele>1212</ele>
        <time>2021-04-13T10:36:06Z</time>
      </trkpt>
      <trkpt lat="45.0089" lon="3.71515">
        <ele>1212</ele>
        <time>2021-04-13T10:36:07Z</time>
      </trkpt>
      <trkpt lat="45.00892" lon="3.71519">
        <ele>1212</ele>
        <time>2021-04-13T10:36:08Z</time>
      </trkpt>
      <trkpt lat="45.00893" lon="3.71523">
        <ele>1212</ele>
        <time>2021-04-13T10:36:09Z</time>
      </trkpt>
      <trkpt lat="45.00895" lon="3.71527">
        <ele>1212</ele>
        <time>2021-04-13T10:36:10Z</time>
      </trkpt>
      <trkpt lat="45.00902" lon="3.71544">
        <ele>1212</ele>
        <time>2021-04-13T10:36:14Z</time>
      </trkpt>
      <trkpt lat="45.00903" lon="3.71548">
        <ele>1212</ele>
        <time>2021-04-13T10:36:15Z</time>
      </trkpt>
      <trkpt lat="45.00905" lon="3.71552">
        <ele>1213</ele>
        <time>2021-04-13T10:36:16Z</time>
      </trkpt>
      <trkpt lat="45.00907" lon="3.71556">
        <ele>1213</ele>
        <time>2021-04-13T10:36:17Z</time>
      </trkpt>
      <trkpt lat="45.00908" lon="3.7156">
        <ele>1213</ele>
        <time>2021-04-13T10:36:18Z</time>
      </trkpt>
      <trkpt lat="45.0091" lon="3.71565">
        <ele>1213</ele>
        <time>2021-04-13T10:36:19Z</time>
      </trkpt>
      <trkpt lat="45.00912" lon="3.71569">
        <ele>1213</ele>
        <time>2021-04-13T10:36:20Z</time>
      </trkpt>
      <trkpt lat="45.00914" lon="3.71573">
        <ele>1213</ele>
        <time>2021-04-13T10:36:21Z</time>
      </trkpt>
      <trkpt lat="45.00918" lon="3.7158">
        <ele>1213</ele>
        <time>2021-04-13T10:36:23Z</time>
      </trkpt>
      <trkpt lat="45.0092" lon="3.71584">
        <ele>1213</ele>
        <time>2021-04-13T10:36:24Z</time>
      </trkpt>
      <trkpt lat="45.00923" lon="3.71588">
        <ele>1214</ele>
        <time>2021-04-13T10:36:25Z</time>
      </trkpt>
      <trkpt lat="45.00925" lon="3.71591">
        <ele>1214</ele>
        <time>2021-04-13T10:36:26Z</time>
      </trkpt>
      <trkpt lat="45.00927" lon="3.71595">
        <ele>1214</ele>
        <time>2021-04-13T10:36:27Z</time>
      </trkpt>
      <trkpt lat="45.00929" lon="3.71598">
        <ele>1214</ele>
        <time>2021-04-13T10:36:28Z</time>
      </trkpt>
      <trkpt lat="45.00931" lon="3.716">
        <ele>1214</ele>
        <time>2021-04-13T10:36:29Z</time>
      </trkpt>
      <trkpt lat="45.00934" lon="3.71602">
        <ele>1214</ele>
        <time>2021-04-13T10:36:30Z</time>
      </trkpt>
      <trkpt lat="45.00942" lon="3.7161">
        <ele>1215</ele>
        <time>2021-04-13T10:36:36Z</time>
      </trkpt>
      <trkpt lat="45.00941" lon="3.71613">
        <ele>1215</ele>
        <time>2021-04-13T10:36:39Z</time>
      </trkpt>
      <trkpt lat="45.00941" lon="3.71613">
        <ele>1215</ele>
        <time>2021-04-13T10:36:44Z</time>
      </trkpt>
      <trkpt lat="45.00941" lon="3.71609">
        <ele>1217</ele>
        <time>2021-04-13T10:37:05Z</time>
      </trkpt>
      <trkpt lat="45.00947" lon="3.71611">
        <ele>1218</ele>
        <time>2021-04-13T10:37:19Z</time>
      </trkpt>
      <trkpt lat="45.0095" lon="3.71614">
        <ele>1218</ele>
        <time>2021-04-13T10:37:20Z</time>
      </trkpt>
      <trkpt lat="45.00952" lon="3.71616">
        <ele>1219</ele>
        <time>2021-04-13T10:37:22Z</time>
      </trkpt>
      <trkpt lat="45.00955" lon="3.71617">
        <ele>1219</ele>
        <time>2021-04-13T10:37:23Z</time>
      </trkpt>
      <trkpt lat="45.00961" lon="3.71617">
        <ele>1219</ele>
        <time>2021-04-13T10:37:25Z</time>
      </trkpt>
      <trkpt lat="45.00964" lon="3.71617">
        <ele>1219</ele>
        <time>2021-04-13T10:37:26Z</time>
      </trkpt>
      <trkpt lat="45.00966" lon="3.71616">
        <ele>1220</ele>
        <time>2021-04-13T10:37:27Z</time>
      </trkpt>
      <trkpt lat="45.00969" lon="3.71616">
        <ele>1220</ele>
        <time>2021-04-13T10:37:28Z</time>
      </trkpt>
      <trkpt lat="45.00971" lon="3.71615">
        <ele>1220</ele>
        <time>2021-04-13T10:37:30Z</time>
      </trkpt>
      <trkpt lat="45.00973" lon="3.71614">
        <ele>1220</ele>
        <time>2021-04-13T10:37:32Z</time>
      </trkpt>
      <trkpt lat="45.00975" lon="3.71614">
        <ele>1220</ele>
        <time>2021-04-13T10:37:34Z</time>
      </trkpt>
      <trkpt lat="45.00977" lon="3.71615">
        <ele>1220</ele>
        <time>2021-04-13T10:37:36Z</time>
      </trkpt>
      <trkpt lat="45.00988" lon="3.71619">
        <ele>1222</ele>
        <time>2021-04-13T10:37:42Z</time>
      </trkpt>
      <trkpt lat="45.0099" lon="3.7162">
        <ele>1222</ele>
        <time>2021-04-13T10:37:43Z</time>
      </trkpt>
      <trkpt lat="45.00992" lon="3.7162">
        <ele>1222</ele>
        <time>2021-04-13T10:37:44Z</time>
      </trkpt>
      <trkpt lat="45.00994" lon="3.71621">
        <ele>1222</ele>
        <time>2021-04-13T10:37:45Z</time>
      </trkpt>
      <trkpt lat="45.01003" lon="3.71621">
        <ele>1223</ele>
        <time>2021-04-13T10:37:49Z</time>
      </trkpt>
      <trkpt lat="45.01013" lon="3.71619">
        <ele>1224</ele>
        <time>2021-04-13T10:37:54Z</time>
      </trkpt>
      <trkpt lat="45.01023" lon="3.71619">
        <ele>1226</ele>
        <time>2021-04-13T10:37:58Z</time>
      </trkpt>
      <trkpt lat="45.01033" lon="3.71617">
        <ele>1227</ele>
        <time>2021-04-13T10:38:01Z</time>
      </trkpt>
      <trkpt lat="45.01048" lon="3.7161">
        <ele>1228</ele>
        <time>2021-04-13T10:38:05Z</time>
      </trkpt>
      <trkpt lat="45.01058" lon="3.71604">
        <ele>1229</ele>
        <time>2021-04-13T10:38:09Z</time>
      </trkpt>
      <trkpt lat="45.01068" lon="3.71601">
        <ele>1230</ele>
        <time>2021-04-13T10:38:13Z</time>
      </trkpt>
      <trkpt lat="45.01077" lon="3.71596">
        <ele>1231</ele>
        <time>2021-04-13T10:38:18Z</time>
      </trkpt>
      <trkpt lat="45.01086" lon="3.71588">
        <ele>1232</ele>
        <time>2021-04-13T10:38:22Z</time>
      </trkpt>
      <trkpt lat="45.01093" lon="3.71578">
        <ele>1234</ele>
        <time>2021-04-13T10:38:26Z</time>
      </trkpt>
      <trkpt lat="45.01097" lon="3.71564">
        <ele>1235</ele>
        <time>2021-04-13T10:38:31Z</time>
      </trkpt>
      <trkpt lat="45.01102" lon="3.7155">
        <ele>1235</ele>
        <time>2021-04-13T10:38:34Z</time>
      </trkpt>
      <trkpt lat="45.01131" lon="3.71511">
        <ele>1237</ele>
        <time>2021-04-13T10:38:49Z</time>
      </trkpt>
      <trkpt lat="45.01139" lon="3.71502">
        <ele>1237</ele>
        <time>2021-04-13T10:38:52Z</time>
      </trkpt>
      <trkpt lat="45.01147" lon="3.71495">
        <ele>1238</ele>
        <time>2021-04-13T10:38:55Z</time>
      </trkpt>
      <trkpt lat="45.01161" lon="3.71487">
        <ele>1238</ele>
        <time>2021-04-13T10:38:59Z</time>
      </trkpt>
      <trkpt lat="45.01172" lon="3.7148">
        <ele>1237</ele>
        <time>2021-04-13T10:39:01Z</time>
      </trkpt>
      <trkpt lat="45.01182" lon="3.71475">
        <ele>1237</ele>
        <time>2021-04-13T10:39:03Z</time>
      </trkpt>
      <trkpt lat="45.01193" lon="3.71465">
        <ele>1236</ele>
        <time>2021-04-13T10:39:05Z</time>
      </trkpt>
      <trkpt lat="45.01203" lon="3.71462">
        <ele>1235</ele>
        <time>2021-04-13T10:39:08Z</time>
      </trkpt>
      <trkpt lat="45.01225" lon="3.71452">
        <ele>1236</ele>
        <time>2021-04-13T10:39:16Z</time>
      </trkpt>
      <trkpt lat="45.01235" lon="3.71445">
        <ele>1235</ele>
        <time>2021-04-13T10:39:18Z</time>
      </trkpt>
      <trkpt lat="45.01245" lon="3.71435">
        <ele>1235</ele>
        <time>2021-04-13T10:39:20Z</time>
      </trkpt>
      <trkpt lat="45.01252" lon="3.71426">
        <ele>1235</ele>
        <time>2021-04-13T10:39:22Z</time>
      </trkpt>
      <trkpt lat="45.01263" lon="3.71416">
        <ele>1234</ele>
        <time>2021-04-13T10:39:24Z</time>
      </trkpt>
      <trkpt lat="45.01275" lon="3.71408">
        <ele>1234</ele>
        <time>2021-04-13T10:39:26Z</time>
      </trkpt>
      <trkpt lat="45.01285" lon="3.71402">
        <ele>1233</ele>
        <time>2021-04-13T10:39:28Z</time>
      </trkpt>
      <trkpt lat="45.01297" lon="3.71398">
        <ele>1232</ele>
        <time>2021-04-13T10:39:32Z</time>
      </trkpt>
      <trkpt lat="45.01342" lon="3.71377">
        <ele>1227</ele>
        <time>2021-04-13T10:39:45Z</time>
      </trkpt>
      <trkpt lat="45.0135" lon="3.71368">
        <ele>1227</ele>
        <time>2021-04-13T10:39:48Z</time>
      </trkpt>
      <trkpt lat="45.01352" lon="3.7136">
        <ele>1227</ele>
        <time>2021-04-13T10:39:57Z</time>
      </trkpt>
      <trkpt lat="45.01352" lon="3.7136">
        <ele>1227</ele>
        <time>2021-04-13T10:39:58Z</time>
      </trkpt>
      <trkpt lat="45.01354" lon="3.71345">
        <ele>1227</ele>
        <time>2021-04-13T10:40:01Z</time>
      </trkpt>
      <trkpt lat="45.01352" lon="3.7133">
        <ele>1226</ele>
        <time>2021-04-13T10:40:03Z</time>
      </trkpt>
      <trkpt lat="45.01347" lon="3.71319">
        <ele>1226</ele>
        <time>2021-04-13T10:40:05Z</time>
      </trkpt>
      <trkpt lat="45.01338" lon="3.71308">
        <ele>1225</ele>
        <time>2021-04-13T10:40:09Z</time>
      </trkpt>
      <trkpt lat="45.0132" lon="3.71291">
        <ele>1224</ele>
        <time>2021-04-13T10:40:13Z</time>
      </trkpt>
      <trkpt lat="45.01311" lon="3.71281">
        <ele>1224</ele>
        <time>2021-04-13T10:40:15Z</time>
      </trkpt>
      <trkpt lat="45.01302" lon="3.7127">
        <ele>1223</ele>
        <time>2021-04-13T10:40:17Z</time>
      </trkpt>
      <trkpt lat="45.01294" lon="3.7126">
        <ele>1223</ele>
        <time>2021-04-13T10:40:18Z</time>
      </trkpt>
      <trkpt lat="45.0129" lon="3.71256">
        <ele>1223</ele>
        <time>2021-04-13T10:40:19Z</time>
      </trkpt>
      <trkpt lat="45.01286" lon="3.71252">
        <ele>1222</ele>
        <time>2021-04-13T10:40:20Z</time>
      </trkpt>
      <trkpt lat="45.01281" lon="3.71249">
        <ele>1222</ele>
        <time>2021-04-13T10:40:21Z</time>
      </trkpt>
      <trkpt lat="45.01276" lon="3.71246">
        <ele>1222</ele>
        <time>2021-04-13T10:40:22Z</time>
      </trkpt>
      <trkpt lat="45.0126" lon="3.71234">
        <ele>1221</ele>
        <time>2021-04-13T10:40:27Z</time>
      </trkpt>
      <trkpt lat="45.0126" lon="3.71231">
        <ele>1221</ele>
        <time>2021-04-13T10:40:28Z</time>
      </trkpt>
      <trkpt lat="45.0126" lon="3.71226">
        <ele>1220</ele>
        <time>2021-04-13T10:40:30Z</time>
      </trkpt>
      <trkpt lat="45.0126" lon="3.71224">
        <ele>1220</ele>
        <time>2021-04-13T10:40:31Z</time>
      </trkpt>
      <trkpt lat="45.01261" lon="3.71221">
        <ele>1220</ele>
        <time>2021-04-13T10:40:32Z</time>
      </trkpt>
      <trkpt lat="45.01262" lon="3.71216">
        <ele>1220</ele>
        <time>2021-04-13T10:40:33Z</time>
      </trkpt>
      <trkpt lat="45.01263" lon="3.71212">
        <ele>1220</ele>
        <time>2021-04-13T10:40:34Z</time>
      </trkpt>
      <trkpt lat="45.01263" lon="3.71207">
        <ele>1220</ele>
        <time>2021-04-13T10:40:35Z</time>
      </trkpt>
      <trkpt lat="45.01264" lon="3.71194">
        <ele>1220</ele>
        <time>2021-04-13T10:40:37Z</time>
      </trkpt>
      <trkpt lat="45.01269" lon="3.71181">
        <ele>1220</ele>
        <time>2021-04-13T10:40:39Z</time>
      </trkpt>
      <trkpt lat="45.01277" lon="3.71171">
        <ele>1220</ele>
        <time>2021-04-13T10:40:40Z</time>
      </trkpt>
      <trkpt lat="45.01286" lon="3.71163">
        <ele>1220</ele>
        <time>2021-04-13T10:40:43Z</time>
      </trkpt>
      <trkpt lat="45.01296" lon="3.71155">
        <ele>1220</ele>
        <time>2021-04-13T10:40:45Z</time>
      </trkpt>
      <trkpt lat="45.01307" lon="3.71149">
        <ele>1220</ele>
        <time>2021-04-13T10:40:47Z</time>
      </trkpt>
      <trkpt lat="45.01318" lon="3.71141">
        <ele>1220</ele>
        <time>2021-04-13T10:40:49Z</time>
      </trkpt>
      <trkpt lat="45.01326" lon="3.71128">
        <ele>1219</ele>
        <time>2021-04-13T10:40:50Z</time>
      </trkpt>
      <trkpt lat="45.01348" lon="3.71065">
        <ele>1219</ele>
        <time>2021-04-13T10:40:59Z</time>
      </trkpt>
      <trkpt lat="45.01354" lon="3.71046">
        <ele>1219</ele>
        <time>2021-04-13T10:41:00Z</time>
      </trkpt>
      <trkpt lat="45.01359" lon="3.7103">
        <ele>1218</ele>
        <time>2021-04-13T10:41:03Z</time>
      </trkpt>
      <trkpt lat="45.01362" lon="3.71015">
        <ele>1218</ele>
        <time>2021-04-13T10:41:05Z</time>
      </trkpt>
      <trkpt lat="45.01366" lon="3.71">
        <ele>1218</ele>
        <time>2021-04-13T10:41:06Z</time>
      </trkpt>
      <trkpt lat="45.01373" lon="3.70986">
        <ele>1217</ele>
        <time>2021-04-13T10:41:08Z</time>
      </trkpt>
      <trkpt lat="45.01381" lon="3.70971">
        <ele>1216</ele>
        <time>2021-04-13T10:41:10Z</time>
      </trkpt>
      <trkpt lat="45.01395" lon="3.70944">
        <ele>1214</ele>
        <time>2021-04-13T10:41:14Z</time>
      </trkpt>
      <trkpt lat="45.01415" lon="3.70921">
        <ele>1213</ele>
        <time>2021-04-13T10:41:20Z</time>
      </trkpt>
      <trkpt lat="45.01423" lon="3.70911">
        <ele>1213</ele>
        <time>2021-04-13T10:41:22Z</time>
      </trkpt>
      <trkpt lat="45.01432" lon="3.70901">
        <ele>1213</ele>
        <time>2021-04-13T10:41:25Z</time>
      </trkpt>
      <trkpt lat="45.01443" lon="3.70892">
        <ele>1213</ele>
        <time>2021-04-13T10:41:27Z</time>
      </trkpt>
      <trkpt lat="45.01456" lon="3.70882">
        <ele>1212</ele>
        <time>2021-04-13T10:41:29Z</time>
      </trkpt>
      <trkpt lat="45.01467" lon="3.70875">
        <ele>1211</ele>
        <time>2021-04-13T10:41:31Z</time>
      </trkpt>
      <trkpt lat="45.01477" lon="3.70871">
        <ele>1211</ele>
        <time>2021-04-13T10:41:32Z</time>
      </trkpt>
      <trkpt lat="45.01487" lon="3.70863">
        <ele>1210</ele>
        <time>2021-04-13T10:41:34Z</time>
      </trkpt>
      <trkpt lat="45.01503" lon="3.70847">
        <ele>1203</ele>
        <time>2021-04-13T10:41:50Z</time>
      </trkpt>
      <trkpt lat="45.015" lon="3.70851">
        <ele>1197</ele>
        <time>2021-04-13T10:42:32Z</time>
      </trkpt>
      <trkpt lat="45.01498" lon="3.70853">
        <ele>1197</ele>
        <time>2021-04-13T10:42:33Z</time>
      </trkpt>
      <trkpt lat="45.01496" lon="3.70855">
        <ele>1197</ele>
        <time>2021-04-13T10:42:36Z</time>
      </trkpt>
      <trkpt lat="45.01494" lon="3.70856">
        <ele>1197</ele>
        <time>2021-04-13T10:42:38Z</time>
      </trkpt>
      <trkpt lat="45.01492" lon="3.70857">
        <ele>1197</ele>
        <time>2021-04-13T10:42:43Z</time>
      </trkpt>
      <trkpt lat="45.0149" lon="3.70859">
        <ele>1198</ele>
        <time>2021-04-13T10:42:48Z</time>
      </trkpt>
      <trkpt lat="45.01487" lon="3.7086">
        <ele>1198</ele>
        <time>2021-04-13T10:42:51Z</time>
      </trkpt>
      <trkpt lat="45.01485" lon="3.70867">
        <ele>1201</ele>
        <time>2021-04-13T10:43:03Z</time>
      </trkpt>
      <trkpt lat="45.01487" lon="3.70866">
        <ele>1201</ele>
        <time>2021-04-13T10:43:05Z</time>
      </trkpt>
      <trkpt lat="45.01489" lon="3.70864">
        <ele>1201</ele>
        <time>2021-04-13T10:43:07Z</time>
      </trkpt>
      <trkpt lat="45.01491" lon="3.70863">
        <ele>1201</ele>
        <time>2021-04-13T10:43:08Z</time>
      </trkpt>
      <trkpt lat="45.01493" lon="3.70861">
        <ele>1201</ele>
        <time>2021-04-13T10:43:11Z</time>
      </trkpt>
      <trkpt lat="45.01496" lon="3.70858">
        <ele>1201</ele>
        <time>2021-04-13T10:43:13Z</time>
      </trkpt>
      <trkpt lat="45.01497" lon="3.70856">
        <ele>1201</ele>
        <time>2021-04-13T10:43:15Z</time>
      </trkpt>
      <trkpt lat="45.01499" lon="3.70854">
        <ele>1201</ele>
        <time>2021-04-13T10:43:17Z</time>
      </trkpt>
      <trkpt lat="45.01523" lon="3.70831">
        <ele>1200</ele>
        <time>2021-04-13T10:43:33Z</time>
      </trkpt>
      <trkpt lat="45.01532" lon="3.70823">
        <ele>1200</ele>
        <time>2021-04-13T10:43:36Z</time>
      </trkpt>
      <trkpt lat="45.01542" lon="3.70812">
        <ele>1200</ele>
        <time>2021-04-13T10:43:39Z</time>
      </trkpt>
      <trkpt lat="45.0155" lon="3.708">
        <ele>1200</ele>
        <time>2021-04-13T10:43:42Z</time>
      </trkpt>
      <trkpt lat="45.0156" lon="3.70788">
        <ele>1200</ele>
        <time>2021-04-13T10:43:45Z</time>
      </trkpt>
      <trkpt lat="45.01568" lon="3.70779">
        <ele>1199</ele>
        <time>2021-04-13T10:43:47Z</time>
      </trkpt>
      <trkpt lat="45.01576" lon="3.7077">
        <ele>1199</ele>
        <time>2021-04-13T10:43:49Z</time>
      </trkpt>
      <trkpt lat="45.01583" lon="3.70762">
        <ele>1200</ele>
        <time>2021-04-13T10:43:51Z</time>
      </trkpt>
      <trkpt lat="45.01601" lon="3.70748">
        <ele>1199</ele>
        <time>2021-04-13T10:43:55Z</time>
      </trkpt>
      <trkpt lat="45.01609" lon="3.7074">
        <ele>1199</ele>
        <time>2021-04-13T10:43:57Z</time>
      </trkpt>
      <trkpt lat="45.01616" lon="3.70731">
        <ele>1199</ele>
        <time>2021-04-13T10:43:59Z</time>
      </trkpt>
      <trkpt lat="45.01622" lon="3.7072">
        <ele>1199</ele>
        <time>2021-04-13T10:44:01Z</time>
      </trkpt>
      <trkpt lat="45.0163" lon="3.70711">
        <ele>1199</ele>
        <time>2021-04-13T10:44:03Z</time>
      </trkpt>
      <trkpt lat="45.01638" lon="3.70705">
        <ele>1198</ele>
        <time>2021-04-13T10:44:05Z</time>
      </trkpt>
      <trkpt lat="45.01648" lon="3.70697">
        <ele>1198</ele>
        <time>2021-04-13T10:44:07Z</time>
      </trkpt>
      <trkpt lat="45.01658" lon="3.70689">
        <ele>1197</ele>
        <time>2021-04-13T10:44:09Z</time>
      </trkpt>
      <trkpt lat="45.01703" lon="3.7065">
        <ele>1194</ele>
        <time>2021-04-13T10:44:18Z</time>
      </trkpt>
      <trkpt lat="45.01713" lon="3.70646">
        <ele>1194</ele>
        <time>2021-04-13T10:44:20Z</time>
      </trkpt>
      <trkpt lat="45.01722" lon="3.70642">
        <ele>1193</ele>
        <time>2021-04-13T10:44:22Z</time>
      </trkpt>
      <trkpt lat="45.01734" lon="3.70639">
        <ele>1193</ele>
        <time>2021-04-13T10:44:24Z</time>
      </trkpt>
      <trkpt lat="45.01745" lon="3.70634">
        <ele>1192</ele>
        <time>2021-04-13T10:44:26Z</time>
      </trkpt>
      <trkpt lat="45.01754" lon="3.7063">
        <ele>1191</ele>
        <time>2021-04-13T10:44:28Z</time>
      </trkpt>
      <trkpt lat="45.01764" lon="3.70627">
        <ele>1191</ele>
        <time>2021-04-13T10:44:30Z</time>
      </trkpt>
      <trkpt lat="45.01774" lon="3.70622">
        <ele>1190</ele>
        <time>2021-04-13T10:44:32Z</time>
      </trkpt>
      <trkpt lat="45.01794" lon="3.70612">
        <ele>1189</ele>
        <time>2021-04-13T10:44:37Z</time>
      </trkpt>
      <trkpt lat="45.01806" lon="3.70603">
        <ele>1188</ele>
        <time>2021-04-13T10:44:39Z</time>
      </trkpt>
      <trkpt lat="45.01814" lon="3.70593">
        <ele>1187</ele>
        <time>2021-04-13T10:44:41Z</time>
      </trkpt>
      <trkpt lat="45.01821" lon="3.70584">
        <ele>1187</ele>
        <time>2021-04-13T10:44:42Z</time>
      </trkpt>
      <trkpt lat="45.01829" lon="3.70575">
        <ele>1187</ele>
        <time>2021-04-13T10:44:44Z</time>
      </trkpt>
      <trkpt lat="45.01837" lon="3.70565">
        <ele>1186</ele>
        <time>2021-04-13T10:44:46Z</time>
      </trkpt>
      <trkpt lat="45.01844" lon="3.70553">
        <ele>1186</ele>
        <time>2021-04-13T10:44:48Z</time>
      </trkpt>
      <trkpt lat="45.01854" lon="3.70538">
        <ele>1185</ele>
        <time>2021-04-13T10:44:50Z</time>
      </trkpt>
      <trkpt lat="45.01887" lon="3.70508">
        <ele>1182</ele>
        <time>2021-04-13T10:44:58Z</time>
      </trkpt>
      <trkpt lat="45.01892" lon="3.70508">
        <ele>1181</ele>
        <time>2021-04-13T10:44:59Z</time>
      </trkpt>
      <trkpt lat="45.01897" lon="3.70508">
        <ele>1181</ele>
        <time>2021-04-13T10:45:00Z</time>
      </trkpt>
      <trkpt lat="45.01901" lon="3.70507">
        <ele>1181</ele>
        <time>2021-04-13T10:45:01Z</time>
      </trkpt>
      <trkpt lat="45.01907" lon="3.70504">
        <ele>1181</ele>
        <time>2021-04-13T10:45:02Z</time>
      </trkpt>
      <trkpt lat="45.01915" lon="3.70493">
        <ele>1180</ele>
        <time>2021-04-13T10:45:04Z</time>
      </trkpt>
      <trkpt lat="45.01923" lon="3.70479">
        <ele>1180</ele>
        <time>2021-04-13T10:45:06Z</time>
      </trkpt>
      <trkpt lat="45.01933" lon="3.70466">
        <ele>1179</ele>
        <time>2021-04-13T10:45:08Z</time>
      </trkpt>
      <trkpt lat="45.01951" lon="3.70441">
        <ele>1177</ele>
        <time>2021-04-13T10:45:13Z</time>
      </trkpt>
      <trkpt lat="45.01961" lon="3.70424">
        <ele>1176</ele>
        <time>2021-04-13T10:45:15Z</time>
      </trkpt>
      <trkpt lat="45.01968" lon="3.70409">
        <ele>1175</ele>
        <time>2021-04-13T10:45:17Z</time>
      </trkpt>
      <trkpt lat="45.01974" lon="3.70398">
        <ele>1174</ele>
        <time>2021-04-13T10:45:18Z</time>
      </trkpt>
      <trkpt lat="45.01981" lon="3.70388">
        <ele>1173</ele>
        <time>2021-04-13T10:45:20Z</time>
      </trkpt>
      <trkpt lat="45.0199" lon="3.70381">
        <ele>1172</ele>
        <time>2021-04-13T10:45:22Z</time>
      </trkpt>
      <trkpt lat="45.02001" lon="3.70379">
        <ele>1171</ele>
        <time>2021-04-13T10:45:24Z</time>
      </trkpt>
      <trkpt lat="45.02013" lon="3.70373">
        <ele>1170</ele>
        <time>2021-04-13T10:45:26Z</time>
      </trkpt>
      <trkpt lat="45.02049" lon="3.70354">
        <ele>1166</ele>
        <time>2021-04-13T10:45:34Z</time>
      </trkpt>
      <trkpt lat="45.02051" lon="3.70349">
        <ele>1164</ele>
        <time>2021-04-13T10:45:37Z</time>
      </trkpt>
      <trkpt lat="45.02053" lon="3.70346">
        <ele>1163</ele>
        <time>2021-04-13T10:45:38Z</time>
      </trkpt>
      <trkpt lat="45.02055" lon="3.70342">
        <ele>1163</ele>
        <time>2021-04-13T10:45:39Z</time>
      </trkpt>
      <trkpt lat="45.02057" lon="3.70338">
        <ele>1162</ele>
        <time>2021-04-13T10:45:40Z</time>
      </trkpt>
      <trkpt lat="45.0206" lon="3.70335">
        <ele>1162</ele>
        <time>2021-04-13T10:45:41Z</time>
      </trkpt>
      <trkpt lat="45.02066" lon="3.70327">
        <ele>1161</ele>
        <time>2021-04-13T10:45:42Z</time>
      </trkpt>
      <trkpt lat="45.02069" lon="3.70323">
        <ele>1161</ele>
        <time>2021-04-13T10:45:44Z</time>
      </trkpt>
      <trkpt lat="45.02089" lon="3.703">
        <ele>1158</ele>
        <time>2021-04-13T10:45:48Z</time>
      </trkpt>
      <trkpt lat="45.021" lon="3.70287">
        <ele>1158</ele>
        <time>2021-04-13T10:45:49Z</time>
      </trkpt>
      <trkpt lat="45.02107" lon="3.7027">
        <ele>1156</ele>
        <time>2021-04-13T10:45:51Z</time>
      </trkpt>
      <trkpt lat="45.02115" lon="3.70255">
        <ele>1155</ele>
        <time>2021-04-13T10:45:53Z</time>
      </trkpt>
      <trkpt lat="45.02121" lon="3.70243">
        <ele>1153</ele>
        <time>2021-04-13T10:45:56Z</time>
      </trkpt>
      <trkpt lat="45.02127" lon="3.70231">
        <ele>1152</ele>
        <time>2021-04-13T10:45:58Z</time>
      </trkpt>
      <trkpt lat="45.02134" lon="3.70218">
        <ele>1151</ele>
        <time>2021-04-13T10:46:00Z</time>
      </trkpt>
      <trkpt lat="45.02142" lon="3.70203">
        <ele>1151</ele>
        <time>2021-04-13T10:46:01Z</time>
      </trkpt>
      <trkpt lat="45.02174" lon="3.70165">
        <ele>1147</ele>
        <time>2021-04-13T10:46:07Z</time>
      </trkpt>
      <trkpt lat="45.02178" lon="3.7016">
        <ele>1147</ele>
        <time>2021-04-13T10:46:08Z</time>
      </trkpt>
      <trkpt lat="45.02182" lon="3.70155">
        <ele>1146</ele>
        <time>2021-04-13T10:46:09Z</time>
      </trkpt>
      <trkpt lat="45.02186" lon="3.7015">
        <ele>1145</ele>
        <time>2021-04-13T10:46:10Z</time>
      </trkpt>
      <trkpt lat="45.0219" lon="3.70144">
        <ele>1144</ele>
        <time>2021-04-13T10:46:12Z</time>
      </trkpt>
      <trkpt lat="45.02194" lon="3.70138">
        <ele>1143</ele>
        <time>2021-04-13T10:46:13Z</time>
      </trkpt>
      <trkpt lat="45.02198" lon="3.70133">
        <ele>1143</ele>
        <time>2021-04-13T10:46:14Z</time>
      </trkpt>
      <trkpt lat="45.02201" lon="3.70127">
        <ele>1142</ele>
        <time>2021-04-13T10:46:15Z</time>
      </trkpt>
      <trkpt lat="45.02208" lon="3.70115">
        <ele>1141</ele>
        <time>2021-04-13T10:46:17Z</time>
      </trkpt>
      <trkpt lat="45.02211" lon="3.70109">
        <ele>1141</ele>
        <time>2021-04-13T10:46:18Z</time>
      </trkpt>
      <trkpt lat="45.02217" lon="3.70097">
        <ele>1140</ele>
        <time>2021-04-13T10:46:19Z</time>
      </trkpt>
      <trkpt lat="45.0222" lon="3.70091">
        <ele>1139</ele>
        <time>2021-04-13T10:46:20Z</time>
      </trkpt>
      <trkpt lat="45.02223" lon="3.70085">
        <ele>1138</ele>
        <time>2021-04-13T10:46:21Z</time>
      </trkpt>
      <trkpt lat="45.02226" lon="3.70078">
        <ele>1138</ele>
        <time>2021-04-13T10:46:22Z</time>
      </trkpt>
      <trkpt lat="45.02229" lon="3.70072">
        <ele>1137</ele>
        <time>2021-04-13T10:46:23Z</time>
      </trkpt>
      <trkpt lat="45.02232" lon="3.70066">
        <ele>1136</ele>
        <time>2021-04-13T10:46:24Z</time>
      </trkpt>
      <trkpt lat="45.02248" lon="3.70042">
        <ele>1135</ele>
        <time>2021-04-13T10:46:28Z</time>
      </trkpt>
      <trkpt lat="45.02254" lon="3.70036">
        <ele>1134</ele>
        <time>2021-04-13T10:46:29Z</time>
      </trkpt>
      <trkpt lat="45.02264" lon="3.70026">
        <ele>1133</ele>
        <time>2021-04-13T10:46:32Z</time>
      </trkpt>
      <trkpt lat="45.02269" lon="3.70021">
        <ele>1133</ele>
        <time>2021-04-13T10:46:33Z</time>
      </trkpt>
      <trkpt lat="45.02273" lon="3.70017">
        <ele>1132</ele>
        <time>2021-04-13T10:46:34Z</time>
      </trkpt>
      <trkpt lat="45.02278" lon="3.70012">
        <ele>1132</ele>
        <time>2021-04-13T10:46:35Z</time>
      </trkpt>
      <trkpt lat="45.02282" lon="3.70008">
        <ele>1131</ele>
        <time>2021-04-13T10:46:36Z</time>
      </trkpt>
      <trkpt lat="45.0229" lon="3.69997">
        <ele>1131</ele>
        <time>2021-04-13T10:46:37Z</time>
      </trkpt>
      <trkpt lat="45.02296" lon="3.69987">
        <ele>1130</ele>
        <time>2021-04-13T10:46:39Z</time>
      </trkpt>
      <trkpt lat="45.023" lon="3.69982">
        <ele>1129</ele>
        <time>2021-04-13T10:46:40Z</time>
      </trkpt>
      <trkpt lat="45.02303" lon="3.69977">
        <ele>1129</ele>
        <time>2021-04-13T10:46:41Z</time>
      </trkpt>
      <trkpt lat="45.02306" lon="3.69973">
        <ele>1129</ele>
        <time>2021-04-13T10:46:42Z</time>
      </trkpt>
      <trkpt lat="45.02308" lon="3.69968">
        <ele>1129</ele>
        <time>2021-04-13T10:46:43Z</time>
      </trkpt>
      <trkpt lat="45.02311" lon="3.69963">
        <ele>1128</ele>
        <time>2021-04-13T10:46:44Z</time>
      </trkpt>
      <trkpt lat="45.02313" lon="3.69957">
        <ele>1128</ele>
        <time>2021-04-13T10:46:45Z</time>
      </trkpt>
      <trkpt lat="45.02316" lon="3.69951">
        <ele>1127</ele>
        <time>2021-04-13T10:46:46Z</time>
      </trkpt>
      <trkpt lat="45.02327" lon="3.69949">
        <ele>1125</ele>
        <time>2021-04-13T10:46:52Z</time>
      </trkpt>
      <trkpt lat="45.02327" lon="3.69952">
        <ele>1125</ele>
        <time>2021-04-13T10:46:54Z</time>
      </trkpt>
      <trkpt lat="45.02326" lon="3.69955">
        <ele>1124</ele>
        <time>2021-04-13T10:46:58Z</time>
      </trkpt>
      <trkpt lat="45.02325" lon="3.69956">
        <ele>1123</ele>
        <time>2021-04-13T10:47:03Z</time>
      </trkpt>
      <trkpt lat="45.02322" lon="3.69969">
        <ele>1120</ele>
        <time>2021-04-13T10:47:08Z</time>
      </trkpt>
      <trkpt lat="45.02323" lon="3.69973">
        <ele>1119</ele>
        <time>2021-04-13T10:47:09Z</time>
      </trkpt>
      <trkpt lat="45.02324" lon="3.69978">
        <ele>1119</ele>
        <time>2021-04-13T10:47:10Z</time>
      </trkpt>
      <trkpt lat="45.02325" lon="3.69982">
        <ele>1119</ele>
        <time>2021-04-13T10:47:11Z</time>
      </trkpt>
      <trkpt lat="45.02329" lon="3.69992">
        <ele>1119</ele>
        <time>2021-04-13T10:47:13Z</time>
      </trkpt>
      <trkpt lat="45.02331" lon="3.69996">
        <ele>1119</ele>
        <time>2021-04-13T10:47:14Z</time>
      </trkpt>
      <trkpt lat="45.02334" lon="3.70001">
        <ele>1119</ele>
        <time>2021-04-13T10:47:15Z</time>
      </trkpt>
      <trkpt lat="45.02337" lon="3.70006">
        <ele>1119</ele>
        <time>2021-04-13T10:47:16Z</time>
      </trkpt>
      <trkpt lat="45.02339" lon="3.70011">
        <ele>1119</ele>
        <time>2021-04-13T10:47:17Z</time>
      </trkpt>
      <trkpt lat="45.02342" lon="3.70016">
        <ele>1119</ele>
        <time>2021-04-13T10:47:18Z</time>
      </trkpt>
      <trkpt lat="45.02345" lon="3.70021">
        <ele>1119</ele>
        <time>2021-04-13T10:47:19Z</time>
      </trkpt>
      <trkpt lat="45.02347" lon="3.70026">
        <ele>1119</ele>
        <time>2021-04-13T10:47:20Z</time>
      </trkpt>
      <trkpt lat="45.02355" lon="3.70044">
        <ele>1120</ele>
        <time>2021-04-13T10:47:24Z</time>
      </trkpt>
      <trkpt lat="45.02358" lon="3.70049">
        <ele>1120</ele>
        <time>2021-04-13T10:47:25Z</time>
      </trkpt>
      <trkpt lat="45.0236" lon="3.70053">
        <ele>1120</ele>
        <time>2021-04-13T10:47:26Z</time>
      </trkpt>
      <trkpt lat="45.02362" lon="3.70058">
        <ele>1120</ele>
        <time>2021-04-13T10:47:27Z</time>
      </trkpt>
      <trkpt lat="45.02364" lon="3.70064">
        <ele>1120</ele>
        <time>2021-04-13T10:47:28Z</time>
      </trkpt>
      <trkpt lat="45.02365" lon="3.70069">
        <ele>1120</ele>
        <time>2021-04-13T10:47:29Z</time>
      </trkpt>
      <trkpt lat="45.02366" lon="3.70075">
        <ele>1120</ele>
        <time>2021-04-13T10:47:30Z</time>
      </trkpt>
      <trkpt lat="45.02366" lon="3.70081">
        <ele>1120</ele>
        <time>2021-04-13T10:47:32Z</time>
      </trkpt>
      <trkpt lat="45.02368" lon="3.70092">
        <ele>1121</ele>
        <time>2021-04-13T10:47:34Z</time>
      </trkpt>
      <trkpt lat="45.02368" lon="3.70098">
        <ele>1121</ele>
        <time>2021-04-13T10:47:35Z</time>
      </trkpt>
      <trkpt lat="45.0237" lon="3.70103">
        <ele>1121</ele>
        <time>2021-04-13T10:47:36Z</time>
      </trkpt>
      <trkpt lat="45.02371" lon="3.70108">
        <ele>1121</ele>
        <time>2021-04-13T10:47:37Z</time>
      </trkpt>
      <trkpt lat="45.02372" lon="3.70114">
        <ele>1121</ele>
        <time>2021-04-13T10:47:38Z</time>
      </trkpt>
      <trkpt lat="45.02373" lon="3.70119">
        <ele>1122</ele>
        <time>2021-04-13T10:47:39Z</time>
      </trkpt>
      <trkpt lat="45.02375" lon="3.70125">
        <ele>1122</ele>
        <time>2021-04-13T10:47:40Z</time>
      </trkpt>
      <trkpt lat="45.02376" lon="3.7013">
        <ele>1122</ele>
        <time>2021-04-13T10:47:41Z</time>
      </trkpt>
      <trkpt lat="45.02387" lon="3.7015">
        <ele>1123</ele>
        <time>2021-04-13T10:47:45Z</time>
      </trkpt>
      <trkpt lat="45.02389" lon="3.70155">
        <ele>1123</ele>
        <time>2021-04-13T10:47:46Z</time>
      </trkpt>
      <trkpt lat="45.02392" lon="3.70159">
        <ele>1123</ele>
        <time>2021-04-13T10:47:47Z</time>
      </trkpt>
      <trkpt lat="45.02395" lon="3.70163">
        <ele>1123</ele>
        <time>2021-04-13T10:47:48Z</time>
      </trkpt>
      <trkpt lat="45.02398" lon="3.70167">
        <ele>1124</ele>
        <time>2021-04-13T10:47:49Z</time>
      </trkpt>
      <trkpt lat="45.02401" lon="3.7017">
        <ele>1124</ele>
        <time>2021-04-13T10:47:50Z</time>
      </trkpt>
      <trkpt lat="45.02404" lon="3.70172">
        <ele>1124</ele>
        <time>2021-04-13T10:47:51Z</time>
      </trkpt>
      <trkpt lat="45.02407" lon="3.70174">
        <ele>1124</ele>
        <time>2021-04-13T10:47:52Z</time>
      </trkpt>
      <trkpt lat="45.02414" lon="3.70175">
        <ele>1124</ele>
        <time>2021-04-13T10:47:54Z</time>
      </trkpt>
      <trkpt lat="45.02417" lon="3.70177">
        <ele>1124</ele>
        <time>2021-04-13T10:47:55Z</time>
      </trkpt>
      <trkpt lat="45.02421" lon="3.70178">
        <ele>1124</ele>
        <time>2021-04-13T10:47:56Z</time>
      </trkpt>
      <trkpt lat="45.02424" lon="3.7018">
        <ele>1124</ele>
        <time>2021-04-13T10:47:57Z</time>
      </trkpt>
      <trkpt lat="45.02427" lon="3.70181">
        <ele>1124</ele>
        <time>2021-04-13T10:47:58Z</time>
      </trkpt>
      <trkpt lat="45.02431" lon="3.70183">
        <ele>1124</ele>
        <time>2021-04-13T10:47:59Z</time>
      </trkpt>
      <trkpt lat="45.02435" lon="3.70184">
        <ele>1124</ele>
        <time>2021-04-13T10:48:00Z</time>
      </trkpt>
      <trkpt lat="45.02438" lon="3.70187">
        <ele>1124</ele>
        <time>2021-04-13T10:48:01Z</time>
      </trkpt>
      <trkpt lat="45.02452" lon="3.70196">
        <ele>1125</ele>
        <time>2021-04-13T10:48:05Z</time>
      </trkpt>
      <trkpt lat="45.02458" lon="3.702">
        <ele>1126</ele>
        <time>2021-04-13T10:48:07Z</time>
      </trkpt>
      <trkpt lat="45.02461" lon="3.70202">
        <ele>1126</ele>
        <time>2021-04-13T10:48:08Z</time>
      </trkpt>
      <trkpt lat="45.02473" lon="3.70205">
        <ele>1126</ele>
        <time>2021-04-13T10:48:11Z</time>
      </trkpt>
      <trkpt lat="45.02483" lon="3.70209">
        <ele>1127</ele>
        <time>2021-04-13T10:48:14Z</time>
      </trkpt>
      <trkpt lat="45.02494" lon="3.70217">
        <ele>1127</ele>
        <time>2021-04-13T10:48:16Z</time>
      </trkpt>
      <trkpt lat="45.02501" lon="3.70227">
        <ele>1127</ele>
        <time>2021-04-13T10:48:18Z</time>
      </trkpt>
      <trkpt lat="45.02505" lon="3.70238">
        <ele>1128</ele>
        <time>2021-04-13T10:48:20Z</time>
      </trkpt>
      <trkpt lat="45.02517" lon="3.70262">
        <ele>1131</ele>
        <time>2021-04-13T10:48:25Z</time>
      </trkpt>
      <trkpt lat="45.02521" lon="3.70276">
        <ele>1131</ele>
        <time>2021-04-13T10:48:26Z</time>
      </trkpt>
      <trkpt lat="45.02522" lon="3.70284">
        <ele>1131</ele>
        <time>2021-04-13T10:48:27Z</time>
      </trkpt>
      <trkpt lat="45.02524" lon="3.70291">
        <ele>1132</ele>
        <time>2021-04-13T10:48:28Z</time>
      </trkpt>
      <trkpt lat="45.02526" lon="3.70299">
        <ele>1132</ele>
        <time>2021-04-13T10:48:29Z</time>
      </trkpt>
      <trkpt lat="45.02528" lon="3.70307">
        <ele>1133</ele>
        <time>2021-04-13T10:48:30Z</time>
      </trkpt>
      <trkpt lat="45.0253" lon="3.70314">
        <ele>1133</ele>
        <time>2021-04-13T10:48:31Z</time>
      </trkpt>
      <trkpt lat="45.02532" lon="3.70321">
        <ele>1133</ele>
        <time>2021-04-13T10:48:32Z</time>
      </trkpt>
      <trkpt lat="45.0254" lon="3.70348">
        <ele>1134</ele>
        <time>2021-04-13T10:48:36Z</time>
      </trkpt>
      <trkpt lat="45.02543" lon="3.70354">
        <ele>1134</ele>
        <time>2021-04-13T10:48:37Z</time>
      </trkpt>
      <trkpt lat="45.02546" lon="3.7036">
        <ele>1134</ele>
        <time>2021-04-13T10:48:38Z</time>
      </trkpt>
      <trkpt lat="45.0255" lon="3.70367">
        <ele>1134</ele>
        <time>2021-04-13T10:48:39Z</time>
      </trkpt>
      <trkpt lat="45.02554" lon="3.70373">
        <ele>1134</ele>
        <time>2021-04-13T10:48:40Z</time>
      </trkpt>
      <trkpt lat="45.02558" lon="3.70379">
        <ele>1135</ele>
        <time>2021-04-13T10:48:42Z</time>
      </trkpt>
      <trkpt lat="45.02562" lon="3.70384">
        <ele>1135</ele>
        <time>2021-04-13T10:48:43Z</time>
      </trkpt>
      <trkpt lat="45.02567" lon="3.70389">
        <ele>1135</ele>
        <time>2021-04-13T10:48:44Z</time>
      </trkpt>
      <trkpt lat="45.02587" lon="3.70409">
        <ele>1136</ele>
        <time>2021-04-13T10:48:48Z</time>
      </trkpt>
      <trkpt lat="45.02593" lon="3.7042">
        <ele>1136</ele>
        <time>2021-04-13T10:48:49Z</time>
      </trkpt>
      <trkpt lat="45.02595" lon="3.70425">
        <ele>1136</ele>
        <time>2021-04-13T10:48:50Z</time>
      </trkpt>
      <trkpt lat="45.02598" lon="3.7043">
        <ele>1136</ele>
        <time>2021-04-13T10:48:51Z</time>
      </trkpt>
      <trkpt lat="45.026" lon="3.70434">
        <ele>1136</ele>
        <time>2021-04-13T10:48:52Z</time>
      </trkpt>
      <trkpt lat="45.02602" lon="3.70437">
        <ele>1135</ele>
        <time>2021-04-13T10:48:53Z</time>
      </trkpt>
      <trkpt lat="45.02604" lon="3.7044">
        <ele>1135</ele>
        <time>2021-04-13T10:48:54Z</time>
      </trkpt>
      <trkpt lat="45.02607" lon="3.7044">
        <ele>1135</ele>
        <time>2021-04-13T10:48:55Z</time>
      </trkpt>
      <trkpt lat="45.0262" lon="3.70422">
        <ele>1135</ele>
        <time>2021-04-13T10:48:59Z</time>
      </trkpt>
      <trkpt lat="45.02623" lon="3.70416">
        <ele>1135</ele>
        <time>2021-04-13T10:49:00Z</time>
      </trkpt>
      <trkpt lat="45.02627" lon="3.70411">
        <ele>1135</ele>
        <time>2021-04-13T10:49:02Z</time>
      </trkpt>
      <trkpt lat="45.02635" lon="3.704">
        <ele>1135</ele>
        <time>2021-04-13T10:49:03Z</time>
      </trkpt>
      <trkpt lat="45.0264" lon="3.70394">
        <ele>1135</ele>
        <time>2021-04-13T10:49:05Z</time>
      </trkpt>
      <trkpt lat="45.02643" lon="3.70388">
        <ele>1135</ele>
        <time>2021-04-13T10:49:06Z</time>
      </trkpt>
      <trkpt lat="45.02647" lon="3.70381">
        <ele>1135</ele>
        <time>2021-04-13T10:49:07Z</time>
      </trkpt>
      <trkpt lat="45.02651" lon="3.70375">
        <ele>1134</ele>
        <time>2021-04-13T10:49:08Z</time>
      </trkpt>
      <trkpt lat="45.02661" lon="3.70355">
        <ele>1134</ele>
        <time>2021-04-13T10:49:11Z</time>
      </trkpt>
      <trkpt lat="45.02664" lon="3.70348">
        <ele>1134</ele>
        <time>2021-04-13T10:49:12Z</time>
      </trkpt>
      <trkpt lat="45.02667" lon="3.70341">
        <ele>1134</ele>
        <time>2021-04-13T10:49:13Z</time>
      </trkpt>
      <trkpt lat="45.0267" lon="3.70335">
        <ele>1134</ele>
        <time>2021-04-13T10:49:14Z</time>
      </trkpt>
      <trkpt lat="45.02677" lon="3.70323">
        <ele>1134</ele>
        <time>2021-04-13T10:49:15Z</time>
      </trkpt>
      <trkpt lat="45.02681" lon="3.70317">
        <ele>1133</ele>
        <time>2021-04-13T10:49:17Z</time>
      </trkpt>
      <trkpt lat="45.02689" lon="3.70306">
        <ele>1133</ele>
        <time>2021-04-13T10:49:18Z</time>
      </trkpt>
      <trkpt lat="45.02693" lon="3.70301">
        <ele>1133</ele>
        <time>2021-04-13T10:49:19Z</time>
      </trkpt>
      <trkpt lat="45.02714" lon="3.70276">
        <ele>1133</ele>
        <time>2021-04-13T10:49:24Z</time>
      </trkpt>
      <trkpt lat="45.02718" lon="3.70271">
        <ele>1133</ele>
        <time>2021-04-13T10:49:25Z</time>
      </trkpt>
      <trkpt lat="45.02721" lon="3.70266">
        <ele>1133</ele>
        <time>2021-04-13T10:49:26Z</time>
      </trkpt>
      <trkpt lat="45.02724" lon="3.7026">
        <ele>1133</ele>
        <time>2021-04-13T10:49:27Z</time>
      </trkpt>
      <trkpt lat="45.02728" lon="3.70256">
        <ele>1134</ele>
        <time>2021-04-13T10:49:29Z</time>
      </trkpt>
      <trkpt lat="45.02735" lon="3.70247">
        <ele>1135</ele>
        <time>2021-04-13T10:49:31Z</time>
      </trkpt>
      <trkpt lat="45.02743" lon="3.70237">
        <ele>1135</ele>
        <time>2021-04-13T10:49:33Z</time>
      </trkpt>
      <trkpt lat="45.02754" lon="3.70226">
        <ele>1135</ele>
        <time>2021-04-13T10:49:36Z</time>
      </trkpt>
      <trkpt lat="45.02772" lon="3.70207">
        <ele>1136</ele>
        <time>2021-04-13T10:49:40Z</time>
      </trkpt>
      <trkpt lat="45.0278" lon="3.70198">
        <ele>1136</ele>
        <time>2021-04-13T10:49:42Z</time>
      </trkpt>
      <trkpt lat="45.0279" lon="3.70186">
        <ele>1136</ele>
        <time>2021-04-13T10:49:44Z</time>
      </trkpt>
      <trkpt lat="45.02798" lon="3.70178">
        <ele>1135</ele>
        <time>2021-04-13T10:49:45Z</time>
      </trkpt>
      <trkpt lat="45.02809" lon="3.70163">
        <ele>1135</ele>
        <time>2021-04-13T10:49:48Z</time>
      </trkpt>
      <trkpt lat="45.02817" lon="3.7015">
        <ele>1135</ele>
        <time>2021-04-13T10:49:50Z</time>
      </trkpt>
      <trkpt lat="45.02823" lon="3.70136">
        <ele>1135</ele>
        <time>2021-04-13T10:49:52Z</time>
      </trkpt>
      <trkpt lat="45.02829" lon="3.70118">
        <ele>1134</ele>
        <time>2021-04-13T10:49:54Z</time>
      </trkpt>
      <trkpt lat="45.02858" lon="3.7006">
        <ele>1133</ele>
        <time>2021-04-13T10:50:01Z</time>
      </trkpt>
      <trkpt lat="45.02865" lon="3.70043">
        <ele>1133</ele>
        <time>2021-04-13T10:50:04Z</time>
      </trkpt>
      <trkpt lat="45.02874" lon="3.70027">
        <ele>1132</ele>
        <time>2021-04-13T10:50:06Z</time>
      </trkpt>
      <trkpt lat="45.02883" lon="3.70013">
        <ele>1132</ele>
        <time>2021-04-13T10:50:08Z</time>
      </trkpt>
      <trkpt lat="45.02899" lon="3.69984">
        <ele>1132</ele>
        <time>2021-04-13T10:50:10Z</time>
      </trkpt>
      <trkpt lat="45.02906" lon="3.69971">
        <ele>1132</ele>
        <time>2021-04-13T10:50:11Z</time>
      </trkpt>
      <trkpt lat="45.02913" lon="3.69959">
        <ele>1131</ele>
        <time>2021-04-13T10:50:12Z</time>
      </trkpt>
      <trkpt lat="45.0292" lon="3.69947">
        <ele>1131</ele>
        <time>2021-04-13T10:50:13Z</time>
      </trkpt>
      <trkpt lat="45.02933" lon="3.6991">
        <ele>1130</ele>
        <time>2021-04-13T10:50:18Z</time>
      </trkpt>
      <trkpt lat="45.02938" lon="3.69886">
        <ele>1129</ele>
        <time>2021-04-13T10:50:19Z</time>
      </trkpt>
      <trkpt lat="45.02945" lon="3.69864">
        <ele>1128</ele>
        <time>2021-04-13T10:50:22Z</time>
      </trkpt>
      <trkpt lat="45.02946" lon="3.69853">
        <ele>1128</ele>
        <time>2021-04-13T10:50:23Z</time>
      </trkpt>
      <trkpt lat="45.02945" lon="3.69843">
        <ele>1127</ele>
        <time>2021-04-13T10:50:24Z</time>
      </trkpt>
      <trkpt lat="45.02943" lon="3.69833">
        <ele>1127</ele>
        <time>2021-04-13T10:50:25Z</time>
      </trkpt>
      <trkpt lat="45.0294" lon="3.69823">
        <ele>1126</ele>
        <time>2021-04-13T10:50:26Z</time>
      </trkpt>
      <trkpt lat="45.02934" lon="3.69804">
        <ele>1124</ele>
        <time>2021-04-13T10:50:28Z</time>
      </trkpt>
      <trkpt lat="45.02933" lon="3.69735">
        <ele>1122</ele>
        <time>2021-04-13T10:50:33Z</time>
      </trkpt>
      <trkpt lat="45.02933" lon="3.69721">
        <ele>1121</ele>
        <time>2021-04-13T10:50:35Z</time>
      </trkpt>
      <trkpt lat="45.02933" lon="3.69708">
        <ele>1120</ele>
        <time>2021-04-13T10:50:36Z</time>
      </trkpt>
      <trkpt lat="45.02933" lon="3.69694">
        <ele>1120</ele>
        <time>2021-04-13T10:50:37Z</time>
      </trkpt>
      <trkpt lat="45.02935" lon="3.69666">
        <ele>1119</ele>
        <time>2021-04-13T10:50:38Z</time>
      </trkpt>
      <trkpt lat="45.02935" lon="3.69652">
        <ele>1118</ele>
        <time>2021-04-13T10:50:40Z</time>
      </trkpt>
      <trkpt lat="45.02935" lon="3.69639">
        <ele>1117</ele>
        <time>2021-04-13T10:50:41Z</time>
      </trkpt>
      <trkpt lat="45.02935" lon="3.69626">
        <ele>1116</ele>
        <time>2021-04-13T10:50:42Z</time>
      </trkpt>
      <trkpt lat="45.02936" lon="3.69587">
        <ele>1114</ele>
        <time>2021-04-13T10:50:44Z</time>
      </trkpt>
      <trkpt lat="45.02937" lon="3.69574">
        <ele>1113</ele>
        <time>2021-04-13T10:50:45Z</time>
      </trkpt>
      <trkpt lat="45.02938" lon="3.69562">
        <ele>1113</ele>
        <time>2021-04-13T10:50:46Z</time>
      </trkpt>
      <trkpt lat="45.02941" lon="3.6955">
        <ele>1112</ele>
        <time>2021-04-13T10:50:47Z</time>
      </trkpt>
      <trkpt lat="45.02945" lon="3.6954">
        <ele>1111</ele>
        <time>2021-04-13T10:50:48Z</time>
      </trkpt>
      <trkpt lat="45.02951" lon="3.69531">
        <ele>1110</ele>
        <time>2021-04-13T10:50:49Z</time>
      </trkpt>
      <trkpt lat="45.02959" lon="3.69524">
        <ele>1109</ele>
        <time>2021-04-13T10:50:51Z</time>
      </trkpt>
      <trkpt lat="45.02967" lon="3.69519">
        <ele>1109</ele>
        <time>2021-04-13T10:50:52Z</time>
      </trkpt>
      <trkpt lat="45.03008" lon="3.69521">
        <ele>1105</ele>
        <time>2021-04-13T10:50:56Z</time>
      </trkpt>
      <trkpt lat="45.03016" lon="3.69523">
        <ele>1105</ele>
        <time>2021-04-13T10:50:57Z</time>
      </trkpt>
      <trkpt lat="45.03023" lon="3.69526">
        <ele>1104</ele>
        <time>2021-04-13T10:50:58Z</time>
      </trkpt>
      <trkpt lat="45.0303" lon="3.69529">
        <ele>1104</ele>
        <time>2021-04-13T10:50:59Z</time>
      </trkpt>
      <trkpt lat="45.03038" lon="3.6953">
        <ele>1103</ele>
        <time>2021-04-13T10:51:00Z</time>
      </trkpt>
      <trkpt lat="45.03045" lon="3.69528">
        <ele>1102</ele>
        <time>2021-04-13T10:51:01Z</time>
      </trkpt>
      <trkpt lat="45.03052" lon="3.69523">
        <ele>1101</ele>
        <time>2021-04-13T10:51:03Z</time>
      </trkpt>
      <trkpt lat="45.03058" lon="3.69516">
        <ele>1100</ele>
        <time>2021-04-13T10:51:04Z</time>
      </trkpt>
      <trkpt lat="45.03072" lon="3.69506">
        <ele>1099</ele>
        <time>2021-04-13T10:51:06Z</time>
      </trkpt>
      <trkpt lat="45.03079" lon="3.69503">
        <ele>1099</ele>
        <time>2021-04-13T10:51:07Z</time>
      </trkpt>
      <trkpt lat="45.03094" lon="3.69499">
        <ele>1098</ele>
        <time>2021-04-13T10:51:08Z</time>
      </trkpt>
      <trkpt lat="45.031" lon="3.69497">
        <ele>1097</ele>
        <time>2021-04-13T10:51:09Z</time>
      </trkpt>
      <trkpt lat="45.03107" lon="3.69496">
        <ele>1097</ele>
        <time>2021-04-13T10:51:10Z</time>
      </trkpt>
      <trkpt lat="45.03114" lon="3.69495">
        <ele>1096</ele>
        <time>2021-04-13T10:51:11Z</time>
      </trkpt>
      <trkpt lat="45.0312" lon="3.69494">
        <ele>1095</ele>
        <time>2021-04-13T10:51:12Z</time>
      </trkpt>
      <trkpt lat="45.03126" lon="3.69494">
        <ele>1094</ele>
        <time>2021-04-13T10:51:13Z</time>
      </trkpt>
      <trkpt lat="45.03149" lon="3.69494">
        <ele>1091</ele>
        <time>2021-04-13T10:51:18Z</time>
      </trkpt>
      <trkpt lat="45.03154" lon="3.69495">
        <ele>1091</ele>
        <time>2021-04-13T10:51:19Z</time>
      </trkpt>
      <trkpt lat="45.0316" lon="3.69495">
        <ele>1090</ele>
        <time>2021-04-13T10:51:20Z</time>
      </trkpt>
      <trkpt lat="45.03165" lon="3.69495">
        <ele>1090</ele>
        <time>2021-04-13T10:51:21Z</time>
      </trkpt>
      <trkpt lat="45.03171" lon="3.69496">
        <ele>1090</ele>
        <time>2021-04-13T10:51:22Z</time>
      </trkpt>
      <trkpt lat="45.03177" lon="3.69497">
        <ele>1090</ele>
        <time>2021-04-13T10:51:23Z</time>
      </trkpt>
      <trkpt lat="45.03189" lon="3.69499">
        <ele>1090</ele>
        <time>2021-04-13T10:51:24Z</time>
      </trkpt>
      <trkpt lat="45.03194" lon="3.695">
        <ele>1090</ele>
        <time>2021-04-13T10:51:25Z</time>
      </trkpt>
      <trkpt lat="45.03205" lon="3.69502">
        <ele>1089</ele>
        <time>2021-04-13T10:51:27Z</time>
      </trkpt>
      <trkpt lat="45.03211" lon="3.69502">
        <ele>1089</ele>
        <time>2021-04-13T10:51:29Z</time>
      </trkpt>
      <trkpt lat="45.03216" lon="3.69502">
        <ele>1089</ele>
        <time>2021-04-13T10:51:30Z</time>
      </trkpt>
      <trkpt lat="45.03222" lon="3.69501">
        <ele>1089</ele>
        <time>2021-04-13T10:51:31Z</time>
      </trkpt>
      <trkpt lat="45.03228" lon="3.695">
        <ele>1089</ele>
        <time>2021-04-13T10:51:32Z</time>
      </trkpt>
      <trkpt lat="45.03239" lon="3.69497">
        <ele>1089</ele>
        <time>2021-04-13T10:51:33Z</time>
      </trkpt>
      <trkpt lat="45.03244" lon="3.69494">
        <ele>1089</ele>
        <time>2021-04-13T10:51:34Z</time>
      </trkpt>
      <trkpt lat="45.03249" lon="3.69492">
        <ele>1089</ele>
        <time>2021-04-13T10:51:35Z</time>
      </trkpt>
      <trkpt lat="45.03268" lon="3.69484">
        <ele>1087</ele>
        <time>2021-04-13T10:51:39Z</time>
      </trkpt>
      <trkpt lat="45.03272" lon="3.69482">
        <ele>1087</ele>
        <time>2021-04-13T10:51:40Z</time>
      </trkpt>
      <trkpt lat="45.03276" lon="3.6948">
        <ele>1087</ele>
        <time>2021-04-13T10:51:41Z</time>
      </trkpt>
      <trkpt lat="45.0328" lon="3.69478">
        <ele>1087</ele>
        <time>2021-04-13T10:51:42Z</time>
      </trkpt>
      <trkpt lat="45.03283" lon="3.69475">
        <ele>1086</ele>
        <time>2021-04-13T10:51:44Z</time>
      </trkpt>
      <trkpt lat="45.03286" lon="3.69472">
        <ele>1086</ele>
        <time>2021-04-13T10:51:45Z</time>
      </trkpt>
      <trkpt lat="45.03289" lon="3.69468">
        <ele>1086</ele>
        <time>2021-04-13T10:51:46Z</time>
      </trkpt>
      <trkpt lat="45.03292" lon="3.69464">
        <ele>1086</ele>
        <time>2021-04-13T10:51:47Z</time>
      </trkpt>
      <trkpt lat="45.03298" lon="3.69456">
        <ele>1085</ele>
        <time>2021-04-13T10:51:49Z</time>
      </trkpt>
      <trkpt lat="45.03301" lon="3.69451">
        <ele>1085</ele>
        <time>2021-04-13T10:51:50Z</time>
      </trkpt>
      <trkpt lat="45.03304" lon="3.69447">
        <ele>1085</ele>
        <time>2021-04-13T10:51:51Z</time>
      </trkpt>
      <trkpt lat="45.03307" lon="3.69443">
        <ele>1085</ele>
        <time>2021-04-13T10:51:52Z</time>
      </trkpt>
      <trkpt lat="45.0331" lon="3.69439">
        <ele>1085</ele>
        <time>2021-04-13T10:51:53Z</time>
      </trkpt>
      <trkpt lat="45.03317" lon="3.69432">
        <ele>1084</ele>
        <time>2021-04-13T10:51:54Z</time>
      </trkpt>
      <trkpt lat="45.0332" lon="3.69428">
        <ele>1084</ele>
        <time>2021-04-13T10:51:55Z</time>
      </trkpt>
      <trkpt lat="45.03322" lon="3.69424">
        <ele>1084</ele>
        <time>2021-04-13T10:51:56Z</time>
      </trkpt>
      <trkpt lat="45.03331" lon="3.69401">
        <ele>1084</ele>
        <time>2021-04-13T10:52:00Z</time>
      </trkpt>
      <trkpt lat="45.03332" lon="3.69394">
        <ele>1083</ele>
        <time>2021-04-13T10:52:01Z</time>
      </trkpt>
      <trkpt lat="45.03333" lon="3.69388">
        <ele>1083</ele>
        <time>2021-04-13T10:52:02Z</time>
      </trkpt>
      <trkpt lat="45.03334" lon="3.69381">
        <ele>1083</ele>
        <time>2021-04-13T10:52:03Z</time>
      </trkpt>
      <trkpt lat="45.03335" lon="3.69374">
        <ele>1083</ele>
        <time>2021-04-13T10:52:04Z</time>
      </trkpt>
      <trkpt lat="45.03336" lon="3.69367">
        <ele>1083</ele>
        <time>2021-04-13T10:52:05Z</time>
      </trkpt>
      <trkpt lat="45.03336" lon="3.69359">
        <ele>1083</ele>
        <time>2021-04-13T10:52:06Z</time>
      </trkpt>
      <trkpt lat="45.03337" lon="3.69353">
        <ele>1083</ele>
        <time>2021-04-13T10:52:08Z</time>
      </trkpt>
      <trkpt lat="45.03338" lon="3.69339">
        <ele>1082</ele>
        <time>2021-04-13T10:52:10Z</time>
      </trkpt>
      <trkpt lat="45.0334" lon="3.69332">
        <ele>1082</ele>
        <time>2021-04-13T10:52:11Z</time>
      </trkpt>
      <trkpt lat="45.03341" lon="3.69324">
        <ele>1082</ele>
        <time>2021-04-13T10:52:12Z</time>
      </trkpt>
      <trkpt lat="45.03344" lon="3.69309">
        <ele>1082</ele>
        <time>2021-04-13T10:52:13Z</time>
      </trkpt>
      <trkpt lat="45.0335" lon="3.69287">
        <ele>1082</ele>
        <time>2021-04-13T10:52:16Z</time>
      </trkpt>
      <trkpt lat="45.03354" lon="3.69273">
        <ele>1082</ele>
        <time>2021-04-13T10:52:18Z</time>
      </trkpt>
      <trkpt lat="45.03356" lon="3.69266">
        <ele>1082</ele>
        <time>2021-04-13T10:52:19Z</time>
      </trkpt>
      <trkpt lat="45.03358" lon="3.69259">
        <ele>1082</ele>
        <time>2021-04-13T10:52:20Z</time>
      </trkpt>
      <trkpt lat="45.03364" lon="3.69232">
        <ele>1082</ele>
        <time>2021-04-13T10:52:24Z</time>
      </trkpt>
      <trkpt lat="45.03366" lon="3.69226">
        <ele>1082</ele>
        <time>2021-04-13T10:52:25Z</time>
      </trkpt>
      <trkpt lat="45.03367" lon="3.6922">
        <ele>1082</ele>
        <time>2021-04-13T10:52:27Z</time>
      </trkpt>
      <trkpt lat="45.03368" lon="3.69213">
        <ele>1082</ele>
        <time>2021-04-13T10:52:28Z</time>
      </trkpt>
      <trkpt lat="45.03369" lon="3.69206">
        <ele>1082</ele>
        <time>2021-04-13T10:52:29Z</time>
      </trkpt>
      <trkpt lat="45.03369" lon="3.69199">
        <ele>1082</ele>
        <time>2021-04-13T10:52:30Z</time>
      </trkpt>
      <trkpt lat="45.03369" lon="3.69191">
        <ele>1082</ele>
        <time>2021-04-13T10:52:31Z</time>
      </trkpt>
      <trkpt lat="45.03366" lon="3.69176">
        <ele>1082</ele>
        <time>2021-04-13T10:52:32Z</time>
      </trkpt>
      <trkpt lat="45.03363" lon="3.69153">
        <ele>1082</ele>
        <time>2021-04-13T10:52:35Z</time>
      </trkpt>
      <trkpt lat="45.03361" lon="3.69146">
        <ele>1082</ele>
        <time>2021-04-13T10:52:36Z</time>
      </trkpt>
      <trkpt lat="45.03359" lon="3.69139">
        <ele>1082</ele>
        <time>2021-04-13T10:52:37Z</time>
      </trkpt>
      <trkpt lat="45.03357" lon="3.69131">
        <ele>1082</ele>
        <time>2021-04-13T10:52:38Z</time>
      </trkpt>
      <trkpt lat="45.03355" lon="3.69123">
        <ele>1082</ele>
        <time>2021-04-13T10:52:39Z</time>
      </trkpt>
      <trkpt lat="45.03354" lon="3.69115">
        <ele>1082</ele>
        <time>2021-04-13T10:52:40Z</time>
      </trkpt>
      <trkpt lat="45.03352" lon="3.69107">
        <ele>1082</ele>
        <time>2021-04-13T10:52:41Z</time>
      </trkpt>
      <trkpt lat="45.03351" lon="3.691">
        <ele>1082</ele>
        <time>2021-04-13T10:52:42Z</time>
      </trkpt>
      <trkpt lat="45.03344" lon="3.6907">
        <ele>1082</ele>
        <time>2021-04-13T10:52:46Z</time>
      </trkpt>
      <trkpt lat="45.03343" lon="3.69063">
        <ele>1082</ele>
        <time>2021-04-13T10:52:47Z</time>
      </trkpt>
      <trkpt lat="45.03341" lon="3.69056">
        <ele>1082</ele>
        <time>2021-04-13T10:52:48Z</time>
      </trkpt>
      <trkpt lat="45.0334" lon="3.69049">
        <ele>1082</ele>
        <time>2021-04-13T10:52:49Z</time>
      </trkpt>
      <trkpt lat="45.03338" lon="3.69041">
        <ele>1082</ele>
        <time>2021-04-13T10:52:50Z</time>
      </trkpt>
      <trkpt lat="45.03336" lon="3.69034">
        <ele>1082</ele>
        <time>2021-04-13T10:52:51Z</time>
      </trkpt>
      <trkpt lat="45.03335" lon="3.69027">
        <ele>1082</ele>
        <time>2021-04-13T10:52:52Z</time>
      </trkpt>
      <trkpt lat="45.03334" lon="3.69019">
        <ele>1082</ele>
        <time>2021-04-13T10:52:53Z</time>
      </trkpt>
      <trkpt lat="45.03331" lon="3.69005">
        <ele>1082</ele>
        <time>2021-04-13T10:52:55Z</time>
      </trkpt>
      <trkpt lat="45.0333" lon="3.68998">
        <ele>1081</ele>
        <time>2021-04-13T10:52:56Z</time>
      </trkpt>
      <trkpt lat="45.03329" lon="3.68991">
        <ele>1082</ele>
        <time>2021-04-13T10:52:57Z</time>
      </trkpt>
      <trkpt lat="45.03328" lon="3.68984">
        <ele>1081</ele>
        <time>2021-04-13T10:52:58Z</time>
      </trkpt>
      <trkpt lat="45.03327" lon="3.68977">
        <ele>1081</ele>
        <time>2021-04-13T10:52:59Z</time>
      </trkpt>
      <trkpt lat="45.03325" lon="3.6897">
        <ele>1081</ele>
        <time>2021-04-13T10:53:00Z</time>
      </trkpt>
      <trkpt lat="45.03324" lon="3.68962">
        <ele>1081</ele>
        <time>2021-04-13T10:53:01Z</time>
      </trkpt>
      <trkpt lat="45.03323" lon="3.68954">
        <ele>1081</ele>
        <time>2021-04-13T10:53:03Z</time>
      </trkpt>
      <trkpt lat="45.03319" lon="3.68924">
        <ele>1081</ele>
        <time>2021-04-13T10:53:07Z</time>
      </trkpt>
      <trkpt lat="45.03318" lon="3.68918">
        <ele>1081</ele>
        <time>2021-04-13T10:53:08Z</time>
      </trkpt>
      <trkpt lat="45.03317" lon="3.68911">
        <ele>1081</ele>
        <time>2021-04-13T10:53:09Z</time>
      </trkpt>
      <trkpt lat="45.03313" lon="3.68896">
        <ele>1081</ele>
        <time>2021-04-13T10:53:10Z</time>
      </trkpt>
      <trkpt lat="45.03307" lon="3.68882">
        <ele>1080</ele>
        <time>2021-04-13T10:53:12Z</time>
      </trkpt>
      <trkpt lat="45.03304" lon="3.68874">
        <ele>1080</ele>
        <time>2021-04-13T10:53:13Z</time>
      </trkpt>
      <trkpt lat="45.03302" lon="3.68867">
        <ele>1079</ele>
        <time>2021-04-13T10:53:14Z</time>
      </trkpt>
      <trkpt lat="45.03299" lon="3.6886">
        <ele>1079</ele>
        <time>2021-04-13T10:53:15Z</time>
      </trkpt>
      <trkpt lat="45.03295" lon="3.68845">
        <ele>1079</ele>
        <time>2021-04-13T10:53:17Z</time>
      </trkpt>
      <trkpt lat="45.03293" lon="3.68838">
        <ele>1078</ele>
        <time>2021-04-13T10:53:18Z</time>
      </trkpt>
      <trkpt lat="45.03291" lon="3.68831">
        <ele>1078</ele>
        <time>2021-04-13T10:53:19Z</time>
      </trkpt>
      <trkpt lat="45.0329" lon="3.68824">
        <ele>1078</ele>
        <time>2021-04-13T10:53:20Z</time>
      </trkpt>
      <trkpt lat="45.03289" lon="3.68816">
        <ele>1078</ele>
        <time>2021-04-13T10:53:22Z</time>
      </trkpt>
      <trkpt lat="45.03289" lon="3.68808">
        <ele>1077</ele>
        <time>2021-04-13T10:53:23Z</time>
      </trkpt>
      <trkpt lat="45.03289" lon="3.688">
        <ele>1077</ele>
        <time>2021-04-13T10:53:24Z</time>
      </trkpt>
      <trkpt lat="45.03289" lon="3.68792">
        <ele>1077</ele>
        <time>2021-04-13T10:53:25Z</time>
      </trkpt>
      <trkpt lat="45.0329" lon="3.68744">
        <ele>1075</ele>
        <time>2021-04-13T10:53:30Z</time>
      </trkpt>
      <trkpt lat="45.03291" lon="3.68735">
        <ele>1075</ele>
        <time>2021-04-13T10:53:31Z</time>
      </trkpt>
      <trkpt lat="45.03292" lon="3.68727">
        <ele>1075</ele>
        <time>2021-04-13T10:53:32Z</time>
      </trkpt>
      <trkpt lat="45.03294" lon="3.68719">
        <ele>1074</ele>
        <time>2021-04-13T10:53:33Z</time>
      </trkpt>
      <trkpt lat="45.03296" lon="3.68711">
        <ele>1074</ele>
        <time>2021-04-13T10:53:34Z</time>
      </trkpt>
      <trkpt lat="45.03298" lon="3.68703">
        <ele>1073</ele>
        <time>2021-04-13T10:53:35Z</time>
      </trkpt>
      <trkpt lat="45.03301" lon="3.68696">
        <ele>1073</ele>
        <time>2021-04-13T10:53:36Z</time>
      </trkpt>
      <trkpt lat="45.03304" lon="3.68689">
        <ele>1073</ele>
        <time>2021-04-13T10:53:37Z</time>
      </trkpt>
      <trkpt lat="45.03311" lon="3.68675">
        <ele>1072</ele>
        <time>2021-04-13T10:53:40Z</time>
      </trkpt>
      <trkpt lat="45.03314" lon="3.68668">
        <ele>1071</ele>
        <time>2021-04-13T10:53:41Z</time>
      </trkpt>
      <trkpt lat="45.03318" lon="3.6866">
        <ele>1072</ele>
        <time>2021-04-13T10:53:42Z</time>
      </trkpt>
      <trkpt lat="45.03322" lon="3.68651">
        <ele>1071</ele>
        <time>2021-04-13T10:53:43Z</time>
      </trkpt>
      <trkpt lat="45.03325" lon="3.68643">
        <ele>1071</ele>
        <time>2021-04-13T10:53:44Z</time>
      </trkpt>
      <trkpt lat="45.03328" lon="3.68635">
        <ele>1071</ele>
        <time>2021-04-13T10:53:45Z</time>
      </trkpt>
      <trkpt lat="45.03334" lon="3.68618">
        <ele>1071</ele>
        <time>2021-04-13T10:53:46Z</time>
      </trkpt>
      <trkpt lat="45.03336" lon="3.6861">
        <ele>1071</ele>
        <time>2021-04-13T10:53:47Z</time>
      </trkpt>
      <trkpt lat="45.03346" lon="3.68579">
        <ele>1069</ele>
        <time>2021-04-13T10:53:51Z</time>
      </trkpt>
      <trkpt lat="45.03349" lon="3.68572">
        <ele>1069</ele>
        <time>2021-04-13T10:53:52Z</time>
      </trkpt>
      <trkpt lat="45.03352" lon="3.68565">
        <ele>1069</ele>
        <time>2021-04-13T10:53:53Z</time>
      </trkpt>
      <trkpt lat="45.03354" lon="3.68557">
        <ele>1068</ele>
        <time>2021-04-13T10:53:54Z</time>
      </trkpt>
      <trkpt lat="45.03357" lon="3.6855">
        <ele>1068</ele>
        <time>2021-04-13T10:53:56Z</time>
      </trkpt>
      <trkpt lat="45.03358" lon="3.68542">
        <ele>1068</ele>
        <time>2021-04-13T10:53:57Z</time>
      </trkpt>
      <trkpt lat="45.0336" lon="3.68534">
        <ele>1068</ele>
        <time>2021-04-13T10:53:58Z</time>
      </trkpt>
      <trkpt lat="45.03361" lon="3.68526">
        <ele>1068</ele>
        <time>2021-04-13T10:53:59Z</time>
      </trkpt>
      <trkpt lat="45.03363" lon="3.6851">
        <ele>1067</ele>
        <time>2021-04-13T10:54:01Z</time>
      </trkpt>
      <trkpt lat="45.03366" lon="3.68494">
        <ele>1067</ele>
        <time>2021-04-13T10:54:02Z</time>
      </trkpt>
      <trkpt lat="45.03368" lon="3.68486">
        <ele>1067</ele>
        <time>2021-04-13T10:54:03Z</time>
      </trkpt>
      <trkpt lat="45.03369" lon="3.68478">
        <ele>1066</ele>
        <time>2021-04-13T10:54:04Z</time>
      </trkpt>
      <trkpt lat="45.03371" lon="3.68471">
        <ele>1066</ele>
        <time>2021-04-13T10:54:05Z</time>
      </trkpt>
      <trkpt lat="45.03372" lon="3.68463">
        <ele>1066</ele>
        <time>2021-04-13T10:54:06Z</time>
      </trkpt>
      <trkpt lat="45.03374" lon="3.68455">
        <ele>1066</ele>
        <time>2021-04-13T10:54:07Z</time>
      </trkpt>
      <trkpt lat="45.03376" lon="3.68448">
        <ele>1066</ele>
        <time>2021-04-13T10:54:08Z</time>
      </trkpt>
      <trkpt lat="45.03386" lon="3.68427">
        <ele>1065</ele>
        <time>2021-04-13T10:54:12Z</time>
      </trkpt>
      <trkpt lat="45.0339" lon="3.68424">
        <ele>1065</ele>
        <time>2021-04-13T10:54:13Z</time>
      </trkpt>
      <trkpt lat="45.03394" lon="3.68422">
        <ele>1065</ele>
        <time>2021-04-13T10:54:14Z</time>
      </trkpt>
      <trkpt lat="45.03398" lon="3.6842">
        <ele>1065</ele>
        <time>2021-04-13T10:54:15Z</time>
      </trkpt>
      <trkpt lat="45.03401" lon="3.68417">
        <ele>1065</ele>
        <time>2021-04-13T10:54:16Z</time>
      </trkpt>
      <trkpt lat="45.03404" lon="3.68412">
        <ele>1065</ele>
        <time>2021-04-13T10:54:17Z</time>
      </trkpt>
      <trkpt lat="45.03406" lon="3.68407">
        <ele>1065</ele>
        <time>2021-04-13T10:54:18Z</time>
      </trkpt>
      <trkpt lat="45.03406" lon="3.68402">
        <ele>1065</ele>
        <time>2021-04-13T10:54:19Z</time>
      </trkpt>
      <trkpt lat="45.03403" lon="3.68389">
        <ele>1065</ele>
        <time>2021-04-13T10:54:21Z</time>
      </trkpt>
      <trkpt lat="45.03401" lon="3.68383">
        <ele>1065</ele>
        <time>2021-04-13T10:54:22Z</time>
      </trkpt>
      <trkpt lat="45.03398" lon="3.68377">
        <ele>1065</ele>
        <time>2021-04-13T10:54:23Z</time>
      </trkpt>
      <trkpt lat="45.03396" lon="3.68371">
        <ele>1065</ele>
        <time>2021-04-13T10:54:25Z</time>
      </trkpt>
      <trkpt lat="45.03391" lon="3.68361">
        <ele>1065</ele>
        <time>2021-04-13T10:54:26Z</time>
      </trkpt>
      <trkpt lat="45.03388" lon="3.68357">
        <ele>1064</ele>
        <time>2021-04-13T10:54:28Z</time>
      </trkpt>
      <trkpt lat="45.03385" lon="3.68352">
        <ele>1064</ele>
        <time>2021-04-13T10:54:29Z</time>
      </trkpt>
      <trkpt lat="45.03381" lon="3.68348">
        <ele>1064</ele>
        <time>2021-04-13T10:54:30Z</time>
      </trkpt>
      <trkpt lat="45.03366" lon="3.68323">
        <ele>1064</ele>
        <time>2021-04-13T10:54:34Z</time>
      </trkpt>
      <trkpt lat="45.03364" lon="3.68318">
        <ele>1065</ele>
        <time>2021-04-13T10:54:36Z</time>
      </trkpt>
      <trkpt lat="45.03362" lon="3.68312">
        <ele>1065</ele>
        <time>2021-04-13T10:54:37Z</time>
      </trkpt>
      <trkpt lat="45.0336" lon="3.68306">
        <ele>1065</ele>
        <time>2021-04-13T10:54:38Z</time>
      </trkpt>
      <trkpt lat="45.03359" lon="3.683">
        <ele>1066</ele>
        <time>2021-04-13T10:54:39Z</time>
      </trkpt>
      <trkpt lat="45.03358" lon="3.68294">
        <ele>1066</ele>
        <time>2021-04-13T10:54:40Z</time>
      </trkpt>
      <trkpt lat="45.03357" lon="3.68289">
        <ele>1066</ele>
        <time>2021-04-13T10:54:41Z</time>
      </trkpt>
      <trkpt lat="45.03356" lon="3.68283">
        <ele>1066</ele>
        <time>2021-04-13T10:54:42Z</time>
      </trkpt>
      <trkpt lat="45.03352" lon="3.6826">
        <ele>1067</ele>
        <time>2021-04-13T10:54:45Z</time>
      </trkpt>
      <trkpt lat="45.03352" lon="3.68255">
        <ele>1067</ele>
        <time>2021-04-13T10:54:46Z</time>
      </trkpt>
      <trkpt lat="45.03351" lon="3.68249">
        <ele>1068</ele>
        <time>2021-04-13T10:54:48Z</time>
      </trkpt>
      <trkpt lat="45.03351" lon="3.68243">
        <ele>1068</ele>
        <time>2021-04-13T10:54:49Z</time>
      </trkpt>
      <trkpt lat="45.03351" lon="3.68236">
        <ele>1069</ele>
        <time>2021-04-13T10:54:50Z</time>
      </trkpt>
      <trkpt lat="45.0335" lon="3.6823">
        <ele>1069</ele>
        <time>2021-04-13T10:54:51Z</time>
      </trkpt>
      <trkpt lat="45.0335" lon="3.68223">
        <ele>1069</ele>
        <time>2021-04-13T10:54:52Z</time>
      </trkpt>
      <trkpt lat="45.0335" lon="3.68217">
        <ele>1069</ele>
        <time>2021-04-13T10:54:53Z</time>
      </trkpt>
      <trkpt lat="45.0335" lon="3.68192">
        <ele>1070</ele>
        <time>2021-04-13T10:54:57Z</time>
      </trkpt>
      <trkpt lat="45.0335" lon="3.68185">
        <ele>1071</ele>
        <time>2021-04-13T10:54:58Z</time>
      </trkpt>
      <trkpt lat="45.0335" lon="3.68179">
        <ele>1071</ele>
        <time>2021-04-13T10:54:59Z</time>
      </trkpt>
      <trkpt lat="45.0335" lon="3.68173">
        <ele>1072</ele>
        <time>2021-04-13T10:55:00Z</time>
      </trkpt>
      <trkpt lat="45.0335" lon="3.68167">
        <ele>1072</ele>
        <time>2021-04-13T10:55:01Z</time>
      </trkpt>
      <trkpt lat="45.0335" lon="3.68161">
        <ele>1073</ele>
        <time>2021-04-13T10:55:02Z</time>
      </trkpt>
      <trkpt lat="45.0335" lon="3.68155">
        <ele>1073</ele>
        <time>2021-04-13T10:55:03Z</time>
      </trkpt>
      <trkpt lat="45.0335" lon="3.68143">
        <ele>1074</ele>
        <time>2021-04-13T10:55:04Z</time>
      </trkpt>
      <trkpt lat="45.0335" lon="3.68131">
        <ele>1074</ele>
        <time>2021-04-13T10:55:07Z</time>
      </trkpt>
      <trkpt lat="45.03349" lon="3.68126">
        <ele>1074</ele>
        <time>2021-04-13T10:55:08Z</time>
      </trkpt>
      <trkpt lat="45.03349" lon="3.6812">
        <ele>1074</ele>
        <time>2021-04-13T10:55:09Z</time>
      </trkpt>
      <trkpt lat="45.03349" lon="3.68115">
        <ele>1075</ele>
        <time>2021-04-13T10:55:10Z</time>
      </trkpt>
      <trkpt lat="45.03349" lon="3.68109">
        <ele>1075</ele>
        <time>2021-04-13T10:55:11Z</time>
      </trkpt>
      <trkpt lat="45.03349" lon="3.68103">
        <ele>1075</ele>
        <time>2021-04-13T10:55:12Z</time>
      </trkpt>
      <trkpt lat="45.03349" lon="3.68097">
        <ele>1076</ele>
        <time>2021-04-13T10:55:13Z</time>
      </trkpt>
      <trkpt lat="45.03349" lon="3.68091">
        <ele>1076</ele>
        <time>2021-04-13T10:55:14Z</time>
      </trkpt>
      <trkpt lat="45.03351" lon="3.68066">
        <ele>1078</ele>
        <time>2021-04-13T10:55:18Z</time>
      </trkpt>
      <trkpt lat="45.03352" lon="3.6806">
        <ele>1078</ele>
        <time>2021-04-13T10:55:19Z</time>
      </trkpt>
      <trkpt lat="45.03352" lon="3.68053">
        <ele>1078</ele>
        <time>2021-04-13T10:55:20Z</time>
      </trkpt>
      <trkpt lat="45.03353" lon="3.68046">
        <ele>1079</ele>
        <time>2021-04-13T10:55:21Z</time>
      </trkpt>
      <trkpt lat="45.03353" lon="3.6804">
        <ele>1079</ele>
        <time>2021-04-13T10:55:22Z</time>
      </trkpt>
      <trkpt lat="45.03355" lon="3.68026">
        <ele>1079</ele>
        <time>2021-04-13T10:55:23Z</time>
      </trkpt>
      <trkpt lat="45.03355" lon="3.68019">
        <ele>1079</ele>
        <time>2021-04-13T10:55:25Z</time>
      </trkpt>
      <trkpt lat="45.03355" lon="3.68012">
        <ele>1079</ele>
        <time>2021-04-13T10:55:26Z</time>
      </trkpt>
      <trkpt lat="45.03356" lon="3.67997">
        <ele>1080</ele>
        <time>2021-04-13T10:55:28Z</time>
      </trkpt>
      <trkpt lat="45.03356" lon="3.67989">
        <ele>1080</ele>
        <time>2021-04-13T10:55:29Z</time>
      </trkpt>
      <trkpt lat="45.03356" lon="3.67981">
        <ele>1080</ele>
        <time>2021-04-13T10:55:30Z</time>
      </trkpt>
      <trkpt lat="45.03357" lon="3.67974">
        <ele>1080</ele>
        <time>2021-04-13T10:55:31Z</time>
      </trkpt>
      <trkpt lat="45.03356" lon="3.67966">
        <ele>1080</ele>
        <time>2021-04-13T10:55:32Z</time>
      </trkpt>
      <trkpt lat="45.03356" lon="3.67958">
        <ele>1080</ele>
        <time>2021-04-13T10:55:33Z</time>
      </trkpt>
      <trkpt lat="45.03356" lon="3.6795">
        <ele>1081</ele>
        <time>2021-04-13T10:55:34Z</time>
      </trkpt>
      <trkpt lat="45.03356" lon="3.67943">
        <ele>1081</ele>
        <time>2021-04-13T10:55:35Z</time>
      </trkpt>
      <trkpt lat="45.03356" lon="3.67914">
        <ele>1082</ele>
        <time>2021-04-13T10:55:39Z</time>
      </trkpt>
      <trkpt lat="45.03353" lon="3.679">
        <ele>1082</ele>
        <time>2021-04-13T10:55:40Z</time>
      </trkpt>
      <trkpt lat="45.03351" lon="3.67886">
        <ele>1082</ele>
        <time>2021-04-13T10:55:42Z</time>
      </trkpt>
      <trkpt lat="45.03349" lon="3.67879">
        <ele>1083</ele>
        <time>2021-04-13T10:55:44Z</time>
      </trkpt>
      <trkpt lat="45.03348" lon="3.67873">
        <ele>1083</ele>
        <time>2021-04-13T10:55:45Z</time>
      </trkpt>
      <trkpt lat="45.03346" lon="3.67867">
        <ele>1083</ele>
        <time>2021-04-13T10:55:46Z</time>
      </trkpt>
      <trkpt lat="45.03345" lon="3.67861">
        <ele>1084</ele>
        <time>2021-04-13T10:55:47Z</time>
      </trkpt>
      <trkpt lat="45.03343" lon="3.67854">
        <ele>1084</ele>
        <time>2021-04-13T10:55:48Z</time>
      </trkpt>
      <trkpt lat="45.03341" lon="3.67842">
        <ele>1085</ele>
        <time>2021-04-13T10:55:50Z</time>
      </trkpt>
      <trkpt lat="45.0334" lon="3.67836">
        <ele>1085</ele>
        <time>2021-04-13T10:55:51Z</time>
      </trkpt>
      <trkpt lat="45.0334" lon="3.67829">
        <ele>1086</ele>
        <time>2021-04-13T10:55:52Z</time>
      </trkpt>
      <trkpt lat="45.0334" lon="3.67823">
        <ele>1086</ele>
        <time>2021-04-13T10:55:53Z</time>
      </trkpt>
      <trkpt lat="45.03339" lon="3.67817">
        <ele>1087</ele>
        <time>2021-04-13T10:55:54Z</time>
      </trkpt>
      <trkpt lat="45.03339" lon="3.67811">
        <ele>1087</ele>
        <time>2021-04-13T10:55:55Z</time>
      </trkpt>
      <trkpt lat="45.03339" lon="3.67805">
        <ele>1088</ele>
        <time>2021-04-13T10:55:56Z</time>
      </trkpt>
      <trkpt lat="45.03339" lon="3.67798">
        <ele>1088</ele>
        <time>2021-04-13T10:55:57Z</time>
      </trkpt>
      <trkpt lat="45.03341" lon="3.67767">
        <ele>1090</ele>
        <time>2021-04-13T10:56:02Z</time>
      </trkpt>
      <trkpt lat="45.03341" lon="3.67761">
        <ele>1090</ele>
        <time>2021-04-13T10:56:03Z</time>
      </trkpt>
      <trkpt lat="45.03342" lon="3.67755">
        <ele>1091</ele>
        <time>2021-04-13T10:56:04Z</time>
      </trkpt>
      <trkpt lat="45.03343" lon="3.67749">
        <ele>1091</ele>
        <time>2021-04-13T10:56:05Z</time>
      </trkpt>
      <trkpt lat="45.03344" lon="3.67742">
        <ele>1091</ele>
        <time>2021-04-13T10:56:06Z</time>
      </trkpt>
      <trkpt lat="45.03344" lon="3.67735">
        <ele>1091</ele>
        <time>2021-04-13T10:56:07Z</time>
      </trkpt>
      <trkpt lat="45.03345" lon="3.67728">
        <ele>1091</ele>
        <time>2021-04-13T10:56:08Z</time>
      </trkpt>
      <trkpt lat="45.03345" lon="3.67721">
        <ele>1092</ele>
        <time>2021-04-13T10:56:09Z</time>
      </trkpt>
      <trkpt lat="45.03346" lon="3.67707">
        <ele>1092</ele>
        <time>2021-04-13T10:56:11Z</time>
      </trkpt>
      <trkpt lat="45.03346" lon="3.677">
        <ele>1092</ele>
        <time>2021-04-13T10:56:12Z</time>
      </trkpt>
      <trkpt lat="45.03346" lon="3.67692">
        <ele>1093</ele>
        <time>2021-04-13T10:56:13Z</time>
      </trkpt>
      <trkpt lat="45.03346" lon="3.67685">
        <ele>1093</ele>
        <time>2021-04-13T10:56:14Z</time>
      </trkpt>
      <trkpt lat="45.03346" lon="3.67678">
        <ele>1093</ele>
        <time>2021-04-13T10:56:15Z</time>
      </trkpt>
      <trkpt lat="45.03346" lon="3.67671">
        <ele>1093</ele>
        <time>2021-04-13T10:56:16Z</time>
      </trkpt>
      <trkpt lat="45.03346" lon="3.67665">
        <ele>1094</ele>
        <time>2021-04-13T10:56:17Z</time>
      </trkpt>
      <trkpt lat="45.03345" lon="3.67658">
        <ele>1094</ele>
        <time>2021-04-13T10:56:18Z</time>
      </trkpt>
      <trkpt lat="45.03344" lon="3.67624">
        <ele>1095</ele>
        <time>2021-04-13T10:56:22Z</time>
      </trkpt>
      <trkpt lat="45.03343" lon="3.67618">
        <ele>1096</ele>
        <time>2021-04-13T10:56:24Z</time>
      </trkpt>
      <trkpt lat="45.03343" lon="3.67611">
        <ele>1096</ele>
        <time>2021-04-13T10:56:25Z</time>
      </trkpt>
      <trkpt lat="45.03343" lon="3.67605">
        <ele>1097</ele>
        <time>2021-04-13T10:56:26Z</time>
      </trkpt>
      <trkpt lat="45.03343" lon="3.67599">
        <ele>1097</ele>
        <time>2021-04-13T10:56:27Z</time>
      </trkpt>
      <trkpt lat="45.03342" lon="3.67593">
        <ele>1097</ele>
        <time>2021-04-13T10:56:28Z</time>
      </trkpt>
      <trkpt lat="45.03341" lon="3.67587">
        <ele>1098</ele>
        <time>2021-04-13T10:56:29Z</time>
      </trkpt>
      <trkpt lat="45.03341" lon="3.67582">
        <ele>1098</ele>
        <time>2021-04-13T10:56:30Z</time>
      </trkpt>
      <trkpt lat="45.03341" lon="3.67571">
        <ele>1098</ele>
        <time>2021-04-13T10:56:32Z</time>
      </trkpt>
      <trkpt lat="45.03342" lon="3.67566">
        <ele>1098</ele>
        <time>2021-04-13T10:56:33Z</time>
      </trkpt>
      <trkpt lat="45.03344" lon="3.67561">
        <ele>1099</ele>
        <time>2021-04-13T10:56:34Z</time>
      </trkpt>
      <trkpt lat="45.03346" lon="3.67557">
        <ele>1099</ele>
        <time>2021-04-13T10:56:35Z</time>
      </trkpt>
      <trkpt lat="45.03348" lon="3.67553">
        <ele>1099</ele>
        <time>2021-04-13T10:56:36Z</time>
      </trkpt>
      <trkpt lat="45.0335" lon="3.67548">
        <ele>1099</ele>
        <time>2021-04-13T10:56:37Z</time>
      </trkpt>
      <trkpt lat="45.03352" lon="3.67544">
        <ele>1099</ele>
        <time>2021-04-13T10:56:38Z</time>
      </trkpt>
      <trkpt lat="45.03356" lon="3.67536">
        <ele>1100</ele>
        <time>2021-04-13T10:56:39Z</time>
      </trkpt>
      <trkpt lat="45.03364" lon="3.6752">
        <ele>1101</ele>
        <time>2021-04-13T10:56:44Z</time>
      </trkpt>
      <trkpt lat="45.03367" lon="3.67517">
        <ele>1101</ele>
        <time>2021-04-13T10:56:45Z</time>
      </trkpt>
      <trkpt lat="45.03369" lon="3.67514">
        <ele>1101</ele>
        <time>2021-04-13T10:56:46Z</time>
      </trkpt>
      <trkpt lat="45.03371" lon="3.67511">
        <ele>1101</ele>
        <time>2021-04-13T10:56:47Z</time>
      </trkpt>
      <trkpt lat="45.03374" lon="3.67508">
        <ele>1102</ele>
        <time>2021-04-13T10:56:48Z</time>
      </trkpt>
      <trkpt lat="45.03379" lon="3.675">
        <ele>1102</ele>
        <time>2021-04-13T10:56:49Z</time>
      </trkpt>
      <trkpt lat="45.03381" lon="3.67495">
        <ele>1102</ele>
        <time>2021-04-13T10:56:51Z</time>
      </trkpt>
      <trkpt lat="45.03384" lon="3.6749">
        <ele>1102</ele>
        <time>2021-04-13T10:56:52Z</time>
      </trkpt>
      <trkpt lat="45.03392" lon="3.67478">
        <ele>1102</ele>
        <time>2021-04-13T10:56:54Z</time>
      </trkpt>
      <trkpt lat="45.03395" lon="3.67471">
        <ele>1102</ele>
        <time>2021-04-13T10:56:55Z</time>
      </trkpt>
      <trkpt lat="45.03399" lon="3.67463">
        <ele>1101</ele>
        <time>2021-04-13T10:56:56Z</time>
      </trkpt>
      <trkpt lat="45.03403" lon="3.67454">
        <ele>1101</ele>
        <time>2021-04-13T10:56:57Z</time>
      </trkpt>
      <trkpt lat="45.03407" lon="3.67446">
        <ele>1101</ele>
        <time>2021-04-13T10:56:58Z</time>
      </trkpt>
      <trkpt lat="45.0341" lon="3.67436">
        <ele>1101</ele>
        <time>2021-04-13T10:56:59Z</time>
      </trkpt>
      <trkpt lat="45.03413" lon="3.67426">
        <ele>1101</ele>
        <time>2021-04-13T10:57:00Z</time>
      </trkpt>
      <trkpt lat="45.03416" lon="3.67417">
        <ele>1101</ele>
        <time>2021-04-13T10:57:01Z</time>
      </trkpt>
      <trkpt lat="45.0343" lon="3.67382">
        <ele>1102</ele>
        <time>2021-04-13T10:57:05Z</time>
      </trkpt>
      <trkpt lat="45.03434" lon="3.67375">
        <ele>1102</ele>
        <time>2021-04-13T10:57:06Z</time>
      </trkpt>
      <trkpt lat="45.03438" lon="3.67367">
        <ele>1102</ele>
        <time>2021-04-13T10:57:07Z</time>
      </trkpt>
      <trkpt lat="45.03442" lon="3.67359">
        <ele>1102</ele>
        <time>2021-04-13T10:57:08Z</time>
      </trkpt>
      <trkpt lat="45.03449" lon="3.67345">
        <ele>1101</ele>
        <time>2021-04-13T10:57:10Z</time>
      </trkpt>
      <trkpt lat="45.03453" lon="3.67338">
        <ele>1101</ele>
        <time>2021-04-13T10:57:11Z</time>
      </trkpt>
      <trkpt lat="45.03457" lon="3.67331">
        <ele>1101</ele>
        <time>2021-04-13T10:57:12Z</time>
      </trkpt>
      <trkpt lat="45.0346" lon="3.67324">
        <ele>1101</ele>
        <time>2021-04-13T10:57:13Z</time>
      </trkpt>
      <trkpt lat="45.03466" lon="3.67311">
        <ele>1100</ele>
        <time>2021-04-13T10:57:15Z</time>
      </trkpt>
      <trkpt lat="45.03469" lon="3.67303">
        <ele>1100</ele>
        <time>2021-04-13T10:57:16Z</time>
      </trkpt>
      <trkpt lat="45.03475" lon="3.67289">
        <ele>1100</ele>
        <time>2021-04-13T10:57:17Z</time>
      </trkpt>
      <trkpt lat="45.03478" lon="3.67282">
        <ele>1099</ele>
        <time>2021-04-13T10:57:19Z</time>
      </trkpt>
      <trkpt lat="45.03481" lon="3.67275">
        <ele>1099</ele>
        <time>2021-04-13T10:57:20Z</time>
      </trkpt>
      <trkpt lat="45.03487" lon="3.67261">
        <ele>1098</ele>
        <time>2021-04-13T10:57:21Z</time>
      </trkpt>
      <trkpt lat="45.03493" lon="3.67247">
        <ele>1098</ele>
        <time>2021-04-13T10:57:23Z</time>
      </trkpt>
      <trkpt lat="45.03496" lon="3.6724">
        <ele>1097</ele>
        <time>2021-04-13T10:57:25Z</time>
      </trkpt>
      <trkpt lat="45.03508" lon="3.67217">
        <ele>1096</ele>
        <time>2021-04-13T10:57:29Z</time>
      </trkpt>
      <trkpt lat="45.0351" lon="3.67211">
        <ele>1096</ele>
        <time>2021-04-13T10:57:30Z</time>
      </trkpt>
      <trkpt lat="45.03513" lon="3.67204">
        <ele>1096</ele>
        <time>2021-04-13T10:57:31Z</time>
      </trkpt>
      <trkpt lat="45.03515" lon="3.67198">
        <ele>1096</ele>
        <time>2021-04-13T10:57:32Z</time>
      </trkpt>
      <trkpt lat="45.03518" lon="3.67191">
        <ele>1096</ele>
        <time>2021-04-13T10:57:33Z</time>
      </trkpt>
      <trkpt lat="45.0352" lon="3.67184">
        <ele>1096</ele>
        <time>2021-04-13T10:57:34Z</time>
      </trkpt>
      <trkpt lat="45.03522" lon="3.67177">
        <ele>1096</ele>
        <time>2021-04-13T10:57:35Z</time>
      </trkpt>
      <trkpt lat="45.03526" lon="3.67165">
        <ele>1096</ele>
        <time>2021-04-13T10:57:36Z</time>
      </trkpt>
      <trkpt lat="45.0353" lon="3.67152">
        <ele>1095</ele>
        <time>2021-04-13T10:57:39Z</time>
      </trkpt>
      <trkpt lat="45.03532" lon="3.67142">
        <ele>1095</ele>
        <time>2021-04-13T10:57:40Z</time>
      </trkpt>
      <trkpt lat="45.03533" lon="3.67139">
        <ele>1095</ele>
        <time>2021-04-13T10:57:42Z</time>
      </trkpt>
      <trkpt lat="45.03535" lon="3.67137">
        <ele>1095</ele>
        <time>2021-04-13T10:57:43Z</time>
      </trkpt>
      <trkpt lat="45.03537" lon="3.67136">
        <ele>1095</ele>
        <time>2021-04-13T10:57:44Z</time>
      </trkpt>
      <trkpt lat="45.03539" lon="3.67134">
        <ele>1095</ele>
        <time>2021-04-13T10:57:45Z</time>
      </trkpt>
      <trkpt lat="45.0354" lon="3.67131">
        <ele>1095</ele>
        <time>2021-04-13T10:57:46Z</time>
      </trkpt>
      <trkpt lat="45.03541" lon="3.67127">
        <ele>1095</ele>
        <time>2021-04-13T10:57:47Z</time>
      </trkpt>
      <trkpt lat="45.03546" lon="3.67089">
        <ele>1096</ele>
        <time>2021-04-13T10:57:57Z</time>
      </trkpt>
      <trkpt lat="45.03549" lon="3.67089">
        <ele>1096</ele>
        <time>2021-04-13T10:57:58Z</time>
      </trkpt>
      <trkpt lat="45.03552" lon="3.6709">
        <ele>1096</ele>
        <time>2021-04-13T10:57:59Z</time>
      </trkpt>
      <trkpt lat="45.03555" lon="3.67091">
        <ele>1096</ele>
        <time>2021-04-13T10:58:00Z</time>
      </trkpt>
      <trkpt lat="45.03558" lon="3.67092">
        <ele>1097</ele>
        <time>2021-04-13T10:58:01Z</time>
      </trkpt>
      <trkpt lat="45.03561" lon="3.67092">
        <ele>1097</ele>
        <time>2021-04-13T10:58:02Z</time>
      </trkpt>
      <trkpt lat="45.03563" lon="3.67092">
        <ele>1097</ele>
        <time>2021-04-13T10:58:03Z</time>
      </trkpt>
      <trkpt lat="45.03565" lon="3.67091">
        <ele>1097</ele>
        <time>2021-04-13T10:58:04Z</time>
      </trkpt>
      <trkpt lat="45.03566" lon="3.67084">
        <ele>1097</ele>
        <time>2021-04-13T10:58:06Z</time>
      </trkpt>
      <trkpt lat="45.03566" lon="3.67079">
        <ele>1098</ele>
        <time>2021-04-13T10:58:07Z</time>
      </trkpt>
      <trkpt lat="45.03567" lon="3.67073">
        <ele>1098</ele>
        <time>2021-04-13T10:58:08Z</time>
      </trkpt>
      <trkpt lat="45.03567" lon="3.67068">
        <ele>1098</ele>
        <time>2021-04-13T10:58:09Z</time>
      </trkpt>
      <trkpt lat="45.03567" lon="3.67063">
        <ele>1098</ele>
        <time>2021-04-13T10:58:10Z</time>
      </trkpt>
      <trkpt lat="45.03567" lon="3.67057">
        <ele>1098</ele>
        <time>2021-04-13T10:58:11Z</time>
      </trkpt>
      <trkpt lat="45.03567" lon="3.67052">
        <ele>1098</ele>
        <time>2021-04-13T10:58:12Z</time>
      </trkpt>
      <trkpt lat="45.03567" lon="3.67046">
        <ele>1098</ele>
        <time>2021-04-13T10:58:13Z</time>
      </trkpt>
      <trkpt lat="45.03565" lon="3.67023">
        <ele>1098</ele>
        <time>2021-04-13T10:58:17Z</time>
      </trkpt>
      <trkpt lat="45.03564" lon="3.67018">
        <ele>1098</ele>
        <time>2021-04-13T10:58:18Z</time>
      </trkpt>
      <trkpt lat="45.03563" lon="3.67014">
        <ele>1098</ele>
        <time>2021-04-13T10:58:19Z</time>
      </trkpt>
      <trkpt lat="45.03563" lon="3.6701">
        <ele>1098</ele>
        <time>2021-04-13T10:58:20Z</time>
      </trkpt>
      <trkpt lat="45.03563" lon="3.67006">
        <ele>1098</ele>
        <time>2021-04-13T10:58:21Z</time>
      </trkpt>
      <trkpt lat="45.03563" lon="3.67002">
        <ele>1098</ele>
        <time>2021-04-13T10:58:22Z</time>
      </trkpt>
      <trkpt lat="45.03563" lon="3.66998">
        <ele>1098</ele>
        <time>2021-04-13T10:58:23Z</time>
      </trkpt>
      <trkpt lat="45.03563" lon="3.66994">
        <ele>1098</ele>
        <time>2021-04-13T10:58:24Z</time>
      </trkpt>
      <trkpt lat="45.03564" lon="3.66986">
        <ele>1098</ele>
        <time>2021-04-13T10:58:26Z</time>
      </trkpt>
      <trkpt lat="45.03564" lon="3.66982">
        <ele>1098</ele>
        <time>2021-04-13T10:58:27Z</time>
      </trkpt>
      <trkpt lat="45.03564" lon="3.66979">
        <ele>1098</ele>
        <time>2021-04-13T10:58:28Z</time>
      </trkpt>
      <trkpt lat="45.03563" lon="3.66976">
        <ele>1099</ele>
        <time>2021-04-13T10:58:29Z</time>
      </trkpt>
      <trkpt lat="45.03563" lon="3.66972">
        <ele>1099</ele>
        <time>2021-04-13T10:58:30Z</time>
      </trkpt>
      <trkpt lat="45.03562" lon="3.66969">
        <ele>1099</ele>
        <time>2021-04-13T10:58:31Z</time>
      </trkpt>
      <trkpt lat="45.03561" lon="3.66967">
        <ele>1099</ele>
        <time>2021-04-13T10:58:32Z</time>
      </trkpt>
      <trkpt lat="45.03559" lon="3.66963">
        <ele>1099</ele>
        <time>2021-04-13T10:58:33Z</time>
      </trkpt>
      <trkpt lat="45.03554" lon="3.66962">
        <ele>1099</ele>
        <time>2021-04-13T11:01:34Z</time>
      </trkpt>
      <trkpt lat="45.03552" lon="3.66961">
        <ele>1099</ele>
        <time>2021-04-13T11:01:36Z</time>
      </trkpt>
      <trkpt lat="45.03549" lon="3.66959">
        <ele>1099</ele>
        <time>2021-04-13T11:01:37Z</time>
      </trkpt>
      <trkpt lat="45.03547" lon="3.66958">
        <ele>1099</ele>
        <time>2021-04-13T11:01:38Z</time>
      </trkpt>
      <trkpt lat="45.03544" lon="3.66956">
        <ele>1099</ele>
        <time>2021-04-13T11:01:39Z</time>
      </trkpt>
      <trkpt lat="45.03541" lon="3.66955">
        <ele>1099</ele>
        <time>2021-04-13T11:01:40Z</time>
      </trkpt>
      <trkpt lat="45.03538" lon="3.66953">
        <ele>1099</ele>
        <time>2021-04-13T11:01:41Z</time>
      </trkpt>
      <trkpt lat="45.03536" lon="3.66952">
        <ele>1099</ele>
        <time>2021-04-13T11:01:42Z</time>
      </trkpt>
      <trkpt lat="45.03531" lon="3.66948">
        <ele>1099</ele>
        <time>2021-04-13T11:01:44Z</time>
      </trkpt>
      <trkpt lat="45.03529" lon="3.66946">
        <ele>1099</ele>
        <time>2021-04-13T11:01:45Z</time>
      </trkpt>
      <trkpt lat="45.03526" lon="3.66944">
        <ele>1099</ele>
        <time>2021-04-13T11:01:46Z</time>
      </trkpt>
      <trkpt lat="45.03523" lon="3.66941">
        <ele>1099</ele>
        <time>2021-04-13T11:01:47Z</time>
      </trkpt>
      <trkpt lat="45.03521" lon="3.66939">
        <ele>1099</ele>
        <time>2021-04-13T11:01:48Z</time>
      </trkpt>
      <trkpt lat="45.03519" lon="3.66936">
        <ele>1099</ele>
        <time>2021-04-13T11:01:49Z</time>
      </trkpt>
      <trkpt lat="45.03517" lon="3.66933">
        <ele>1099</ele>
        <time>2021-04-13T11:01:50Z</time>
      </trkpt>
      <trkpt lat="45.03515" lon="3.6693">
        <ele>1099</ele>
        <time>2021-04-13T11:01:51Z</time>
      </trkpt>
      <trkpt lat="45.03505" lon="3.66916">
        <ele>1099</ele>
        <time>2021-04-13T11:01:56Z</time>
      </trkpt>
      <trkpt lat="45.03503" lon="3.66913">
        <ele>1099</ele>
        <time>2021-04-13T11:01:57Z</time>
      </trkpt>
      <trkpt lat="45.03501" lon="3.66909">
        <ele>1099</ele>
        <time>2021-04-13T11:01:58Z</time>
      </trkpt>
      <trkpt lat="45.03499" lon="3.66906">
        <ele>1099</ele>
        <time>2021-04-13T11:01:59Z</time>
      </trkpt>
      <trkpt lat="45.03497" lon="3.66903">
        <ele>1099</ele>
        <time>2021-04-13T11:02:00Z</time>
      </trkpt>
      <trkpt lat="45.03495" lon="3.669">
        <ele>1099</ele>
        <time>2021-04-13T11:02:01Z</time>
      </trkpt>
      <trkpt lat="45.03493" lon="3.66896">
        <ele>1099</ele>
        <time>2021-04-13T11:02:02Z</time>
      </trkpt>
      <trkpt lat="45.03491" lon="3.66893">
        <ele>1099</ele>
        <time>2021-04-13T11:02:03Z</time>
      </trkpt>
      <trkpt lat="45.03489" lon="3.66886">
        <ele>1099</ele>
        <time>2021-04-13T11:02:05Z</time>
      </trkpt>
      <trkpt lat="45.03488" lon="3.66884">
        <ele>1099</ele>
        <time>2021-04-13T11:02:06Z</time>
      </trkpt>
      <trkpt lat="45.03487" lon="3.6688">
        <ele>1099</ele>
        <time>2021-04-13T11:02:07Z</time>
      </trkpt>
      <trkpt lat="45.03487" lon="3.66877">
        <ele>1099</ele>
        <time>2021-04-13T11:02:08Z</time>
      </trkpt>
      <trkpt lat="45.03486" lon="3.66873">
        <ele>1099</ele>
        <time>2021-04-13T11:02:09Z</time>
      </trkpt>
      <trkpt lat="45.03485" lon="3.6687">
        <ele>1099</ele>
        <time>2021-04-13T11:02:10Z</time>
      </trkpt>
      <trkpt lat="45.03484" lon="3.66866">
        <ele>1100</ele>
        <time>2021-04-13T11:02:11Z</time>
      </trkpt>
      <trkpt lat="45.03482" lon="3.66858">
        <ele>1100</ele>
        <time>2021-04-13T11:02:12Z</time>
      </trkpt>
      <trkpt lat="45.03481" lon="3.66831">
        <ele>1101</ele>
        <time>2021-04-13T11:02:20Z</time>
      </trkpt>
      <trkpt lat="45.03478" lon="3.66815">
        <ele>1102</ele>
        <time>2021-04-13T11:02:24Z</time>
      </trkpt>
      <trkpt lat="45.03474" lon="3.66802">
        <ele>1102</ele>
        <time>2021-04-13T11:02:27Z</time>
      </trkpt>
      <trkpt lat="45.0347" lon="3.66787">
        <ele>1103</ele>
        <time>2021-04-13T11:02:30Z</time>
      </trkpt>
      <trkpt lat="45.03468" lon="3.66774">
        <ele>1103</ele>
        <time>2021-04-13T11:02:33Z</time>
      </trkpt>
      <trkpt lat="45.03467" lon="3.6676">
        <ele>1103</ele>
        <time>2021-04-13T11:02:36Z</time>
      </trkpt>
      <trkpt lat="45.03465" lon="3.66747">
        <ele>1104</ele>
        <time>2021-04-13T11:02:39Z</time>
      </trkpt>
      <trkpt lat="45.03464" lon="3.66734">
        <ele>1105</ele>
        <time>2021-04-13T11:02:42Z</time>
      </trkpt>
      <trkpt lat="45.03468" lon="3.66706">
        <ele>1105</ele>
        <time>2021-04-13T11:02:47Z</time>
      </trkpt>
      <trkpt lat="45.03468" lon="3.66702">
        <ele>1105</ele>
        <time>2021-04-13T11:02:48Z</time>
      </trkpt>
      <trkpt lat="45.03469" lon="3.66697">
        <ele>1106</ele>
        <time>2021-04-13T11:02:49Z</time>
      </trkpt>
      <trkpt lat="45.03469" lon="3.66683">
        <ele>1106</ele>
        <time>2021-04-13T11:02:52Z</time>
      </trkpt>
      <trkpt lat="45.03468" lon="3.66666">
        <ele>1107</ele>
        <time>2021-04-13T11:02:55Z</time>
      </trkpt>
      <trkpt lat="45.03467" lon="3.66661">
        <ele>1108</ele>
        <time>2021-04-13T11:02:56Z</time>
      </trkpt>
      <trkpt lat="45.03466" lon="3.66655">
        <ele>1108</ele>
        <time>2021-04-13T11:02:57Z</time>
      </trkpt>
      <trkpt lat="45.03465" lon="3.6665">
        <ele>1108</ele>
        <time>2021-04-13T11:02:58Z</time>
      </trkpt>
      <trkpt lat="45.0346" lon="3.66628">
        <ele>1110</ele>
        <time>2021-04-13T11:03:04Z</time>
      </trkpt>
      <trkpt lat="45.03458" lon="3.66626">
        <ele>1110</ele>
        <time>2021-04-13T11:03:05Z</time>
      </trkpt>
      <trkpt lat="45.03455" lon="3.66624">
        <ele>1110</ele>
        <time>2021-04-13T11:03:06Z</time>
      </trkpt>
      <trkpt lat="45.03452" lon="3.66622">
        <ele>1110</ele>
        <time>2021-04-13T11:03:07Z</time>
      </trkpt>
      <trkpt lat="45.03448" lon="3.6662">
        <ele>1111</ele>
        <time>2021-04-13T11:03:08Z</time>
      </trkpt>
      <trkpt lat="45.03445" lon="3.66618">
        <ele>1111</ele>
        <time>2021-04-13T11:03:09Z</time>
      </trkpt>
      <trkpt lat="45.03441" lon="3.66616">
        <ele>1111</ele>
        <time>2021-04-13T11:03:10Z</time>
      </trkpt>
      <trkpt lat="45.03438" lon="3.66614">
        <ele>1111</ele>
        <time>2021-04-13T11:03:11Z</time>
      </trkpt>
      <trkpt lat="45.0343" lon="3.66611">
        <ele>1111</ele>
        <time>2021-04-13T11:03:13Z</time>
      </trkpt>
      <trkpt lat="45.03426" lon="3.66609">
        <ele>1111</ele>
        <time>2021-04-13T11:03:14Z</time>
      </trkpt>
      <trkpt lat="45.03422" lon="3.66607">
        <ele>1111</ele>
        <time>2021-04-13T11:03:15Z</time>
      </trkpt>
      <trkpt lat="45.03419" lon="3.66605">
        <ele>1111</ele>
        <time>2021-04-13T11:03:16Z</time>
      </trkpt>
      <trkpt lat="45.03416" lon="3.66602">
        <ele>1111</ele>
        <time>2021-04-13T11:03:17Z</time>
      </trkpt>
      <trkpt lat="45.03412" lon="3.666">
        <ele>1111</ele>
        <time>2021-04-13T11:03:18Z</time>
      </trkpt>
      <trkpt lat="45.0341" lon="3.66598">
        <ele>1111</ele>
        <time>2021-04-13T11:03:19Z</time>
      </trkpt>
      <trkpt lat="45.03407" lon="3.66594">
        <ele>1111</ele>
        <time>2021-04-13T11:03:20Z</time>
      </trkpt>
      <trkpt lat="45.03402" lon="3.66571">
        <ele>1112</ele>
        <time>2021-04-13T11:03:25Z</time>
      </trkpt>
      <trkpt lat="45.03401" lon="3.66566">
        <ele>1112</ele>
        <time>2021-04-13T11:03:26Z</time>
      </trkpt>
      <trkpt lat="45.034" lon="3.6656">
        <ele>1112</ele>
        <time>2021-04-13T11:03:27Z</time>
      </trkpt>
      <trkpt lat="45.03396" lon="3.66548">
        <ele>1112</ele>
        <time>2021-04-13T11:03:28Z</time>
      </trkpt>
      <trkpt lat="45.03391" lon="3.66536">
        <ele>1112</ele>
        <time>2021-04-13T11:03:30Z</time>
      </trkpt>
      <trkpt lat="45.03389" lon="3.6653">
        <ele>1113</ele>
        <time>2021-04-13T11:03:32Z</time>
      </trkpt>
      <trkpt lat="45.03386" lon="3.66523">
        <ele>1113</ele>
        <time>2021-04-13T11:03:33Z</time>
      </trkpt>
      <trkpt lat="45.03383" lon="3.66517">
        <ele>1113</ele>
        <time>2021-04-13T11:03:34Z</time>
      </trkpt>
      <trkpt lat="45.03378" lon="3.66504">
        <ele>1113</ele>
        <time>2021-04-13T11:03:36Z</time>
      </trkpt>
      <trkpt lat="45.03376" lon="3.66498">
        <ele>1113</ele>
        <time>2021-04-13T11:03:37Z</time>
      </trkpt>
      <trkpt lat="45.03373" lon="3.66492">
        <ele>1113</ele>
        <time>2021-04-13T11:03:38Z</time>
      </trkpt>
      <trkpt lat="45.03371" lon="3.66486">
        <ele>1114</ele>
        <time>2021-04-13T11:03:39Z</time>
      </trkpt>
      <trkpt lat="45.03369" lon="3.6648">
        <ele>1114</ele>
        <time>2021-04-13T11:03:40Z</time>
      </trkpt>
      <trkpt lat="45.03366" lon="3.66474">
        <ele>1114</ele>
        <time>2021-04-13T11:03:41Z</time>
      </trkpt>
      <trkpt lat="45.03364" lon="3.66468">
        <ele>1114</ele>
        <time>2021-04-13T11:03:42Z</time>
      </trkpt>
      <trkpt lat="45.03362" lon="3.66462">
        <ele>1114</ele>
        <time>2021-04-13T11:03:43Z</time>
      </trkpt>
      <trkpt lat="45.03364" lon="3.66429">
        <ele>1115</ele>
        <time>2021-04-13T11:03:49Z</time>
      </trkpt>
      <trkpt lat="45.03368" lon="3.66425">
        <ele>1115</ele>
        <time>2021-04-13T11:03:50Z</time>
      </trkpt>
      <trkpt lat="45.03373" lon="3.66422">
        <ele>1115</ele>
        <time>2021-04-13T11:03:51Z</time>
      </trkpt>
      <trkpt lat="45.03377" lon="3.66418">
        <ele>1116</ele>
        <time>2021-04-13T11:03:52Z</time>
      </trkpt>
      <trkpt lat="45.03381" lon="3.66415">
        <ele>1116</ele>
        <time>2021-04-13T11:03:53Z</time>
      </trkpt>
      <trkpt lat="45.03385" lon="3.66411">
        <ele>1116</ele>
        <time>2021-04-13T11:03:54Z</time>
      </trkpt>
      <trkpt lat="45.03389" lon="3.66408">
        <ele>1116</ele>
        <time>2021-04-13T11:03:55Z</time>
      </trkpt>
      <trkpt lat="45.03392" lon="3.66404">
        <ele>1117</ele>
        <time>2021-04-13T11:03:56Z</time>
      </trkpt>
      <trkpt lat="45.03398" lon="3.66397">
        <ele>1117</ele>
        <time>2021-04-13T11:03:58Z</time>
      </trkpt>
      <trkpt lat="45.034" lon="3.66393">
        <ele>1117</ele>
        <time>2021-04-13T11:03:59Z</time>
      </trkpt>
      <trkpt lat="45.03403" lon="3.66389">
        <ele>1118</ele>
        <time>2021-04-13T11:04:00Z</time>
      </trkpt>
      <trkpt lat="45.03405" lon="3.66384">
        <ele>1118</ele>
        <time>2021-04-13T11:04:01Z</time>
      </trkpt>
      <trkpt lat="45.03408" lon="3.66379">
        <ele>1118</ele>
        <time>2021-04-13T11:04:02Z</time>
      </trkpt>
      <trkpt lat="45.0341" lon="3.66375">
        <ele>1119</ele>
        <time>2021-04-13T11:04:03Z</time>
      </trkpt>
      <trkpt lat="45.03412" lon="3.6637">
        <ele>1119</ele>
        <time>2021-04-13T11:04:04Z</time>
      </trkpt>
      <trkpt lat="45.03414" lon="3.66365">
        <ele>1119</ele>
        <time>2021-04-13T11:04:05Z</time>
      </trkpt>
      <trkpt lat="45.03423" lon="3.66344">
        <ele>1121</ele>
        <time>2021-04-13T11:04:10Z</time>
      </trkpt>
      <trkpt lat="45.03425" lon="3.66339">
        <ele>1121</ele>
        <time>2021-04-13T11:04:11Z</time>
      </trkpt>
      <trkpt lat="45.03428" lon="3.66331">
        <ele>1121</ele>
        <time>2021-04-13T11:04:12Z</time>
      </trkpt>
      <trkpt lat="45.0343" lon="3.66327">
        <ele>1122</ele>
        <time>2021-04-13T11:04:14Z</time>
      </trkpt>
      <trkpt lat="45.03431" lon="3.66322">
        <ele>1122</ele>
        <time>2021-04-13T11:04:15Z</time>
      </trkpt>
      <trkpt lat="45.03433" lon="3.66318">
        <ele>1122</ele>
        <time>2021-04-13T11:04:16Z</time>
      </trkpt>
      <trkpt lat="45.03434" lon="3.66314">
        <ele>1123</ele>
        <time>2021-04-13T11:04:17Z</time>
      </trkpt>
      <trkpt lat="45.03436" lon="3.6631">
        <ele>1123</ele>
        <time>2021-04-13T11:04:18Z</time>
      </trkpt>
      <trkpt lat="45.03439" lon="3.66302">
        <ele>1124</ele>
        <time>2021-04-13T11:04:20Z</time>
      </trkpt>
      <trkpt lat="45.0344" lon="3.66298">
        <ele>1124</ele>
        <time>2021-04-13T11:04:21Z</time>
      </trkpt>
      <trkpt lat="45.03442" lon="3.66294">
        <ele>1125</ele>
        <time>2021-04-13T11:04:22Z</time>
      </trkpt>
      <trkpt lat="45.03444" lon="3.6629">
        <ele>1125</ele>
        <time>2021-04-13T11:04:23Z</time>
      </trkpt>
      <trkpt lat="45.03446" lon="3.66285">
        <ele>1125</ele>
        <time>2021-04-13T11:04:24Z</time>
      </trkpt>
      <trkpt lat="45.0345" lon="3.66277">
        <ele>1126</ele>
        <time>2021-04-13T11:04:25Z</time>
      </trkpt>
      <trkpt lat="45.03452" lon="3.66272">
        <ele>1126</ele>
        <time>2021-04-13T11:04:27Z</time>
      </trkpt>
      <trkpt lat="45.03454" lon="3.66268">
        <ele>1126</ele>
        <time>2021-04-13T11:04:28Z</time>
      </trkpt>
      <trkpt lat="45.03462" lon="3.66251">
        <ele>1128</ele>
        <time>2021-04-13T11:04:32Z</time>
      </trkpt>
      <trkpt lat="45.03464" lon="3.66247">
        <ele>1128</ele>
        <time>2021-04-13T11:04:33Z</time>
      </trkpt>
      <trkpt lat="45.03466" lon="3.66242">
        <ele>1128</ele>
        <time>2021-04-13T11:04:34Z</time>
      </trkpt>
      <trkpt lat="45.03468" lon="3.66237">
        <ele>1129</ele>
        <time>2021-04-13T11:04:35Z</time>
      </trkpt>
      <trkpt lat="45.0347" lon="3.66232">
        <ele>1129</ele>
        <time>2021-04-13T11:04:36Z</time>
      </trkpt>
      <trkpt lat="45.03472" lon="3.66227">
        <ele>1129</ele>
        <time>2021-04-13T11:04:37Z</time>
      </trkpt>
      <trkpt lat="45.03474" lon="3.66222">
        <ele>1129</ele>
        <time>2021-04-13T11:04:38Z</time>
      </trkpt>
      <trkpt lat="45.03476" lon="3.66217">
        <ele>1130</ele>
        <time>2021-04-13T11:04:39Z</time>
      </trkpt>
      <trkpt lat="45.0348" lon="3.66208">
        <ele>1130</ele>
        <time>2021-04-13T11:04:41Z</time>
      </trkpt>
      <trkpt lat="45.03482" lon="3.66203">
        <ele>1130</ele>
        <time>2021-04-13T11:04:42Z</time>
      </trkpt>
      <trkpt lat="45.03485" lon="3.66198">
        <ele>1130</ele>
        <time>2021-04-13T11:04:43Z</time>
      </trkpt>
      <trkpt lat="45.0349" lon="3.66189">
        <ele>1131</ele>
        <time>2021-04-13T11:04:44Z</time>
      </trkpt>
      <trkpt lat="45.03492" lon="3.66185">
        <ele>1131</ele>
        <time>2021-04-13T11:04:46Z</time>
      </trkpt>
      <trkpt lat="45.03495" lon="3.66181">
        <ele>1131</ele>
        <time>2021-04-13T11:04:47Z</time>
      </trkpt>
      <trkpt lat="45.03502" lon="3.66172">
        <ele>1131</ele>
        <time>2021-04-13T11:04:48Z</time>
      </trkpt>
      <trkpt lat="45.03505" lon="3.66167">
        <ele>1132</ele>
        <time>2021-04-13T11:04:50Z</time>
      </trkpt>
      <trkpt lat="45.03517" lon="3.66148">
        <ele>1133</ele>
        <time>2021-04-13T11:04:54Z</time>
      </trkpt>
      <trkpt lat="45.0352" lon="3.66143">
        <ele>1133</ele>
        <time>2021-04-13T11:04:55Z</time>
      </trkpt>
      <trkpt lat="45.03523" lon="3.66138">
        <ele>1133</ele>
        <time>2021-04-13T11:04:56Z</time>
      </trkpt>
      <trkpt lat="45.03526" lon="3.66132">
        <ele>1133</ele>
        <time>2021-04-13T11:04:57Z</time>
      </trkpt>
      <trkpt lat="45.03528" lon="3.66127">
        <ele>1134</ele>
        <time>2021-04-13T11:04:58Z</time>
      </trkpt>
      <trkpt lat="45.03532" lon="3.66116">
        <ele>1134</ele>
        <time>2021-04-13T11:04:59Z</time>
      </trkpt>
      <trkpt lat="45.03535" lon="3.66111">
        <ele>1134</ele>
        <time>2021-04-13T11:05:01Z</time>
      </trkpt>
      <trkpt lat="45.03538" lon="3.66106">
        <ele>1134</ele>
        <time>2021-04-13T11:05:02Z</time>
      </trkpt>
      <trkpt lat="45.03549" lon="3.66096">
        <ele>1135</ele>
        <time>2021-04-13T11:05:05Z</time>
      </trkpt>
      <trkpt lat="45.03553" lon="3.66093">
        <ele>1135</ele>
        <time>2021-04-13T11:05:06Z</time>
      </trkpt>
      <trkpt lat="45.03557" lon="3.6609">
        <ele>1135</ele>
        <time>2021-04-13T11:05:07Z</time>
      </trkpt>
      <trkpt lat="45.03561" lon="3.66088">
        <ele>1135</ele>
        <time>2021-04-13T11:05:08Z</time>
      </trkpt>
      <trkpt lat="45.03565" lon="3.66085">
        <ele>1136</ele>
        <time>2021-04-13T11:05:09Z</time>
      </trkpt>
      <trkpt lat="45.03573" lon="3.66081">
        <ele>1136</ele>
        <time>2021-04-13T11:05:10Z</time>
      </trkpt>
      <trkpt lat="45.03577" lon="3.66079">
        <ele>1136</ele>
        <time>2021-04-13T11:05:12Z</time>
      </trkpt>
      <trkpt lat="45.03581" lon="3.66077">
        <ele>1137</ele>
        <time>2021-04-13T11:05:13Z</time>
      </trkpt>
      <trkpt lat="45.03595" lon="3.66067">
        <ele>1138</ele>
        <time>2021-04-13T11:05:17Z</time>
      </trkpt>
      <trkpt lat="45.03598" lon="3.66064">
        <ele>1138</ele>
        <time>2021-04-13T11:05:18Z</time>
      </trkpt>
      <trkpt lat="45.03601" lon="3.6606">
        <ele>1138</ele>
        <time>2021-04-13T11:05:19Z</time>
      </trkpt>
      <trkpt lat="45.03604" lon="3.66056">
        <ele>1139</ele>
        <time>2021-04-13T11:05:20Z</time>
      </trkpt>
      <trkpt lat="45.03607" lon="3.66052">
        <ele>1139</ele>
        <time>2021-04-13T11:05:21Z</time>
      </trkpt>
      <trkpt lat="45.03614" lon="3.66045">
        <ele>1139</ele>
        <time>2021-04-13T11:05:22Z</time>
      </trkpt>
      <trkpt lat="45.03617" lon="3.66041">
        <ele>1140</ele>
        <time>2021-04-13T11:05:24Z</time>
      </trkpt>
      <trkpt lat="45.03621" lon="3.66037">
        <ele>1140</ele>
        <time>2021-04-13T11:05:25Z</time>
      </trkpt>
      <trkpt lat="45.03627" lon="3.66029">
        <ele>1140</ele>
        <time>2021-04-13T11:05:27Z</time>
      </trkpt>
      <trkpt lat="45.03631" lon="3.66025">
        <ele>1141</ele>
        <time>2021-04-13T11:05:28Z</time>
      </trkpt>
      <trkpt lat="45.03635" lon="3.66021">
        <ele>1141</ele>
        <time>2021-04-13T11:05:29Z</time>
      </trkpt>
      <trkpt lat="45.03638" lon="3.66017">
        <ele>1141</ele>
        <time>2021-04-13T11:05:30Z</time>
      </trkpt>
      <trkpt lat="45.03642" lon="3.66013">
        <ele>1141</ele>
        <time>2021-04-13T11:05:31Z</time>
      </trkpt>
      <trkpt lat="45.03649" lon="3.66004">
        <ele>1142</ele>
        <time>2021-04-13T11:05:33Z</time>
      </trkpt>
      <trkpt lat="45.03652" lon="3.66">
        <ele>1142</ele>
        <time>2021-04-13T11:05:34Z</time>
      </trkpt>
      <trkpt lat="45.03656" lon="3.65996">
        <ele>1142</ele>
        <time>2021-04-13T11:05:35Z</time>
      </trkpt>
      <trkpt lat="45.0367" lon="3.65978">
        <ele>1143</ele>
        <time>2021-04-13T11:05:39Z</time>
      </trkpt>
      <trkpt lat="45.03674" lon="3.65974">
        <ele>1143</ele>
        <time>2021-04-13T11:05:40Z</time>
      </trkpt>
      <trkpt lat="45.03681" lon="3.65965">
        <ele>1144</ele>
        <time>2021-04-13T11:05:41Z</time>
      </trkpt>
      <trkpt lat="45.03685" lon="3.65961">
        <ele>1144</ele>
        <time>2021-04-13T11:05:43Z</time>
      </trkpt>
      <trkpt lat="45.03692" lon="3.65952">
        <ele>1144</ele>
        <time>2021-04-13T11:05:44Z</time>
      </trkpt>
      <trkpt lat="45.03695" lon="3.65947">
        <ele>1145</ele>
        <time>2021-04-13T11:05:46Z</time>
      </trkpt>
      <trkpt lat="45.03699" lon="3.65943">
        <ele>1145</ele>
        <time>2021-04-13T11:05:47Z</time>
      </trkpt>
      <trkpt lat="45.03703" lon="3.65938">
        <ele>1145</ele>
        <time>2021-04-13T11:05:48Z</time>
      </trkpt>
      <trkpt lat="45.0371" lon="3.65929">
        <ele>1145</ele>
        <time>2021-04-13T11:05:50Z</time>
      </trkpt>
      <trkpt lat="45.03714" lon="3.65924">
        <ele>1146</ele>
        <time>2021-04-13T11:05:51Z</time>
      </trkpt>
      <trkpt lat="45.03718" lon="3.6592">
        <ele>1146</ele>
        <time>2021-04-13T11:05:52Z</time>
      </trkpt>
      <trkpt lat="45.03722" lon="3.65915">
        <ele>1146</ele>
        <time>2021-04-13T11:05:53Z</time>
      </trkpt>
      <trkpt lat="45.03727" lon="3.6591">
        <ele>1146</ele>
        <time>2021-04-13T11:05:54Z</time>
      </trkpt>
      <trkpt lat="45.03731" lon="3.65905">
        <ele>1146</ele>
        <time>2021-04-13T11:05:55Z</time>
      </trkpt>
      <trkpt lat="45.03735" lon="3.65901">
        <ele>1146</ele>
        <time>2021-04-13T11:05:56Z</time>
      </trkpt>
      <trkpt lat="45.03739" lon="3.65896">
        <ele>1146</ele>
        <time>2021-04-13T11:05:57Z</time>
      </trkpt>
      <trkpt lat="45.03759" lon="3.65871">
        <ele>1147</ele>
        <time>2021-04-13T11:06:02Z</time>
      </trkpt>
      <trkpt lat="45.03763" lon="3.65866">
        <ele>1147</ele>
        <time>2021-04-13T11:06:03Z</time>
      </trkpt>
      <trkpt lat="45.03767" lon="3.65862">
        <ele>1147</ele>
        <time>2021-04-13T11:06:04Z</time>
      </trkpt>
      <trkpt lat="45.03771" lon="3.65857">
        <ele>1147</ele>
        <time>2021-04-13T11:06:05Z</time>
      </trkpt>
      <trkpt lat="45.03775" lon="3.65852">
        <ele>1148</ele>
        <time>2021-04-13T11:06:06Z</time>
      </trkpt>
      <trkpt lat="45.03779" lon="3.65848">
        <ele>1148</ele>
        <time>2021-04-13T11:06:07Z</time>
      </trkpt>
      <trkpt lat="45.03783" lon="3.65843">
        <ele>1148</ele>
        <time>2021-04-13T11:06:08Z</time>
      </trkpt>
      <trkpt lat="45.03787" lon="3.65839">
        <ele>1148</ele>
        <time>2021-04-13T11:06:09Z</time>
      </trkpt>
      <trkpt lat="45.03795" lon="3.65831">
        <ele>1148</ele>
        <time>2021-04-13T11:06:11Z</time>
      </trkpt>
      <trkpt lat="45.03799" lon="3.65829">
        <ele>1148</ele>
        <time>2021-04-13T11:06:12Z</time>
      </trkpt>
      <trkpt lat="45.03802" lon="3.65827">
        <ele>1148</ele>
        <time>2021-04-13T11:06:13Z</time>
      </trkpt>
      <trkpt lat="45.0381" lon="3.65825">
        <ele>1148</ele>
        <time>2021-04-13T11:06:14Z</time>
      </trkpt>
      <trkpt lat="45.03814" lon="3.65824">
        <ele>1148</ele>
        <time>2021-04-13T11:06:16Z</time>
      </trkpt>
      <trkpt lat="45.03818" lon="3.65823">
        <ele>1149</ele>
        <time>2021-04-13T11:06:17Z</time>
      </trkpt>
      <trkpt lat="45.03822" lon="3.65822">
        <ele>1149</ele>
        <time>2021-04-13T11:06:18Z</time>
      </trkpt>
      <trkpt lat="45.03829" lon="3.65817">
        <ele>1149</ele>
        <time>2021-04-13T11:06:19Z</time>
      </trkpt>
      <trkpt lat="45.03839" lon="3.65793">
        <ele>1149</ele>
        <time>2021-04-13T11:06:24Z</time>
      </trkpt>
      <trkpt lat="45.03841" lon="3.65787">
        <ele>1149</ele>
        <time>2021-04-13T11:06:25Z</time>
      </trkpt>
      <trkpt lat="45.03842" lon="3.6578">
        <ele>1149</ele>
        <time>2021-04-13T11:06:26Z</time>
      </trkpt>
      <trkpt lat="45.03844" lon="3.65774">
        <ele>1149</ele>
        <time>2021-04-13T11:06:27Z</time>
      </trkpt>
      <trkpt lat="45.03847" lon="3.65769">
        <ele>1149</ele>
        <time>2021-04-13T11:06:28Z</time>
      </trkpt>
      <trkpt lat="45.03851" lon="3.65765">
        <ele>1149</ele>
        <time>2021-04-13T11:06:29Z</time>
      </trkpt>
      <trkpt lat="45.03855" lon="3.65762">
        <ele>1149</ele>
        <time>2021-04-13T11:06:30Z</time>
      </trkpt>
      <trkpt lat="45.03859" lon="3.65759">
        <ele>1149</ele>
        <time>2021-04-13T11:06:31Z</time>
      </trkpt>
      <trkpt lat="45.03869" lon="3.65756">
        <ele>1149</ele>
        <time>2021-04-13T11:06:33Z</time>
      </trkpt>
      <trkpt lat="45.03873" lon="3.65754">
        <ele>1149</ele>
        <time>2021-04-13T11:06:34Z</time>
      </trkpt>
      <trkpt lat="45.03878" lon="3.65753">
        <ele>1149</ele>
        <time>2021-04-13T11:06:35Z</time>
      </trkpt>
      <trkpt lat="45.03883" lon="3.65752">
        <ele>1149</ele>
        <time>2021-04-13T11:06:36Z</time>
      </trkpt>
      <trkpt lat="45.03888" lon="3.6575">
        <ele>1149</ele>
        <time>2021-04-13T11:06:37Z</time>
      </trkpt>
      <trkpt lat="45.03898" lon="3.65747">
        <ele>1149</ele>
        <time>2021-04-13T11:06:38Z</time>
      </trkpt>
      <trkpt lat="45.03902" lon="3.65745">
        <ele>1150</ele>
        <time>2021-04-13T11:06:40Z</time>
      </trkpt>
      <trkpt lat="45.03907" lon="3.65743">
        <ele>1150</ele>
        <time>2021-04-13T11:06:41Z</time>
      </trkpt>
      <trkpt lat="45.03926" lon="3.65738">
        <ele>1150</ele>
        <time>2021-04-13T11:06:45Z</time>
      </trkpt>
      <trkpt lat="45.03931" lon="3.65737">
        <ele>1150</ele>
        <time>2021-04-13T11:06:46Z</time>
      </trkpt>
      <trkpt lat="45.03935" lon="3.65737">
        <ele>1150</ele>
        <time>2021-04-13T11:06:47Z</time>
      </trkpt>
      <trkpt lat="45.0394" lon="3.65736">
        <ele>1150</ele>
        <time>2021-04-13T11:06:48Z</time>
      </trkpt>
      <trkpt lat="45.03945" lon="3.65735">
        <ele>1150</ele>
        <time>2021-04-13T11:06:49Z</time>
      </trkpt>
      <trkpt lat="45.03949" lon="3.65734">
        <ele>1150</ele>
        <time>2021-04-13T11:06:50Z</time>
      </trkpt>
      <trkpt lat="45.03954" lon="3.65733">
        <ele>1150</ele>
        <time>2021-04-13T11:06:51Z</time>
      </trkpt>
      <trkpt lat="45.03958" lon="3.65732">
        <ele>1151</ele>
        <time>2021-04-13T11:06:52Z</time>
      </trkpt>
      <trkpt lat="45.03967" lon="3.65729">
        <ele>1151</ele>
        <time>2021-04-13T11:06:54Z</time>
      </trkpt>
      <trkpt lat="45.03972" lon="3.65728">
        <ele>1151</ele>
        <time>2021-04-13T11:06:55Z</time>
      </trkpt>
      <trkpt lat="45.03976" lon="3.65726">
        <ele>1152</ele>
        <time>2021-04-13T11:06:56Z</time>
      </trkpt>
      <trkpt lat="45.03981" lon="3.65725">
        <ele>1152</ele>
        <time>2021-04-13T11:06:57Z</time>
      </trkpt>
      <trkpt lat="45.03985" lon="3.65724">
        <ele>1152</ele>
        <time>2021-04-13T11:06:58Z</time>
      </trkpt>
      <trkpt lat="45.03989" lon="3.65723">
        <ele>1152</ele>
        <time>2021-04-13T11:06:59Z</time>
      </trkpt>
      <trkpt lat="45.03994" lon="3.65721">
        <ele>1153</ele>
        <time>2021-04-13T11:07:00Z</time>
      </trkpt>
      <trkpt lat="45.03998" lon="3.65719">
        <ele>1153</ele>
        <time>2021-04-13T11:07:01Z</time>
      </trkpt>
      <trkpt lat="45.04003" lon="3.65696">
        <ele>1154</ele>
        <time>2021-04-13T11:07:05Z</time>
      </trkpt>
      <trkpt lat="45.04003" lon="3.6569">
        <ele>1154</ele>
        <time>2021-04-13T11:07:06Z</time>
      </trkpt>
      <trkpt lat="45.04005" lon="3.65684">
        <ele>1154</ele>
        <time>2021-04-13T11:07:07Z</time>
      </trkpt>
      <trkpt lat="45.04008" lon="3.65679">
        <ele>1154</ele>
        <time>2021-04-13T11:07:08Z</time>
      </trkpt>
      <trkpt lat="45.04011" lon="3.65675">
        <ele>1154</ele>
        <time>2021-04-13T11:07:09Z</time>
      </trkpt>
      <trkpt lat="45.04015" lon="3.65671">
        <ele>1155</ele>
        <time>2021-04-13T11:07:10Z</time>
      </trkpt>
      <trkpt lat="45.04018" lon="3.65667">
        <ele>1155</ele>
        <time>2021-04-13T11:07:11Z</time>
      </trkpt>
      <trkpt lat="45.0402" lon="3.65661">
        <ele>1155</ele>
        <time>2021-04-13T11:07:12Z</time>
      </trkpt>
      <trkpt lat="45.04024" lon="3.65649">
        <ele>1155</ele>
        <time>2021-04-13T11:07:14Z</time>
      </trkpt>
      <trkpt lat="45.04025" lon="3.65644">
        <ele>1156</ele>
        <time>2021-04-13T11:07:15Z</time>
      </trkpt>
      <trkpt lat="45.04026" lon="3.65633">
        <ele>1156</ele>
        <time>2021-04-13T11:07:16Z</time>
      </trkpt>
      <trkpt lat="45.04025" lon="3.65628">
        <ele>1156</ele>
        <time>2021-04-13T11:07:18Z</time>
      </trkpt>
      <trkpt lat="45.0402" lon="3.65621">
        <ele>1156</ele>
        <time>2021-04-13T11:07:19Z</time>
      </trkpt>
      <trkpt lat="45.04015" lon="3.65621">
        <ele>1156</ele>
        <time>2021-04-13T11:07:21Z</time>
      </trkpt>
      <trkpt lat="45.0401" lon="3.65621">
        <ele>1156</ele>
        <time>2021-04-13T11:07:22Z</time>
      </trkpt>
      <trkpt lat="45.04005" lon="3.65621">
        <ele>1156</ele>
        <time>2021-04-13T11:07:23Z</time>
      </trkpt>
      <trkpt lat="45.03983" lon="3.65618">
        <ele>1156</ele>
        <time>2021-04-13T11:07:27Z</time>
      </trkpt>
      <trkpt lat="45.03977" lon="3.65617">
        <ele>1156</ele>
        <time>2021-04-13T11:07:28Z</time>
      </trkpt>
      <trkpt lat="45.03972" lon="3.65617">
        <ele>1156</ele>
        <time>2021-04-13T11:07:29Z</time>
      </trkpt>
      <trkpt lat="45.03966" lon="3.65616">
        <ele>1156</ele>
        <time>2021-04-13T11:07:30Z</time>
      </trkpt>
      <trkpt lat="45.0396" lon="3.65615">
        <ele>1156</ele>
        <time>2021-04-13T11:07:31Z</time>
      </trkpt>
      <trkpt lat="45.03954" lon="3.65615">
        <ele>1156</ele>
        <time>2021-04-13T11:07:32Z</time>
      </trkpt>
      <trkpt lat="45.03948" lon="3.65614">
        <ele>1156</ele>
        <time>2021-04-13T11:07:33Z</time>
      </trkpt>
      <trkpt lat="45.03942" lon="3.65612">
        <ele>1156</ele>
        <time>2021-04-13T11:07:34Z</time>
      </trkpt>
      <trkpt lat="45.03928" lon="3.65602">
        <ele>1156</ele>
        <time>2021-04-13T11:07:37Z</time>
      </trkpt>
      <trkpt lat="45.03919" lon="3.65592">
        <ele>1157</ele>
        <time>2021-04-13T11:07:38Z</time>
      </trkpt>
      <trkpt lat="45.03915" lon="3.65587">
        <ele>1157</ele>
        <time>2021-04-13T11:07:40Z</time>
      </trkpt>
      <trkpt lat="45.03911" lon="3.65581">
        <ele>1157</ele>
        <time>2021-04-13T11:07:41Z</time>
      </trkpt>
      <trkpt lat="45.03907" lon="3.65576">
        <ele>1157</ele>
        <time>2021-04-13T11:07:42Z</time>
      </trkpt>
      <trkpt lat="45.03903" lon="3.65571">
        <ele>1157</ele>
        <time>2021-04-13T11:07:43Z</time>
      </trkpt>
      <trkpt lat="45.03899" lon="3.65565">
        <ele>1157</ele>
        <time>2021-04-13T11:07:44Z</time>
      </trkpt>
      <trkpt lat="45.03895" lon="3.6556">
        <ele>1157</ele>
        <time>2021-04-13T11:07:45Z</time>
      </trkpt>
      <trkpt lat="45.03879" lon="3.65538">
        <ele>1157</ele>
        <time>2021-04-13T11:07:49Z</time>
      </trkpt>
      <trkpt lat="45.03876" lon="3.65533">
        <ele>1157</ele>
        <time>2021-04-13T11:07:50Z</time>
      </trkpt>
      <trkpt lat="45.03872" lon="3.65527">
        <ele>1157</ele>
        <time>2021-04-13T11:07:51Z</time>
      </trkpt>
      <trkpt lat="45.03868" lon="3.65522">
        <ele>1158</ele>
        <time>2021-04-13T11:07:52Z</time>
      </trkpt>
      <trkpt lat="45.03864" lon="3.65517">
        <ele>1158</ele>
        <time>2021-04-13T11:07:53Z</time>
      </trkpt>
      <trkpt lat="45.03856" lon="3.65507">
        <ele>1158</ele>
        <time>2021-04-13T11:07:54Z</time>
      </trkpt>
      <trkpt lat="45.03849" lon="3.65496">
        <ele>1158</ele>
        <time>2021-04-13T11:07:56Z</time>
      </trkpt>
      <trkpt lat="45.03845" lon="3.65491">
        <ele>1158</ele>
        <time>2021-04-13T11:07:58Z</time>
      </trkpt>
      <trkpt lat="45.03837" lon="3.65481">
        <ele>1158</ele>
        <time>2021-04-13T11:08:00Z</time>
      </trkpt>
      <trkpt lat="45.03829" lon="3.6547">
        <ele>1158</ele>
        <time>2021-04-13T11:08:02Z</time>
      </trkpt>
      <trkpt lat="45.03825" lon="3.65465">
        <ele>1158</ele>
        <time>2021-04-13T11:08:03Z</time>
      </trkpt>
      <trkpt lat="45.03821" lon="3.6546">
        <ele>1158</ele>
        <time>2021-04-13T11:08:04Z</time>
      </trkpt>
      <trkpt lat="45.03813" lon="3.65449">
        <ele>1158</ele>
        <time>2021-04-13T11:08:05Z</time>
      </trkpt>
      <trkpt lat="45.03809" lon="3.65444">
        <ele>1158</ele>
        <time>2021-04-13T11:08:07Z</time>
      </trkpt>
      <trkpt lat="45.03805" lon="3.65439">
        <ele>1158</ele>
        <time>2021-04-13T11:08:08Z</time>
      </trkpt>
      <trkpt lat="45.03798" lon="3.65431">
        <ele>1158</ele>
        <time>2021-04-13T11:08:09Z</time>
      </trkpt>
      <trkpt lat="45.03777" lon="3.65407">
        <ele>1159</ele>
        <time>2021-04-13T11:08:15Z</time>
      </trkpt>
      <trkpt lat="45.03772" lon="3.65402">
        <ele>1159</ele>
        <time>2021-04-13T11:08:16Z</time>
      </trkpt>
      <trkpt lat="45.03768" lon="3.65396">
        <ele>1159</ele>
        <time>2021-04-13T11:08:17Z</time>
      </trkpt>
      <trkpt lat="45.03765" lon="3.65391">
        <ele>1159</ele>
        <time>2021-04-13T11:08:18Z</time>
      </trkpt>
      <trkpt lat="45.03761" lon="3.65386">
        <ele>1159</ele>
        <time>2021-04-13T11:08:19Z</time>
      </trkpt>
      <trkpt lat="45.03757" lon="3.6538">
        <ele>1159</ele>
        <time>2021-04-13T11:08:20Z</time>
      </trkpt>
      <trkpt lat="45.03753" lon="3.65375">
        <ele>1159</ele>
        <time>2021-04-13T11:08:21Z</time>
      </trkpt>
      <trkpt lat="45.03749" lon="3.65369">
        <ele>1159</ele>
        <time>2021-04-13T11:08:22Z</time>
      </trkpt>
      <trkpt lat="45.03737" lon="3.65353">
        <ele>1159</ele>
        <time>2021-04-13T11:08:24Z</time>
      </trkpt>
      <trkpt lat="45.03734" lon="3.65347">
        <ele>1160</ele>
        <time>2021-04-13T11:08:26Z</time>
      </trkpt>
      <trkpt lat="45.0373" lon="3.65342">
        <ele>1160</ele>
        <time>2021-04-13T11:08:27Z</time>
      </trkpt>
      <trkpt lat="45.03726" lon="3.65336">
        <ele>1160</ele>
        <time>2021-04-13T11:08:28Z</time>
      </trkpt>
      <trkpt lat="45.03722" lon="3.65331">
        <ele>1160</ele>
        <time>2021-04-13T11:08:29Z</time>
      </trkpt>
      <trkpt lat="45.03718" lon="3.65326">
        <ele>1160</ele>
        <time>2021-04-13T11:08:30Z</time>
      </trkpt>
      <trkpt lat="45.03714" lon="3.65321">
        <ele>1160</ele>
        <time>2021-04-13T11:08:31Z</time>
      </trkpt>
      <trkpt lat="45.03705" lon="3.65311">
        <ele>1160</ele>
        <time>2021-04-13T11:08:32Z</time>
      </trkpt>
      <trkpt lat="45.03687" lon="3.65292">
        <ele>1160</ele>
        <time>2021-04-13T11:08:37Z</time>
      </trkpt>
      <trkpt lat="45.03682" lon="3.65287">
        <ele>1160</ele>
        <time>2021-04-13T11:08:38Z</time>
      </trkpt>
      <trkpt lat="45.03678" lon="3.65282">
        <ele>1160</ele>
        <time>2021-04-13T11:08:39Z</time>
      </trkpt>
      <trkpt lat="45.03673" lon="3.65277">
        <ele>1160</ele>
        <time>2021-04-13T11:08:40Z</time>
      </trkpt>
      <trkpt lat="45.03669" lon="3.65272">
        <ele>1160</ele>
        <time>2021-04-13T11:08:41Z</time>
      </trkpt>
      <trkpt lat="45.0366" lon="3.65262">
        <ele>1160</ele>
        <time>2021-04-13T11:08:42Z</time>
      </trkpt>
      <trkpt lat="45.03656" lon="3.65258">
        <ele>1160</ele>
        <time>2021-04-13T11:08:44Z</time>
      </trkpt>
      <trkpt lat="45.03652" lon="3.65253">
        <ele>1160</ele>
        <time>2021-04-13T11:08:45Z</time>
      </trkpt>
      <trkpt lat="45.03644" lon="3.65242">
        <ele>1161</ele>
        <time>2021-04-13T11:08:47Z</time>
      </trkpt>
      <trkpt lat="45.0364" lon="3.65237">
        <ele>1161</ele>
        <time>2021-04-13T11:08:48Z</time>
      </trkpt>
      <trkpt lat="45.03636" lon="3.65231">
        <ele>1161</ele>
        <time>2021-04-13T11:08:49Z</time>
      </trkpt>
      <trkpt lat="45.03633" lon="3.65226">
        <ele>1161</ele>
        <time>2021-04-13T11:08:50Z</time>
      </trkpt>
      <trkpt lat="45.03625" lon="3.65215">
        <ele>1161</ele>
        <time>2021-04-13T11:08:51Z</time>
      </trkpt>
      <trkpt lat="45.03621" lon="3.65209">
        <ele>1161</ele>
        <time>2021-04-13T11:08:53Z</time>
      </trkpt>
      <trkpt lat="45.03617" lon="3.65204">
        <ele>1161</ele>
        <time>2021-04-13T11:08:54Z</time>
      </trkpt>
      <trkpt lat="45.03613" lon="3.65199">
        <ele>1161</ele>
        <time>2021-04-13T11:08:55Z</time>
      </trkpt>
      <trkpt lat="45.03598" lon="3.65178">
        <ele>1162</ele>
        <time>2021-04-13T11:08:59Z</time>
      </trkpt>
      <trkpt lat="45.0359" lon="3.65167">
        <ele>1162</ele>
        <time>2021-04-13T11:09:00Z</time>
      </trkpt>
      <trkpt lat="45.03586" lon="3.65162">
        <ele>1162</ele>
        <time>2021-04-13T11:09:02Z</time>
      </trkpt>
      <trkpt lat="45.03583" lon="3.65156">
        <ele>1162</ele>
        <time>2021-04-13T11:09:03Z</time>
      </trkpt>
      <trkpt lat="45.0358" lon="3.65151">
        <ele>1162</ele>
        <time>2021-04-13T11:09:04Z</time>
      </trkpt>
      <trkpt lat="45.03576" lon="3.65145">
        <ele>1162</ele>
        <time>2021-04-13T11:09:05Z</time>
      </trkpt>
      <trkpt lat="45.03573" lon="3.65139">
        <ele>1162</ele>
        <time>2021-04-13T11:09:06Z</time>
      </trkpt>
      <trkpt lat="45.03569" lon="3.65132">
        <ele>1163</ele>
        <time>2021-04-13T11:09:07Z</time>
      </trkpt>
      <trkpt lat="45.03563" lon="3.6512">
        <ele>1163</ele>
        <time>2021-04-13T11:09:09Z</time>
      </trkpt>
      <trkpt lat="45.03556" lon="3.65109">
        <ele>1163</ele>
        <time>2021-04-13T11:09:10Z</time>
      </trkpt>
      <trkpt lat="45.03553" lon="3.65103">
        <ele>1162</ele>
        <time>2021-04-13T11:09:12Z</time>
      </trkpt>
      <trkpt lat="45.0355" lon="3.65098">
        <ele>1162</ele>
        <time>2021-04-13T11:09:13Z</time>
      </trkpt>
      <trkpt lat="45.03547" lon="3.65093">
        <ele>1162</ele>
        <time>2021-04-13T11:09:14Z</time>
      </trkpt>
      <trkpt lat="45.03545" lon="3.65087">
        <ele>1162</ele>
        <time>2021-04-13T11:09:15Z</time>
      </trkpt>
      <trkpt lat="45.03542" lon="3.65081">
        <ele>1162</ele>
        <time>2021-04-13T11:09:16Z</time>
      </trkpt>
      <trkpt lat="45.03539" lon="3.65075">
        <ele>1163</ele>
        <time>2021-04-13T11:09:17Z</time>
      </trkpt>
      <trkpt lat="45.03526" lon="3.65045">
        <ele>1164</ele>
        <time>2021-04-13T11:09:22Z</time>
      </trkpt>
      <trkpt lat="45.03523" lon="3.65039">
        <ele>1164</ele>
        <time>2021-04-13T11:09:23Z</time>
      </trkpt>
      <trkpt lat="45.03521" lon="3.65033">
        <ele>1164</ele>
        <time>2021-04-13T11:09:24Z</time>
      </trkpt>
      <trkpt lat="45.03518" lon="3.65028">
        <ele>1164</ele>
        <time>2021-04-13T11:09:25Z</time>
      </trkpt>
      <trkpt lat="45.03515" lon="3.65023">
        <ele>1164</ele>
        <time>2021-04-13T11:09:26Z</time>
      </trkpt>
      <trkpt lat="45.03513" lon="3.65019">
        <ele>1163</ele>
        <time>2021-04-13T11:09:27Z</time>
      </trkpt>
      <trkpt lat="45.0351" lon="3.65015">
        <ele>1163</ele>
        <time>2021-04-13T11:09:28Z</time>
      </trkpt>
      <trkpt lat="45.03504" lon="3.65008">
        <ele>1163</ele>
        <time>2021-04-13T11:09:29Z</time>
      </trkpt>
      <trkpt lat="45.03499" lon="3.65">
        <ele>1162</ele>
        <time>2021-04-13T11:09:32Z</time>
      </trkpt>
      <trkpt lat="45.03497" lon="3.64997">
        <ele>1162</ele>
        <time>2021-04-13T11:09:33Z</time>
      </trkpt>
      <trkpt lat="45.03496" lon="3.64993">
        <ele>1161</ele>
        <time>2021-04-13T11:09:34Z</time>
      </trkpt>
      <trkpt lat="45.03495" lon="3.64989">
        <ele>1162</ele>
        <time>2021-04-13T11:09:35Z</time>
      </trkpt>
      <trkpt lat="45.03496" lon="3.64985">
        <ele>1162</ele>
        <time>2021-04-13T11:09:36Z</time>
      </trkpt>
      <trkpt lat="45.03497" lon="3.6498">
        <ele>1162</ele>
        <time>2021-04-13T11:09:37Z</time>
      </trkpt>
      <trkpt lat="45.03498" lon="3.64976">
        <ele>1162</ele>
        <time>2021-04-13T11:09:38Z</time>
      </trkpt>
      <trkpt lat="45.035" lon="3.6497">
        <ele>1162</ele>
        <time>2021-04-13T11:09:39Z</time>
      </trkpt>
      <trkpt lat="45.03504" lon="3.64947">
        <ele>1163</ele>
        <time>2021-04-13T11:09:43Z</time>
      </trkpt>
      <trkpt lat="45.03507" lon="3.64934">
        <ele>1163</ele>
        <time>2021-04-13T11:09:44Z</time>
      </trkpt>
      <trkpt lat="45.03508" lon="3.64927">
        <ele>1163</ele>
        <time>2021-04-13T11:09:46Z</time>
      </trkpt>
      <trkpt lat="45.03509" lon="3.64919">
        <ele>1163</ele>
        <time>2021-04-13T11:09:47Z</time>
      </trkpt>
      <trkpt lat="45.03512" lon="3.64904">
        <ele>1163</ele>
        <time>2021-04-13T11:09:48Z</time>
      </trkpt>
      <trkpt lat="45.03513" lon="3.64895">
        <ele>1163</ele>
        <time>2021-04-13T11:09:50Z</time>
      </trkpt>
      <trkpt lat="45.03515" lon="3.64886">
        <ele>1163</ele>
        <time>2021-04-13T11:09:51Z</time>
      </trkpt>
      <trkpt lat="45.03516" lon="3.64877">
        <ele>1162</ele>
        <time>2021-04-13T11:09:52Z</time>
      </trkpt>
      <trkpt lat="45.0352" lon="3.64858">
        <ele>1162</ele>
        <time>2021-04-13T11:09:54Z</time>
      </trkpt>
      <trkpt lat="45.03522" lon="3.6485">
        <ele>1162</ele>
        <time>2021-04-13T11:09:55Z</time>
      </trkpt>
      <trkpt lat="45.03523" lon="3.64843">
        <ele>1162</ele>
        <time>2021-04-13T11:09:56Z</time>
      </trkpt>
      <trkpt lat="45.03525" lon="3.64835">
        <ele>1162</ele>
        <time>2021-04-13T11:09:57Z</time>
      </trkpt>
      <trkpt lat="45.03527" lon="3.64829">
        <ele>1162</ele>
        <time>2021-04-13T11:09:58Z</time>
      </trkpt>
      <trkpt lat="45.03528" lon="3.64824">
        <ele>1162</ele>
        <time>2021-04-13T11:09:59Z</time>
      </trkpt>
      <trkpt lat="45.03529" lon="3.6482">
        <ele>1161</ele>
        <time>2021-04-13T11:10:00Z</time>
      </trkpt>
      <trkpt lat="45.0353" lon="3.64816">
        <ele>1161</ele>
        <time>2021-04-13T11:10:01Z</time>
      </trkpt>
      <trkpt lat="45.03532" lon="3.64806">
        <ele>1161</ele>
        <time>2021-04-13T11:10:05Z</time>
      </trkpt>
      <trkpt lat="45.03532" lon="3.64803">
        <ele>1160</ele>
        <time>2021-04-13T11:10:06Z</time>
      </trkpt>
      <trkpt lat="45.03533" lon="3.648">
        <ele>1160</ele>
        <time>2021-04-13T11:10:07Z</time>
      </trkpt>
      <trkpt lat="45.03534" lon="3.64796">
        <ele>1159</ele>
        <time>2021-04-13T11:10:09Z</time>
      </trkpt>
      <trkpt lat="45.03535" lon="3.64793">
        <ele>1159</ele>
        <time>2021-04-13T11:10:10Z</time>
      </trkpt>
      <trkpt lat="45.03536" lon="3.64789">
        <ele>1159</ele>
        <time>2021-04-13T11:10:11Z</time>
      </trkpt>
      <trkpt lat="45.03537" lon="3.64785">
        <ele>1158</ele>
        <time>2021-04-13T11:10:12Z</time>
      </trkpt>
      <trkpt lat="45.03538" lon="3.64781">
        <ele>1158</ele>
        <time>2021-04-13T11:10:13Z</time>
      </trkpt>
      <trkpt lat="45.03541" lon="3.64772">
        <ele>1157</ele>
        <time>2021-04-13T11:10:15Z</time>
      </trkpt>
      <trkpt lat="45.03543" lon="3.64766">
        <ele>1157</ele>
        <time>2021-04-13T11:10:16Z</time>
      </trkpt>
      <trkpt lat="45.03545" lon="3.64761">
        <ele>1157</ele>
        <time>2021-04-13T11:10:17Z</time>
      </trkpt>
      <trkpt lat="45.03547" lon="3.64754">
        <ele>1157</ele>
        <time>2021-04-13T11:10:18Z</time>
      </trkpt>
      <trkpt lat="45.03549" lon="3.64747">
        <ele>1157</ele>
        <time>2021-04-13T11:10:19Z</time>
      </trkpt>
      <trkpt lat="45.03552" lon="3.6474">
        <ele>1156</ele>
        <time>2021-04-13T11:10:20Z</time>
      </trkpt>
      <trkpt lat="45.03557" lon="3.64723">
        <ele>1156</ele>
        <time>2021-04-13T11:10:21Z</time>
      </trkpt>
      <trkpt lat="45.0356" lon="3.64714">
        <ele>1156</ele>
        <time>2021-04-13T11:10:23Z</time>
      </trkpt>
      <trkpt lat="45.03576" lon="3.64663">
        <ele>1155</ele>
        <time>2021-04-13T11:10:28Z</time>
      </trkpt>
      <trkpt lat="45.03582" lon="3.6464">
        <ele>1154</ele>
        <time>2021-04-13T11:10:30Z</time>
      </trkpt>
      <trkpt lat="45.03586" lon="3.64617">
        <ele>1154</ele>
        <time>2021-04-13T11:10:32Z</time>
      </trkpt>
      <trkpt lat="45.03591" lon="3.64581">
        <ele>1154</ele>
        <time>2021-04-13T11:10:34Z</time>
      </trkpt>
      <trkpt lat="45.03592" lon="3.64568">
        <ele>1153</ele>
        <time>2021-04-13T11:10:36Z</time>
      </trkpt>
      <trkpt lat="45.03593" lon="3.64542">
        <ele>1152</ele>
        <time>2021-04-13T11:10:38Z</time>
      </trkpt>
      <trkpt lat="45.03593" lon="3.64529">
        <ele>1152</ele>
        <time>2021-04-13T11:10:39Z</time>
      </trkpt>
      <trkpt lat="45.03593" lon="3.64516">
        <ele>1151</ele>
        <time>2021-04-13T11:10:40Z</time>
      </trkpt>
      <trkpt lat="45.0359" lon="3.64491">
        <ele>1150</ele>
        <time>2021-04-13T11:10:42Z</time>
      </trkpt>
      <trkpt lat="45.03588" lon="3.64478">
        <ele>1150</ele>
        <time>2021-04-13T11:10:43Z</time>
      </trkpt>
      <trkpt lat="45.03586" lon="3.64452">
        <ele>1149</ele>
        <time>2021-04-13T11:10:44Z</time>
      </trkpt>
      <trkpt lat="45.03584" lon="3.64439">
        <ele>1148</ele>
        <time>2021-04-13T11:10:45Z</time>
      </trkpt>
      <trkpt lat="45.03583" lon="3.64426">
        <ele>1147</ele>
        <time>2021-04-13T11:10:47Z</time>
      </trkpt>
      <trkpt lat="45.03582" lon="3.64412">
        <ele>1146</ele>
        <time>2021-04-13T11:10:48Z</time>
      </trkpt>
      <trkpt lat="45.0358" lon="3.64398">
        <ele>1145</ele>
        <time>2021-04-13T11:10:49Z</time>
      </trkpt>
      <trkpt lat="45.03578" lon="3.64385">
        <ele>1145</ele>
        <time>2021-04-13T11:10:50Z</time>
      </trkpt>
      <trkpt lat="45.03567" lon="3.64315">
        <ele>1143</ele>
        <time>2021-04-13T11:10:54Z</time>
      </trkpt>
      <trkpt lat="45.03566" lon="3.64301">
        <ele>1142</ele>
        <time>2021-04-13T11:10:56Z</time>
      </trkpt>
      <trkpt lat="45.03567" lon="3.64286">
        <ele>1142</ele>
        <time>2021-04-13T11:10:57Z</time>
      </trkpt>
      <trkpt lat="45.03567" lon="3.64272">
        <ele>1141</ele>
        <time>2021-04-13T11:10:58Z</time>
      </trkpt>
      <trkpt lat="45.03568" lon="3.64258">
        <ele>1140</ele>
        <time>2021-04-13T11:10:59Z</time>
      </trkpt>
      <trkpt lat="45.03569" lon="3.64228">
        <ele>1139</ele>
        <time>2021-04-13T11:11:00Z</time>
      </trkpt>
      <trkpt lat="45.03569" lon="3.64213">
        <ele>1136</ele>
        <time>2021-04-13T11:11:02Z</time>
      </trkpt>
      <trkpt lat="45.03568" lon="3.64198">
        <ele>1135</ele>
        <time>2021-04-13T11:11:03Z</time>
      </trkpt>
      <trkpt lat="45.03564" lon="3.64168">
        <ele>1133</ele>
        <time>2021-04-13T11:11:05Z</time>
      </trkpt>
      <trkpt lat="45.03563" lon="3.64153">
        <ele>1131</ele>
        <time>2021-04-13T11:11:06Z</time>
      </trkpt>
      <trkpt lat="45.03561" lon="3.64138">
        <ele>1130</ele>
        <time>2021-04-13T11:11:07Z</time>
      </trkpt>
      <trkpt lat="45.0356" lon="3.64124">
        <ele>1129</ele>
        <time>2021-04-13T11:11:08Z</time>
      </trkpt>
      <trkpt lat="45.03557" lon="3.64097">
        <ele>1128</ele>
        <time>2021-04-13T11:11:09Z</time>
      </trkpt>
      <trkpt lat="45.03556" lon="3.64083">
        <ele>1126</ele>
        <time>2021-04-13T11:11:11Z</time>
      </trkpt>
      <trkpt lat="45.03554" lon="3.64069">
        <ele>1125</ele>
        <time>2021-04-13T11:11:12Z</time>
      </trkpt>
      <trkpt lat="45.03553" lon="3.64056">
        <ele>1124</ele>
        <time>2021-04-13T11:11:13Z</time>
      </trkpt>
      <trkpt lat="45.03538" lon="3.64004">
        <ele>1120</ele>
        <time>2021-04-13T11:11:17Z</time>
      </trkpt>
      <trkpt lat="45.03533" lon="3.63992">
        <ele>1118</ele>
        <time>2021-04-13T11:11:18Z</time>
      </trkpt>
      <trkpt lat="45.03525" lon="3.63969">
        <ele>1117</ele>
        <time>2021-04-13T11:11:19Z</time>
      </trkpt>
      <trkpt lat="45.03522" lon="3.63957">
        <ele>1115</ele>
        <time>2021-04-13T11:11:21Z</time>
      </trkpt>
      <trkpt lat="45.03519" lon="3.63944">
        <ele>1114</ele>
        <time>2021-04-13T11:11:22Z</time>
      </trkpt>
      <trkpt lat="45.03514" lon="3.63919">
        <ele>1114</ele>
        <time>2021-04-13T11:11:23Z</time>
      </trkpt>
      <trkpt lat="45.03511" lon="3.63906">
        <ele>1112</ele>
        <time>2021-04-13T11:11:25Z</time>
      </trkpt>
      <trkpt lat="45.03508" lon="3.63894">
        <ele>1110</ele>
        <time>2021-04-13T11:11:26Z</time>
      </trkpt>
      <trkpt lat="45.03504" lon="3.63868">
        <ele>1109</ele>
        <time>2021-04-13T11:11:28Z</time>
      </trkpt>
      <trkpt lat="45.03502" lon="3.63856">
        <ele>1108</ele>
        <time>2021-04-13T11:11:29Z</time>
      </trkpt>
      <trkpt lat="45.03498" lon="3.63831">
        <ele>1107</ele>
        <time>2021-04-13T11:11:30Z</time>
      </trkpt>
      <trkpt lat="45.03497" lon="3.63819">
        <ele>1106</ele>
        <time>2021-04-13T11:11:32Z</time>
      </trkpt>
      <trkpt lat="45.03496" lon="3.63806">
        <ele>1104</ele>
        <time>2021-04-13T11:11:33Z</time>
      </trkpt>
      <trkpt lat="45.03497" lon="3.63793">
        <ele>1103</ele>
        <time>2021-04-13T11:11:34Z</time>
      </trkpt>
      <trkpt lat="45.03498" lon="3.6378">
        <ele>1102</ele>
        <time>2021-04-13T11:11:35Z</time>
      </trkpt>
      <trkpt lat="45.03499" lon="3.63768">
        <ele>1102</ele>
        <time>2021-04-13T11:11:36Z</time>
      </trkpt>
      <trkpt lat="45.03498" lon="3.63718">
        <ele>1097</ele>
        <time>2021-04-13T11:11:40Z</time>
      </trkpt>
      <trkpt lat="45.03495" lon="3.63692">
        <ele>1096</ele>
        <time>2021-04-13T11:11:41Z</time>
      </trkpt>
      <trkpt lat="45.03494" lon="3.63679">
        <ele>1095</ele>
        <time>2021-04-13T11:11:42Z</time>
      </trkpt>
      <trkpt lat="45.03493" lon="3.63668">
        <ele>1093</ele>
        <time>2021-04-13T11:11:44Z</time>
      </trkpt>
      <trkpt lat="45.03492" lon="3.63657">
        <ele>1092</ele>
        <time>2021-04-13T11:11:45Z</time>
      </trkpt>
      <trkpt lat="45.03492" lon="3.63646">
        <ele>1091</ele>
        <time>2021-04-13T11:11:46Z</time>
      </trkpt>
      <trkpt lat="45.03485" lon="3.63636">
        <ele>1056.7</ele>
      </trkpt>
      <trkpt lat="45.03481" lon="3.63641">
        <ele>1064</ele>
        <time>2021-04-13T11:26:57Z</time>
      </trkpt>
      <trkpt lat="45.0348" lon="3.63647">
        <ele>1064</ele>
        <time>2021-04-13T11:27:02Z</time>
      </trkpt>
      <trkpt lat="45.03477" lon="3.63658">
        <ele>1065</ele>
        <time>2021-04-13T11:27:48Z</time>
      </trkpt>
      <trkpt lat="45.03476" lon="3.63667">
        <ele>1065</ele>
        <time>2021-04-13T11:27:49Z</time>
      </trkpt>
      <trkpt lat="45.03476" lon="3.63673">
        <ele>1065</ele>
        <time>2021-04-13T11:27:51Z</time>
      </trkpt>
      <trkpt lat="45.03475" lon="3.6368">
        <ele>1065</ele>
        <time>2021-04-13T11:27:52Z</time>
      </trkpt>
      <trkpt lat="45.03474" lon="3.63688">
        <ele>1064</ele>
        <time>2021-04-13T11:27:53Z</time>
      </trkpt>
      <trkpt lat="45.03472" lon="3.63696">
        <ele>1064</ele>
        <time>2021-04-13T11:27:54Z</time>
      </trkpt>
      <trkpt lat="45.0347" lon="3.63706">
        <ele>1064</ele>
        <time>2021-04-13T11:27:55Z</time>
      </trkpt>
      <trkpt lat="45.03454" lon="3.63753">
        <ele>1062</ele>
        <time>2021-04-13T11:28:00Z</time>
      </trkpt>
      <trkpt lat="45.0345" lon="3.63762">
        <ele>1062</ele>
        <time>2021-04-13T11:28:01Z</time>
      </trkpt>
      <trkpt lat="45.03446" lon="3.63771">
        <ele>1062</ele>
        <time>2021-04-13T11:28:02Z</time>
      </trkpt>
      <trkpt lat="45.03442" lon="3.6378">
        <ele>1061</ele>
        <time>2021-04-13T11:28:03Z</time>
      </trkpt>
      <trkpt lat="45.03438" lon="3.63789">
        <ele>1061</ele>
        <time>2021-04-13T11:28:04Z</time>
      </trkpt>
      <trkpt lat="45.03433" lon="3.63799">
        <ele>1060</ele>
        <time>2021-04-13T11:28:05Z</time>
      </trkpt>
      <trkpt lat="45.03429" lon="3.63808">
        <ele>1060</ele>
        <time>2021-04-13T11:28:06Z</time>
      </trkpt>
      <trkpt lat="45.03424" lon="3.63818">
        <ele>1059</ele>
        <time>2021-04-13T11:28:07Z</time>
      </trkpt>
      <trkpt lat="45.03405" lon="3.63856">
        <ele>1058</ele>
        <time>2021-04-13T11:28:10Z</time>
      </trkpt>
      <trkpt lat="45.03401" lon="3.63866">
        <ele>1058</ele>
        <time>2021-04-13T11:28:12Z</time>
      </trkpt>
      <trkpt lat="45.03397" lon="3.63876">
        <ele>1057</ele>
        <time>2021-04-13T11:28:13Z</time>
      </trkpt>
      <trkpt lat="45.03393" lon="3.63886">
        <ele>1057</ele>
        <time>2021-04-13T11:28:14Z</time>
      </trkpt>
      <trkpt lat="45.0339" lon="3.63896">
        <ele>1057</ele>
        <time>2021-04-13T11:28:15Z</time>
      </trkpt>
      <trkpt lat="45.03387" lon="3.63904">
        <ele>1056</ele>
        <time>2021-04-13T11:28:16Z</time>
      </trkpt>
      <trkpt lat="45.03383" lon="3.63911">
        <ele>1056</ele>
        <time>2021-04-13T11:28:17Z</time>
      </trkpt>
      <trkpt lat="45.03379" lon="3.63914">
        <ele>1055</ele>
        <time>2021-04-13T11:28:18Z</time>
      </trkpt>
      <trkpt lat="45.03363" lon="3.63905">
        <ele>1054</ele>
        <time>2021-04-13T11:28:22Z</time>
      </trkpt>
      <trkpt lat="45.03359" lon="3.63899">
        <ele>1054</ele>
        <time>2021-04-13T11:28:23Z</time>
      </trkpt>
      <trkpt lat="45.03355" lon="3.63894">
        <ele>1054</ele>
        <time>2021-04-13T11:28:24Z</time>
      </trkpt>
      <trkpt lat="45.03351" lon="3.6389">
        <ele>1054</ele>
        <time>2021-04-13T11:28:25Z</time>
      </trkpt>
      <trkpt lat="45.03348" lon="3.63886">
        <ele>1054</ele>
        <time>2021-04-13T11:28:26Z</time>
      </trkpt>
      <trkpt lat="45.03343" lon="3.63876">
        <ele>1053</ele>
        <time>2021-04-13T11:28:29Z</time>
      </trkpt>
      <trkpt lat="45.03342" lon="3.63873">
        <ele>1053</ele>
        <time>2021-04-13T11:28:30Z</time>
      </trkpt>
      <trkpt lat="45.03341" lon="3.6387">
        <ele>1053</ele>
        <time>2021-04-13T11:28:32Z</time>
      </trkpt>
      <trkpt lat="45.03343" lon="3.63875">
        <ele>1054</ele>
        <time>2021-04-13T11:28:38Z</time>
      </trkpt>
      <trkpt lat="45.03344" lon="3.63878">
        <ele>1053</ele>
        <time>2021-04-13T11:28:40Z</time>
      </trkpt>
      <trkpt lat="45.03345" lon="3.63881">
        <ele>1053</ele>
        <time>2021-04-13T11:28:42Z</time>
      </trkpt>
      <trkpt lat="45.03345" lon="3.63885">
        <ele>1054</ele>
        <time>2021-04-13T11:28:46Z</time>
      </trkpt>
      <trkpt lat="45.03345" lon="3.63885">
        <ele>1054</ele>
        <time>2021-04-13T11:28:50Z</time>
      </trkpt>
      <trkpt lat="45.03341" lon="3.6388">
        <ele>1052</ele>
        <time>2021-04-13T11:29:39Z</time>
      </trkpt>
      <trkpt lat="45.0334" lon="3.63879">
        <ele>1052</ele>
        <time>2021-04-13T11:29:40Z</time>
      </trkpt>
      <trkpt lat="45.03339" lon="3.63876">
        <ele>1052</ele>
        <time>2021-04-13T11:29:42Z</time>
      </trkpt>
      <trkpt lat="45.03334" lon="3.63841">
        <ele>1052</ele>
        <time>2021-04-13T11:29:54Z</time>
      </trkpt>
      <trkpt lat="45.03333" lon="3.63833">
        <ele>1051</ele>
        <time>2021-04-13T11:29:55Z</time>
      </trkpt>
      <trkpt lat="45.03332" lon="3.63825">
        <ele>1051</ele>
        <time>2021-04-13T11:29:56Z</time>
      </trkpt>
      <trkpt lat="45.03331" lon="3.63818">
        <ele>1051</ele>
        <time>2021-04-13T11:29:57Z</time>
      </trkpt>
      <trkpt lat="45.0333" lon="3.63811">
        <ele>1051</ele>
        <time>2021-04-13T11:29:58Z</time>
      </trkpt>
      <trkpt lat="45.03329" lon="3.63804">
        <ele>1050</ele>
        <time>2021-04-13T11:29:59Z</time>
      </trkpt>
      <trkpt lat="45.03327" lon="3.63797">
        <ele>1050</ele>
        <time>2021-04-13T11:30:00Z</time>
      </trkpt>
      <trkpt lat="45.03326" lon="3.63792">
        <ele>1050</ele>
        <time>2021-04-13T11:30:01Z</time>
      </trkpt>
      <trkpt lat="45.03322" lon="3.63782">
        <ele>1050</ele>
        <time>2021-04-13T11:30:03Z</time>
      </trkpt>
      <trkpt lat="45.0332" lon="3.63777">
        <ele>1050</ele>
        <time>2021-04-13T11:30:04Z</time>
      </trkpt>
      <trkpt lat="45.03316" lon="3.63772">
        <ele>1050</ele>
        <time>2021-04-13T11:30:05Z</time>
      </trkpt>
      <trkpt lat="45.03311" lon="3.63768">
        <ele>1050</ele>
        <time>2021-04-13T11:30:06Z</time>
      </trkpt>
      <trkpt lat="45.03301" lon="3.63764">
        <ele>1050</ele>
        <time>2021-04-13T11:30:08Z</time>
      </trkpt>
      <trkpt lat="45.03291" lon="3.63759">
        <ele>1050</ele>
        <time>2021-04-13T11:30:10Z</time>
      </trkpt>
      <trkpt lat="45.03281" lon="3.63753">
        <ele>1050</ele>
        <time>2021-04-13T11:30:11Z</time>
      </trkpt>
      <trkpt lat="45.03272" lon="3.63746">
        <ele>1050</ele>
        <time>2021-04-13T11:30:14Z</time>
      </trkpt>
      <trkpt lat="45.03222" lon="3.6373">
        <ele>1051</ele>
        <time>2021-04-13T11:30:25Z</time>
      </trkpt>
      <trkpt lat="45.03214" lon="3.63731">
        <ele>1051</ele>
        <time>2021-04-13T11:30:27Z</time>
      </trkpt>
      <trkpt lat="45.03209" lon="3.63732">
        <ele>1051</ele>
        <time>2021-04-13T11:30:28Z</time>
      </trkpt>
      <trkpt lat="45.03205" lon="3.63734">
        <ele>1051</ele>
        <time>2021-04-13T11:30:29Z</time>
      </trkpt>
      <trkpt lat="45.03196" lon="3.63737">
        <ele>1051</ele>
        <time>2021-04-13T11:30:30Z</time>
      </trkpt>
      <trkpt lat="45.03191" lon="3.63739">
        <ele>1052</ele>
        <time>2021-04-13T11:30:32Z</time>
      </trkpt>
      <trkpt lat="45.03186" lon="3.63742">
        <ele>1052</ele>
        <time>2021-04-13T11:30:33Z</time>
      </trkpt>
      <trkpt lat="45.03181" lon="3.63744">
        <ele>1052</ele>
        <time>2021-04-13T11:30:34Z</time>
      </trkpt>
      <trkpt lat="45.03171" lon="3.63749">
        <ele>1053</ele>
        <time>2021-04-13T11:30:36Z</time>
      </trkpt>
      <trkpt lat="45.0316" lon="3.63754">
        <ele>1053</ele>
        <time>2021-04-13T11:30:37Z</time>
      </trkpt>
      <trkpt lat="45.03155" lon="3.63756">
        <ele>1053</ele>
        <time>2021-04-13T11:30:39Z</time>
      </trkpt>
      <trkpt lat="45.03149" lon="3.63758">
        <ele>1054</ele>
        <time>2021-04-13T11:30:40Z</time>
      </trkpt>
      <trkpt lat="45.03145" lon="3.6376">
        <ele>1054</ele>
        <time>2021-04-13T11:30:41Z</time>
      </trkpt>
      <trkpt lat="45.0314" lon="3.63762">
        <ele>1055</ele>
        <time>2021-04-13T11:30:42Z</time>
      </trkpt>
      <trkpt lat="45.03135" lon="3.63764">
        <ele>1055</ele>
        <time>2021-04-13T11:30:43Z</time>
      </trkpt>
      <trkpt lat="45.03131" lon="3.63766">
        <ele>1055</ele>
        <time>2021-04-13T11:30:44Z</time>
      </trkpt>
      <trkpt lat="45.03098" lon="3.63778">
        <ele>1057</ele>
        <time>2021-04-13T11:30:51Z</time>
      </trkpt>
      <trkpt lat="45.03093" lon="3.63778">
        <ele>1058</ele>
        <time>2021-04-13T11:30:52Z</time>
      </trkpt>
      <trkpt lat="45.03088" lon="3.63778">
        <ele>1059</ele>
        <time>2021-04-13T11:30:53Z</time>
      </trkpt>
      <trkpt lat="45.03083" lon="3.63778">
        <ele>1059</ele>
        <time>2021-04-13T11:30:54Z</time>
      </trkpt>
      <trkpt lat="45.03079" lon="3.63779">
        <ele>1060</ele>
        <time>2021-04-13T11:30:55Z</time>
      </trkpt>
      <trkpt lat="45.03074" lon="3.63779">
        <ele>1060</ele>
        <time>2021-04-13T11:30:56Z</time>
      </trkpt>
      <trkpt lat="45.0307" lon="3.63779">
        <ele>1061</ele>
        <time>2021-04-13T11:30:57Z</time>
      </trkpt>
      <trkpt lat="45.03066" lon="3.6378">
        <ele>1061</ele>
        <time>2021-04-13T11:30:58Z</time>
      </trkpt>
      <trkpt lat="45.03057" lon="3.6378">
        <ele>1062</ele>
        <time>2021-04-13T11:31:00Z</time>
      </trkpt>
      <trkpt lat="45.03053" lon="3.6378">
        <ele>1062</ele>
        <time>2021-04-13T11:31:01Z</time>
      </trkpt>
      <trkpt lat="45.0305" lon="3.63779">
        <ele>1062</ele>
        <time>2021-04-13T11:31:02Z</time>
      </trkpt>
      <trkpt lat="45.03048" lon="3.63776">
        <ele>1063</ele>
        <time>2021-04-13T11:31:03Z</time>
      </trkpt>
      <trkpt lat="45.03046" lon="3.63772">
        <ele>1063</ele>
        <time>2021-04-13T11:31:04Z</time>
      </trkpt>
      <trkpt lat="45.03044" lon="3.63768">
        <ele>1063</ele>
        <time>2021-04-13T11:31:05Z</time>
      </trkpt>
      <trkpt lat="45.03041" lon="3.63763">
        <ele>1064</ele>
        <time>2021-04-13T11:31:06Z</time>
      </trkpt>
      <trkpt lat="45.03038" lon="3.63758">
        <ele>1064</ele>
        <time>2021-04-13T11:31:07Z</time>
      </trkpt>
      <trkpt lat="45.0302" lon="3.63731">
        <ele>1065</ele>
        <time>2021-04-13T11:31:12Z</time>
      </trkpt>
      <trkpt lat="45.03017" lon="3.63726">
        <ele>1065</ele>
        <time>2021-04-13T11:31:13Z</time>
      </trkpt>
      <trkpt lat="45.03014" lon="3.6372">
        <ele>1065</ele>
        <time>2021-04-13T11:31:14Z</time>
      </trkpt>
      <trkpt lat="45.03012" lon="3.63714">
        <ele>1065</ele>
        <time>2021-04-13T11:31:15Z</time>
      </trkpt>
      <trkpt lat="45.03011" lon="3.63709">
        <ele>1065</ele>
        <time>2021-04-13T11:31:16Z</time>
      </trkpt>
      <trkpt lat="45.0301" lon="3.63703">
        <ele>1065</ele>
        <time>2021-04-13T11:31:17Z</time>
      </trkpt>
      <trkpt lat="45.03009" lon="3.63696">
        <ele>1065</ele>
        <time>2021-04-13T11:31:18Z</time>
      </trkpt>
      <trkpt lat="45.0301" lon="3.63689">
        <ele>1065</ele>
        <time>2021-04-13T11:31:19Z</time>
      </trkpt>
      <trkpt lat="45.03014" lon="3.63675">
        <ele>1065</ele>
        <time>2021-04-13T11:31:21Z</time>
      </trkpt>
      <trkpt lat="45.03018" lon="3.63669">
        <ele>1065</ele>
        <time>2021-04-13T11:31:22Z</time>
      </trkpt>
      <trkpt lat="45.03021" lon="3.63662">
        <ele>1065</ele>
        <time>2021-04-13T11:31:23Z</time>
      </trkpt>
      <trkpt lat="45.03022" lon="3.63654">
        <ele>1065</ele>
        <time>2021-04-13T11:31:24Z</time>
      </trkpt>
      <trkpt lat="45.03022" lon="3.63646">
        <ele>1065</ele>
        <time>2021-04-13T11:31:25Z</time>
      </trkpt>
      <trkpt lat="45.03022" lon="3.63638">
        <ele>1065</ele>
        <time>2021-04-13T11:31:26Z</time>
      </trkpt>
      <trkpt lat="45.03021" lon="3.63622">
        <ele>1065</ele>
        <time>2021-04-13T11:31:27Z</time>
      </trkpt>
      <trkpt lat="45.03021" lon="3.63613">
        <ele>1065</ele>
        <time>2021-04-13T11:31:28Z</time>
      </trkpt>
      <trkpt lat="45.0302" lon="3.63575">
        <ele>1063</ele>
        <time>2021-04-13T11:31:33Z</time>
      </trkpt>
      <trkpt lat="45.03017" lon="3.63566">
        <ele>1063</ele>
        <time>2021-04-13T11:31:34Z</time>
      </trkpt>
      <trkpt lat="45.03015" lon="3.63559">
        <ele>1063</ele>
        <time>2021-04-13T11:31:35Z</time>
      </trkpt>
      <trkpt lat="45.03011" lon="3.63552">
        <ele>1063</ele>
        <time>2021-04-13T11:31:36Z</time>
      </trkpt>
      <trkpt lat="45.03007" lon="3.63546">
        <ele>1062</ele>
        <time>2021-04-13T11:31:37Z</time>
      </trkpt>
      <trkpt lat="45.03002" lon="3.6354">
        <ele>1062</ele>
        <time>2021-04-13T11:31:38Z</time>
      </trkpt>
      <trkpt lat="45.02997" lon="3.63534">
        <ele>1061</ele>
        <time>2021-04-13T11:31:39Z</time>
      </trkpt>
      <trkpt lat="45.02991" lon="3.63528">
        <ele>1060</ele>
        <time>2021-04-13T11:31:40Z</time>
      </trkpt>
      <trkpt lat="45.02977" lon="3.63518">
        <ele>1058</ele>
        <time>2021-04-13T11:31:42Z</time>
      </trkpt>
      <trkpt lat="45.02962" lon="3.63506">
        <ele>1057</ele>
        <time>2021-04-13T11:31:43Z</time>
      </trkpt>
      <trkpt lat="45.02954" lon="3.63499">
        <ele>1055</ele>
        <time>2021-04-13T11:31:45Z</time>
      </trkpt>
      <trkpt lat="45.02941" lon="3.63487">
        <ele>1054</ele>
        <time>2021-04-13T11:31:46Z</time>
      </trkpt>
      <trkpt lat="45.02936" lon="3.63482">
        <ele>1054</ele>
        <time>2021-04-13T11:31:48Z</time>
      </trkpt>
      <trkpt lat="45.02933" lon="3.63478">
        <ele>1053</ele>
        <time>2021-04-13T11:31:49Z</time>
      </trkpt>
      <trkpt lat="45.02933" lon="3.6347">
        <ele>1053</ele>
        <time>2021-04-13T11:31:50Z</time>
      </trkpt>
      <trkpt lat="45.02936" lon="3.63466">
        <ele>1053</ele>
        <time>2021-04-13T11:31:52Z</time>
      </trkpt>
      <trkpt lat="45.02944" lon="3.63445">
        <ele>1052</ele>
        <time>2021-04-13T11:31:56Z</time>
      </trkpt>
      <trkpt lat="45.02945" lon="3.63438">
        <ele>1052</ele>
        <time>2021-04-13T11:31:57Z</time>
      </trkpt>
      <trkpt lat="45.02946" lon="3.63432">
        <ele>1052</ele>
        <time>2021-04-13T11:31:58Z</time>
      </trkpt>
      <trkpt lat="45.02947" lon="3.63426">
        <ele>1051</ele>
        <time>2021-04-13T11:31:59Z</time>
      </trkpt>
      <trkpt lat="45.02948" lon="3.6342">
        <ele>1051</ele>
        <time>2021-04-13T11:32:00Z</time>
      </trkpt>
      <trkpt lat="45.02948" lon="3.63412">
        <ele>1050</ele>
        <time>2021-04-13T11:32:01Z</time>
      </trkpt>
      <trkpt lat="45.02947" lon="3.63404">
        <ele>1050</ele>
        <time>2021-04-13T11:32:02Z</time>
      </trkpt>
      <trkpt lat="45.02946" lon="3.63396">
        <ele>1050</ele>
        <time>2021-04-13T11:32:03Z</time>
      </trkpt>
      <trkpt lat="45.02945" lon="3.6338">
        <ele>1049</ele>
        <time>2021-04-13T11:32:05Z</time>
      </trkpt>
      <trkpt lat="45.02945" lon="3.63375">
        <ele>1049</ele>
        <time>2021-04-13T11:32:07Z</time>
      </trkpt>
      <trkpt lat="45.02946" lon="3.63371">
        <ele>1048</ele>
        <time>2021-04-13T11:32:08Z</time>
      </trkpt>
      <trkpt lat="45.02954" lon="3.6336">
        <ele>1047</ele>
        <time>2021-04-13T11:32:11Z</time>
      </trkpt>
      <trkpt lat="45.02952" lon="3.63343">
        <ele>1045</ele>
        <time>2021-04-13T11:32:14Z</time>
      </trkpt>
      <trkpt lat="45.02947" lon="3.63331">
        <ele>1044</ele>
        <time>2021-04-13T11:32:16Z</time>
      </trkpt>
      <trkpt lat="45.02942" lon="3.63315">
        <ele>1043</ele>
        <time>2021-04-13T11:32:18Z</time>
      </trkpt>
      <trkpt lat="45.02948" lon="3.63304">
        <ele>1040</ele>
        <time>2021-04-13T11:32:20Z</time>
      </trkpt>
      <trkpt lat="45.02981" lon="3.63309">
        <ele>1033</ele>
        <time>2021-04-13T11:32:26Z</time>
      </trkpt>
      <trkpt lat="45.02986" lon="3.63311">
        <ele>1032</ele>
        <time>2021-04-13T11:32:27Z</time>
      </trkpt>
      <trkpt lat="45.02991" lon="3.63315">
        <ele>1030</ele>
        <time>2021-04-13T11:32:29Z</time>
      </trkpt>
      <trkpt lat="45.02994" lon="3.63314">
        <ele>1028</ele>
        <time>2021-04-13T11:32:31Z</time>
      </trkpt>
      <trkpt lat="45.02996" lon="3.63312">
        <ele>1028</ele>
        <time>2021-04-13T11:32:32Z</time>
      </trkpt>
      <trkpt lat="45.02996" lon="3.63307">
        <ele>1027</ele>
        <time>2021-04-13T11:32:33Z</time>
      </trkpt>
      <trkpt lat="45.02997" lon="3.63301">
        <ele>1027</ele>
        <time>2021-04-13T11:32:34Z</time>
      </trkpt>
      <trkpt lat="45.02996" lon="3.63296">
        <ele>1027</ele>
        <time>2021-04-13T11:32:35Z</time>
      </trkpt>
      <trkpt lat="45.02992" lon="3.63277">
        <ele>1026</ele>
        <time>2021-04-13T11:32:38Z</time>
      </trkpt>
      <trkpt lat="45.0299" lon="3.63271">
        <ele>1025</ele>
        <time>2021-04-13T11:32:39Z</time>
      </trkpt>
      <trkpt lat="45.02988" lon="3.63267">
        <ele>1024</ele>
        <time>2021-04-13T11:32:40Z</time>
      </trkpt>
      <trkpt lat="45.02987" lon="3.63265">
        <ele>1023</ele>
        <time>2021-04-13T11:32:41Z</time>
      </trkpt>
      <trkpt lat="45.02983" lon="3.63254">
        <ele>1017</ele>
        <time>2021-04-13T11:36:01Z</time>
      </trkpt>
      <trkpt lat="45.0298" lon="3.63244">
        <ele>1017</ele>
        <time>2021-04-13T11:36:02Z</time>
      </trkpt>
      <trkpt lat="45.02978" lon="3.63238">
        <ele>1016</ele>
        <time>2021-04-13T11:36:04Z</time>
      </trkpt>
      <trkpt lat="45.02974" lon="3.63233">
        <ele>1016</ele>
        <time>2021-04-13T11:36:05Z</time>
      </trkpt>
      <trkpt lat="45.02952" lon="3.63225">
        <ele>1015</ele>
        <time>2021-04-13T11:36:09Z</time>
      </trkpt>
      <trkpt lat="45.02946" lon="3.63225">
        <ele>1014</ele>
        <time>2021-04-13T11:36:10Z</time>
      </trkpt>
      <trkpt lat="45.0294" lon="3.63224">
        <ele>1014</ele>
        <time>2021-04-13T11:36:11Z</time>
      </trkpt>
      <trkpt lat="45.02935" lon="3.63224">
        <ele>1014</ele>
        <time>2021-04-13T11:36:12Z</time>
      </trkpt>
      <trkpt lat="45.0293" lon="3.63222">
        <ele>1013</ele>
        <time>2021-04-13T11:36:13Z</time>
      </trkpt>
      <trkpt lat="45.02924" lon="3.63219">
        <ele>1013</ele>
        <time>2021-04-13T11:36:14Z</time>
      </trkpt>
      <trkpt lat="45.02912" lon="3.63215">
        <ele>1012</ele>
        <time>2021-04-13T11:36:15Z</time>
      </trkpt>
      <trkpt lat="45.02903" lon="3.63216">
        <ele>1012</ele>
        <time>2021-04-13T11:36:17Z</time>
      </trkpt>
      <trkpt lat="45.02884" lon="3.63233">
        <ele>1010</ele>
        <time>2021-04-13T11:36:24Z</time>
      </trkpt>
      <trkpt lat="45.02875" lon="3.63241">
        <ele>1009</ele>
        <time>2021-04-13T11:36:27Z</time>
      </trkpt>
      <trkpt lat="45.02864" lon="3.6325">
        <ele>1007</ele>
        <time>2021-04-13T11:36:30Z</time>
      </trkpt>
      <trkpt lat="45.02851" lon="3.63257">
        <ele>1006</ele>
        <time>2021-04-13T11:36:33Z</time>
      </trkpt>
      <trkpt lat="45.02838" lon="3.63265">
        <ele>1005</ele>
        <time>2021-04-13T11:36:35Z</time>
      </trkpt>
      <trkpt lat="45.02826" lon="3.63261">
        <ele>1004</ele>
        <time>2021-04-13T11:36:37Z</time>
      </trkpt>
      <trkpt lat="45.02802" lon="3.63244">
        <ele>1002</ele>
        <time>2021-04-13T11:36:40Z</time>
      </trkpt>
      <trkpt lat="45.02788" lon="3.63232">
        <ele>1000</ele>
        <time>2021-04-13T11:36:43Z</time>
      </trkpt>
      <trkpt lat="45.02743" lon="3.63196">
        <ele>994</ele>
        <time>2021-04-13T11:36:51Z</time>
      </trkpt>
      <trkpt lat="45.02731" lon="3.63191">
        <ele>992</ele>
        <time>2021-04-13T11:36:53Z</time>
      </trkpt>
      <trkpt lat="45.02722" lon="3.63181">
        <ele>990</ele>
        <time>2021-04-13T11:36:56Z</time>
      </trkpt>
      <trkpt lat="45.02713" lon="3.63172">
        <ele>988</ele>
        <time>2021-04-13T11:36:59Z</time>
      </trkpt>
      <trkpt lat="45.02704" lon="3.63162">
        <ele>987</ele>
        <time>2021-04-13T11:37:01Z</time>
      </trkpt>
      <trkpt lat="45.02695" lon="3.63148">
        <ele>984</ele>
        <time>2021-04-13T11:37:03Z</time>
      </trkpt>
      <trkpt lat="45.0269" lon="3.63135">
        <ele>983</ele>
        <time>2021-04-13T11:37:05Z</time>
      </trkpt>
      <trkpt lat="45.02684" lon="3.63123">
        <ele>980</ele>
        <time>2021-04-13T11:37:07Z</time>
      </trkpt>
      <trkpt lat="45.02668" lon="3.63094">
        <ele>976</ele>
        <time>2021-04-13T11:37:11Z</time>
      </trkpt>
      <trkpt lat="45.02662" lon="3.6308">
        <ele>974</ele>
        <time>2021-04-13T11:37:13Z</time>
      </trkpt>
      <trkpt lat="45.02655" lon="3.63067">
        <ele>971</ele>
        <time>2021-04-13T11:37:15Z</time>
      </trkpt>
      <trkpt lat="45.02646" lon="3.63055">
        <ele>969</ele>
        <time>2021-04-13T11:37:17Z</time>
      </trkpt>
      <trkpt lat="45.02636" lon="3.6304">
        <ele>967</ele>
        <time>2021-04-13T11:37:18Z</time>
      </trkpt>
      <trkpt lat="45.02627" lon="3.63029">
        <ele>962</ele>
        <time>2021-04-13T11:37:22Z</time>
      </trkpt>
      <trkpt lat="45.02619" lon="3.63019">
        <ele>956</ele>
        <time>2021-04-13T11:37:25Z</time>
      </trkpt>
      <trkpt lat="45.0261" lon="3.63013">
        <ele>951</ele>
        <time>2021-04-13T11:37:27Z</time>
      </trkpt>
      <trkpt lat="45.02574" lon="3.62978">
        <ele>935</ele>
        <time>2021-04-13T11:37:36Z</time>
      </trkpt>
      <trkpt lat="45.02566" lon="3.6297">
        <ele>934</ele>
        <time>2021-04-13T11:37:37Z</time>
      </trkpt>
      <trkpt lat="45.02556" lon="3.62961">
        <ele>931</ele>
        <time>2021-04-13T11:37:40Z</time>
      </trkpt>
      <trkpt lat="45.02546" lon="3.62953">
        <ele>929</ele>
        <time>2021-04-13T11:37:42Z</time>
      </trkpt>
      <trkpt lat="45.02537" lon="3.62947">
        <ele>926</ele>
        <time>2021-04-13T11:37:44Z</time>
      </trkpt>
      <trkpt lat="45.02525" lon="3.6294">
        <ele>924</ele>
        <time>2021-04-13T11:37:46Z</time>
      </trkpt>
      <trkpt lat="45.02513" lon="3.62927">
        <ele>922</ele>
        <time>2021-04-13T11:37:48Z</time>
      </trkpt>
      <trkpt lat="45.02502" lon="3.62911">
        <ele>918</ele>
        <time>2021-04-13T11:37:50Z</time>
      </trkpt>
      <trkpt lat="45.02484" lon="3.62894">
        <ele>911</ele>
        <time>2021-04-13T11:37:54Z</time>
      </trkpt>
      <trkpt lat="45.02477" lon="3.62884">
        <ele>909</ele>
        <time>2021-04-13T11:37:56Z</time>
      </trkpt>
      <trkpt lat="45.02471" lon="3.62874">
        <ele>906</ele>
        <time>2021-04-13T11:37:58Z</time>
      </trkpt>
      <trkpt lat="45.02466" lon="3.62861">
        <ele>901</ele>
        <time>2021-04-13T11:38:01Z</time>
      </trkpt>
      <trkpt lat="45.02465" lon="3.62845">
        <ele>898</ele>
        <time>2021-04-13T11:38:03Z</time>
      </trkpt>
      <trkpt lat="45.02465" lon="3.62829">
        <ele>897</ele>
        <time>2021-04-13T11:38:05Z</time>
      </trkpt>
      <trkpt lat="45.02466" lon="3.62811">
        <ele>895</ele>
        <time>2021-04-13T11:38:07Z</time>
      </trkpt>
      <trkpt lat="45.02462" lon="3.62795">
        <ele>893</ele>
        <time>2021-04-13T11:38:09Z</time>
      </trkpt>
      <trkpt lat="45.02424" lon="3.62804">
        <ele>881</ele>
        <time>2021-04-13T11:38:19Z</time>
      </trkpt>
      <trkpt lat="45.02414" lon="3.62819">
        <ele>879</ele>
        <time>2021-04-13T11:38:22Z</time>
      </trkpt>
      <trkpt lat="45.02407" lon="3.62832">
        <ele>875</ele>
        <time>2021-04-13T11:38:25Z</time>
      </trkpt>
      <trkpt lat="45.024" lon="3.62845">
        <ele>872</ele>
        <time>2021-04-13T11:38:27Z</time>
      </trkpt>
      <trkpt lat="45.02391" lon="3.62868">
        <ele>869</ele>
        <time>2021-04-13T11:38:29Z</time>
      </trkpt>
      <trkpt lat="45.02389" lon="3.62877">
        <ele>867</ele>
        <time>2021-04-13T11:38:31Z</time>
      </trkpt>
      <trkpt lat="45.02386" lon="3.62885">
        <ele>866</ele>
        <time>2021-04-13T11:38:32Z</time>
      </trkpt>
      <trkpt lat="45.02383" lon="3.6289">
        <ele>865</ele>
        <time>2021-04-13T11:38:33Z</time>
      </trkpt>
      <trkpt lat="45.02372" lon="3.62882">
        <ele>862</ele>
        <time>2021-04-13T11:38:36Z</time>
      </trkpt>
      <trkpt lat="45.0237" lon="3.62874">
        <ele>862</ele>
        <time>2021-04-13T11:38:37Z</time>
      </trkpt>
      <trkpt lat="45.02367" lon="3.62855">
        <ele>859</ele>
        <time>2021-04-13T11:38:39Z</time>
      </trkpt>
      <trkpt lat="45.02363" lon="3.62838">
        <ele>858</ele>
        <time>2021-04-13T11:38:41Z</time>
      </trkpt>
      <trkpt lat="45.02358" lon="3.62824">
        <ele>856</ele>
        <time>2021-04-13T11:38:43Z</time>
      </trkpt>
      <trkpt lat="45.02352" lon="3.62809">
        <ele>855</ele>
        <time>2021-04-13T11:38:45Z</time>
      </trkpt>
      <trkpt lat="45.02347" lon="3.62793">
        <ele>852</ele>
        <time>2021-04-13T11:38:47Z</time>
      </trkpt>
      <trkpt lat="45.02345" lon="3.62775">
        <ele>849</ele>
        <time>2021-04-13T11:38:49Z</time>
      </trkpt>
      <trkpt lat="45.02336" lon="3.62714">
        <ele>841</ele>
        <time>2021-04-13T11:38:56Z</time>
      </trkpt>
      <trkpt lat="45.0233" lon="3.62702">
        <ele>837</ele>
        <time>2021-04-13T11:38:59Z</time>
      </trkpt>
      <trkpt lat="45.02326" lon="3.62704">
        <ele>835</ele>
        <time>2021-04-13T11:39:00Z</time>
      </trkpt>
      <trkpt lat="45.02317" lon="3.62714">
        <ele>834</ele>
        <time>2021-04-13T11:39:02Z</time>
      </trkpt>
      <trkpt lat="45.02308" lon="3.62725">
        <ele>831</ele>
        <time>2021-04-13T11:39:04Z</time>
      </trkpt>
      <trkpt lat="45.023" lon="3.6271">
        <ele>828</ele>
        <time>2021-04-13T11:39:07Z</time>
      </trkpt>
      <trkpt lat="45.023" lon="3.62693">
        <ele>827</ele>
        <time>2021-04-13T11:39:09Z</time>
      </trkpt>
      <trkpt lat="45.02301" lon="3.62684">
        <ele>826</ele>
        <time>2021-04-13T11:39:10Z</time>
      </trkpt>
      <trkpt lat="45.02302" lon="3.62657">
        <ele>823</ele>
        <time>2021-04-13T11:39:12Z</time>
      </trkpt>
      <trkpt lat="45.02301" lon="3.62649">
        <ele>822</ele>
        <time>2021-04-13T11:39:13Z</time>
      </trkpt>
      <trkpt lat="45.02299" lon="3.62641">
        <ele>820</ele>
        <time>2021-04-13T11:39:15Z</time>
      </trkpt>
      <trkpt lat="45.02297" lon="3.62634">
        <ele>819</ele>
        <time>2021-04-13T11:39:16Z</time>
      </trkpt>
      <trkpt lat="45.02297" lon="3.62627">
        <ele>818</ele>
        <time>2021-04-13T11:39:17Z</time>
      </trkpt>
      <trkpt lat="45.02298" lon="3.62618">
        <ele>816</ele>
        <time>2021-04-13T11:39:18Z</time>
      </trkpt>
      <trkpt lat="45.02298" lon="3.6261">
        <ele>815</ele>
        <time>2021-04-13T11:39:19Z</time>
      </trkpt>
      <trkpt lat="45.02298" lon="3.62601">
        <ele>813</ele>
        <time>2021-04-13T11:39:20Z</time>
      </trkpt>
      <trkpt lat="45.02296" lon="3.62566">
        <ele>810</ele>
        <time>2021-04-13T11:39:24Z</time>
      </trkpt>
      <trkpt lat="45.02295" lon="3.62556">
        <ele>809</ele>
        <time>2021-04-13T11:39:25Z</time>
      </trkpt>
      <trkpt lat="45.02298" lon="3.62536">
        <ele>808</ele>
        <time>2021-04-13T11:39:27Z</time>
      </trkpt>
      <trkpt lat="45.02299" lon="3.62526">
        <ele>808</ele>
        <time>2021-04-13T11:39:28Z</time>
      </trkpt>
      <trkpt lat="45.02303" lon="3.62506">
        <ele>807</ele>
        <time>2021-04-13T11:39:29Z</time>
      </trkpt>
      <trkpt lat="45.02307" lon="3.62488">
        <ele>806</ele>
        <time>2021-04-13T11:39:31Z</time>
      </trkpt>
      <trkpt lat="45.02311" lon="3.62471">
        <ele>804</ele>
        <time>2021-04-13T11:39:34Z</time>
      </trkpt>
      <trkpt lat="45.02311" lon="3.62456">
        <ele>803</ele>
        <time>2021-04-13T11:39:36Z</time>
      </trkpt>
      <trkpt lat="45.02296" lon="3.6243">
        <ele>796</ele>
        <time>2021-04-13T11:39:40Z</time>
      </trkpt>
      <trkpt lat="45.02287" lon="3.6242">
        <ele>793</ele>
        <time>2021-04-13T11:39:42Z</time>
      </trkpt>
      <trkpt lat="45.02278" lon="3.62409">
        <ele>791</ele>
        <time>2021-04-13T11:39:44Z</time>
      </trkpt>
      <trkpt lat="45.02272" lon="3.62399">
        <ele>790</ele>
        <time>2021-04-13T11:39:45Z</time>
      </trkpt>
      <trkpt lat="45.02271" lon="3.62395">
        <ele>789</ele>
        <time>2021-04-13T11:39:47Z</time>
      </trkpt>
      <trkpt lat="45.02271" lon="3.62392">
        <ele>788</ele>
        <time>2021-04-13T11:39:48Z</time>
      </trkpt>
      <trkpt lat="45.02271" lon="3.62389">
        <ele>787</ele>
        <time>2021-04-13T11:39:49Z</time>
      </trkpt>
      <trkpt lat="45.02273" lon="3.62385">
        <ele>786</ele>
        <time>2021-04-13T11:39:50Z</time>
      </trkpt>
      <trkpt lat="45.02277" lon="3.62373">
        <ele>783</ele>
        <time>2021-04-13T11:39:55Z</time>
      </trkpt>
      <trkpt lat="45.02277" lon="3.62369">
        <ele>782</ele>
        <time>2021-04-13T11:39:56Z</time>
      </trkpt>
      <trkpt lat="45.02275" lon="3.62359">
        <ele>780</ele>
        <time>2021-04-13T11:39:59Z</time>
      </trkpt>
      <trkpt lat="45.02269" lon="3.62346">
        <ele>776</ele>
        <time>2021-04-13T11:40:03Z</time>
      </trkpt>
      <trkpt lat="45.02268" lon="3.62344">
        <ele>775</ele>
        <time>2021-04-13T11:40:04Z</time>
      </trkpt>
      <trkpt lat="45.02266" lon="3.62342">
        <ele>774</ele>
        <time>2021-04-13T11:40:06Z</time>
      </trkpt>
      <trkpt lat="45.02263" lon="3.62341">
        <ele>773</ele>
        <time>2021-04-13T11:40:08Z</time>
      </trkpt>
      <trkpt lat="45.02261" lon="3.62343">
        <ele>772</ele>
        <time>2021-04-13T11:40:09Z</time>
      </trkpt>
      <trkpt lat="45.02258" lon="3.62351">
        <ele>770</ele>
        <time>2021-04-13T11:40:16Z</time>
      </trkpt>
      <trkpt lat="45.02256" lon="3.62354">
        <ele>770</ele>
        <time>2021-04-13T11:40:19Z</time>
      </trkpt>
      <trkpt lat="45.0225" lon="3.62366">
        <ele>769</ele>
        <time>2021-04-13T11:40:24Z</time>
      </trkpt>
      <trkpt lat="45.02245" lon="3.62373">
        <ele>768</ele>
        <time>2021-04-13T11:40:26Z</time>
      </trkpt>
      <trkpt lat="45.02241" lon="3.62376">
        <ele>768</ele>
        <time>2021-04-13T11:40:27Z</time>
      </trkpt>
      <trkpt lat="45.02234" lon="3.62383">
        <ele>768</ele>
        <time>2021-04-13T11:40:28Z</time>
      </trkpt>
      <trkpt lat="45.02228" lon="3.62388">
        <ele>767</ele>
        <time>2021-04-13T11:40:30Z</time>
      </trkpt>
      <trkpt lat="45.02226" lon="3.62389">
        <ele>766</ele>
        <time>2021-04-13T11:40:32Z</time>
      </trkpt>
      <trkpt lat="45.02218" lon="3.62394">
        <ele>764</ele>
        <time>2021-04-13T11:40:42Z</time>
      </trkpt>
      <trkpt lat="45.02218" lon="3.62395">
        <ele>764</ele>
        <time>2021-04-13T11:40:46Z</time>
      </trkpt>
      <trkpt lat="45.02217" lon="3.62399">
        <ele>761</ele>
        <time>2021-04-13T11:50:31Z</time>
      </trkpt>
      <trkpt lat="45.02214" lon="3.62404">
        <ele>761</ele>
        <time>2021-04-13T11:50:32Z</time>
      </trkpt>
      <trkpt lat="45.02212" lon="3.62407">
        <ele>761</ele>
        <time>2021-04-13T11:50:34Z</time>
      </trkpt>
      <trkpt lat="45.02209" lon="3.62411">
        <ele>761</ele>
        <time>2021-04-13T11:50:35Z</time>
      </trkpt>
      <trkpt lat="45.02206" lon="3.62416">
        <ele>761</ele>
        <time>2021-04-13T11:50:36Z</time>
      </trkpt>
      <trkpt lat="45.02202" lon="3.62421">
        <ele>761</ele>
        <time>2021-04-13T11:50:37Z</time>
      </trkpt>
      <trkpt lat="45.02195" lon="3.62433">
        <ele>761</ele>
        <time>2021-04-13T11:50:39Z</time>
      </trkpt>
      <trkpt lat="45.02191" lon="3.62439">
        <ele>761</ele>
        <time>2021-04-13T11:50:40Z</time>
      </trkpt>
      <trkpt lat="45.02184" lon="3.62452">
        <ele>760</ele>
        <time>2021-04-13T11:50:42Z</time>
      </trkpt>
      <trkpt lat="45.0218" lon="3.62459">
        <ele>760</ele>
        <time>2021-04-13T11:50:43Z</time>
      </trkpt>
      <trkpt lat="45.02176" lon="3.62466">
        <ele>760</ele>
        <time>2021-04-13T11:50:44Z</time>
      </trkpt>
      <trkpt lat="45.02172" lon="3.62474">
        <ele>760</ele>
        <time>2021-04-13T11:50:45Z</time>
      </trkpt>
      <trkpt lat="45.02168" lon="3.62482">
        <ele>759</ele>
        <time>2021-04-13T11:50:46Z</time>
      </trkpt>
      <trkpt lat="45.02165" lon="3.62491">
        <ele>759</ele>
        <time>2021-04-13T11:50:47Z</time>
      </trkpt>
      <trkpt lat="45.02151" lon="3.62554">
        <ele>756</ele>
        <time>2021-04-13T11:50:53Z</time>
      </trkpt>
      <trkpt lat="45.02147" lon="3.62578">
        <ele>756</ele>
        <time>2021-04-13T11:50:54Z</time>
      </trkpt>
      <trkpt lat="45.02146" lon="3.62591">
        <ele>754</ele>
        <time>2021-04-13T11:50:56Z</time>
      </trkpt>
      <trkpt lat="45.02144" lon="3.62604">
        <ele>754</ele>
        <time>2021-04-13T11:50:57Z</time>
      </trkpt>
      <trkpt lat="45.02142" lon="3.62617">
        <ele>753</ele>
        <time>2021-04-13T11:50:58Z</time>
      </trkpt>
      <trkpt lat="45.0214" lon="3.6263">
        <ele>752</ele>
        <time>2021-04-13T11:50:59Z</time>
      </trkpt>
      <trkpt lat="45.02138" lon="3.62643">
        <ele>752</ele>
        <time>2021-04-13T11:51:00Z</time>
      </trkpt>
      <trkpt lat="45.02136" lon="3.62656">
        <ele>751</ele>
        <time>2021-04-13T11:51:01Z</time>
      </trkpt>
      <trkpt lat="45.02132" lon="3.62684">
        <ele>750</ele>
        <time>2021-04-13T11:51:03Z</time>
      </trkpt>
      <trkpt lat="45.02131" lon="3.62697">
        <ele>749</ele>
        <time>2021-04-13T11:51:04Z</time>
      </trkpt>
      <trkpt lat="45.02129" lon="3.62711">
        <ele>749</ele>
        <time>2021-04-13T11:51:05Z</time>
      </trkpt>
      <trkpt lat="45.02127" lon="3.62725">
        <ele>749</ele>
        <time>2021-04-13T11:51:06Z</time>
      </trkpt>
      <trkpt lat="45.02126" lon="3.62739">
        <ele>748</ele>
        <time>2021-04-13T11:51:07Z</time>
      </trkpt>
      <trkpt lat="45.02125" lon="3.62752">
        <ele>747</ele>
        <time>2021-04-13T11:51:08Z</time>
      </trkpt>
      <trkpt lat="45.02124" lon="3.62766">
        <ele>747</ele>
        <time>2021-04-13T11:51:09Z</time>
      </trkpt>
      <trkpt lat="45.02123" lon="3.62792">
        <ele>746</ele>
        <time>2021-04-13T11:51:10Z</time>
      </trkpt>
      <trkpt lat="45.02104" lon="3.62829">
        <ele>745</ele>
        <time>2021-04-13T11:51:15Z</time>
      </trkpt>
      <trkpt lat="45.02097" lon="3.62833">
        <ele>744</ele>
        <time>2021-04-13T11:51:16Z</time>
      </trkpt>
      <trkpt lat="45.0209" lon="3.62835">
        <ele>744</ele>
        <time>2021-04-13T11:51:17Z</time>
      </trkpt>
      <trkpt lat="45.02084" lon="3.62835">
        <ele>744</ele>
        <time>2021-04-13T11:51:18Z</time>
      </trkpt>
      <trkpt lat="45.02077" lon="3.62834">
        <ele>744</ele>
        <time>2021-04-13T11:51:19Z</time>
      </trkpt>
      <trkpt lat="45.02071" lon="3.62834">
        <ele>744</ele>
        <time>2021-04-13T11:51:20Z</time>
      </trkpt>
      <trkpt lat="45.02066" lon="3.62833">
        <ele>744</ele>
        <time>2021-04-13T11:51:21Z</time>
      </trkpt>
      <trkpt lat="45.0206" lon="3.62833">
        <ele>744</ele>
        <time>2021-04-13T11:51:22Z</time>
      </trkpt>
      <trkpt lat="45.02045" lon="3.62833">
        <ele>745</ele>
        <time>2021-04-13T11:51:24Z</time>
      </trkpt>
      <trkpt lat="45.02041" lon="3.62835">
        <ele>745</ele>
        <time>2021-04-13T11:51:26Z</time>
      </trkpt>
      <trkpt lat="45.02037" lon="3.62836">
        <ele>745</ele>
        <time>2021-04-13T11:51:27Z</time>
      </trkpt>
      <trkpt lat="45.02033" lon="3.62837">
        <ele>745</ele>
        <time>2021-04-13T11:51:28Z</time>
      </trkpt>
      <trkpt lat="45.02024" lon="3.62838">
        <ele>745</ele>
        <time>2021-04-13T11:51:29Z</time>
      </trkpt>
      <trkpt lat="45.0202" lon="3.62839">
        <ele>745</ele>
        <time>2021-04-13T11:51:31Z</time>
      </trkpt>
      <trkpt lat="45.02016" lon="3.62839">
        <ele>745</ele>
        <time>2021-04-13T11:51:32Z</time>
      </trkpt>
      <trkpt lat="45.02013" lon="3.62839">
        <ele>745</ele>
        <time>2021-04-13T11:51:33Z</time>
      </trkpt>
      <trkpt lat="45.02002" lon="3.62838">
        <ele>746</ele>
        <time>2021-04-13T11:51:37Z</time>
      </trkpt>
      <trkpt lat="45.01999" lon="3.62837">
        <ele>746</ele>
        <time>2021-04-13T11:51:38Z</time>
      </trkpt>
      <trkpt lat="45.01997" lon="3.62837">
        <ele>746</ele>
        <time>2021-04-13T11:51:39Z</time>
      </trkpt>
      <trkpt lat="45.01994" lon="3.62837">
        <ele>746</ele>
        <time>2021-04-13T11:51:41Z</time>
      </trkpt>
      <trkpt lat="45.01991" lon="3.62836">
        <ele>746</ele>
        <time>2021-04-13T11:51:43Z</time>
      </trkpt>
      <trkpt lat="45.01989" lon="3.62836">
        <ele>746</ele>
        <time>2021-04-13T11:51:44Z</time>
      </trkpt>
      <trkpt lat="45.01986" lon="3.62835">
        <ele>746</ele>
        <time>2021-04-13T11:51:45Z</time>
      </trkpt>
      <trkpt lat="45.01984" lon="3.62834">
        <ele>746</ele>
        <time>2021-04-13T11:51:46Z</time>
      </trkpt>
      <trkpt lat="45.01976" lon="3.62832">
        <ele>746</ele>
        <time>2021-04-13T11:51:48Z</time>
      </trkpt>
      <trkpt lat="45.01974" lon="3.62831">
        <ele>746</ele>
        <time>2021-04-13T11:51:50Z</time>
      </trkpt>
      <trkpt lat="45.01972" lon="3.62831">
        <ele>746</ele>
        <time>2021-04-13T11:51:51Z</time>
      </trkpt>
      <trkpt lat="45.0197" lon="3.62831">
        <ele>746</ele>
        <time>2021-04-13T11:51:52Z</time>
      </trkpt>
      <trkpt lat="45.01968" lon="3.62831">
        <ele>746</ele>
        <time>2021-04-13T11:51:53Z</time>
      </trkpt>
      <trkpt lat="45.01966" lon="3.6283">
        <ele>746</ele>
        <time>2021-04-13T11:51:54Z</time>
      </trkpt>
      <trkpt lat="45.01963" lon="3.6283">
        <ele>746</ele>
        <time>2021-04-13T11:51:55Z</time>
      </trkpt>
      <trkpt lat="45.01961" lon="3.6283">
        <ele>746</ele>
        <time>2021-04-13T11:51:56Z</time>
      </trkpt>
      <trkpt lat="45.01952" lon="3.62828">
        <ele>746</ele>
        <time>2021-04-13T11:52:00Z</time>
      </trkpt>
      <trkpt lat="45.0195" lon="3.62827">
        <ele>746</ele>
        <time>2021-04-13T11:52:01Z</time>
      </trkpt>
      <trkpt lat="45.01948" lon="3.62826">
        <ele>746</ele>
        <time>2021-04-13T11:52:02Z</time>
      </trkpt>
      <trkpt lat="45.01945" lon="3.62826">
        <ele>746</ele>
        <time>2021-04-13T11:52:03Z</time>
      </trkpt>
      <trkpt lat="45.01943" lon="3.62826">
        <ele>746</ele>
        <time>2021-04-13T11:52:04Z</time>
      </trkpt>
      <trkpt lat="45.0194" lon="3.62826">
        <ele>746</ele>
        <time>2021-04-13T11:52:05Z</time>
      </trkpt>
      <trkpt lat="45.01938" lon="3.62826">
        <ele>746</ele>
        <time>2021-04-13T11:52:06Z</time>
      </trkpt>
      <trkpt lat="45.01932" lon="3.62826">
        <ele>746</ele>
        <time>2021-04-13T11:52:07Z</time>
      </trkpt>
      <trkpt lat="45.01927" lon="3.62825">
        <ele>746</ele>
        <time>2021-04-13T11:52:10Z</time>
      </trkpt>
      <trkpt lat="45.01925" lon="3.62824">
        <ele>746</ele>
        <time>2021-04-13T11:52:11Z</time>
      </trkpt>
      <trkpt lat="45.0193" lon="3.62828">
        <ele>747</ele>
        <time>2021-04-13T11:55:09Z</time>
      </trkpt>
      <trkpt lat="45.01932" lon="3.62827">
        <ele>747</ele>
        <time>2021-04-13T11:55:10Z</time>
      </trkpt>
      <trkpt lat="45.01935" lon="3.62826">
        <ele>747</ele>
        <time>2021-04-13T11:55:13Z</time>
      </trkpt>
      <trkpt lat="45.01937" lon="3.62826">
        <ele>747</ele>
        <time>2021-04-13T11:55:15Z</time>
      </trkpt>
      <trkpt lat="45.0194" lon="3.62825">
        <ele>747</ele>
        <time>2021-04-13T11:55:17Z</time>
      </trkpt>
      <trkpt lat="45.01943" lon="3.62824">
        <ele>747</ele>
        <time>2021-04-13T11:55:19Z</time>
      </trkpt>
      <trkpt lat="45.01952" lon="3.62826">
        <ele>748</ele>
        <time>2021-04-13T11:55:28Z</time>
      </trkpt>
      <trkpt lat="45.01953" lon="3.62827">
        <ele>748</ele>
        <time>2021-04-13T11:55:29Z</time>
      </trkpt>
      <trkpt lat="45.01956" lon="3.62827">
        <ele>748</ele>
        <time>2021-04-13T11:55:32Z</time>
      </trkpt>
      <trkpt lat="45.01959" lon="3.62828">
        <ele>748</ele>
        <time>2021-04-13T11:55:34Z</time>
      </trkpt>
      <trkpt lat="45.01962" lon="3.62829">
        <ele>748</ele>
        <time>2021-04-13T11:55:36Z</time>
      </trkpt>
      <trkpt lat="45.01965" lon="3.6283">
        <ele>748</ele>
        <time>2021-04-13T11:55:38Z</time>
      </trkpt>
      <trkpt lat="45.01968" lon="3.6283">
        <ele>748</ele>
        <time>2021-04-13T11:55:40Z</time>
      </trkpt>
      <trkpt lat="45.0197" lon="3.62829">
        <ele>748</ele>
        <time>2021-04-13T11:55:41Z</time>
      </trkpt>
      <trkpt lat="45.01976" lon="3.6283">
        <ele>748</ele>
        <time>2021-04-13T11:55:45Z</time>
      </trkpt>
      <trkpt lat="45.01979" lon="3.6283">
        <ele>748</ele>
        <time>2021-04-13T11:55:47Z</time>
      </trkpt>
      <trkpt lat="45.01982" lon="3.62831">
        <ele>748</ele>
        <time>2021-04-13T11:55:48Z</time>
      </trkpt>
      <trkpt lat="45.01986" lon="3.62833">
        <ele>748</ele>
        <time>2021-04-13T11:55:51Z</time>
      </trkpt>
      <trkpt lat="45.01988" lon="3.62833">
        <ele>748</ele>
        <time>2021-04-13T11:55:52Z</time>
      </trkpt>
      <trkpt lat="45.0199" lon="3.62833">
        <ele>748</ele>
        <time>2021-04-13T11:55:53Z</time>
      </trkpt>
      <trkpt lat="45.01992" lon="3.62833">
        <ele>748</ele>
        <time>2021-04-13T11:55:54Z</time>
      </trkpt>
      <trkpt lat="45.01994" lon="3.62833">
        <ele>748</ele>
        <time>2021-04-13T11:55:55Z</time>
      </trkpt>
      <trkpt lat="45.02003" lon="3.62834">
        <ele>748</ele>
        <time>2021-04-13T11:56:02Z</time>
      </trkpt>
      <trkpt lat="45.02005" lon="3.62834">
        <ele>748</ele>
        <time>2021-04-13T11:56:04Z</time>
      </trkpt>
      <trkpt lat="45.02008" lon="3.62835">
        <ele>748</ele>
        <time>2021-04-13T11:56:06Z</time>
      </trkpt>
      <trkpt lat="45.0201" lon="3.62835">
        <ele>748</ele>
        <time>2021-04-13T11:56:07Z</time>
      </trkpt>
      <trkpt lat="45.02014" lon="3.62835">
        <ele>748</ele>
        <time>2021-04-13T11:56:10Z</time>
      </trkpt>
      <trkpt lat="45.02017" lon="3.62838">
        <ele>748</ele>
        <time>2021-04-13T11:56:12Z</time>
      </trkpt>
      <trkpt lat="45.0202" lon="3.62839">
        <ele>748</ele>
        <time>2021-04-13T11:56:14Z</time>
      </trkpt>
      <trkpt lat="45.02023" lon="3.62839">
        <ele>749</ele>
        <time>2021-04-13T11:56:16Z</time>
      </trkpt>
      <trkpt lat="45.0202" lon="3.62835">
        <ele>748</ele>
        <time>2021-04-13T12:05:39Z</time>
      </trkpt>
      <trkpt lat="45.0202" lon="3.62835">
        <ele>748</ele>
        <time>2021-04-13T12:05:44Z</time>
      </trkpt>
      <trkpt lat="45.02012" lon="3.62839">
        <ele>747</ele>
        <time>2021-04-13T12:32:13Z</time>
      </trkpt>
      <trkpt lat="45.02011" lon="3.62839">
        <ele>747</ele>
        <time>2021-04-13T12:32:14Z</time>
      </trkpt>
      <trkpt lat="45.02009" lon="3.62839">
        <ele>747</ele>
        <time>2021-04-13T12:32:21Z</time>
      </trkpt>
      <trkpt lat="45.02008" lon="3.62839">
        <ele>747</ele>
        <time>2021-04-13T12:32:22Z</time>
      </trkpt>
      <trkpt lat="45.02004" lon="3.62838">
        <ele>748</ele>
        <time>2021-04-13T12:32:27Z</time>
      </trkpt>
      <trkpt lat="45.02002" lon="3.62837">
        <ele>748</ele>
        <time>2021-04-13T12:32:29Z</time>
      </trkpt>
      <trkpt lat="45.01993" lon="3.62834">
        <ele>748</ele>
        <time>2021-04-13T12:32:38Z</time>
      </trkpt>
      <trkpt lat="45.01991" lon="3.62833">
        <ele>748</ele>
        <time>2021-04-13T12:32:40Z</time>
      </trkpt>
      <trkpt lat="45.01988" lon="3.62833">
        <ele>748</ele>
        <time>2021-04-13T12:32:42Z</time>
      </trkpt>
      <trkpt lat="45.01986" lon="3.62832">
        <ele>748</ele>
        <time>2021-04-13T12:32:44Z</time>
      </trkpt>
      <trkpt lat="45.01984" lon="3.62832">
        <ele>748</ele>
        <time>2021-04-13T12:32:46Z</time>
      </trkpt>
      <trkpt lat="45.01982" lon="3.62831">
        <ele>748</ele>
        <time>2021-04-13T12:32:48Z</time>
      </trkpt>
      <trkpt lat="45.01977" lon="3.6283">
        <ele>748</ele>
        <time>2021-04-13T12:32:52Z</time>
      </trkpt>
      <trkpt lat="45.01975" lon="3.6283">
        <ele>748</ele>
        <time>2021-04-13T12:32:54Z</time>
      </trkpt>
      <trkpt lat="45.0197" lon="3.62829">
        <ele>748</ele>
        <time>2021-04-13T12:32:58Z</time>
      </trkpt>
      <trkpt lat="45.01967" lon="3.62828">
        <ele>748</ele>
        <time>2021-04-13T12:33:00Z</time>
      </trkpt>
      <trkpt lat="45.01965" lon="3.62828">
        <ele>748</ele>
        <time>2021-04-13T12:33:02Z</time>
      </trkpt>
      <trkpt lat="45.01963" lon="3.62827">
        <ele>748</ele>
        <time>2021-04-13T12:33:04Z</time>
      </trkpt>
      <trkpt lat="45.0196" lon="3.62827">
        <ele>748</ele>
        <time>2021-04-13T12:33:06Z</time>
      </trkpt>
      <trkpt lat="45.01958" lon="3.62826">
        <ele>748</ele>
        <time>2021-04-13T12:33:08Z</time>
      </trkpt>
      <trkpt lat="45.01956" lon="3.62826">
        <ele>748</ele>
        <time>2021-04-13T12:33:10Z</time>
      </trkpt>
      <trkpt lat="45.01953" lon="3.62825">
        <ele>748</ele>
        <time>2021-04-13T12:33:12Z</time>
      </trkpt>
      <trkpt lat="45.01944" lon="3.62824">
        <ele>748</ele>
        <time>2021-04-13T12:33:20Z</time>
      </trkpt>
      <trkpt lat="45.01942" lon="3.62824">
        <ele>748</ele>
        <time>2021-04-13T12:33:22Z</time>
      </trkpt>
      <trkpt lat="45.01939" lon="3.62824">
        <ele>748</ele>
        <time>2021-04-13T12:33:24Z</time>
      </trkpt>
      <trkpt lat="45.01937" lon="3.62824">
        <ele>748</ele>
        <time>2021-04-13T12:33:26Z</time>
      </trkpt>
      <trkpt lat="45.01935" lon="3.62824">
        <ele>748</ele>
        <time>2021-04-13T12:33:28Z</time>
      </trkpt>
      <trkpt lat="45.01933" lon="3.62825">
        <ele>748</ele>
        <time>2021-04-13T12:33:30Z</time>
      </trkpt>
      <trkpt lat="45.0193" lon="3.62825">
        <ele>748</ele>
        <time>2021-04-13T12:33:32Z</time>
      </trkpt>
      <trkpt lat="45.01928" lon="3.62825">
        <ele>748</ele>
        <time>2021-04-13T12:33:34Z</time>
      </trkpt>
      <trkpt lat="45.01924" lon="3.62825">
        <ele>748</ele>
        <time>2021-04-13T12:33:41Z</time>
      </trkpt>
      <trkpt lat="45.01923" lon="3.62823">
        <ele>748</ele>
        <time>2021-04-13T12:33:44Z</time>
      </trkpt>
      <trkpt lat="45.0192" lon="3.62831">
        <ele>745</ele>
        <time>2021-04-13T12:35:55Z</time>
      </trkpt>
      <trkpt lat="45.01921" lon="3.62829">
        <ele>744</ele>
        <time>2021-04-13T12:36:00Z</time>
      </trkpt>
      <trkpt lat="45.01925" lon="3.62832">
        <ele>744</ele>
        <time>2021-04-13T12:36:33Z</time>
      </trkpt>
      <trkpt lat="45.01924" lon="3.62831">
        <ele>744</ele>
        <time>2021-04-13T12:36:40Z</time>
      </trkpt>
      <trkpt lat="45.01926" lon="3.62823">
        <ele>744</ele>
        <time>2021-04-13T12:52:07Z</time>
      </trkpt>
      <trkpt lat="45.01924" lon="3.62825">
        <ele>744</ele>
        <time>2021-04-13T12:52:10Z</time>
      </trkpt>
      <trkpt lat="45.01935" lon="3.62824">
        <ele>744</ele>
        <time>2021-04-13T12:53:19Z</time>
      </trkpt>
      <trkpt lat="45.01938" lon="3.62822">
        <ele>744</ele>
        <time>2021-04-13T12:53:20Z</time>
      </trkpt>
      <trkpt lat="45.01939" lon="3.6282">
        <ele>744</ele>
        <time>2021-04-13T12:53:21Z</time>
      </trkpt>
      <trkpt lat="45.01938" lon="3.62817">
        <ele>744</ele>
        <time>2021-04-13T12:53:22Z</time>
      </trkpt>
      <trkpt lat="45.01934" lon="3.62815">
        <ele>744</ele>
        <time>2021-04-13T12:53:23Z</time>
      </trkpt>
      <trkpt lat="45.01931" lon="3.62814">
        <ele>744</ele>
        <time>2021-04-13T12:53:24Z</time>
      </trkpt>
      <trkpt lat="45.01926" lon="3.62811">
        <ele>744</ele>
        <time>2021-04-13T12:53:25Z</time>
      </trkpt>
      <trkpt lat="45.01921" lon="3.62809">
        <ele>743</ele>
        <time>2021-04-13T12:53:26Z</time>
      </trkpt>
      <trkpt lat="45.01909" lon="3.62805">
        <ele>742</ele>
        <time>2021-04-13T12:53:28Z</time>
      </trkpt>
      <trkpt lat="45.01905" lon="3.62803">
        <ele>742</ele>
        <time>2021-04-13T12:53:29Z</time>
      </trkpt>
      <trkpt lat="45.01902" lon="3.62801">
        <ele>742</ele>
        <time>2021-04-13T12:53:30Z</time>
      </trkpt>
      <trkpt lat="45.01902" lon="3.62796">
        <ele>741</ele>
        <time>2021-04-13T12:53:31Z</time>
      </trkpt>
      <trkpt lat="45.01905" lon="3.62791">
        <ele>741</ele>
        <time>2021-04-13T12:53:32Z</time>
      </trkpt>
      <trkpt lat="45.01909" lon="3.62788">
        <ele>740</ele>
        <time>2021-04-13T12:53:33Z</time>
      </trkpt>
      <trkpt lat="45.01914" lon="3.62786">
        <ele>740</ele>
        <time>2021-04-13T12:53:34Z</time>
      </trkpt>
      <trkpt lat="45.01919" lon="3.62785">
        <ele>739</ele>
        <time>2021-04-13T12:53:35Z</time>
      </trkpt>
      <trkpt lat="45.01944" lon="3.6278">
        <ele>736</ele>
        <time>2021-04-13T12:53:39Z</time>
      </trkpt>
      <trkpt lat="45.01952" lon="3.62778">
        <ele>736</ele>
        <time>2021-04-13T12:53:40Z</time>
      </trkpt>
      <trkpt lat="45.01961" lon="3.62776">
        <ele>735</ele>
        <time>2021-04-13T12:53:41Z</time>
      </trkpt>
      <trkpt lat="45.0197" lon="3.62773">
        <ele>734</ele>
        <time>2021-04-13T12:53:42Z</time>
      </trkpt>
      <trkpt lat="45.01978" lon="3.6277">
        <ele>733</ele>
        <time>2021-04-13T12:53:43Z</time>
      </trkpt>
      <trkpt lat="45.01986" lon="3.62767">
        <ele>732</ele>
        <time>2021-04-13T12:53:44Z</time>
      </trkpt>
      <trkpt lat="45.01992" lon="3.62764">
        <ele>730</ele>
        <time>2021-04-13T12:53:45Z</time>
      </trkpt>
      <trkpt lat="45.01995" lon="3.6276">
        <ele>729</ele>
        <time>2021-04-13T12:53:46Z</time>
      </trkpt>
      <trkpt lat="45.01989" lon="3.62753">
        <ele>728</ele>
        <time>2021-04-13T12:53:48Z</time>
      </trkpt>
      <trkpt lat="45.01982" lon="3.62751">
        <ele>727</ele>
        <time>2021-04-13T12:53:49Z</time>
      </trkpt>
      <trkpt lat="45.01975" lon="3.62748">
        <ele>727</ele>
        <time>2021-04-13T12:53:50Z</time>
      </trkpt>
      <trkpt lat="45.01969" lon="3.62745">
        <ele>726</ele>
        <time>2021-04-13T12:53:51Z</time>
      </trkpt>
      <trkpt lat="45.01966" lon="3.62741">
        <ele>724</ele>
        <time>2021-04-13T12:53:52Z</time>
      </trkpt>
      <trkpt lat="45.01967" lon="3.62736">
        <ele>724</ele>
        <time>2021-04-13T12:53:53Z</time>
      </trkpt>
      <trkpt lat="45.01971" lon="3.62732">
        <ele>723</ele>
        <time>2021-04-13T12:53:54Z</time>
      </trkpt>
      <trkpt lat="45.01976" lon="3.62728">
        <ele>722</ele>
        <time>2021-04-13T12:53:55Z</time>
      </trkpt>
      <trkpt lat="45.01978" lon="3.62712">
        <ele>718</ele>
        <time>2021-04-13T12:54:00Z</time>
      </trkpt>
      <trkpt lat="45.0197" lon="3.6271">
        <ele>717</ele>
        <time>2021-04-13T12:54:01Z</time>
      </trkpt>
      <trkpt lat="45.01962" lon="3.62707">
        <ele>716</ele>
        <time>2021-04-13T12:54:02Z</time>
      </trkpt>
      <trkpt lat="45.01953" lon="3.62705">
        <ele>716</ele>
        <time>2021-04-13T12:54:03Z</time>
      </trkpt>
      <trkpt lat="45.01946" lon="3.62705">
        <ele>715</ele>
        <time>2021-04-13T12:54:04Z</time>
      </trkpt>
      <trkpt lat="45.01942" lon="3.62706">
        <ele>714</ele>
        <time>2021-04-13T12:54:05Z</time>
      </trkpt>
      <trkpt lat="45.01939" lon="3.62705">
        <ele>714</ele>
        <time>2021-04-13T12:54:06Z</time>
      </trkpt>
      <trkpt lat="45.01938" lon="3.62703">
        <ele>713</ele>
        <time>2021-04-13T12:54:07Z</time>
      </trkpt>
      <trkpt lat="45.01948" lon="3.62696">
        <ele>708</ele>
        <time>2021-04-13T12:54:13Z</time>
      </trkpt>
      <trkpt lat="45.01952" lon="3.62695">
        <ele>707</ele>
        <time>2021-04-13T12:54:14Z</time>
      </trkpt>
      <trkpt lat="45.01955" lon="3.62693">
        <ele>707</ele>
        <time>2021-04-13T12:54:15Z</time>
      </trkpt>
      <trkpt lat="45.01953" lon="3.6269">
        <ele>707</ele>
        <time>2021-04-13T12:54:16Z</time>
      </trkpt>
      <trkpt lat="45.0194" lon="3.62687">
        <ele>706</ele>
        <time>2021-04-13T12:54:20Z</time>
      </trkpt>
      <trkpt lat="45.0193" lon="3.62685">
        <ele>705</ele>
        <time>2021-04-13T12:54:22Z</time>
      </trkpt>
      <trkpt lat="45.01917" lon="3.62682">
        <ele>704</ele>
        <time>2021-04-13T12:54:24Z</time>
      </trkpt>
      <trkpt lat="45.01907" lon="3.62677">
        <ele>703</ele>
        <time>2021-04-13T12:54:26Z</time>
      </trkpt>
      <trkpt lat="45.01869" lon="3.62643">
        <ele>699</ele>
        <time>2021-04-13T12:54:34Z</time>
      </trkpt>
      <trkpt lat="45.01855" lon="3.6263">
        <ele>698</ele>
        <time>2021-04-13T12:54:36Z</time>
      </trkpt>
      <trkpt lat="45.01848" lon="3.62622">
        <ele>697</ele>
        <time>2021-04-13T12:54:37Z</time>
      </trkpt>
      <trkpt lat="45.01835" lon="3.62617">
        <ele>695</ele>
        <time>2021-04-13T12:54:39Z</time>
      </trkpt>
      <trkpt lat="45.01821" lon="3.62622">
        <ele>694</ele>
        <time>2021-04-13T12:54:41Z</time>
      </trkpt>
      <trkpt lat="45.01808" lon="3.62628">
        <ele>692</ele>
        <time>2021-04-13T12:54:43Z</time>
      </trkpt>
      <trkpt lat="45.01795" lon="3.62634">
        <ele>691</ele>
        <time>2021-04-13T12:54:45Z</time>
      </trkpt>
      <trkpt lat="45.01781" lon="3.62641">
        <ele>689</ele>
        <time>2021-04-13T12:54:47Z</time>
      </trkpt>
      <trkpt lat="45.01755" lon="3.62665">
        <ele>685</ele>
        <time>2021-04-13T12:54:51Z</time>
      </trkpt>
      <trkpt lat="45.01747" lon="3.62679">
        <ele>682</ele>
        <time>2021-04-13T12:54:53Z</time>
      </trkpt>
      <trkpt lat="45.01742" lon="3.62689">
        <ele>678</ele>
        <time>2021-04-13T12:54:56Z</time>
      </trkpt>
      <trkpt lat="45.01745" lon="3.6267">
        <ele>670</ele>
        <time>2021-04-13T12:55:00Z</time>
      </trkpt>
      <trkpt lat="45.01747" lon="3.62656">
        <ele>667</ele>
        <time>2021-04-13T12:55:02Z</time>
      </trkpt>
      <trkpt lat="45.0175" lon="3.62659">
        <ele>653</ele>
        <time>2021-04-13T12:55:25Z</time>
      </trkpt>
      <trkpt lat="45.01751" lon="3.6266">
        <ele>651</ele>
        <time>2021-04-13T12:55:28Z</time>
      </trkpt>
      <trkpt lat="45.01751" lon="3.6266">
        <ele>650</ele>
        <time>2021-04-13T12:55:30Z</time>
      </trkpt>
      <trkpt lat="45.01739" lon="3.6268">
        <ele>642</ele>
        <time>2021-04-13T12:56:17Z</time>
      </trkpt>
      <trkpt lat="45.01735" lon="3.62685">
        <ele>642</ele>
        <time>2021-04-13T12:56:18Z</time>
      </trkpt>
      <trkpt lat="45.0173" lon="3.62692">
        <ele>642</ele>
        <time>2021-04-13T12:56:19Z</time>
      </trkpt>
      <trkpt lat="45.01725" lon="3.62699">
        <ele>642</ele>
        <time>2021-04-13T12:56:20Z</time>
      </trkpt>
      <trkpt lat="45.01719" lon="3.62705">
        <ele>641</ele>
        <time>2021-04-13T12:56:21Z</time>
      </trkpt>
      <trkpt lat="45.01712" lon="3.6271">
        <ele>641</ele>
        <time>2021-04-13T12:56:22Z</time>
      </trkpt>
      <trkpt lat="45.01705" lon="3.62713">
        <ele>641</ele>
        <time>2021-04-13T12:56:23Z</time>
      </trkpt>
      <trkpt lat="45.01698" lon="3.62713">
        <ele>641</ele>
        <time>2021-04-13T12:56:24Z</time>
      </trkpt>
      <trkpt lat="45.01684" lon="3.62713">
        <ele>640</ele>
        <time>2021-04-13T12:56:26Z</time>
      </trkpt>
      <trkpt lat="45.01672" lon="3.62717">
        <ele>639</ele>
        <time>2021-04-13T12:56:28Z</time>
      </trkpt>
      <trkpt lat="45.01667" lon="3.62719">
        <ele>638</ele>
        <time>2021-04-13T12:56:29Z</time>
      </trkpt>
      <trkpt lat="45.01661" lon="3.62721">
        <ele>638</ele>
        <time>2021-04-13T12:56:30Z</time>
      </trkpt>
      <trkpt lat="45.01657" lon="3.62724">
        <ele>638</ele>
        <time>2021-04-13T12:56:31Z</time>
      </trkpt>
      <trkpt lat="45.01651" lon="3.62727">
        <ele>637</ele>
        <time>2021-04-13T12:56:32Z</time>
      </trkpt>
      <trkpt lat="45.01645" lon="3.6273">
        <ele>636</ele>
        <time>2021-04-13T12:56:33Z</time>
      </trkpt>
      <trkpt lat="45.01634" lon="3.62736">
        <ele>635</ele>
        <time>2021-04-13T12:56:35Z</time>
      </trkpt>
      <trkpt lat="45.01614" lon="3.62761">
        <ele>632</ele>
        <time>2021-04-13T12:56:39Z</time>
      </trkpt>
      <trkpt lat="45.01604" lon="3.62777">
        <ele>631</ele>
        <time>2021-04-13T12:56:41Z</time>
      </trkpt>
      <trkpt lat="45.01599" lon="3.62785">
        <ele>631</ele>
        <time>2021-04-13T12:56:42Z</time>
      </trkpt>
      <trkpt lat="45.01595" lon="3.62794">
        <ele>631</ele>
        <time>2021-04-13T12:56:43Z</time>
      </trkpt>
      <trkpt lat="45.01591" lon="3.62803">
        <ele>630</ele>
        <time>2021-04-13T12:56:44Z</time>
      </trkpt>
      <trkpt lat="45.01587" lon="3.62811">
        <ele>629</ele>
        <time>2021-04-13T12:56:45Z</time>
      </trkpt>
      <trkpt lat="45.01582" lon="3.6282">
        <ele>629</ele>
        <time>2021-04-13T12:56:46Z</time>
      </trkpt>
      <trkpt lat="45.01575" lon="3.62838">
        <ele>627</ele>
        <time>2021-04-13T12:56:48Z</time>
      </trkpt>
      <trkpt lat="45.01555" lon="3.6286">
        <ele>625</ele>
        <time>2021-04-13T12:56:52Z</time>
      </trkpt>
      <trkpt lat="45.01544" lon="3.62864">
        <ele>624</ele>
        <time>2021-04-13T12:56:54Z</time>
      </trkpt>
      <trkpt lat="45.01538" lon="3.62851">
        <ele>622</ele>
        <time>2021-04-13T12:56:58Z</time>
      </trkpt>
      <trkpt lat="45.01534" lon="3.62837">
        <ele>621</ele>
        <time>2021-04-13T12:57:01Z</time>
      </trkpt>
      <trkpt lat="45.01531" lon="3.62822">
        <ele>620</ele>
        <time>2021-04-13T12:57:04Z</time>
      </trkpt>
      <trkpt lat="45.01525" lon="3.62805">
        <ele>618</ele>
        <time>2021-04-13T12:57:07Z</time>
      </trkpt>
      <trkpt lat="45.01516" lon="3.62792">
        <ele>617</ele>
        <time>2021-04-13T12:57:09Z</time>
      </trkpt>
      <trkpt lat="45.01501" lon="3.62783">
        <ele>616</ele>
        <time>2021-04-13T12:57:11Z</time>
      </trkpt>
      <trkpt lat="45.01453" lon="3.62786">
        <ele>611</ele>
        <time>2021-04-13T12:57:18Z</time>
      </trkpt>
      <trkpt lat="45.01446" lon="3.62791">
        <ele>610</ele>
        <time>2021-04-13T12:57:19Z</time>
      </trkpt>
      <trkpt lat="45.01441" lon="3.62795">
        <ele>610</ele>
        <time>2021-04-13T12:57:20Z</time>
      </trkpt>
      <trkpt lat="45.01436" lon="3.62799">
        <ele>609</ele>
        <time>2021-04-13T12:57:21Z</time>
      </trkpt>
      <trkpt lat="45.01431" lon="3.62803">
        <ele>609</ele>
        <time>2021-04-13T12:57:22Z</time>
      </trkpt>
      <trkpt lat="45.01427" lon="3.62807">
        <ele>608</ele>
        <time>2021-04-13T12:57:23Z</time>
      </trkpt>
      <trkpt lat="45.0142" lon="3.62815">
        <ele>607</ele>
        <time>2021-04-13T12:57:25Z</time>
      </trkpt>
      <trkpt lat="45.01416" lon="3.62818">
        <ele>607</ele>
        <time>2021-04-13T12:57:26Z</time>
      </trkpt>
      <trkpt lat="45.01408" lon="3.62822">
        <ele>606</ele>
        <time>2021-04-13T12:57:28Z</time>
      </trkpt>
      <trkpt lat="45.01403" lon="3.62825">
        <ele>606</ele>
        <time>2021-04-13T12:57:29Z</time>
      </trkpt>
      <trkpt lat="45.01398" lon="3.62828">
        <ele>605</ele>
        <time>2021-04-13T12:57:30Z</time>
      </trkpt>
      <trkpt lat="45.01391" lon="3.62831">
        <ele>605</ele>
        <time>2021-04-13T12:57:31Z</time>
      </trkpt>
      <trkpt lat="45.01385" lon="3.62832">
        <ele>605</ele>
        <time>2021-04-13T12:57:32Z</time>
      </trkpt>
      <trkpt lat="45.01379" lon="3.62833">
        <ele>605</ele>
        <time>2021-04-13T12:57:33Z</time>
      </trkpt>
      <trkpt lat="45.01374" lon="3.62835">
        <ele>604</ele>
        <time>2021-04-13T12:57:34Z</time>
      </trkpt>
      <trkpt lat="45.01369" lon="3.62836">
        <ele>604</ele>
        <time>2021-04-13T12:57:35Z</time>
      </trkpt>
      <trkpt lat="45.0136" lon="3.62832">
        <ele>593</ele>
        <time>2021-04-13T13:13:06Z</time>
      </trkpt>
      <trkpt lat="45.01358" lon="3.6283">
        <ele>593</ele>
        <time>2021-04-13T13:13:07Z</time>
      </trkpt>
      <trkpt lat="45.01355" lon="3.62827">
        <ele>593</ele>
        <time>2021-04-13T13:13:08Z</time>
      </trkpt>
      <trkpt lat="45.01353" lon="3.62826">
        <ele>593</ele>
        <time>2021-04-13T13:13:09Z</time>
      </trkpt>
      <trkpt lat="45.01352" lon="3.62826">
        <ele>592</ele>
        <time>2021-04-13T13:13:14Z</time>
      </trkpt>
      <trkpt lat="45.01348" lon="3.62824">
        <ele>592</ele>
        <time>2021-04-13T13:13:19Z</time>
      </trkpt>
      <trkpt lat="45.01346" lon="3.62823">
        <ele>592</ele>
        <time>2021-04-13T13:13:20Z</time>
      </trkpt>
      <trkpt lat="45.01343" lon="3.62822">
        <ele>592</ele>
        <time>2021-04-13T13:13:21Z</time>
      </trkpt>
      <trkpt lat="45.01338" lon="3.62821">
        <ele>591</ele>
        <time>2021-04-13T13:13:23Z</time>
      </trkpt>
      <trkpt lat="45.01335" lon="3.62821">
        <ele>591</ele>
        <time>2021-04-13T13:13:24Z</time>
      </trkpt>
      <trkpt lat="45.01332" lon="3.6282">
        <ele>591</ele>
        <time>2021-04-13T13:13:25Z</time>
      </trkpt>
      <trkpt lat="45.0133" lon="3.6282">
        <ele>591</ele>
        <time>2021-04-13T13:13:26Z</time>
      </trkpt>
      <trkpt lat="45.01328" lon="3.6282">
        <ele>591</ele>
        <time>2021-04-13T13:13:27Z</time>
      </trkpt>
      <trkpt lat="45.01325" lon="3.62819">
        <ele>591</ele>
        <time>2021-04-13T13:13:29Z</time>
      </trkpt>
      <trkpt lat="45.01326" lon="3.62816">
        <ele>591</ele>
        <time>2021-04-13T13:13:31Z</time>
      </trkpt>
      <trkpt lat="45.01328" lon="3.62815">
        <ele>590</ele>
        <time>2021-04-13T13:13:32Z</time>
      </trkpt>
      <trkpt lat="45.01345" lon="3.62811">
        <ele>588</ele>
        <time>2021-04-13T13:13:36Z</time>
      </trkpt>
      <trkpt lat="45.01353" lon="3.62811">
        <ele>588</ele>
        <time>2021-04-13T13:13:37Z</time>
      </trkpt>
      <trkpt lat="45.0136" lon="3.6281">
        <ele>587</ele>
        <time>2021-04-13T13:13:38Z</time>
      </trkpt>
      <trkpt lat="45.01367" lon="3.62809">
        <ele>587</ele>
        <time>2021-04-13T13:13:39Z</time>
      </trkpt>
      <trkpt lat="45.01374" lon="3.62809">
        <ele>587</ele>
        <time>2021-04-13T13:13:40Z</time>
      </trkpt>
      <trkpt lat="45.01381" lon="3.62807">
        <ele>586</ele>
        <time>2021-04-13T13:13:41Z</time>
      </trkpt>
      <trkpt lat="45.01387" lon="3.62804">
        <ele>586</ele>
        <time>2021-04-13T13:13:42Z</time>
      </trkpt>
      <trkpt lat="45.01392" lon="3.628">
        <ele>586</ele>
        <time>2021-04-13T13:13:43Z</time>
      </trkpt>
      <trkpt lat="45.01403" lon="3.62793">
        <ele>586</ele>
        <time>2021-04-13T13:13:45Z</time>
      </trkpt>
      <trkpt lat="45.01408" lon="3.6279">
        <ele>585</ele>
        <time>2021-04-13T13:13:46Z</time>
      </trkpt>
      <trkpt lat="45.01412" lon="3.62787">
        <ele>585</ele>
        <time>2021-04-13T13:13:47Z</time>
      </trkpt>
      <trkpt lat="45.01416" lon="3.62783">
        <ele>585</ele>
        <time>2021-04-13T13:13:48Z</time>
      </trkpt>
      <trkpt lat="45.0142" lon="3.62778">
        <ele>585</ele>
        <time>2021-04-13T13:13:49Z</time>
      </trkpt>
      <trkpt lat="45.01425" lon="3.62773">
        <ele>584</ele>
        <time>2021-04-13T13:13:50Z</time>
      </trkpt>
      <trkpt lat="45.01431" lon="3.62768">
        <ele>583</ele>
        <time>2021-04-13T13:13:51Z</time>
      </trkpt>
      <trkpt lat="45.01437" lon="3.62762">
        <ele>583</ele>
        <time>2021-04-13T13:13:52Z</time>
      </trkpt>
      <trkpt lat="45.01463" lon="3.62739">
        <ele>581</ele>
        <time>2021-04-13T13:13:56Z</time>
      </trkpt>
      <trkpt lat="45.0147" lon="3.62734">
        <ele>580</ele>
        <time>2021-04-13T13:13:57Z</time>
      </trkpt>
      <trkpt lat="45.01477" lon="3.6273">
        <ele>580</ele>
        <time>2021-04-13T13:13:58Z</time>
      </trkpt>
      <trkpt lat="45.01484" lon="3.62728">
        <ele>579</ele>
        <time>2021-04-13T13:13:59Z</time>
      </trkpt>
      <trkpt lat="45.0149" lon="3.62728">
        <ele>579</ele>
        <time>2021-04-13T13:14:00Z</time>
      </trkpt>
      <trkpt lat="45.01496" lon="3.62727">
        <ele>579</ele>
        <time>2021-04-13T13:14:01Z</time>
      </trkpt>
      <trkpt lat="45.01503" lon="3.62725">
        <ele>578</ele>
        <time>2021-04-13T13:14:02Z</time>
      </trkpt>
      <trkpt lat="45.01509" lon="3.62723">
        <ele>578</ele>
        <time>2021-04-13T13:14:03Z</time>
      </trkpt>
      <trkpt lat="45.01521" lon="3.62721">
        <ele>577</ele>
        <time>2021-04-13T13:14:05Z</time>
      </trkpt>
      <trkpt lat="45.01524" lon="3.62719">
        <ele>577</ele>
        <time>2021-04-13T13:14:06Z</time>
      </trkpt>
      <trkpt lat="45.01526" lon="3.62715">
        <ele>577</ele>
        <time>2021-04-13T13:14:07Z</time>
      </trkpt>
      <trkpt lat="45.01526" lon="3.6271">
        <ele>577</ele>
        <time>2021-04-13T13:14:08Z</time>
      </trkpt>
      <trkpt lat="45.01526" lon="3.62704">
        <ele>577</ele>
        <time>2021-04-13T13:14:09Z</time>
      </trkpt>
      <trkpt lat="45.01526" lon="3.62699">
        <ele>577</ele>
        <time>2021-04-13T13:14:10Z</time>
      </trkpt>
      <trkpt lat="45.01528" lon="3.62694">
        <ele>577</ele>
        <time>2021-04-13T13:14:11Z</time>
      </trkpt>
      <trkpt lat="45.01529" lon="3.62692">
        <ele>577</ele>
        <time>2021-04-13T13:14:12Z</time>
      </trkpt>
      <trkpt lat="45.01536" lon="3.62679">
        <ele>576</ele>
        <time>2021-04-13T13:14:20Z</time>
      </trkpt>
      <trkpt lat="45.01538" lon="3.62675">
        <ele>576</ele>
        <time>2021-04-13T13:14:21Z</time>
      </trkpt>
      <trkpt lat="45.01541" lon="3.6267">
        <ele>576</ele>
        <time>2021-04-13T13:14:22Z</time>
      </trkpt>
      <trkpt lat="45.01543" lon="3.62666">
        <ele>576</ele>
        <time>2021-04-13T13:14:23Z</time>
      </trkpt>
      <trkpt lat="45.01544" lon="3.62664">
        <ele>576</ele>
        <time>2021-04-13T13:14:24Z</time>
      </trkpt>
      <trkpt lat="45.01551" lon="3.62655">
        <ele>575</ele>
        <time>2021-04-13T13:14:32Z</time>
      </trkpt>
      <trkpt lat="45.01553" lon="3.62652">
        <ele>575</ele>
        <time>2021-04-13T13:14:33Z</time>
      </trkpt>
      <trkpt lat="45.01556" lon="3.62647">
        <ele>575</ele>
        <time>2021-04-13T13:14:34Z</time>
      </trkpt>
      <trkpt lat="45.01565" lon="3.62638">
        <ele>574</ele>
        <time>2021-04-13T13:14:36Z</time>
      </trkpt>
      <trkpt lat="45.0157" lon="3.62633">
        <ele>574</ele>
        <time>2021-04-13T13:14:37Z</time>
      </trkpt>
      <trkpt lat="45.01575" lon="3.62629">
        <ele>573</ele>
        <time>2021-04-13T13:14:38Z</time>
      </trkpt>
      <trkpt lat="45.0158" lon="3.62625">
        <ele>573</ele>
        <time>2021-04-13T13:14:39Z</time>
      </trkpt>
      <trkpt lat="45.01584" lon="3.62621">
        <ele>573</ele>
        <time>2021-04-13T13:14:40Z</time>
      </trkpt>
      <trkpt lat="45.01587" lon="3.62617">
        <ele>573</ele>
        <time>2021-04-13T13:14:41Z</time>
      </trkpt>
      <trkpt lat="45.01591" lon="3.62613">
        <ele>573</ele>
        <time>2021-04-13T13:14:42Z</time>
      </trkpt>
      <trkpt lat="45.01594" lon="3.62608">
        <ele>573</ele>
        <time>2021-04-13T13:14:43Z</time>
      </trkpt>
      <trkpt lat="45.01612" lon="3.62587">
        <ele>572</ele>
        <time>2021-04-13T13:14:47Z</time>
      </trkpt>
      <trkpt lat="45.01622" lon="3.62569">
        <ele>572</ele>
        <time>2021-04-13T13:14:49Z</time>
      </trkpt>
      <trkpt lat="45.01632" lon="3.6255">
        <ele>570</ele>
        <time>2021-04-13T13:14:51Z</time>
      </trkpt>
      <trkpt lat="45.01642" lon="3.62535">
        <ele>569</ele>
        <time>2021-04-13T13:14:53Z</time>
      </trkpt>
      <trkpt lat="45.01647" lon="3.6253">
        <ele>568</ele>
        <time>2021-04-13T13:14:54Z</time>
      </trkpt>
      <trkpt lat="45.01652" lon="3.62526">
        <ele>568</ele>
        <time>2021-04-13T13:14:55Z</time>
      </trkpt>
      <trkpt lat="45.01656" lon="3.62522">
        <ele>568</ele>
        <time>2021-04-13T13:14:56Z</time>
      </trkpt>
      <trkpt lat="45.0166" lon="3.62518">
        <ele>567</ele>
        <time>2021-04-13T13:14:57Z</time>
      </trkpt>
      <trkpt lat="45.01669" lon="3.6251">
        <ele>566</ele>
        <time>2021-04-13T13:14:59Z</time>
      </trkpt>
      <trkpt lat="45.01672" lon="3.62506">
        <ele>566</ele>
        <time>2021-04-13T13:15:00Z</time>
      </trkpt>
      <trkpt lat="45.01676" lon="3.62503">
        <ele>566</ele>
        <time>2021-04-13T13:15:01Z</time>
      </trkpt>
      <trkpt lat="45.0168" lon="3.625">
        <ele>566</ele>
        <time>2021-04-13T13:15:02Z</time>
      </trkpt>
      <trkpt lat="45.01683" lon="3.62496">
        <ele>566</ele>
        <time>2021-04-13T13:15:03Z</time>
      </trkpt>
      <trkpt lat="45.01687" lon="3.62493">
        <ele>566</ele>
        <time>2021-04-13T13:15:04Z</time>
      </trkpt>
      <trkpt lat="45.0169" lon="3.6249">
        <ele>566</ele>
        <time>2021-04-13T13:15:05Z</time>
      </trkpt>
      <trkpt lat="45.01693" lon="3.62487">
        <ele>565</ele>
        <time>2021-04-13T13:15:06Z</time>
      </trkpt>
      <trkpt lat="45.01708" lon="3.6247">
        <ele>565</ele>
        <time>2021-04-13T13:15:11Z</time>
      </trkpt>
      <trkpt lat="45.01711" lon="3.62467">
        <ele>565</ele>
        <time>2021-04-13T13:15:12Z</time>
      </trkpt>
      <trkpt lat="45.01714" lon="3.62463">
        <ele>565</ele>
        <time>2021-04-13T13:15:13Z</time>
      </trkpt>
      <trkpt lat="45.01717" lon="3.62459">
        <ele>565</ele>
        <time>2021-04-13T13:15:14Z</time>
      </trkpt>
      <trkpt lat="45.01725" lon="3.62448">
        <ele>565</ele>
        <time>2021-04-13T13:15:17Z</time>
      </trkpt>
      <trkpt lat="45.01727" lon="3.62444">
        <ele>565</ele>
        <time>2021-04-13T13:15:18Z</time>
      </trkpt>
      <trkpt lat="45.01729" lon="3.6244">
        <ele>565</ele>
        <time>2021-04-13T13:15:19Z</time>
      </trkpt>
      <trkpt lat="45.01732" lon="3.62435">
        <ele>565</ele>
        <time>2021-04-13T13:15:20Z</time>
      </trkpt>
      <trkpt lat="45.01737" lon="3.62427">
        <ele>565</ele>
        <time>2021-04-13T13:15:22Z</time>
      </trkpt>
      <trkpt lat="45.0174" lon="3.62424">
        <ele>566</ele>
        <time>2021-04-13T13:15:23Z</time>
      </trkpt>
      <trkpt lat="45.01745" lon="3.62422">
        <ele>566</ele>
        <time>2021-04-13T13:15:24Z</time>
      </trkpt>
      <trkpt lat="45.0175" lon="3.62421">
        <ele>566</ele>
        <time>2021-04-13T13:15:25Z</time>
      </trkpt>
      <trkpt lat="45.01757" lon="3.62414">
        <ele>566</ele>
        <time>2021-04-13T13:15:28Z</time>
      </trkpt>
      <trkpt lat="45.0175" lon="3.62404">
        <ele>566</ele>
        <time>2021-04-13T13:15:31Z</time>
      </trkpt>
      <trkpt lat="45.01744" lon="3.62396">
        <ele>567</ele>
        <time>2021-04-13T13:15:33Z</time>
      </trkpt>
      <trkpt lat="45.01741" lon="3.62392">
        <ele>567</ele>
        <time>2021-04-13T13:15:34Z</time>
      </trkpt>
      <trkpt lat="45.01742" lon="3.62373">
        <ele>567</ele>
        <time>2021-04-13T13:15:38Z</time>
      </trkpt>
      <trkpt lat="45.01744" lon="3.62368">
        <ele>567</ele>
        <time>2021-04-13T13:15:39Z</time>
      </trkpt>
      <trkpt lat="45.01745" lon="3.62363">
        <ele>568</ele>
        <time>2021-04-13T13:15:40Z</time>
      </trkpt>
      <trkpt lat="45.01746" lon="3.62358">
        <ele>568</ele>
        <time>2021-04-13T13:15:41Z</time>
      </trkpt>
      <trkpt lat="45.01746" lon="3.62353">
        <ele>568</ele>
        <time>2021-04-13T13:15:42Z</time>
      </trkpt>
      <trkpt lat="45.01749" lon="3.62338">
        <ele>568</ele>
        <time>2021-04-13T13:15:44Z</time>
      </trkpt>
      <trkpt lat="45.01752" lon="3.6232">
        <ele>568</ele>
        <time>2021-04-13T13:15:46Z</time>
      </trkpt>
      <trkpt lat="45.01758" lon="3.62305">
        <ele>568</ele>
        <time>2021-04-13T13:15:49Z</time>
      </trkpt>
      <trkpt lat="45.01762" lon="3.62278">
        <ele>568</ele>
        <time>2021-04-13T13:15:53Z</time>
      </trkpt>
      <trkpt lat="45.01762" lon="3.62261">
        <ele>568</ele>
        <time>2021-04-13T13:15:55Z</time>
      </trkpt>
      <trkpt lat="45.01762" lon="3.62252">
        <ele>568</ele>
        <time>2021-04-13T13:15:56Z</time>
      </trkpt>
      <trkpt lat="45.01763" lon="3.62245">
        <ele>568</ele>
        <time>2021-04-13T13:15:57Z</time>
      </trkpt>
      <trkpt lat="45.01764" lon="3.6224">
        <ele>568</ele>
        <time>2021-04-13T13:15:58Z</time>
      </trkpt>
      <trkpt lat="45.01766" lon="3.62236">
        <ele>568</ele>
        <time>2021-04-13T13:15:59Z</time>
      </trkpt>
      <trkpt lat="45.01767" lon="3.62233">
        <ele>568</ele>
        <time>2021-04-13T13:16:00Z</time>
      </trkpt>
      <trkpt lat="45.01768" lon="3.62229">
        <ele>568</ele>
        <time>2021-04-13T13:16:01Z</time>
      </trkpt>
      <trkpt lat="45.01772" lon="3.62212">
        <ele>569</ele>
        <time>2021-04-13T13:16:05Z</time>
      </trkpt>
      <trkpt lat="45.01773" lon="3.62207">
        <ele>569</ele>
        <time>2021-04-13T13:16:06Z</time>
      </trkpt>
      <trkpt lat="45.01774" lon="3.62204">
        <ele>569</ele>
        <time>2021-04-13T13:16:07Z</time>
      </trkpt>
      <trkpt lat="45.01774" lon="3.622">
        <ele>569</ele>
        <time>2021-04-13T13:16:08Z</time>
      </trkpt>
      <trkpt lat="45.01774" lon="3.62196">
        <ele>569</ele>
        <time>2021-04-13T13:16:09Z</time>
      </trkpt>
      <trkpt lat="45.01775" lon="3.62192">
        <ele>569</ele>
        <time>2021-04-13T13:16:10Z</time>
      </trkpt>
      <trkpt lat="45.01775" lon="3.62189">
        <ele>569</ele>
        <time>2021-04-13T13:16:11Z</time>
      </trkpt>
      <trkpt lat="45.01775" lon="3.62185">
        <ele>570</ele>
        <time>2021-04-13T13:16:12Z</time>
      </trkpt>
      <trkpt lat="45.01777" lon="3.62173">
        <ele>570</ele>
        <time>2021-04-13T13:16:15Z</time>
      </trkpt>
      <trkpt lat="45.01779" lon="3.6217">
        <ele>570</ele>
        <time>2021-04-13T13:16:16Z</time>
      </trkpt>
      <trkpt lat="45.01781" lon="3.62169">
        <ele>570</ele>
        <time>2021-04-13T13:16:17Z</time>
      </trkpt>
      <trkpt lat="45.01783" lon="3.62168">
        <ele>570</ele>
        <time>2021-04-13T13:16:18Z</time>
      </trkpt>
      <trkpt lat="45.01784" lon="3.62166">
        <ele>570</ele>
        <time>2021-04-13T13:16:19Z</time>
      </trkpt>
      <trkpt lat="45.01785" lon="3.62163">
        <ele>570</ele>
        <time>2021-04-13T13:16:20Z</time>
      </trkpt>
      <trkpt lat="45.01785" lon="3.62159">
        <ele>571</ele>
        <time>2021-04-13T13:16:21Z</time>
      </trkpt>
      <trkpt lat="45.01784" lon="3.62155">
        <ele>571</ele>
        <time>2021-04-13T13:16:23Z</time>
      </trkpt>
      <trkpt lat="45.01782" lon="3.62142">
        <ele>571</ele>
        <time>2021-04-13T13:16:27Z</time>
      </trkpt>
      <trkpt lat="45.01782" lon="3.62138">
        <ele>571</ele>
        <time>2021-04-13T13:16:28Z</time>
      </trkpt>
      <trkpt lat="45.01783" lon="3.62135">
        <ele>571</ele>
        <time>2021-04-13T13:16:29Z</time>
      </trkpt>
      <trkpt lat="45.01784" lon="3.62131">
        <ele>571</ele>
        <time>2021-04-13T13:16:31Z</time>
      </trkpt>
      <trkpt lat="45.01784" lon="3.62128">
        <ele>572</ele>
        <time>2021-04-13T13:16:33Z</time>
      </trkpt>
      <trkpt lat="45.01784" lon="3.62125">
        <ele>572</ele>
        <time>2021-04-13T13:16:35Z</time>
      </trkpt>
      <trkpt lat="45.01785" lon="3.62122">
        <ele>573</ele>
        <time>2021-04-13T13:16:37Z</time>
      </trkpt>
      <trkpt lat="45.01785" lon="3.62119">
        <ele>574</ele>
        <time>2021-04-13T13:16:40Z</time>
      </trkpt>
      <trkpt lat="45.01784" lon="3.62114">
        <ele>575</ele>
        <time>2021-04-13T13:16:45Z</time>
      </trkpt>
      <trkpt lat="45.01784" lon="3.62114">
        <ele>575</ele>
        <time>2021-04-13T13:16:48Z</time>
      </trkpt>
      <trkpt lat="45.01787" lon="3.62111">
        <ele>575</ele>
        <time>2021-04-13T13:16:55Z</time>
      </trkpt>
      <trkpt lat="45.01787" lon="3.6211">
        <ele>576</ele>
        <time>2021-04-13T13:16:58Z</time>
      </trkpt>
      <trkpt lat="45.01778" lon="3.62108">
        <ele>577</ele>
        <time>2021-04-13T13:17:37Z</time>
      </trkpt>
      <trkpt lat="45.01778" lon="3.62108">
        <ele>577</ele>
        <time>2021-04-13T13:17:40Z</time>
      </trkpt>
      <trkpt lat="45.01779" lon="3.62111">
        <ele>577</ele>
        <time>2021-04-13T13:18:15Z</time>
      </trkpt>
      <trkpt lat="45.01779" lon="3.62111">
        <ele>577</ele>
        <time>2021-04-13T13:18:18Z</time>
      </trkpt>
      <trkpt lat="45.01777" lon="3.62116">
        <ele>580</ele>
        <time>2021-04-13T13:19:25Z</time>
      </trkpt>
      <trkpt lat="45.01779" lon="3.62111">
        <ele>579</ele>
        <time>2021-04-13T13:19:30Z</time>
      </trkpt>
      <trkpt lat="45.01778" lon="3.62106">
        <ele>579</ele>
        <time>2021-04-13T13:19:33Z</time>
      </trkpt>
      <trkpt lat="45.01778" lon="3.62105">
        <ele>579</ele>
        <time>2021-04-13T13:19:34Z</time>
      </trkpt>
      <trkpt lat="45.01778" lon="3.62112">
        <ele>578</ele>
        <time>2021-04-13T13:19:47Z</time>
      </trkpt>
      <trkpt lat="45.01777" lon="3.62115">
        <ele>578</ele>
        <time>2021-04-13T13:19:49Z</time>
      </trkpt>
      <trkpt lat="45.01779" lon="3.62116">
        <ele>578</ele>
        <time>2021-04-13T13:19:50Z</time>
      </trkpt>
      <trkpt lat="45.01786" lon="3.62115">
        <ele>576</ele>
        <time>2021-04-13T13:20:07Z</time>
      </trkpt>
      <trkpt lat="45.01784" lon="3.62113">
        <ele>576</ele>
        <time>2021-04-13T13:20:16Z</time>
      </trkpt>
      <trkpt lat="45.01783" lon="3.6211">
        <ele>576</ele>
        <time>2021-04-13T13:20:17Z</time>
      </trkpt>
      <trkpt lat="45.01781" lon="3.62108">
        <ele>576</ele>
        <time>2021-04-13T13:20:18Z</time>
      </trkpt>
      <trkpt lat="45.0178" lon="3.62104">
        <ele>576</ele>
        <time>2021-04-13T13:20:19Z</time>
      </trkpt>
      <trkpt lat="45.01779" lon="3.621">
        <ele>576</ele>
        <time>2021-04-13T13:20:20Z</time>
      </trkpt>
      <trkpt lat="45.01778" lon="3.62097">
        <ele>576</ele>
        <time>2021-04-13T13:20:21Z</time>
      </trkpt>
      <trkpt lat="45.01777" lon="3.62093">
        <ele>577</ele>
        <time>2021-04-13T13:20:22Z</time>
      </trkpt>
      <trkpt lat="45.01778" lon="3.62088">
        <ele>577</ele>
        <time>2021-04-13T13:20:23Z</time>
      </trkpt>
      <trkpt lat="45.01777" lon="3.62071">
        <ele>583</ele>
        <time>2021-04-13T13:20:27Z</time>
      </trkpt>
      <trkpt lat="45.01776" lon="3.62067">
        <ele>584</ele>
        <time>2021-04-13T13:20:28Z</time>
      </trkpt>
      <trkpt lat="45.01776" lon="3.62064">
        <ele>586</ele>
        <time>2021-04-13T13:20:29Z</time>
      </trkpt>
      <trkpt lat="45.01776" lon="3.6206">
        <ele>587</ele>
        <time>2021-04-13T13:20:30Z</time>
      </trkpt>
      <trkpt lat="45.01776" lon="3.62056">
        <ele>588</ele>
        <time>2021-04-13T13:20:31Z</time>
      </trkpt>
      <trkpt lat="45.01776" lon="3.62053">
        <ele>590</ele>
        <time>2021-04-13T13:20:32Z</time>
      </trkpt>
      <trkpt lat="45.01776" lon="3.62049">
        <ele>591</ele>
        <time>2021-04-13T13:20:33Z</time>
      </trkpt>
      <trkpt lat="45.01776" lon="3.62045">
        <ele>592</ele>
        <time>2021-04-13T13:20:34Z</time>
      </trkpt>
      <trkpt lat="45.01778" lon="3.62038">
        <ele>593</ele>
        <time>2021-04-13T13:20:36Z</time>
      </trkpt>
      <trkpt lat="45.01779" lon="3.62035">
        <ele>594</ele>
        <time>2021-04-13T13:20:37Z</time>
      </trkpt>
      <trkpt lat="45.0178" lon="3.62032">
        <ele>595</ele>
        <time>2021-04-13T13:20:38Z</time>
      </trkpt>
      <trkpt lat="45.01781" lon="3.62029">
        <ele>595</ele>
        <time>2021-04-13T13:20:39Z</time>
      </trkpt>
      <trkpt lat="45.01782" lon="3.62025">
        <ele>595</ele>
        <time>2021-04-13T13:20:40Z</time>
      </trkpt>
      <trkpt lat="45.01783" lon="3.62022">
        <ele>596</ele>
        <time>2021-04-13T13:20:41Z</time>
      </trkpt>
      <trkpt lat="45.01785" lon="3.62019">
        <ele>596</ele>
        <time>2021-04-13T13:20:42Z</time>
      </trkpt>
      <trkpt lat="45.01786" lon="3.62016">
        <ele>596</ele>
        <time>2021-04-13T13:20:43Z</time>
      </trkpt>
      <trkpt lat="45.01792" lon="3.62001">
        <ele>597</ele>
        <time>2021-04-13T13:20:47Z</time>
      </trkpt>
      <trkpt lat="45.01794" lon="3.61998">
        <ele>598</ele>
        <time>2021-04-13T13:20:48Z</time>
      </trkpt>
      <trkpt lat="45.01796" lon="3.61996">
        <ele>598</ele>
        <time>2021-04-13T13:20:49Z</time>
      </trkpt>
      <trkpt lat="45.01799" lon="3.61994">
        <ele>598</ele>
        <time>2021-04-13T13:20:50Z</time>
      </trkpt>
      <trkpt lat="45.01802" lon="3.61993">
        <ele>598</ele>
        <time>2021-04-13T13:20:51Z</time>
      </trkpt>
      <trkpt lat="45.01806" lon="3.61991">
        <ele>599</ele>
        <time>2021-04-13T13:20:52Z</time>
      </trkpt>
      <trkpt lat="45.0181" lon="3.61988">
        <ele>599</ele>
        <time>2021-04-13T13:20:53Z</time>
      </trkpt>
      <trkpt lat="45.01815" lon="3.61985">
        <ele>599</ele>
        <time>2021-04-13T13:20:54Z</time>
      </trkpt>
      <trkpt lat="45.01823" lon="3.61979">
        <ele>599</ele>
        <time>2021-04-13T13:20:56Z</time>
      </trkpt>
      <trkpt lat="45.01826" lon="3.61977">
        <ele>599</ele>
        <time>2021-04-13T13:20:57Z</time>
      </trkpt>
      <trkpt lat="45.01828" lon="3.61975">
        <ele>599</ele>
        <time>2021-04-13T13:20:58Z</time>
      </trkpt>
      <trkpt lat="45.01832" lon="3.6197">
        <ele>599</ele>
        <time>2021-04-13T13:21:00Z</time>
      </trkpt>
      <trkpt lat="45.01835" lon="3.61966">
        <ele>599</ele>
        <time>2021-04-13T13:21:01Z</time>
      </trkpt>
      <trkpt lat="45.01838" lon="3.61961">
        <ele>598</ele>
        <time>2021-04-13T13:21:02Z</time>
      </trkpt>
      <trkpt lat="45.01842" lon="3.61955">
        <ele>598</ele>
        <time>2021-04-13T13:21:03Z</time>
      </trkpt>
      <trkpt lat="45.01845" lon="3.6195">
        <ele>598</ele>
        <time>2021-04-13T13:21:04Z</time>
      </trkpt>
      <trkpt lat="45.01853" lon="3.61921">
        <ele>597</ele>
        <time>2021-04-13T13:21:08Z</time>
      </trkpt>
      <trkpt lat="45.01854" lon="3.61912">
        <ele>597</ele>
        <time>2021-04-13T13:21:09Z</time>
      </trkpt>
      <trkpt lat="45.01856" lon="3.61904">
        <ele>597</ele>
        <time>2021-04-13T13:21:10Z</time>
      </trkpt>
      <trkpt lat="45.01857" lon="3.61895">
        <ele>597</ele>
        <time>2021-04-13T13:21:11Z</time>
      </trkpt>
      <trkpt lat="45.01857" lon="3.61887">
        <ele>597</ele>
        <time>2021-04-13T13:21:12Z</time>
      </trkpt>
      <trkpt lat="45.01857" lon="3.6188">
        <ele>597</ele>
        <time>2021-04-13T13:21:13Z</time>
      </trkpt>
      <trkpt lat="45.01856" lon="3.61873">
        <ele>596</ele>
        <time>2021-04-13T13:21:14Z</time>
      </trkpt>
      <trkpt lat="45.01857" lon="3.6186">
        <ele>596</ele>
        <time>2021-04-13T13:21:16Z</time>
      </trkpt>
      <trkpt lat="45.01859" lon="3.61831">
        <ele>595</ele>
        <time>2021-04-13T13:21:20Z</time>
      </trkpt>
      <trkpt lat="45.01861" lon="3.61813">
        <ele>594</ele>
        <time>2021-04-13T13:21:22Z</time>
      </trkpt>
      <trkpt lat="45.01864" lon="3.618">
        <ele>593</ele>
        <time>2021-04-13T13:21:24Z</time>
      </trkpt>
      <trkpt lat="45.01865" lon="3.61783">
        <ele>592</ele>
        <time>2021-04-13T13:21:27Z</time>
      </trkpt>
      <trkpt lat="45.01867" lon="3.61777">
        <ele>591</ele>
        <time>2021-04-13T13:21:28Z</time>
      </trkpt>
      <trkpt lat="45.01868" lon="3.6176">
        <ele>591</ele>
        <time>2021-04-13T13:21:30Z</time>
      </trkpt>
      <trkpt lat="45.01872" lon="3.61743">
        <ele>590</ele>
        <time>2021-04-13T13:21:32Z</time>
      </trkpt>
      <trkpt lat="45.01878" lon="3.61727">
        <ele>589</ele>
        <time>2021-04-13T13:21:34Z</time>
      </trkpt>
      <trkpt lat="45.01909" lon="3.6169">
        <ele>586</ele>
        <time>2021-04-13T13:21:42Z</time>
      </trkpt>
      <trkpt lat="45.01917" lon="3.61681">
        <ele>585</ele>
        <time>2021-04-13T13:21:44Z</time>
      </trkpt>
      <trkpt lat="45.01925" lon="3.61674">
        <ele>584</ele>
        <time>2021-04-13T13:21:46Z</time>
      </trkpt>
      <trkpt lat="45.01936" lon="3.61665">
        <ele>582</ele>
        <time>2021-04-13T13:21:49Z</time>
      </trkpt>
      <trkpt lat="45.0194" lon="3.61662">
        <ele>582</ele>
        <time>2021-04-13T13:21:50Z</time>
      </trkpt>
      <trkpt lat="45.0195" lon="3.61656">
        <ele>579</ele>
        <time>2021-04-13T13:21:55Z</time>
      </trkpt>
      <trkpt lat="45.01959" lon="3.61648">
        <ele>578</ele>
        <time>2021-04-13T13:21:58Z</time>
      </trkpt>
      <trkpt lat="45.0197" lon="3.61638">
        <ele>577</ele>
        <time>2021-04-13T13:22:01Z</time>
      </trkpt>
      <trkpt lat="45.01988" lon="3.61628">
        <ele>576</ele>
        <time>2021-04-13T13:22:05Z</time>
      </trkpt>
      <trkpt lat="45.01998" lon="3.61623">
        <ele>575</ele>
        <time>2021-04-13T13:22:07Z</time>
      </trkpt>
      <trkpt lat="45.02008" lon="3.61617">
        <ele>574</ele>
        <time>2021-04-13T13:22:09Z</time>
      </trkpt>
      <trkpt lat="45.02017" lon="3.6161">
        <ele>573</ele>
        <time>2021-04-13T13:22:11Z</time>
      </trkpt>
      <trkpt lat="45.02025" lon="3.61604">
        <ele>572</ele>
        <time>2021-04-13T13:22:13Z</time>
      </trkpt>
      <trkpt lat="45.02033" lon="3.61596">
        <ele>572</ele>
        <time>2021-04-13T13:22:15Z</time>
      </trkpt>
      <trkpt lat="45.0204" lon="3.61588">
        <ele>571</ele>
        <time>2021-04-13T13:22:17Z</time>
      </trkpt>
      <trkpt lat="45.02049" lon="3.61583">
        <ele>571</ele>
        <time>2021-04-13T13:22:19Z</time>
      </trkpt>
      <trkpt lat="45.02073" lon="3.61551">
        <ele>571</ele>
        <time>2021-04-13T13:22:31Z</time>
      </trkpt>
      <trkpt lat="45.02078" lon="3.61543">
        <ele>571</ele>
        <time>2021-04-13T13:22:35Z</time>
      </trkpt>
      <trkpt lat="45.02082" lon="3.61537">
        <ele>571</ele>
        <time>2021-04-13T13:22:37Z</time>
      </trkpt>
      <trkpt lat="45.02088" lon="3.61525">
        <ele>570</ele>
        <time>2021-04-13T13:22:39Z</time>
      </trkpt>
      <trkpt lat="45.02096" lon="3.61511">
        <ele>569</ele>
        <time>2021-04-13T13:22:41Z</time>
      </trkpt>
      <trkpt lat="45.02102" lon="3.61499">
        <ele>569</ele>
        <time>2021-04-13T13:22:44Z</time>
      </trkpt>
      <trkpt lat="45.02103" lon="3.61496">
        <ele>568</ele>
        <time>2021-04-13T13:22:45Z</time>
      </trkpt>
      <trkpt lat="45.02105" lon="3.61493">
        <ele>568</ele>
        <time>2021-04-13T13:22:46Z</time>
      </trkpt>
      <trkpt lat="45.0211" lon="3.61487">
        <ele>568</ele>
        <time>2021-04-13T13:22:48Z</time>
      </trkpt>
      <trkpt lat="45.02119" lon="3.61474">
        <ele>568</ele>
        <time>2021-04-13T13:22:51Z</time>
      </trkpt>
      <trkpt lat="45.02122" lon="3.6147">
        <ele>568</ele>
        <time>2021-04-13T13:22:52Z</time>
      </trkpt>
      <trkpt lat="45.02124" lon="3.61467">
        <ele>567</ele>
        <time>2021-04-13T13:22:53Z</time>
      </trkpt>
      <trkpt lat="45.02127" lon="3.61466">
        <ele>568</ele>
        <time>2021-04-13T13:22:54Z</time>
      </trkpt>
      <trkpt lat="45.02129" lon="3.61464">
        <ele>567</ele>
        <time>2021-04-13T13:22:55Z</time>
      </trkpt>
      <trkpt lat="45.02131" lon="3.61462">
        <ele>567</ele>
        <time>2021-04-13T13:22:56Z</time>
      </trkpt>
      <trkpt lat="45.02132" lon="3.61459">
        <ele>567</ele>
        <time>2021-04-13T13:22:57Z</time>
      </trkpt>
      <trkpt lat="45.02136" lon="3.61447">
        <ele>568</ele>
        <time>2021-04-13T13:23:02Z</time>
      </trkpt>
      <trkpt lat="45.02137" lon="3.61444">
        <ele>568</ele>
        <time>2021-04-13T13:23:03Z</time>
      </trkpt>
      <trkpt lat="45.02139" lon="3.6144">
        <ele>568</ele>
        <time>2021-04-13T13:23:04Z</time>
      </trkpt>
      <trkpt lat="45.02142" lon="3.61436">
        <ele>568</ele>
        <time>2021-04-13T13:23:05Z</time>
      </trkpt>
      <trkpt lat="45.02144" lon="3.61427">
        <ele>568</ele>
        <time>2021-04-13T13:23:06Z</time>
      </trkpt>
      <trkpt lat="45.02145" lon="3.61418">
        <ele>568</ele>
        <time>2021-04-13T13:23:07Z</time>
      </trkpt>
      <trkpt lat="45.02147" lon="3.61404">
        <ele>567</ele>
        <time>2021-04-13T13:23:09Z</time>
      </trkpt>
      <trkpt lat="45.02148" lon="3.61399">
        <ele>567</ele>
        <time>2021-04-13T13:23:10Z</time>
      </trkpt>
      <trkpt lat="45.02149" lon="3.61393">
        <ele>567</ele>
        <time>2021-04-13T13:23:12Z</time>
      </trkpt>
      <trkpt lat="45.02151" lon="3.6139">
        <ele>567</ele>
        <time>2021-04-13T13:23:14Z</time>
      </trkpt>
      <trkpt lat="45.02152" lon="3.61387">
        <ele>566</ele>
        <time>2021-04-13T13:23:16Z</time>
      </trkpt>
      <trkpt lat="45.02153" lon="3.61385">
        <ele>566</ele>
        <time>2021-04-13T13:23:17Z</time>
      </trkpt>
      <trkpt lat="45.02154" lon="3.61382">
        <ele>565</ele>
        <time>2021-04-13T13:23:18Z</time>
      </trkpt>
      <trkpt lat="45.02155" lon="3.61379">
        <ele>565</ele>
        <time>2021-04-13T13:23:19Z</time>
      </trkpt>
      <trkpt lat="45.02156" lon="3.61377">
        <ele>565</ele>
        <time>2021-04-13T13:23:20Z</time>
      </trkpt>
      <trkpt lat="45.02157" lon="3.61375">
        <ele>565</ele>
        <time>2021-04-13T13:23:21Z</time>
      </trkpt>
      <trkpt lat="45.02154" lon="3.61383">
        <ele>568</ele>
        <time>2021-04-13T13:23:50Z</time>
      </trkpt>
      <trkpt lat="45.02152" lon="3.61385">
        <ele>568</ele>
        <time>2021-04-13T13:23:52Z</time>
      </trkpt>
      <trkpt lat="45.02152" lon="3.61384">
        <ele>568</ele>
        <time>2021-04-13T13:23:57Z</time>
      </trkpt>
      <trkpt lat="45.02153" lon="3.61381">
        <ele>565</ele>
        <time>2021-04-13T13:24:34Z</time>
      </trkpt>
      <trkpt lat="45.02154" lon="3.61378">
        <ele>565</ele>
        <time>2021-04-13T13:24:35Z</time>
      </trkpt>
      <trkpt lat="45.02155" lon="3.61375">
        <ele>565</ele>
        <time>2021-04-13T13:24:36Z</time>
      </trkpt>
      <trkpt lat="45.02156" lon="3.61373">
        <ele>565</ele>
        <time>2021-04-13T13:24:37Z</time>
      </trkpt>
      <trkpt lat="45.02158" lon="3.6137">
        <ele>565</ele>
        <time>2021-04-13T13:24:38Z</time>
      </trkpt>
      <trkpt lat="45.02161" lon="3.61366">
        <ele>565</ele>
        <time>2021-04-13T13:24:43Z</time>
      </trkpt>
      <trkpt lat="45.02163" lon="3.61365">
        <ele>565</ele>
        <time>2021-04-13T13:24:46Z</time>
      </trkpt>
      <trkpt lat="45.02161" lon="3.61369">
        <ele>565</ele>
        <time>2021-04-13T13:25:14Z</time>
      </trkpt>
      <trkpt lat="45.02159" lon="3.61371">
        <ele>565</ele>
        <time>2021-04-13T13:25:15Z</time>
      </trkpt>
      <trkpt lat="45.02157" lon="3.61373">
        <ele>565</ele>
        <time>2021-04-13T13:25:16Z</time>
      </trkpt>
      <trkpt lat="45.02156" lon="3.61377">
        <ele>565</ele>
        <time>2021-04-13T13:25:17Z</time>
      </trkpt>
      <trkpt lat="45.02154" lon="3.61381">
        <ele>565</ele>
        <time>2021-04-13T13:25:18Z</time>
      </trkpt>
      <trkpt lat="45.02153" lon="3.61383">
        <ele>565</ele>
        <time>2021-04-13T13:25:19Z</time>
      </trkpt>
      <trkpt lat="45.0216" lon="3.61372">
        <ele>562</ele>
        <time>2021-04-13T13:26:03Z</time>
      </trkpt>
      <trkpt lat="45.0216" lon="3.61369">
        <ele>562</ele>
        <time>2021-04-13T13:26:06Z</time>
      </trkpt>
      <trkpt lat="45.02161" lon="3.61366">
        <ele>561</ele>
        <time>2021-04-13T13:26:09Z</time>
      </trkpt>
      <trkpt lat="45.02163" lon="3.61364">
        <ele>562</ele>
        <time>2021-04-13T13:26:12Z</time>
      </trkpt>
      <trkpt lat="45.0217" lon="3.61352">
        <ele>562</ele>
        <time>2021-04-13T13:26:34Z</time>
      </trkpt>
      <trkpt lat="45.02171" lon="3.6135">
        <ele>562</ele>
        <time>2021-04-13T13:26:36Z</time>
      </trkpt>
      <trkpt lat="45.02173" lon="3.61352">
        <ele>563</ele>
        <time>2021-04-13T13:26:44Z</time>
      </trkpt>
      <trkpt lat="45.02175" lon="3.61352">
        <ele>563</ele>
        <time>2021-04-13T13:26:47Z</time>
      </trkpt>
      <trkpt lat="45.02177" lon="3.61348">
        <ele>564</ele>
        <time>2021-04-13T13:26:55Z</time>
      </trkpt>
      <trkpt lat="45.02181" lon="3.61338">
        <ele>564</ele>
        <time>2021-04-13T13:27:06Z</time>
      </trkpt>
      <trkpt lat="45.02184" lon="3.61337">
        <ele>564</ele>
        <time>2021-04-13T13:27:08Z</time>
      </trkpt>
      <trkpt lat="45.02186" lon="3.61336">
        <ele>564</ele>
        <time>2021-04-13T13:27:13Z</time>
      </trkpt>
      <trkpt lat="45.02191" lon="3.61331">
        <ele>564</ele>
        <time>2021-04-13T13:27:18Z</time>
      </trkpt>
      <trkpt lat="45.02194" lon="3.61329">
        <ele>564</ele>
        <time>2021-04-13T13:27:20Z</time>
      </trkpt>
      <trkpt lat="45.02197" lon="3.61327">
        <ele>565</ele>
        <time>2021-04-13T13:27:21Z</time>
      </trkpt>
      <trkpt lat="45.022" lon="3.61324">
        <ele>565</ele>
        <time>2021-04-13T13:27:22Z</time>
      </trkpt>
      <trkpt lat="45.02218" lon="3.61308">
        <ele>565</ele>
        <time>2021-04-13T13:27:26Z</time>
      </trkpt>
      <trkpt lat="45.02221" lon="3.61303">
        <ele>565</ele>
        <time>2021-04-13T13:27:27Z</time>
      </trkpt>
      <trkpt lat="45.02223" lon="3.61299">
        <ele>565</ele>
        <time>2021-04-13T13:27:28Z</time>
      </trkpt>
      <trkpt lat="45.02226" lon="3.61296">
        <ele>565</ele>
        <time>2021-04-13T13:27:29Z</time>
      </trkpt>
      <trkpt lat="45.02228" lon="3.61292">
        <ele>565</ele>
        <time>2021-04-13T13:27:30Z</time>
      </trkpt>
      <trkpt lat="45.02229" lon="3.61288">
        <ele>565</ele>
        <time>2021-04-13T13:27:31Z</time>
      </trkpt>
      <trkpt lat="45.02231" lon="3.61285">
        <ele>565</ele>
        <time>2021-04-13T13:27:32Z</time>
      </trkpt>
      <trkpt lat="45.02236" lon="3.61279">
        <ele>564</ele>
        <time>2021-04-13T13:27:34Z</time>
      </trkpt>
      <trkpt lat="45.0224" lon="3.61274">
        <ele>565</ele>
        <time>2021-04-13T13:27:36Z</time>
      </trkpt>
      <trkpt lat="45.02242" lon="3.61272">
        <ele>565</ele>
        <time>2021-04-13T13:27:37Z</time>
      </trkpt>
      <trkpt lat="45.02244" lon="3.6127">
        <ele>565</ele>
        <time>2021-04-13T13:27:38Z</time>
      </trkpt>
      <trkpt lat="45.02246" lon="3.61268">
        <ele>565</ele>
        <time>2021-04-13T13:27:39Z</time>
      </trkpt>
      <trkpt lat="45.02248" lon="3.61267">
        <ele>565</ele>
        <time>2021-04-13T13:27:40Z</time>
      </trkpt>
      <trkpt lat="45.02251" lon="3.61265">
        <ele>565</ele>
        <time>2021-04-13T13:27:41Z</time>
      </trkpt>
      <trkpt lat="45.02253" lon="3.61263">
        <ele>565</ele>
        <time>2021-04-13T13:27:42Z</time>
      </trkpt>
      <trkpt lat="45.02255" lon="3.6126">
        <ele>565</ele>
        <time>2021-04-13T13:27:43Z</time>
      </trkpt>
      <trkpt lat="45.02261" lon="3.61247">
        <ele>565</ele>
        <time>2021-04-13T13:27:47Z</time>
      </trkpt>
      <trkpt lat="45.02263" lon="3.61243">
        <ele>565</ele>
        <time>2021-04-13T13:27:48Z</time>
      </trkpt>
      <trkpt lat="45.02265" lon="3.61238">
        <ele>565</ele>
        <time>2021-04-13T13:27:49Z</time>
      </trkpt>
      <trkpt lat="45.02266" lon="3.61233">
        <ele>565</ele>
        <time>2021-04-13T13:27:50Z</time>
      </trkpt>
      <trkpt lat="45.02268" lon="3.61227">
        <ele>565</ele>
        <time>2021-04-13T13:27:51Z</time>
      </trkpt>
      <trkpt lat="45.0227" lon="3.61212">
        <ele>565</ele>
        <time>2021-04-13T13:27:53Z</time>
      </trkpt>
      <trkpt lat="45.02273" lon="3.61203">
        <ele>565</ele>
        <time>2021-04-13T13:27:54Z</time>
      </trkpt>
      <trkpt lat="45.02274" lon="3.61194">
        <ele>564</ele>
        <time>2021-04-13T13:27:55Z</time>
      </trkpt>
      <trkpt lat="45.02277" lon="3.61183">
        <ele>564</ele>
        <time>2021-04-13T13:27:57Z</time>
      </trkpt>
      <trkpt lat="45.02278" lon="3.6118">
        <ele>564</ele>
        <time>2021-04-13T13:27:58Z</time>
      </trkpt>
      <trkpt lat="45.02279" lon="3.61176">
        <ele>564</ele>
        <time>2021-04-13T13:27:59Z</time>
      </trkpt>
      <trkpt lat="45.02281" lon="3.61173">
        <ele>564</ele>
        <time>2021-04-13T13:28:00Z</time>
      </trkpt>
      <trkpt lat="45.02282" lon="3.6117">
        <ele>564</ele>
        <time>2021-04-13T13:28:01Z</time>
      </trkpt>
      <trkpt lat="45.02281" lon="3.61165">
        <ele>564</ele>
        <time>2021-04-13T13:28:02Z</time>
      </trkpt>
      <trkpt lat="45.02281" lon="3.61161">
        <ele>564</ele>
        <time>2021-04-13T13:28:03Z</time>
      </trkpt>
      <trkpt lat="45.02281" lon="3.61156">
        <ele>564</ele>
        <time>2021-04-13T13:28:04Z</time>
      </trkpt>
      <trkpt lat="45.02278" lon="3.61116">
        <ele>564</ele>
        <time>2021-04-13T13:28:11Z</time>
      </trkpt>
      <trkpt lat="45.02278" lon="3.61107">
        <ele>564</ele>
        <time>2021-04-13T13:28:12Z</time>
      </trkpt>
      <trkpt lat="45.0228" lon="3.61099">
        <ele>564</ele>
        <time>2021-04-13T13:28:13Z</time>
      </trkpt>
      <trkpt lat="45.02281" lon="3.61092">
        <ele>563</ele>
        <time>2021-04-13T13:28:14Z</time>
      </trkpt>
      <trkpt lat="45.02281" lon="3.61088">
        <ele>563</ele>
        <time>2021-04-13T13:28:15Z</time>
      </trkpt>
      <trkpt lat="45.02282" lon="3.61085">
        <ele>563</ele>
        <time>2021-04-13T13:28:16Z</time>
      </trkpt>
      <trkpt lat="45.02283" lon="3.61083">
        <ele>564</ele>
        <time>2021-04-13T13:28:17Z</time>
      </trkpt>
      <trkpt lat="45.02285" lon="3.6108">
        <ele>564</ele>
        <time>2021-04-13T13:28:18Z</time>
      </trkpt>
      <trkpt lat="45.02287" lon="3.61075">
        <ele>564</ele>
        <time>2021-04-13T13:28:20Z</time>
      </trkpt>
      <trkpt lat="45.02288" lon="3.61071">
        <ele>564</ele>
        <time>2021-04-13T13:28:21Z</time>
      </trkpt>
      <trkpt lat="45.02289" lon="3.61068">
        <ele>564</ele>
        <time>2021-04-13T13:28:22Z</time>
      </trkpt>
      <trkpt lat="45.0229" lon="3.61064">
        <ele>564</ele>
        <time>2021-04-13T13:28:23Z</time>
      </trkpt>
      <trkpt lat="45.02292" lon="3.61061">
        <ele>564</ele>
        <time>2021-04-13T13:28:24Z</time>
      </trkpt>
      <trkpt lat="45.02293" lon="3.61058">
        <ele>564</ele>
        <time>2021-04-13T13:28:25Z</time>
      </trkpt>
      <trkpt lat="45.02294" lon="3.61055">
        <ele>564</ele>
        <time>2021-04-13T13:28:26Z</time>
      </trkpt>
      <trkpt lat="45.02295" lon="3.61052">
        <ele>564</ele>
        <time>2021-04-13T13:28:27Z</time>
      </trkpt>
      <trkpt lat="45.02293" lon="3.61035">
        <ele>564</ele>
        <time>2021-04-13T13:28:31Z</time>
      </trkpt>
      <trkpt lat="45.02292" lon="3.61031">
        <ele>564</ele>
        <time>2021-04-13T13:28:32Z</time>
      </trkpt>
      <trkpt lat="45.02292" lon="3.61027">
        <ele>564</ele>
        <time>2021-04-13T13:28:33Z</time>
      </trkpt>
      <trkpt lat="45.02293" lon="3.61024">
        <ele>564</ele>
        <time>2021-04-13T13:28:35Z</time>
      </trkpt>
      <trkpt lat="45.02296" lon="3.61019">
        <ele>564</ele>
        <time>2021-04-13T13:28:37Z</time>
      </trkpt>
      <trkpt lat="45.02296" lon="3.61017">
        <ele>564</ele>
        <time>2021-04-13T13:28:38Z</time>
      </trkpt>
      <trkpt lat="45.02297" lon="3.61012">
        <ele>564</ele>
        <time>2021-04-13T13:28:40Z</time>
      </trkpt>
      <trkpt lat="45.02299" lon="3.6101">
        <ele>564</ele>
        <time>2021-04-13T13:28:41Z</time>
      </trkpt>
      <trkpt lat="45.02301" lon="3.61">
        <ele>564</ele>
        <time>2021-04-13T13:28:45Z</time>
      </trkpt>
      <trkpt lat="45.02302" lon="3.60994">
        <ele>564</ele>
        <time>2021-04-13T13:28:46Z</time>
      </trkpt>
      <trkpt lat="45.02302" lon="3.60989">
        <ele>564</ele>
        <time>2021-04-13T13:28:47Z</time>
      </trkpt>
      <trkpt lat="45.02302" lon="3.60986">
        <ele>564</ele>
        <time>2021-04-13T13:28:48Z</time>
      </trkpt>
      <trkpt lat="45.02302" lon="3.60983">
        <ele>564</ele>
        <time>2021-04-13T13:28:49Z</time>
      </trkpt>
      <trkpt lat="45.02301" lon="3.6098">
        <ele>564</ele>
        <time>2021-04-13T13:28:50Z</time>
      </trkpt>
      <trkpt lat="45.02301" lon="3.60976">
        <ele>564</ele>
        <time>2021-04-13T13:28:51Z</time>
      </trkpt>
      <trkpt lat="45.02301" lon="3.60972">
        <ele>564</ele>
        <time>2021-04-13T13:28:52Z</time>
      </trkpt>
      <trkpt lat="45.02305" lon="3.60958">
        <ele>563</ele>
        <time>2021-04-13T13:28:56Z</time>
      </trkpt>
      <trkpt lat="45.02307" lon="3.60955">
        <ele>563</ele>
        <time>2021-04-13T13:28:57Z</time>
      </trkpt>
      <trkpt lat="45.0231" lon="3.60951">
        <ele>563</ele>
        <time>2021-04-13T13:28:58Z</time>
      </trkpt>
      <trkpt lat="45.02312" lon="3.60947">
        <ele>563</ele>
        <time>2021-04-13T13:28:59Z</time>
      </trkpt>
      <trkpt lat="45.02313" lon="3.60943">
        <ele>563</ele>
        <time>2021-04-13T13:29:00Z</time>
      </trkpt>
      <trkpt lat="45.02314" lon="3.60939">
        <ele>563</ele>
        <time>2021-04-13T13:29:01Z</time>
      </trkpt>
      <trkpt lat="45.02315" lon="3.60933">
        <ele>563</ele>
        <time>2021-04-13T13:29:02Z</time>
      </trkpt>
      <trkpt lat="45.02316" lon="3.60926">
        <ele>563</ele>
        <time>2021-04-13T13:29:03Z</time>
      </trkpt>
      <trkpt lat="45.02319" lon="3.60916">
        <ele>563</ele>
        <time>2021-04-13T13:29:05Z</time>
      </trkpt>
      <trkpt lat="45.0232" lon="3.60912">
        <ele>563</ele>
        <time>2021-04-13T13:29:06Z</time>
      </trkpt>
      <trkpt lat="45.0232" lon="3.60908">
        <ele>563</ele>
        <time>2021-04-13T13:29:07Z</time>
      </trkpt>
      <trkpt lat="45.0232" lon="3.60903">
        <ele>563</ele>
        <time>2021-04-13T13:29:08Z</time>
      </trkpt>
      <trkpt lat="45.0232" lon="3.60897">
        <ele>563</ele>
        <time>2021-04-13T13:29:09Z</time>
      </trkpt>
      <trkpt lat="45.02321" lon="3.60892">
        <ele>563</ele>
        <time>2021-04-13T13:29:10Z</time>
      </trkpt>
      <trkpt lat="45.02323" lon="3.60888">
        <ele>563</ele>
        <time>2021-04-13T13:29:11Z</time>
      </trkpt>
      <trkpt lat="45.02325" lon="3.60884">
        <ele>563</ele>
        <time>2021-04-13T13:29:12Z</time>
      </trkpt>
      <trkpt lat="45.02329" lon="3.60864">
        <ele>562</ele>
        <time>2021-04-13T13:29:16Z</time>
      </trkpt>
      <trkpt lat="45.0233" lon="3.6086">
        <ele>561</ele>
        <time>2021-04-13T13:29:17Z</time>
      </trkpt>
      <trkpt lat="45.02332" lon="3.60857">
        <ele>561</ele>
        <time>2021-04-13T13:29:18Z</time>
      </trkpt>
      <trkpt lat="45.02334" lon="3.60854">
        <ele>561</ele>
        <time>2021-04-13T13:29:19Z</time>
      </trkpt>
      <trkpt lat="45.02335" lon="3.60851">
        <ele>561</ele>
        <time>2021-04-13T13:29:20Z</time>
      </trkpt>
      <trkpt lat="45.02337" lon="3.60849">
        <ele>561</ele>
        <time>2021-04-13T13:29:21Z</time>
      </trkpt>
      <trkpt lat="45.02338" lon="3.60847">
        <ele>561</ele>
        <time>2021-04-13T13:29:22Z</time>
      </trkpt>
      <trkpt lat="45.02339" lon="3.60845">
        <ele>561</ele>
        <time>2021-04-13T13:29:23Z</time>
      </trkpt>
      <trkpt lat="45.02342" lon="3.6084">
        <ele>562</ele>
        <time>2021-04-13T13:29:28Z</time>
      </trkpt>
      <trkpt lat="45.02343" lon="3.60837">
        <ele>563</ele>
        <time>2021-04-13T13:29:32Z</time>
      </trkpt>
      <trkpt lat="45.02343" lon="3.60834">
        <ele>563</ele>
        <time>2021-04-13T13:29:33Z</time>
      </trkpt>
      <trkpt lat="45.02344" lon="3.6083">
        <ele>563</ele>
        <time>2021-04-13T13:29:34Z</time>
      </trkpt>
      <trkpt lat="45.02345" lon="3.60827">
        <ele>563</ele>
        <time>2021-04-13T13:29:35Z</time>
      </trkpt>
      <trkpt lat="45.02346" lon="3.60823">
        <ele>563</ele>
        <time>2021-04-13T13:29:36Z</time>
      </trkpt>
      <trkpt lat="45.02347" lon="3.6082">
        <ele>563</ele>
        <time>2021-04-13T13:29:37Z</time>
      </trkpt>
      <trkpt lat="45.02348" lon="3.60816">
        <ele>563</ele>
        <time>2021-04-13T13:29:38Z</time>
      </trkpt>
      <trkpt lat="45.02352" lon="3.608">
        <ele>563</ele>
        <time>2021-04-13T13:29:43Z</time>
      </trkpt>
      <trkpt lat="45.02353" lon="3.60797">
        <ele>563</ele>
        <time>2021-04-13T13:29:44Z</time>
      </trkpt>
      <trkpt lat="45.02353" lon="3.60793">
        <ele>564</ele>
        <time>2021-04-13T13:29:45Z</time>
      </trkpt>
      <trkpt lat="45.02354" lon="3.60789">
        <ele>564</ele>
        <time>2021-04-13T13:29:46Z</time>
      </trkpt>
      <trkpt lat="45.02354" lon="3.60784">
        <ele>564</ele>
        <time>2021-04-13T13:29:47Z</time>
      </trkpt>
      <trkpt lat="45.02355" lon="3.6078">
        <ele>564</ele>
        <time>2021-04-13T13:29:48Z</time>
      </trkpt>
      <trkpt lat="45.02356" lon="3.60775">
        <ele>564</ele>
        <time>2021-04-13T13:29:49Z</time>
      </trkpt>
      <trkpt lat="45.02356" lon="3.60771">
        <ele>564</ele>
        <time>2021-04-13T13:29:50Z</time>
      </trkpt>
      <trkpt lat="45.02356" lon="3.60762">
        <ele>564</ele>
        <time>2021-04-13T13:29:52Z</time>
      </trkpt>
      <trkpt lat="45.02357" lon="3.60756">
        <ele>564</ele>
        <time>2021-04-13T13:29:53Z</time>
      </trkpt>
      <trkpt lat="45.02356" lon="3.60751">
        <ele>565</ele>
        <time>2021-04-13T13:29:54Z</time>
      </trkpt>
      <trkpt lat="45.02356" lon="3.60745">
        <ele>565</ele>
        <time>2021-04-13T13:29:55Z</time>
      </trkpt>
      <trkpt lat="45.02356" lon="3.60741">
        <ele>565</ele>
        <time>2021-04-13T13:29:56Z</time>
      </trkpt>
      <trkpt lat="45.02356" lon="3.60737">
        <ele>565</ele>
        <time>2021-04-13T13:29:57Z</time>
      </trkpt>
      <trkpt lat="45.02356" lon="3.60732">
        <ele>565</ele>
        <time>2021-04-13T13:29:58Z</time>
      </trkpt>
      <trkpt lat="45.02356" lon="3.60727">
        <ele>565</ele>
        <time>2021-04-13T13:29:59Z</time>
      </trkpt>
      <trkpt lat="45.02354" lon="3.60703">
        <ele>565</ele>
        <time>2021-04-13T13:30:03Z</time>
      </trkpt>
      <trkpt lat="45.02354" lon="3.60697">
        <ele>565</ele>
        <time>2021-04-13T13:30:04Z</time>
      </trkpt>
      <trkpt lat="45.02354" lon="3.60691">
        <ele>565</ele>
        <time>2021-04-13T13:30:05Z</time>
      </trkpt>
      <trkpt lat="45.02354" lon="3.60681">
        <ele>565</ele>
        <time>2021-04-13T13:30:07Z</time>
      </trkpt>
      <trkpt lat="45.02354" lon="3.60675">
        <ele>565</ele>
        <time>2021-04-13T13:30:08Z</time>
      </trkpt>
      <trkpt lat="45.02356" lon="3.6067">
        <ele>566</ele>
        <time>2021-04-13T13:30:09Z</time>
      </trkpt>
      <trkpt lat="45.02356" lon="3.60663">
        <ele>566</ele>
        <time>2021-04-13T13:30:10Z</time>
      </trkpt>
      <trkpt lat="45.02356" lon="3.60656">
        <ele>566</ele>
        <time>2021-04-13T13:30:11Z</time>
      </trkpt>
      <trkpt lat="45.02356" lon="3.60641">
        <ele>565</ele>
        <time>2021-04-13T13:30:13Z</time>
      </trkpt>
      <trkpt lat="45.02356" lon="3.60633">
        <ele>565</ele>
        <time>2021-04-13T13:30:14Z</time>
      </trkpt>
      <trkpt lat="45.02356" lon="3.60627">
        <ele>565</ele>
        <time>2021-04-13T13:30:15Z</time>
      </trkpt>
      <trkpt lat="45.02355" lon="3.60624">
        <ele>565</ele>
        <time>2021-04-13T13:30:16Z</time>
      </trkpt>
      <trkpt lat="45.02355" lon="3.60621">
        <ele>565</ele>
        <time>2021-04-13T13:30:17Z</time>
      </trkpt>
      <trkpt lat="45.02354" lon="3.60616">
        <ele>565</ele>
        <time>2021-04-13T13:30:19Z</time>
      </trkpt>
      <trkpt lat="45.02353" lon="3.60613">
        <ele>565</ele>
        <time>2021-04-13T13:30:20Z</time>
      </trkpt>
      <trkpt lat="45.02353" lon="3.60609">
        <ele>565</ele>
        <time>2021-04-13T13:30:21Z</time>
      </trkpt>
      <trkpt lat="45.02351" lon="3.60594">
        <ele>565</ele>
        <time>2021-04-13T13:30:25Z</time>
      </trkpt>
      <trkpt lat="45.0235" lon="3.6059">
        <ele>565</ele>
        <time>2021-04-13T13:30:26Z</time>
      </trkpt>
      <trkpt lat="45.02348" lon="3.60586">
        <ele>565</ele>
        <time>2021-04-13T13:30:27Z</time>
      </trkpt>
      <trkpt lat="45.02346" lon="3.60583">
        <ele>565</ele>
        <time>2021-04-13T13:30:28Z</time>
      </trkpt>
      <trkpt lat="45.02345" lon="3.60579">
        <ele>565</ele>
        <time>2021-04-13T13:30:29Z</time>
      </trkpt>
      <trkpt lat="45.02344" lon="3.60575">
        <ele>565</ele>
        <time>2021-04-13T13:30:30Z</time>
      </trkpt>
      <trkpt lat="45.02344" lon="3.6057">
        <ele>565</ele>
        <time>2021-04-13T13:30:31Z</time>
      </trkpt>
      <trkpt lat="45.02343" lon="3.60566">
        <ele>565</ele>
        <time>2021-04-13T13:30:32Z</time>
      </trkpt>
      <trkpt lat="45.02343" lon="3.60558">
        <ele>565</ele>
        <time>2021-04-13T13:30:34Z</time>
      </trkpt>
      <trkpt lat="45.02344" lon="3.60554">
        <ele>565</ele>
        <time>2021-04-13T13:30:35Z</time>
      </trkpt>
      <trkpt lat="45.02344" lon="3.6055">
        <ele>565</ele>
        <time>2021-04-13T13:30:36Z</time>
      </trkpt>
      <trkpt lat="45.02344" lon="3.60546">
        <ele>565</ele>
        <time>2021-04-13T13:30:37Z</time>
      </trkpt>
      <trkpt lat="45.02343" lon="3.60543">
        <ele>565</ele>
        <time>2021-04-13T13:30:38Z</time>
      </trkpt>
      <trkpt lat="45.02343" lon="3.60539">
        <ele>565</ele>
        <time>2021-04-13T13:30:39Z</time>
      </trkpt>
      <trkpt lat="45.02342" lon="3.60532">
        <ele>565</ele>
        <time>2021-04-13T13:30:40Z</time>
      </trkpt>
      <trkpt lat="45.02341" lon="3.60526">
        <ele>565</ele>
        <time>2021-04-13T13:30:41Z</time>
      </trkpt>
      <trkpt lat="45.02339" lon="3.60507">
        <ele>565</ele>
        <time>2021-04-13T13:30:45Z</time>
      </trkpt>
      <trkpt lat="45.02338" lon="3.60503">
        <ele>565</ele>
        <time>2021-04-13T13:30:46Z</time>
      </trkpt>
      <trkpt lat="45.02338" lon="3.60499">
        <ele>565</ele>
        <time>2021-04-13T13:30:47Z</time>
      </trkpt>
      <trkpt lat="45.02337" lon="3.60497">
        <ele>565</ele>
        <time>2021-04-13T13:30:48Z</time>
      </trkpt>
      <trkpt lat="45.02336" lon="3.60494">
        <ele>565</ele>
        <time>2021-04-13T13:30:49Z</time>
      </trkpt>
      <trkpt lat="45.02335" lon="3.60485">
        <ele>553.5</ele>
      </trkpt>
      <trkpt lat="45.02332" lon="3.60473">
        <ele>566</ele>
        <time>2021-04-13T13:33:36Z</time>
      </trkpt>
      <trkpt lat="45.02332" lon="3.60469">
        <ele>566</ele>
        <time>2021-04-13T13:33:37Z</time>
      </trkpt>
      <trkpt lat="45.02332" lon="3.6046">
        <ele>566</ele>
        <time>2021-04-13T13:33:39Z</time>
      </trkpt>
      <trkpt lat="45.02332" lon="3.60456">
        <ele>566</ele>
        <time>2021-04-13T13:33:40Z</time>
      </trkpt>
      <trkpt lat="45.02332" lon="3.60452">
        <ele>566</ele>
        <time>2021-04-13T13:33:41Z</time>
      </trkpt>
      <trkpt lat="45.02333" lon="3.60449">
        <ele>565</ele>
        <time>2021-04-13T13:33:43Z</time>
      </trkpt>
      <trkpt lat="45.02334" lon="3.60444">
        <ele>565</ele>
        <time>2021-04-13T13:33:45Z</time>
      </trkpt>
      <trkpt lat="45.02335" lon="3.60441">
        <ele>565</ele>
        <time>2021-04-13T13:33:47Z</time>
      </trkpt>
      <trkpt lat="45.02339" lon="3.60432">
        <ele>565</ele>
        <time>2021-04-13T13:34:16Z</time>
      </trkpt>
      <trkpt lat="45.0234" lon="3.60427">
        <ele>565</ele>
        <time>2021-04-13T13:34:17Z</time>
      </trkpt>
      <trkpt lat="45.02338" lon="3.60404">
        <ele>565</ele>
        <time>2021-04-13T13:34:21Z</time>
      </trkpt>
      <trkpt lat="45.02338" lon="3.604">
        <ele>565</ele>
        <time>2021-04-13T13:34:22Z</time>
      </trkpt>
      <trkpt lat="45.02336" lon="3.60394">
        <ele>565</ele>
        <time>2021-04-13T13:34:23Z</time>
      </trkpt>
      <trkpt lat="45.02335" lon="3.6039">
        <ele>565</ele>
        <time>2021-04-13T13:34:24Z</time>
      </trkpt>
      <trkpt lat="45.02336" lon="3.60387">
        <ele>565</ele>
        <time>2021-04-13T13:34:25Z</time>
      </trkpt>
      <trkpt lat="45.02338" lon="3.60383">
        <ele>565</ele>
        <time>2021-04-13T13:34:27Z</time>
      </trkpt>
      <trkpt lat="45.0234" lon="3.6038">
        <ele>564</ele>
        <time>2021-04-13T13:34:29Z</time>
      </trkpt>
      <trkpt lat="45.02343" lon="3.60376">
        <ele>564</ele>
        <time>2021-04-13T13:34:31Z</time>
      </trkpt>
      <trkpt lat="45.02344" lon="3.60371">
        <ele>565</ele>
        <time>2021-04-13T13:34:33Z</time>
      </trkpt>
      <trkpt lat="45.02345" lon="3.60368">
        <ele>565</ele>
        <time>2021-04-13T13:34:34Z</time>
      </trkpt>
      <trkpt lat="45.02346" lon="3.60364">
        <ele>565</ele>
        <time>2021-04-13T13:34:35Z</time>
      </trkpt>
      <trkpt lat="45.02347" lon="3.60359">
        <ele>565</ele>
        <time>2021-04-13T13:34:36Z</time>
      </trkpt>
      <trkpt lat="45.02347" lon="3.60354">
        <ele>565</ele>
        <time>2021-04-13T13:34:37Z</time>
      </trkpt>
      <trkpt lat="45.02348" lon="3.60349">
        <ele>565</ele>
        <time>2021-04-13T13:34:38Z</time>
      </trkpt>
      <trkpt lat="45.02349" lon="3.60345">
        <ele>566</ele>
        <time>2021-04-13T13:34:39Z</time>
      </trkpt>
      <trkpt lat="45.0235" lon="3.60342">
        <ele>566</ele>
        <time>2021-04-13T13:34:40Z</time>
      </trkpt>
      <trkpt lat="45.02357" lon="3.60331">
        <ele>566</ele>
        <time>2021-04-13T13:34:44Z</time>
      </trkpt>
      <trkpt lat="45.02358" lon="3.60328">
        <ele>566</ele>
        <time>2021-04-13T13:34:45Z</time>
      </trkpt>
      <trkpt lat="45.02359" lon="3.60325">
        <ele>566</ele>
        <time>2021-04-13T13:34:46Z</time>
      </trkpt>
      <trkpt lat="45.0236" lon="3.60321">
        <ele>566</ele>
        <time>2021-04-13T13:34:47Z</time>
      </trkpt>
      <trkpt lat="45.02362" lon="3.60318">
        <ele>566</ele>
        <time>2021-04-13T13:34:48Z</time>
      </trkpt>
      <trkpt lat="45.02363" lon="3.60315">
        <ele>566</ele>
        <time>2021-04-13T13:34:49Z</time>
      </trkpt>
      <trkpt lat="45.02364" lon="3.60312">
        <ele>566</ele>
        <time>2021-04-13T13:34:50Z</time>
      </trkpt>
      <trkpt lat="45.02365" lon="3.60308">
        <ele>566</ele>
        <time>2021-04-13T13:34:51Z</time>
      </trkpt>
      <trkpt lat="45.02367" lon="3.60298">
        <ele>566</ele>
        <time>2021-04-13T13:34:53Z</time>
      </trkpt>
      <trkpt lat="45.02368" lon="3.60293">
        <ele>566</ele>
        <time>2021-04-13T13:34:54Z</time>
      </trkpt>
      <trkpt lat="45.02369" lon="3.60288">
        <ele>566</ele>
        <time>2021-04-13T13:34:55Z</time>
      </trkpt>
      <trkpt lat="45.0237" lon="3.60284">
        <ele>566</ele>
        <time>2021-04-13T13:34:56Z</time>
      </trkpt>
      <trkpt lat="45.02371" lon="3.6028">
        <ele>566</ele>
        <time>2021-04-13T13:34:57Z</time>
      </trkpt>
      <trkpt lat="45.02371" lon="3.60277">
        <ele>566</ele>
        <time>2021-04-13T13:34:58Z</time>
      </trkpt>
      <trkpt lat="45.02372" lon="3.60273">
        <ele>566</ele>
        <time>2021-04-13T13:34:59Z</time>
      </trkpt>
      <trkpt lat="45.02373" lon="3.60269">
        <ele>567</ele>
        <time>2021-04-13T13:35:00Z</time>
      </trkpt>
      <trkpt lat="45.02377" lon="3.60252">
        <ele>567</ele>
        <time>2021-04-13T13:35:04Z</time>
      </trkpt>
      <trkpt lat="45.02378" lon="3.60248">
        <ele>567</ele>
        <time>2021-04-13T13:35:05Z</time>
      </trkpt>
      <trkpt lat="45.02379" lon="3.60246">
        <ele>567</ele>
        <time>2021-04-13T13:35:06Z</time>
      </trkpt>
      <trkpt lat="45.0238" lon="3.60243">
        <ele>567</ele>
        <time>2021-04-13T13:35:07Z</time>
      </trkpt>
      <trkpt lat="45.02381" lon="3.60239">
        <ele>567</ele>
        <time>2021-04-13T13:35:08Z</time>
      </trkpt>
      <trkpt lat="45.02383" lon="3.60235">
        <ele>567</ele>
        <time>2021-04-13T13:35:09Z</time>
      </trkpt>
      <trkpt lat="45.02385" lon="3.60231">
        <ele>567</ele>
        <time>2021-04-13T13:35:10Z</time>
      </trkpt>
      <trkpt lat="45.02387" lon="3.60227">
        <ele>567</ele>
        <time>2021-04-13T13:35:11Z</time>
      </trkpt>
      <trkpt lat="45.0239" lon="3.60219">
        <ele>567</ele>
        <time>2021-04-13T13:35:13Z</time>
      </trkpt>
      <trkpt lat="45.02391" lon="3.60215">
        <ele>567</ele>
        <time>2021-04-13T13:35:14Z</time>
      </trkpt>
      <trkpt lat="45.02393" lon="3.60212">
        <ele>567</ele>
        <time>2021-04-13T13:35:15Z</time>
      </trkpt>
      <trkpt lat="45.02395" lon="3.60209">
        <ele>567</ele>
        <time>2021-04-13T13:35:16Z</time>
      </trkpt>
      <trkpt lat="45.02397" lon="3.60206">
        <ele>567</ele>
        <time>2021-04-13T13:35:17Z</time>
      </trkpt>
      <trkpt lat="45.02398" lon="3.60203">
        <ele>567</ele>
        <time>2021-04-13T13:35:18Z</time>
      </trkpt>
      <trkpt lat="45.024" lon="3.602">
        <ele>567</ele>
        <time>2021-04-13T13:35:19Z</time>
      </trkpt>
      <trkpt lat="45.02401" lon="3.60196">
        <ele>567</ele>
        <time>2021-04-13T13:35:20Z</time>
      </trkpt>
      <trkpt lat="45.02404" lon="3.60182">
        <ele>567</ele>
        <time>2021-04-13T13:35:24Z</time>
      </trkpt>
      <trkpt lat="45.02405" lon="3.60178">
        <ele>567</ele>
        <time>2021-04-13T13:35:25Z</time>
      </trkpt>
      <trkpt lat="45.02406" lon="3.60174">
        <ele>567</ele>
        <time>2021-04-13T13:35:26Z</time>
      </trkpt>
      <trkpt lat="45.02407" lon="3.6017">
        <ele>567</ele>
        <time>2021-04-13T13:35:27Z</time>
      </trkpt>
      <trkpt lat="45.02409" lon="3.60167">
        <ele>567</ele>
        <time>2021-04-13T13:35:28Z</time>
      </trkpt>
      <trkpt lat="45.02411" lon="3.60165">
        <ele>567</ele>
        <time>2021-04-13T13:35:29Z</time>
      </trkpt>
      <trkpt lat="45.02412" lon="3.60162">
        <ele>567</ele>
        <time>2021-04-13T13:35:30Z</time>
      </trkpt>
      <trkpt lat="45.02413" lon="3.60158">
        <ele>567</ele>
        <time>2021-04-13T13:35:31Z</time>
      </trkpt>
      <trkpt lat="45.02416" lon="3.60151">
        <ele>567</ele>
        <time>2021-04-13T13:35:33Z</time>
      </trkpt>
      <trkpt lat="45.02417" lon="3.60148">
        <ele>568</ele>
        <time>2021-04-13T13:35:34Z</time>
      </trkpt>
      <trkpt lat="45.02418" lon="3.60144">
        <ele>568</ele>
        <time>2021-04-13T13:35:35Z</time>
      </trkpt>
      <trkpt lat="45.02419" lon="3.60142">
        <ele>568</ele>
        <time>2021-04-13T13:35:36Z</time>
      </trkpt>
      <trkpt lat="45.0242" lon="3.60137">
        <ele>568</ele>
        <time>2021-04-13T13:35:37Z</time>
      </trkpt>
      <trkpt lat="45.02421" lon="3.60133">
        <ele>568</ele>
        <time>2021-04-13T13:35:38Z</time>
      </trkpt>
      <trkpt lat="45.02422" lon="3.60128">
        <ele>568</ele>
        <time>2021-04-13T13:35:39Z</time>
      </trkpt>
      <trkpt lat="45.02424" lon="3.60124">
        <ele>568</ele>
        <time>2021-04-13T13:35:40Z</time>
      </trkpt>
      <trkpt lat="45.02435" lon="3.60085">
        <ele>568</ele>
        <time>2021-04-13T13:35:48Z</time>
      </trkpt>
      <trkpt lat="45.02438" lon="3.60082">
        <ele>567</ele>
        <time>2021-04-13T13:35:49Z</time>
      </trkpt>
      <trkpt lat="45.0244" lon="3.60078">
        <ele>567</ele>
        <time>2021-04-13T13:35:50Z</time>
      </trkpt>
      <trkpt lat="45.02441" lon="3.60074">
        <ele>567</ele>
        <time>2021-04-13T13:35:51Z</time>
      </trkpt>
      <trkpt lat="45.02442" lon="3.60072">
        <ele>568</ele>
        <time>2021-04-13T13:35:53Z</time>
      </trkpt>
      <trkpt lat="45.02443" lon="3.60069">
        <ele>568</ele>
        <time>2021-04-13T13:35:56Z</time>
      </trkpt>
      <trkpt lat="45.02445" lon="3.60066">
        <ele>568</ele>
        <time>2021-04-13T13:35:57Z</time>
      </trkpt>
      <trkpt lat="45.02446" lon="3.60061">
        <ele>568</ele>
        <time>2021-04-13T13:35:58Z</time>
      </trkpt>
      <trkpt lat="45.02447" lon="3.60051">
        <ele>568</ele>
        <time>2021-04-13T13:36:00Z</time>
      </trkpt>
      <trkpt lat="45.02448" lon="3.60047">
        <ele>568</ele>
        <time>2021-04-13T13:36:01Z</time>
      </trkpt>
      <trkpt lat="45.02449" lon="3.60043">
        <ele>568</ele>
        <time>2021-04-13T13:36:02Z</time>
      </trkpt>
      <trkpt lat="45.02449" lon="3.6003">
        <ele>569</ele>
        <time>2021-04-13T13:36:54Z</time>
      </trkpt>
      <trkpt lat="45.0245" lon="3.60025">
        <ele>569</ele>
        <time>2021-04-13T13:36:55Z</time>
      </trkpt>
      <trkpt lat="45.02451" lon="3.60019">
        <ele>569</ele>
        <time>2021-04-13T13:36:56Z</time>
      </trkpt>
      <trkpt lat="45.02452" lon="3.60013">
        <ele>569</ele>
        <time>2021-04-13T13:36:57Z</time>
      </trkpt>
      <trkpt lat="45.02453" lon="3.60008">
        <ele>568</ele>
        <time>2021-04-13T13:36:58Z</time>
      </trkpt>
      <trkpt lat="45.02459" lon="3.59987">
        <ele>567</ele>
        <time>2021-04-13T13:37:02Z</time>
      </trkpt>
      <trkpt lat="45.02461" lon="3.59981">
        <ele>567</ele>
        <time>2021-04-13T13:37:03Z</time>
      </trkpt>
      <trkpt lat="45.02463" lon="3.59976">
        <ele>566</ele>
        <time>2021-04-13T13:37:04Z</time>
      </trkpt>
      <trkpt lat="45.02464" lon="3.59969">
        <ele>567</ele>
        <time>2021-04-13T13:37:05Z</time>
      </trkpt>
      <trkpt lat="45.02467" lon="3.59961">
        <ele>566</ele>
        <time>2021-04-13T13:37:06Z</time>
      </trkpt>
      <trkpt lat="45.02469" lon="3.59954">
        <ele>566</ele>
        <time>2021-04-13T13:37:07Z</time>
      </trkpt>
      <trkpt lat="45.02474" lon="3.59948">
        <ele>566</ele>
        <time>2021-04-13T13:37:08Z</time>
      </trkpt>
      <trkpt lat="45.02478" lon="3.59943">
        <ele>567</ele>
        <time>2021-04-13T13:37:09Z</time>
      </trkpt>
      <trkpt lat="45.02487" lon="3.59937">
        <ele>566</ele>
        <time>2021-04-13T13:37:11Z</time>
      </trkpt>
      <trkpt lat="45.02489" lon="3.59936">
        <ele>566</ele>
        <time>2021-04-13T13:37:12Z</time>
      </trkpt>
      <trkpt lat="45.02492" lon="3.59933">
        <ele>567</ele>
        <time>2021-04-13T13:37:14Z</time>
      </trkpt>
      <trkpt lat="45.02494" lon="3.59932">
        <ele>567</ele>
        <time>2021-04-13T13:37:15Z</time>
      </trkpt>
      <trkpt lat="45.02496" lon="3.59928">
        <ele>567</ele>
        <time>2021-04-13T13:37:16Z</time>
      </trkpt>
      <trkpt lat="45.02497" lon="3.59923">
        <ele>567</ele>
        <time>2021-04-13T13:37:17Z</time>
      </trkpt>
      <trkpt lat="45.02499" lon="3.5992">
        <ele>567</ele>
        <time>2021-04-13T13:37:18Z</time>
      </trkpt>
      <trkpt lat="45.02502" lon="3.59919">
        <ele>567</ele>
        <time>2021-04-13T13:37:19Z</time>
      </trkpt>
      <trkpt lat="45.02513" lon="3.59914">
        <ele>566</ele>
        <time>2021-04-13T13:37:23Z</time>
      </trkpt>
      <trkpt lat="45.02515" lon="3.59912">
        <ele>566</ele>
        <time>2021-04-13T13:37:24Z</time>
      </trkpt>
      <trkpt lat="45.02516" lon="3.5991">
        <ele>566</ele>
        <time>2021-04-13T13:37:25Z</time>
      </trkpt>
      <trkpt lat="45.02519" lon="3.59908">
        <ele>566</ele>
        <time>2021-04-13T13:37:26Z</time>
      </trkpt>
      <trkpt lat="45.0252" lon="3.59898">
        <ele>566</ele>
        <time>2021-04-13T13:37:29Z</time>
      </trkpt>
      <trkpt lat="45.02522" lon="3.59895">
        <ele>566</ele>
        <time>2021-04-13T13:37:30Z</time>
      </trkpt>
      <trkpt lat="45.02524" lon="3.59891">
        <ele>566</ele>
        <time>2021-04-13T13:37:31Z</time>
      </trkpt>
      <trkpt lat="45.02526" lon="3.59888">
        <ele>566</ele>
        <time>2021-04-13T13:37:32Z</time>
      </trkpt>
      <trkpt lat="45.02531" lon="3.5988">
        <ele>565</ele>
        <time>2021-04-13T13:37:34Z</time>
      </trkpt>
      <trkpt lat="45.02533" lon="3.59877">
        <ele>565</ele>
        <time>2021-04-13T13:37:35Z</time>
      </trkpt>
      <trkpt lat="45.02536" lon="3.59873">
        <ele>565</ele>
        <time>2021-04-13T13:37:36Z</time>
      </trkpt>
      <trkpt lat="45.0254" lon="3.59869">
        <ele>565</ele>
        <time>2021-04-13T13:37:37Z</time>
      </trkpt>
      <trkpt lat="45.02544" lon="3.59866">
        <ele>565</ele>
        <time>2021-04-13T13:37:38Z</time>
      </trkpt>
      <trkpt lat="45.02548" lon="3.59863">
        <ele>565</ele>
        <time>2021-04-13T13:37:39Z</time>
      </trkpt>
      <trkpt lat="45.02551" lon="3.5986">
        <ele>564</ele>
        <time>2021-04-13T13:37:40Z</time>
      </trkpt>
      <trkpt lat="45.02555" lon="3.59858">
        <ele>563</ele>
        <time>2021-04-13T13:37:41Z</time>
      </trkpt>
      <trkpt lat="45.02571" lon="3.5985">
        <ele>563</ele>
        <time>2021-04-13T13:37:45Z</time>
      </trkpt>
      <trkpt lat="45.02574" lon="3.59848">
        <ele>563</ele>
        <time>2021-04-13T13:37:46Z</time>
      </trkpt>
      <trkpt lat="45.02578" lon="3.59846">
        <ele>563</ele>
        <time>2021-04-13T13:37:47Z</time>
      </trkpt>
      <trkpt lat="45.02582" lon="3.59844">
        <ele>563</ele>
        <time>2021-04-13T13:37:48Z</time>
      </trkpt>
      <trkpt lat="45.02586" lon="3.59843">
        <ele>563</ele>
        <time>2021-04-13T13:37:49Z</time>
      </trkpt>
      <trkpt lat="45.02589" lon="3.59842">
        <ele>562</ele>
        <time>2021-04-13T13:37:50Z</time>
      </trkpt>
      <trkpt lat="45.02592" lon="3.59841">
        <ele>562</ele>
        <time>2021-04-13T13:37:51Z</time>
      </trkpt>
      <trkpt lat="45.02595" lon="3.59839">
        <ele>562</ele>
        <time>2021-04-13T13:37:52Z</time>
      </trkpt>
      <trkpt lat="45.02602" lon="3.59835">
        <ele>562</ele>
        <time>2021-04-13T13:37:54Z</time>
      </trkpt>
      <trkpt lat="45.02605" lon="3.59833">
        <ele>561</ele>
        <time>2021-04-13T13:37:55Z</time>
      </trkpt>
      <trkpt lat="45.02609" lon="3.5983">
        <ele>562</ele>
        <time>2021-04-13T13:37:56Z</time>
      </trkpt>
      <trkpt lat="45.02613" lon="3.59827">
        <ele>562</ele>
        <time>2021-04-13T13:37:57Z</time>
      </trkpt>
      <trkpt lat="45.02618" lon="3.59824">
        <ele>562</ele>
        <time>2021-04-13T13:37:58Z</time>
      </trkpt>
      <trkpt lat="45.02622" lon="3.59821">
        <ele>562</ele>
        <time>2021-04-13T13:37:59Z</time>
      </trkpt>
      <trkpt lat="45.02627" lon="3.59818">
        <ele>561</ele>
        <time>2021-04-13T13:38:00Z</time>
      </trkpt>
      <trkpt lat="45.0263" lon="3.59815">
        <ele>561</ele>
        <time>2021-04-13T13:38:01Z</time>
      </trkpt>
      <trkpt lat="45.02648" lon="3.5981">
        <ele>559</ele>
        <time>2021-04-13T13:38:05Z</time>
      </trkpt>
      <trkpt lat="45.02652" lon="3.5981">
        <ele>559</ele>
        <time>2021-04-13T13:38:06Z</time>
      </trkpt>
      <trkpt lat="45.02657" lon="3.59809">
        <ele>559</ele>
        <time>2021-04-13T13:38:07Z</time>
      </trkpt>
      <trkpt lat="45.02661" lon="3.59807">
        <ele>559</ele>
        <time>2021-04-13T13:38:08Z</time>
      </trkpt>
      <trkpt lat="45.02666" lon="3.59805">
        <ele>558</ele>
        <time>2021-04-13T13:38:09Z</time>
      </trkpt>
      <trkpt lat="45.02671" lon="3.59804">
        <ele>558</ele>
        <time>2021-04-13T13:38:10Z</time>
      </trkpt>
      <trkpt lat="45.02674" lon="3.59804">
        <ele>558</ele>
        <time>2021-04-13T13:38:11Z</time>
      </trkpt>
      <trkpt lat="45.02677" lon="3.59805">
        <ele>558</ele>
        <time>2021-04-13T13:38:12Z</time>
      </trkpt>
      <trkpt lat="45.02683" lon="3.59804">
        <ele>558</ele>
        <time>2021-04-13T13:38:14Z</time>
      </trkpt>
      <trkpt lat="45.02688" lon="3.59802">
        <ele>558</ele>
        <time>2021-04-13T13:38:15Z</time>
      </trkpt>
      <trkpt lat="45.02693" lon="3.59799">
        <ele>558</ele>
        <time>2021-04-13T13:38:16Z</time>
      </trkpt>
      <trkpt lat="45.02699" lon="3.59798">
        <ele>557</ele>
        <time>2021-04-13T13:38:17Z</time>
      </trkpt>
      <trkpt lat="45.02703" lon="3.59796">
        <ele>557</ele>
        <time>2021-04-13T13:38:18Z</time>
      </trkpt>
      <trkpt lat="45.02712" lon="3.59793">
        <ele>557</ele>
        <time>2021-04-13T13:38:20Z</time>
      </trkpt>
      <trkpt lat="45.02716" lon="3.59792">
        <ele>557</ele>
        <time>2021-04-13T13:38:21Z</time>
      </trkpt>
      <trkpt lat="45.02728" lon="3.59787">
        <ele>557</ele>
        <time>2021-04-13T13:38:25Z</time>
      </trkpt>
      <trkpt lat="45.02749" lon="3.59775">
        <ele>556</ele>
        <time>2021-04-13T13:38:32Z</time>
      </trkpt>
      <trkpt lat="45.02752" lon="3.59773">
        <ele>555</ele>
        <time>2021-04-13T13:38:34Z</time>
      </trkpt>
      <trkpt lat="45.02754" lon="3.59773">
        <ele>555</ele>
        <time>2021-04-13T13:38:35Z</time>
      </trkpt>
      <trkpt lat="45.02757" lon="3.59773">
        <ele>555</ele>
        <time>2021-04-13T13:38:36Z</time>
      </trkpt>
      <trkpt lat="45.02759" lon="3.59771">
        <ele>555</ele>
        <time>2021-04-13T13:38:37Z</time>
      </trkpt>
      <trkpt lat="45.02761" lon="3.5977">
        <ele>555</ele>
        <time>2021-04-13T13:38:38Z</time>
      </trkpt>
      <trkpt lat="45.02763" lon="3.5977">
        <ele>555</ele>
        <time>2021-04-13T13:38:39Z</time>
      </trkpt>
      <trkpt lat="45.02766" lon="3.59769">
        <ele>555</ele>
        <time>2021-04-13T13:38:40Z</time>
      </trkpt>
      <trkpt lat="45.02772" lon="3.59767">
        <ele>554</ele>
        <time>2021-04-13T13:38:42Z</time>
      </trkpt>
      <trkpt lat="45.02774" lon="3.59767">
        <ele>554</ele>
        <time>2021-04-13T13:38:43Z</time>
      </trkpt>
      <trkpt lat="45.02776" lon="3.59766">
        <ele>554</ele>
        <time>2021-04-13T13:38:44Z</time>
      </trkpt>
      <trkpt lat="45.02778" lon="3.59766">
        <ele>554</ele>
        <time>2021-04-13T13:38:45Z</time>
      </trkpt>
      <trkpt lat="45.02788" lon="3.59763">
        <ele>554</ele>
        <time>2021-04-13T13:38:50Z</time>
      </trkpt>
      <trkpt lat="45.028" lon="3.59764">
        <ele>554</ele>
        <time>2021-04-13T13:38:54Z</time>
      </trkpt>
      <trkpt lat="45.0281" lon="3.59767">
        <ele>554</ele>
        <time>2021-04-13T13:38:57Z</time>
      </trkpt>
      <trkpt lat="45.02814" lon="3.59766">
        <ele>554</ele>
        <time>2021-04-13T13:38:58Z</time>
      </trkpt>
      <trkpt lat="45.02829" lon="3.59764">
        <ele>554</ele>
        <time>2021-04-13T13:39:02Z</time>
      </trkpt>
      <trkpt lat="45.02832" lon="3.59763">
        <ele>553</ele>
        <time>2021-04-13T13:39:03Z</time>
      </trkpt>
      <trkpt lat="45.02836" lon="3.59762">
        <ele>553</ele>
        <time>2021-04-13T13:39:04Z</time>
      </trkpt>
      <trkpt lat="45.02839" lon="3.59761">
        <ele>553</ele>
        <time>2021-04-13T13:39:05Z</time>
      </trkpt>
      <trkpt lat="45.02842" lon="3.59761">
        <ele>553</ele>
        <time>2021-04-13T13:39:06Z</time>
      </trkpt>
      <trkpt lat="45.02845" lon="3.5976">
        <ele>552</ele>
        <time>2021-04-13T13:39:07Z</time>
      </trkpt>
      <trkpt lat="45.02848" lon="3.59759">
        <ele>552</ele>
        <time>2021-04-13T13:39:08Z</time>
      </trkpt>
      <trkpt lat="45.02851" lon="3.59758">
        <ele>552</ele>
        <time>2021-04-13T13:39:09Z</time>
      </trkpt>
      <trkpt lat="45.02859" lon="3.59755">
        <ele>552</ele>
        <time>2021-04-13T13:39:11Z</time>
      </trkpt>
      <trkpt lat="45.02864" lon="3.59752">
        <ele>552</ele>
        <time>2021-04-13T13:39:12Z</time>
      </trkpt>
      <trkpt lat="45.02868" lon="3.59747">
        <ele>552</ele>
        <time>2021-04-13T13:39:13Z</time>
      </trkpt>
      <trkpt lat="45.02872" lon="3.59742">
        <ele>552</ele>
        <time>2021-04-13T13:39:14Z</time>
      </trkpt>
      <trkpt lat="45.02887" lon="3.59718">
        <ele>551</ele>
        <time>2021-04-13T13:39:19Z</time>
      </trkpt>
      <trkpt lat="45.02891" lon="3.59712">
        <ele>551</ele>
        <time>2021-04-13T13:39:22Z</time>
      </trkpt>
      <trkpt lat="45.02894" lon="3.5971">
        <ele>552</ele>
        <time>2021-04-13T13:39:24Z</time>
      </trkpt>
      <trkpt lat="45.02896" lon="3.59709">
        <ele>552</ele>
        <time>2021-04-13T13:39:25Z</time>
      </trkpt>
      <trkpt lat="45.02913" lon="3.59684">
        <ele>551</ele>
        <time>2021-04-13T13:39:32Z</time>
      </trkpt>
      <trkpt lat="45.02916" lon="3.59682">
        <ele>551</ele>
        <time>2021-04-13T13:39:33Z</time>
      </trkpt>
      <trkpt lat="45.02917" lon="3.5968">
        <ele>551</ele>
        <time>2021-04-13T13:39:34Z</time>
      </trkpt>
      <trkpt lat="45.02919" lon="3.59677">
        <ele>551</ele>
        <time>2021-04-13T13:39:35Z</time>
      </trkpt>
      <trkpt lat="45.02921" lon="3.59675">
        <ele>551</ele>
        <time>2021-04-13T13:39:36Z</time>
      </trkpt>
      <trkpt lat="45.02926" lon="3.5967">
        <ele>551</ele>
        <time>2021-04-13T13:39:39Z</time>
      </trkpt>
      <trkpt lat="45.02927" lon="3.59668">
        <ele>552</ele>
        <time>2021-04-13T13:39:40Z</time>
      </trkpt>
      <trkpt lat="45.02936" lon="3.59657">
        <ele>552</ele>
        <time>2021-04-13T13:39:45Z</time>
      </trkpt>
      <trkpt lat="45.0295" lon="3.59631">
        <ele>553</ele>
        <time>2021-04-13T13:39:51Z</time>
      </trkpt>
      <trkpt lat="45.02954" lon="3.59625">
        <ele>553</ele>
        <time>2021-04-13T13:39:53Z</time>
      </trkpt>
      <trkpt lat="45.02956" lon="3.59622">
        <ele>553</ele>
        <time>2021-04-13T13:39:54Z</time>
      </trkpt>
      <trkpt lat="45.02958" lon="3.59619">
        <ele>553</ele>
        <time>2021-04-13T13:39:55Z</time>
      </trkpt>
      <trkpt lat="45.0296" lon="3.59616">
        <ele>554</ele>
        <time>2021-04-13T13:39:56Z</time>
      </trkpt>
      <trkpt lat="45.02963" lon="3.5961">
        <ele>554</ele>
        <time>2021-04-13T13:39:58Z</time>
      </trkpt>
      <trkpt lat="45.02965" lon="3.59606">
        <ele>554</ele>
        <time>2021-04-13T13:39:59Z</time>
      </trkpt>
      <trkpt lat="45.02966" lon="3.59602">
        <ele>554</ele>
        <time>2021-04-13T13:40:00Z</time>
      </trkpt>
      <trkpt lat="45.02969" lon="3.59584">
        <ele>554</ele>
        <time>2021-04-13T13:40:04Z</time>
      </trkpt>
      <trkpt lat="45.0297" lon="3.59579">
        <ele>554</ele>
        <time>2021-04-13T13:40:05Z</time>
      </trkpt>
      <trkpt lat="45.02971" lon="3.59575">
        <ele>554</ele>
        <time>2021-04-13T13:40:06Z</time>
      </trkpt>
      <trkpt lat="45.02972" lon="3.5957">
        <ele>554</ele>
        <time>2021-04-13T13:40:07Z</time>
      </trkpt>
      <trkpt lat="45.02975" lon="3.59557">
        <ele>553</ele>
        <time>2021-04-13T13:40:10Z</time>
      </trkpt>
      <trkpt lat="45.02975" lon="3.59544">
        <ele>553</ele>
        <time>2021-04-13T13:40:13Z</time>
      </trkpt>
      <trkpt lat="45.02973" lon="3.59531">
        <ele>551</ele>
        <time>2021-04-13T13:40:16Z</time>
      </trkpt>
      <trkpt lat="45.02967" lon="3.59513">
        <ele>551</ele>
        <time>2021-04-13T13:40:19Z</time>
      </trkpt>
      <trkpt lat="45.02955" lon="3.59487">
        <ele>550</ele>
        <time>2021-04-13T13:40:23Z</time>
      </trkpt>
      <trkpt lat="45.02955" lon="3.59471">
        <ele>550</ele>
        <time>2021-04-13T13:40:26Z</time>
      </trkpt>
      <trkpt lat="45.02955" lon="3.59458">
        <ele>548</ele>
        <time>2021-04-13T13:40:35Z</time>
      </trkpt>
      <trkpt lat="45.02954" lon="3.59455">
        <ele>547</ele>
        <time>2021-04-13T13:40:38Z</time>
      </trkpt>
      <trkpt lat="45.02957" lon="3.5945">
        <ele>547</ele>
        <time>2021-04-13T13:47:37Z</time>
      </trkpt>
      <trkpt lat="45.02958" lon="3.59448">
        <ele>547</ele>
        <time>2021-04-13T13:47:38Z</time>
      </trkpt>
      <trkpt lat="45.02958" lon="3.59444">
        <ele>547</ele>
        <time>2021-04-13T13:47:40Z</time>
      </trkpt>
      <trkpt lat="45.02957" lon="3.5944">
        <ele>547</ele>
        <time>2021-04-13T13:47:42Z</time>
      </trkpt>
      <trkpt lat="45.02956" lon="3.59423">
        <ele>547</ele>
        <time>2021-04-13T13:47:49Z</time>
      </trkpt>
      <trkpt lat="45.02956" lon="3.59419">
        <ele>547</ele>
        <time>2021-04-13T13:47:50Z</time>
      </trkpt>
      <trkpt lat="45.02956" lon="3.59416">
        <ele>547</ele>
        <time>2021-04-13T13:47:51Z</time>
      </trkpt>
      <trkpt lat="45.02957" lon="3.59412">
        <ele>547</ele>
        <time>2021-04-13T13:47:52Z</time>
      </trkpt>
      <trkpt lat="45.02957" lon="3.5941">
        <ele>547</ele>
        <time>2021-04-13T13:47:53Z</time>
      </trkpt>
      <trkpt lat="45.02957" lon="3.59406">
        <ele>547</ele>
        <time>2021-04-13T13:47:55Z</time>
      </trkpt>
      <trkpt lat="45.02957" lon="3.59403">
        <ele>547</ele>
        <time>2021-04-13T13:47:57Z</time>
      </trkpt>
      <trkpt lat="45.02958" lon="3.59399">
        <ele>547</ele>
        <time>2021-04-13T13:47:59Z</time>
      </trkpt>
      <trkpt lat="45.02959" lon="3.59393">
        <ele>547</ele>
        <time>2021-04-13T13:48:01Z</time>
      </trkpt>
      <trkpt lat="45.0296" lon="3.59389">
        <ele>546</ele>
        <time>2021-04-13T13:48:02Z</time>
      </trkpt>
      <trkpt lat="45.02961" lon="3.59386">
        <ele>546</ele>
        <time>2021-04-13T13:48:03Z</time>
      </trkpt>
      <trkpt lat="45.02962" lon="3.59382">
        <ele>546</ele>
        <time>2021-04-13T13:48:04Z</time>
      </trkpt>
      <trkpt lat="45.02963" lon="3.59378">
        <ele>546</ele>
        <time>2021-04-13T13:48:05Z</time>
      </trkpt>
      <trkpt lat="45.02965" lon="3.59374">
        <ele>546</ele>
        <time>2021-04-13T13:48:06Z</time>
      </trkpt>
      <trkpt lat="45.02966" lon="3.5937">
        <ele>546</ele>
        <time>2021-04-13T13:48:07Z</time>
      </trkpt>
      <trkpt lat="45.02967" lon="3.59366">
        <ele>546</ele>
        <time>2021-04-13T13:48:08Z</time>
      </trkpt>
      <trkpt lat="45.02974" lon="3.59352">
        <ele>546</ele>
        <time>2021-04-13T13:48:12Z</time>
      </trkpt>
      <trkpt lat="45.02976" lon="3.59349">
        <ele>546</ele>
        <time>2021-04-13T13:48:13Z</time>
      </trkpt>
      <trkpt lat="45.02979" lon="3.59346">
        <ele>546</ele>
        <time>2021-04-13T13:48:14Z</time>
      </trkpt>
      <trkpt lat="45.02981" lon="3.59344">
        <ele>546</ele>
        <time>2021-04-13T13:48:15Z</time>
      </trkpt>
      <trkpt lat="45.02983" lon="3.59341">
        <ele>546</ele>
        <time>2021-04-13T13:48:16Z</time>
      </trkpt>
      <trkpt lat="45.02986" lon="3.59339">
        <ele>546</ele>
        <time>2021-04-13T13:48:17Z</time>
      </trkpt>
      <trkpt lat="45.02989" lon="3.59337">
        <ele>546</ele>
        <time>2021-04-13T13:48:18Z</time>
      </trkpt>
      <trkpt lat="45.02992" lon="3.59335">
        <ele>546</ele>
        <time>2021-04-13T13:48:19Z</time>
      </trkpt>
      <trkpt lat="45.02997" lon="3.5933">
        <ele>546</ele>
        <time>2021-04-13T13:48:21Z</time>
      </trkpt>
      <trkpt lat="45.03" lon="3.59328">
        <ele>546</ele>
        <time>2021-04-13T13:48:22Z</time>
      </trkpt>
      <trkpt lat="45.03003" lon="3.59325">
        <ele>546</ele>
        <time>2021-04-13T13:48:23Z</time>
      </trkpt>
      <trkpt lat="45.03006" lon="3.59323">
        <ele>546</ele>
        <time>2021-04-13T13:48:24Z</time>
      </trkpt>
      <trkpt lat="45.03009" lon="3.5932">
        <ele>546</ele>
        <time>2021-04-13T13:48:25Z</time>
      </trkpt>
      <trkpt lat="45.03012" lon="3.59318">
        <ele>546</ele>
        <time>2021-04-13T13:48:26Z</time>
      </trkpt>
      <trkpt lat="45.03015" lon="3.59316">
        <ele>547</ele>
        <time>2021-04-13T13:48:27Z</time>
      </trkpt>
      <trkpt lat="45.03019" lon="3.59314">
        <ele>547</ele>
        <time>2021-04-13T13:48:28Z</time>
      </trkpt>
      <trkpt lat="45.03032" lon="3.59305">
        <ele>547</ele>
        <time>2021-04-13T13:48:32Z</time>
      </trkpt>
      <trkpt lat="45.03035" lon="3.59303">
        <ele>547</ele>
        <time>2021-04-13T13:48:33Z</time>
      </trkpt>
      <trkpt lat="45.03045" lon="3.59299">
        <ele>548</ele>
        <time>2021-04-13T13:48:36Z</time>
      </trkpt>
      <trkpt lat="45.03056" lon="3.59298">
        <ele>548</ele>
        <time>2021-04-13T13:48:39Z</time>
      </trkpt>
      <trkpt lat="45.03066" lon="3.59293">
        <ele>548</ele>
        <time>2021-04-13T13:48:42Z</time>
      </trkpt>
      <trkpt lat="45.03076" lon="3.5929">
        <ele>548</ele>
        <time>2021-04-13T13:48:45Z</time>
      </trkpt>
      <trkpt lat="45.03087" lon="3.59288">
        <ele>549</ele>
        <time>2021-04-13T13:48:48Z</time>
      </trkpt>
      <trkpt lat="45.03098" lon="3.59288">
        <ele>549</ele>
        <time>2021-04-13T13:48:51Z</time>
      </trkpt>
      <trkpt lat="45.0312" lon="3.5929">
        <ele>549</ele>
        <time>2021-04-13T13:48:57Z</time>
      </trkpt>
      <trkpt lat="45.03131" lon="3.59291">
        <ele>550</ele>
        <time>2021-04-13T13:49:00Z</time>
      </trkpt>
      <trkpt lat="45.03142" lon="3.59294">
        <ele>550</ele>
        <time>2021-04-13T13:49:03Z</time>
      </trkpt>
      <trkpt lat="45.03153" lon="3.59298">
        <ele>550</ele>
        <time>2021-04-13T13:49:06Z</time>
      </trkpt>
      <trkpt lat="45.03164" lon="3.59302">
        <ele>551</ele>
        <time>2021-04-13T13:49:09Z</time>
      </trkpt>
      <trkpt lat="45.03174" lon="3.59303">
        <ele>551</ele>
        <time>2021-04-13T13:49:12Z</time>
      </trkpt>
      <trkpt lat="45.03184" lon="3.59306">
        <ele>552</ele>
        <time>2021-04-13T13:49:15Z</time>
      </trkpt>
      <trkpt lat="45.03195" lon="3.5931">
        <ele>552</ele>
        <time>2021-04-13T13:49:18Z</time>
      </trkpt>
      <trkpt lat="45.03239" lon="3.59323">
        <ele>555</ele>
        <time>2021-04-13T13:49:30Z</time>
      </trkpt>
      <trkpt lat="45.0325" lon="3.59325">
        <ele>555</ele>
        <time>2021-04-13T13:49:33Z</time>
      </trkpt>
      <trkpt lat="45.03262" lon="3.59325">
        <ele>556</ele>
        <time>2021-04-13T13:49:36Z</time>
      </trkpt>
      <trkpt lat="45.03273" lon="3.59321">
        <ele>557</ele>
        <time>2021-04-13T13:49:39Z</time>
      </trkpt>
      <trkpt lat="45.03285" lon="3.59319">
        <ele>558</ele>
        <time>2021-04-13T13:49:42Z</time>
      </trkpt>
      <trkpt lat="45.03298" lon="3.59317">
        <ele>558</ele>
        <time>2021-04-13T13:49:45Z</time>
      </trkpt>
      <trkpt lat="45.0331" lon="3.59321">
        <ele>559</ele>
        <time>2021-04-13T13:49:48Z</time>
      </trkpt>
      <trkpt lat="45.0332" lon="3.59321">
        <ele>560</ele>
        <time>2021-04-13T13:49:51Z</time>
      </trkpt>
      <trkpt lat="45.03341" lon="3.59311">
        <ele>561</ele>
        <time>2021-04-13T13:49:57Z</time>
      </trkpt>
      <trkpt lat="45.03344" lon="3.59308">
        <ele>562</ele>
        <time>2021-04-13T13:49:58Z</time>
      </trkpt>
      <trkpt lat="45.03348" lon="3.59306">
        <ele>562</ele>
        <time>2021-04-13T13:49:59Z</time>
      </trkpt>
      <trkpt lat="45.03352" lon="3.59303">
        <ele>562</ele>
        <time>2021-04-13T13:50:00Z</time>
      </trkpt>
      <trkpt lat="45.03356" lon="3.59301">
        <ele>563</ele>
        <time>2021-04-13T13:50:01Z</time>
      </trkpt>
      <trkpt lat="45.0336" lon="3.59298">
        <ele>563</ele>
        <time>2021-04-13T13:50:02Z</time>
      </trkpt>
      <trkpt lat="45.03364" lon="3.59296">
        <ele>563</ele>
        <time>2021-04-13T13:50:03Z</time>
      </trkpt>
      <trkpt lat="45.03369" lon="3.59293">
        <ele>564</ele>
        <time>2021-04-13T13:50:04Z</time>
      </trkpt>
      <trkpt lat="45.03385" lon="3.59281">
        <ele>565</ele>
        <time>2021-04-13T13:50:08Z</time>
      </trkpt>
      <trkpt lat="45.03388" lon="3.59277">
        <ele>565</ele>
        <time>2021-04-13T13:50:09Z</time>
      </trkpt>
      <trkpt lat="45.03392" lon="3.59274">
        <ele>566</ele>
        <time>2021-04-13T13:50:10Z</time>
      </trkpt>
      <trkpt lat="45.03396" lon="3.59271">
        <ele>566</ele>
        <time>2021-04-13T13:50:11Z</time>
      </trkpt>
      <trkpt lat="45.03399" lon="3.59267">
        <ele>566</ele>
        <time>2021-04-13T13:50:12Z</time>
      </trkpt>
      <trkpt lat="45.03403" lon="3.59264">
        <ele>566</ele>
        <time>2021-04-13T13:50:13Z</time>
      </trkpt>
      <trkpt lat="45.03407" lon="3.59261">
        <ele>566</ele>
        <time>2021-04-13T13:50:14Z</time>
      </trkpt>
      <trkpt lat="45.0341" lon="3.59258">
        <ele>567</ele>
        <time>2021-04-13T13:50:15Z</time>
      </trkpt>
      <trkpt lat="45.03421" lon="3.59248">
        <ele>567</ele>
        <time>2021-04-13T13:50:18Z</time>
      </trkpt>
      <trkpt lat="45.03423" lon="3.59245">
        <ele>567</ele>
        <time>2021-04-13T13:50:19Z</time>
      </trkpt>
      <trkpt lat="45.03426" lon="3.59241">
        <ele>568</ele>
        <time>2021-04-13T13:50:20Z</time>
      </trkpt>
      <trkpt lat="45.0343" lon="3.59237">
        <ele>568</ele>
        <time>2021-04-13T13:50:21Z</time>
      </trkpt>
      <trkpt lat="45.03433" lon="3.59234">
        <ele>568</ele>
        <time>2021-04-13T13:50:22Z</time>
      </trkpt>
      <trkpt lat="45.03436" lon="3.5923">
        <ele>568</ele>
        <time>2021-04-13T13:50:23Z</time>
      </trkpt>
      <trkpt lat="45.03438" lon="3.59226">
        <ele>568</ele>
        <time>2021-04-13T13:50:24Z</time>
      </trkpt>
      <trkpt lat="45.03441" lon="3.59222">
        <ele>569</ele>
        <time>2021-04-13T13:50:25Z</time>
      </trkpt>
      <trkpt lat="45.03453" lon="3.59206">
        <ele>570</ele>
        <time>2021-04-13T13:50:29Z</time>
      </trkpt>
      <trkpt lat="45.03456" lon="3.59202">
        <ele>570</ele>
        <time>2021-04-13T13:50:30Z</time>
      </trkpt>
      <trkpt lat="45.03459" lon="3.59198">
        <ele>570</ele>
        <time>2021-04-13T13:50:31Z</time>
      </trkpt>
      <trkpt lat="45.03462" lon="3.59194">
        <ele>570</ele>
        <time>2021-04-13T13:50:32Z</time>
      </trkpt>
      <trkpt lat="45.03465" lon="3.5919">
        <ele>570</ele>
        <time>2021-04-13T13:50:33Z</time>
      </trkpt>
      <trkpt lat="45.03468" lon="3.59186">
        <ele>571</ele>
        <time>2021-04-13T13:50:34Z</time>
      </trkpt>
      <trkpt lat="45.03471" lon="3.59182">
        <ele>571</ele>
        <time>2021-04-13T13:50:35Z</time>
      </trkpt>
      <trkpt lat="45.03474" lon="3.59177">
        <ele>571</ele>
        <time>2021-04-13T13:50:36Z</time>
      </trkpt>
      <trkpt lat="45.03479" lon="3.59168">
        <ele>572</ele>
        <time>2021-04-13T13:50:38Z</time>
      </trkpt>
      <trkpt lat="45.03481" lon="3.59164">
        <ele>572</ele>
        <time>2021-04-13T13:50:39Z</time>
      </trkpt>
      <trkpt lat="45.03484" lon="3.59159">
        <ele>572</ele>
        <time>2021-04-13T13:50:40Z</time>
      </trkpt>
      <trkpt lat="45.03486" lon="3.59154">
        <ele>572</ele>
        <time>2021-04-13T13:50:41Z</time>
      </trkpt>
      <trkpt lat="45.03488" lon="3.59149">
        <ele>572</ele>
        <time>2021-04-13T13:50:42Z</time>
      </trkpt>
      <trkpt lat="45.03489" lon="3.59144">
        <ele>573</ele>
        <time>2021-04-13T13:50:43Z</time>
      </trkpt>
      <trkpt lat="45.03491" lon="3.59138">
        <ele>573</ele>
        <time>2021-04-13T13:50:44Z</time>
      </trkpt>
      <trkpt lat="45.03492" lon="3.59133">
        <ele>573</ele>
        <time>2021-04-13T13:50:45Z</time>
      </trkpt>
      <trkpt lat="45.03498" lon="3.59111">
        <ele>575</ele>
        <time>2021-04-13T13:50:49Z</time>
      </trkpt>
      <trkpt lat="45.03499" lon="3.59105">
        <ele>575</ele>
        <time>2021-04-13T13:50:50Z</time>
      </trkpt>
      <trkpt lat="45.03501" lon="3.591">
        <ele>576</ele>
        <time>2021-04-13T13:50:51Z</time>
      </trkpt>
      <trkpt lat="45.03503" lon="3.59095">
        <ele>576</ele>
        <time>2021-04-13T13:50:52Z</time>
      </trkpt>
      <trkpt lat="45.03505" lon="3.5909">
        <ele>576</ele>
        <time>2021-04-13T13:50:53Z</time>
      </trkpt>
      <trkpt lat="45.03507" lon="3.59085">
        <ele>577</ele>
        <time>2021-04-13T13:50:54Z</time>
      </trkpt>
      <trkpt lat="45.03509" lon="3.59079">
        <ele>577</ele>
        <time>2021-04-13T13:50:55Z</time>
      </trkpt>
      <trkpt lat="45.03511" lon="3.59074">
        <ele>577</ele>
        <time>2021-04-13T13:50:56Z</time>
      </trkpt>
      <trkpt lat="45.03515" lon="3.59064">
        <ele>577</ele>
        <time>2021-04-13T13:50:58Z</time>
      </trkpt>
      <trkpt lat="45.03517" lon="3.59059">
        <ele>577</ele>
        <time>2021-04-13T13:50:59Z</time>
      </trkpt>
      <trkpt lat="45.03519" lon="3.59054">
        <ele>577</ele>
        <time>2021-04-13T13:51:00Z</time>
      </trkpt>
      <trkpt lat="45.03521" lon="3.59049">
        <ele>578</ele>
        <time>2021-04-13T13:51:01Z</time>
      </trkpt>
      <trkpt lat="45.03523" lon="3.59043">
        <ele>578</ele>
        <time>2021-04-13T13:51:02Z</time>
      </trkpt>
      <trkpt lat="45.03525" lon="3.59038">
        <ele>579</ele>
        <time>2021-04-13T13:51:03Z</time>
      </trkpt>
      <trkpt lat="45.03527" lon="3.59033">
        <ele>579</ele>
        <time>2021-04-13T13:51:04Z</time>
      </trkpt>
      <trkpt lat="45.03529" lon="3.59028">
        <ele>579</ele>
        <time>2021-04-13T13:51:05Z</time>
      </trkpt>
      <trkpt lat="45.03537" lon="3.59008">
        <ele>580</ele>
        <time>2021-04-13T13:51:09Z</time>
      </trkpt>
      <trkpt lat="45.03539" lon="3.59004">
        <ele>580</ele>
        <time>2021-04-13T13:51:10Z</time>
      </trkpt>
      <trkpt lat="45.03542" lon="3.59001">
        <ele>580</ele>
        <time>2021-04-13T13:51:11Z</time>
      </trkpt>
      <trkpt lat="45.03545" lon="3.58998">
        <ele>580</ele>
        <time>2021-04-13T13:51:12Z</time>
      </trkpt>
      <trkpt lat="45.03549" lon="3.58996">
        <ele>581</ele>
        <time>2021-04-13T13:51:13Z</time>
      </trkpt>
      <trkpt lat="45.03553" lon="3.58995">
        <ele>581</ele>
        <time>2021-04-13T13:51:14Z</time>
      </trkpt>
      <trkpt lat="45.03556" lon="3.58996">
        <ele>582</ele>
        <time>2021-04-13T13:51:15Z</time>
      </trkpt>
      <trkpt lat="45.0356" lon="3.58997">
        <ele>582</ele>
        <time>2021-04-13T13:51:16Z</time>
      </trkpt>
      <trkpt lat="45.03567" lon="3.59004">
        <ele>583</ele>
        <time>2021-04-13T13:51:18Z</time>
      </trkpt>
      <trkpt lat="45.03569" lon="3.59009">
        <ele>583</ele>
        <time>2021-04-13T13:51:19Z</time>
      </trkpt>
      <trkpt lat="45.03571" lon="3.59014">
        <ele>583</ele>
        <time>2021-04-13T13:51:20Z</time>
      </trkpt>
      <trkpt lat="45.03572" lon="3.59019">
        <ele>584</ele>
        <time>2021-04-13T13:51:21Z</time>
      </trkpt>
      <trkpt lat="45.03574" lon="3.59024">
        <ele>584</ele>
        <time>2021-04-13T13:51:22Z</time>
      </trkpt>
      <trkpt lat="45.03576" lon="3.59028">
        <ele>585</ele>
        <time>2021-04-13T13:51:23Z</time>
      </trkpt>
      <trkpt lat="45.03579" lon="3.59031">
        <ele>585</ele>
        <time>2021-04-13T13:51:24Z</time>
      </trkpt>
      <trkpt lat="45.03583" lon="3.59034">
        <ele>586</ele>
        <time>2021-04-13T13:51:25Z</time>
      </trkpt>
      <trkpt lat="45.03591" lon="3.59049">
        <ele>587</ele>
        <time>2021-04-13T13:51:29Z</time>
      </trkpt>
      <trkpt lat="45.03593" lon="3.59053">
        <ele>587</ele>
        <time>2021-04-13T13:51:30Z</time>
      </trkpt>
      <trkpt lat="45.03596" lon="3.59056">
        <ele>587</ele>
        <time>2021-04-13T13:51:31Z</time>
      </trkpt>
      <trkpt lat="45.03599" lon="3.5906">
        <ele>587</ele>
        <time>2021-04-13T13:51:32Z</time>
      </trkpt>
      <trkpt lat="45.03603" lon="3.59063">
        <ele>588</ele>
        <time>2021-04-13T13:51:33Z</time>
      </trkpt>
      <trkpt lat="45.03607" lon="3.59067">
        <ele>588</ele>
        <time>2021-04-13T13:51:34Z</time>
      </trkpt>
      <trkpt lat="45.03611" lon="3.5907">
        <ele>588</ele>
        <time>2021-04-13T13:51:35Z</time>
      </trkpt>
      <trkpt lat="45.03615" lon="3.59072">
        <ele>588</ele>
        <time>2021-04-13T13:51:36Z</time>
      </trkpt>
      <trkpt lat="45.03623" lon="3.59077">
        <ele>588</ele>
        <time>2021-04-13T13:51:38Z</time>
      </trkpt>
      <trkpt lat="45.03626" lon="3.5908">
        <ele>589</ele>
        <time>2021-04-13T13:51:39Z</time>
      </trkpt>
      <trkpt lat="45.0363" lon="3.59083">
        <ele>589</ele>
        <time>2021-04-13T13:51:40Z</time>
      </trkpt>
      <trkpt lat="45.03634" lon="3.59085">
        <ele>589</ele>
        <time>2021-04-13T13:51:41Z</time>
      </trkpt>
      <trkpt lat="45.03638" lon="3.59088">
        <ele>589</ele>
        <time>2021-04-13T13:51:42Z</time>
      </trkpt>
      <trkpt lat="45.03642" lon="3.59091">
        <ele>590</ele>
        <time>2021-04-13T13:51:43Z</time>
      </trkpt>
      <trkpt lat="45.03645" lon="3.59094">
        <ele>590</ele>
        <time>2021-04-13T13:51:44Z</time>
      </trkpt>
      <trkpt lat="45.03649" lon="3.59098">
        <ele>590</ele>
        <time>2021-04-13T13:51:45Z</time>
      </trkpt>
      <trkpt lat="45.03666" lon="3.59087">
        <ele>590</ele>
        <time>2021-04-13T13:51:49Z</time>
      </trkpt>
      <trkpt lat="45.03667" lon="3.59083">
        <ele>590</ele>
        <time>2021-04-13T13:51:50Z</time>
      </trkpt>
      <trkpt lat="45.0367" lon="3.59079">
        <ele>590</ele>
        <time>2021-04-13T13:51:51Z</time>
      </trkpt>
      <trkpt lat="45.03672" lon="3.59075">
        <ele>590</ele>
        <time>2021-04-13T13:51:52Z</time>
      </trkpt>
      <trkpt lat="45.03674" lon="3.5907">
        <ele>590</ele>
        <time>2021-04-13T13:51:53Z</time>
      </trkpt>
      <trkpt lat="45.03677" lon="3.59065">
        <ele>590</ele>
        <time>2021-04-13T13:51:54Z</time>
      </trkpt>
      <trkpt lat="45.0368" lon="3.5906">
        <ele>590</ele>
        <time>2021-04-13T13:51:55Z</time>
      </trkpt>
      <trkpt lat="45.03683" lon="3.59056">
        <ele>591</ele>
        <time>2021-04-13T13:51:56Z</time>
      </trkpt>
      <trkpt lat="45.03691" lon="3.59048">
        <ele>590</ele>
        <time>2021-04-13T13:51:58Z</time>
      </trkpt>
      <trkpt lat="45.03696" lon="3.59044">
        <ele>590</ele>
        <time>2021-04-13T13:51:59Z</time>
      </trkpt>
      <trkpt lat="45.03701" lon="3.5904">
        <ele>590</ele>
        <time>2021-04-13T13:52:00Z</time>
      </trkpt>
      <trkpt lat="45.03706" lon="3.59037">
        <ele>590</ele>
        <time>2021-04-13T13:52:01Z</time>
      </trkpt>
      <trkpt lat="45.03711" lon="3.59034">
        <ele>590</ele>
        <time>2021-04-13T13:52:02Z</time>
      </trkpt>
      <trkpt lat="45.03716" lon="3.59032">
        <ele>590</ele>
        <time>2021-04-13T13:52:03Z</time>
      </trkpt>
      <trkpt lat="45.03721" lon="3.5903">
        <ele>590</ele>
        <time>2021-04-13T13:52:04Z</time>
      </trkpt>
      <trkpt lat="45.03726" lon="3.5903">
        <ele>590</ele>
        <time>2021-04-13T13:52:05Z</time>
      </trkpt>
      <trkpt lat="45.03748" lon="3.5903">
        <ele>590</ele>
        <time>2021-04-13T13:52:09Z</time>
      </trkpt>
      <trkpt lat="45.03753" lon="3.5903">
        <ele>589</ele>
        <time>2021-04-13T13:52:10Z</time>
      </trkpt>
      <trkpt lat="45.03759" lon="3.59028">
        <ele>589</ele>
        <time>2021-04-13T13:52:11Z</time>
      </trkpt>
      <trkpt lat="45.03766" lon="3.59028">
        <ele>589</ele>
        <time>2021-04-13T13:52:12Z</time>
      </trkpt>
      <trkpt lat="45.03772" lon="3.59028">
        <ele>589</ele>
        <time>2021-04-13T13:52:13Z</time>
      </trkpt>
      <trkpt lat="45.03778" lon="3.59029">
        <ele>588</ele>
        <time>2021-04-13T13:52:14Z</time>
      </trkpt>
      <trkpt lat="45.03783" lon="3.59028">
        <ele>588</ele>
        <time>2021-04-13T13:52:15Z</time>
      </trkpt>
      <trkpt lat="45.03794" lon="3.59031">
        <ele>588</ele>
        <time>2021-04-13T13:52:17Z</time>
      </trkpt>
      <trkpt lat="45.03814" lon="3.59041">
        <ele>587</ele>
        <time>2021-04-13T13:52:21Z</time>
      </trkpt>
      <trkpt lat="45.03827" lon="3.5905">
        <ele>586</ele>
        <time>2021-04-13T13:52:23Z</time>
      </trkpt>
      <trkpt lat="45.03838" lon="3.59054">
        <ele>586</ele>
        <time>2021-04-13T13:52:25Z</time>
      </trkpt>
      <trkpt lat="45.03849" lon="3.59058">
        <ele>585</ele>
        <time>2021-04-13T13:52:27Z</time>
      </trkpt>
      <trkpt lat="45.03862" lon="3.59063">
        <ele>584</ele>
        <time>2021-04-13T13:52:29Z</time>
      </trkpt>
      <trkpt lat="45.03876" lon="3.59067">
        <ele>584</ele>
        <time>2021-04-13T13:52:31Z</time>
      </trkpt>
      <trkpt lat="45.03888" lon="3.59072">
        <ele>583</ele>
        <time>2021-04-13T13:52:33Z</time>
      </trkpt>
      <trkpt lat="45.03906" lon="3.59076">
        <ele>582</ele>
        <time>2021-04-13T13:52:35Z</time>
      </trkpt>
      <trkpt lat="45.03931" lon="3.5907">
        <ele>575</ele>
        <time>2021-04-13T13:52:43Z</time>
      </trkpt>
      <trkpt lat="45.03931" lon="3.59067">
        <ele>575</ele>
        <time>2021-04-13T13:52:44Z</time>
      </trkpt>
      <trkpt lat="45.0393" lon="3.59066">
        <ele>573</ele>
        <time>2021-04-13T13:52:51Z</time>
      </trkpt>
      <trkpt lat="45.03926" lon="3.5906">
        <ele>571</ele>
        <time>2021-04-13T13:53:06Z</time>
      </trkpt>
      <trkpt lat="45.03923" lon="3.59053">
        <ele>570</ele>
        <time>2021-04-13T13:53:08Z</time>
      </trkpt>
      <trkpt lat="45.03927" lon="3.59041">
        <ele>569</ele>
        <time>2021-04-13T13:53:10Z</time>
      </trkpt>
      <trkpt lat="45.03936" lon="3.59039">
        <ele>567</ele>
        <time>2021-04-13T13:53:12Z</time>
      </trkpt>
      <trkpt lat="45.03941" lon="3.5904">
        <ele>567</ele>
        <time>2021-04-13T13:53:13Z</time>
      </trkpt>
      <trkpt lat="45.0395" lon="3.59042">
        <ele>566</ele>
        <time>2021-04-13T13:53:15Z</time>
      </trkpt>
      <trkpt lat="45.03956" lon="3.59043">
        <ele>565</ele>
        <time>2021-04-13T13:53:16Z</time>
      </trkpt>
      <trkpt lat="45.0397" lon="3.59052">
        <ele>563</ele>
        <time>2021-04-13T13:53:18Z</time>
      </trkpt>
      <trkpt lat="45.03983" lon="3.5906">
        <ele>561</ele>
        <time>2021-04-13T13:53:20Z</time>
      </trkpt>
      <trkpt lat="45.03993" lon="3.59063">
        <ele>560</ele>
        <time>2021-04-13T13:53:22Z</time>
      </trkpt>
      <trkpt lat="45.03997" lon="3.59064">
        <ele>559</ele>
        <time>2021-04-13T13:53:23Z</time>
      </trkpt>
      <trkpt lat="45.04002" lon="3.59065">
        <ele>558</ele>
        <time>2021-04-13T13:53:24Z</time>
      </trkpt>
      <trkpt lat="45.04006" lon="3.59067">
        <ele>557</ele>
        <time>2021-04-13T13:53:25Z</time>
      </trkpt>
      <trkpt lat="45.04022" lon="3.59073">
        <ele>555</ele>
        <time>2021-04-13T13:53:29Z</time>
      </trkpt>
      <trkpt lat="45.04025" lon="3.59075">
        <ele>555</ele>
        <time>2021-04-13T13:53:30Z</time>
      </trkpt>
      <trkpt lat="45.04027" lon="3.59076">
        <ele>555</ele>
        <time>2021-04-13T13:53:31Z</time>
      </trkpt>
      <trkpt lat="45.04029" lon="3.59072">
        <ele>555</ele>
        <time>2021-04-13T13:53:32Z</time>
      </trkpt>
      <trkpt lat="45.04031" lon="3.59067">
        <ele>554</ele>
        <time>2021-04-13T13:53:33Z</time>
      </trkpt>
      <trkpt lat="45.04032" lon="3.59061">
        <ele>554</ele>
        <time>2021-04-13T13:53:34Z</time>
      </trkpt>
      <trkpt lat="45.04034" lon="3.59056">
        <ele>553</ele>
        <time>2021-04-13T13:53:35Z</time>
      </trkpt>
      <trkpt lat="45.04036" lon="3.59051">
        <ele>553</ele>
        <time>2021-04-13T13:53:36Z</time>
      </trkpt>
      <trkpt lat="45.04038" lon="3.59042">
        <ele>552</ele>
        <time>2021-04-13T13:53:38Z</time>
      </trkpt>
      <trkpt lat="45.04039" lon="3.59038">
        <ele>551</ele>
        <time>2021-04-13T13:53:39Z</time>
      </trkpt>
      <trkpt lat="45.04041" lon="3.59034">
        <ele>550</ele>
        <time>2021-04-13T13:53:40Z</time>
      </trkpt>
      <trkpt lat="45.04042" lon="3.59029">
        <ele>550</ele>
        <time>2021-04-13T13:53:41Z</time>
      </trkpt>
      <trkpt lat="45.04045" lon="3.59025">
        <ele>549</ele>
        <time>2021-04-13T13:53:42Z</time>
      </trkpt>
      <trkpt lat="45.04048" lon="3.59023">
        <ele>549</ele>
        <time>2021-04-13T13:53:43Z</time>
      </trkpt>
      <trkpt lat="45.04052" lon="3.59024">
        <ele>549</ele>
        <time>2021-04-13T13:53:44Z</time>
      </trkpt>
      <trkpt lat="45.04055" lon="3.59027">
        <ele>549</ele>
        <time>2021-04-13T13:53:45Z</time>
      </trkpt>
      <trkpt lat="45.04067" lon="3.59043">
        <ele>548</ele>
        <time>2021-04-13T13:53:49Z</time>
      </trkpt>
      <trkpt lat="45.0407" lon="3.59047">
        <ele>547</ele>
        <time>2021-04-13T13:53:50Z</time>
      </trkpt>
      <trkpt lat="45.04073" lon="3.59052">
        <ele>547</ele>
        <time>2021-04-13T13:53:51Z</time>
      </trkpt>
      <trkpt lat="45.04077" lon="3.59057">
        <ele>547</ele>
        <time>2021-04-13T13:53:52Z</time>
      </trkpt>
      <trkpt lat="45.0408" lon="3.59062">
        <ele>546</ele>
        <time>2021-04-13T13:53:53Z</time>
      </trkpt>
      <trkpt lat="45.04084" lon="3.59066">
        <ele>546</ele>
        <time>2021-04-13T13:53:54Z</time>
      </trkpt>
      <trkpt lat="45.04087" lon="3.5907">
        <ele>545</ele>
        <time>2021-04-13T13:53:55Z</time>
      </trkpt>
      <trkpt lat="45.04091" lon="3.59075">
        <ele>545</ele>
        <time>2021-04-13T13:53:56Z</time>
      </trkpt>
      <trkpt lat="45.04098" lon="3.59084">
        <ele>545</ele>
        <time>2021-04-13T13:53:58Z</time>
      </trkpt>
      <trkpt lat="45.04101" lon="3.59089">
        <ele>545</ele>
        <time>2021-04-13T13:53:59Z</time>
      </trkpt>
      <trkpt lat="45.04105" lon="3.59094">
        <ele>545</ele>
        <time>2021-04-13T13:54:00Z</time>
      </trkpt>
      <trkpt lat="45.04108" lon="3.59099">
        <ele>544</ele>
        <time>2021-04-13T13:54:01Z</time>
      </trkpt>
      <trkpt lat="45.04112" lon="3.59104">
        <ele>544</ele>
        <time>2021-04-13T13:54:02Z</time>
      </trkpt>
      <trkpt lat="45.04116" lon="3.59109">
        <ele>544</ele>
        <time>2021-04-13T13:54:03Z</time>
      </trkpt>
      <trkpt lat="45.0412" lon="3.59114">
        <ele>544</ele>
        <time>2021-04-13T13:54:04Z</time>
      </trkpt>
      <trkpt lat="45.04124" lon="3.59118">
        <ele>544</ele>
        <time>2021-04-13T13:54:05Z</time>
      </trkpt>
      <trkpt lat="45.04141" lon="3.59136">
        <ele>544</ele>
        <time>2021-04-13T13:54:09Z</time>
      </trkpt>
      <trkpt lat="45.04145" lon="3.5914">
        <ele>543</ele>
        <time>2021-04-13T13:54:10Z</time>
      </trkpt>
      <trkpt lat="45.0415" lon="3.59144">
        <ele>543</ele>
        <time>2021-04-13T13:54:11Z</time>
      </trkpt>
      <trkpt lat="45.04154" lon="3.59147">
        <ele>543</ele>
        <time>2021-04-13T13:54:12Z</time>
      </trkpt>
      <trkpt lat="45.04158" lon="3.5915">
        <ele>543</ele>
        <time>2021-04-13T13:54:13Z</time>
      </trkpt>
      <trkpt lat="45.04162" lon="3.59154">
        <ele>543</ele>
        <time>2021-04-13T13:54:14Z</time>
      </trkpt>
      <trkpt lat="45.04166" lon="3.59158">
        <ele>543</ele>
        <time>2021-04-13T13:54:15Z</time>
      </trkpt>
      <trkpt lat="45.0417" lon="3.59162">
        <ele>543</ele>
        <time>2021-04-13T13:54:16Z</time>
      </trkpt>
      <trkpt lat="45.04176" lon="3.59173">
        <ele>542</ele>
        <time>2021-04-13T13:54:18Z</time>
      </trkpt>
      <trkpt lat="45.04178" lon="3.59178">
        <ele>542</ele>
        <time>2021-04-13T13:54:19Z</time>
      </trkpt>
      <trkpt lat="45.04179" lon="3.59185">
        <ele>542</ele>
        <time>2021-04-13T13:54:20Z</time>
      </trkpt>
      <trkpt lat="45.0418" lon="3.59191">
        <ele>542</ele>
        <time>2021-04-13T13:54:21Z</time>
      </trkpt>
      <trkpt lat="45.04181" lon="3.59197">
        <ele>542</ele>
        <time>2021-04-13T13:54:22Z</time>
      </trkpt>
      <trkpt lat="45.04182" lon="3.59203">
        <ele>542</ele>
        <time>2021-04-13T13:54:23Z</time>
      </trkpt>
      <trkpt lat="45.04183" lon="3.59209">
        <ele>542</ele>
        <time>2021-04-13T13:54:24Z</time>
      </trkpt>
      <trkpt lat="45.04185" lon="3.59214">
        <ele>542</ele>
        <time>2021-04-13T13:54:25Z</time>
      </trkpt>
      <trkpt lat="45.04194" lon="3.59232">
        <ele>541</ele>
        <time>2021-04-13T13:54:29Z</time>
      </trkpt>
      <trkpt lat="45.04197" lon="3.59236">
        <ele>541</ele>
        <time>2021-04-13T13:54:30Z</time>
      </trkpt>
      <trkpt lat="45.042" lon="3.59239">
        <ele>541</ele>
        <time>2021-04-13T13:54:31Z</time>
      </trkpt>
      <trkpt lat="45.04204" lon="3.59242">
        <ele>541</ele>
        <time>2021-04-13T13:54:32Z</time>
      </trkpt>
      <trkpt lat="45.04208" lon="3.59244">
        <ele>541</ele>
        <time>2021-04-13T13:54:33Z</time>
      </trkpt>
      <trkpt lat="45.04211" lon="3.59246">
        <ele>541</ele>
        <time>2021-04-13T13:54:34Z</time>
      </trkpt>
      <trkpt lat="45.04215" lon="3.59248">
        <ele>541</ele>
        <time>2021-04-13T13:54:35Z</time>
      </trkpt>
      <trkpt lat="45.0422" lon="3.5925">
        <ele>541</ele>
        <time>2021-04-13T13:54:36Z</time>
      </trkpt>
      <trkpt lat="45.04229" lon="3.59254">
        <ele>541</ele>
        <time>2021-04-13T13:54:38Z</time>
      </trkpt>
      <trkpt lat="45.04233" lon="3.59256">
        <ele>541</ele>
        <time>2021-04-13T13:54:39Z</time>
      </trkpt>
      <trkpt lat="45.04237" lon="3.59256">
        <ele>541</ele>
        <time>2021-04-13T13:54:40Z</time>
      </trkpt>
      <trkpt lat="45.04241" lon="3.59257">
        <ele>541</ele>
        <time>2021-04-13T13:54:41Z</time>
      </trkpt>
      <trkpt lat="45.04246" lon="3.59259">
        <ele>541</ele>
        <time>2021-04-13T13:54:42Z</time>
      </trkpt>
      <trkpt lat="45.04256" lon="3.59262">
        <ele>541</ele>
        <time>2021-04-13T13:54:44Z</time>
      </trkpt>
      <trkpt lat="45.04267" lon="3.59265">
        <ele>541</ele>
        <time>2021-04-13T13:54:46Z</time>
      </trkpt>
      <trkpt lat="45.0428" lon="3.59269">
        <ele>541</ele>
        <time>2021-04-13T13:54:48Z</time>
      </trkpt>
      <trkpt lat="45.04325" lon="3.59284">
        <ele>540</ele>
        <time>2021-04-13T13:54:56Z</time>
      </trkpt>
      <trkpt lat="45.04335" lon="3.59286">
        <ele>540</ele>
        <time>2021-04-13T13:54:58Z</time>
      </trkpt>
      <trkpt lat="45.04345" lon="3.59288">
        <ele>540</ele>
        <time>2021-04-13T13:55:00Z</time>
      </trkpt>
      <trkpt lat="45.04355" lon="3.59288">
        <ele>540</ele>
        <time>2021-04-13T13:55:02Z</time>
      </trkpt>
      <trkpt lat="45.04366" lon="3.59284">
        <ele>540</ele>
        <time>2021-04-13T13:55:05Z</time>
      </trkpt>
      <trkpt lat="45.04378" lon="3.59279">
        <ele>540</ele>
        <time>2021-04-13T13:55:08Z</time>
      </trkpt>
      <trkpt lat="45.04387" lon="3.59274">
        <ele>540</ele>
        <time>2021-04-13T13:55:10Z</time>
      </trkpt>
      <trkpt lat="45.04395" lon="3.59267">
        <ele>540</ele>
        <time>2021-04-13T13:55:12Z</time>
      </trkpt>
      <trkpt lat="45.04414" lon="3.59253">
        <ele>540</ele>
        <time>2021-04-13T13:55:16Z</time>
      </trkpt>
      <trkpt lat="45.04423" lon="3.59243">
        <ele>540</ele>
        <time>2021-04-13T13:55:18Z</time>
      </trkpt>
      <trkpt lat="45.04433" lon="3.59231">
        <ele>540</ele>
        <time>2021-04-13T13:55:20Z</time>
      </trkpt>
      <trkpt lat="45.04443" lon="3.59222">
        <ele>540</ele>
        <time>2021-04-13T13:55:22Z</time>
      </trkpt>
      <trkpt lat="45.04453" lon="3.59218">
        <ele>540</ele>
        <time>2021-04-13T13:55:24Z</time>
      </trkpt>
      <trkpt lat="45.04462" lon="3.59214">
        <ele>540</ele>
        <time>2021-04-13T13:55:26Z</time>
      </trkpt>
      <trkpt lat="45.04469" lon="3.59207">
        <ele>540</ele>
        <time>2021-04-13T13:55:28Z</time>
      </trkpt>
      <trkpt lat="45.04478" lon="3.59202">
        <ele>540</ele>
        <time>2021-04-13T13:55:30Z</time>
      </trkpt>
      <trkpt lat="45.0451" lon="3.59171">
        <ele>537</ele>
        <time>2021-04-13T13:55:39Z</time>
      </trkpt>
      <trkpt lat="45.04518" lon="3.59163">
        <ele>537</ele>
        <time>2021-04-13T13:55:42Z</time>
      </trkpt>
      <trkpt lat="45.04526" lon="3.59156">
        <ele>536</ele>
        <time>2021-04-13T13:55:45Z</time>
      </trkpt>
      <trkpt lat="45.04535" lon="3.59149">
        <ele>536</ele>
        <time>2021-04-13T13:55:48Z</time>
      </trkpt>
      <trkpt lat="45.0454" lon="3.59144">
        <ele>536</ele>
        <time>2021-04-13T13:55:50Z</time>
      </trkpt>
      <trkpt lat="45.04543" lon="3.59142">
        <ele>535</ele>
        <time>2021-04-13T13:55:51Z</time>
      </trkpt>
      <trkpt lat="45.04552" lon="3.59135">
        <ele>535</ele>
        <time>2021-04-13T13:55:54Z</time>
      </trkpt>
      <trkpt lat="45.04562" lon="3.59132">
        <ele>534</ele>
        <time>2021-04-13T13:55:57Z</time>
      </trkpt>
      <trkpt lat="45.04569" lon="3.59128">
        <ele>534</ele>
        <time>2021-04-13T13:55:59Z</time>
      </trkpt>
      <trkpt lat="45.04571" lon="3.59125">
        <ele>534</ele>
        <time>2021-04-13T13:56:00Z</time>
      </trkpt>
      <trkpt lat="45.04574" lon="3.59122">
        <ele>534</ele>
        <time>2021-04-13T13:56:01Z</time>
      </trkpt>
      <trkpt lat="45.04577" lon="3.5912">
        <ele>534</ele>
        <time>2021-04-13T13:56:02Z</time>
      </trkpt>
      <trkpt lat="45.0458" lon="3.59117">
        <ele>534</ele>
        <time>2021-04-13T13:56:03Z</time>
      </trkpt>
      <trkpt lat="45.04583" lon="3.59115">
        <ele>534</ele>
        <time>2021-04-13T13:56:04Z</time>
      </trkpt>
      <trkpt lat="45.04586" lon="3.59112">
        <ele>534</ele>
        <time>2021-04-13T13:56:05Z</time>
      </trkpt>
      <trkpt lat="45.04588" lon="3.5911">
        <ele>535</ele>
        <time>2021-04-13T13:56:06Z</time>
      </trkpt>
      <trkpt lat="45.04601" lon="3.591">
        <ele>535</ele>
        <time>2021-04-13T13:56:11Z</time>
      </trkpt>
      <trkpt lat="45.04603" lon="3.59099">
        <ele>534</ele>
        <time>2021-04-13T13:56:12Z</time>
      </trkpt>
      <trkpt lat="45.04605" lon="3.59097">
        <ele>534</ele>
        <time>2021-04-13T13:56:13Z</time>
      </trkpt>
      <trkpt lat="45.04608" lon="3.59096">
        <ele>534</ele>
        <time>2021-04-13T13:56:14Z</time>
      </trkpt>
      <trkpt lat="45.0461" lon="3.59095">
        <ele>534</ele>
        <time>2021-04-13T13:56:15Z</time>
      </trkpt>
      <trkpt lat="45.04613" lon="3.59094">
        <ele>534</ele>
        <time>2021-04-13T13:56:16Z</time>
      </trkpt>
      <trkpt lat="45.04616" lon="3.59092">
        <ele>534</ele>
        <time>2021-04-13T13:56:17Z</time>
      </trkpt>
      <trkpt lat="45.04619" lon="3.5909">
        <ele>535</ele>
        <time>2021-04-13T13:56:18Z</time>
      </trkpt>
      <trkpt lat="45.04624" lon="3.59087">
        <ele>535</ele>
        <time>2021-04-13T13:56:20Z</time>
      </trkpt>
      <trkpt lat="45.04627" lon="3.59085">
        <ele>535</ele>
        <time>2021-04-13T13:56:21Z</time>
      </trkpt>
      <trkpt lat="45.04629" lon="3.59082">
        <ele>535</ele>
        <time>2021-04-13T13:56:22Z</time>
      </trkpt>
      <trkpt lat="45.04632" lon="3.59079">
        <ele>535</ele>
        <time>2021-04-13T13:56:23Z</time>
      </trkpt>
      <trkpt lat="45.04634" lon="3.59076">
        <ele>535</ele>
        <time>2021-04-13T13:56:24Z</time>
      </trkpt>
      <trkpt lat="45.04637" lon="3.59073">
        <ele>535</ele>
        <time>2021-04-13T13:56:25Z</time>
      </trkpt>
      <trkpt lat="45.0464" lon="3.5907">
        <ele>535</ele>
        <time>2021-04-13T13:56:26Z</time>
      </trkpt>
      <trkpt lat="45.04644" lon="3.59067">
        <ele>535</ele>
        <time>2021-04-13T13:56:27Z</time>
      </trkpt>
      <trkpt lat="45.04653" lon="3.5905">
        <ele>536</ele>
        <time>2021-04-13T13:56:31Z</time>
      </trkpt>
      <trkpt lat="45.04655" lon="3.59046">
        <ele>536</ele>
        <time>2021-04-13T13:56:32Z</time>
      </trkpt>
      <trkpt lat="45.04657" lon="3.59041">
        <ele>536</ele>
        <time>2021-04-13T13:56:33Z</time>
      </trkpt>
      <trkpt lat="45.04658" lon="3.59036">
        <ele>536</ele>
        <time>2021-04-13T13:56:34Z</time>
      </trkpt>
      <trkpt lat="45.0466" lon="3.59031">
        <ele>536</ele>
        <time>2021-04-13T13:56:35Z</time>
      </trkpt>
      <trkpt lat="45.04662" lon="3.59026">
        <ele>536</ele>
        <time>2021-04-13T13:56:36Z</time>
      </trkpt>
      <trkpt lat="45.04663" lon="3.59021">
        <ele>537</ele>
        <time>2021-04-13T13:56:37Z</time>
      </trkpt>
      <trkpt lat="45.04665" lon="3.59015">
        <ele>537</ele>
        <time>2021-04-13T13:56:38Z</time>
      </trkpt>
      <trkpt lat="45.04669" lon="3.59004">
        <ele>537</ele>
        <time>2021-04-13T13:56:40Z</time>
      </trkpt>
      <trkpt lat="45.04671" lon="3.58999">
        <ele>537</ele>
        <time>2021-04-13T13:56:41Z</time>
      </trkpt>
      <trkpt lat="45.04673" lon="3.58993">
        <ele>538</ele>
        <time>2021-04-13T13:56:42Z</time>
      </trkpt>
      <trkpt lat="45.04675" lon="3.58988">
        <ele>538</ele>
        <time>2021-04-13T13:56:43Z</time>
      </trkpt>
      <trkpt lat="45.04677" lon="3.58982">
        <ele>538</ele>
        <time>2021-04-13T13:56:44Z</time>
      </trkpt>
      <trkpt lat="45.04679" lon="3.58977">
        <ele>538</ele>
        <time>2021-04-13T13:56:45Z</time>
      </trkpt>
      <trkpt lat="45.04681" lon="3.58972">
        <ele>538</ele>
        <time>2021-04-13T13:56:46Z</time>
      </trkpt>
      <trkpt lat="45.04683" lon="3.58966">
        <ele>538</ele>
        <time>2021-04-13T13:56:47Z</time>
      </trkpt>
      <trkpt lat="45.0469" lon="3.58943">
        <ele>538</ele>
        <time>2021-04-13T13:56:51Z</time>
      </trkpt>
      <trkpt lat="45.04692" lon="3.58937">
        <ele>539</ele>
        <time>2021-04-13T13:56:52Z</time>
      </trkpt>
      <trkpt lat="45.04693" lon="3.58931">
        <ele>539</ele>
        <time>2021-04-13T13:56:53Z</time>
      </trkpt>
      <trkpt lat="45.04694" lon="3.58925">
        <ele>539</ele>
        <time>2021-04-13T13:56:54Z</time>
      </trkpt>
      <trkpt lat="45.04696" lon="3.58918">
        <ele>539</ele>
        <time>2021-04-13T13:56:55Z</time>
      </trkpt>
      <trkpt lat="45.04697" lon="3.58912">
        <ele>539</ele>
        <time>2021-04-13T13:56:56Z</time>
      </trkpt>
      <trkpt lat="45.04698" lon="3.58906">
        <ele>539</ele>
        <time>2021-04-13T13:56:57Z</time>
      </trkpt>
      <trkpt lat="45.04699" lon="3.58899">
        <ele>539</ele>
        <time>2021-04-13T13:56:58Z</time>
      </trkpt>
      <trkpt lat="45.04702" lon="3.58885">
        <ele>539</ele>
        <time>2021-04-13T13:57:00Z</time>
      </trkpt>
      <trkpt lat="45.04704" lon="3.58878">
        <ele>539</ele>
        <time>2021-04-13T13:57:01Z</time>
      </trkpt>
      <trkpt lat="45.04705" lon="3.58871">
        <ele>539</ele>
        <time>2021-04-13T13:57:02Z</time>
      </trkpt>
      <trkpt lat="45.04707" lon="3.58864">
        <ele>539</ele>
        <time>2021-04-13T13:57:03Z</time>
      </trkpt>
      <trkpt lat="45.0471" lon="3.58856">
        <ele>539</ele>
        <time>2021-04-13T13:57:04Z</time>
      </trkpt>
      <trkpt lat="45.04712" lon="3.58849">
        <ele>539</ele>
        <time>2021-04-13T13:57:05Z</time>
      </trkpt>
      <trkpt lat="45.04715" lon="3.58842">
        <ele>539</ele>
        <time>2021-04-13T13:57:06Z</time>
      </trkpt>
      <trkpt lat="45.04717" lon="3.58835">
        <ele>539</ele>
        <time>2021-04-13T13:57:07Z</time>
      </trkpt>
      <trkpt lat="45.04725" lon="3.58804">
        <ele>539</ele>
        <time>2021-04-13T13:57:11Z</time>
      </trkpt>
      <trkpt lat="45.04727" lon="3.58797">
        <ele>539</ele>
        <time>2021-04-13T13:57:12Z</time>
      </trkpt>
      <trkpt lat="45.04729" lon="3.58789">
        <ele>539</ele>
        <time>2021-04-13T13:57:13Z</time>
      </trkpt>
      <trkpt lat="45.04731" lon="3.58782">
        <ele>538</ele>
        <time>2021-04-13T13:57:14Z</time>
      </trkpt>
      <trkpt lat="45.04733" lon="3.58774">
        <ele>538</ele>
        <time>2021-04-13T13:57:15Z</time>
      </trkpt>
      <trkpt lat="45.04734" lon="3.58767">
        <ele>538</ele>
        <time>2021-04-13T13:57:16Z</time>
      </trkpt>
      <trkpt lat="45.04736" lon="3.58759">
        <ele>538</ele>
        <time>2021-04-13T13:57:17Z</time>
      </trkpt>
      <trkpt lat="45.04738" lon="3.58752">
        <ele>538</ele>
        <time>2021-04-13T13:57:18Z</time>
      </trkpt>
      <trkpt lat="45.04742" lon="3.58737">
        <ele>538</ele>
        <time>2021-04-13T13:57:20Z</time>
      </trkpt>
      <trkpt lat="45.04743" lon="3.5873">
        <ele>538</ele>
        <time>2021-04-13T13:57:21Z</time>
      </trkpt>
      <trkpt lat="45.04745" lon="3.58723">
        <ele>538</ele>
        <time>2021-04-13T13:57:22Z</time>
      </trkpt>
      <trkpt lat="45.04747" lon="3.58717">
        <ele>538</ele>
        <time>2021-04-13T13:57:23Z</time>
      </trkpt>
      <trkpt lat="45.04749" lon="3.5871">
        <ele>538</ele>
        <time>2021-04-13T13:57:24Z</time>
      </trkpt>
      <trkpt lat="45.04751" lon="3.58703">
        <ele>538</ele>
        <time>2021-04-13T13:57:25Z</time>
      </trkpt>
      <trkpt lat="45.04753" lon="3.58696">
        <ele>538</ele>
        <time>2021-04-13T13:57:26Z</time>
      </trkpt>
      <trkpt lat="45.04756" lon="3.58689">
        <ele>538</ele>
        <time>2021-04-13T13:57:27Z</time>
      </trkpt>
      <trkpt lat="45.04765" lon="3.58663">
        <ele>538</ele>
        <time>2021-04-13T13:57:31Z</time>
      </trkpt>
      <trkpt lat="45.04767" lon="3.58655">
        <ele>538</ele>
        <time>2021-04-13T13:57:32Z</time>
      </trkpt>
      <trkpt lat="45.04769" lon="3.58648">
        <ele>538</ele>
        <time>2021-04-13T13:57:33Z</time>
      </trkpt>
      <trkpt lat="45.04771" lon="3.58642">
        <ele>538</ele>
        <time>2021-04-13T13:57:34Z</time>
      </trkpt>
      <trkpt lat="45.04773" lon="3.58635">
        <ele>538</ele>
        <time>2021-04-13T13:57:35Z</time>
      </trkpt>
      <trkpt lat="45.04775" lon="3.58628">
        <ele>538</ele>
        <time>2021-04-13T13:57:36Z</time>
      </trkpt>
      <trkpt lat="45.04777" lon="3.58621">
        <ele>538</ele>
        <time>2021-04-13T13:57:37Z</time>
      </trkpt>
      <trkpt lat="45.04779" lon="3.58614">
        <ele>538</ele>
        <time>2021-04-13T13:57:38Z</time>
      </trkpt>
      <trkpt lat="45.04782" lon="3.58599">
        <ele>538</ele>
        <time>2021-04-13T13:57:40Z</time>
      </trkpt>
      <trkpt lat="45.04783" lon="3.58592">
        <ele>538</ele>
        <time>2021-04-13T13:57:41Z</time>
      </trkpt>
      <trkpt lat="45.04785" lon="3.58584">
        <ele>538</ele>
        <time>2021-04-13T13:57:42Z</time>
      </trkpt>
      <trkpt lat="45.04787" lon="3.58577">
        <ele>538</ele>
        <time>2021-04-13T13:57:43Z</time>
      </trkpt>
      <trkpt lat="45.04789" lon="3.5857">
        <ele>538</ele>
        <time>2021-04-13T13:57:44Z</time>
      </trkpt>
      <trkpt lat="45.0479" lon="3.58562">
        <ele>538</ele>
        <time>2021-04-13T13:57:45Z</time>
      </trkpt>
      <trkpt lat="45.04792" lon="3.58555">
        <ele>538</ele>
        <time>2021-04-13T13:57:46Z</time>
      </trkpt>
      <trkpt lat="45.04794" lon="3.58549">
        <ele>538</ele>
        <time>2021-04-13T13:57:47Z</time>
      </trkpt>
      <trkpt lat="45.04798" lon="3.58522">
        <ele>538</ele>
        <time>2021-04-13T13:57:51Z</time>
      </trkpt>
      <trkpt lat="45.04799" lon="3.58514">
        <ele>538</ele>
        <time>2021-04-13T13:57:52Z</time>
      </trkpt>
      <trkpt lat="45.048" lon="3.58507">
        <ele>538</ele>
        <time>2021-04-13T13:57:53Z</time>
      </trkpt>
      <trkpt lat="45.04801" lon="3.58499">
        <ele>538</ele>
        <time>2021-04-13T13:57:54Z</time>
      </trkpt>
      <trkpt lat="45.04803" lon="3.5849">
        <ele>538</ele>
        <time>2021-04-13T13:57:55Z</time>
      </trkpt>
      <trkpt lat="45.04805" lon="3.58482">
        <ele>538</ele>
        <time>2021-04-13T13:57:56Z</time>
      </trkpt>
      <trkpt lat="45.04808" lon="3.58473">
        <ele>538</ele>
        <time>2021-04-13T13:57:57Z</time>
      </trkpt>
      <trkpt lat="45.04811" lon="3.58464">
        <ele>537</ele>
        <time>2021-04-13T13:57:58Z</time>
      </trkpt>
      <trkpt lat="45.04818" lon="3.58447">
        <ele>537</ele>
        <time>2021-04-13T13:58:00Z</time>
      </trkpt>
      <trkpt lat="45.04821" lon="3.58439">
        <ele>537</ele>
        <time>2021-04-13T13:58:01Z</time>
      </trkpt>
      <trkpt lat="45.04824" lon="3.58432">
        <ele>537</ele>
        <time>2021-04-13T13:58:02Z</time>
      </trkpt>
      <trkpt lat="45.04826" lon="3.58425">
        <ele>537</ele>
        <time>2021-04-13T13:58:03Z</time>
      </trkpt>
      <trkpt lat="45.04828" lon="3.58418">
        <ele>537</ele>
        <time>2021-04-13T13:58:04Z</time>
      </trkpt>
      <trkpt lat="45.04831" lon="3.58412">
        <ele>536</ele>
        <time>2021-04-13T13:58:05Z</time>
      </trkpt>
      <trkpt lat="45.04833" lon="3.58406">
        <ele>536</ele>
        <time>2021-04-13T13:58:06Z</time>
      </trkpt>
      <trkpt lat="45.04836" lon="3.58401">
        <ele>536</ele>
        <time>2021-04-13T13:58:07Z</time>
      </trkpt>
      <trkpt lat="45.04845" lon="3.58383">
        <ele>537</ele>
        <time>2021-04-13T13:58:11Z</time>
      </trkpt>
      <trkpt lat="45.04848" lon="3.58379">
        <ele>537</ele>
        <time>2021-04-13T13:58:12Z</time>
      </trkpt>
      <trkpt lat="45.04849" lon="3.58376">
        <ele>537</ele>
        <time>2021-04-13T13:58:13Z</time>
      </trkpt>
      <trkpt lat="45.04851" lon="3.58373">
        <ele>537</ele>
        <time>2021-04-13T13:58:14Z</time>
      </trkpt>
      <trkpt lat="45.04851" lon="3.58369">
        <ele>537</ele>
        <time>2021-04-13T13:58:16Z</time>
      </trkpt>
      <trkpt lat="45.04848" lon="3.58365">
        <ele>537</ele>
        <time>2021-04-13T13:58:18Z</time>
      </trkpt>
      <trkpt lat="45.04845" lon="3.58363">
        <ele>537</ele>
        <time>2021-04-13T13:58:19Z</time>
      </trkpt>
      <trkpt lat="45.04842" lon="3.58362">
        <ele>537</ele>
        <time>2021-04-13T13:58:20Z</time>
      </trkpt>
      <trkpt lat="45.04836" lon="3.58357">
        <ele>537</ele>
        <time>2021-04-13T13:58:22Z</time>
      </trkpt>
      <trkpt lat="45.04833" lon="3.58355">
        <ele>537</ele>
        <time>2021-04-13T13:58:23Z</time>
      </trkpt>
      <trkpt lat="45.04829" lon="3.58353">
        <ele>537</ele>
        <time>2021-04-13T13:58:24Z</time>
      </trkpt>
      <trkpt lat="45.04826" lon="3.58351">
        <ele>537</ele>
        <time>2021-04-13T13:58:25Z</time>
      </trkpt>
      <trkpt lat="45.04823" lon="3.58348">
        <ele>537</ele>
        <time>2021-04-13T13:58:26Z</time>
      </trkpt>
      <trkpt lat="45.04819" lon="3.58345">
        <ele>537</ele>
        <time>2021-04-13T13:58:27Z</time>
      </trkpt>
      <trkpt lat="45.04812" lon="3.5834">
        <ele>538</ele>
        <time>2021-04-13T13:58:29Z</time>
      </trkpt>
      <trkpt lat="45.04808" lon="3.58338">
        <ele>538</ele>
        <time>2021-04-13T13:58:30Z</time>
      </trkpt>
      <trkpt lat="45.04793" lon="3.58329">
        <ele>538</ele>
        <time>2021-04-13T13:58:34Z</time>
      </trkpt>
      <trkpt lat="45.0479" lon="3.58326">
        <ele>538</ele>
        <time>2021-04-13T13:58:35Z</time>
      </trkpt>
      <trkpt lat="45.04787" lon="3.58324">
        <ele>538</ele>
        <time>2021-04-13T13:58:36Z</time>
      </trkpt>
      <trkpt lat="45.04783" lon="3.58322">
        <ele>538</ele>
        <time>2021-04-13T13:58:37Z</time>
      </trkpt>
      <trkpt lat="45.0478" lon="3.5832">
        <ele>539</ele>
        <time>2021-04-13T13:58:38Z</time>
      </trkpt>
      <trkpt lat="45.04777" lon="3.58318">
        <ele>538</ele>
        <time>2021-04-13T13:58:39Z</time>
      </trkpt>
      <trkpt lat="45.04774" lon="3.58316">
        <ele>538</ele>
        <time>2021-04-13T13:58:40Z</time>
      </trkpt>
      <trkpt lat="45.0477" lon="3.58314">
        <ele>538</ele>
        <time>2021-04-13T13:58:41Z</time>
      </trkpt>
      <trkpt lat="45.04761" lon="3.58309">
        <ele>537</ele>
        <time>2021-04-13T13:58:43Z</time>
      </trkpt>
      <trkpt lat="45.04757" lon="3.58306">
        <ele>537</ele>
        <time>2021-04-13T13:58:44Z</time>
      </trkpt>
      <trkpt lat="45.04753" lon="3.58304">
        <ele>537</ele>
        <time>2021-04-13T13:58:45Z</time>
      </trkpt>
      <trkpt lat="45.04749" lon="3.58303">
        <ele>537</ele>
        <time>2021-04-13T13:58:46Z</time>
      </trkpt>
      <trkpt lat="45.04745" lon="3.58303">
        <ele>536</ele>
        <time>2021-04-13T13:58:47Z</time>
      </trkpt>
      <trkpt lat="45.04741" lon="3.58304">
        <ele>536</ele>
        <time>2021-04-13T13:58:48Z</time>
      </trkpt>
      <trkpt lat="45.04737" lon="3.58307">
        <ele>536</ele>
        <time>2021-04-13T13:58:49Z</time>
      </trkpt>
      <trkpt lat="45.04733" lon="3.5831">
        <ele>536</ele>
        <time>2021-04-13T13:58:50Z</time>
      </trkpt>
      <trkpt lat="45.04723" lon="3.58332">
        <ele>535</ele>
        <time>2021-04-13T13:58:54Z</time>
      </trkpt>
      <trkpt lat="45.04722" lon="3.58338">
        <ele>535</ele>
        <time>2021-04-13T13:58:55Z</time>
      </trkpt>
      <trkpt lat="45.0472" lon="3.58344">
        <ele>535</ele>
        <time>2021-04-13T13:58:56Z</time>
      </trkpt>
      <trkpt lat="45.04719" lon="3.58349">
        <ele>535</ele>
        <time>2021-04-13T13:58:57Z</time>
      </trkpt>
      <trkpt lat="45.04717" lon="3.58354">
        <ele>535</ele>
        <time>2021-04-13T13:58:58Z</time>
      </trkpt>
      <trkpt lat="45.04716" lon="3.58359">
        <ele>535</ele>
        <time>2021-04-13T13:58:59Z</time>
      </trkpt>
      <trkpt lat="45.04714" lon="3.58364">
        <ele>534</ele>
        <time>2021-04-13T13:59:00Z</time>
      </trkpt>
      <trkpt lat="45.04714" lon="3.5837">
        <ele>534</ele>
        <time>2021-04-13T13:59:01Z</time>
      </trkpt>
      <trkpt lat="45.04714" lon="3.5838">
        <ele>534</ele>
        <time>2021-04-13T13:59:03Z</time>
      </trkpt>
      <trkpt lat="45.04713" lon="3.58384">
        <ele>534</ele>
        <time>2021-04-13T13:59:04Z</time>
      </trkpt>
      <trkpt lat="45.04712" lon="3.58388">
        <ele>534</ele>
        <time>2021-04-13T13:59:05Z</time>
      </trkpt>
      <trkpt lat="45.0471" lon="3.58392">
        <ele>534</ele>
        <time>2021-04-13T13:59:06Z</time>
      </trkpt>
      <trkpt lat="45.04707" lon="3.58394">
        <ele>534</ele>
        <time>2021-04-13T13:59:07Z</time>
      </trkpt>
      <trkpt lat="45.04705" lon="3.58395">
        <ele>534</ele>
        <time>2021-04-13T13:59:08Z</time>
      </trkpt>
      <trkpt lat="45.04702" lon="3.58395">
        <ele>534</ele>
        <time>2021-04-13T13:59:09Z</time>
      </trkpt>
      <trkpt lat="45.04699" lon="3.58393">
        <ele>534</ele>
        <time>2021-04-13T13:59:10Z</time>
      </trkpt>
      <trkpt lat="45.04692" lon="3.58379">
        <ele>534</ele>
        <time>2021-04-13T13:59:14Z</time>
      </trkpt>
      <trkpt lat="45.04691" lon="3.58377">
        <ele>534</ele>
        <time>2021-04-13T13:59:15Z</time>
      </trkpt>
      <trkpt lat="45.04691" lon="3.58374">
        <ele>535</ele>
        <time>2021-04-13T13:59:16Z</time>
      </trkpt>
      <trkpt lat="45.04691" lon="3.58371">
        <ele>535</ele>
        <time>2021-04-13T13:59:17Z</time>
      </trkpt>
      <trkpt lat="45.04691" lon="3.58366">
        <ele>535</ele>
        <time>2021-04-13T13:59:19Z</time>
      </trkpt>
      <trkpt lat="45.04692" lon="3.58362">
        <ele>535</ele>
        <time>2021-04-13T13:59:21Z</time>
      </trkpt>
      <trkpt lat="45.04693" lon="3.58359">
        <ele>535</ele>
        <time>2021-04-13T13:59:22Z</time>
      </trkpt>
      <trkpt lat="45.04693" lon="3.58356">
        <ele>535</ele>
        <time>2021-04-13T13:59:23Z</time>
      </trkpt>
      <trkpt lat="45.04694" lon="3.58351">
        <ele>535</ele>
        <time>2021-04-13T13:59:25Z</time>
      </trkpt>
      <trkpt lat="45.04695" lon="3.58348">
        <ele>535</ele>
        <time>2021-04-13T13:59:26Z</time>
      </trkpt>
      <trkpt lat="45.04695" lon="3.58345">
        <ele>535</ele>
        <time>2021-04-13T13:59:27Z</time>
      </trkpt>
      <trkpt lat="45.04696" lon="3.58342">
        <ele>535</ele>
        <time>2021-04-13T13:59:28Z</time>
      </trkpt>
      <trkpt lat="45.04696" lon="3.58339">
        <ele>536</ele>
        <time>2021-04-13T13:59:29Z</time>
      </trkpt>
      <trkpt lat="45.04697" lon="3.58336">
        <ele>535</ele>
        <time>2021-04-13T13:59:30Z</time>
      </trkpt>
      <trkpt lat="45.04697" lon="3.58334">
        <ele>535</ele>
        <time>2021-04-13T13:59:31Z</time>
      </trkpt>
      <trkpt lat="45.04697" lon="3.58331">
        <ele>536</ele>
        <time>2021-04-13T13:59:32Z</time>
      </trkpt>
      <trkpt lat="45.04698" lon="3.58319">
        <ele>536</ele>
        <time>2021-04-13T13:59:36Z</time>
      </trkpt>
      <trkpt lat="45.04698" lon="3.58316">
        <ele>536</ele>
        <time>2021-04-13T13:59:37Z</time>
      </trkpt>
      <trkpt lat="45.04698" lon="3.58313">
        <ele>537</ele>
        <time>2021-04-13T13:59:38Z</time>
      </trkpt>
      <trkpt lat="45.04697" lon="3.5831">
        <ele>537</ele>
        <time>2021-04-13T13:59:39Z</time>
      </trkpt>
      <trkpt lat="45.04697" lon="3.58307">
        <ele>537</ele>
        <time>2021-04-13T13:59:40Z</time>
      </trkpt>
      <trkpt lat="45.04696" lon="3.58304">
        <ele>537</ele>
        <time>2021-04-13T13:59:41Z</time>
      </trkpt>
      <trkpt lat="45.04696" lon="3.583">
        <ele>538</ele>
        <time>2021-04-13T13:59:42Z</time>
      </trkpt>
      <trkpt lat="45.04696" lon="3.58297">
        <ele>538</ele>
        <time>2021-04-13T13:59:43Z</time>
      </trkpt>
      <trkpt lat="45.04697" lon="3.58291">
        <ele>539</ele>
        <time>2021-04-13T13:59:45Z</time>
      </trkpt>
      <trkpt lat="45.04698" lon="3.58288">
        <ele>539</ele>
        <time>2021-04-13T13:59:46Z</time>
      </trkpt>
      <trkpt lat="45.04699" lon="3.58286">
        <ele>539</ele>
        <time>2021-04-13T13:59:47Z</time>
      </trkpt>
      <trkpt lat="45.04699" lon="3.58283">
        <ele>539</ele>
        <time>2021-04-13T13:59:48Z</time>
      </trkpt>
      <trkpt lat="45.04699" lon="3.5828">
        <ele>539</ele>
        <time>2021-04-13T13:59:49Z</time>
      </trkpt>
      <trkpt lat="45.047" lon="3.58277">
        <ele>540</ele>
        <time>2021-04-13T13:59:50Z</time>
      </trkpt>
      <trkpt lat="45.047" lon="3.58274">
        <ele>540</ele>
        <time>2021-04-13T13:59:51Z</time>
      </trkpt>
      <trkpt lat="45.04701" lon="3.58271">
        <ele>540</ele>
        <time>2021-04-13T13:59:52Z</time>
      </trkpt>
      <trkpt lat="45.04703" lon="3.58259">
        <ele>542</ele>
        <time>2021-04-13T13:59:56Z</time>
      </trkpt>
      <trkpt lat="45.04704" lon="3.58256">
        <ele>542</ele>
        <time>2021-04-13T13:59:57Z</time>
      </trkpt>
      <trkpt lat="45.04704" lon="3.58253">
        <ele>542</ele>
        <time>2021-04-13T13:59:58Z</time>
      </trkpt>
      <trkpt lat="45.04704" lon="3.5825">
        <ele>543</ele>
        <time>2021-04-13T13:59:59Z</time>
      </trkpt>
      <trkpt lat="45.04704" lon="3.58248">
        <ele>543</ele>
        <time>2021-04-13T14:00:00Z</time>
      </trkpt>
      <trkpt lat="45.04703" lon="3.58245">
        <ele>543</ele>
        <time>2021-04-13T14:00:01Z</time>
      </trkpt>
      <trkpt lat="45.04703" lon="3.58242">
        <ele>543</ele>
        <time>2021-04-13T14:00:02Z</time>
      </trkpt>
      <trkpt lat="45.04703" lon="3.58239">
        <ele>543</ele>
        <time>2021-04-13T14:00:03Z</time>
      </trkpt>
      <trkpt lat="45.04702" lon="3.58234">
        <ele>544</ele>
        <time>2021-04-13T14:00:05Z</time>
      </trkpt>
      <trkpt lat="45.04702" lon="3.58231">
        <ele>544</ele>
        <time>2021-04-13T14:00:06Z</time>
      </trkpt>
      <trkpt lat="45.04702" lon="3.58228">
        <ele>544</ele>
        <time>2021-04-13T14:00:07Z</time>
      </trkpt>
      <trkpt lat="45.04702" lon="3.58225">
        <ele>544</ele>
        <time>2021-04-13T14:00:08Z</time>
      </trkpt>
      <trkpt lat="45.04702" lon="3.58223">
        <ele>545</ele>
        <time>2021-04-13T14:00:10Z</time>
      </trkpt>
      <trkpt lat="45.04704" lon="3.58218">
        <ele>546</ele>
        <time>2021-04-13T14:00:14Z</time>
      </trkpt>
      <trkpt lat="45.04706" lon="3.58216">
        <ele>546</ele>
        <time>2021-04-13T14:00:15Z</time>
      </trkpt>
      <trkpt lat="45.04708" lon="3.58213">
        <ele>547</ele>
        <time>2021-04-13T14:00:16Z</time>
      </trkpt>
      <trkpt lat="45.04717" lon="3.58202">
        <ele>547</ele>
        <time>2021-04-13T14:00:20Z</time>
      </trkpt>
      <trkpt lat="45.04719" lon="3.58199">
        <ele>547</ele>
        <time>2021-04-13T14:00:21Z</time>
      </trkpt>
      <trkpt lat="45.04721" lon="3.58196">
        <ele>548</ele>
        <time>2021-04-13T14:00:22Z</time>
      </trkpt>
      <trkpt lat="45.04723" lon="3.58193">
        <ele>548</ele>
        <time>2021-04-13T14:00:23Z</time>
      </trkpt>
      <trkpt lat="45.04725" lon="3.58191">
        <ele>548</ele>
        <time>2021-04-13T14:00:24Z</time>
      </trkpt>
      <trkpt lat="45.04727" lon="3.58188">
        <ele>548</ele>
        <time>2021-04-13T14:00:25Z</time>
      </trkpt>
      <trkpt lat="45.04729" lon="3.58185">
        <ele>548</ele>
        <time>2021-04-13T14:00:26Z</time>
      </trkpt>
      <trkpt lat="45.04731" lon="3.58183">
        <ele>549</ele>
        <time>2021-04-13T14:00:27Z</time>
      </trkpt>
      <trkpt lat="45.04735" lon="3.58176">
        <ele>549</ele>
        <time>2021-04-13T14:00:29Z</time>
      </trkpt>
      <trkpt lat="45.04736" lon="3.58174">
        <ele>549</ele>
        <time>2021-04-13T14:00:30Z</time>
      </trkpt>
      <trkpt lat="45.04738" lon="3.58171">
        <ele>550</ele>
        <time>2021-04-13T14:00:31Z</time>
      </trkpt>
      <trkpt lat="45.04739" lon="3.58168">
        <ele>550</ele>
        <time>2021-04-13T14:00:32Z</time>
      </trkpt>
      <trkpt lat="45.04741" lon="3.58166">
        <ele>550</ele>
        <time>2021-04-13T14:00:33Z</time>
      </trkpt>
      <trkpt lat="45.04743" lon="3.58164">
        <ele>551</ele>
        <time>2021-04-13T14:00:34Z</time>
      </trkpt>
      <trkpt lat="45.04744" lon="3.58161">
        <ele>551</ele>
        <time>2021-04-13T14:00:35Z</time>
      </trkpt>
      <trkpt lat="45.04745" lon="3.58159">
        <ele>551</ele>
        <time>2021-04-13T14:00:36Z</time>
      </trkpt>
      <trkpt lat="45.04752" lon="3.58148">
        <ele>553</ele>
        <time>2021-04-13T14:00:40Z</time>
      </trkpt>
      <trkpt lat="45.04753" lon="3.58146">
        <ele>553</ele>
        <time>2021-04-13T14:00:41Z</time>
      </trkpt>
      <trkpt lat="45.04754" lon="3.58143">
        <ele>555</ele>
        <time>2021-04-13T14:00:45Z</time>
      </trkpt>
      <trkpt lat="45.04745" lon="3.58145">
        <ele>555</ele>
        <time>2021-04-13T14:01:05Z</time>
      </trkpt>
      <trkpt lat="45.04742" lon="3.58147">
        <ele>556</ele>
        <time>2021-04-13T14:01:06Z</time>
      </trkpt>
      <trkpt lat="45.04739" lon="3.58149">
        <ele>556</ele>
        <time>2021-04-13T14:01:07Z</time>
      </trkpt>
      <trkpt lat="45.04736" lon="3.58151">
        <ele>556</ele>
        <time>2021-04-13T14:01:08Z</time>
      </trkpt>
      <trkpt lat="45.04734" lon="3.58153">
        <ele>556</ele>
        <time>2021-04-13T14:01:09Z</time>
      </trkpt>
      <trkpt lat="45.04729" lon="3.58156">
        <ele>557</ele>
        <time>2021-04-13T14:01:11Z</time>
      </trkpt>
      <trkpt lat="45.04723" lon="3.58158">
        <ele>557</ele>
        <time>2021-04-13T14:01:13Z</time>
      </trkpt>
      <trkpt lat="45.04721" lon="3.58159">
        <ele>557</ele>
        <time>2021-04-13T14:01:14Z</time>
      </trkpt>
      <trkpt lat="45.04718" lon="3.58161">
        <ele>557</ele>
        <time>2021-04-13T14:01:15Z</time>
      </trkpt>
      <trkpt lat="45.04716" lon="3.58162">
        <ele>558</ele>
        <time>2021-04-13T14:01:16Z</time>
      </trkpt>
      <trkpt lat="45.04714" lon="3.58163">
        <ele>558</ele>
        <time>2021-04-13T14:01:17Z</time>
      </trkpt>
      <trkpt lat="45.04712" lon="3.58165">
        <ele>558</ele>
        <time>2021-04-13T14:01:18Z</time>
      </trkpt>
      <trkpt lat="45.0471" lon="3.58167">
        <ele>558</ele>
        <time>2021-04-13T14:01:19Z</time>
      </trkpt>
      <trkpt lat="45.04702" lon="3.58175">
        <ele>559</ele>
        <time>2021-04-13T14:01:23Z</time>
      </trkpt>
      <trkpt lat="45.047" lon="3.58176">
        <ele>559</ele>
        <time>2021-04-13T14:01:24Z</time>
      </trkpt>
      <trkpt lat="45.04698" lon="3.58175">
        <ele>560</ele>
        <time>2021-04-13T14:01:25Z</time>
      </trkpt>
      <trkpt lat="45.04697" lon="3.58171">
        <ele>560</ele>
        <time>2021-04-13T14:01:27Z</time>
      </trkpt>
      <trkpt lat="45.047" lon="3.58161">
        <ele>562</ele>
        <time>2021-04-13T14:01:35Z</time>
      </trkpt>
      <trkpt lat="45.04701" lon="3.58158">
        <ele>562</ele>
        <time>2021-04-13T14:01:36Z</time>
      </trkpt>
      <trkpt lat="45.04703" lon="3.58154">
        <ele>562</ele>
        <time>2021-04-13T14:01:37Z</time>
      </trkpt>
      <trkpt lat="45.04705" lon="3.58151">
        <ele>563</ele>
        <time>2021-04-13T14:01:38Z</time>
      </trkpt>
      <trkpt lat="45.04709" lon="3.58144">
        <ele>564</ele>
        <time>2021-04-13T14:01:40Z</time>
      </trkpt>
      <trkpt lat="45.04711" lon="3.58141">
        <ele>564</ele>
        <time>2021-04-13T14:01:41Z</time>
      </trkpt>
      <trkpt lat="45.04713" lon="3.58138">
        <ele>564</ele>
        <time>2021-04-13T14:01:42Z</time>
      </trkpt>
      <trkpt lat="45.04715" lon="3.58135">
        <ele>564</ele>
        <time>2021-04-13T14:01:43Z</time>
      </trkpt>
      <trkpt lat="45.04718" lon="3.58132">
        <ele>565</ele>
        <time>2021-04-13T14:01:44Z</time>
      </trkpt>
      <trkpt lat="45.0472" lon="3.58129">
        <ele>565</ele>
        <time>2021-04-13T14:01:45Z</time>
      </trkpt>
      <trkpt lat="45.04722" lon="3.58126">
        <ele>565</ele>
        <time>2021-04-13T14:01:46Z</time>
      </trkpt>
      <trkpt lat="45.04724" lon="3.58123">
        <ele>565</ele>
        <time>2021-04-13T14:01:47Z</time>
      </trkpt>
      <trkpt lat="45.04733" lon="3.58112">
        <ele>566</ele>
        <time>2021-04-13T14:01:51Z</time>
      </trkpt>
      <trkpt lat="45.04735" lon="3.5811">
        <ele>567</ele>
        <time>2021-04-13T14:01:52Z</time>
      </trkpt>
      <trkpt lat="45.04737" lon="3.58108">
        <ele>567</ele>
        <time>2021-04-13T14:01:53Z</time>
      </trkpt>
      <trkpt lat="45.04738" lon="3.58105">
        <ele>568</ele>
        <time>2021-04-13T14:01:54Z</time>
      </trkpt>
      <trkpt lat="45.0474" lon="3.58103">
        <ele>568</ele>
        <time>2021-04-13T14:01:55Z</time>
      </trkpt>
      <trkpt lat="45.04742" lon="3.58102">
        <ele>568</ele>
        <time>2021-04-13T14:01:56Z</time>
      </trkpt>
      <trkpt lat="45.04743" lon="3.581">
        <ele>569</ele>
        <time>2021-04-13T14:01:57Z</time>
      </trkpt>
      <trkpt lat="45.04746" lon="3.58097">
        <ele>570</ele>
        <time>2021-04-13T14:01:59Z</time>
      </trkpt>
      <trkpt lat="45.0475" lon="3.5809">
        <ele>572</ele>
        <time>2021-04-13T14:02:03Z</time>
      </trkpt>
      <trkpt lat="45.04752" lon="3.58086">
        <ele>573</ele>
        <time>2021-04-13T14:02:05Z</time>
      </trkpt>
      <trkpt lat="45.04754" lon="3.58084">
        <ele>573</ele>
        <time>2021-04-13T14:02:06Z</time>
      </trkpt>
      <trkpt lat="45.04755" lon="3.58082">
        <ele>573</ele>
        <time>2021-04-13T14:02:07Z</time>
      </trkpt>
      <trkpt lat="45.04756" lon="3.5808">
        <ele>574</ele>
        <time>2021-04-13T14:02:08Z</time>
      </trkpt>
      <trkpt lat="45.04758" lon="3.58078">
        <ele>574</ele>
        <time>2021-04-13T14:02:09Z</time>
      </trkpt>
      <trkpt lat="45.04759" lon="3.58075">
        <ele>574</ele>
        <time>2021-04-13T14:02:10Z</time>
      </trkpt>
      <trkpt lat="45.04761" lon="3.58073">
        <ele>574</ele>
        <time>2021-04-13T14:02:11Z</time>
      </trkpt>
      <trkpt lat="45.04761" lon="3.58062">
        <ele>576</ele>
        <time>2021-04-13T14:02:15Z</time>
      </trkpt>
      <trkpt lat="45.0476" lon="3.5806">
        <ele>576</ele>
        <time>2021-04-13T14:02:16Z</time>
      </trkpt>
      <trkpt lat="45.04758" lon="3.58059">
        <ele>577</ele>
        <time>2021-04-13T14:02:17Z</time>
      </trkpt>
      <trkpt lat="45.04756" lon="3.58059">
        <ele>577</ele>
        <time>2021-04-13T14:02:18Z</time>
      </trkpt>
      <trkpt lat="45.04753" lon="3.5806">
        <ele>578</ele>
        <time>2021-04-13T14:02:19Z</time>
      </trkpt>
      <trkpt lat="45.04751" lon="3.58062">
        <ele>578</ele>
        <time>2021-04-13T14:02:20Z</time>
      </trkpt>
      <trkpt lat="45.04749" lon="3.58063">
        <ele>578</ele>
        <time>2021-04-13T14:02:21Z</time>
      </trkpt>
      <trkpt lat="45.04747" lon="3.58065">
        <ele>579</ele>
        <time>2021-04-13T14:02:22Z</time>
      </trkpt>
      <trkpt lat="45.04743" lon="3.58068">
        <ele>579</ele>
        <time>2021-04-13T14:02:24Z</time>
      </trkpt>
      <trkpt lat="45.04741" lon="3.58069">
        <ele>579</ele>
        <time>2021-04-13T14:02:25Z</time>
      </trkpt>
      <trkpt lat="45.04738" lon="3.58071">
        <ele>580</ele>
        <time>2021-04-13T14:02:26Z</time>
      </trkpt>
      <trkpt lat="45.04736" lon="3.58072">
        <ele>580</ele>
        <time>2021-04-13T14:02:27Z</time>
      </trkpt>
      <trkpt lat="45.04733" lon="3.58073">
        <ele>580</ele>
        <time>2021-04-13T14:02:28Z</time>
      </trkpt>
      <trkpt lat="45.0473" lon="3.58074">
        <ele>581</ele>
        <time>2021-04-13T14:02:29Z</time>
      </trkpt>
      <trkpt lat="45.04727" lon="3.58075">
        <ele>581</ele>
        <time>2021-04-13T14:02:30Z</time>
      </trkpt>
      <trkpt lat="45.04725" lon="3.58076">
        <ele>582</ele>
        <time>2021-04-13T14:02:31Z</time>
      </trkpt>
      <trkpt lat="45.04714" lon="3.58081">
        <ele>583</ele>
        <time>2021-04-13T14:02:35Z</time>
      </trkpt>
      <trkpt lat="45.04711" lon="3.58083">
        <ele>584</ele>
        <time>2021-04-13T14:02:36Z</time>
      </trkpt>
      <trkpt lat="45.04708" lon="3.58084">
        <ele>584</ele>
        <time>2021-04-13T14:02:37Z</time>
      </trkpt>
      <trkpt lat="45.04705" lon="3.58086">
        <ele>585</ele>
        <time>2021-04-13T14:02:38Z</time>
      </trkpt>
      <trkpt lat="45.04703" lon="3.58089">
        <ele>585</ele>
        <time>2021-04-13T14:02:39Z</time>
      </trkpt>
      <trkpt lat="45.04701" lon="3.58091">
        <ele>585</ele>
        <time>2021-04-13T14:02:40Z</time>
      </trkpt>
      <trkpt lat="45.04698" lon="3.58093">
        <ele>586</ele>
        <time>2021-04-13T14:02:41Z</time>
      </trkpt>
      <trkpt lat="45.04696" lon="3.58096">
        <ele>586</ele>
        <time>2021-04-13T14:02:42Z</time>
      </trkpt>
      <trkpt lat="45.04691" lon="3.58101">
        <ele>587</ele>
        <time>2021-04-13T14:02:44Z</time>
      </trkpt>
      <trkpt lat="45.0469" lon="3.58104">
        <ele>587</ele>
        <time>2021-04-13T14:02:45Z</time>
      </trkpt>
      <trkpt lat="45.04688" lon="3.58107">
        <ele>587</ele>
        <time>2021-04-13T14:02:46Z</time>
      </trkpt>
      <trkpt lat="45.04687" lon="3.5811">
        <ele>587</ele>
        <time>2021-04-13T14:02:47Z</time>
      </trkpt>
      <trkpt lat="45.04685" lon="3.58112">
        <ele>588</ele>
        <time>2021-04-13T14:02:48Z</time>
      </trkpt>
      <trkpt lat="45.04684" lon="3.58114">
        <ele>588</ele>
        <time>2021-04-13T14:02:49Z</time>
      </trkpt>
      <trkpt lat="45.04682" lon="3.58117">
        <ele>588</ele>
        <time>2021-04-13T14:02:50Z</time>
      </trkpt>
      <trkpt lat="45.04681" lon="3.58119">
        <ele>589</ele>
        <time>2021-04-13T14:02:51Z</time>
      </trkpt>
      <trkpt lat="45.04675" lon="3.58128">
        <ele>590</ele>
        <time>2021-04-13T14:02:55Z</time>
      </trkpt>
      <trkpt lat="45.04674" lon="3.5813">
        <ele>591</ele>
        <time>2021-04-13T14:02:56Z</time>
      </trkpt>
      <trkpt lat="45.04672" lon="3.58132">
        <ele>591</ele>
        <time>2021-04-13T14:02:57Z</time>
      </trkpt>
      <trkpt lat="45.0467" lon="3.58134">
        <ele>591</ele>
        <time>2021-04-13T14:02:58Z</time>
      </trkpt>
      <trkpt lat="45.04669" lon="3.58135">
        <ele>592</ele>
        <time>2021-04-13T14:02:59Z</time>
      </trkpt>
      <trkpt lat="45.04667" lon="3.58136">
        <ele>592</ele>
        <time>2021-04-13T14:03:00Z</time>
      </trkpt>
      <trkpt lat="45.04665" lon="3.58137">
        <ele>593</ele>
        <time>2021-04-13T14:03:01Z</time>
      </trkpt>
      <trkpt lat="45.04662" lon="3.58139">
        <ele>594</ele>
        <time>2021-04-13T14:03:03Z</time>
      </trkpt>
      <trkpt lat="45.04657" lon="3.58136">
        <ele>595</ele>
        <time>2021-04-13T14:03:07Z</time>
      </trkpt>
      <trkpt lat="45.04656" lon="3.58134">
        <ele>596</ele>
        <time>2021-04-13T14:03:10Z</time>
      </trkpt>
      <trkpt lat="45.04656" lon="3.5813">
        <ele>597</ele>
        <time>2021-04-13T14:03:12Z</time>
      </trkpt>
      <trkpt lat="45.04656" lon="3.58127">
        <ele>597</ele>
        <time>2021-04-13T14:03:13Z</time>
      </trkpt>
      <trkpt lat="45.04657" lon="3.58124">
        <ele>598</ele>
        <time>2021-04-13T14:03:14Z</time>
      </trkpt>
      <trkpt lat="45.04657" lon="3.58122">
        <ele>598</ele>
        <time>2021-04-13T14:03:15Z</time>
      </trkpt>
      <trkpt lat="45.04658" lon="3.58119">
        <ele>598</ele>
        <time>2021-04-13T14:03:16Z</time>
      </trkpt>
      <trkpt lat="45.04659" lon="3.58116">
        <ele>599</ele>
        <time>2021-04-13T14:03:17Z</time>
      </trkpt>
      <trkpt lat="45.04663" lon="3.58105">
        <ele>600</ele>
        <time>2021-04-13T14:03:21Z</time>
      </trkpt>
      <trkpt lat="45.04664" lon="3.58102">
        <ele>600</ele>
        <time>2021-04-13T14:03:22Z</time>
      </trkpt>
      <trkpt lat="45.04664" lon="3.581">
        <ele>601</ele>
        <time>2021-04-13T14:03:28Z</time>
      </trkpt>
      <trkpt lat="45.04663" lon="3.58095">
        <ele>602</ele>
        <time>2021-04-13T14:03:59Z</time>
      </trkpt>
      <trkpt lat="45.04663" lon="3.58094">
        <ele>602</ele>
        <time>2021-04-13T14:04:04Z</time>
      </trkpt>
      <trkpt lat="45.04666" lon="3.58087">
        <ele>603</ele>
        <time>2021-04-13T14:04:23Z</time>
      </trkpt>
      <trkpt lat="45.04668" lon="3.58084">
        <ele>604</ele>
        <time>2021-04-13T14:04:24Z</time>
      </trkpt>
      <trkpt lat="45.04669" lon="3.58081">
        <ele>604</ele>
        <time>2021-04-13T14:04:25Z</time>
      </trkpt>
      <trkpt lat="45.04671" lon="3.58076">
        <ele>604</ele>
        <time>2021-04-13T14:04:27Z</time>
      </trkpt>
      <trkpt lat="45.04676" lon="3.58068">
        <ele>605</ele>
        <time>2021-04-13T14:05:07Z</time>
      </trkpt>
      <trkpt lat="45.04678" lon="3.58065">
        <ele>605</ele>
        <time>2021-04-13T14:05:08Z</time>
      </trkpt>
      <trkpt lat="45.04679" lon="3.58062">
        <ele>605</ele>
        <time>2021-04-13T14:05:09Z</time>
      </trkpt>
      <trkpt lat="45.04681" lon="3.58059">
        <ele>605</ele>
        <time>2021-04-13T14:05:10Z</time>
      </trkpt>
      <trkpt lat="45.04683" lon="3.58056">
        <ele>605</ele>
        <time>2021-04-13T14:05:11Z</time>
      </trkpt>
      <trkpt lat="45.04685" lon="3.58054">
        <ele>606</ele>
        <time>2021-04-13T14:05:12Z</time>
      </trkpt>
      <trkpt lat="45.04687" lon="3.58051">
        <ele>606</ele>
        <time>2021-04-13T14:05:13Z</time>
      </trkpt>
      <trkpt lat="45.04696" lon="3.58041">
        <ele>607</ele>
        <time>2021-04-13T14:05:17Z</time>
      </trkpt>
      <trkpt lat="45.04698" lon="3.58039">
        <ele>607</ele>
        <time>2021-04-13T14:05:18Z</time>
      </trkpt>
      <trkpt lat="45.047" lon="3.58036">
        <ele>607</ele>
        <time>2021-04-13T14:05:19Z</time>
      </trkpt>
      <trkpt lat="45.04702" lon="3.58033">
        <ele>608</ele>
        <time>2021-04-13T14:05:20Z</time>
      </trkpt>
      <trkpt lat="45.04704" lon="3.5803">
        <ele>608</ele>
        <time>2021-04-13T14:05:21Z</time>
      </trkpt>
      <trkpt lat="45.04707" lon="3.58024">
        <ele>608</ele>
        <time>2021-04-13T14:05:23Z</time>
      </trkpt>
      <trkpt lat="45.04709" lon="3.58021">
        <ele>608</ele>
        <time>2021-04-13T14:05:24Z</time>
      </trkpt>
      <trkpt lat="45.04711" lon="3.58018">
        <ele>609</ele>
        <time>2021-04-13T14:05:25Z</time>
      </trkpt>
      <trkpt lat="45.04715" lon="3.5801">
        <ele>610</ele>
        <time>2021-04-13T14:05:27Z</time>
      </trkpt>
      <trkpt lat="45.04717" lon="3.58007">
        <ele>610</ele>
        <time>2021-04-13T14:05:28Z</time>
      </trkpt>
      <trkpt lat="45.04718" lon="3.58003">
        <ele>610</ele>
        <time>2021-04-13T14:05:29Z</time>
      </trkpt>
      <trkpt lat="45.0472" lon="3.57999">
        <ele>611</ele>
        <time>2021-04-13T14:05:30Z</time>
      </trkpt>
      <trkpt lat="45.04721" lon="3.57996">
        <ele>611</ele>
        <time>2021-04-13T14:05:31Z</time>
      </trkpt>
      <trkpt lat="45.04723" lon="3.57993">
        <ele>611</ele>
        <time>2021-04-13T14:05:32Z</time>
      </trkpt>
      <trkpt lat="45.04726" lon="3.57989">
        <ele>611</ele>
        <time>2021-04-13T14:05:33Z</time>
      </trkpt>
      <trkpt lat="45.04728" lon="3.57986">
        <ele>612</ele>
        <time>2021-04-13T14:05:34Z</time>
      </trkpt>
      <trkpt lat="45.04736" lon="3.57973">
        <ele>612</ele>
        <time>2021-04-13T14:05:38Z</time>
      </trkpt>
      <trkpt lat="45.04738" lon="3.57969">
        <ele>612</ele>
        <time>2021-04-13T14:05:39Z</time>
      </trkpt>
      <trkpt lat="45.0474" lon="3.57966">
        <ele>613</ele>
        <time>2021-04-13T14:05:40Z</time>
      </trkpt>
      <trkpt lat="45.04742" lon="3.57962">
        <ele>613</ele>
        <time>2021-04-13T14:05:41Z</time>
      </trkpt>
      <trkpt lat="45.04744" lon="3.57958">
        <ele>613</ele>
        <time>2021-04-13T14:05:42Z</time>
      </trkpt>
      <trkpt lat="45.04746" lon="3.57956">
        <ele>613</ele>
        <time>2021-04-13T14:05:43Z</time>
      </trkpt>
      <trkpt lat="45.04748" lon="3.57953">
        <ele>613</ele>
        <time>2021-04-13T14:05:44Z</time>
      </trkpt>
      <trkpt lat="45.04749" lon="3.57949">
        <ele>613</ele>
        <time>2021-04-13T14:05:45Z</time>
      </trkpt>
      <trkpt lat="45.04753" lon="3.57943">
        <ele>614</ele>
        <time>2021-04-13T14:05:47Z</time>
      </trkpt>
      <trkpt lat="45.04755" lon="3.5794">
        <ele>614</ele>
        <time>2021-04-13T14:05:48Z</time>
      </trkpt>
      <trkpt lat="45.04757" lon="3.57937">
        <ele>615</ele>
        <time>2021-04-13T14:05:49Z</time>
      </trkpt>
      <trkpt lat="45.04759" lon="3.57934">
        <ele>615</ele>
        <time>2021-04-13T14:05:50Z</time>
      </trkpt>
      <trkpt lat="45.04761" lon="3.57931">
        <ele>616</ele>
        <time>2021-04-13T14:05:51Z</time>
      </trkpt>
      <trkpt lat="45.04763" lon="3.57927">
        <ele>616</ele>
        <time>2021-04-13T14:05:52Z</time>
      </trkpt>
      <trkpt lat="45.04765" lon="3.57924">
        <ele>616</ele>
        <time>2021-04-13T14:05:53Z</time>
      </trkpt>
      <trkpt lat="45.04766" lon="3.57921">
        <ele>617</ele>
        <time>2021-04-13T14:05:54Z</time>
      </trkpt>
      <trkpt lat="45.04774" lon="3.57909">
        <ele>618</ele>
        <time>2021-04-13T14:05:58Z</time>
      </trkpt>
      <trkpt lat="45.04776" lon="3.57907">
        <ele>618</ele>
        <time>2021-04-13T14:05:59Z</time>
      </trkpt>
      <trkpt lat="45.04779" lon="3.57904">
        <ele>618</ele>
        <time>2021-04-13T14:06:00Z</time>
      </trkpt>
      <trkpt lat="45.04781" lon="3.57902">
        <ele>619</ele>
        <time>2021-04-13T14:06:01Z</time>
      </trkpt>
      <trkpt lat="45.04783" lon="3.579">
        <ele>619</ele>
        <time>2021-04-13T14:06:02Z</time>
      </trkpt>
      <trkpt lat="45.04785" lon="3.57898">
        <ele>619</ele>
        <time>2021-04-13T14:06:03Z</time>
      </trkpt>
      <trkpt lat="45.04787" lon="3.57896">
        <ele>620</ele>
        <time>2021-04-13T14:06:04Z</time>
      </trkpt>
      <trkpt lat="45.04789" lon="3.57894">
        <ele>620</ele>
        <time>2021-04-13T14:06:05Z</time>
      </trkpt>
      <trkpt lat="45.04793" lon="3.57889">
        <ele>621</ele>
        <time>2021-04-13T14:06:07Z</time>
      </trkpt>
      <trkpt lat="45.04795" lon="3.57886">
        <ele>621</ele>
        <time>2021-04-13T14:06:08Z</time>
      </trkpt>
      <trkpt lat="45.04797" lon="3.57884">
        <ele>621</ele>
        <time>2021-04-13T14:06:09Z</time>
      </trkpt>
      <trkpt lat="45.04799" lon="3.57881">
        <ele>622</ele>
        <time>2021-04-13T14:06:10Z</time>
      </trkpt>
      <trkpt lat="45.04801" lon="3.57879">
        <ele>622</ele>
        <time>2021-04-13T14:06:11Z</time>
      </trkpt>
      <trkpt lat="45.04803" lon="3.57877">
        <ele>622</ele>
        <time>2021-04-13T14:06:12Z</time>
      </trkpt>
      <trkpt lat="45.04805" lon="3.57875">
        <ele>622</ele>
        <time>2021-04-13T14:06:13Z</time>
      </trkpt>
      <trkpt lat="45.04807" lon="3.57873">
        <ele>623</ele>
        <time>2021-04-13T14:06:14Z</time>
      </trkpt>
      <trkpt lat="45.04815" lon="3.57865">
        <ele>625</ele>
        <time>2021-04-13T14:06:18Z</time>
      </trkpt>
      <trkpt lat="45.04817" lon="3.57862">
        <ele>625</ele>
        <time>2021-04-13T14:06:19Z</time>
      </trkpt>
      <trkpt lat="45.0482" lon="3.5786">
        <ele>626</ele>
        <time>2021-04-13T14:06:20Z</time>
      </trkpt>
      <trkpt lat="45.04822" lon="3.57858">
        <ele>626</ele>
        <time>2021-04-13T14:06:21Z</time>
      </trkpt>
      <trkpt lat="45.04824" lon="3.57857">
        <ele>626</ele>
        <time>2021-04-13T14:06:22Z</time>
      </trkpt>
      <trkpt lat="45.04826" lon="3.57855">
        <ele>627</ele>
        <time>2021-04-13T14:06:23Z</time>
      </trkpt>
      <trkpt lat="45.04829" lon="3.57854">
        <ele>627</ele>
        <time>2021-04-13T14:06:24Z</time>
      </trkpt>
      <trkpt lat="45.04831" lon="3.57852">
        <ele>628</ele>
        <time>2021-04-13T14:06:25Z</time>
      </trkpt>
      <trkpt lat="45.04835" lon="3.57849">
        <ele>629</ele>
        <time>2021-04-13T14:06:27Z</time>
      </trkpt>
      <trkpt lat="45.04838" lon="3.57847">
        <ele>630</ele>
        <time>2021-04-13T14:06:28Z</time>
      </trkpt>
      <trkpt lat="45.0484" lon="3.57846">
        <ele>631</ele>
        <time>2021-04-13T14:06:29Z</time>
      </trkpt>
      <trkpt lat="45.04842" lon="3.57844">
        <ele>631</ele>
        <time>2021-04-13T14:06:30Z</time>
      </trkpt>
      <trkpt lat="45.04844" lon="3.57843">
        <ele>632</ele>
        <time>2021-04-13T14:06:31Z</time>
      </trkpt>
      <trkpt lat="45.04847" lon="3.57841">
        <ele>633</ele>
        <time>2021-04-13T14:06:32Z</time>
      </trkpt>
      <trkpt lat="45.04849" lon="3.5784">
        <ele>633</ele>
        <time>2021-04-13T14:06:33Z</time>
      </trkpt>
      <trkpt lat="45.04851" lon="3.57839">
        <ele>634</ele>
        <time>2021-04-13T14:06:34Z</time>
      </trkpt>
      <trkpt lat="45.04859" lon="3.57832">
        <ele>636</ele>
        <time>2021-04-13T14:06:38Z</time>
      </trkpt>
      <trkpt lat="45.04861" lon="3.5783">
        <ele>637</ele>
        <time>2021-04-13T14:06:39Z</time>
      </trkpt>
      <trkpt lat="45.04863" lon="3.57828">
        <ele>638</ele>
        <time>2021-04-13T14:06:40Z</time>
      </trkpt>
      <trkpt lat="45.04865" lon="3.57827">
        <ele>638</ele>
        <time>2021-04-13T14:06:41Z</time>
      </trkpt>
      <trkpt lat="45.04867" lon="3.57825">
        <ele>639</ele>
        <time>2021-04-13T14:06:42Z</time>
      </trkpt>
      <trkpt lat="45.04868" lon="3.57823">
        <ele>640</ele>
        <time>2021-04-13T14:06:43Z</time>
      </trkpt>
      <trkpt lat="45.0487" lon="3.57821">
        <ele>640</ele>
        <time>2021-04-13T14:06:44Z</time>
      </trkpt>
      <trkpt lat="45.04872" lon="3.5782">
        <ele>641</ele>
        <time>2021-04-13T14:06:45Z</time>
      </trkpt>
      <trkpt lat="45.04876" lon="3.57816">
        <ele>642</ele>
        <time>2021-04-13T14:06:47Z</time>
      </trkpt>
      <trkpt lat="45.04877" lon="3.57814">
        <ele>642</ele>
        <time>2021-04-13T14:06:48Z</time>
      </trkpt>
      <trkpt lat="45.04879" lon="3.57811">
        <ele>643</ele>
        <time>2021-04-13T14:06:49Z</time>
      </trkpt>
      <trkpt lat="45.0488" lon="3.57807">
        <ele>643</ele>
        <time>2021-04-13T14:06:50Z</time>
      </trkpt>
      <trkpt lat="45.04882" lon="3.57804">
        <ele>644</ele>
        <time>2021-04-13T14:06:51Z</time>
      </trkpt>
      <trkpt lat="45.04883" lon="3.57801">
        <ele>644</ele>
        <time>2021-04-13T14:06:52Z</time>
      </trkpt>
      <trkpt lat="45.04884" lon="3.57799">
        <ele>644</ele>
        <time>2021-04-13T14:06:53Z</time>
      </trkpt>
      <trkpt lat="45.04886" lon="3.57795">
        <ele>645</ele>
        <time>2021-04-13T14:06:55Z</time>
      </trkpt>
      <trkpt lat="45.04892" lon="3.57784">
        <ele>647</ele>
        <time>2021-04-13T14:07:00Z</time>
      </trkpt>
      <trkpt lat="45.04893" lon="3.57782">
        <ele>647</ele>
        <time>2021-04-13T14:07:01Z</time>
      </trkpt>
      <trkpt lat="45.04895" lon="3.5778">
        <ele>648</ele>
        <time>2021-04-13T14:07:02Z</time>
      </trkpt>
      <trkpt lat="45.04896" lon="3.57777">
        <ele>648</ele>
        <time>2021-04-13T14:07:03Z</time>
      </trkpt>
      <trkpt lat="45.04898" lon="3.57775">
        <ele>649</ele>
        <time>2021-04-13T14:07:04Z</time>
      </trkpt>
      <trkpt lat="45.04899" lon="3.57772">
        <ele>649</ele>
        <time>2021-04-13T14:07:05Z</time>
      </trkpt>
      <trkpt lat="45.04901" lon="3.5777">
        <ele>650</ele>
        <time>2021-04-13T14:07:06Z</time>
      </trkpt>
      <trkpt lat="45.04903" lon="3.57768">
        <ele>650</ele>
        <time>2021-04-13T14:07:07Z</time>
      </trkpt>
      <trkpt lat="45.04908" lon="3.57764">
        <ele>650</ele>
        <time>2021-04-13T14:07:09Z</time>
      </trkpt>
      <trkpt lat="45.0491" lon="3.57762">
        <ele>651</ele>
        <time>2021-04-13T14:07:10Z</time>
      </trkpt>
      <trkpt lat="45.04913" lon="3.5776">
        <ele>651</ele>
        <time>2021-04-13T14:07:11Z</time>
      </trkpt>
      <trkpt lat="45.04915" lon="3.57758">
        <ele>652</ele>
        <time>2021-04-13T14:07:12Z</time>
      </trkpt>
      <trkpt lat="45.04917" lon="3.57756">
        <ele>652</ele>
        <time>2021-04-13T14:07:13Z</time>
      </trkpt>
      <trkpt lat="45.0492" lon="3.57754">
        <ele>652</ele>
        <time>2021-04-13T14:07:14Z</time>
      </trkpt>
      <trkpt lat="45.04923" lon="3.57753">
        <ele>653</ele>
        <time>2021-04-13T14:07:15Z</time>
      </trkpt>
      <trkpt lat="45.04926" lon="3.57751">
        <ele>653</ele>
        <time>2021-04-13T14:07:16Z</time>
      </trkpt>
      <trkpt lat="45.04937" lon="3.57746">
        <ele>655</ele>
        <time>2021-04-13T14:07:20Z</time>
      </trkpt>
      <trkpt lat="45.0494" lon="3.57744">
        <ele>655</ele>
        <time>2021-04-13T14:07:21Z</time>
      </trkpt>
      <trkpt lat="45.04944" lon="3.57743">
        <ele>656</ele>
        <time>2021-04-13T14:07:22Z</time>
      </trkpt>
      <trkpt lat="45.04947" lon="3.57742">
        <ele>656</ele>
        <time>2021-04-13T14:07:23Z</time>
      </trkpt>
      <trkpt lat="45.0495" lon="3.57741">
        <ele>656</ele>
        <time>2021-04-13T14:07:24Z</time>
      </trkpt>
      <trkpt lat="45.04953" lon="3.5774">
        <ele>657</ele>
        <time>2021-04-13T14:07:25Z</time>
      </trkpt>
      <trkpt lat="45.04956" lon="3.57739">
        <ele>657</ele>
        <time>2021-04-13T14:07:26Z</time>
      </trkpt>
      <trkpt lat="45.04959" lon="3.57738">
        <ele>657</ele>
        <time>2021-04-13T14:07:27Z</time>
      </trkpt>
      <trkpt lat="45.04966" lon="3.57737">
        <ele>658</ele>
        <time>2021-04-13T14:07:29Z</time>
      </trkpt>
      <trkpt lat="45.04969" lon="3.57736">
        <ele>659</ele>
        <time>2021-04-13T14:07:30Z</time>
      </trkpt>
      <trkpt lat="45.04972" lon="3.57736">
        <ele>659</ele>
        <time>2021-04-13T14:07:31Z</time>
      </trkpt>
      <trkpt lat="45.04975" lon="3.57735">
        <ele>660</ele>
        <time>2021-04-13T14:07:32Z</time>
      </trkpt>
      <trkpt lat="45.04979" lon="3.57734">
        <ele>660</ele>
        <time>2021-04-13T14:07:33Z</time>
      </trkpt>
      <trkpt lat="45.04982" lon="3.57732">
        <ele>661</ele>
        <time>2021-04-13T14:07:34Z</time>
      </trkpt>
      <trkpt lat="45.04985" lon="3.57731">
        <ele>661</ele>
        <time>2021-04-13T14:07:35Z</time>
      </trkpt>
      <trkpt lat="45.04988" lon="3.57729">
        <ele>662</ele>
        <time>2021-04-13T14:07:36Z</time>
      </trkpt>
      <trkpt lat="45.05" lon="3.57722">
        <ele>664</ele>
        <time>2021-04-13T14:07:40Z</time>
      </trkpt>
      <trkpt lat="45.05006" lon="3.57717">
        <ele>665</ele>
        <time>2021-04-13T14:07:42Z</time>
      </trkpt>
      <trkpt lat="45.05009" lon="3.57715">
        <ele>665</ele>
        <time>2021-04-13T14:07:43Z</time>
      </trkpt>
      <trkpt lat="45.05012" lon="3.57713">
        <ele>666</ele>
        <time>2021-04-13T14:07:44Z</time>
      </trkpt>
      <trkpt lat="45.05015" lon="3.57711">
        <ele>666</ele>
        <time>2021-04-13T14:07:45Z</time>
      </trkpt>
      <trkpt lat="45.05018" lon="3.57709">
        <ele>666</ele>
        <time>2021-04-13T14:07:46Z</time>
      </trkpt>
      <trkpt lat="45.05021" lon="3.57707">
        <ele>667</ele>
        <time>2021-04-13T14:07:47Z</time>
      </trkpt>
      <trkpt lat="45.05023" lon="3.57706">
        <ele>667</ele>
        <time>2021-04-13T14:07:48Z</time>
      </trkpt>
      <trkpt lat="45.05028" lon="3.57701">
        <ele>668</ele>
        <time>2021-04-13T14:07:50Z</time>
      </trkpt>
      <trkpt lat="45.05031" lon="3.57699">
        <ele>668</ele>
        <time>2021-04-13T14:07:51Z</time>
      </trkpt>
      <trkpt lat="45.05033" lon="3.57696">
        <ele>669</ele>
        <time>2021-04-13T14:07:52Z</time>
      </trkpt>
      <trkpt lat="45.05036" lon="3.57693">
        <ele>669</ele>
        <time>2021-04-13T14:07:53Z</time>
      </trkpt>
      <trkpt lat="45.05038" lon="3.5769">
        <ele>669</ele>
        <time>2021-04-13T14:07:54Z</time>
      </trkpt>
      <trkpt lat="45.0504" lon="3.57687">
        <ele>669</ele>
        <time>2021-04-13T14:07:55Z</time>
      </trkpt>
      <trkpt lat="45.05041" lon="3.57684">
        <ele>670</ele>
        <time>2021-04-13T14:07:56Z</time>
      </trkpt>
      <trkpt lat="45.05042" lon="3.5768">
        <ele>670</ele>
        <time>2021-04-13T14:07:57Z</time>
      </trkpt>
      <trkpt lat="45.05046" lon="3.57667">
        <ele>671</ele>
        <time>2021-04-13T14:08:01Z</time>
      </trkpt>
      <trkpt lat="45.05048" lon="3.57664">
        <ele>672</ele>
        <time>2021-04-13T14:08:02Z</time>
      </trkpt>
      <trkpt lat="45.05049" lon="3.57661">
        <ele>672</ele>
        <time>2021-04-13T14:08:03Z</time>
      </trkpt>
      <trkpt lat="45.05051" lon="3.57659">
        <ele>672</ele>
        <time>2021-04-13T14:08:04Z</time>
      </trkpt>
      <trkpt lat="45.05053" lon="3.57656">
        <ele>672</ele>
        <time>2021-04-13T14:08:05Z</time>
      </trkpt>
      <trkpt lat="45.05055" lon="3.57653">
        <ele>673</ele>
        <time>2021-04-13T14:08:06Z</time>
      </trkpt>
      <trkpt lat="45.05057" lon="3.57651">
        <ele>673</ele>
        <time>2021-04-13T14:08:07Z</time>
      </trkpt>
      <trkpt lat="45.05059" lon="3.57649">
        <ele>673</ele>
        <time>2021-04-13T14:08:08Z</time>
      </trkpt>
      <trkpt lat="45.05064" lon="3.57645">
        <ele>674</ele>
        <time>2021-04-13T14:08:10Z</time>
      </trkpt>
      <trkpt lat="45.05066" lon="3.57644">
        <ele>674</ele>
        <time>2021-04-13T14:08:11Z</time>
      </trkpt>
      <trkpt lat="45.05068" lon="3.57642">
        <ele>675</ele>
        <time>2021-04-13T14:08:12Z</time>
      </trkpt>
      <trkpt lat="45.05071" lon="3.57641">
        <ele>675</ele>
        <time>2021-04-13T14:08:13Z</time>
      </trkpt>
      <trkpt lat="45.05074" lon="3.5764">
        <ele>675</ele>
        <time>2021-04-13T14:08:14Z</time>
      </trkpt>
      <trkpt lat="45.05076" lon="3.57639">
        <ele>676</ele>
        <time>2021-04-13T14:08:15Z</time>
      </trkpt>
      <trkpt lat="45.05079" lon="3.57638">
        <ele>676</ele>
        <time>2021-04-13T14:08:16Z</time>
      </trkpt>
      <trkpt lat="45.05082" lon="3.57637">
        <ele>676</ele>
        <time>2021-04-13T14:08:17Z</time>
      </trkpt>
      <trkpt lat="45.05093" lon="3.57634">
        <ele>678</ele>
        <time>2021-04-13T14:08:21Z</time>
      </trkpt>
      <trkpt lat="45.05096" lon="3.57635">
        <ele>679</ele>
        <time>2021-04-13T14:08:22Z</time>
      </trkpt>
      <trkpt lat="45.051" lon="3.57634">
        <ele>679</ele>
        <time>2021-04-13T14:08:23Z</time>
      </trkpt>
      <trkpt lat="45.05103" lon="3.57634">
        <ele>679</ele>
        <time>2021-04-13T14:08:24Z</time>
      </trkpt>
      <trkpt lat="45.05106" lon="3.57634">
        <ele>680</ele>
        <time>2021-04-13T14:08:25Z</time>
      </trkpt>
      <trkpt lat="45.05109" lon="3.57634">
        <ele>680</ele>
        <time>2021-04-13T14:08:26Z</time>
      </trkpt>
      <trkpt lat="45.05112" lon="3.57634">
        <ele>681</ele>
        <time>2021-04-13T14:08:27Z</time>
      </trkpt>
      <trkpt lat="45.05115" lon="3.57633">
        <ele>681</ele>
        <time>2021-04-13T14:08:28Z</time>
      </trkpt>
      <trkpt lat="45.05122" lon="3.57632">
        <ele>682</ele>
        <time>2021-04-13T14:08:30Z</time>
      </trkpt>
      <trkpt lat="45.05125" lon="3.57631">
        <ele>683</ele>
        <time>2021-04-13T14:08:31Z</time>
      </trkpt>
      <trkpt lat="45.05128" lon="3.5763">
        <ele>684</ele>
        <time>2021-04-13T14:08:32Z</time>
      </trkpt>
      <trkpt lat="45.05131" lon="3.57629">
        <ele>684</ele>
        <time>2021-04-13T14:08:33Z</time>
      </trkpt>
      <trkpt lat="45.05134" lon="3.57628">
        <ele>685</ele>
        <time>2021-04-13T14:08:34Z</time>
      </trkpt>
      <trkpt lat="45.05138" lon="3.57627">
        <ele>686</ele>
        <time>2021-04-13T14:08:35Z</time>
      </trkpt>
      <trkpt lat="45.05141" lon="3.57627">
        <ele>686</ele>
        <time>2021-04-13T14:08:36Z</time>
      </trkpt>
      <trkpt lat="45.05144" lon="3.57627">
        <ele>687</ele>
        <time>2021-04-13T14:08:37Z</time>
      </trkpt>
      <trkpt lat="45.05156" lon="3.57629">
        <ele>689</ele>
        <time>2021-04-13T14:08:41Z</time>
      </trkpt>
      <trkpt lat="45.0516" lon="3.57629">
        <ele>689</ele>
        <time>2021-04-13T14:08:42Z</time>
      </trkpt>
      <trkpt lat="45.05164" lon="3.57629">
        <ele>690</ele>
        <time>2021-04-13T14:08:43Z</time>
      </trkpt>
      <trkpt lat="45.05167" lon="3.57629">
        <ele>690</ele>
        <time>2021-04-13T14:08:44Z</time>
      </trkpt>
      <trkpt lat="45.05171" lon="3.57629">
        <ele>690</ele>
        <time>2021-04-13T14:08:45Z</time>
      </trkpt>
      <trkpt lat="45.05174" lon="3.57629">
        <ele>691</ele>
        <time>2021-04-13T14:08:46Z</time>
      </trkpt>
      <trkpt lat="45.05178" lon="3.57628">
        <ele>691</ele>
        <time>2021-04-13T14:08:47Z</time>
      </trkpt>
      <trkpt lat="45.05182" lon="3.57628">
        <ele>691</ele>
        <time>2021-04-13T14:08:48Z</time>
      </trkpt>
      <trkpt lat="45.05189" lon="3.57626">
        <ele>692</ele>
        <time>2021-04-13T14:08:50Z</time>
      </trkpt>
      <trkpt lat="45.05192" lon="3.57626">
        <ele>692</ele>
        <time>2021-04-13T14:08:51Z</time>
      </trkpt>
      <trkpt lat="45.05194" lon="3.57625">
        <ele>692</ele>
        <time>2021-04-13T14:08:52Z</time>
      </trkpt>
      <trkpt lat="45.05197" lon="3.57625">
        <ele>693</ele>
        <time>2021-04-13T14:08:54Z</time>
      </trkpt>
      <trkpt lat="45.052" lon="3.57624">
        <ele>693</ele>
        <time>2021-04-13T14:08:56Z</time>
      </trkpt>
      <trkpt lat="45.05203" lon="3.57624">
        <ele>694</ele>
        <time>2021-04-13T14:08:58Z</time>
      </trkpt>
      <trkpt lat="45.05205" lon="3.57623">
        <ele>694</ele>
        <time>2021-04-13T14:08:59Z</time>
      </trkpt>
      <trkpt lat="45.05208" lon="3.57623">
        <ele>694</ele>
        <time>2021-04-13T14:09:00Z</time>
      </trkpt>
      <trkpt lat="45.05217" lon="3.5762">
        <ele>695</ele>
        <time>2021-04-13T14:09:04Z</time>
      </trkpt>
      <trkpt lat="45.05219" lon="3.5762">
        <ele>696</ele>
        <time>2021-04-13T14:09:05Z</time>
      </trkpt>
      <trkpt lat="45.05221" lon="3.57619">
        <ele>696</ele>
        <time>2021-04-13T14:09:06Z</time>
      </trkpt>
      <trkpt lat="45.05224" lon="3.57619">
        <ele>696</ele>
        <time>2021-04-13T14:09:07Z</time>
      </trkpt>
      <trkpt lat="45.05226" lon="3.57619">
        <ele>696</ele>
        <time>2021-04-13T14:09:08Z</time>
      </trkpt>
      <trkpt lat="45.05228" lon="3.57618">
        <ele>696</ele>
        <time>2021-04-13T14:09:09Z</time>
      </trkpt>
      <trkpt lat="45.0523" lon="3.57617">
        <ele>697</ele>
        <time>2021-04-13T14:09:10Z</time>
      </trkpt>
      <trkpt lat="45.05232" lon="3.57617">
        <ele>697</ele>
        <time>2021-04-13T14:09:11Z</time>
      </trkpt>
      <trkpt lat="45.05236" lon="3.57615">
        <ele>697</ele>
        <time>2021-04-13T14:09:13Z</time>
      </trkpt>
      <trkpt lat="45.05242" lon="3.57614">
        <ele>698</ele>
        <time>2021-04-13T14:09:33Z</time>
      </trkpt>
      <trkpt lat="45.05245" lon="3.57613">
        <ele>698</ele>
        <time>2021-04-13T14:09:34Z</time>
      </trkpt>
      <trkpt lat="45.05248" lon="3.57613">
        <ele>698</ele>
        <time>2021-04-13T14:09:35Z</time>
      </trkpt>
      <trkpt lat="45.05251" lon="3.57613">
        <ele>699</ele>
        <time>2021-04-13T14:09:36Z</time>
      </trkpt>
      <trkpt lat="45.05255" lon="3.57613">
        <ele>699</ele>
        <time>2021-04-13T14:09:37Z</time>
      </trkpt>
      <trkpt lat="45.05258" lon="3.57613">
        <ele>699</ele>
        <time>2021-04-13T14:09:38Z</time>
      </trkpt>
      <trkpt lat="45.05262" lon="3.57614">
        <ele>699</ele>
        <time>2021-04-13T14:09:39Z</time>
      </trkpt>
      <trkpt lat="45.05278" lon="3.57619">
        <ele>699</ele>
        <time>2021-04-13T14:09:43Z</time>
      </trkpt>
      <trkpt lat="45.05283" lon="3.57621">
        <ele>699</ele>
        <time>2021-04-13T14:09:44Z</time>
      </trkpt>
      <trkpt lat="45.05287" lon="3.57622">
        <ele>699</ele>
        <time>2021-04-13T14:09:45Z</time>
      </trkpt>
      <trkpt lat="45.05292" lon="3.57624">
        <ele>699</ele>
        <time>2021-04-13T14:09:46Z</time>
      </trkpt>
      <trkpt lat="45.05296" lon="3.57625">
        <ele>699</ele>
        <time>2021-04-13T14:09:47Z</time>
      </trkpt>
      <trkpt lat="45.05301" lon="3.57627">
        <ele>699</ele>
        <time>2021-04-13T14:09:48Z</time>
      </trkpt>
      <trkpt lat="45.05305" lon="3.57628">
        <ele>699</ele>
        <time>2021-04-13T14:09:49Z</time>
      </trkpt>
      <trkpt lat="45.0531" lon="3.57629">
        <ele>699</ele>
        <time>2021-04-13T14:09:50Z</time>
      </trkpt>
      <trkpt lat="45.05319" lon="3.57628">
        <ele>700</ele>
        <time>2021-04-13T14:09:52Z</time>
      </trkpt>
      <trkpt lat="45.05323" lon="3.57628">
        <ele>700</ele>
        <time>2021-04-13T14:09:53Z</time>
      </trkpt>
      <trkpt lat="45.05327" lon="3.57627">
        <ele>700</ele>
        <time>2021-04-13T14:09:54Z</time>
      </trkpt>
      <trkpt lat="45.05331" lon="3.57625">
        <ele>700</ele>
        <time>2021-04-13T14:09:55Z</time>
      </trkpt>
      <trkpt lat="45.05335" lon="3.57624">
        <ele>700</ele>
        <time>2021-04-13T14:09:56Z</time>
      </trkpt>
      <trkpt lat="45.05339" lon="3.57623">
        <ele>700</ele>
        <time>2021-04-13T14:09:57Z</time>
      </trkpt>
      <trkpt lat="45.05344" lon="3.57621">
        <ele>700</ele>
        <time>2021-04-13T14:09:58Z</time>
      </trkpt>
      <trkpt lat="45.05348" lon="3.57619">
        <ele>700</ele>
        <time>2021-04-13T14:09:59Z</time>
      </trkpt>
      <trkpt lat="45.05364" lon="3.57611">
        <ele>700</ele>
        <time>2021-04-13T14:10:03Z</time>
      </trkpt>
      <trkpt lat="45.05368" lon="3.57609">
        <ele>700</ele>
        <time>2021-04-13T14:10:04Z</time>
      </trkpt>
      <trkpt lat="45.05372" lon="3.57606">
        <ele>700</ele>
        <time>2021-04-13T14:10:05Z</time>
      </trkpt>
      <trkpt lat="45.05376" lon="3.57603">
        <ele>700</ele>
        <time>2021-04-13T14:10:06Z</time>
      </trkpt>
      <trkpt lat="45.0538" lon="3.576">
        <ele>701</ele>
        <time>2021-04-13T14:10:07Z</time>
      </trkpt>
      <trkpt lat="45.05383" lon="3.57597">
        <ele>701</ele>
        <time>2021-04-13T14:10:08Z</time>
      </trkpt>
      <trkpt lat="45.05387" lon="3.57594">
        <ele>701</ele>
        <time>2021-04-13T14:10:09Z</time>
      </trkpt>
      <trkpt lat="45.05391" lon="3.57591">
        <ele>701</ele>
        <time>2021-04-13T14:10:10Z</time>
      </trkpt>
      <trkpt lat="45.054" lon="3.57585">
        <ele>701</ele>
        <time>2021-04-13T14:10:12Z</time>
      </trkpt>
      <trkpt lat="45.05404" lon="3.57582">
        <ele>701</ele>
        <time>2021-04-13T14:10:13Z</time>
      </trkpt>
      <trkpt lat="45.05408" lon="3.57579">
        <ele>701</ele>
        <time>2021-04-13T14:10:14Z</time>
      </trkpt>
      <trkpt lat="45.05412" lon="3.57575">
        <ele>701</ele>
        <time>2021-04-13T14:10:15Z</time>
      </trkpt>
      <trkpt lat="45.05415" lon="3.57572">
        <ele>701</ele>
        <time>2021-04-13T14:10:16Z</time>
      </trkpt>
      <trkpt lat="45.05418" lon="3.57569">
        <ele>701</ele>
        <time>2021-04-13T14:10:17Z</time>
      </trkpt>
      <trkpt lat="45.0542" lon="3.57567">
        <ele>701</ele>
        <time>2021-04-13T14:10:18Z</time>
      </trkpt>
      <trkpt lat="45.05424" lon="3.57563">
        <ele>701</ele>
        <time>2021-04-13T14:10:31Z</time>
      </trkpt>
      <trkpt lat="45.05437" lon="3.57552">
        <ele>699</ele>
        <time>2021-04-13T14:13:13Z</time>
      </trkpt>
      <trkpt lat="45.0544" lon="3.57549">
        <ele>699</ele>
        <time>2021-04-13T14:13:14Z</time>
      </trkpt>
      <trkpt lat="45.05443" lon="3.57547">
        <ele>699</ele>
        <time>2021-04-13T14:13:15Z</time>
      </trkpt>
      <trkpt lat="45.05445" lon="3.57544">
        <ele>698</ele>
        <time>2021-04-13T14:13:16Z</time>
      </trkpt>
      <trkpt lat="45.05448" lon="3.57541">
        <ele>698</ele>
        <time>2021-04-13T14:13:17Z</time>
      </trkpt>
      <trkpt lat="45.0545" lon="3.57539">
        <ele>698</ele>
        <time>2021-04-13T14:13:18Z</time>
      </trkpt>
      <trkpt lat="45.05452" lon="3.57536">
        <ele>698</ele>
        <time>2021-04-13T14:13:19Z</time>
      </trkpt>
      <trkpt lat="45.05454" lon="3.57535">
        <ele>698</ele>
        <time>2021-04-13T14:13:20Z</time>
      </trkpt>
      <trkpt lat="45.05458" lon="3.57529">
        <ele>697</ele>
        <time>2021-04-13T14:13:23Z</time>
      </trkpt>
      <trkpt lat="45.0546" lon="3.57527">
        <ele>697</ele>
        <time>2021-04-13T14:13:24Z</time>
      </trkpt>
      <trkpt lat="45.05462" lon="3.57524">
        <ele>697</ele>
        <time>2021-04-13T14:13:25Z</time>
      </trkpt>
      <trkpt lat="45.05465" lon="3.57521">
        <ele>697</ele>
        <time>2021-04-13T14:13:26Z</time>
      </trkpt>
      <trkpt lat="45.05467" lon="3.57518">
        <ele>696</ele>
        <time>2021-04-13T14:13:27Z</time>
      </trkpt>
      <trkpt lat="45.0547" lon="3.57515">
        <ele>696</ele>
        <time>2021-04-13T14:13:28Z</time>
      </trkpt>
      <trkpt lat="45.05472" lon="3.57511">
        <ele>696</ele>
        <time>2021-04-13T14:13:29Z</time>
      </trkpt>
      <trkpt lat="45.05474" lon="3.57507">
        <ele>696</ele>
        <time>2021-04-13T14:13:30Z</time>
      </trkpt>
      <trkpt lat="45.05483" lon="3.57489">
        <ele>694</ele>
        <time>2021-04-13T14:13:34Z</time>
      </trkpt>
      <trkpt lat="45.05485" lon="3.57484">
        <ele>694</ele>
        <time>2021-04-13T14:13:35Z</time>
      </trkpt>
      <trkpt lat="45.05488" lon="3.57478">
        <ele>694</ele>
        <time>2021-04-13T14:13:36Z</time>
      </trkpt>
      <trkpt lat="45.0549" lon="3.57471">
        <ele>693</ele>
        <time>2021-04-13T14:13:37Z</time>
      </trkpt>
      <trkpt lat="45.05493" lon="3.57464">
        <ele>692</ele>
        <time>2021-04-13T14:13:38Z</time>
      </trkpt>
      <trkpt lat="45.05496" lon="3.57457">
        <ele>692</ele>
        <time>2021-04-13T14:13:39Z</time>
      </trkpt>
      <trkpt lat="45.05498" lon="3.57449">
        <ele>691</ele>
        <time>2021-04-13T14:13:40Z</time>
      </trkpt>
      <trkpt lat="45.05501" lon="3.57441">
        <ele>691</ele>
        <time>2021-04-13T14:13:41Z</time>
      </trkpt>
      <trkpt lat="45.05508" lon="3.57427">
        <ele>690</ele>
        <time>2021-04-13T14:13:43Z</time>
      </trkpt>
      <trkpt lat="45.05511" lon="3.57419">
        <ele>690</ele>
        <time>2021-04-13T14:13:44Z</time>
      </trkpt>
      <trkpt lat="45.05514" lon="3.57413">
        <ele>690</ele>
        <time>2021-04-13T14:13:45Z</time>
      </trkpt>
      <trkpt lat="45.05517" lon="3.57406">
        <ele>690</ele>
        <time>2021-04-13T14:13:46Z</time>
      </trkpt>
      <trkpt lat="45.0552" lon="3.574">
        <ele>690</ele>
        <time>2021-04-13T14:13:47Z</time>
      </trkpt>
      <trkpt lat="45.05523" lon="3.57393">
        <ele>690</ele>
        <time>2021-04-13T14:13:48Z</time>
      </trkpt>
      <trkpt lat="45.05526" lon="3.57385">
        <ele>689</ele>
        <time>2021-04-13T14:13:49Z</time>
      </trkpt>
      <trkpt lat="45.05528" lon="3.57377">
        <ele>689</ele>
        <time>2021-04-13T14:13:50Z</time>
      </trkpt>
      <trkpt lat="45.05536" lon="3.57342">
        <ele>687</ele>
        <time>2021-04-13T14:13:54Z</time>
      </trkpt>
      <trkpt lat="45.05538" lon="3.57332">
        <ele>687</ele>
        <time>2021-04-13T14:13:55Z</time>
      </trkpt>
      <trkpt lat="45.0554" lon="3.57322">
        <ele>686</ele>
        <time>2021-04-13T14:13:56Z</time>
      </trkpt>
      <trkpt lat="45.05541" lon="3.57313">
        <ele>686</ele>
        <time>2021-04-13T14:13:57Z</time>
      </trkpt>
      <trkpt lat="45.05543" lon="3.57303">
        <ele>685</ele>
        <time>2021-04-13T14:13:58Z</time>
      </trkpt>
      <trkpt lat="45.05544" lon="3.57294">
        <ele>685</ele>
        <time>2021-04-13T14:13:59Z</time>
      </trkpt>
      <trkpt lat="45.05544" lon="3.57284">
        <ele>685</ele>
        <time>2021-04-13T14:14:00Z</time>
      </trkpt>
      <trkpt lat="45.05544" lon="3.57275">
        <ele>685</ele>
        <time>2021-04-13T14:14:01Z</time>
      </trkpt>
      <trkpt lat="45.05544" lon="3.57257">
        <ele>685</ele>
        <time>2021-04-13T14:14:03Z</time>
      </trkpt>
      <trkpt lat="45.05544" lon="3.57247">
        <ele>684</ele>
        <time>2021-04-13T14:14:04Z</time>
      </trkpt>
      <trkpt lat="45.05543" lon="3.57238">
        <ele>684</ele>
        <time>2021-04-13T14:14:05Z</time>
      </trkpt>
      <trkpt lat="45.05542" lon="3.57229">
        <ele>684</ele>
        <time>2021-04-13T14:14:06Z</time>
      </trkpt>
      <trkpt lat="45.05542" lon="3.57221">
        <ele>684</ele>
        <time>2021-04-13T14:14:07Z</time>
      </trkpt>
      <trkpt lat="45.05541" lon="3.57213">
        <ele>683</ele>
        <time>2021-04-13T14:14:08Z</time>
      </trkpt>
      <trkpt lat="45.05541" lon="3.57205">
        <ele>683</ele>
        <time>2021-04-13T14:14:09Z</time>
      </trkpt>
      <trkpt lat="45.05541" lon="3.57197">
        <ele>683</ele>
        <time>2021-04-13T14:14:10Z</time>
      </trkpt>
      <trkpt lat="45.05539" lon="3.57166">
        <ele>682</ele>
        <time>2021-04-13T14:14:14Z</time>
      </trkpt>
      <trkpt lat="45.05539" lon="3.57159">
        <ele>682</ele>
        <time>2021-04-13T14:14:15Z</time>
      </trkpt>
      <trkpt lat="45.05538" lon="3.5715">
        <ele>682</ele>
        <time>2021-04-13T14:14:16Z</time>
      </trkpt>
      <trkpt lat="45.05538" lon="3.57142">
        <ele>681</ele>
        <time>2021-04-13T14:14:17Z</time>
      </trkpt>
      <trkpt lat="45.05537" lon="3.57134">
        <ele>681</ele>
        <time>2021-04-13T14:14:18Z</time>
      </trkpt>
      <trkpt lat="45.05537" lon="3.57127">
        <ele>681</ele>
        <time>2021-04-13T14:14:19Z</time>
      </trkpt>
      <trkpt lat="45.05537" lon="3.5712">
        <ele>681</ele>
        <time>2021-04-13T14:14:20Z</time>
      </trkpt>
      <trkpt lat="45.05536" lon="3.57112">
        <ele>681</ele>
        <time>2021-04-13T14:14:21Z</time>
      </trkpt>
      <trkpt lat="45.05536" lon="3.57096">
        <ele>681</ele>
        <time>2021-04-13T14:14:23Z</time>
      </trkpt>
      <trkpt lat="45.05536" lon="3.57089">
        <ele>681</ele>
        <time>2021-04-13T14:14:24Z</time>
      </trkpt>
      <trkpt lat="45.05535" lon="3.57082">
        <ele>680</ele>
        <time>2021-04-13T14:14:25Z</time>
      </trkpt>
      <trkpt lat="45.05535" lon="3.57075">
        <ele>680</ele>
        <time>2021-04-13T14:14:26Z</time>
      </trkpt>
      <trkpt lat="45.05534" lon="3.57067">
        <ele>680</ele>
        <time>2021-04-13T14:14:27Z</time>
      </trkpt>
      <trkpt lat="45.05534" lon="3.57059">
        <ele>680</ele>
        <time>2021-04-13T14:14:28Z</time>
      </trkpt>
      <trkpt lat="45.05533" lon="3.57052">
        <ele>680</ele>
        <time>2021-04-13T14:14:29Z</time>
      </trkpt>
      <trkpt lat="45.05532" lon="3.57045">
        <ele>680</ele>
        <time>2021-04-13T14:14:30Z</time>
      </trkpt>
      <trkpt lat="45.05528" lon="3.57018">
        <ele>679</ele>
        <time>2021-04-13T14:14:34Z</time>
      </trkpt>
      <trkpt lat="45.05527" lon="3.57012">
        <ele>679</ele>
        <time>2021-04-13T14:14:35Z</time>
      </trkpt>
      <trkpt lat="45.05526" lon="3.57005">
        <ele>679</ele>
        <time>2021-04-13T14:14:36Z</time>
      </trkpt>
      <trkpt lat="45.05525" lon="3.56999">
        <ele>679</ele>
        <time>2021-04-13T14:14:37Z</time>
      </trkpt>
      <trkpt lat="45.05523" lon="3.56992">
        <ele>679</ele>
        <time>2021-04-13T14:14:38Z</time>
      </trkpt>
      <trkpt lat="45.05522" lon="3.56986">
        <ele>679</ele>
        <time>2021-04-13T14:14:39Z</time>
      </trkpt>
      <trkpt lat="45.05521" lon="3.5698">
        <ele>679</ele>
        <time>2021-04-13T14:14:40Z</time>
      </trkpt>
      <trkpt lat="45.0552" lon="3.56973">
        <ele>679</ele>
        <time>2021-04-13T14:14:41Z</time>
      </trkpt>
      <trkpt lat="45.05519" lon="3.5696">
        <ele>679</ele>
        <time>2021-04-13T14:14:43Z</time>
      </trkpt>
      <trkpt lat="45.05518" lon="3.56954">
        <ele>679</ele>
        <time>2021-04-13T14:14:44Z</time>
      </trkpt>
      <trkpt lat="45.05518" lon="3.56947">
        <ele>680</ele>
        <time>2021-04-13T14:14:45Z</time>
      </trkpt>
      <trkpt lat="45.05518" lon="3.56941">
        <ele>680</ele>
        <time>2021-04-13T14:14:46Z</time>
      </trkpt>
      <trkpt lat="45.05517" lon="3.56934">
        <ele>680</ele>
        <time>2021-04-13T14:14:47Z</time>
      </trkpt>
      <trkpt lat="45.05517" lon="3.56928">
        <ele>680</ele>
        <time>2021-04-13T14:14:48Z</time>
      </trkpt>
      <trkpt lat="45.05516" lon="3.56921">
        <ele>680</ele>
        <time>2021-04-13T14:14:49Z</time>
      </trkpt>
      <trkpt lat="45.05516" lon="3.56915">
        <ele>680</ele>
        <time>2021-04-13T14:14:50Z</time>
      </trkpt>
      <trkpt lat="45.05511" lon="3.56892">
        <ele>680</ele>
        <time>2021-04-13T14:14:54Z</time>
      </trkpt>
      <trkpt lat="45.0551" lon="3.56886">
        <ele>680</ele>
        <time>2021-04-13T14:14:55Z</time>
      </trkpt>
      <trkpt lat="45.05508" lon="3.56881">
        <ele>680</ele>
        <time>2021-04-13T14:14:56Z</time>
      </trkpt>
      <trkpt lat="45.05507" lon="3.56875">
        <ele>680</ele>
        <time>2021-04-13T14:14:57Z</time>
      </trkpt>
      <trkpt lat="45.05506" lon="3.5687">
        <ele>680</ele>
        <time>2021-04-13T14:14:58Z</time>
      </trkpt>
      <trkpt lat="45.05505" lon="3.56864">
        <ele>680</ele>
        <time>2021-04-13T14:14:59Z</time>
      </trkpt>
      <trkpt lat="45.05504" lon="3.56859">
        <ele>680</ele>
        <time>2021-04-13T14:15:00Z</time>
      </trkpt>
      <trkpt lat="45.05502" lon="3.56854">
        <ele>680</ele>
        <time>2021-04-13T14:15:01Z</time>
      </trkpt>
      <trkpt lat="45.055" lon="3.56843">
        <ele>680</ele>
        <time>2021-04-13T14:15:03Z</time>
      </trkpt>
      <trkpt lat="45.055" lon="3.56837">
        <ele>680</ele>
        <time>2021-04-13T14:15:04Z</time>
      </trkpt>
      <trkpt lat="45.05501" lon="3.56832">
        <ele>680</ele>
        <time>2021-04-13T14:15:05Z</time>
      </trkpt>
      <trkpt lat="45.05503" lon="3.56828">
        <ele>680</ele>
        <time>2021-04-13T14:15:06Z</time>
      </trkpt>
      <trkpt lat="45.05506" lon="3.56826">
        <ele>680</ele>
        <time>2021-04-13T14:15:07Z</time>
      </trkpt>
      <trkpt lat="45.0551" lon="3.56823">
        <ele>680</ele>
        <time>2021-04-13T14:15:08Z</time>
      </trkpt>
      <trkpt lat="45.05514" lon="3.56821">
        <ele>680</ele>
        <time>2021-04-13T14:15:09Z</time>
      </trkpt>
      <trkpt lat="45.05518" lon="3.56818">
        <ele>680</ele>
        <time>2021-04-13T14:15:10Z</time>
      </trkpt>
      <trkpt lat="45.05535" lon="3.56811">
        <ele>681</ele>
        <time>2021-04-13T14:15:14Z</time>
      </trkpt>
      <trkpt lat="45.05539" lon="3.56809">
        <ele>681</ele>
        <time>2021-04-13T14:15:15Z</time>
      </trkpt>
      <trkpt lat="45.05543" lon="3.56807">
        <ele>681</ele>
        <time>2021-04-13T14:15:16Z</time>
      </trkpt>
      <trkpt lat="45.05546" lon="3.56805">
        <ele>681</ele>
        <time>2021-04-13T14:15:17Z</time>
      </trkpt>
      <trkpt lat="45.0555" lon="3.56803">
        <ele>681</ele>
        <time>2021-04-13T14:15:18Z</time>
      </trkpt>
      <trkpt lat="45.05553" lon="3.568">
        <ele>681</ele>
        <time>2021-04-13T14:15:19Z</time>
      </trkpt>
      <trkpt lat="45.05556" lon="3.56797">
        <ele>681</ele>
        <time>2021-04-13T14:15:20Z</time>
      </trkpt>
      <trkpt lat="45.05559" lon="3.56794">
        <ele>682</ele>
        <time>2021-04-13T14:15:21Z</time>
      </trkpt>
      <trkpt lat="45.05564" lon="3.5679">
        <ele>682</ele>
        <time>2021-04-13T14:15:24Z</time>
      </trkpt>
      <trkpt lat="45.05566" lon="3.56788">
        <ele>682</ele>
        <time>2021-04-13T14:15:26Z</time>
      </trkpt>
      <trkpt lat="45.05572" lon="3.56785">
        <ele>682</ele>
        <time>2021-04-13T14:15:28Z</time>
      </trkpt>
      <trkpt lat="45.05575" lon="3.56782">
        <ele>682</ele>
        <time>2021-04-13T14:15:29Z</time>
      </trkpt>
      <trkpt lat="45.05579" lon="3.56778">
        <ele>682</ele>
        <time>2021-04-13T14:15:30Z</time>
      </trkpt>
      <trkpt lat="45.05582" lon="3.56774">
        <ele>682</ele>
        <time>2021-04-13T14:15:31Z</time>
      </trkpt>
      <trkpt lat="45.05586" lon="3.5677">
        <ele>682</ele>
        <time>2021-04-13T14:15:32Z</time>
      </trkpt>
      <trkpt lat="45.05589" lon="3.56766">
        <ele>682</ele>
        <time>2021-04-13T14:15:33Z</time>
      </trkpt>
      <trkpt lat="45.05603" lon="3.56744">
        <ele>682</ele>
        <time>2021-04-13T14:15:37Z</time>
      </trkpt>
      <trkpt lat="45.05606" lon="3.56738">
        <ele>682</ele>
        <time>2021-04-13T14:15:38Z</time>
      </trkpt>
      <trkpt lat="45.05609" lon="3.56732">
        <ele>682</ele>
        <time>2021-04-13T14:15:39Z</time>
      </trkpt>
      <trkpt lat="45.05613" lon="3.56726">
        <ele>682</ele>
        <time>2021-04-13T14:15:40Z</time>
      </trkpt>
      <trkpt lat="45.05616" lon="3.56721">
        <ele>682</ele>
        <time>2021-04-13T14:15:41Z</time>
      </trkpt>
      <trkpt lat="45.05619" lon="3.56716">
        <ele>682</ele>
        <time>2021-04-13T14:15:42Z</time>
      </trkpt>
      <trkpt lat="45.05622" lon="3.5671">
        <ele>682</ele>
        <time>2021-04-13T14:15:43Z</time>
      </trkpt>
      <trkpt lat="45.05625" lon="3.56705">
        <ele>682</ele>
        <time>2021-04-13T14:15:44Z</time>
      </trkpt>
      <trkpt lat="45.05631" lon="3.56694">
        <ele>682</ele>
        <time>2021-04-13T14:15:46Z</time>
      </trkpt>
      <trkpt lat="45.05635" lon="3.5669">
        <ele>682</ele>
        <time>2021-04-13T14:15:47Z</time>
      </trkpt>
      <trkpt lat="45.05639" lon="3.56686">
        <ele>682</ele>
        <time>2021-04-13T14:15:48Z</time>
      </trkpt>
      <trkpt lat="45.05643" lon="3.56682">
        <ele>682</ele>
        <time>2021-04-13T14:15:49Z</time>
      </trkpt>
      <trkpt lat="45.05648" lon="3.56678">
        <ele>682</ele>
        <time>2021-04-13T14:15:50Z</time>
      </trkpt>
      <trkpt lat="45.05652" lon="3.56673">
        <ele>682</ele>
        <time>2021-04-13T14:15:51Z</time>
      </trkpt>
      <trkpt lat="45.05656" lon="3.5667">
        <ele>682</ele>
        <time>2021-04-13T14:15:52Z</time>
      </trkpt>
      <trkpt lat="45.05659" lon="3.56666">
        <ele>682</ele>
        <time>2021-04-13T14:15:53Z</time>
      </trkpt>
      <trkpt lat="45.05672" lon="3.5665">
        <ele>682</ele>
        <time>2021-04-13T14:15:57Z</time>
      </trkpt>
      <trkpt lat="45.05675" lon="3.56645">
        <ele>681</ele>
        <time>2021-04-13T14:15:58Z</time>
      </trkpt>
      <trkpt lat="45.05678" lon="3.56639">
        <ele>681</ele>
        <time>2021-04-13T14:15:59Z</time>
      </trkpt>
      <trkpt lat="45.05681" lon="3.56632">
        <ele>681</ele>
        <time>2021-04-13T14:16:00Z</time>
      </trkpt>
      <trkpt lat="45.05683" lon="3.56626">
        <ele>681</ele>
        <time>2021-04-13T14:16:01Z</time>
      </trkpt>
      <trkpt lat="45.05685" lon="3.56619">
        <ele>681</ele>
        <time>2021-04-13T14:16:02Z</time>
      </trkpt>
      <trkpt lat="45.05688" lon="3.56613">
        <ele>681</ele>
        <time>2021-04-13T14:16:03Z</time>
      </trkpt>
      <trkpt lat="45.05691" lon="3.56606">
        <ele>681</ele>
        <time>2021-04-13T14:16:04Z</time>
      </trkpt>
      <trkpt lat="45.05701" lon="3.56593">
        <ele>681</ele>
        <time>2021-04-13T14:16:06Z</time>
      </trkpt>
      <trkpt lat="45.05706" lon="3.56585">
        <ele>681</ele>
        <time>2021-04-13T14:16:07Z</time>
      </trkpt>
      <trkpt lat="45.05717" lon="3.56566">
        <ele>680</ele>
        <time>2021-04-13T14:16:09Z</time>
      </trkpt>
      <trkpt lat="45.05724" lon="3.56556">
        <ele>680</ele>
        <time>2021-04-13T14:16:10Z</time>
      </trkpt>
      <trkpt lat="45.05731" lon="3.56546">
        <ele>679</ele>
        <time>2021-04-13T14:16:11Z</time>
      </trkpt>
      <trkpt lat="45.05739" lon="3.56538">
        <ele>679</ele>
        <time>2021-04-13T14:16:12Z</time>
      </trkpt>
      <trkpt lat="45.05746" lon="3.5653">
        <ele>678</ele>
        <time>2021-04-13T14:16:13Z</time>
      </trkpt>
      <trkpt lat="45.05755" lon="3.56521">
        <ele>678</ele>
        <time>2021-04-13T14:16:14Z</time>
      </trkpt>
      <trkpt lat="45.05792" lon="3.56488">
        <ele>675</ele>
        <time>2021-04-13T14:16:18Z</time>
      </trkpt>
      <trkpt lat="45.058" lon="3.56481">
        <ele>674</ele>
        <time>2021-04-13T14:16:19Z</time>
      </trkpt>
      <trkpt lat="45.05809" lon="3.56477">
        <ele>673</ele>
        <time>2021-04-13T14:16:20Z</time>
      </trkpt>
      <trkpt lat="45.05817" lon="3.56474">
        <ele>672</ele>
        <time>2021-04-13T14:16:21Z</time>
      </trkpt>
      <trkpt lat="45.05825" lon="3.56472">
        <ele>672</ele>
        <time>2021-04-13T14:16:22Z</time>
      </trkpt>
      <trkpt lat="45.05832" lon="3.5647">
        <ele>671</ele>
        <time>2021-04-13T14:16:23Z</time>
      </trkpt>
      <trkpt lat="45.05839" lon="3.56468">
        <ele>671</ele>
        <time>2021-04-13T14:16:24Z</time>
      </trkpt>
      <trkpt lat="45.05846" lon="3.56465">
        <ele>671</ele>
        <time>2021-04-13T14:16:25Z</time>
      </trkpt>
      <trkpt lat="45.05858" lon="3.5646">
        <ele>670</ele>
        <time>2021-04-13T14:16:27Z</time>
      </trkpt>
      <trkpt lat="45.05864" lon="3.56458">
        <ele>669</ele>
        <time>2021-04-13T14:16:28Z</time>
      </trkpt>
      <trkpt lat="45.05869" lon="3.56455">
        <ele>669</ele>
        <time>2021-04-13T14:16:29Z</time>
      </trkpt>
      <trkpt lat="45.05874" lon="3.56452">
        <ele>668</ele>
        <time>2021-04-13T14:16:30Z</time>
      </trkpt>
      <trkpt lat="45.05879" lon="3.5645">
        <ele>667</ele>
        <time>2021-04-13T14:16:31Z</time>
      </trkpt>
      <trkpt lat="45.05884" lon="3.56448">
        <ele>667</ele>
        <time>2021-04-13T14:16:32Z</time>
      </trkpt>
      <trkpt lat="45.05888" lon="3.56447">
        <ele>666</ele>
        <time>2021-04-13T14:16:33Z</time>
      </trkpt>
      <trkpt lat="45.05892" lon="3.56445">
        <ele>666</ele>
        <time>2021-04-13T14:16:34Z</time>
      </trkpt>
      <trkpt lat="45.05933" lon="3.56442">
        <ele>666</ele>
        <time>2021-04-13T14:16:42Z</time>
      </trkpt>
      <trkpt lat="45.05945" lon="3.56439">
        <ele>666</ele>
        <time>2021-04-13T14:16:44Z</time>
      </trkpt>
      <trkpt lat="45.05951" lon="3.56437">
        <ele>666</ele>
        <time>2021-04-13T14:16:45Z</time>
      </trkpt>
      <trkpt lat="45.05957" lon="3.56435">
        <ele>665</ele>
        <time>2021-04-13T14:16:46Z</time>
      </trkpt>
      <trkpt lat="45.05963" lon="3.56432">
        <ele>665</ele>
        <time>2021-04-13T14:16:47Z</time>
      </trkpt>
      <trkpt lat="45.05969" lon="3.56429">
        <ele>665</ele>
        <time>2021-04-13T14:16:48Z</time>
      </trkpt>
      <trkpt lat="45.05975" lon="3.56426">
        <ele>665</ele>
        <time>2021-04-13T14:16:49Z</time>
      </trkpt>
      <trkpt lat="45.0598" lon="3.56423">
        <ele>665</ele>
        <time>2021-04-13T14:16:50Z</time>
      </trkpt>
      <trkpt lat="45.05991" lon="3.56417">
        <ele>665</ele>
        <time>2021-04-13T14:16:52Z</time>
      </trkpt>
      <trkpt lat="45.05995" lon="3.56414">
        <ele>665</ele>
        <time>2021-04-13T14:16:53Z</time>
      </trkpt>
      <trkpt lat="45.06" lon="3.5641">
        <ele>665</ele>
        <time>2021-04-13T14:16:54Z</time>
      </trkpt>
      <trkpt lat="45.06003" lon="3.56406">
        <ele>665</ele>
        <time>2021-04-13T14:16:55Z</time>
      </trkpt>
      <trkpt lat="45.06006" lon="3.56402">
        <ele>665</ele>
        <time>2021-04-13T14:16:56Z</time>
      </trkpt>
      <trkpt lat="45.06008" lon="3.56398">
        <ele>665</ele>
        <time>2021-04-13T14:16:57Z</time>
      </trkpt>
      <trkpt lat="45.06011" lon="3.56393">
        <ele>666</ele>
        <time>2021-04-13T14:16:58Z</time>
      </trkpt>
      <trkpt lat="45.06013" lon="3.56387">
        <ele>666</ele>
        <time>2021-04-13T14:16:59Z</time>
      </trkpt>
      <trkpt lat="45.06019" lon="3.56362">
        <ele>666</ele>
        <time>2021-04-13T14:17:03Z</time>
      </trkpt>
      <trkpt lat="45.0602" lon="3.56356">
        <ele>666</ele>
        <time>2021-04-13T14:17:04Z</time>
      </trkpt>
      <trkpt lat="45.06021" lon="3.56351">
        <ele>666</ele>
        <time>2021-04-13T14:17:05Z</time>
      </trkpt>
      <trkpt lat="45.06021" lon="3.56343">
        <ele>666</ele>
        <time>2021-04-13T14:17:06Z</time>
      </trkpt>
      <trkpt lat="45.06022" lon="3.56337">
        <ele>665</ele>
        <time>2021-04-13T14:17:07Z</time>
      </trkpt>
      <trkpt lat="45.06023" lon="3.5633">
        <ele>664</ele>
        <time>2021-04-13T14:17:08Z</time>
      </trkpt>
      <trkpt lat="45.06024" lon="3.56324">
        <ele>664</ele>
        <time>2021-04-13T14:17:09Z</time>
      </trkpt>
      <trkpt lat="45.06025" lon="3.56319">
        <ele>663</ele>
        <time>2021-04-13T14:17:10Z</time>
      </trkpt>
      <trkpt lat="45.06029" lon="3.56312">
        <ele>663</ele>
        <time>2021-04-13T14:17:12Z</time>
      </trkpt>
      <trkpt lat="45.06031" lon="3.5631">
        <ele>662</ele>
        <time>2021-04-13T14:17:14Z</time>
      </trkpt>
      <trkpt lat="45.06034" lon="3.56309">
        <ele>662</ele>
        <time>2021-04-13T14:17:15Z</time>
      </trkpt>
      <trkpt lat="45.06038" lon="3.56306">
        <ele>662</ele>
        <time>2021-04-13T14:17:16Z</time>
      </trkpt>
      <trkpt lat="45.06043" lon="3.56302">
        <ele>662</ele>
        <time>2021-04-13T14:17:17Z</time>
      </trkpt>
      <trkpt lat="45.06048" lon="3.56296">
        <ele>661</ele>
        <time>2021-04-13T14:17:18Z</time>
      </trkpt>
      <trkpt lat="45.06053" lon="3.56288">
        <ele>660</ele>
        <time>2021-04-13T14:17:19Z</time>
      </trkpt>
      <trkpt lat="45.06057" lon="3.56278">
        <ele>660</ele>
        <time>2021-04-13T14:17:20Z</time>
      </trkpt>
      <trkpt lat="45.06056" lon="3.5623">
        <ele>657</ele>
        <time>2021-04-13T14:17:24Z</time>
      </trkpt>
      <trkpt lat="45.06055" lon="3.56218">
        <ele>656</ele>
        <time>2021-04-13T14:17:25Z</time>
      </trkpt>
      <trkpt lat="45.06053" lon="3.56207">
        <ele>655</ele>
        <time>2021-04-13T14:17:26Z</time>
      </trkpt>
      <trkpt lat="45.06052" lon="3.56195">
        <ele>654</ele>
        <time>2021-04-13T14:17:27Z</time>
      </trkpt>
      <trkpt lat="45.0605" lon="3.56182">
        <ele>653</ele>
        <time>2021-04-13T14:17:28Z</time>
      </trkpt>
      <trkpt lat="45.06048" lon="3.5617">
        <ele>651</ele>
        <time>2021-04-13T14:17:29Z</time>
      </trkpt>
      <trkpt lat="45.06046" lon="3.56157">
        <ele>650</ele>
        <time>2021-04-13T14:17:30Z</time>
      </trkpt>
      <trkpt lat="45.06044" lon="3.56143">
        <ele>648</ele>
        <time>2021-04-13T14:17:31Z</time>
      </trkpt>
      <trkpt lat="45.06041" lon="3.56117">
        <ele>647</ele>
        <time>2021-04-13T14:17:33Z</time>
      </trkpt>
      <trkpt lat="45.06041" lon="3.56104">
        <ele>646</ele>
        <time>2021-04-13T14:17:34Z</time>
      </trkpt>
      <trkpt lat="45.06042" lon="3.56091">
        <ele>645</ele>
        <time>2021-04-13T14:17:35Z</time>
      </trkpt>
      <trkpt lat="45.06044" lon="3.56079">
        <ele>643</ele>
        <time>2021-04-13T14:17:36Z</time>
      </trkpt>
      <trkpt lat="45.06047" lon="3.56066">
        <ele>642</ele>
        <time>2021-04-13T14:17:37Z</time>
      </trkpt>
      <trkpt lat="45.0605" lon="3.56055">
        <ele>641</ele>
        <time>2021-04-13T14:17:38Z</time>
      </trkpt>
      <trkpt lat="45.06053" lon="3.56043">
        <ele>640</ele>
        <time>2021-04-13T14:17:39Z</time>
      </trkpt>
      <trkpt lat="45.06056" lon="3.56031">
        <ele>639</ele>
        <time>2021-04-13T14:17:40Z</time>
      </trkpt>
      <trkpt lat="45.06065" lon="3.55985">
        <ele>636</ele>
        <time>2021-04-13T14:17:44Z</time>
      </trkpt>
      <trkpt lat="45.0607" lon="3.55975">
        <ele>634</ele>
        <time>2021-04-13T14:17:45Z</time>
      </trkpt>
      <trkpt lat="45.06076" lon="3.55965">
        <ele>633</ele>
        <time>2021-04-13T14:17:46Z</time>
      </trkpt>
      <trkpt lat="45.06082" lon="3.55956">
        <ele>632</ele>
        <time>2021-04-13T14:17:47Z</time>
      </trkpt>
      <trkpt lat="45.06088" lon="3.55946">
        <ele>631</ele>
        <time>2021-04-13T14:17:48Z</time>
      </trkpt>
      <trkpt lat="45.06094" lon="3.55937">
        <ele>630</ele>
        <time>2021-04-13T14:17:49Z</time>
      </trkpt>
      <trkpt lat="45.06103" lon="3.55916">
        <ele>628</ele>
        <time>2021-04-13T14:17:51Z</time>
      </trkpt>
      <trkpt lat="45.06107" lon="3.55906">
        <ele>627</ele>
        <time>2021-04-13T14:17:52Z</time>
      </trkpt>
      <trkpt lat="45.06113" lon="3.55885">
        <ele>626</ele>
        <time>2021-04-13T14:17:54Z</time>
      </trkpt>
      <trkpt lat="45.06115" lon="3.55874">
        <ele>625</ele>
        <time>2021-04-13T14:17:55Z</time>
      </trkpt>
      <trkpt lat="45.06118" lon="3.55864">
        <ele>625</ele>
        <time>2021-04-13T14:17:56Z</time>
      </trkpt>
      <trkpt lat="45.06121" lon="3.55853">
        <ele>624</ele>
        <time>2021-04-13T14:17:57Z</time>
      </trkpt>
      <trkpt lat="45.06123" lon="3.55843">
        <ele>623</ele>
        <time>2021-04-13T14:17:58Z</time>
      </trkpt>
      <trkpt lat="45.06125" lon="3.55833">
        <ele>623</ele>
        <time>2021-04-13T14:17:59Z</time>
      </trkpt>
      <trkpt lat="45.06127" lon="3.55823">
        <ele>622</ele>
        <time>2021-04-13T14:18:00Z</time>
      </trkpt>
      <trkpt lat="45.06129" lon="3.55812">
        <ele>622</ele>
        <time>2021-04-13T14:18:01Z</time>
      </trkpt>
      <trkpt lat="45.06133" lon="3.55772">
        <ele>620</ele>
        <time>2021-04-13T14:18:05Z</time>
      </trkpt>
      <trkpt lat="45.06133" lon="3.55762">
        <ele>620</ele>
        <time>2021-04-13T14:18:06Z</time>
      </trkpt>
      <trkpt lat="45.06134" lon="3.55752">
        <ele>619</ele>
        <time>2021-04-13T14:18:07Z</time>
      </trkpt>
      <trkpt lat="45.06134" lon="3.55743">
        <ele>619</ele>
        <time>2021-04-13T14:18:08Z</time>
      </trkpt>
      <trkpt lat="45.06134" lon="3.55733">
        <ele>619</ele>
        <time>2021-04-13T14:18:09Z</time>
      </trkpt>
      <trkpt lat="45.06134" lon="3.55723">
        <ele>619</ele>
        <time>2021-04-13T14:18:10Z</time>
      </trkpt>
      <trkpt lat="45.06134" lon="3.55714">
        <ele>618</ele>
        <time>2021-04-13T14:18:11Z</time>
      </trkpt>
      <trkpt lat="45.06135" lon="3.55705">
        <ele>618</ele>
        <time>2021-04-13T14:18:12Z</time>
      </trkpt>
      <trkpt lat="45.06135" lon="3.55686">
        <ele>617</ele>
        <time>2021-04-13T14:18:14Z</time>
      </trkpt>
      <trkpt lat="45.06135" lon="3.55677">
        <ele>617</ele>
        <time>2021-04-13T14:18:15Z</time>
      </trkpt>
      <trkpt lat="45.06136" lon="3.55668">
        <ele>617</ele>
        <time>2021-04-13T14:18:16Z</time>
      </trkpt>
      <trkpt lat="45.06137" lon="3.55659">
        <ele>616</ele>
        <time>2021-04-13T14:18:17Z</time>
      </trkpt>
      <trkpt lat="45.06138" lon="3.5565">
        <ele>616</ele>
        <time>2021-04-13T14:18:18Z</time>
      </trkpt>
      <trkpt lat="45.06139" lon="3.55641">
        <ele>616</ele>
        <time>2021-04-13T14:18:19Z</time>
      </trkpt>
      <trkpt lat="45.0614" lon="3.55633">
        <ele>616</ele>
        <time>2021-04-13T14:18:20Z</time>
      </trkpt>
      <trkpt lat="45.06141" lon="3.55625">
        <ele>615</ele>
        <time>2021-04-13T14:18:21Z</time>
      </trkpt>
      <trkpt lat="45.06144" lon="3.55598">
        <ele>615</ele>
        <time>2021-04-13T14:18:25Z</time>
      </trkpt>
      <trkpt lat="45.06143" lon="3.55593">
        <ele>614</ele>
        <time>2021-04-13T14:18:26Z</time>
      </trkpt>
      <trkpt lat="45.06143" lon="3.55588">
        <ele>614</ele>
        <time>2021-04-13T14:18:27Z</time>
      </trkpt>
      <trkpt lat="45.06142" lon="3.55583">
        <ele>614</ele>
        <time>2021-04-13T14:18:28Z</time>
      </trkpt>
      <trkpt lat="45.06142" lon="3.55578">
        <ele>614</ele>
        <time>2021-04-13T14:18:29Z</time>
      </trkpt>
      <trkpt lat="45.06141" lon="3.55574">
        <ele>614</ele>
        <time>2021-04-13T14:18:30Z</time>
      </trkpt>
      <trkpt lat="45.0614" lon="3.55569">
        <ele>614</ele>
        <time>2021-04-13T14:18:31Z</time>
      </trkpt>
      <trkpt lat="45.06138" lon="3.55564">
        <ele>614</ele>
        <time>2021-04-13T14:18:32Z</time>
      </trkpt>
      <trkpt lat="45.06135" lon="3.5555">
        <ele>614</ele>
        <time>2021-04-13T14:18:34Z</time>
      </trkpt>
      <trkpt lat="45.06134" lon="3.55543">
        <ele>614</ele>
        <time>2021-04-13T14:18:35Z</time>
      </trkpt>
      <trkpt lat="45.06135" lon="3.55536">
        <ele>614</ele>
        <time>2021-04-13T14:18:36Z</time>
      </trkpt>
      <trkpt lat="45.06135" lon="3.5553">
        <ele>613</ele>
        <time>2021-04-13T14:18:37Z</time>
      </trkpt>
      <trkpt lat="45.06137" lon="3.55523">
        <ele>613</ele>
        <time>2021-04-13T14:18:38Z</time>
      </trkpt>
      <trkpt lat="45.06139" lon="3.55516">
        <ele>613</ele>
        <time>2021-04-13T14:18:39Z</time>
      </trkpt>
      <trkpt lat="45.06141" lon="3.55509">
        <ele>613</ele>
        <time>2021-04-13T14:18:40Z</time>
      </trkpt>
      <trkpt lat="45.06142" lon="3.55503">
        <ele>613</ele>
        <time>2021-04-13T14:18:41Z</time>
      </trkpt>
      <trkpt lat="45.06149" lon="3.55483">
        <ele>612</ele>
        <time>2021-04-13T14:18:45Z</time>
      </trkpt>
      <trkpt lat="45.06151" lon="3.5548">
        <ele>612</ele>
        <time>2021-04-13T14:18:46Z</time>
      </trkpt>
      <trkpt lat="45.0615" lon="3.55477">
        <ele>612</ele>
        <time>2021-04-13T14:18:48Z</time>
      </trkpt>
      <trkpt lat="45.06149" lon="3.5548">
        <ele>612</ele>
        <time>2021-04-13T14:18:49Z</time>
      </trkpt>
      <trkpt lat="45.06149" lon="3.55483">
        <ele>612</ele>
        <time>2021-04-13T14:18:50Z</time>
      </trkpt>
      <trkpt lat="45.06147" lon="3.55486">
        <ele>613</ele>
        <time>2021-04-13T14:18:51Z</time>
      </trkpt>
      <trkpt lat="45.06144" lon="3.55486">
        <ele>613</ele>
        <time>2021-04-13T14:18:52Z</time>
      </trkpt>
      <trkpt lat="45.0614" lon="3.55484">
        <ele>613</ele>
        <time>2021-04-13T14:18:53Z</time>
      </trkpt>
      <trkpt lat="45.06134" lon="3.55476">
        <ele>612</ele>
        <time>2021-04-13T14:18:55Z</time>
      </trkpt>
      <trkpt lat="45.0613" lon="3.55472">
        <ele>612</ele>
        <time>2021-04-13T14:18:56Z</time>
      </trkpt>
      <trkpt lat="45.06127" lon="3.55468">
        <ele>612</ele>
        <time>2021-04-13T14:18:57Z</time>
      </trkpt>
      <trkpt lat="45.06124" lon="3.55465">
        <ele>612</ele>
        <time>2021-04-13T14:18:58Z</time>
      </trkpt>
      <trkpt lat="45.0612" lon="3.55461">
        <ele>612</ele>
        <time>2021-04-13T14:18:59Z</time>
      </trkpt>
      <trkpt lat="45.06117" lon="3.55457">
        <ele>612</ele>
        <time>2021-04-13T14:19:00Z</time>
      </trkpt>
      <trkpt lat="45.06114" lon="3.55453">
        <ele>612</ele>
        <time>2021-04-13T14:19:01Z</time>
      </trkpt>
      <trkpt lat="45.06111" lon="3.55449">
        <ele>612</ele>
        <time>2021-04-13T14:19:02Z</time>
      </trkpt>
      <trkpt lat="45.06098" lon="3.55434">
        <ele>611</ele>
        <time>2021-04-13T14:19:06Z</time>
      </trkpt>
      <trkpt lat="45.06095" lon="3.5543">
        <ele>611</ele>
        <time>2021-04-13T14:19:07Z</time>
      </trkpt>
      <trkpt lat="45.06092" lon="3.55426">
        <ele>611</ele>
        <time>2021-04-13T14:19:08Z</time>
      </trkpt>
      <trkpt lat="45.06088" lon="3.55422">
        <ele>611</ele>
        <time>2021-04-13T14:19:09Z</time>
      </trkpt>
      <trkpt lat="45.06084" lon="3.55417">
        <ele>610</ele>
        <time>2021-04-13T14:19:10Z</time>
      </trkpt>
      <trkpt lat="45.0608" lon="3.55412">
        <ele>610</ele>
        <time>2021-04-13T14:19:11Z</time>
      </trkpt>
      <trkpt lat="45.06076" lon="3.55406">
        <ele>610</ele>
        <time>2021-04-13T14:19:12Z</time>
      </trkpt>
      <trkpt lat="45.06071" lon="3.554">
        <ele>610</ele>
        <time>2021-04-13T14:19:13Z</time>
      </trkpt>
      <trkpt lat="45.06062" lon="3.55388">
        <ele>609</ele>
        <time>2021-04-13T14:19:15Z</time>
      </trkpt>
      <trkpt lat="45.06057" lon="3.55383">
        <ele>609</ele>
        <time>2021-04-13T14:19:16Z</time>
      </trkpt>
      <trkpt lat="45.06052" lon="3.55377">
        <ele>608</ele>
        <time>2021-04-13T14:19:17Z</time>
      </trkpt>
      <trkpt lat="45.06048" lon="3.55371">
        <ele>608</ele>
        <time>2021-04-13T14:19:18Z</time>
      </trkpt>
      <trkpt lat="45.06044" lon="3.55365">
        <ele>608</ele>
        <time>2021-04-13T14:19:19Z</time>
      </trkpt>
      <trkpt lat="45.0604" lon="3.5536">
        <ele>607</ele>
        <time>2021-04-13T14:19:20Z</time>
      </trkpt>
      <trkpt lat="45.06036" lon="3.55355">
        <ele>607</ele>
        <time>2021-04-13T14:19:21Z</time>
      </trkpt>
      <trkpt lat="45.06033" lon="3.55351">
        <ele>607</ele>
        <time>2021-04-13T14:19:22Z</time>
      </trkpt>
      <trkpt lat="45.06028" lon="3.55342">
        <ele>600.6</ele>
      </trkpt>
      <trkpt lat="45.06027" lon="3.5534">
        <ele>600.5</ele>
      </trkpt>
      <trkpt lat="45.0602" lon="3.5535">
        <ele>600.7</ele>
      </trkpt>
      <trkpt lat="45.06018" lon="3.55354">
        <ele>600.7</ele>
      </trkpt>
      <trkpt lat="45.0601" lon="3.55366">
        <ele>601</ele>
      </trkpt>
      <trkpt lat="45.05996" lon="3.55391">
        <ele>601.1</ele>
      </trkpt>
      <trkpt lat="45.05985" lon="3.55411">
        <ele>601.2</ele>
      </trkpt>
      <trkpt lat="45.05981" lon="3.55409">
        <ele>601</ele>
      </trkpt>
      <trkpt lat="45.05972" lon="3.55405">
        <ele>600.5</ele>
      </trkpt>
      <trkpt lat="45.05971" lon="3.55414">
        <ele>600.8</ele>
      </trkpt>
      <trkpt lat="45.05967" lon="3.55427">
        <ele>601.2</ele>
      </trkpt>
      <trkpt lat="45.05962" lon="3.55437">
        <ele>601.5</ele>
      </trkpt>
      <trkpt lat="45.05957" lon="3.55446">
        <ele>601.7</ele>
      </trkpt>
      <trkpt lat="45.05951" lon="3.55455">
        <ele>601.9</ele>
      </trkpt>
      <trkpt lat="45.05938" lon="3.55467">
        <ele>602</ele>
      </trkpt>
      <trkpt lat="45.05925" lon="3.55484">
        <ele>602.5</ele>
      </trkpt>
      <trkpt lat="45.05891" lon="3.55518">
        <ele>603.2</ele>
      </trkpt>
      <trkpt lat="45.05886" lon="3.5552">
        <ele>603.1</ele>
      </trkpt>
      <trkpt lat="45.05879" lon="3.55522">
        <ele>603.1</ele>
      </trkpt>
      <trkpt lat="45.05865" lon="3.55524">
        <ele>603</ele>
      </trkpt>
      <trkpt lat="45.05852" lon="3.55521">
        <ele>602.6</ele>
      </trkpt>
      <trkpt lat="45.05829" lon="3.55511">
        <ele>601.7</ele>
      </trkpt>
      <trkpt lat="45.05814" lon="3.55506">
        <ele>601.6</ele>
      </trkpt>
      <trkpt lat="45.05799" lon="3.55505">
        <ele>601.7</ele>
      </trkpt>
      <trkpt lat="45.05764" lon="3.55514">
        <ele>603</ele>
      </trkpt>
      <trkpt lat="45.05753" lon="3.55523">
        <ele>603.9</ele>
      </trkpt>
      <trkpt lat="45.0574" lon="3.55538">
        <ele>605.8</ele>
      </trkpt>
      <trkpt lat="45.05731" lon="3.55546">
        <ele>607</ele>
      </trkpt>
      <trkpt lat="45.05717" lon="3.55551">
        <ele>608.1</ele>
      </trkpt>
      <trkpt lat="45.057" lon="3.55553">
        <ele>609.3</ele>
      </trkpt>
      <trkpt lat="45.05697" lon="3.55554">
        <ele>609.5</ele>
      </trkpt>
      <trkpt lat="45.05686" lon="3.55554">
        <ele>610.1</ele>
      </trkpt>
      <trkpt lat="45.05659" lon="3.55505">
        <ele>609.9</ele>
      </trkpt>
      <trkpt lat="45.05655" lon="3.55488">
        <ele>609.7</ele>
      </trkpt>
      <trkpt lat="45.05644" lon="3.55468">
        <ele>610.8</ele>
      </trkpt>
      <trkpt lat="45.05638" lon="3.55457">
        <ele>611.2</ele>
      </trkpt>
      <trkpt lat="45.05637" lon="3.55447">
        <ele>611</ele>
      </trkpt>
      <trkpt lat="45.05637" lon="3.5544">
        <ele>610.5</ele>
      </trkpt>
      <trkpt lat="45.05639" lon="3.55432">
        <ele>609.5</ele>
      </trkpt>
      <trkpt lat="45.05645" lon="3.55424">
        <ele>607.9</ele>
      </trkpt>
      <trkpt lat="45.05658" lon="3.55403">
        <ele>604.2</ele>
      </trkpt>
      <trkpt lat="45.05664" lon="3.55384">
        <ele>602.4</ele>
      </trkpt>
      <trkpt lat="45.05667" lon="3.5537">
        <ele>601.3</ele>
      </trkpt>
      <trkpt lat="45.05669" lon="3.55352">
        <ele>600.5</ele>
      </trkpt>
      <trkpt lat="45.0567" lon="3.55334">
        <ele>599.7</ele>
      </trkpt>
      <trkpt lat="45.05673" lon="3.55323">
        <ele>599</ele>
      </trkpt>
      <trkpt lat="45.05678" lon="3.55309">
        <ele>597.9</ele>
      </trkpt>
      <trkpt lat="45.05683" lon="3.55298">
        <ele>597</ele>
      </trkpt>
      <trkpt lat="45.05688" lon="3.55253">
        <ele>594.6</ele>
      </trkpt>
      <trkpt lat="45.05688" lon="3.55244">
        <ele>593.8</ele>
      </trkpt>
      <trkpt lat="45.0569" lon="3.55235">
        <ele>592.8</ele>
      </trkpt>
      <trkpt lat="45.05694" lon="3.55227">
        <ele>591.7</ele>
      </trkpt>
      <trkpt lat="45.05701" lon="3.55212">
        <ele>589.7</ele>
      </trkpt>
      <trkpt lat="45.05708" lon="3.55194">
        <ele>587.7</ele>
      </trkpt>
      <trkpt lat="45.05712" lon="3.55177">
        <ele>586.1</ele>
      </trkpt>
      <trkpt lat="45.05713" lon="3.55166">
        <ele>585.2</ele>
      </trkpt>
      <trkpt lat="45.0571" lon="3.55126">
        <ele>580.8</ele>
      </trkpt>
      <trkpt lat="45.05707" lon="3.55105">
        <ele>578.5</ele>
      </trkpt>
      <trkpt lat="45.05704" lon="3.55089">
        <ele>576.6</ele>
      </trkpt>
      <trkpt lat="45.05702" lon="3.5508">
        <ele>575.7</ele>
      </trkpt>
      <trkpt lat="45.05697" lon="3.55073">
        <ele>575.2</ele>
      </trkpt>
      <trkpt lat="45.05689" lon="3.55071">
        <ele>575</ele>
      </trkpt>
      <trkpt lat="45.05678" lon="3.55074">
        <ele>575.2</ele>
      </trkpt>
      <trkpt lat="45.05655" lon="3.55088">
        <ele>577.2</ele>
      </trkpt>
      <trkpt lat="45.05508" lon="3.55148">
        <ele>592.4</ele>
      </trkpt>
      <trkpt lat="45.05484" lon="3.55155">
        <ele>596.7</ele>
      </trkpt>
      <trkpt lat="45.05473" lon="3.55156">
        <ele>599.3</ele>
      </trkpt>
      <trkpt lat="45.05467" lon="3.55154">
        <ele>600.8</ele>
      </trkpt>
      <trkpt lat="45.05463" lon="3.55151">
        <ele>602.1</ele>
      </trkpt>
      <trkpt lat="45.05463" lon="3.55151">
        <ele>602.2</ele>
      </trkpt>
      <trkpt lat="45.0546" lon="3.55145">
        <ele>603.3</ele>
      </trkpt>
      <trkpt lat="45.0546" lon="3.55135">
        <ele>604</ele>
      </trkpt>
      <trkpt lat="45.05473" lon="3.55116">
        <ele>602.1</ele>
      </trkpt>
      <trkpt lat="45.05488" lon="3.55105">
        <ele>598.9</ele>
      </trkpt>
      <trkpt lat="45.05506" lon="3.55091">
        <ele>595.4</ele>
      </trkpt>
      <trkpt lat="45.05527" lon="3.55075">
        <ele>592.4</ele>
      </trkpt>
      <trkpt lat="45.05542" lon="3.55064">
        <ele>590.2</ele>
      </trkpt>
      <trkpt lat="45.05552" lon="3.55054">
        <ele>588.6</ele>
      </trkpt>
      <trkpt lat="45.05561" lon="3.5504">
        <ele>587.2</ele>
      </trkpt>
      <trkpt lat="45.05576" lon="3.55018">
        <ele>584.3</ele>
      </trkpt>
      <trkpt lat="45.05616" lon="3.54925">
        <ele>580</ele>
      </trkpt>
      <trkpt lat="45.0562" lon="3.54915">
        <ele>578.9</ele>
      </trkpt>
      <trkpt lat="45.05638" lon="3.5488">
        <ele>574.5</ele>
      </trkpt>
      <trkpt lat="45.05648" lon="3.54852">
        <ele>571.8</ele>
      </trkpt>
      <trkpt lat="45.05651" lon="3.54836">
        <ele>571.1</ele>
      </trkpt>
      <trkpt lat="45.05652" lon="3.54813">
        <ele>569.4</ele>
      </trkpt>
      <trkpt lat="45.05652" lon="3.54791">
        <ele>568.1</ele>
      </trkpt>
      <trkpt lat="45.0565" lon="3.54769">
        <ele>567.3</ele>
      </trkpt>
      <trkpt lat="45.05647" lon="3.54746">
        <ele>566.5</ele>
      </trkpt>
      <trkpt lat="45.05651" lon="3.54739">
        <ele>564.5</ele>
      </trkpt>
      <trkpt lat="45.05655" lon="3.5473">
        <ele>562.4</ele>
      </trkpt>
      <trkpt lat="45.0566" lon="3.54712">
        <ele>558.7</ele>
      </trkpt>
      <trkpt lat="45.05669" lon="3.54681">
        <ele>553.3</ele>
      </trkpt>
      <trkpt lat="45.05675" lon="3.5466">
        <ele>551.5</ele>
      </trkpt>
      <trkpt lat="45.05678" lon="3.54668">
        <ele>551.6</ele>
      </trkpt>
      <trkpt lat="45.05683" lon="3.54693">
        <ele>553.4</ele>
      </trkpt>
      <trkpt lat="45.057" lon="3.54805">
        <ele>557.2</ele>
      </trkpt>
      <trkpt lat="45.057" lon="3.54817">
        <ele>557.7</ele>
      </trkpt>
      <trkpt lat="45.05701" lon="3.54824">
        <ele>557.8</ele>
      </trkpt>
      <trkpt lat="45.05704" lon="3.54832">
        <ele>557.4</ele>
      </trkpt>
      <trkpt lat="45.05707" lon="3.54833">
        <ele>556.7</ele>
      </trkpt>
      <trkpt lat="45.05715" lon="3.5483">
        <ele>554.9</ele>
      </trkpt>
      <trkpt lat="45.05729" lon="3.54813">
        <ele>551.4</ele>
      </trkpt>
      <trkpt lat="45.05741" lon="3.54801">
        <ele>548.5</ele>
      </trkpt>
      <trkpt lat="45.0575" lon="3.54793">
        <ele>546.5</ele>
      </trkpt>
      <trkpt lat="45.05754" lon="3.54797">
        <ele>546.5</ele>
      </trkpt>
      <trkpt lat="45.05765" lon="3.54815">
        <ele>546.5</ele>
      </trkpt>
      <trkpt lat="45.05779" lon="3.54841">
        <ele>546.3</ele>
      </trkpt>
      <trkpt lat="45.05793" lon="3.54852">
        <ele>546.1</ele>
      </trkpt>
      <trkpt lat="45.05821" lon="3.54863">
        <ele>544.5</ele>
      </trkpt>
      <trkpt lat="45.05839" lon="3.54864">
        <ele>543.5</ele>
      </trkpt>
      <trkpt lat="45.05856" lon="3.5486">
        <ele>543.1</ele>
      </trkpt>
      <trkpt lat="45.05874" lon="3.54885">
        <ele>542.8</ele>
      </trkpt>
      <trkpt lat="45.05877" lon="3.54889">
        <ele>542.8</ele>
      </trkpt>
      <trkpt lat="45.05886" lon="3.54889">
        <ele>542.7</ele>
      </trkpt>
      <trkpt lat="45.05905" lon="3.54883">
        <ele>542.4</ele>
      </trkpt>
      <trkpt lat="45.05921" lon="3.54876">
        <ele>542.1</ele>
      </trkpt>
      <trkpt lat="45.05932" lon="3.54869">
        <ele>542.2</ele>
      </trkpt>
      <trkpt lat="45.05936" lon="3.54867">
        <ele>542.2</ele>
      </trkpt>
      <trkpt lat="45.05941" lon="3.54867">
        <ele>542.3</ele>
      </trkpt>
      <trkpt lat="45.0594" lon="3.54873">
        <ele>542.5</ele>
      </trkpt>
      <trkpt lat="45.05969" lon="3.54857">
        <ele>545</ele>
        <time>2021-04-13T14:39:47Z</time>
      </trkpt>
      <trkpt lat="45.05973" lon="3.54856">
        <ele>545</ele>
        <time>2021-04-13T14:39:48Z</time>
      </trkpt>
      <trkpt lat="45.05976" lon="3.54854">
        <ele>545</ele>
        <time>2021-04-13T14:39:49Z</time>
      </trkpt>
      <trkpt lat="45.0598" lon="3.54853">
        <ele>545</ele>
        <time>2021-04-13T14:39:50Z</time>
      </trkpt>
      <trkpt lat="45.05985" lon="3.54851">
        <ele>544</ele>
        <time>2021-04-13T14:39:51Z</time>
      </trkpt>
      <trkpt lat="45.0599" lon="3.5485">
        <ele>544</ele>
        <time>2021-04-13T14:39:52Z</time>
      </trkpt>
      <trkpt lat="45.05995" lon="3.54849">
        <ele>544</ele>
        <time>2021-04-13T14:39:53Z</time>
      </trkpt>
      <trkpt lat="45.06017" lon="3.54845">
        <ele>544</ele>
        <time>2021-04-13T14:39:57Z</time>
      </trkpt>
      <trkpt lat="45.06022" lon="3.54844">
        <ele>544</ele>
        <time>2021-04-13T14:39:58Z</time>
      </trkpt>
      <trkpt lat="45.06028" lon="3.54844">
        <ele>544</ele>
        <time>2021-04-13T14:39:59Z</time>
      </trkpt>
      <trkpt lat="45.06033" lon="3.54844">
        <ele>544</ele>
        <time>2021-04-13T14:40:00Z</time>
      </trkpt>
      <trkpt lat="45.06038" lon="3.54845">
        <ele>544</ele>
        <time>2021-04-13T14:40:01Z</time>
      </trkpt>
      <trkpt lat="45.06042" lon="3.54845">
        <ele>544</ele>
        <time>2021-04-13T14:40:02Z</time>
      </trkpt>
      <trkpt lat="45.06047" lon="3.54846">
        <ele>544</ele>
        <time>2021-04-13T14:40:03Z</time>
      </trkpt>
      <trkpt lat="45.06052" lon="3.54847">
        <ele>544</ele>
        <time>2021-04-13T14:40:04Z</time>
      </trkpt>
      <trkpt lat="45.06062" lon="3.54848">
        <ele>544</ele>
        <time>2021-04-13T14:40:06Z</time>
      </trkpt>
      <trkpt lat="45.06066" lon="3.54848">
        <ele>544</ele>
        <time>2021-04-13T14:40:07Z</time>
      </trkpt>
      <trkpt lat="45.06071" lon="3.54848">
        <ele>544</ele>
        <time>2021-04-13T14:40:08Z</time>
      </trkpt>
      <trkpt lat="45.06076" lon="3.54847">
        <ele>544</ele>
        <time>2021-04-13T14:40:09Z</time>
      </trkpt>
      <trkpt lat="45.06081" lon="3.54846">
        <ele>544</ele>
        <time>2021-04-13T14:40:10Z</time>
      </trkpt>
      <trkpt lat="45.06086" lon="3.54846">
        <ele>544</ele>
        <time>2021-04-13T14:40:11Z</time>
      </trkpt>
      <trkpt lat="45.0609" lon="3.54845">
        <ele>544</ele>
        <time>2021-04-13T14:40:12Z</time>
      </trkpt>
      <trkpt lat="45.06094" lon="3.54845">
        <ele>544</ele>
        <time>2021-04-13T14:40:13Z</time>
      </trkpt>
      <trkpt lat="45.06113" lon="3.5484">
        <ele>544</ele>
        <time>2021-04-13T14:40:18Z</time>
      </trkpt>
      <trkpt lat="45.06117" lon="3.54838">
        <ele>543</ele>
        <time>2021-04-13T14:40:19Z</time>
      </trkpt>
      <trkpt lat="45.06121" lon="3.54836">
        <ele>543</ele>
        <time>2021-04-13T14:40:20Z</time>
      </trkpt>
      <trkpt lat="45.06126" lon="3.54835">
        <ele>543</ele>
        <time>2021-04-13T14:40:21Z</time>
      </trkpt>
      <trkpt lat="45.0613" lon="3.54833">
        <ele>543</ele>
        <time>2021-04-13T14:40:22Z</time>
      </trkpt>
      <trkpt lat="45.06134" lon="3.5483">
        <ele>543</ele>
        <time>2021-04-13T14:40:23Z</time>
      </trkpt>
      <trkpt lat="45.06139" lon="3.54828">
        <ele>543</ele>
        <time>2021-04-13T14:40:24Z</time>
      </trkpt>
      <trkpt lat="45.06143" lon="3.54825">
        <ele>543</ele>
        <time>2021-04-13T14:40:25Z</time>
      </trkpt>
      <trkpt lat="45.06153" lon="3.54821">
        <ele>543</ele>
        <time>2021-04-13T14:40:27Z</time>
      </trkpt>
      <trkpt lat="45.06158" lon="3.54819">
        <ele>543</ele>
        <time>2021-04-13T14:40:28Z</time>
      </trkpt>
      <trkpt lat="45.06163" lon="3.54817">
        <ele>543</ele>
        <time>2021-04-13T14:40:29Z</time>
      </trkpt>
      <trkpt lat="45.06167" lon="3.54814">
        <ele>543</ele>
        <time>2021-04-13T14:40:30Z</time>
      </trkpt>
      <trkpt lat="45.06172" lon="3.54811">
        <ele>543</ele>
        <time>2021-04-13T14:40:31Z</time>
      </trkpt>
      <trkpt lat="45.06176" lon="3.54809">
        <ele>543</ele>
        <time>2021-04-13T14:40:32Z</time>
      </trkpt>
      <trkpt lat="45.06181" lon="3.54806">
        <ele>543</ele>
        <time>2021-04-13T14:40:33Z</time>
      </trkpt>
      <trkpt lat="45.06185" lon="3.54803">
        <ele>543</ele>
        <time>2021-04-13T14:40:34Z</time>
      </trkpt>
      <trkpt lat="45.06199" lon="3.54792">
        <ele>542</ele>
        <time>2021-04-13T14:40:38Z</time>
      </trkpt>
      <trkpt lat="45.06201" lon="3.54789">
        <ele>542</ele>
        <time>2021-04-13T14:40:39Z</time>
      </trkpt>
      <trkpt lat="45.06205" lon="3.54786">
        <ele>542</ele>
        <time>2021-04-13T14:40:40Z</time>
      </trkpt>
      <trkpt lat="45.06208" lon="3.54782">
        <ele>542</ele>
        <time>2021-04-13T14:40:41Z</time>
      </trkpt>
      <trkpt lat="45.06211" lon="3.54779">
        <ele>542</ele>
        <time>2021-04-13T14:40:42Z</time>
      </trkpt>
      <trkpt lat="45.06214" lon="3.54775">
        <ele>542</ele>
        <time>2021-04-13T14:40:43Z</time>
      </trkpt>
      <trkpt lat="45.06217" lon="3.54772">
        <ele>542</ele>
        <time>2021-04-13T14:40:44Z</time>
      </trkpt>
      <trkpt lat="45.0622" lon="3.54768">
        <ele>542</ele>
        <time>2021-04-13T14:40:45Z</time>
      </trkpt>
      <trkpt lat="45.06227" lon="3.54762">
        <ele>541</ele>
        <time>2021-04-13T14:40:47Z</time>
      </trkpt>
      <trkpt lat="45.0623" lon="3.54759">
        <ele>541</ele>
        <time>2021-04-13T14:40:48Z</time>
      </trkpt>
      <trkpt lat="45.06233" lon="3.54756">
        <ele>541</ele>
        <time>2021-04-13T14:40:49Z</time>
      </trkpt>
      <trkpt lat="45.06237" lon="3.54753">
        <ele>541</ele>
        <time>2021-04-13T14:40:50Z</time>
      </trkpt>
      <trkpt lat="45.0624" lon="3.5475">
        <ele>541</ele>
        <time>2021-04-13T14:40:51Z</time>
      </trkpt>
      <trkpt lat="45.06243" lon="3.54748">
        <ele>541</ele>
        <time>2021-04-13T14:40:52Z</time>
      </trkpt>
      <trkpt lat="45.06246" lon="3.54746">
        <ele>541</ele>
        <time>2021-04-13T14:40:53Z</time>
      </trkpt>
      <trkpt lat="45.06249" lon="3.54744">
        <ele>541</ele>
        <time>2021-04-13T14:40:54Z</time>
      </trkpt>
      <trkpt lat="45.06263" lon="3.54736">
        <ele>541</ele>
        <time>2021-04-13T14:40:58Z</time>
      </trkpt>
      <trkpt lat="45.06267" lon="3.54734">
        <ele>541</ele>
        <time>2021-04-13T14:40:59Z</time>
      </trkpt>
      <trkpt lat="45.06271" lon="3.54732">
        <ele>541</ele>
        <time>2021-04-13T14:41:00Z</time>
      </trkpt>
      <trkpt lat="45.06276" lon="3.5473">
        <ele>541</ele>
        <time>2021-04-13T14:41:01Z</time>
      </trkpt>
      <trkpt lat="45.0628" lon="3.54728">
        <ele>541</ele>
        <time>2021-04-13T14:41:02Z</time>
      </trkpt>
      <trkpt lat="45.06285" lon="3.54726">
        <ele>541</ele>
        <time>2021-04-13T14:41:03Z</time>
      </trkpt>
      <trkpt lat="45.0629" lon="3.54723">
        <ele>541</ele>
        <time>2021-04-13T14:41:04Z</time>
      </trkpt>
      <trkpt lat="45.06294" lon="3.5472">
        <ele>541</ele>
        <time>2021-04-13T14:41:05Z</time>
      </trkpt>
      <trkpt lat="45.06303" lon="3.54713">
        <ele>541</ele>
        <time>2021-04-13T14:41:07Z</time>
      </trkpt>
      <trkpt lat="45.06307" lon="3.5471">
        <ele>541</ele>
        <time>2021-04-13T14:41:08Z</time>
      </trkpt>
      <trkpt lat="45.06311" lon="3.54706">
        <ele>541</ele>
        <time>2021-04-13T14:41:09Z</time>
      </trkpt>
      <trkpt lat="45.06316" lon="3.54702">
        <ele>541</ele>
        <time>2021-04-13T14:41:10Z</time>
      </trkpt>
      <trkpt lat="45.0632" lon="3.54699">
        <ele>541</ele>
        <time>2021-04-13T14:41:11Z</time>
      </trkpt>
      <trkpt lat="45.06324" lon="3.54695">
        <ele>541</ele>
        <time>2021-04-13T14:41:12Z</time>
      </trkpt>
      <trkpt lat="45.06329" lon="3.54692">
        <ele>540</ele>
        <time>2021-04-13T14:41:13Z</time>
      </trkpt>
      <trkpt lat="45.06334" lon="3.54689">
        <ele>540</ele>
        <time>2021-04-13T14:41:14Z</time>
      </trkpt>
      <trkpt lat="45.06353" lon="3.54683">
        <ele>540</ele>
        <time>2021-04-13T14:41:18Z</time>
      </trkpt>
      <trkpt lat="45.06359" lon="3.54685">
        <ele>540</ele>
        <time>2021-04-13T14:41:19Z</time>
      </trkpt>
      <trkpt lat="45.06365" lon="3.54687">
        <ele>540</ele>
        <time>2021-04-13T14:41:20Z</time>
      </trkpt>
      <trkpt lat="45.06371" lon="3.5469">
        <ele>540</ele>
        <time>2021-04-13T14:41:21Z</time>
      </trkpt>
      <trkpt lat="45.06377" lon="3.54692">
        <ele>540</ele>
        <time>2021-04-13T14:41:22Z</time>
      </trkpt>
      <trkpt lat="45.06382" lon="3.54695">
        <ele>540</ele>
        <time>2021-04-13T14:41:23Z</time>
      </trkpt>
      <trkpt lat="45.06388" lon="3.54697">
        <ele>540</ele>
        <time>2021-04-13T14:41:24Z</time>
      </trkpt>
      <trkpt lat="45.06394" lon="3.547">
        <ele>540</ele>
        <time>2021-04-13T14:41:25Z</time>
      </trkpt>
      <trkpt lat="45.06405" lon="3.54706">
        <ele>540</ele>
        <time>2021-04-13T14:41:27Z</time>
      </trkpt>
      <trkpt lat="45.06411" lon="3.54708">
        <ele>540</ele>
        <time>2021-04-13T14:41:28Z</time>
      </trkpt>
      <trkpt lat="45.06416" lon="3.5471">
        <ele>540</ele>
        <time>2021-04-13T14:41:29Z</time>
      </trkpt>
      <trkpt lat="45.06422" lon="3.54711">
        <ele>540</ele>
        <time>2021-04-13T14:41:30Z</time>
      </trkpt>
      <trkpt lat="45.06428" lon="3.54712">
        <ele>541</ele>
        <time>2021-04-13T14:41:31Z</time>
      </trkpt>
      <trkpt lat="45.06433" lon="3.54712">
        <ele>541</ele>
        <time>2021-04-13T14:41:32Z</time>
      </trkpt>
      <trkpt lat="45.0644" lon="3.54712">
        <ele>541</ele>
        <time>2021-04-13T14:41:33Z</time>
      </trkpt>
      <trkpt lat="45.06445" lon="3.54712">
        <ele>541</ele>
        <time>2021-04-13T14:41:34Z</time>
      </trkpt>
      <trkpt lat="45.06468" lon="3.5471">
        <ele>541</ele>
        <time>2021-04-13T14:41:38Z</time>
      </trkpt>
      <trkpt lat="45.06474" lon="3.54709">
        <ele>541</ele>
        <time>2021-04-13T14:41:39Z</time>
      </trkpt>
      <trkpt lat="45.06479" lon="3.54708">
        <ele>541</ele>
        <time>2021-04-13T14:41:40Z</time>
      </trkpt>
      <trkpt lat="45.06485" lon="3.54708">
        <ele>541</ele>
        <time>2021-04-13T14:41:41Z</time>
      </trkpt>
      <trkpt lat="45.0649" lon="3.54707">
        <ele>541</ele>
        <time>2021-04-13T14:41:42Z</time>
      </trkpt>
      <trkpt lat="45.06494" lon="3.54708">
        <ele>542</ele>
        <time>2021-04-13T14:41:43Z</time>
      </trkpt>
      <trkpt lat="45.06497" lon="3.5471">
        <ele>542</ele>
        <time>2021-04-13T14:41:44Z</time>
      </trkpt>
      <trkpt lat="45.065" lon="3.54715">
        <ele>542</ele>
        <time>2021-04-13T14:41:45Z</time>
      </trkpt>
      <trkpt lat="45.06503" lon="3.54726">
        <ele>542</ele>
        <time>2021-04-13T14:41:47Z</time>
      </trkpt>
      <trkpt lat="45.06505" lon="3.54732">
        <ele>542</ele>
        <time>2021-04-13T14:41:48Z</time>
      </trkpt>
      <trkpt lat="45.06506" lon="3.54738">
        <ele>542</ele>
        <time>2021-04-13T14:41:49Z</time>
      </trkpt>
      <trkpt lat="45.06508" lon="3.54743">
        <ele>542</ele>
        <time>2021-04-13T14:41:50Z</time>
      </trkpt>
      <trkpt lat="45.06511" lon="3.54748">
        <ele>542</ele>
        <time>2021-04-13T14:41:51Z</time>
      </trkpt>
      <trkpt lat="45.06514" lon="3.54752">
        <ele>542</ele>
        <time>2021-04-13T14:41:52Z</time>
      </trkpt>
      <trkpt lat="45.06517" lon="3.54754">
        <ele>542</ele>
        <time>2021-04-13T14:41:53Z</time>
      </trkpt>
      <trkpt lat="45.0652" lon="3.54756">
        <ele>542</ele>
        <time>2021-04-13T14:41:54Z</time>
      </trkpt>
      <trkpt lat="45.06537" lon="3.54765">
        <ele>542</ele>
        <time>2021-04-13T14:41:58Z</time>
      </trkpt>
      <trkpt lat="45.06542" lon="3.54766">
        <ele>542</ele>
        <time>2021-04-13T14:41:59Z</time>
      </trkpt>
      <trkpt lat="45.06547" lon="3.54767">
        <ele>542</ele>
        <time>2021-04-13T14:42:00Z</time>
      </trkpt>
      <trkpt lat="45.06552" lon="3.54768">
        <ele>542</ele>
        <time>2021-04-13T14:42:01Z</time>
      </trkpt>
      <trkpt lat="45.06558" lon="3.54769">
        <ele>542</ele>
        <time>2021-04-13T14:42:02Z</time>
      </trkpt>
      <trkpt lat="45.06563" lon="3.5477">
        <ele>542</ele>
        <time>2021-04-13T14:42:03Z</time>
      </trkpt>
      <trkpt lat="45.06569" lon="3.5477">
        <ele>542</ele>
        <time>2021-04-13T14:42:04Z</time>
      </trkpt>
      <trkpt lat="45.06574" lon="3.5477">
        <ele>542</ele>
        <time>2021-04-13T14:42:05Z</time>
      </trkpt>
      <trkpt lat="45.06585" lon="3.54769">
        <ele>542</ele>
        <time>2021-04-13T14:42:07Z</time>
      </trkpt>
      <trkpt lat="45.06591" lon="3.54768">
        <ele>542</ele>
        <time>2021-04-13T14:42:08Z</time>
      </trkpt>
      <trkpt lat="45.06596" lon="3.54765">
        <ele>541</ele>
        <time>2021-04-13T14:42:09Z</time>
      </trkpt>
      <trkpt lat="45.06601" lon="3.54763">
        <ele>541</ele>
        <time>2021-04-13T14:42:10Z</time>
      </trkpt>
      <trkpt lat="45.06606" lon="3.54761">
        <ele>541</ele>
        <time>2021-04-13T14:42:11Z</time>
      </trkpt>
      <trkpt lat="45.06611" lon="3.54758">
        <ele>541</ele>
        <time>2021-04-13T14:42:12Z</time>
      </trkpt>
      <trkpt lat="45.06615" lon="3.54756">
        <ele>541</ele>
        <time>2021-04-13T14:42:13Z</time>
      </trkpt>
      <trkpt lat="45.0662" lon="3.54753">
        <ele>541</ele>
        <time>2021-04-13T14:42:14Z</time>
      </trkpt>
      <trkpt lat="45.0664" lon="3.54742">
        <ele>541</ele>
        <time>2021-04-13T14:42:18Z</time>
      </trkpt>
      <trkpt lat="45.06645" lon="3.54739">
        <ele>541</ele>
        <time>2021-04-13T14:42:19Z</time>
      </trkpt>
      <trkpt lat="45.06649" lon="3.54735">
        <ele>541</ele>
        <time>2021-04-13T14:42:20Z</time>
      </trkpt>
      <trkpt lat="45.06654" lon="3.54732">
        <ele>541</ele>
        <time>2021-04-13T14:42:21Z</time>
      </trkpt>
      <trkpt lat="45.06659" lon="3.54729">
        <ele>541</ele>
        <time>2021-04-13T14:42:22Z</time>
      </trkpt>
      <trkpt lat="45.06664" lon="3.54726">
        <ele>541</ele>
        <time>2021-04-13T14:42:23Z</time>
      </trkpt>
      <trkpt lat="45.06668" lon="3.54723">
        <ele>541</ele>
        <time>2021-04-13T14:42:24Z</time>
      </trkpt>
      <trkpt lat="45.06672" lon="3.54721">
        <ele>541</ele>
        <time>2021-04-13T14:42:25Z</time>
      </trkpt>
      <trkpt lat="45.06683" lon="3.54718">
        <ele>542</ele>
        <time>2021-04-13T14:42:27Z</time>
      </trkpt>
      <trkpt lat="45.06688" lon="3.54718">
        <ele>542</ele>
        <time>2021-04-13T14:42:28Z</time>
      </trkpt>
      <trkpt lat="45.06693" lon="3.54718">
        <ele>541</ele>
        <time>2021-04-13T14:42:29Z</time>
      </trkpt>
      <trkpt lat="45.06703" lon="3.54717">
        <ele>541</ele>
        <time>2021-04-13T14:42:31Z</time>
      </trkpt>
      <trkpt lat="45.06709" lon="3.54717">
        <ele>541</ele>
        <time>2021-04-13T14:42:32Z</time>
      </trkpt>
      <trkpt lat="45.06713" lon="3.54716">
        <ele>541</ele>
        <time>2021-04-13T14:42:33Z</time>
      </trkpt>
      <trkpt lat="45.06718" lon="3.54714">
        <ele>542</ele>
        <time>2021-04-13T14:42:34Z</time>
      </trkpt>
      <trkpt lat="45.06723" lon="3.54712">
        <ele>542</ele>
        <time>2021-04-13T14:42:35Z</time>
      </trkpt>
      <trkpt lat="45.06738" lon="3.54701">
        <ele>542</ele>
        <time>2021-04-13T14:42:39Z</time>
      </trkpt>
      <trkpt lat="45.06741" lon="3.54698">
        <ele>543</ele>
        <time>2021-04-13T14:42:40Z</time>
      </trkpt>
      <trkpt lat="45.06744" lon="3.54696">
        <ele>543</ele>
        <time>2021-04-13T14:42:41Z</time>
      </trkpt>
      <trkpt lat="45.06747" lon="3.54694">
        <ele>543</ele>
        <time>2021-04-13T14:42:42Z</time>
      </trkpt>
      <trkpt lat="45.0675" lon="3.54694">
        <ele>543</ele>
        <time>2021-04-13T14:42:43Z</time>
      </trkpt>
      <trkpt lat="45.06752" lon="3.54694">
        <ele>543</ele>
        <time>2021-04-13T14:42:44Z</time>
      </trkpt>
      <trkpt lat="45.06754" lon="3.54696">
        <ele>543</ele>
        <time>2021-04-13T14:42:46Z</time>
      </trkpt>
      <trkpt lat="45.06755" lon="3.54698">
        <ele>544</ele>
        <time>2021-04-13T14:42:49Z</time>
      </trkpt>
      <trkpt lat="45.06758" lon="3.54701">
        <ele>544</ele>
        <time>2021-04-13T14:42:52Z</time>
      </trkpt>
      <trkpt lat="45.06761" lon="3.54701">
        <ele>544</ele>
        <time>2021-04-13T14:42:53Z</time>
      </trkpt>
      <trkpt lat="45.06764" lon="3.54701">
        <ele>545</ele>
        <time>2021-04-13T14:42:54Z</time>
      </trkpt>
      <trkpt lat="45.06766" lon="3.54699">
        <ele>545</ele>
        <time>2021-04-13T14:42:55Z</time>
      </trkpt>
      <trkpt lat="45.06769" lon="3.54697">
        <ele>545</ele>
        <time>2021-04-13T14:42:56Z</time>
      </trkpt>
      <trkpt lat="45.06772" lon="3.54693">
        <ele>545</ele>
        <time>2021-04-13T14:42:57Z</time>
      </trkpt>
      <trkpt lat="45.06775" lon="3.54689">
        <ele>545</ele>
        <time>2021-04-13T14:42:58Z</time>
      </trkpt>
      <trkpt lat="45.06777" lon="3.54684">
        <ele>545</ele>
        <time>2021-04-13T14:42:59Z</time>
      </trkpt>
      <trkpt lat="45.0679" lon="3.54661">
        <ele>545</ele>
        <time>2021-04-13T14:43:03Z</time>
      </trkpt>
      <trkpt lat="45.06793" lon="3.54655">
        <ele>545</ele>
        <time>2021-04-13T14:43:04Z</time>
      </trkpt>
      <trkpt lat="45.06795" lon="3.54649">
        <ele>545</ele>
        <time>2021-04-13T14:43:05Z</time>
      </trkpt>
      <trkpt lat="45.06799" lon="3.54643">
        <ele>545</ele>
        <time>2021-04-13T14:43:06Z</time>
      </trkpt>
      <trkpt lat="45.06802" lon="3.54636">
        <ele>545</ele>
        <time>2021-04-13T14:43:07Z</time>
      </trkpt>
      <trkpt lat="45.06805" lon="3.5463">
        <ele>544</ele>
        <time>2021-04-13T14:43:08Z</time>
      </trkpt>
      <trkpt lat="45.06808" lon="3.54624">
        <ele>544</ele>
        <time>2021-04-13T14:43:09Z</time>
      </trkpt>
      <trkpt lat="45.06811" lon="3.54617">
        <ele>544</ele>
        <time>2021-04-13T14:43:10Z</time>
      </trkpt>
      <trkpt lat="45.06817" lon="3.54604">
        <ele>544</ele>
        <time>2021-04-13T14:43:12Z</time>
      </trkpt>
      <trkpt lat="45.06819" lon="3.54597">
        <ele>544</ele>
        <time>2021-04-13T14:43:13Z</time>
      </trkpt>
      <trkpt lat="45.06821" lon="3.54591">
        <ele>543</ele>
        <time>2021-04-13T14:43:14Z</time>
      </trkpt>
      <trkpt lat="45.06823" lon="3.54585">
        <ele>543</ele>
        <time>2021-04-13T14:43:15Z</time>
      </trkpt>
      <trkpt lat="45.06825" lon="3.54579">
        <ele>543</ele>
        <time>2021-04-13T14:43:16Z</time>
      </trkpt>
      <trkpt lat="45.06827" lon="3.54575">
        <ele>543</ele>
        <time>2021-04-13T14:43:17Z</time>
      </trkpt>
      <trkpt lat="45.06828" lon="3.54572">
        <ele>543</ele>
        <time>2021-04-13T14:43:18Z</time>
      </trkpt>
      <trkpt lat="45.0683" lon="3.5457">
        <ele>543</ele>
        <time>2021-04-13T14:43:19Z</time>
      </trkpt>
      <trkpt lat="45.06842" lon="3.54577">
        <ele>542</ele>
        <time>2021-04-13T14:43:23Z</time>
      </trkpt>
      <trkpt lat="45.06845" lon="3.54581">
        <ele>542</ele>
        <time>2021-04-13T14:43:24Z</time>
      </trkpt>
      <trkpt lat="45.06848" lon="3.54585">
        <ele>541</ele>
        <time>2021-04-13T14:43:25Z</time>
      </trkpt>
      <trkpt lat="45.06851" lon="3.5459">
        <ele>541</ele>
        <time>2021-04-13T14:43:26Z</time>
      </trkpt>
      <trkpt lat="45.06854" lon="3.54594">
        <ele>541</ele>
        <time>2021-04-13T14:43:27Z</time>
      </trkpt>
      <trkpt lat="45.06856" lon="3.54599">
        <ele>541</ele>
        <time>2021-04-13T14:43:28Z</time>
      </trkpt>
      <trkpt lat="45.06857" lon="3.54603">
        <ele>541</ele>
        <time>2021-04-13T14:43:29Z</time>
      </trkpt>
      <trkpt lat="45.06859" lon="3.54607">
        <ele>541</ele>
        <time>2021-04-13T14:43:30Z</time>
      </trkpt>
      <trkpt lat="45.06862" lon="3.54612">
        <ele>540</ele>
        <time>2021-04-13T14:43:32Z</time>
      </trkpt>
      <trkpt lat="45.06864" lon="3.54612">
        <ele>540</ele>
        <time>2021-04-13T14:43:33Z</time>
      </trkpt>
      <trkpt lat="45.06865" lon="3.5461">
        <ele>540</ele>
        <time>2021-04-13T14:43:34Z</time>
      </trkpt>
      <trkpt lat="45.06866" lon="3.54608">
        <ele>540</ele>
        <time>2021-04-13T14:43:35Z</time>
      </trkpt>
      <trkpt lat="45.06867" lon="3.54605">
        <ele>540</ele>
        <time>2021-04-13T14:43:36Z</time>
      </trkpt>
      <trkpt lat="45.06869" lon="3.54602">
        <ele>540</ele>
        <time>2021-04-13T14:43:37Z</time>
      </trkpt>
      <trkpt lat="45.0687" lon="3.54599">
        <ele>541</ele>
        <time>2021-04-13T14:43:38Z</time>
      </trkpt>
      <trkpt lat="45.06872" lon="3.54596">
        <ele>541</ele>
        <time>2021-04-13T14:43:39Z</time>
      </trkpt>
      <trkpt lat="45.06878" lon="3.54584">
        <ele>541</ele>
        <time>2021-04-13T14:43:43Z</time>
      </trkpt>
      <trkpt lat="45.06879" lon="3.5458">
        <ele>541</ele>
        <time>2021-04-13T14:43:44Z</time>
      </trkpt>
      <trkpt lat="45.06881" lon="3.54576">
        <ele>541</ele>
        <time>2021-04-13T14:43:45Z</time>
      </trkpt>
      <trkpt lat="45.06882" lon="3.54571">
        <ele>541</ele>
        <time>2021-04-13T14:43:46Z</time>
      </trkpt>
      <trkpt lat="45.06884" lon="3.54566">
        <ele>542</ele>
        <time>2021-04-13T14:43:47Z</time>
      </trkpt>
      <trkpt lat="45.06885" lon="3.54561">
        <ele>542</ele>
        <time>2021-04-13T14:43:48Z</time>
      </trkpt>
      <trkpt lat="45.06887" lon="3.54555">
        <ele>542</ele>
        <time>2021-04-13T14:43:49Z</time>
      </trkpt>
      <trkpt lat="45.06889" lon="3.54549">
        <ele>542</ele>
        <time>2021-04-13T14:43:50Z</time>
      </trkpt>
      <trkpt lat="45.06894" lon="3.54538">
        <ele>543</ele>
        <time>2021-04-13T14:43:52Z</time>
      </trkpt>
      <trkpt lat="45.06896" lon="3.54533">
        <ele>544</ele>
        <time>2021-04-13T14:43:53Z</time>
      </trkpt>
      <trkpt lat="45.06898" lon="3.54528">
        <ele>544</ele>
        <time>2021-04-13T14:43:54Z</time>
      </trkpt>
      <trkpt lat="45.06901" lon="3.54522">
        <ele>544</ele>
        <time>2021-04-13T14:43:55Z</time>
      </trkpt>
      <trkpt lat="45.06903" lon="3.54517">
        <ele>545</ele>
        <time>2021-04-13T14:43:56Z</time>
      </trkpt>
      <trkpt lat="45.06905" lon="3.54511">
        <ele>545</ele>
        <time>2021-04-13T14:43:57Z</time>
      </trkpt>
      <trkpt lat="45.06907" lon="3.54505">
        <ele>545</ele>
        <time>2021-04-13T14:43:58Z</time>
      </trkpt>
      <trkpt lat="45.06909" lon="3.54499">
        <ele>546</ele>
        <time>2021-04-13T14:43:59Z</time>
      </trkpt>
      <trkpt lat="45.06915" lon="3.54477">
        <ele>547</ele>
        <time>2021-04-13T14:44:03Z</time>
      </trkpt>
      <trkpt lat="45.06917" lon="3.54471">
        <ele>547</ele>
        <time>2021-04-13T14:44:04Z</time>
      </trkpt>
      <trkpt lat="45.06919" lon="3.54465">
        <ele>548</ele>
        <time>2021-04-13T14:44:05Z</time>
      </trkpt>
      <trkpt lat="45.06921" lon="3.54459">
        <ele>548</ele>
        <time>2021-04-13T14:44:06Z</time>
      </trkpt>
      <trkpt lat="45.06923" lon="3.54452">
        <ele>548</ele>
        <time>2021-04-13T14:44:07Z</time>
      </trkpt>
      <trkpt lat="45.06925" lon="3.54445">
        <ele>549</ele>
        <time>2021-04-13T14:44:08Z</time>
      </trkpt>
      <trkpt lat="45.06926" lon="3.54438">
        <ele>549</ele>
        <time>2021-04-13T14:44:09Z</time>
      </trkpt>
      <trkpt lat="45.06927" lon="3.54431">
        <ele>550</ele>
        <time>2021-04-13T14:44:10Z</time>
      </trkpt>
      <trkpt lat="45.0693" lon="3.54407">
        <ele>550</ele>
        <time>2021-04-13T14:44:13Z</time>
      </trkpt>
      <trkpt lat="45.0693" lon="3.54399">
        <ele>551</ele>
        <time>2021-04-13T14:44:14Z</time>
      </trkpt>
      <trkpt lat="45.06929" lon="3.54391">
        <ele>551</ele>
        <time>2021-04-13T14:44:15Z</time>
      </trkpt>
      <trkpt lat="45.06929" lon="3.54374">
        <ele>551</ele>
        <time>2021-04-13T14:44:17Z</time>
      </trkpt>
      <trkpt lat="45.0693" lon="3.54367">
        <ele>552</ele>
        <time>2021-04-13T14:44:18Z</time>
      </trkpt>
      <trkpt lat="45.0693" lon="3.54359">
        <ele>552</ele>
        <time>2021-04-13T14:44:19Z</time>
      </trkpt>
      <trkpt lat="45.06932" lon="3.54352">
        <ele>553</ele>
        <time>2021-04-13T14:44:20Z</time>
      </trkpt>
      <trkpt lat="45.06931" lon="3.54345">
        <ele>553</ele>
        <time>2021-04-13T14:44:21Z</time>
      </trkpt>
      <trkpt lat="45.06934" lon="3.54305">
        <ele>555</ele>
        <time>2021-04-13T14:44:27Z</time>
      </trkpt>
      <trkpt lat="45.06934" lon="3.54291">
        <ele>555</ele>
        <time>2021-04-13T14:44:29Z</time>
      </trkpt>
      <trkpt lat="45.06936" lon="3.54275">
        <ele>556</ele>
        <time>2021-04-13T14:44:31Z</time>
      </trkpt>
      <trkpt lat="45.06937" lon="3.54267">
        <ele>557</ele>
        <time>2021-04-13T14:44:32Z</time>
      </trkpt>
      <trkpt lat="45.06939" lon="3.54259">
        <ele>557</ele>
        <time>2021-04-13T14:44:33Z</time>
      </trkpt>
      <trkpt lat="45.0694" lon="3.5425">
        <ele>557</ele>
        <time>2021-04-13T14:44:34Z</time>
      </trkpt>
      <trkpt lat="45.06943" lon="3.54241">
        <ele>557</ele>
        <time>2021-04-13T14:44:35Z</time>
      </trkpt>
      <trkpt lat="45.06945" lon="3.54232">
        <ele>558</ele>
        <time>2021-04-13T14:44:36Z</time>
      </trkpt>
      <trkpt lat="45.06947" lon="3.54214">
        <ele>558</ele>
        <time>2021-04-13T14:44:38Z</time>
      </trkpt>
      <trkpt lat="45.06948" lon="3.54206">
        <ele>558</ele>
        <time>2021-04-13T14:44:39Z</time>
      </trkpt>
      <trkpt lat="45.06949" lon="3.54199">
        <ele>559</ele>
        <time>2021-04-13T14:44:40Z</time>
      </trkpt>
      <trkpt lat="45.0695" lon="3.54193">
        <ele>559</ele>
        <time>2021-04-13T14:44:41Z</time>
      </trkpt>
      <trkpt lat="45.06951" lon="3.54186">
        <ele>559</ele>
        <time>2021-04-13T14:44:42Z</time>
      </trkpt>
      <trkpt lat="45.06952" lon="3.5418">
        <ele>559</ele>
        <time>2021-04-13T14:44:43Z</time>
      </trkpt>
      <trkpt lat="45.06953" lon="3.54174">
        <ele>559</ele>
        <time>2021-04-13T14:44:44Z</time>
      </trkpt>
      <trkpt lat="45.06954" lon="3.54168">
        <ele>559</ele>
        <time>2021-04-13T14:44:45Z</time>
      </trkpt>
      <trkpt lat="45.06963" lon="3.5414">
        <ele>559</ele>
        <time>2021-04-13T14:44:49Z</time>
      </trkpt>
      <trkpt lat="45.06966" lon="3.54131">
        <ele>559</ele>
        <time>2021-04-13T14:44:50Z</time>
      </trkpt>
      <trkpt lat="45.06969" lon="3.54123">
        <ele>559</ele>
        <time>2021-04-13T14:44:51Z</time>
      </trkpt>
      <trkpt lat="45.06972" lon="3.54114">
        <ele>560</ele>
        <time>2021-04-13T14:44:52Z</time>
      </trkpt>
      <trkpt lat="45.06975" lon="3.54106">
        <ele>560</ele>
        <time>2021-04-13T14:44:53Z</time>
      </trkpt>
      <trkpt lat="45.06978" lon="3.54098">
        <ele>560</ele>
        <time>2021-04-13T14:44:54Z</time>
      </trkpt>
      <trkpt lat="45.0698" lon="3.5409">
        <ele>560</ele>
        <time>2021-04-13T14:44:55Z</time>
      </trkpt>
      <trkpt lat="45.06983" lon="3.54082">
        <ele>560</ele>
        <time>2021-04-13T14:44:56Z</time>
      </trkpt>
      <trkpt lat="45.0699" lon="3.54062">
        <ele>560</ele>
        <time>2021-04-13T14:44:59Z</time>
      </trkpt>
      <trkpt lat="45.06993" lon="3.54055">
        <ele>559</ele>
        <time>2021-04-13T14:45:00Z</time>
      </trkpt>
      <trkpt lat="45.06995" lon="3.54047">
        <ele>559</ele>
        <time>2021-04-13T14:45:01Z</time>
      </trkpt>
      <trkpt lat="45.06998" lon="3.5404">
        <ele>559</ele>
        <time>2021-04-13T14:45:02Z</time>
      </trkpt>
      <trkpt lat="45.07" lon="3.54032">
        <ele>559</ele>
        <time>2021-04-13T14:45:03Z</time>
      </trkpt>
      <trkpt lat="45.07002" lon="3.54024">
        <ele>559</ele>
        <time>2021-04-13T14:45:04Z</time>
      </trkpt>
      <trkpt lat="45.07005" lon="3.54017">
        <ele>559</ele>
        <time>2021-04-13T14:45:05Z</time>
      </trkpt>
      <trkpt lat="45.07007" lon="3.54009">
        <ele>559</ele>
        <time>2021-04-13T14:45:06Z</time>
      </trkpt>
      <trkpt lat="45.07017" lon="3.53976">
        <ele>559</ele>
        <time>2021-04-13T14:45:10Z</time>
      </trkpt>
      <trkpt lat="45.07019" lon="3.53967">
        <ele>559</ele>
        <time>2021-04-13T14:45:11Z</time>
      </trkpt>
      <trkpt lat="45.07021" lon="3.53959">
        <ele>559</ele>
        <time>2021-04-13T14:45:12Z</time>
      </trkpt>
      <trkpt lat="45.07023" lon="3.53951">
        <ele>559</ele>
        <time>2021-04-13T14:45:13Z</time>
      </trkpt>
      <trkpt lat="45.07025" lon="3.53943">
        <ele>559</ele>
        <time>2021-04-13T14:45:14Z</time>
      </trkpt>
      <trkpt lat="45.07028" lon="3.53935">
        <ele>559</ele>
        <time>2021-04-13T14:45:15Z</time>
      </trkpt>
      <trkpt lat="45.0703" lon="3.53927">
        <ele>559</ele>
        <time>2021-04-13T14:45:16Z</time>
      </trkpt>
      <trkpt lat="45.07032" lon="3.53919">
        <ele>559</ele>
        <time>2021-04-13T14:45:17Z</time>
      </trkpt>
      <trkpt lat="45.07036" lon="3.53902">
        <ele>559</ele>
        <time>2021-04-13T14:45:19Z</time>
      </trkpt>
      <trkpt lat="45.07038" lon="3.53893">
        <ele>559</ele>
        <time>2021-04-13T14:45:20Z</time>
      </trkpt>
      <trkpt lat="45.07039" lon="3.53884">
        <ele>559</ele>
        <time>2021-04-13T14:45:21Z</time>
      </trkpt>
      <trkpt lat="45.07041" lon="3.53875">
        <ele>559</ele>
        <time>2021-04-13T14:45:22Z</time>
      </trkpt>
      <trkpt lat="45.07042" lon="3.53867">
        <ele>559</ele>
        <time>2021-04-13T14:45:23Z</time>
      </trkpt>
      <trkpt lat="45.07044" lon="3.53858">
        <ele>559</ele>
        <time>2021-04-13T14:45:24Z</time>
      </trkpt>
      <trkpt lat="45.07046" lon="3.53849">
        <ele>559</ele>
        <time>2021-04-13T14:45:25Z</time>
      </trkpt>
      <trkpt lat="45.07048" lon="3.5384">
        <ele>559</ele>
        <time>2021-04-13T14:45:26Z</time>
      </trkpt>
      <trkpt lat="45.07054" lon="3.53805">
        <ele>558</ele>
        <time>2021-04-13T14:45:30Z</time>
      </trkpt>
      <trkpt lat="45.07056" lon="3.53796">
        <ele>558</ele>
        <time>2021-04-13T14:45:31Z</time>
      </trkpt>
      <trkpt lat="45.07057" lon="3.53787">
        <ele>558</ele>
        <time>2021-04-13T14:45:32Z</time>
      </trkpt>
      <trkpt lat="45.07058" lon="3.53778">
        <ele>558</ele>
        <time>2021-04-13T14:45:33Z</time>
      </trkpt>
      <trkpt lat="45.0706" lon="3.53769">
        <ele>558</ele>
        <time>2021-04-13T14:45:34Z</time>
      </trkpt>
      <trkpt lat="45.07061" lon="3.53759">
        <ele>558</ele>
        <time>2021-04-13T14:45:35Z</time>
      </trkpt>
      <trkpt lat="45.07063" lon="3.5375">
        <ele>558</ele>
        <time>2021-04-13T14:45:36Z</time>
      </trkpt>
      <trkpt lat="45.07065" lon="3.53741">
        <ele>558</ele>
        <time>2021-04-13T14:45:37Z</time>
      </trkpt>
      <trkpt lat="45.0707" lon="3.53724">
        <ele>558</ele>
        <time>2021-04-13T14:45:39Z</time>
      </trkpt>
      <trkpt lat="45.07071" lon="3.53716">
        <ele>558</ele>
        <time>2021-04-13T14:45:40Z</time>
      </trkpt>
      <trkpt lat="45.07073" lon="3.53711">
        <ele>558</ele>
        <time>2021-04-13T14:45:41Z</time>
      </trkpt>
      <trkpt lat="45.07074" lon="3.53706">
        <ele>558</ele>
        <time>2021-04-13T14:45:42Z</time>
      </trkpt>
      <trkpt lat="45.07076" lon="3.53701">
        <ele>558</ele>
        <time>2021-04-13T14:45:43Z</time>
      </trkpt>
      <trkpt lat="45.07077" lon="3.53696">
        <ele>558</ele>
        <time>2021-04-13T14:45:44Z</time>
      </trkpt>
      <trkpt lat="45.07079" lon="3.53691">
        <ele>558</ele>
        <time>2021-04-13T14:45:45Z</time>
      </trkpt>
      <trkpt lat="45.07081" lon="3.53687">
        <ele>558</ele>
        <time>2021-04-13T14:45:46Z</time>
      </trkpt>
      <trkpt lat="45.07085" lon="3.53676">
        <ele>558</ele>
        <time>2021-04-13T14:45:50Z</time>
      </trkpt>
      <trkpt lat="45.07087" lon="3.53673">
        <ele>558</ele>
        <time>2021-04-13T14:45:51Z</time>
      </trkpt>
      <trkpt lat="45.07088" lon="3.5367">
        <ele>558</ele>
        <time>2021-04-13T14:45:52Z</time>
      </trkpt>
      <trkpt lat="45.07089" lon="3.53667">
        <ele>558</ele>
        <time>2021-04-13T14:45:53Z</time>
      </trkpt>
      <trkpt lat="45.0709" lon="3.53663">
        <ele>558</ele>
        <time>2021-04-13T14:45:54Z</time>
      </trkpt>
      <trkpt lat="45.07092" lon="3.53658">
        <ele>558</ele>
        <time>2021-04-13T14:45:55Z</time>
      </trkpt>
      <trkpt lat="45.07093" lon="3.53654">
        <ele>558</ele>
        <time>2021-04-13T14:45:56Z</time>
      </trkpt>
      <trkpt lat="45.07094" lon="3.53648">
        <ele>558</ele>
        <time>2021-04-13T14:45:57Z</time>
      </trkpt>
      <trkpt lat="45.07097" lon="3.53638">
        <ele>558</ele>
        <time>2021-04-13T14:45:59Z</time>
      </trkpt>
      <trkpt lat="45.071" lon="3.53633">
        <ele>558</ele>
        <time>2021-04-13T14:46:00Z</time>
      </trkpt>
      <trkpt lat="45.07102" lon="3.53628">
        <ele>558</ele>
        <time>2021-04-13T14:46:01Z</time>
      </trkpt>
      <trkpt lat="45.07104" lon="3.53623">
        <ele>557</ele>
        <time>2021-04-13T14:46:02Z</time>
      </trkpt>
      <trkpt lat="45.07106" lon="3.53618">
        <ele>557</ele>
        <time>2021-04-13T14:46:03Z</time>
      </trkpt>
      <trkpt lat="45.07109" lon="3.53613">
        <ele>557</ele>
        <time>2021-04-13T14:46:04Z</time>
      </trkpt>
      <trkpt lat="45.07111" lon="3.53609">
        <ele>557</ele>
        <time>2021-04-13T14:46:05Z</time>
      </trkpt>
      <trkpt lat="45.07113" lon="3.53604">
        <ele>557</ele>
        <time>2021-04-13T14:46:06Z</time>
      </trkpt>
      <trkpt lat="45.07121" lon="3.53586">
        <ele>556</ele>
        <time>2021-04-13T14:46:10Z</time>
      </trkpt>
      <trkpt lat="45.07123" lon="3.53581">
        <ele>555</ele>
        <time>2021-04-13T14:46:11Z</time>
      </trkpt>
      <trkpt lat="45.07126" lon="3.53577">
        <ele>555</ele>
        <time>2021-04-13T14:46:12Z</time>
      </trkpt>
      <trkpt lat="45.07128" lon="3.53573">
        <ele>555</ele>
        <time>2021-04-13T14:46:13Z</time>
      </trkpt>
      <trkpt lat="45.0713" lon="3.53568">
        <ele>556</ele>
        <time>2021-04-13T14:46:14Z</time>
      </trkpt>
      <trkpt lat="45.07132" lon="3.53564">
        <ele>556</ele>
        <time>2021-04-13T14:46:15Z</time>
      </trkpt>
      <trkpt lat="45.07134" lon="3.53559">
        <ele>556</ele>
        <time>2021-04-13T14:46:16Z</time>
      </trkpt>
      <trkpt lat="45.07136" lon="3.53555">
        <ele>556</ele>
        <time>2021-04-13T14:46:17Z</time>
      </trkpt>
      <trkpt lat="45.07142" lon="3.53547">
        <ele>556</ele>
        <time>2021-04-13T14:46:19Z</time>
      </trkpt>
      <trkpt lat="45.07144" lon="3.53543">
        <ele>556</ele>
        <time>2021-04-13T14:46:20Z</time>
      </trkpt>
      <trkpt lat="45.07147" lon="3.53539">
        <ele>556</ele>
        <time>2021-04-13T14:46:21Z</time>
      </trkpt>
      <trkpt lat="45.07149" lon="3.53535">
        <ele>556</ele>
        <time>2021-04-13T14:46:22Z</time>
      </trkpt>
      <trkpt lat="45.07151" lon="3.53531">
        <ele>556</ele>
        <time>2021-04-13T14:46:23Z</time>
      </trkpt>
      <trkpt lat="45.07154" lon="3.53527">
        <ele>556</ele>
        <time>2021-04-13T14:46:24Z</time>
      </trkpt>
      <trkpt lat="45.07157" lon="3.53522">
        <ele>555</ele>
        <time>2021-04-13T14:46:25Z</time>
      </trkpt>
      <trkpt lat="45.0716" lon="3.53516">
        <ele>555</ele>
        <time>2021-04-13T14:46:26Z</time>
      </trkpt>
      <trkpt lat="45.07171" lon="3.53483">
        <ele>554</ele>
        <time>2021-04-13T14:46:30Z</time>
      </trkpt>
      <trkpt lat="45.07174" lon="3.53474">
        <ele>554</ele>
        <time>2021-04-13T14:46:31Z</time>
      </trkpt>
      <trkpt lat="45.07178" lon="3.53465">
        <ele>554</ele>
        <time>2021-04-13T14:46:32Z</time>
      </trkpt>
      <trkpt lat="45.07183" lon="3.53457">
        <ele>553</ele>
        <time>2021-04-13T14:46:33Z</time>
      </trkpt>
      <trkpt lat="45.07187" lon="3.53449">
        <ele>553</ele>
        <time>2021-04-13T14:46:34Z</time>
      </trkpt>
      <trkpt lat="45.07191" lon="3.53443">
        <ele>553</ele>
        <time>2021-04-13T14:46:35Z</time>
      </trkpt>
      <trkpt lat="45.07193" lon="3.53438">
        <ele>553</ele>
        <time>2021-04-13T14:46:36Z</time>
      </trkpt>
      <trkpt lat="45.07196" lon="3.53435">
        <ele>553</ele>
        <time>2021-04-13T14:46:37Z</time>
      </trkpt>
      <trkpt lat="45.07201" lon="3.53431">
        <ele>552</ele>
        <time>2021-04-13T14:46:39Z</time>
      </trkpt>
      <trkpt lat="45.07204" lon="3.5343">
        <ele>552</ele>
        <time>2021-04-13T14:46:40Z</time>
      </trkpt>
      <trkpt lat="45.07206" lon="3.53428">
        <ele>552</ele>
        <time>2021-04-13T14:46:41Z</time>
      </trkpt>
      <trkpt lat="45.07209" lon="3.53427">
        <ele>552</ele>
        <time>2021-04-13T14:46:42Z</time>
      </trkpt>
      <trkpt lat="45.07211" lon="3.53426">
        <ele>552</ele>
        <time>2021-04-13T14:46:43Z</time>
      </trkpt>
      <trkpt lat="45.07213" lon="3.53426">
        <ele>552</ele>
        <time>2021-04-13T14:46:44Z</time>
      </trkpt>
      <trkpt lat="45.07216" lon="3.53424">
        <ele>552</ele>
        <time>2021-04-13T14:46:45Z</time>
      </trkpt>
      <trkpt lat="45.07218" lon="3.53421">
        <ele>552</ele>
        <time>2021-04-13T14:46:46Z</time>
      </trkpt>
      <trkpt lat="45.07226" lon="3.53409">
        <ele>552</ele>
        <time>2021-04-13T14:46:50Z</time>
      </trkpt>
      <trkpt lat="45.07228" lon="3.53406">
        <ele>552</ele>
        <time>2021-04-13T14:46:51Z</time>
      </trkpt>
      <trkpt lat="45.0723" lon="3.53403">
        <ele>552</ele>
        <time>2021-04-13T14:46:52Z</time>
      </trkpt>
      <trkpt lat="45.07233" lon="3.53399">
        <ele>552</ele>
        <time>2021-04-13T14:46:53Z</time>
      </trkpt>
      <trkpt lat="45.07235" lon="3.53396">
        <ele>552</ele>
        <time>2021-04-13T14:46:54Z</time>
      </trkpt>
      <trkpt lat="45.07237" lon="3.53393">
        <ele>552</ele>
        <time>2021-04-13T14:46:55Z</time>
      </trkpt>
      <trkpt lat="45.0724" lon="3.5339">
        <ele>552</ele>
        <time>2021-04-13T14:46:56Z</time>
      </trkpt>
      <trkpt lat="45.07242" lon="3.53386">
        <ele>552</ele>
        <time>2021-04-13T14:46:57Z</time>
      </trkpt>
      <trkpt lat="45.07246" lon="3.53375">
        <ele>552</ele>
        <time>2021-04-13T14:46:59Z</time>
      </trkpt>
      <trkpt lat="45.07248" lon="3.53369">
        <ele>552</ele>
        <time>2021-04-13T14:47:00Z</time>
      </trkpt>
      <trkpt lat="45.0725" lon="3.53365">
        <ele>552</ele>
        <time>2021-04-13T14:47:01Z</time>
      </trkpt>
      <trkpt lat="45.07254" lon="3.53362">
        <ele>551</ele>
        <time>2021-04-13T14:47:02Z</time>
      </trkpt>
      <trkpt lat="45.07257" lon="3.53359">
        <ele>551</ele>
        <time>2021-04-13T14:47:03Z</time>
      </trkpt>
      <trkpt lat="45.07259" lon="3.53356">
        <ele>551</ele>
        <time>2021-04-13T14:47:04Z</time>
      </trkpt>
      <trkpt lat="45.07266" lon="3.53349">
        <ele>551</ele>
        <time>2021-04-13T14:47:07Z</time>
      </trkpt>
      <trkpt lat="45.07269" lon="3.53346">
        <ele>551</ele>
        <time>2021-04-13T14:47:08Z</time>
      </trkpt>
      <trkpt lat="45.07279" lon="3.53335">
        <ele>550</ele>
        <time>2021-04-13T14:47:12Z</time>
      </trkpt>
      <trkpt lat="45.0728" lon="3.53332">
        <ele>550</ele>
        <time>2021-04-13T14:47:13Z</time>
      </trkpt>
      <trkpt lat="45.07282" lon="3.53331">
        <ele>550</ele>
        <time>2021-04-13T14:47:14Z</time>
      </trkpt>
      <trkpt lat="45.07285" lon="3.53331">
        <ele>550</ele>
        <time>2021-04-13T14:47:16Z</time>
      </trkpt>
      <trkpt lat="45.07285" lon="3.53335">
        <ele>549</ele>
        <time>2021-04-13T14:47:20Z</time>
      </trkpt>
      <trkpt lat="45.07284" lon="3.53336">
        <ele>549</ele>
        <time>2021-04-13T14:47:21Z</time>
      </trkpt>
      <trkpt lat="45.07281" lon="3.53338">
        <ele>549</ele>
        <time>2021-04-13T14:47:22Z</time>
      </trkpt>
      <trkpt lat="45.07279" lon="3.53339">
        <ele>549</ele>
        <time>2021-04-13T14:47:23Z</time>
      </trkpt>
      <trkpt lat="45.07274" lon="3.53338">
        <ele>549</ele>
        <time>2021-04-13T14:47:25Z</time>
      </trkpt>
      <trkpt lat="45.07271" lon="3.53337">
        <ele>549</ele>
        <time>2021-04-13T14:47:26Z</time>
      </trkpt>
      <trkpt lat="45.07269" lon="3.53337">
        <ele>549</ele>
        <time>2021-04-13T14:47:27Z</time>
      </trkpt>
      <trkpt lat="45.07266" lon="3.53337">
        <ele>549</ele>
        <time>2021-04-13T14:47:28Z</time>
      </trkpt>
      <trkpt lat="45.07262" lon="3.53337">
        <ele>548</ele>
        <time>2021-04-13T14:47:29Z</time>
      </trkpt>
      <trkpt lat="45.07256" lon="3.53335">
        <ele>548</ele>
        <time>2021-04-13T14:47:30Z</time>
      </trkpt>
      <trkpt lat="45.07254" lon="3.53334">
        <ele>548</ele>
        <time>2021-04-13T14:47:31Z</time>
      </trkpt>
      <trkpt lat="45.07251" lon="3.53333">
        <ele>548</ele>
        <time>2021-04-13T14:47:34Z</time>
      </trkpt>
      <trkpt lat="45.07227" lon="3.53344">
        <ele>545</ele>
        <time>2021-04-13T14:47:42Z</time>
      </trkpt>
      <trkpt lat="45.07227" lon="3.53341">
        <ele>544</ele>
        <time>2021-04-13T14:47:43Z</time>
      </trkpt>
      <trkpt lat="45.07228" lon="3.53337">
        <ele>544</ele>
        <time>2021-04-13T14:47:44Z</time>
      </trkpt>
      <trkpt lat="45.07231" lon="3.53332">
        <ele>543</ele>
        <time>2021-04-13T14:47:45Z</time>
      </trkpt>
      <trkpt lat="45.07233" lon="3.53325">
        <ele>542</ele>
        <time>2021-04-13T14:47:46Z</time>
      </trkpt>
      <trkpt lat="45.07234" lon="3.53321">
        <ele>542</ele>
        <time>2021-04-13T14:47:47Z</time>
      </trkpt>
      <trkpt lat="45.07232" lon="3.53317">
        <ele>542</ele>
        <time>2021-04-13T14:47:48Z</time>
      </trkpt>
      <trkpt lat="45.07229" lon="3.53313">
        <ele>541</ele>
        <time>2021-04-13T14:47:49Z</time>
      </trkpt>
      <trkpt lat="45.07224" lon="3.53307">
        <ele>541</ele>
        <time>2021-04-13T14:47:51Z</time>
      </trkpt>
      <trkpt lat="45.07222" lon="3.53304">
        <ele>541</ele>
        <time>2021-04-13T14:47:52Z</time>
      </trkpt>
      <trkpt lat="45.07219" lon="3.53301">
        <ele>540</ele>
        <time>2021-04-13T14:47:53Z</time>
      </trkpt>
      <trkpt lat="45.07215" lon="3.53293">
        <ele>539</ele>
        <time>2021-04-13T14:47:55Z</time>
      </trkpt>
      <trkpt lat="45.07214" lon="3.5329">
        <ele>538</ele>
        <time>2021-04-13T14:47:56Z</time>
      </trkpt>
      <trkpt lat="45.07212" lon="3.53286">
        <ele>537</ele>
        <time>2021-04-13T14:47:57Z</time>
      </trkpt>
      <trkpt lat="45.0721" lon="3.53283">
        <ele>537</ele>
        <time>2021-04-13T14:47:58Z</time>
      </trkpt>
      <trkpt lat="45.07208" lon="3.53279">
        <ele>536</ele>
        <time>2021-04-13T14:47:59Z</time>
      </trkpt>
      <trkpt lat="45.07204" lon="3.53265">
        <ele>534</ele>
        <time>2021-04-13T14:48:05Z</time>
      </trkpt>
      <trkpt lat="45.07205" lon="3.53261">
        <ele>533</ele>
        <time>2021-04-13T14:48:06Z</time>
      </trkpt>
      <trkpt lat="45.07206" lon="3.53256">
        <ele>533</ele>
        <time>2021-04-13T14:48:07Z</time>
      </trkpt>
      <trkpt lat="45.07207" lon="3.53251">
        <ele>532</ele>
        <time>2021-04-13T14:48:08Z</time>
      </trkpt>
      <trkpt lat="45.07209" lon="3.53247">
        <ele>532</ele>
        <time>2021-04-13T14:48:09Z</time>
      </trkpt>
      <trkpt lat="45.0721" lon="3.53242">
        <ele>532</ele>
        <time>2021-04-13T14:48:10Z</time>
      </trkpt>
      <trkpt lat="45.07212" lon="3.53238">
        <ele>531</ele>
        <time>2021-04-13T14:48:11Z</time>
      </trkpt>
      <trkpt lat="45.07212" lon="3.53234">
        <ele>531</ele>
        <time>2021-04-13T14:48:12Z</time>
      </trkpt>
      <trkpt lat="45.07207" lon="3.53226">
        <ele>530</ele>
        <time>2021-04-13T14:48:14Z</time>
      </trkpt>
      <trkpt lat="45.07202" lon="3.53222">
        <ele>530</ele>
        <time>2021-04-13T14:48:15Z</time>
      </trkpt>
      <trkpt lat="45.07198" lon="3.53218">
        <ele>529</ele>
        <time>2021-04-13T14:48:16Z</time>
      </trkpt>
      <trkpt lat="45.07194" lon="3.53213">
        <ele>529</ele>
        <time>2021-04-13T14:48:17Z</time>
      </trkpt>
      <trkpt lat="45.07189" lon="3.53208">
        <ele>529</ele>
        <time>2021-04-13T14:48:18Z</time>
      </trkpt>
      <trkpt lat="45.07185" lon="3.53203">
        <ele>529</ele>
        <time>2021-04-13T14:48:19Z</time>
      </trkpt>
      <trkpt lat="45.07181" lon="3.53198">
        <ele>529</ele>
        <time>2021-04-13T14:48:20Z</time>
      </trkpt>
      <trkpt lat="45.07177" lon="3.53193">
        <ele>528</ele>
        <time>2021-04-13T14:48:21Z</time>
      </trkpt>
      <trkpt lat="45.07162" lon="3.5317">
        <ele>529</ele>
        <time>2021-04-13T14:48:25Z</time>
      </trkpt>
      <trkpt lat="45.07159" lon="3.53164">
        <ele>529</ele>
        <time>2021-04-13T14:48:26Z</time>
      </trkpt>
      <trkpt lat="45.07156" lon="3.53159">
        <ele>529</ele>
        <time>2021-04-13T14:48:27Z</time>
      </trkpt>
      <trkpt lat="45.07152" lon="3.53154">
        <ele>529</ele>
        <time>2021-04-13T14:48:28Z</time>
      </trkpt>
      <trkpt lat="45.07149" lon="3.53148">
        <ele>529</ele>
        <time>2021-04-13T14:48:29Z</time>
      </trkpt>
      <trkpt lat="45.07146" lon="3.53143">
        <ele>529</ele>
        <time>2021-04-13T14:48:30Z</time>
      </trkpt>
      <trkpt lat="45.07143" lon="3.53138">
        <ele>529</ele>
        <time>2021-04-13T14:48:31Z</time>
      </trkpt>
      <trkpt lat="45.0714" lon="3.53133">
        <ele>529</ele>
        <time>2021-04-13T14:48:32Z</time>
      </trkpt>
      <trkpt lat="45.07136" lon="3.53124">
        <ele>529</ele>
        <time>2021-04-13T14:48:34Z</time>
      </trkpt>
      <trkpt lat="45.07134" lon="3.5312">
        <ele>529</ele>
        <time>2021-04-13T14:48:35Z</time>
      </trkpt>
      <trkpt lat="45.07133" lon="3.53116">
        <ele>529</ele>
        <time>2021-04-13T14:48:36Z</time>
      </trkpt>
      <trkpt lat="45.07133" lon="3.53113">
        <ele>530</ele>
        <time>2021-04-13T14:48:37Z</time>
      </trkpt>
      <trkpt lat="45.07133" lon="3.5311">
        <ele>530</ele>
        <time>2021-04-13T14:48:38Z</time>
      </trkpt>
      <trkpt lat="45.07134" lon="3.53107">
        <ele>530</ele>
        <time>2021-04-13T14:48:40Z</time>
      </trkpt>
      <trkpt lat="45.07136" lon="3.53106">
        <ele>530</ele>
        <time>2021-04-13T14:48:43Z</time>
      </trkpt>
      <trkpt lat="45.07136" lon="3.53106">
        <ele>530</ele>
        <time>2021-04-13T14:48:47Z</time>
      </trkpt>
      <trkpt lat="45.07127" lon="3.53105">
        <ele>532</ele>
        <time>2021-04-13T14:55:21Z</time>
      </trkpt>
      <trkpt lat="45.07125" lon="3.53109">
        <ele>532</ele>
        <time>2021-04-13T14:55:24Z</time>
      </trkpt>
      <trkpt lat="45.07124" lon="3.53107">
        <ele>532</ele>
        <time>2021-04-13T14:55:25Z</time>
      </trkpt>
      <trkpt lat="45.07122" lon="3.53104">
        <ele>532</ele>
        <time>2021-04-13T14:55:26Z</time>
      </trkpt>
      <trkpt lat="45.07121" lon="3.531">
        <ele>531</ele>
        <time>2021-04-13T14:55:27Z</time>
      </trkpt>
      <trkpt lat="45.07119" lon="3.53096">
        <ele>532</ele>
        <time>2021-04-13T14:55:28Z</time>
      </trkpt>
      <trkpt lat="45.07118" lon="3.53093">
        <ele>532</ele>
        <time>2021-04-13T14:55:29Z</time>
      </trkpt>
      <trkpt lat="45.07117" lon="3.53089">
        <ele>532</ele>
        <time>2021-04-13T14:55:30Z</time>
      </trkpt>
      <trkpt lat="45.07115" lon="3.53081">
        <ele>531</ele>
        <time>2021-04-13T14:55:32Z</time>
      </trkpt>
      <trkpt lat="45.07114" lon="3.53077">
        <ele>531</ele>
        <time>2021-04-13T14:55:33Z</time>
      </trkpt>
      <trkpt lat="45.07114" lon="3.53072">
        <ele>531</ele>
        <time>2021-04-13T14:55:34Z</time>
      </trkpt>
      <trkpt lat="45.07115" lon="3.53068">
        <ele>531</ele>
        <time>2021-04-13T14:55:35Z</time>
      </trkpt>
      <trkpt lat="45.07116" lon="3.53064">
        <ele>531</ele>
        <time>2021-04-13T14:55:36Z</time>
      </trkpt>
      <trkpt lat="45.07118" lon="3.5306">
        <ele>531</ele>
        <time>2021-04-13T14:55:37Z</time>
      </trkpt>
      <trkpt lat="45.0712" lon="3.53056">
        <ele>531</ele>
        <time>2021-04-13T14:55:38Z</time>
      </trkpt>
      <trkpt lat="45.07122" lon="3.53052">
        <ele>531</ele>
        <time>2021-04-13T14:55:39Z</time>
      </trkpt>
      <trkpt lat="45.07131" lon="3.53033">
        <ele>531</ele>
        <time>2021-04-13T14:55:43Z</time>
      </trkpt>
      <trkpt lat="45.07134" lon="3.53028">
        <ele>531</ele>
        <time>2021-04-13T14:55:44Z</time>
      </trkpt>
      <trkpt lat="45.07136" lon="3.53023">
        <ele>531</ele>
        <time>2021-04-13T14:55:45Z</time>
      </trkpt>
      <trkpt lat="45.07138" lon="3.53018">
        <ele>531</ele>
        <time>2021-04-13T14:55:46Z</time>
      </trkpt>
      <trkpt lat="45.0714" lon="3.53013">
        <ele>531</ele>
        <time>2021-04-13T14:55:47Z</time>
      </trkpt>
      <trkpt lat="45.07142" lon="3.53007">
        <ele>531</ele>
        <time>2021-04-13T14:55:48Z</time>
      </trkpt>
      <trkpt lat="45.07144" lon="3.53002">
        <ele>531</ele>
        <time>2021-04-13T14:55:49Z</time>
      </trkpt>
      <trkpt lat="45.07145" lon="3.52996">
        <ele>531</ele>
        <time>2021-04-13T14:55:50Z</time>
      </trkpt>
      <trkpt lat="45.07149" lon="3.52985">
        <ele>532</ele>
        <time>2021-04-13T14:55:52Z</time>
      </trkpt>
      <trkpt lat="45.07151" lon="3.5298">
        <ele>532</ele>
        <time>2021-04-13T14:55:53Z</time>
      </trkpt>
      <trkpt lat="45.07153" lon="3.52975">
        <ele>532</ele>
        <time>2021-04-13T14:55:54Z</time>
      </trkpt>
      <trkpt lat="45.07155" lon="3.5297">
        <ele>532</ele>
        <time>2021-04-13T14:55:55Z</time>
      </trkpt>
      <trkpt lat="45.07156" lon="3.52965">
        <ele>533</ele>
        <time>2021-04-13T14:55:56Z</time>
      </trkpt>
      <trkpt lat="45.07158" lon="3.5296">
        <ele>533</ele>
        <time>2021-04-13T14:55:57Z</time>
      </trkpt>
      <trkpt lat="45.07159" lon="3.52956">
        <ele>534</ele>
        <time>2021-04-13T14:55:58Z</time>
      </trkpt>
      <trkpt lat="45.0716" lon="3.52952">
        <ele>534</ele>
        <time>2021-04-13T14:55:59Z</time>
      </trkpt>
      <trkpt lat="45.07163" lon="3.52935">
        <ele>535</ele>
        <time>2021-04-13T14:56:03Z</time>
      </trkpt>
      <trkpt lat="45.07164" lon="3.52932">
        <ele>536</ele>
        <time>2021-04-13T14:56:04Z</time>
      </trkpt>
      <trkpt lat="45.07164" lon="3.52928">
        <ele>536</ele>
        <time>2021-04-13T14:56:05Z</time>
      </trkpt>
      <trkpt lat="45.07165" lon="3.52924">
        <ele>537</ele>
        <time>2021-04-13T14:56:06Z</time>
      </trkpt>
      <trkpt lat="45.07166" lon="3.52919">
        <ele>537</ele>
        <time>2021-04-13T14:56:07Z</time>
      </trkpt>
      <trkpt lat="45.07167" lon="3.52915">
        <ele>538</ele>
        <time>2021-04-13T14:56:08Z</time>
      </trkpt>
      <trkpt lat="45.07169" lon="3.52907">
        <ele>539</ele>
        <time>2021-04-13T14:56:10Z</time>
      </trkpt>
      <trkpt lat="45.07171" lon="3.52903">
        <ele>539</ele>
        <time>2021-04-13T14:56:11Z</time>
      </trkpt>
      <trkpt lat="45.07175" lon="3.52892">
        <ele>541</ele>
        <time>2021-04-13T14:56:14Z</time>
      </trkpt>
      <trkpt lat="45.07177" lon="3.52889">
        <ele>542</ele>
        <time>2021-04-13T14:56:15Z</time>
      </trkpt>
      <trkpt lat="45.07179" lon="3.52885">
        <ele>543</ele>
        <time>2021-04-13T14:56:16Z</time>
      </trkpt>
      <trkpt lat="45.0718" lon="3.52882">
        <ele>543</ele>
        <time>2021-04-13T14:56:17Z</time>
      </trkpt>
      <trkpt lat="45.07182" lon="3.52878">
        <ele>544</ele>
        <time>2021-04-13T14:56:18Z</time>
      </trkpt>
      <trkpt lat="45.07183" lon="3.52874">
        <ele>544</ele>
        <time>2021-04-13T14:56:19Z</time>
      </trkpt>
      <trkpt lat="45.07184" lon="3.52871">
        <ele>544</ele>
        <time>2021-04-13T14:56:20Z</time>
      </trkpt>
      <trkpt lat="45.07185" lon="3.52867">
        <ele>545</ele>
        <time>2021-04-13T14:56:21Z</time>
      </trkpt>
      <trkpt lat="45.07183" lon="3.52847">
        <ele>548</ele>
        <time>2021-04-13T14:56:26Z</time>
      </trkpt>
      <trkpt lat="45.07182" lon="3.52843">
        <ele>548</ele>
        <time>2021-04-13T14:56:27Z</time>
      </trkpt>
      <trkpt lat="45.07181" lon="3.5284">
        <ele>549</ele>
        <time>2021-04-13T14:56:28Z</time>
      </trkpt>
      <trkpt lat="45.07179" lon="3.52836">
        <ele>549</ele>
        <time>2021-04-13T14:56:29Z</time>
      </trkpt>
      <trkpt lat="45.07178" lon="3.52833">
        <ele>550</ele>
        <time>2021-04-13T14:56:30Z</time>
      </trkpt>
      <trkpt lat="45.07177" lon="3.5283">
        <ele>550</ele>
        <time>2021-04-13T14:56:31Z</time>
      </trkpt>
      <trkpt lat="45.07175" lon="3.52826">
        <ele>551</ele>
        <time>2021-04-13T14:56:32Z</time>
      </trkpt>
      <trkpt lat="45.07174" lon="3.52823">
        <ele>551</ele>
        <time>2021-04-13T14:56:33Z</time>
      </trkpt>
      <trkpt lat="45.07171" lon="3.52817">
        <ele>551</ele>
        <time>2021-04-13T14:56:35Z</time>
      </trkpt>
      <trkpt lat="45.0717" lon="3.52814">
        <ele>552</ele>
        <time>2021-04-13T14:56:36Z</time>
      </trkpt>
      <trkpt lat="45.07168" lon="3.5281">
        <ele>552</ele>
        <time>2021-04-13T14:56:37Z</time>
      </trkpt>
      <trkpt lat="45.07167" lon="3.52807">
        <ele>552</ele>
        <time>2021-04-13T14:56:38Z</time>
      </trkpt>
      <trkpt lat="45.07165" lon="3.52804">
        <ele>553</ele>
        <time>2021-04-13T14:56:39Z</time>
      </trkpt>
      <trkpt lat="45.07164" lon="3.52801">
        <ele>553</ele>
        <time>2021-04-13T14:56:40Z</time>
      </trkpt>
      <trkpt lat="45.07162" lon="3.52797">
        <ele>554</ele>
        <time>2021-04-13T14:56:41Z</time>
      </trkpt>
      <trkpt lat="45.0716" lon="3.52793">
        <ele>555</ele>
        <time>2021-04-13T14:56:42Z</time>
      </trkpt>
      <trkpt lat="45.07158" lon="3.52778">
        <ele>557</ele>
        <time>2021-04-13T14:56:46Z</time>
      </trkpt>
      <trkpt lat="45.07159" lon="3.52765">
        <ele>559</ele>
        <time>2021-04-13T14:56:50Z</time>
      </trkpt>
      <trkpt lat="45.0716" lon="3.52762">
        <ele>560</ele>
        <time>2021-04-13T14:56:51Z</time>
      </trkpt>
      <trkpt lat="45.07162" lon="3.52757">
        <ele>560</ele>
        <time>2021-04-13T14:56:52Z</time>
      </trkpt>
      <trkpt lat="45.07164" lon="3.52753">
        <ele>561</ele>
        <time>2021-04-13T14:56:53Z</time>
      </trkpt>
      <trkpt lat="45.07166" lon="3.52748">
        <ele>562</ele>
        <time>2021-04-13T14:56:54Z</time>
      </trkpt>
      <trkpt lat="45.07168" lon="3.52739">
        <ele>563</ele>
        <time>2021-04-13T14:56:56Z</time>
      </trkpt>
      <trkpt lat="45.07169" lon="3.52734">
        <ele>563</ele>
        <time>2021-04-13T14:56:57Z</time>
      </trkpt>
      <trkpt lat="45.07172" lon="3.52711">
        <ele>567</ele>
        <time>2021-04-13T14:57:01Z</time>
      </trkpt>
      <trkpt lat="45.07173" lon="3.52705">
        <ele>568</ele>
        <time>2021-04-13T14:57:02Z</time>
      </trkpt>
      <trkpt lat="45.07176" lon="3.5269">
        <ele>571</ele>
        <time>2021-04-13T14:57:05Z</time>
      </trkpt>
      <trkpt lat="45.07179" lon="3.52675">
        <ele>573</ele>
        <time>2021-04-13T14:57:08Z</time>
      </trkpt>
      <trkpt lat="45.07183" lon="3.52658">
        <ele>575</ele>
        <time>2021-04-13T14:57:11Z</time>
      </trkpt>
      <trkpt lat="45.07187" lon="3.52641">
        <ele>577</ele>
        <time>2021-04-13T14:57:14Z</time>
      </trkpt>
      <trkpt lat="45.07188" lon="3.52637">
        <ele>577</ele>
        <time>2021-04-13T14:57:15Z</time>
      </trkpt>
      <trkpt lat="45.07191" lon="3.52623">
        <ele>579</ele>
        <time>2021-04-13T14:57:18Z</time>
      </trkpt>
      <trkpt lat="45.07192" lon="3.52601">
        <ele>582</ele>
        <time>2021-04-13T14:57:23Z</time>
      </trkpt>
      <trkpt lat="45.07191" lon="3.52591">
        <ele>583</ele>
        <time>2021-04-13T14:57:25Z</time>
      </trkpt>
      <trkpt lat="45.07191" lon="3.52578">
        <ele>585</ele>
        <time>2021-04-13T14:57:28Z</time>
      </trkpt>
      <trkpt lat="45.07193" lon="3.52574">
        <ele>586</ele>
        <time>2021-04-13T14:57:29Z</time>
      </trkpt>
      <trkpt lat="45.07194" lon="3.52569">
        <ele>586</ele>
        <time>2021-04-13T14:57:30Z</time>
      </trkpt>
      <trkpt lat="45.07196" lon="3.52565">
        <ele>587</ele>
        <time>2021-04-13T14:57:31Z</time>
      </trkpt>
      <trkpt lat="45.07199" lon="3.52561">
        <ele>587</ele>
        <time>2021-04-13T14:57:32Z</time>
      </trkpt>
      <trkpt lat="45.07201" lon="3.52558">
        <ele>587</ele>
        <time>2021-04-13T14:57:33Z</time>
      </trkpt>
      <trkpt lat="45.07209" lon="3.52553">
        <ele>588</ele>
        <time>2021-04-13T14:57:35Z</time>
      </trkpt>
      <trkpt lat="45.07212" lon="3.52551">
        <ele>588</ele>
        <time>2021-04-13T14:57:36Z</time>
      </trkpt>
      <trkpt lat="45.07216" lon="3.52549">
        <ele>588</ele>
        <time>2021-04-13T14:57:37Z</time>
      </trkpt>
      <trkpt lat="45.07219" lon="3.52548">
        <ele>589</ele>
        <time>2021-04-13T14:57:38Z</time>
      </trkpt>
      <trkpt lat="45.07223" lon="3.52546">
        <ele>589</ele>
        <time>2021-04-13T14:57:39Z</time>
      </trkpt>
      <trkpt lat="45.07226" lon="3.52545">
        <ele>590</ele>
        <time>2021-04-13T14:57:40Z</time>
      </trkpt>
      <trkpt lat="45.0723" lon="3.52545">
        <ele>590</ele>
        <time>2021-04-13T14:57:41Z</time>
      </trkpt>
      <trkpt lat="45.07234" lon="3.52545">
        <ele>591</ele>
        <time>2021-04-13T14:57:42Z</time>
      </trkpt>
      <trkpt lat="45.0725" lon="3.52545">
        <ele>593</ele>
        <time>2021-04-13T14:57:46Z</time>
      </trkpt>
      <trkpt lat="45.07255" lon="3.52545">
        <ele>593</ele>
        <time>2021-04-13T14:57:47Z</time>
      </trkpt>
      <trkpt lat="45.07259" lon="3.52545">
        <ele>593</ele>
        <time>2021-04-13T14:57:48Z</time>
      </trkpt>
      <trkpt lat="45.07264" lon="3.52544">
        <ele>594</ele>
        <time>2021-04-13T14:57:49Z</time>
      </trkpt>
      <trkpt lat="45.07268" lon="3.52544">
        <ele>594</ele>
        <time>2021-04-13T14:57:50Z</time>
      </trkpt>
      <trkpt lat="45.07273" lon="3.52544">
        <ele>594</ele>
        <time>2021-04-13T14:57:51Z</time>
      </trkpt>
      <trkpt lat="45.0727" lon="3.52544">
        <ele>595</ele>
        <time>2021-04-13T14:57:52Z</time>
      </trkpt>
      <trkpt lat="45.07273" lon="3.52544">
        <ele>595</ele>
        <time>2021-04-13T14:57:53Z</time>
      </trkpt>
      <trkpt lat="45.07282" lon="3.5254">
        <ele>595</ele>
        <time>2021-04-13T14:57:55Z</time>
      </trkpt>
      <trkpt lat="45.07287" lon="3.52539">
        <ele>596</ele>
        <time>2021-04-13T14:57:56Z</time>
      </trkpt>
      <trkpt lat="45.07292" lon="3.52536">
        <ele>596</ele>
        <time>2021-04-13T14:57:57Z</time>
      </trkpt>
      <trkpt lat="45.07297" lon="3.52533">
        <ele>596</ele>
        <time>2021-04-13T14:57:58Z</time>
      </trkpt>
      <trkpt lat="45.07301" lon="3.52531">
        <ele>597</ele>
        <time>2021-04-13T14:57:59Z</time>
      </trkpt>
      <trkpt lat="45.07305" lon="3.52528">
        <ele>597</ele>
        <time>2021-04-13T14:58:00Z</time>
      </trkpt>
      <trkpt lat="45.0731" lon="3.52526">
        <ele>597</ele>
        <time>2021-04-13T14:58:01Z</time>
      </trkpt>
      <trkpt lat="45.07313" lon="3.52523">
        <ele>597</ele>
        <time>2021-04-13T14:58:02Z</time>
      </trkpt>
      <trkpt lat="45.07326" lon="3.5251">
        <ele>599</ele>
        <time>2021-04-13T14:58:06Z</time>
      </trkpt>
      <trkpt lat="45.07329" lon="3.52507">
        <ele>599</ele>
        <time>2021-04-13T14:58:07Z</time>
      </trkpt>
      <trkpt lat="45.07332" lon="3.52503">
        <ele>599</ele>
        <time>2021-04-13T14:58:08Z</time>
      </trkpt>
      <trkpt lat="45.07335" lon="3.525">
        <ele>600</ele>
        <time>2021-04-13T14:58:09Z</time>
      </trkpt>
      <trkpt lat="45.07339" lon="3.52496">
        <ele>600</ele>
        <time>2021-04-13T14:58:10Z</time>
      </trkpt>
      <trkpt lat="45.07342" lon="3.52492">
        <ele>601</ele>
        <time>2021-04-13T14:58:11Z</time>
      </trkpt>
      <trkpt lat="45.07346" lon="3.52489">
        <ele>601</ele>
        <time>2021-04-13T14:58:12Z</time>
      </trkpt>
      <trkpt lat="45.0735" lon="3.52485">
        <ele>601</ele>
        <time>2021-04-13T14:58:13Z</time>
      </trkpt>
      <trkpt lat="45.07358" lon="3.52478">
        <ele>602</ele>
        <time>2021-04-13T14:58:15Z</time>
      </trkpt>
      <trkpt lat="45.07363" lon="3.52475">
        <ele>602</ele>
        <time>2021-04-13T14:58:16Z</time>
      </trkpt>
      <trkpt lat="45.07367" lon="3.52472">
        <ele>603</ele>
        <time>2021-04-13T14:58:17Z</time>
      </trkpt>
      <trkpt lat="45.07371" lon="3.52469">
        <ele>603</ele>
        <time>2021-04-13T14:58:18Z</time>
      </trkpt>
      <trkpt lat="45.07376" lon="3.52466">
        <ele>603</ele>
        <time>2021-04-13T14:58:19Z</time>
      </trkpt>
      <trkpt lat="45.0738" lon="3.52463">
        <ele>603</ele>
        <time>2021-04-13T14:58:20Z</time>
      </trkpt>
      <trkpt lat="45.07385" lon="3.5246">
        <ele>604</ele>
        <time>2021-04-13T14:58:21Z</time>
      </trkpt>
      <trkpt lat="45.0739" lon="3.52457">
        <ele>604</ele>
        <time>2021-04-13T14:58:22Z</time>
      </trkpt>
      <trkpt lat="45.07406" lon="3.52445">
        <ele>606</ele>
        <time>2021-04-13T14:58:26Z</time>
      </trkpt>
      <trkpt lat="45.07409" lon="3.52443">
        <ele>607</ele>
        <time>2021-04-13T14:58:27Z</time>
      </trkpt>
      <trkpt lat="45.07413" lon="3.52441">
        <ele>607</ele>
        <time>2021-04-13T14:58:28Z</time>
      </trkpt>
      <trkpt lat="45.07416" lon="3.52438">
        <ele>607</ele>
        <time>2021-04-13T14:58:29Z</time>
      </trkpt>
      <trkpt lat="45.0742" lon="3.52435">
        <ele>608</ele>
        <time>2021-04-13T14:58:30Z</time>
      </trkpt>
      <trkpt lat="45.07423" lon="3.52433">
        <ele>608</ele>
        <time>2021-04-13T14:58:31Z</time>
      </trkpt>
      <trkpt lat="45.07427" lon="3.5243">
        <ele>609</ele>
        <time>2021-04-13T14:58:32Z</time>
      </trkpt>
      <trkpt lat="45.07431" lon="3.52427">
        <ele>610</ele>
        <time>2021-04-13T14:58:33Z</time>
      </trkpt>
      <trkpt lat="45.07438" lon="3.52422">
        <ele>611</ele>
        <time>2021-04-13T14:58:35Z</time>
      </trkpt>
      <trkpt lat="45.07442" lon="3.5242">
        <ele>612</ele>
        <time>2021-04-13T14:58:36Z</time>
      </trkpt>
      <trkpt lat="45.07445" lon="3.52417">
        <ele>613</ele>
        <time>2021-04-13T14:58:37Z</time>
      </trkpt>
      <trkpt lat="45.07448" lon="3.52414">
        <ele>613</ele>
        <time>2021-04-13T14:58:38Z</time>
      </trkpt>
      <trkpt lat="45.07451" lon="3.5241">
        <ele>614</ele>
        <time>2021-04-13T14:58:39Z</time>
      </trkpt>
      <trkpt lat="45.07453" lon="3.52407">
        <ele>614</ele>
        <time>2021-04-13T14:58:40Z</time>
      </trkpt>
      <trkpt lat="45.07454" lon="3.52404">
        <ele>615</ele>
        <time>2021-04-13T14:58:41Z</time>
      </trkpt>
      <trkpt lat="45.07456" lon="3.52402">
        <ele>615</ele>
        <time>2021-04-13T14:58:42Z</time>
      </trkpt>
      <trkpt lat="45.07462" lon="3.52388">
        <ele>618</ele>
        <time>2021-04-13T14:58:46Z</time>
      </trkpt>
      <trkpt lat="45.07463" lon="3.52383">
        <ele>619</ele>
        <time>2021-04-13T14:58:47Z</time>
      </trkpt>
      <trkpt lat="45.07464" lon="3.52379">
        <ele>620</ele>
        <time>2021-04-13T14:58:48Z</time>
      </trkpt>
      <trkpt lat="45.07465" lon="3.52374">
        <ele>621</ele>
        <time>2021-04-13T14:58:49Z</time>
      </trkpt>
      <trkpt lat="45.07465" lon="3.52368">
        <ele>621</ele>
        <time>2021-04-13T14:58:50Z</time>
      </trkpt>
      <trkpt lat="45.07466" lon="3.52362">
        <ele>622</ele>
        <time>2021-04-13T14:58:51Z</time>
      </trkpt>
      <trkpt lat="45.07466" lon="3.52357">
        <ele>622</ele>
        <time>2021-04-13T14:58:52Z</time>
      </trkpt>
      <trkpt lat="45.07465" lon="3.52351">
        <ele>623</ele>
        <time>2021-04-13T14:58:53Z</time>
      </trkpt>
      <trkpt lat="45.07465" lon="3.52339">
        <ele>624</ele>
        <time>2021-04-13T14:58:55Z</time>
      </trkpt>
      <trkpt lat="45.07464" lon="3.52332">
        <ele>624</ele>
        <time>2021-04-13T14:58:56Z</time>
      </trkpt>
      <trkpt lat="45.07464" lon="3.52326">
        <ele>625</ele>
        <time>2021-04-13T14:58:57Z</time>
      </trkpt>
      <trkpt lat="45.07464" lon="3.5232">
        <ele>625</ele>
        <time>2021-04-13T14:58:58Z</time>
      </trkpt>
      <trkpt lat="45.07463" lon="3.52313">
        <ele>625</ele>
        <time>2021-04-13T14:58:59Z</time>
      </trkpt>
      <trkpt lat="45.07463" lon="3.523">
        <ele>625</ele>
        <time>2021-04-13T14:59:01Z</time>
      </trkpt>
      <trkpt lat="45.07462" lon="3.52293">
        <ele>625</ele>
        <time>2021-04-13T14:59:02Z</time>
      </trkpt>
      <trkpt lat="45.07461" lon="3.52286">
        <ele>625</ele>
        <time>2021-04-13T14:59:03Z</time>
      </trkpt>
      <trkpt lat="45.0746" lon="3.5225">
        <ele>624</ele>
        <time>2021-04-13T14:59:07Z</time>
      </trkpt>
      <trkpt lat="45.07459" lon="3.52239">
        <ele>623</ele>
        <time>2021-04-13T14:59:08Z</time>
      </trkpt>
      <trkpt lat="45.07459" lon="3.52227">
        <ele>623</ele>
        <time>2021-04-13T14:59:09Z</time>
      </trkpt>
      <trkpt lat="45.07458" lon="3.52214">
        <ele>622</ele>
        <time>2021-04-13T14:59:10Z</time>
      </trkpt>
      <trkpt lat="45.07458" lon="3.522">
        <ele>621</ele>
        <time>2021-04-13T14:59:11Z</time>
      </trkpt>
      <trkpt lat="45.07456" lon="3.52186">
        <ele>620</ele>
        <time>2021-04-13T14:59:12Z</time>
      </trkpt>
      <trkpt lat="45.07454" lon="3.52172">
        <ele>619</ele>
        <time>2021-04-13T14:59:13Z</time>
      </trkpt>
      <trkpt lat="45.07451" lon="3.52157">
        <ele>618</ele>
        <time>2021-04-13T14:59:14Z</time>
      </trkpt>
      <trkpt lat="45.07448" lon="3.52124">
        <ele>616</ele>
        <time>2021-04-13T14:59:16Z</time>
      </trkpt>
      <trkpt lat="45.07447" lon="3.52107">
        <ele>615</ele>
        <time>2021-04-13T14:59:17Z</time>
      </trkpt>
      <trkpt lat="45.07445" lon="3.52089">
        <ele>613</ele>
        <time>2021-04-13T14:59:18Z</time>
      </trkpt>
      <trkpt lat="45.07442" lon="3.52074">
        <ele>611</ele>
        <time>2021-04-13T14:59:19Z</time>
      </trkpt>
      <trkpt lat="45.07438" lon="3.52061">
        <ele>611</ele>
        <time>2021-04-13T14:59:20Z</time>
      </trkpt>
      <trkpt lat="45.07436" lon="3.5205">
        <ele>610</ele>
        <time>2021-04-13T14:59:21Z</time>
      </trkpt>
      <trkpt lat="45.07435" lon="3.52044">
        <ele>610</ele>
        <time>2021-04-13T14:59:22Z</time>
      </trkpt>
      <trkpt lat="45.07435" lon="3.52039">
        <ele>610</ele>
        <time>2021-04-13T14:59:23Z</time>
      </trkpt>
      <trkpt lat="45.07434" lon="3.52025">
        <ele>609</ele>
        <time>2021-04-13T14:59:27Z</time>
      </trkpt>
      <trkpt lat="45.07434" lon="3.52019">
        <ele>609</ele>
        <time>2021-04-13T14:59:28Z</time>
      </trkpt>
      <trkpt lat="45.07434" lon="3.52013">
        <ele>609</ele>
        <time>2021-04-13T14:59:29Z</time>
      </trkpt>
      <trkpt lat="45.07434" lon="3.52007">
        <ele>609</ele>
        <time>2021-04-13T14:59:30Z</time>
      </trkpt>
      <trkpt lat="45.07433" lon="3.52">
        <ele>609</ele>
        <time>2021-04-13T14:59:31Z</time>
      </trkpt>
      <trkpt lat="45.07432" lon="3.51994">
        <ele>609</ele>
        <time>2021-04-13T14:59:32Z</time>
      </trkpt>
      <trkpt lat="45.0743" lon="3.51987">
        <ele>609</ele>
        <time>2021-04-13T14:59:33Z</time>
      </trkpt>
      <trkpt lat="45.07429" lon="3.51977">
        <ele>609</ele>
        <time>2021-04-13T14:59:34Z</time>
      </trkpt>
      <trkpt lat="45.07425" lon="3.51959">
        <ele>608</ele>
        <time>2021-04-13T14:59:36Z</time>
      </trkpt>
      <trkpt lat="45.07422" lon="3.51951">
        <ele>608</ele>
        <time>2021-04-13T14:59:37Z</time>
      </trkpt>
      <trkpt lat="45.07419" lon="3.51942">
        <ele>607</ele>
        <time>2021-04-13T14:59:38Z</time>
      </trkpt>
      <trkpt lat="45.07415" lon="3.51934">
        <ele>607</ele>
        <time>2021-04-13T14:59:39Z</time>
      </trkpt>
      <trkpt lat="45.07413" lon="3.51927">
        <ele>606</ele>
        <time>2021-04-13T14:59:40Z</time>
      </trkpt>
      <trkpt lat="45.07415" lon="3.5192">
        <ele>606</ele>
        <time>2021-04-13T14:59:41Z</time>
      </trkpt>
      <trkpt lat="45.07418" lon="3.51914">
        <ele>605</ele>
        <time>2021-04-13T14:59:42Z</time>
      </trkpt>
      <trkpt lat="45.0742" lon="3.51909">
        <ele>605</ele>
        <time>2021-04-13T14:59:43Z</time>
      </trkpt>
      <trkpt lat="45.0743" lon="3.51858">
        <ele>603</ele>
        <time>2021-04-13T14:59:50Z</time>
      </trkpt>
      <trkpt lat="45.07431" lon="3.51848">
        <ele>603</ele>
        <time>2021-04-13T14:59:51Z</time>
      </trkpt>
      <trkpt lat="45.07431" lon="3.51839">
        <ele>602</ele>
        <time>2021-04-13T14:59:52Z</time>
      </trkpt>
      <trkpt lat="45.07433" lon="3.5183">
        <ele>602</ele>
        <time>2021-04-13T14:59:53Z</time>
      </trkpt>
      <trkpt lat="45.07434" lon="3.51822">
        <ele>602</ele>
        <time>2021-04-13T14:59:54Z</time>
      </trkpt>
      <trkpt lat="45.07435" lon="3.51814">
        <ele>602</ele>
        <time>2021-04-13T14:59:55Z</time>
      </trkpt>
      <trkpt lat="45.07437" lon="3.51806">
        <ele>602</ele>
        <time>2021-04-13T14:59:56Z</time>
      </trkpt>
      <trkpt lat="45.07438" lon="3.518">
        <ele>602</ele>
        <time>2021-04-13T14:59:57Z</time>
      </trkpt>
      <trkpt lat="45.07443" lon="3.51787">
        <ele>602</ele>
        <time>2021-04-13T14:59:59Z</time>
      </trkpt>
      <trkpt lat="45.07445" lon="3.5178">
        <ele>602</ele>
        <time>2021-04-13T15:00:00Z</time>
      </trkpt>
      <trkpt lat="45.07447" lon="3.51773">
        <ele>602</ele>
        <time>2021-04-13T15:00:01Z</time>
      </trkpt>
      <trkpt lat="45.07449" lon="3.51765">
        <ele>602</ele>
        <time>2021-04-13T15:00:02Z</time>
      </trkpt>
      <trkpt lat="45.0745" lon="3.51758">
        <ele>602</ele>
        <time>2021-04-13T15:00:03Z</time>
      </trkpt>
      <trkpt lat="45.07453" lon="3.5175">
        <ele>602</ele>
        <time>2021-04-13T15:00:04Z</time>
      </trkpt>
      <trkpt lat="45.07455" lon="3.51744">
        <ele>602</ele>
        <time>2021-04-13T15:00:05Z</time>
      </trkpt>
      <trkpt lat="45.07458" lon="3.51737">
        <ele>602</ele>
        <time>2021-04-13T15:00:06Z</time>
      </trkpt>
      <trkpt lat="45.07466" lon="3.51713">
        <ele>603</ele>
        <time>2021-04-13T15:00:10Z</time>
      </trkpt>
      <trkpt lat="45.07468" lon="3.51707">
        <ele>603</ele>
        <time>2021-04-13T15:00:11Z</time>
      </trkpt>
      <trkpt lat="45.07469" lon="3.51702">
        <ele>603</ele>
        <time>2021-04-13T15:00:12Z</time>
      </trkpt>
      <trkpt lat="45.07472" lon="3.51698">
        <ele>603</ele>
        <time>2021-04-13T15:00:13Z</time>
      </trkpt>
      <trkpt lat="45.07475" lon="3.51694">
        <ele>604</ele>
        <time>2021-04-13T15:00:14Z</time>
      </trkpt>
      <trkpt lat="45.07478" lon="3.5169">
        <ele>604</ele>
        <time>2021-04-13T15:00:15Z</time>
      </trkpt>
      <trkpt lat="45.07482" lon="3.51686">
        <ele>604</ele>
        <time>2021-04-13T15:00:16Z</time>
      </trkpt>
      <trkpt lat="45.07486" lon="3.51683">
        <ele>605</ele>
        <time>2021-04-13T15:00:17Z</time>
      </trkpt>
      <trkpt lat="45.07492" lon="3.51679">
        <ele>605</ele>
        <time>2021-04-13T15:00:19Z</time>
      </trkpt>
      <trkpt lat="45.07495" lon="3.51677">
        <ele>606</ele>
        <time>2021-04-13T15:00:20Z</time>
      </trkpt>
      <trkpt lat="45.07497" lon="3.51676">
        <ele>606</ele>
        <time>2021-04-13T15:00:21Z</time>
      </trkpt>
      <trkpt lat="45.075" lon="3.51675">
        <ele>606</ele>
        <time>2021-04-13T15:00:22Z</time>
      </trkpt>
      <trkpt lat="45.07502" lon="3.51674">
        <ele>606</ele>
        <time>2021-04-13T15:00:23Z</time>
      </trkpt>
      <trkpt lat="45.07505" lon="3.51672">
        <ele>606</ele>
        <time>2021-04-13T15:00:24Z</time>
      </trkpt>
      <trkpt lat="45.07508" lon="3.51671">
        <ele>606</ele>
        <time>2021-04-13T15:00:25Z</time>
      </trkpt>
      <trkpt lat="45.07511" lon="3.5167">
        <ele>606</ele>
        <time>2021-04-13T15:00:26Z</time>
      </trkpt>
      <trkpt lat="45.07529" lon="3.51668">
        <ele>606</ele>
        <time>2021-04-13T15:00:30Z</time>
      </trkpt>
      <trkpt lat="45.07535" lon="3.51668">
        <ele>605</ele>
        <time>2021-04-13T15:00:31Z</time>
      </trkpt>
      <trkpt lat="45.07541" lon="3.51667">
        <ele>605</ele>
        <time>2021-04-13T15:00:32Z</time>
      </trkpt>
      <trkpt lat="45.07548" lon="3.51666">
        <ele>605</ele>
        <time>2021-04-13T15:00:33Z</time>
      </trkpt>
      <trkpt lat="45.07555" lon="3.51664">
        <ele>604</ele>
        <time>2021-04-13T15:00:34Z</time>
      </trkpt>
      <trkpt lat="45.07561" lon="3.51661">
        <ele>604</ele>
        <time>2021-04-13T15:00:35Z</time>
      </trkpt>
      <trkpt lat="45.07568" lon="3.51658">
        <ele>603</ele>
        <time>2021-04-13T15:00:36Z</time>
      </trkpt>
      <trkpt lat="45.07574" lon="3.51653">
        <ele>603</ele>
        <time>2021-04-13T15:00:37Z</time>
      </trkpt>
      <trkpt lat="45.07586" lon="3.51641">
        <ele>602</ele>
        <time>2021-04-13T15:00:39Z</time>
      </trkpt>
      <trkpt lat="45.07591" lon="3.51635">
        <ele>602</ele>
        <time>2021-04-13T15:00:40Z</time>
      </trkpt>
      <trkpt lat="45.07597" lon="3.51628">
        <ele>601</ele>
        <time>2021-04-13T15:00:41Z</time>
      </trkpt>
      <trkpt lat="45.07602" lon="3.51621">
        <ele>601</ele>
        <time>2021-04-13T15:00:42Z</time>
      </trkpt>
      <trkpt lat="45.07606" lon="3.51614">
        <ele>601</ele>
        <time>2021-04-13T15:00:43Z</time>
      </trkpt>
      <trkpt lat="45.07611" lon="3.51607">
        <ele>600</ele>
        <time>2021-04-13T15:00:44Z</time>
      </trkpt>
      <trkpt lat="45.07616" lon="3.516">
        <ele>600</ele>
        <time>2021-04-13T15:00:45Z</time>
      </trkpt>
      <trkpt lat="45.0762" lon="3.51593">
        <ele>600</ele>
        <time>2021-04-13T15:00:46Z</time>
      </trkpt>
      <trkpt lat="45.07641" lon="3.51571">
        <ele>599</ele>
        <time>2021-04-13T15:00:50Z</time>
      </trkpt>
      <trkpt lat="45.07646" lon="3.51566">
        <ele>599</ele>
        <time>2021-04-13T15:00:51Z</time>
      </trkpt>
      <trkpt lat="45.07651" lon="3.51561">
        <ele>599</ele>
        <time>2021-04-13T15:00:52Z</time>
      </trkpt>
      <trkpt lat="45.07656" lon="3.51557">
        <ele>599</ele>
        <time>2021-04-13T15:00:53Z</time>
      </trkpt>
      <trkpt lat="45.07661" lon="3.51553">
        <ele>599</ele>
        <time>2021-04-13T15:00:54Z</time>
      </trkpt>
      <trkpt lat="45.07667" lon="3.51548">
        <ele>599</ele>
        <time>2021-04-13T15:00:55Z</time>
      </trkpt>
      <trkpt lat="45.07672" lon="3.51544">
        <ele>598</ele>
        <time>2021-04-13T15:00:56Z</time>
      </trkpt>
      <trkpt lat="45.07677" lon="3.5154">
        <ele>598</ele>
        <time>2021-04-13T15:00:57Z</time>
      </trkpt>
      <trkpt lat="45.07687" lon="3.51532">
        <ele>598</ele>
        <time>2021-04-13T15:00:59Z</time>
      </trkpt>
      <trkpt lat="45.07692" lon="3.51529">
        <ele>598</ele>
        <time>2021-04-13T15:01:00Z</time>
      </trkpt>
      <trkpt lat="45.07698" lon="3.51527">
        <ele>598</ele>
        <time>2021-04-13T15:01:01Z</time>
      </trkpt>
      <trkpt lat="45.07703" lon="3.51525">
        <ele>597</ele>
        <time>2021-04-13T15:01:02Z</time>
      </trkpt>
      <trkpt lat="45.07708" lon="3.51523">
        <ele>597</ele>
        <time>2021-04-13T15:01:03Z</time>
      </trkpt>
      <trkpt lat="45.07712" lon="3.51522">
        <ele>597</ele>
        <time>2021-04-13T15:01:04Z</time>
      </trkpt>
      <trkpt lat="45.07717" lon="3.5152">
        <ele>597</ele>
        <time>2021-04-13T15:01:05Z</time>
      </trkpt>
      <trkpt lat="45.07721" lon="3.51519">
        <ele>597</ele>
        <time>2021-04-13T15:01:06Z</time>
      </trkpt>
      <trkpt lat="45.07734" lon="3.51501">
        <ele>597</ele>
        <time>2021-04-13T15:01:10Z</time>
      </trkpt>
      <trkpt lat="45.07736" lon="3.51494">
        <ele>597</ele>
        <time>2021-04-13T15:01:11Z</time>
      </trkpt>
      <trkpt lat="45.07737" lon="3.51487">
        <ele>596</ele>
        <time>2021-04-13T15:01:12Z</time>
      </trkpt>
      <trkpt lat="45.07739" lon="3.5148">
        <ele>596</ele>
        <time>2021-04-13T15:01:13Z</time>
      </trkpt>
      <trkpt lat="45.0774" lon="3.51473">
        <ele>596</ele>
        <time>2021-04-13T15:01:14Z</time>
      </trkpt>
      <trkpt lat="45.07742" lon="3.51465">
        <ele>596</ele>
        <time>2021-04-13T15:01:15Z</time>
      </trkpt>
      <trkpt lat="45.07743" lon="3.51458">
        <ele>596</ele>
        <time>2021-04-13T15:01:16Z</time>
      </trkpt>
      <trkpt lat="45.07745" lon="3.5145">
        <ele>595</ele>
        <time>2021-04-13T15:01:17Z</time>
      </trkpt>
      <trkpt lat="45.0775" lon="3.51427">
        <ele>595</ele>
        <time>2021-04-13T15:01:20Z</time>
      </trkpt>
      <trkpt lat="45.07752" lon="3.5142">
        <ele>594</ele>
        <time>2021-04-13T15:01:21Z</time>
      </trkpt>
      <trkpt lat="45.07754" lon="3.51412">
        <ele>594</ele>
        <time>2021-04-13T15:01:22Z</time>
      </trkpt>
      <trkpt lat="45.07756" lon="3.51404">
        <ele>594</ele>
        <time>2021-04-13T15:01:23Z</time>
      </trkpt>
      <trkpt lat="45.07757" lon="3.51396">
        <ele>593</ele>
        <time>2021-04-13T15:01:24Z</time>
      </trkpt>
      <trkpt lat="45.07757" lon="3.51387">
        <ele>593</ele>
        <time>2021-04-13T15:01:25Z</time>
      </trkpt>
      <trkpt lat="45.07755" lon="3.51378">
        <ele>592</ele>
        <time>2021-04-13T15:01:26Z</time>
      </trkpt>
      <trkpt lat="45.0775" lon="3.5137">
        <ele>592</ele>
        <time>2021-04-13T15:01:27Z</time>
      </trkpt>
      <trkpt lat="45.07724" lon="3.51337">
        <ele>589</ele>
        <time>2021-04-13T15:01:31Z</time>
      </trkpt>
      <trkpt lat="45.07719" lon="3.51325">
        <ele>589</ele>
        <time>2021-04-13T15:01:32Z</time>
      </trkpt>
      <trkpt lat="45.07715" lon="3.51314">
        <ele>588</ele>
        <time>2021-04-13T15:01:33Z</time>
      </trkpt>
      <trkpt lat="45.07711" lon="3.51302">
        <ele>588</ele>
        <time>2021-04-13T15:01:34Z</time>
      </trkpt>
      <trkpt lat="45.07708" lon="3.51291">
        <ele>588</ele>
        <time>2021-04-13T15:01:35Z</time>
      </trkpt>
      <trkpt lat="45.07705" lon="3.51279">
        <ele>587</ele>
        <time>2021-04-13T15:01:36Z</time>
      </trkpt>
      <trkpt lat="45.07702" lon="3.51267">
        <ele>587</ele>
        <time>2021-04-13T15:01:37Z</time>
      </trkpt>
      <trkpt lat="45.077" lon="3.51255">
        <ele>586</ele>
        <time>2021-04-13T15:01:38Z</time>
      </trkpt>
      <trkpt lat="45.07699" lon="3.5123">
        <ele>586</ele>
        <time>2021-04-13T15:01:40Z</time>
      </trkpt>
      <trkpt lat="45.07699" lon="3.51217">
        <ele>585</ele>
        <time>2021-04-13T15:01:41Z</time>
      </trkpt>
      <trkpt lat="45.077" lon="3.51204">
        <ele>584</ele>
        <time>2021-04-13T15:01:42Z</time>
      </trkpt>
      <trkpt lat="45.07703" lon="3.51192">
        <ele>583</ele>
        <time>2021-04-13T15:01:43Z</time>
      </trkpt>
      <trkpt lat="45.07709" lon="3.51181">
        <ele>582</ele>
        <time>2021-04-13T15:01:44Z</time>
      </trkpt>
      <trkpt lat="45.07715" lon="3.51172">
        <ele>581</ele>
        <time>2021-04-13T15:01:45Z</time>
      </trkpt>
      <trkpt lat="45.07721" lon="3.51163">
        <ele>580</ele>
        <time>2021-04-13T15:01:46Z</time>
      </trkpt>
      <trkpt lat="45.07727" lon="3.51154">
        <ele>579</ele>
        <time>2021-04-13T15:01:47Z</time>
      </trkpt>
      <trkpt lat="45.07727" lon="3.51108">
        <ele>576</ele>
        <time>2021-04-13T15:01:51Z</time>
      </trkpt>
      <trkpt lat="45.07723" lon="3.51097">
        <ele>575</ele>
        <time>2021-04-13T15:01:52Z</time>
      </trkpt>
      <trkpt lat="45.0772" lon="3.51087">
        <ele>575</ele>
        <time>2021-04-13T15:01:53Z</time>
      </trkpt>
      <trkpt lat="45.07716" lon="3.51076">
        <ele>574</ele>
        <time>2021-04-13T15:01:54Z</time>
      </trkpt>
      <trkpt lat="45.07713" lon="3.51066">
        <ele>574</ele>
        <time>2021-04-13T15:01:55Z</time>
      </trkpt>
      <trkpt lat="45.07709" lon="3.51056">
        <ele>573</ele>
        <time>2021-04-13T15:01:56Z</time>
      </trkpt>
      <trkpt lat="45.07706" lon="3.51046">
        <ele>573</ele>
        <time>2021-04-13T15:01:57Z</time>
      </trkpt>
      <trkpt lat="45.07704" lon="3.51036">
        <ele>573</ele>
        <time>2021-04-13T15:01:58Z</time>
      </trkpt>
      <trkpt lat="45.07698" lon="3.51015">
        <ele>572</ele>
        <time>2021-04-13T15:02:00Z</time>
      </trkpt>
      <trkpt lat="45.07696" lon="3.51005">
        <ele>572</ele>
        <time>2021-04-13T15:02:01Z</time>
      </trkpt>
      <trkpt lat="45.07694" lon="3.50995">
        <ele>572</ele>
        <time>2021-04-13T15:02:02Z</time>
      </trkpt>
      <trkpt lat="45.07692" lon="3.50986">
        <ele>571</ele>
        <time>2021-04-13T15:02:03Z</time>
      </trkpt>
      <trkpt lat="45.07691" lon="3.50976">
        <ele>571</ele>
        <time>2021-04-13T15:02:04Z</time>
      </trkpt>
      <trkpt lat="45.07689" lon="3.50967">
        <ele>571</ele>
        <time>2021-04-13T15:02:05Z</time>
      </trkpt>
      <trkpt lat="45.07688" lon="3.50958">
        <ele>571</ele>
        <time>2021-04-13T15:02:06Z</time>
      </trkpt>
      <trkpt lat="45.07687" lon="3.50949">
        <ele>571</ele>
        <time>2021-04-13T15:02:07Z</time>
      </trkpt>
      <trkpt lat="45.07676" lon="3.5092">
        <ele>571</ele>
        <time>2021-04-13T15:02:11Z</time>
      </trkpt>
      <trkpt lat="45.07672" lon="3.50914">
        <ele>571</ele>
        <time>2021-04-13T15:02:12Z</time>
      </trkpt>
      <trkpt lat="45.07667" lon="3.5091">
        <ele>570</ele>
        <time>2021-04-13T15:02:13Z</time>
      </trkpt>
      <trkpt lat="45.07663" lon="3.50906">
        <ele>570</ele>
        <time>2021-04-13T15:02:14Z</time>
      </trkpt>
      <trkpt lat="45.07659" lon="3.50902">
        <ele>570</ele>
        <time>2021-04-13T15:02:15Z</time>
      </trkpt>
      <trkpt lat="45.07657" lon="3.50897">
        <ele>570</ele>
        <time>2021-04-13T15:02:16Z</time>
      </trkpt>
      <trkpt lat="45.07656" lon="3.50892">
        <ele>570</ele>
        <time>2021-04-13T15:02:17Z</time>
      </trkpt>
      <trkpt lat="45.07657" lon="3.50885">
        <ele>570</ele>
        <time>2021-04-13T15:02:18Z</time>
      </trkpt>
      <trkpt lat="45.07663" lon="3.50872">
        <ele>569</ele>
        <time>2021-04-13T15:02:20Z</time>
      </trkpt>
      <trkpt lat="45.07666" lon="3.50865">
        <ele>569</ele>
        <time>2021-04-13T15:02:21Z</time>
      </trkpt>
      <trkpt lat="45.0767" lon="3.50857">
        <ele>568</ele>
        <time>2021-04-13T15:02:22Z</time>
      </trkpt>
      <trkpt lat="45.07673" lon="3.50849">
        <ele>568</ele>
        <time>2021-04-13T15:02:23Z</time>
      </trkpt>
      <trkpt lat="45.07676" lon="3.5084">
        <ele>567</ele>
        <time>2021-04-13T15:02:24Z</time>
      </trkpt>
      <trkpt lat="45.07678" lon="3.5083">
        <ele>567</ele>
        <time>2021-04-13T15:02:25Z</time>
      </trkpt>
      <trkpt lat="45.07679" lon="3.5082">
        <ele>566</ele>
        <time>2021-04-13T15:02:26Z</time>
      </trkpt>
      <trkpt lat="45.0768" lon="3.50809">
        <ele>566</ele>
        <time>2021-04-13T15:02:27Z</time>
      </trkpt>
      <trkpt lat="45.07684" lon="3.50764">
        <ele>564</ele>
        <time>2021-04-13T15:02:31Z</time>
      </trkpt>
      <trkpt lat="45.07685" lon="3.50753">
        <ele>563</ele>
        <time>2021-04-13T15:02:32Z</time>
      </trkpt>
      <trkpt lat="45.07684" lon="3.50742">
        <ele>563</ele>
        <time>2021-04-13T15:02:33Z</time>
      </trkpt>
      <trkpt lat="45.07684" lon="3.5073">
        <ele>563</ele>
        <time>2021-04-13T15:02:34Z</time>
      </trkpt>
      <trkpt lat="45.07683" lon="3.50718">
        <ele>562</ele>
        <time>2021-04-13T15:02:35Z</time>
      </trkpt>
      <trkpt lat="45.07683" lon="3.50707">
        <ele>562</ele>
        <time>2021-04-13T15:02:36Z</time>
      </trkpt>
      <trkpt lat="45.07683" lon="3.50695">
        <ele>562</ele>
        <time>2021-04-13T15:02:37Z</time>
      </trkpt>
      <trkpt lat="45.07685" lon="3.50684">
        <ele>561</ele>
        <time>2021-04-13T15:02:38Z</time>
      </trkpt>
      <trkpt lat="45.07691" lon="3.50663">
        <ele>561</ele>
        <time>2021-04-13T15:02:40Z</time>
      </trkpt>
      <trkpt lat="45.07694" lon="3.50653">
        <ele>560</ele>
        <time>2021-04-13T15:02:41Z</time>
      </trkpt>
      <trkpt lat="45.07697" lon="3.50643">
        <ele>560</ele>
        <time>2021-04-13T15:02:42Z</time>
      </trkpt>
      <trkpt lat="45.07701" lon="3.50633">
        <ele>560</ele>
        <time>2021-04-13T15:02:43Z</time>
      </trkpt>
      <trkpt lat="45.07704" lon="3.50624">
        <ele>559</ele>
        <time>2021-04-13T15:02:44Z</time>
      </trkpt>
      <trkpt lat="45.07708" lon="3.50614">
        <ele>558</ele>
        <time>2021-04-13T15:02:45Z</time>
      </trkpt>
      <trkpt lat="45.07711" lon="3.50605">
        <ele>558</ele>
        <time>2021-04-13T15:02:46Z</time>
      </trkpt>
      <trkpt lat="45.07715" lon="3.50597">
        <ele>557</ele>
        <time>2021-04-13T15:02:47Z</time>
      </trkpt>
      <trkpt lat="45.07733" lon="3.50567">
        <ele>555</ele>
        <time>2021-04-13T15:02:51Z</time>
      </trkpt>
      <trkpt lat="45.07739" lon="3.50561">
        <ele>555</ele>
        <time>2021-04-13T15:02:52Z</time>
      </trkpt>
      <trkpt lat="45.07745" lon="3.50558">
        <ele>554</ele>
        <time>2021-04-13T15:02:53Z</time>
      </trkpt>
      <trkpt lat="45.07752" lon="3.50555">
        <ele>554</ele>
        <time>2021-04-13T15:02:54Z</time>
      </trkpt>
      <trkpt lat="45.07759" lon="3.50553">
        <ele>554</ele>
        <time>2021-04-13T15:02:55Z</time>
      </trkpt>
      <trkpt lat="45.07766" lon="3.5055">
        <ele>553</ele>
        <time>2021-04-13T15:02:56Z</time>
      </trkpt>
      <trkpt lat="45.07772" lon="3.50548">
        <ele>553</ele>
        <time>2021-04-13T15:02:57Z</time>
      </trkpt>
      <trkpt lat="45.07778" lon="3.50544">
        <ele>553</ele>
        <time>2021-04-13T15:02:58Z</time>
      </trkpt>
      <trkpt lat="45.07789" lon="3.50535">
        <ele>553</ele>
        <time>2021-04-13T15:03:00Z</time>
      </trkpt>
      <trkpt lat="45.07794" lon="3.5053">
        <ele>553</ele>
        <time>2021-04-13T15:03:01Z</time>
      </trkpt>
      <trkpt lat="45.07798" lon="3.50524">
        <ele>552</ele>
        <time>2021-04-13T15:03:02Z</time>
      </trkpt>
      <trkpt lat="45.07801" lon="3.50519">
        <ele>552</ele>
        <time>2021-04-13T15:03:03Z</time>
      </trkpt>
      <trkpt lat="45.07805" lon="3.50513">
        <ele>552</ele>
        <time>2021-04-13T15:03:04Z</time>
      </trkpt>
      <trkpt lat="45.07809" lon="3.50507">
        <ele>552</ele>
        <time>2021-04-13T15:03:05Z</time>
      </trkpt>
      <trkpt lat="45.07813" lon="3.50501">
        <ele>552</ele>
        <time>2021-04-13T15:03:06Z</time>
      </trkpt>
      <trkpt lat="45.07817" lon="3.50496">
        <ele>552</ele>
        <time>2021-04-13T15:03:07Z</time>
      </trkpt>
      <trkpt lat="45.07835" lon="3.50475">
        <ele>552</ele>
        <time>2021-04-13T15:03:11Z</time>
      </trkpt>
      <trkpt lat="45.0784" lon="3.5047">
        <ele>552</ele>
        <time>2021-04-13T15:03:12Z</time>
      </trkpt>
      <trkpt lat="45.07845" lon="3.50466">
        <ele>552</ele>
        <time>2021-04-13T15:03:13Z</time>
      </trkpt>
      <trkpt lat="45.07849" lon="3.50461">
        <ele>552</ele>
        <time>2021-04-13T15:03:14Z</time>
      </trkpt>
      <trkpt lat="45.07854" lon="3.50457">
        <ele>552</ele>
        <time>2021-04-13T15:03:15Z</time>
      </trkpt>
      <trkpt lat="45.07859" lon="3.50452">
        <ele>552</ele>
        <time>2021-04-13T15:03:16Z</time>
      </trkpt>
      <trkpt lat="45.07863" lon="3.50446">
        <ele>552</ele>
        <time>2021-04-13T15:03:17Z</time>
      </trkpt>
      <trkpt lat="45.07867" lon="3.5044">
        <ele>552</ele>
        <time>2021-04-13T15:03:18Z</time>
      </trkpt>
      <trkpt lat="45.07874" lon="3.50428">
        <ele>552</ele>
        <time>2021-04-13T15:03:20Z</time>
      </trkpt>
      <trkpt lat="45.07877" lon="3.50422">
        <ele>552</ele>
        <time>2021-04-13T15:03:21Z</time>
      </trkpt>
      <trkpt lat="45.0788" lon="3.50416">
        <ele>552</ele>
        <time>2021-04-13T15:03:22Z</time>
      </trkpt>
      <trkpt lat="45.07883" lon="3.50411">
        <ele>552</ele>
        <time>2021-04-13T15:03:23Z</time>
      </trkpt>
      <trkpt lat="45.07886" lon="3.50405">
        <ele>552</ele>
        <time>2021-04-13T15:03:24Z</time>
      </trkpt>
      <trkpt lat="45.07889" lon="3.504">
        <ele>551</ele>
        <time>2021-04-13T15:03:25Z</time>
      </trkpt>
      <trkpt lat="45.07892" lon="3.50394">
        <ele>551</ele>
        <time>2021-04-13T15:03:26Z</time>
      </trkpt>
      <trkpt lat="45.07894" lon="3.50388">
        <ele>551</ele>
        <time>2021-04-13T15:03:27Z</time>
      </trkpt>
      <trkpt lat="45.07903" lon="3.50362">
        <ele>550</ele>
        <time>2021-04-13T15:03:31Z</time>
      </trkpt>
      <trkpt lat="45.07905" lon="3.50355">
        <ele>550</ele>
        <time>2021-04-13T15:03:32Z</time>
      </trkpt>
      <trkpt lat="45.07907" lon="3.50348">
        <ele>549</ele>
        <time>2021-04-13T15:03:33Z</time>
      </trkpt>
      <trkpt lat="45.07909" lon="3.50344">
        <ele>549</ele>
        <time>2021-04-13T15:03:34Z</time>
      </trkpt>
      <trkpt lat="45.07912" lon="3.50338">
        <ele>549</ele>
        <time>2021-04-13T15:03:36Z</time>
      </trkpt>
      <trkpt lat="45.07913" lon="3.50334">
        <ele>549</ele>
        <time>2021-04-13T15:03:38Z</time>
      </trkpt>
      <trkpt lat="45.07913" lon="3.5033">
        <ele>549</ele>
        <time>2021-04-13T15:03:40Z</time>
      </trkpt>
      <trkpt lat="45.07914" lon="3.50327">
        <ele>549</ele>
        <time>2021-04-13T15:03:41Z</time>
      </trkpt>
      <trkpt lat="45.07915" lon="3.50317">
        <ele>548</ele>
        <time>2021-04-13T15:03:43Z</time>
      </trkpt>
      <trkpt lat="45.07914" lon="3.5031">
        <ele>548</ele>
        <time>2021-04-13T15:03:44Z</time>
      </trkpt>
      <trkpt lat="45.07913" lon="3.50302">
        <ele>548</ele>
        <time>2021-04-13T15:03:45Z</time>
      </trkpt>
      <trkpt lat="45.07912" lon="3.50293">
        <ele>547</ele>
        <time>2021-04-13T15:03:46Z</time>
      </trkpt>
      <trkpt lat="45.07911" lon="3.50284">
        <ele>546</ele>
        <time>2021-04-13T15:03:47Z</time>
      </trkpt>
      <trkpt lat="45.0791" lon="3.50275">
        <ele>546</ele>
        <time>2021-04-13T15:03:48Z</time>
      </trkpt>
      <trkpt lat="45.07909" lon="3.50266">
        <ele>545</ele>
        <time>2021-04-13T15:03:49Z</time>
      </trkpt>
      <trkpt lat="45.07908" lon="3.50256">
        <ele>545</ele>
        <time>2021-04-13T15:03:50Z</time>
      </trkpt>
      <trkpt lat="45.07905" lon="3.50215">
        <ele>543</ele>
        <time>2021-04-13T15:03:54Z</time>
      </trkpt>
      <trkpt lat="45.07906" lon="3.50206">
        <ele>542</ele>
        <time>2021-04-13T15:03:55Z</time>
      </trkpt>
      <trkpt lat="45.07907" lon="3.50197">
        <ele>542</ele>
        <time>2021-04-13T15:03:56Z</time>
      </trkpt>
      <trkpt lat="45.07909" lon="3.50189">
        <ele>541</ele>
        <time>2021-04-13T15:03:57Z</time>
      </trkpt>
      <trkpt lat="45.07913" lon="3.50182">
        <ele>541</ele>
        <time>2021-04-13T15:03:58Z</time>
      </trkpt>
      <trkpt lat="45.07918" lon="3.50174">
        <ele>540</ele>
        <time>2021-04-13T15:03:59Z</time>
      </trkpt>
      <trkpt lat="45.07922" lon="3.50167">
        <ele>539</ele>
        <time>2021-04-13T15:04:00Z</time>
      </trkpt>
      <trkpt lat="45.07926" lon="3.50161">
        <ele>538</ele>
        <time>2021-04-13T15:04:01Z</time>
      </trkpt>
      <trkpt lat="45.07935" lon="3.50148">
        <ele>536</ele>
        <time>2021-04-13T15:04:03Z</time>
      </trkpt>
      <trkpt lat="45.07938" lon="3.50142">
        <ele>536</ele>
        <time>2021-04-13T15:04:04Z</time>
      </trkpt>
      <trkpt lat="45.07941" lon="3.50135">
        <ele>535</ele>
        <time>2021-04-13T15:04:05Z</time>
      </trkpt>
      <trkpt lat="45.07943" lon="3.50128">
        <ele>535</ele>
        <time>2021-04-13T15:04:06Z</time>
      </trkpt>
      <trkpt lat="45.07944" lon="3.50121">
        <ele>535</ele>
        <time>2021-04-13T15:04:07Z</time>
      </trkpt>
      <trkpt lat="45.07946" lon="3.50114">
        <ele>534</ele>
        <time>2021-04-13T15:04:08Z</time>
      </trkpt>
      <trkpt lat="45.07948" lon="3.50107">
        <ele>534</ele>
        <time>2021-04-13T15:04:09Z</time>
      </trkpt>
      <trkpt lat="45.07949" lon="3.501">
        <ele>533</ele>
        <time>2021-04-13T15:04:10Z</time>
      </trkpt>
      <trkpt lat="45.07956" lon="3.50076">
        <ele>532</ele>
        <time>2021-04-13T15:04:14Z</time>
      </trkpt>
      <trkpt lat="45.07958" lon="3.5007">
        <ele>532</ele>
        <time>2021-04-13T15:04:15Z</time>
      </trkpt>
      <trkpt lat="45.0796" lon="3.50064">
        <ele>532</ele>
        <time>2021-04-13T15:04:16Z</time>
      </trkpt>
      <trkpt lat="45.07962" lon="3.50058">
        <ele>532</ele>
        <time>2021-04-13T15:04:17Z</time>
      </trkpt>
      <trkpt lat="45.07964" lon="3.50052">
        <ele>531</ele>
        <time>2021-04-13T15:04:18Z</time>
      </trkpt>
      <trkpt lat="45.07966" lon="3.50046">
        <ele>531</ele>
        <time>2021-04-13T15:04:19Z</time>
      </trkpt>
      <trkpt lat="45.07968" lon="3.5004">
        <ele>531</ele>
        <time>2021-04-13T15:04:20Z</time>
      </trkpt>
      <trkpt lat="45.07971" lon="3.50035">
        <ele>531</ele>
        <time>2021-04-13T15:04:21Z</time>
      </trkpt>
      <trkpt lat="45.07976" lon="3.50025">
        <ele>531</ele>
        <time>2021-04-13T15:04:23Z</time>
      </trkpt>
      <trkpt lat="45.07978" lon="3.5002">
        <ele>530</ele>
        <time>2021-04-13T15:04:24Z</time>
      </trkpt>
      <trkpt lat="45.07979" lon="3.50015">
        <ele>530</ele>
        <time>2021-04-13T15:04:25Z</time>
      </trkpt>
      <trkpt lat="45.07981" lon="3.50011">
        <ele>530</ele>
        <time>2021-04-13T15:04:26Z</time>
      </trkpt>
      <trkpt lat="45.07983" lon="3.50007">
        <ele>530</ele>
        <time>2021-04-13T15:04:27Z</time>
      </trkpt>
      <trkpt lat="45.07984" lon="3.50003">
        <ele>530</ele>
        <time>2021-04-13T15:04:28Z</time>
      </trkpt>
      <trkpt lat="45.07985" lon="3.49998">
        <ele>530</ele>
        <time>2021-04-13T15:04:29Z</time>
      </trkpt>
      <trkpt lat="45.07985" lon="3.49994">
        <ele>530</ele>
        <time>2021-04-13T15:04:30Z</time>
      </trkpt>
      <trkpt lat="45.07983" lon="3.49977">
        <ele>530</ele>
        <time>2021-04-13T15:04:34Z</time>
      </trkpt>
      <trkpt lat="45.07983" lon="3.49973">
        <ele>530</ele>
        <time>2021-04-13T15:04:35Z</time>
      </trkpt>
      <trkpt lat="45.07983" lon="3.49968">
        <ele>530</ele>
        <time>2021-04-13T15:04:36Z</time>
      </trkpt>
      <trkpt lat="45.07983" lon="3.49963">
        <ele>530</ele>
        <time>2021-04-13T15:04:37Z</time>
      </trkpt>
      <trkpt lat="45.07984" lon="3.49958">
        <ele>530</ele>
        <time>2021-04-13T15:04:38Z</time>
      </trkpt>
      <trkpt lat="45.07985" lon="3.49953">
        <ele>530</ele>
        <time>2021-04-13T15:04:39Z</time>
      </trkpt>
      <trkpt lat="45.07987" lon="3.49949">
        <ele>530</ele>
        <time>2021-04-13T15:04:40Z</time>
      </trkpt>
      <trkpt lat="45.07988" lon="3.49946">
        <ele>530</ele>
        <time>2021-04-13T15:04:41Z</time>
      </trkpt>
      <trkpt lat="45.07991" lon="3.4994">
        <ele>530</ele>
        <time>2021-04-13T15:04:43Z</time>
      </trkpt>
      <trkpt lat="45.07993" lon="3.49937">
        <ele>530</ele>
        <time>2021-04-13T15:04:45Z</time>
      </trkpt>
      <trkpt lat="45.07995" lon="3.49935">
        <ele>530</ele>
        <time>2021-04-13T15:04:47Z</time>
      </trkpt>
      <trkpt lat="45.07997" lon="3.49934">
        <ele>530</ele>
        <time>2021-04-13T15:04:54Z</time>
      </trkpt>
      <trkpt lat="45.08002" lon="3.49933">
        <ele>531</ele>
        <time>2021-04-13T15:05:09Z</time>
      </trkpt>
      <trkpt lat="45.08004" lon="3.49933">
        <ele>531</ele>
        <time>2021-04-13T15:05:11Z</time>
      </trkpt>
      <trkpt lat="45.08006" lon="3.49933">
        <ele>531</ele>
        <time>2021-04-13T15:05:16Z</time>
      </trkpt>
      <trkpt lat="45.08008" lon="3.49934">
        <ele>531</ele>
        <time>2021-04-13T15:05:19Z</time>
      </trkpt>
      <trkpt lat="45.08015" lon="3.49944">
        <ele>532</ele>
        <time>2021-04-13T15:06:33Z</time>
      </trkpt>
      <trkpt lat="45.08018" lon="3.49946">
        <ele>532</ele>
        <time>2021-04-13T15:06:34Z</time>
      </trkpt>
      <trkpt lat="45.0802" lon="3.49948">
        <ele>532</ele>
        <time>2021-04-13T15:06:35Z</time>
      </trkpt>
      <trkpt lat="45.08023" lon="3.49951">
        <ele>532</ele>
        <time>2021-04-13T15:06:36Z</time>
      </trkpt>
      <trkpt lat="45.08025" lon="3.49954">
        <ele>532</ele>
        <time>2021-04-13T15:06:37Z</time>
      </trkpt>
      <trkpt lat="45.08028" lon="3.49957">
        <ele>532</ele>
        <time>2021-04-13T15:06:38Z</time>
      </trkpt>
      <trkpt lat="45.08031" lon="3.49961">
        <ele>532</ele>
        <time>2021-04-13T15:06:39Z</time>
      </trkpt>
      <trkpt lat="45.08034" lon="3.49964">
        <ele>532</ele>
        <time>2021-04-13T15:06:40Z</time>
      </trkpt>
      <trkpt lat="45.0804" lon="3.49971">
        <ele>532</ele>
        <time>2021-04-13T15:06:42Z</time>
      </trkpt>
      <trkpt lat="45.08043" lon="3.49974">
        <ele>532</ele>
        <time>2021-04-13T15:06:43Z</time>
      </trkpt>
      <trkpt lat="45.08047" lon="3.49977">
        <ele>531</ele>
        <time>2021-04-13T15:06:44Z</time>
      </trkpt>
      <trkpt lat="45.0805" lon="3.4998">
        <ele>531</ele>
        <time>2021-04-13T15:06:45Z</time>
      </trkpt>
      <trkpt lat="45.08053" lon="3.49983">
        <ele>531</ele>
        <time>2021-04-13T15:06:46Z</time>
      </trkpt>
      <trkpt lat="45.08057" lon="3.49986">
        <ele>531</ele>
        <time>2021-04-13T15:06:47Z</time>
      </trkpt>
      <trkpt lat="45.08061" lon="3.49989">
        <ele>531</ele>
        <time>2021-04-13T15:06:48Z</time>
      </trkpt>
      <trkpt lat="45.08066" lon="3.49991">
        <ele>531</ele>
        <time>2021-04-13T15:06:49Z</time>
      </trkpt>
      <trkpt lat="45.08083" lon="3.49999">
        <ele>530</ele>
        <time>2021-04-13T15:06:53Z</time>
      </trkpt>
      <trkpt lat="45.08087" lon="3.5">
        <ele>530</ele>
        <time>2021-04-13T15:06:54Z</time>
      </trkpt>
      <trkpt lat="45.08091" lon="3.50001">
        <ele>530</ele>
        <time>2021-04-13T15:06:55Z</time>
      </trkpt>
      <trkpt lat="45.08094" lon="3.50002">
        <ele>530</ele>
        <time>2021-04-13T15:06:56Z</time>
      </trkpt>
      <trkpt lat="45.08098" lon="3.50002">
        <ele>530</ele>
        <time>2021-04-13T15:06:57Z</time>
      </trkpt>
      <trkpt lat="45.081" lon="3.50002">
        <ele>530</ele>
        <time>2021-04-13T15:06:58Z</time>
      </trkpt>
      <trkpt lat="45.08102" lon="3.50002">
        <ele>530</ele>
        <time>2021-04-13T15:06:59Z</time>
      </trkpt>
      <trkpt lat="45.08104" lon="3.50004">
        <ele>530</ele>
        <time>2021-04-13T15:07:00Z</time>
      </trkpt>
      <trkpt lat="45.08107" lon="3.50009">
        <ele>530</ele>
        <time>2021-04-13T15:07:02Z</time>
      </trkpt>
      <trkpt lat="45.08108" lon="3.50011">
        <ele>529</ele>
        <time>2021-04-13T15:07:03Z</time>
      </trkpt>
      <trkpt lat="45.08109" lon="3.50014">
        <ele>529</ele>
        <time>2021-04-13T15:07:04Z</time>
      </trkpt>
      <trkpt lat="45.08111" lon="3.50017">
        <ele>529</ele>
        <time>2021-04-13T15:07:05Z</time>
      </trkpt>
      <trkpt lat="45.08113" lon="3.5002">
        <ele>528</ele>
        <time>2021-04-13T15:07:06Z</time>
      </trkpt>
      <trkpt lat="45.08114" lon="3.50023">
        <ele>528</ele>
        <time>2021-04-13T15:07:07Z</time>
      </trkpt>
      <trkpt lat="45.08117" lon="3.50027">
        <ele>528</ele>
        <time>2021-04-13T15:07:08Z</time>
      </trkpt>
      <trkpt lat="45.08119" lon="3.50032">
        <ele>528</ele>
        <time>2021-04-13T15:07:09Z</time>
      </trkpt>
      <trkpt lat="45.08129" lon="3.50056">
        <ele>527</ele>
        <time>2021-04-13T15:07:13Z</time>
      </trkpt>
      <trkpt lat="45.08132" lon="3.50063">
        <ele>527</ele>
        <time>2021-04-13T15:07:14Z</time>
      </trkpt>
      <trkpt lat="45.08136" lon="3.50069">
        <ele>527</ele>
        <time>2021-04-13T15:07:15Z</time>
      </trkpt>
      <trkpt lat="45.0814" lon="3.50075">
        <ele>527</ele>
        <time>2021-04-13T15:07:16Z</time>
      </trkpt>
      <trkpt lat="45.08144" lon="3.5008">
        <ele>526</ele>
        <time>2021-04-13T15:07:17Z</time>
      </trkpt>
      <trkpt lat="45.08148" lon="3.50084">
        <ele>526</ele>
        <time>2021-04-13T15:07:18Z</time>
      </trkpt>
      <trkpt lat="45.08152" lon="3.50088">
        <ele>526</ele>
        <time>2021-04-13T15:07:19Z</time>
      </trkpt>
      <trkpt lat="45.08156" lon="3.50092">
        <ele>526</ele>
        <time>2021-04-13T15:07:20Z</time>
      </trkpt>
      <trkpt lat="45.08165" lon="3.50098">
        <ele>526</ele>
        <time>2021-04-13T15:07:22Z</time>
      </trkpt>
      <trkpt lat="45.0817" lon="3.50101">
        <ele>526</ele>
        <time>2021-04-13T15:07:23Z</time>
      </trkpt>
      <trkpt lat="45.08175" lon="3.50103">
        <ele>526</ele>
        <time>2021-04-13T15:07:24Z</time>
      </trkpt>
      <trkpt lat="45.0818" lon="3.50105">
        <ele>526</ele>
        <time>2021-04-13T15:07:25Z</time>
      </trkpt>
      <trkpt lat="45.08185" lon="3.50108">
        <ele>526</ele>
        <time>2021-04-13T15:07:26Z</time>
      </trkpt>
      <trkpt lat="45.0819" lon="3.5011">
        <ele>526</ele>
        <time>2021-04-13T15:07:27Z</time>
      </trkpt>
      <trkpt lat="45.08194" lon="3.50113">
        <ele>526</ele>
        <time>2021-04-13T15:07:28Z</time>
      </trkpt>
      <trkpt lat="45.08198" lon="3.50116">
        <ele>526</ele>
        <time>2021-04-13T15:07:29Z</time>
      </trkpt>
      <trkpt lat="45.08222" lon="3.50133">
        <ele>526</ele>
        <time>2021-04-13T15:07:34Z</time>
      </trkpt>
      <trkpt lat="45.08226" lon="3.50138">
        <ele>526</ele>
        <time>2021-04-13T15:07:35Z</time>
      </trkpt>
      <trkpt lat="45.0823" lon="3.50143">
        <ele>526</ele>
        <time>2021-04-13T15:07:36Z</time>
      </trkpt>
      <trkpt lat="45.08233" lon="3.5015">
        <ele>526</ele>
        <time>2021-04-13T15:07:37Z</time>
      </trkpt>
      <trkpt lat="45.08236" lon="3.50156">
        <ele>525</ele>
        <time>2021-04-13T15:07:38Z</time>
      </trkpt>
      <trkpt lat="45.08239" lon="3.50163">
        <ele>525</ele>
        <time>2021-04-13T15:07:39Z</time>
      </trkpt>
      <trkpt lat="45.08243" lon="3.50169">
        <ele>525</ele>
        <time>2021-04-13T15:07:40Z</time>
      </trkpt>
      <trkpt lat="45.08246" lon="3.50175">
        <ele>525</ele>
        <time>2021-04-13T15:07:41Z</time>
      </trkpt>
      <trkpt lat="45.08253" lon="3.50184">
        <ele>524</ele>
        <time>2021-04-13T15:07:43Z</time>
      </trkpt>
      <trkpt lat="45.08258" lon="3.50188">
        <ele>524</ele>
        <time>2021-04-13T15:07:44Z</time>
      </trkpt>
      <trkpt lat="45.08262" lon="3.50192">
        <ele>524</ele>
        <time>2021-04-13T15:07:45Z</time>
      </trkpt>
      <trkpt lat="45.08267" lon="3.50196">
        <ele>524</ele>
        <time>2021-04-13T15:07:46Z</time>
      </trkpt>
      <trkpt lat="45.08271" lon="3.50201">
        <ele>524</ele>
        <time>2021-04-13T15:07:47Z</time>
      </trkpt>
      <trkpt lat="45.08275" lon="3.50207">
        <ele>524</ele>
        <time>2021-04-13T15:07:48Z</time>
      </trkpt>
      <trkpt lat="45.08279" lon="3.50213">
        <ele>524</ele>
        <time>2021-04-13T15:07:49Z</time>
      </trkpt>
      <trkpt lat="45.08284" lon="3.50218">
        <ele>524</ele>
        <time>2021-04-13T15:07:50Z</time>
      </trkpt>
      <trkpt lat="45.08301" lon="3.50239">
        <ele>523</ele>
        <time>2021-04-13T15:07:54Z</time>
      </trkpt>
      <trkpt lat="45.08306" lon="3.50244">
        <ele>523</ele>
        <time>2021-04-13T15:07:55Z</time>
      </trkpt>
      <trkpt lat="45.0831" lon="3.5025">
        <ele>523</ele>
        <time>2021-04-13T15:07:56Z</time>
      </trkpt>
      <trkpt lat="45.08315" lon="3.50255">
        <ele>523</ele>
        <time>2021-04-13T15:07:57Z</time>
      </trkpt>
      <trkpt lat="45.08319" lon="3.5026">
        <ele>523</ele>
        <time>2021-04-13T15:07:58Z</time>
      </trkpt>
      <trkpt lat="45.08324" lon="3.50264">
        <ele>523</ele>
        <time>2021-04-13T15:07:59Z</time>
      </trkpt>
      <trkpt lat="45.08329" lon="3.50268">
        <ele>522</ele>
        <time>2021-04-13T15:08:00Z</time>
      </trkpt>
      <trkpt lat="45.08334" lon="3.50271">
        <ele>522</ele>
        <time>2021-04-13T15:08:01Z</time>
      </trkpt>
      <trkpt lat="45.08344" lon="3.50279">
        <ele>522</ele>
        <time>2021-04-13T15:08:03Z</time>
      </trkpt>
      <trkpt lat="45.08349" lon="3.50283">
        <ele>522</ele>
        <time>2021-04-13T15:08:04Z</time>
      </trkpt>
      <trkpt lat="45.08354" lon="3.50286">
        <ele>522</ele>
        <time>2021-04-13T15:08:05Z</time>
      </trkpt>
      <trkpt lat="45.08358" lon="3.50289">
        <ele>522</ele>
        <time>2021-04-13T15:08:06Z</time>
      </trkpt>
      <trkpt lat="45.08363" lon="3.50292">
        <ele>522</ele>
        <time>2021-04-13T15:08:07Z</time>
      </trkpt>
      <trkpt lat="45.08368" lon="3.50294">
        <ele>522</ele>
        <time>2021-04-13T15:08:08Z</time>
      </trkpt>
      <trkpt lat="45.08373" lon="3.50296">
        <ele>522</ele>
        <time>2021-04-13T15:08:09Z</time>
      </trkpt>
      <trkpt lat="45.08377" lon="3.50297">
        <ele>522</ele>
        <time>2021-04-13T15:08:10Z</time>
      </trkpt>
      <trkpt lat="45.08397" lon="3.50301">
        <ele>521</ele>
        <time>2021-04-13T15:08:14Z</time>
      </trkpt>
      <trkpt lat="45.08402" lon="3.50302">
        <ele>521</ele>
        <time>2021-04-13T15:08:15Z</time>
      </trkpt>
      <trkpt lat="45.08407" lon="3.50303">
        <ele>521</ele>
        <time>2021-04-13T15:08:16Z</time>
      </trkpt>
      <trkpt lat="45.08413" lon="3.50304">
        <ele>520</ele>
        <time>2021-04-13T15:08:17Z</time>
      </trkpt>
      <trkpt lat="45.08418" lon="3.50305">
        <ele>520</ele>
        <time>2021-04-13T15:08:18Z</time>
      </trkpt>
      <trkpt lat="45.08423" lon="3.50306">
        <ele>520</ele>
        <time>2021-04-13T15:08:19Z</time>
      </trkpt>
      <trkpt lat="45.08429" lon="3.50307">
        <ele>520</ele>
        <time>2021-04-13T15:08:20Z</time>
      </trkpt>
      <trkpt lat="45.08434" lon="3.50307">
        <ele>520</ele>
        <time>2021-04-13T15:08:21Z</time>
      </trkpt>
      <trkpt lat="45.08444" lon="3.50308">
        <ele>520</ele>
        <time>2021-04-13T15:08:23Z</time>
      </trkpt>
      <trkpt lat="45.08449" lon="3.50309">
        <ele>520</ele>
        <time>2021-04-13T15:08:24Z</time>
      </trkpt>
      <trkpt lat="45.08454" lon="3.50309">
        <ele>520</ele>
        <time>2021-04-13T15:08:25Z</time>
      </trkpt>
      <trkpt lat="45.08458" lon="3.5031">
        <ele>520</ele>
        <time>2021-04-13T15:08:26Z</time>
      </trkpt>
      <trkpt lat="45.08463" lon="3.5031">
        <ele>520</ele>
        <time>2021-04-13T15:08:27Z</time>
      </trkpt>
      <trkpt lat="45.08468" lon="3.50311">
        <ele>520</ele>
        <time>2021-04-13T15:08:28Z</time>
      </trkpt>
      <trkpt lat="45.08473" lon="3.50312">
        <ele>520</ele>
        <time>2021-04-13T15:08:29Z</time>
      </trkpt>
      <trkpt lat="45.08478" lon="3.50313">
        <ele>520</ele>
        <time>2021-04-13T15:08:30Z</time>
      </trkpt>
      <trkpt lat="45.08498" lon="3.50313">
        <ele>520</ele>
        <time>2021-04-13T15:08:34Z</time>
      </trkpt>
      <trkpt lat="45.08502" lon="3.50312">
        <ele>520</ele>
        <time>2021-04-13T15:08:35Z</time>
      </trkpt>
      <trkpt lat="45.08507" lon="3.50312">
        <ele>520</ele>
        <time>2021-04-13T15:08:36Z</time>
      </trkpt>
      <trkpt lat="45.08511" lon="3.50312">
        <ele>520</ele>
        <time>2021-04-13T15:08:37Z</time>
      </trkpt>
      <trkpt lat="45.08515" lon="3.50312">
        <ele>520</ele>
        <time>2021-04-13T15:08:38Z</time>
      </trkpt>
      <trkpt lat="45.0852" lon="3.50312">
        <ele>520</ele>
        <time>2021-04-13T15:08:39Z</time>
      </trkpt>
      <trkpt lat="45.08524" lon="3.50313">
        <ele>520</ele>
        <time>2021-04-13T15:08:40Z</time>
      </trkpt>
      <trkpt lat="45.08529" lon="3.50313">
        <ele>520</ele>
        <time>2021-04-13T15:08:41Z</time>
      </trkpt>
      <trkpt lat="45.08538" lon="3.50316">
        <ele>520</ele>
        <time>2021-04-13T15:08:43Z</time>
      </trkpt>
      <trkpt lat="45.08543" lon="3.50317">
        <ele>520</ele>
        <time>2021-04-13T15:08:44Z</time>
      </trkpt>
      <trkpt lat="45.08547" lon="3.50318">
        <ele>520</ele>
        <time>2021-04-13T15:08:45Z</time>
      </trkpt>
      <trkpt lat="45.08551" lon="3.5032">
        <ele>520</ele>
        <time>2021-04-13T15:08:46Z</time>
      </trkpt>
      <trkpt lat="45.08555" lon="3.50321">
        <ele>520</ele>
        <time>2021-04-13T15:08:47Z</time>
      </trkpt>
      <trkpt lat="45.0856" lon="3.50323">
        <ele>519</ele>
        <time>2021-04-13T15:08:48Z</time>
      </trkpt>
      <trkpt lat="45.08564" lon="3.50324">
        <ele>519</ele>
        <time>2021-04-13T15:08:49Z</time>
      </trkpt>
      <trkpt lat="45.08567" lon="3.50325">
        <ele>519</ele>
        <time>2021-04-13T15:08:50Z</time>
      </trkpt>
      <trkpt lat="45.08586" lon="3.50329">
        <ele>519</ele>
        <time>2021-04-13T15:08:54Z</time>
      </trkpt>
      <trkpt lat="45.08591" lon="3.5033">
        <ele>519</ele>
        <time>2021-04-13T15:08:55Z</time>
      </trkpt>
      <trkpt lat="45.08596" lon="3.50331">
        <ele>518</ele>
        <time>2021-04-13T15:08:56Z</time>
      </trkpt>
      <trkpt lat="45.08601" lon="3.50332">
        <ele>518</ele>
        <time>2021-04-13T15:08:57Z</time>
      </trkpt>
      <trkpt lat="45.08607" lon="3.50333">
        <ele>518</ele>
        <time>2021-04-13T15:08:58Z</time>
      </trkpt>
      <trkpt lat="45.08613" lon="3.50333">
        <ele>518</ele>
        <time>2021-04-13T15:08:59Z</time>
      </trkpt>
      <trkpt lat="45.08619" lon="3.50333">
        <ele>518</ele>
        <time>2021-04-13T15:09:00Z</time>
      </trkpt>
      <trkpt lat="45.08625" lon="3.50332">
        <ele>518</ele>
        <time>2021-04-13T15:09:01Z</time>
      </trkpt>
      <trkpt lat="45.08636" lon="3.50327">
        <ele>518</ele>
        <time>2021-04-13T15:09:03Z</time>
      </trkpt>
      <trkpt lat="45.08642" lon="3.50325">
        <ele>518</ele>
        <time>2021-04-13T15:09:04Z</time>
      </trkpt>
      <trkpt lat="45.08648" lon="3.50322">
        <ele>518</ele>
        <time>2021-04-13T15:09:05Z</time>
      </trkpt>
      <trkpt lat="45.08653" lon="3.5032">
        <ele>518</ele>
        <time>2021-04-13T15:09:06Z</time>
      </trkpt>
      <trkpt lat="45.08658" lon="3.50317">
        <ele>518</ele>
        <time>2021-04-13T15:09:07Z</time>
      </trkpt>
      <trkpt lat="45.08664" lon="3.50314">
        <ele>518</ele>
        <time>2021-04-13T15:09:08Z</time>
      </trkpt>
      <trkpt lat="45.08669" lon="3.50311">
        <ele>518</ele>
        <time>2021-04-13T15:09:09Z</time>
      </trkpt>
      <trkpt lat="45.08674" lon="3.50309">
        <ele>518</ele>
        <time>2021-04-13T15:09:10Z</time>
      </trkpt>
      <trkpt lat="45.08695" lon="3.503">
        <ele>517</ele>
        <time>2021-04-13T15:09:14Z</time>
      </trkpt>
      <trkpt lat="45.08701" lon="3.50297">
        <ele>517</ele>
        <time>2021-04-13T15:09:15Z</time>
      </trkpt>
      <trkpt lat="45.08706" lon="3.50295">
        <ele>517</ele>
        <time>2021-04-13T15:09:16Z</time>
      </trkpt>
      <trkpt lat="45.08711" lon="3.50292">
        <ele>517</ele>
        <time>2021-04-13T15:09:17Z</time>
      </trkpt>
      <trkpt lat="45.08716" lon="3.5029">
        <ele>516</ele>
        <time>2021-04-13T15:09:18Z</time>
      </trkpt>
      <trkpt lat="45.08722" lon="3.50287">
        <ele>516</ele>
        <time>2021-04-13T15:09:19Z</time>
      </trkpt>
      <trkpt lat="45.08727" lon="3.50284">
        <ele>516</ele>
        <time>2021-04-13T15:09:20Z</time>
      </trkpt>
      <trkpt lat="45.08732" lon="3.50281">
        <ele>516</ele>
        <time>2021-04-13T15:09:21Z</time>
      </trkpt>
      <trkpt lat="45.08741" lon="3.50272">
        <ele>516</ele>
        <time>2021-04-13T15:09:23Z</time>
      </trkpt>
      <trkpt lat="45.08745" lon="3.50267">
        <ele>516</ele>
        <time>2021-04-13T15:09:24Z</time>
      </trkpt>
      <trkpt lat="45.08749" lon="3.50261">
        <ele>516</ele>
        <time>2021-04-13T15:09:25Z</time>
      </trkpt>
      <trkpt lat="45.08754" lon="3.50257">
        <ele>516</ele>
        <time>2021-04-13T15:09:26Z</time>
      </trkpt>
      <trkpt lat="45.08758" lon="3.50252">
        <ele>516</ele>
        <time>2021-04-13T15:09:27Z</time>
      </trkpt>
      <trkpt lat="45.08762" lon="3.50247">
        <ele>516</ele>
        <time>2021-04-13T15:09:28Z</time>
      </trkpt>
      <trkpt lat="45.08767" lon="3.50242">
        <ele>516</ele>
        <time>2021-04-13T15:09:29Z</time>
      </trkpt>
      <trkpt lat="45.08771" lon="3.50238">
        <ele>516</ele>
        <time>2021-04-13T15:09:30Z</time>
      </trkpt>
      <trkpt lat="45.0879" lon="3.50221">
        <ele>516</ele>
        <time>2021-04-13T15:09:34Z</time>
      </trkpt>
      <trkpt lat="45.08794" lon="3.50218">
        <ele>516</ele>
        <time>2021-04-13T15:09:35Z</time>
      </trkpt>
      <trkpt lat="45.08799" lon="3.50214">
        <ele>516</ele>
        <time>2021-04-13T15:09:36Z</time>
      </trkpt>
      <trkpt lat="45.08804" lon="3.5021">
        <ele>516</ele>
        <time>2021-04-13T15:09:37Z</time>
      </trkpt>
      <trkpt lat="45.08808" lon="3.50207">
        <ele>516</ele>
        <time>2021-04-13T15:09:38Z</time>
      </trkpt>
      <trkpt lat="45.08813" lon="3.50203">
        <ele>516</ele>
        <time>2021-04-13T15:09:39Z</time>
      </trkpt>
      <trkpt lat="45.08818" lon="3.502">
        <ele>516</ele>
        <time>2021-04-13T15:09:40Z</time>
      </trkpt>
      <trkpt lat="45.08823" lon="3.50196">
        <ele>516</ele>
        <time>2021-04-13T15:09:41Z</time>
      </trkpt>
      <trkpt lat="45.08833" lon="3.5019">
        <ele>516</ele>
        <time>2021-04-13T15:09:43Z</time>
      </trkpt>
      <trkpt lat="45.08837" lon="3.50186">
        <ele>516</ele>
        <time>2021-04-13T15:09:44Z</time>
      </trkpt>
      <trkpt lat="45.08842" lon="3.50183">
        <ele>516</ele>
        <time>2021-04-13T15:09:45Z</time>
      </trkpt>
      <trkpt lat="45.08847" lon="3.50179">
        <ele>516</ele>
        <time>2021-04-13T15:09:46Z</time>
      </trkpt>
      <trkpt lat="45.08851" lon="3.50176">
        <ele>516</ele>
        <time>2021-04-13T15:09:47Z</time>
      </trkpt>
      <trkpt lat="45.08855" lon="3.50172">
        <ele>516</ele>
        <time>2021-04-13T15:09:48Z</time>
      </trkpt>
      <trkpt lat="45.08864" lon="3.50166">
        <ele>517</ele>
        <time>2021-04-13T15:09:50Z</time>
      </trkpt>
      <trkpt lat="45.08869" lon="3.50162">
        <ele>517</ele>
        <time>2021-04-13T15:09:51Z</time>
      </trkpt>
      <trkpt lat="45.08888" lon="3.50153">
        <ele>517</ele>
        <time>2021-04-13T15:09:55Z</time>
      </trkpt>
      <trkpt lat="45.08893" lon="3.50151">
        <ele>518</ele>
        <time>2021-04-13T15:09:56Z</time>
      </trkpt>
      <trkpt lat="45.08898" lon="3.50149">
        <ele>518</ele>
        <time>2021-04-13T15:09:57Z</time>
      </trkpt>
      <trkpt lat="45.08903" lon="3.50147">
        <ele>518</ele>
        <time>2021-04-13T15:09:58Z</time>
      </trkpt>
      <trkpt lat="45.08908" lon="3.50145">
        <ele>518</ele>
        <time>2021-04-13T15:09:59Z</time>
      </trkpt>
      <trkpt lat="45.08912" lon="3.50143">
        <ele>518</ele>
        <time>2021-04-13T15:10:00Z</time>
      </trkpt>
      <trkpt lat="45.08917" lon="3.5014">
        <ele>518</ele>
        <time>2021-04-13T15:10:01Z</time>
      </trkpt>
      <trkpt lat="45.08922" lon="3.50137">
        <ele>518</ele>
        <time>2021-04-13T15:10:02Z</time>
      </trkpt>
      <trkpt lat="45.08932" lon="3.50131">
        <ele>519</ele>
        <time>2021-04-13T15:10:04Z</time>
      </trkpt>
      <trkpt lat="45.08936" lon="3.50129">
        <ele>519</ele>
        <time>2021-04-13T15:10:05Z</time>
      </trkpt>
      <trkpt lat="45.08941" lon="3.50126">
        <ele>519</ele>
        <time>2021-04-13T15:10:06Z</time>
      </trkpt>
      <trkpt lat="45.08946" lon="3.50123">
        <ele>519</ele>
        <time>2021-04-13T15:10:07Z</time>
      </trkpt>
      <trkpt lat="45.0895" lon="3.50121">
        <ele>520</ele>
        <time>2021-04-13T15:10:08Z</time>
      </trkpt>
      <trkpt lat="45.08955" lon="3.5012">
        <ele>520</ele>
        <time>2021-04-13T15:10:09Z</time>
      </trkpt>
      <trkpt lat="45.0896" lon="3.50119">
        <ele>520</ele>
        <time>2021-04-13T15:10:10Z</time>
      </trkpt>
      <trkpt lat="45.08964" lon="3.5012">
        <ele>520</ele>
        <time>2021-04-13T15:10:11Z</time>
      </trkpt>
      <trkpt lat="45.08981" lon="3.50119">
        <ele>521</ele>
        <time>2021-04-13T15:10:15Z</time>
      </trkpt>
      <trkpt lat="45.08985" lon="3.50118">
        <ele>521</ele>
        <time>2021-04-13T15:10:16Z</time>
      </trkpt>
      <trkpt lat="45.0899" lon="3.50116">
        <ele>521</ele>
        <time>2021-04-13T15:10:17Z</time>
      </trkpt>
      <trkpt lat="45.08994" lon="3.50114">
        <ele>521</ele>
        <time>2021-04-13T15:10:18Z</time>
      </trkpt>
      <trkpt lat="45.08999" lon="3.50112">
        <ele>521</ele>
        <time>2021-04-13T15:10:19Z</time>
      </trkpt>
      <trkpt lat="45.09003" lon="3.5011">
        <ele>522</ele>
        <time>2021-04-13T15:10:20Z</time>
      </trkpt>
      <trkpt lat="45.09007" lon="3.50107">
        <ele>522</ele>
        <time>2021-04-13T15:10:21Z</time>
      </trkpt>
      <trkpt lat="45.09012" lon="3.50103">
        <ele>522</ele>
        <time>2021-04-13T15:10:22Z</time>
      </trkpt>
      <trkpt lat="45.09023" lon="3.50094">
        <ele>522</ele>
        <time>2021-04-13T15:10:24Z</time>
      </trkpt>
      <trkpt lat="45.09028" lon="3.50092">
        <ele>523</ele>
        <time>2021-04-13T15:10:25Z</time>
      </trkpt>
      <trkpt lat="45.09033" lon="3.5009">
        <ele>523</ele>
        <time>2021-04-13T15:10:26Z</time>
      </trkpt>
      <trkpt lat="45.09037" lon="3.50088">
        <ele>523</ele>
        <time>2021-04-13T15:10:27Z</time>
      </trkpt>
      <trkpt lat="45.09041" lon="3.50086">
        <ele>523</ele>
        <time>2021-04-13T15:10:28Z</time>
      </trkpt>
      <trkpt lat="45.09045" lon="3.50085">
        <ele>523</ele>
        <time>2021-04-13T15:10:29Z</time>
      </trkpt>
      <trkpt lat="45.09048" lon="3.50084">
        <ele>523</ele>
        <time>2021-04-13T15:10:30Z</time>
      </trkpt>
      <trkpt lat="45.09052" lon="3.50084">
        <ele>523</ele>
        <time>2021-04-13T15:10:31Z</time>
      </trkpt>
      <trkpt lat="45.09069" lon="3.50079">
        <ele>524</ele>
        <time>2021-04-13T15:10:35Z</time>
      </trkpt>
      <trkpt lat="45.09073" lon="3.50077">
        <ele>524</ele>
        <time>2021-04-13T15:10:36Z</time>
      </trkpt>
      <trkpt lat="45.09077" lon="3.50075">
        <ele>524</ele>
        <time>2021-04-13T15:10:37Z</time>
      </trkpt>
      <trkpt lat="45.09081" lon="3.50072">
        <ele>524</ele>
        <time>2021-04-13T15:10:38Z</time>
      </trkpt>
      <trkpt lat="45.09085" lon="3.5007">
        <ele>524</ele>
        <time>2021-04-13T15:10:39Z</time>
      </trkpt>
      <trkpt lat="45.09089" lon="3.50068">
        <ele>525</ele>
        <time>2021-04-13T15:10:40Z</time>
      </trkpt>
      <trkpt lat="45.09093" lon="3.50066">
        <ele>525</ele>
        <time>2021-04-13T15:10:41Z</time>
      </trkpt>
      <trkpt lat="45.09097" lon="3.50064">
        <ele>525</ele>
        <time>2021-04-13T15:10:42Z</time>
      </trkpt>
      <trkpt lat="45.09103" lon="3.5006">
        <ele>525</ele>
        <time>2021-04-13T15:10:44Z</time>
      </trkpt>
      <trkpt lat="45.09105" lon="3.50058">
        <ele>526</ele>
        <time>2021-04-13T15:10:45Z</time>
      </trkpt>
      <trkpt lat="45.09107" lon="3.50056">
        <ele>526</ele>
        <time>2021-04-13T15:10:46Z</time>
      </trkpt>
      <trkpt lat="45.09109" lon="3.50055">
        <ele>526</ele>
        <time>2021-04-13T15:10:47Z</time>
      </trkpt>
      <trkpt lat="45.09111" lon="3.50054">
        <ele>526</ele>
        <time>2021-04-13T15:10:48Z</time>
      </trkpt>
      <trkpt lat="45.09112" lon="3.50052">
        <ele>526</ele>
        <time>2021-04-13T15:10:49Z</time>
      </trkpt>
      <trkpt lat="45.09114" lon="3.50051">
        <ele>526</ele>
        <time>2021-04-13T15:10:50Z</time>
      </trkpt>
      <trkpt lat="45.09116" lon="3.50049">
        <ele>526</ele>
        <time>2021-04-13T15:10:51Z</time>
      </trkpt>
      <trkpt lat="45.09127" lon="3.50043">
        <ele>527</ele>
        <time>2021-04-13T15:10:57Z</time>
      </trkpt>
      <trkpt lat="45.0913" lon="3.50042">
        <ele>527</ele>
        <time>2021-04-13T15:10:58Z</time>
      </trkpt>
      <trkpt lat="45.09134" lon="3.50041">
        <ele>527</ele>
        <time>2021-04-13T15:10:59Z</time>
      </trkpt>
      <trkpt lat="45.09137" lon="3.5004">
        <ele>527</ele>
        <time>2021-04-13T15:11:00Z</time>
      </trkpt>
      <trkpt lat="45.0914" lon="3.50039">
        <ele>527</ele>
        <time>2021-04-13T15:11:01Z</time>
      </trkpt>
      <trkpt lat="45.09144" lon="3.50039">
        <ele>527</ele>
        <time>2021-04-13T15:11:02Z</time>
      </trkpt>
      <trkpt lat="45.09147" lon="3.50038">
        <ele>527</ele>
        <time>2021-04-13T15:11:03Z</time>
      </trkpt>
      <trkpt lat="45.0915" lon="3.50038">
        <ele>528</ele>
        <time>2021-04-13T15:11:04Z</time>
      </trkpt>
      <trkpt lat="45.09157" lon="3.50037">
        <ele>528</ele>
        <time>2021-04-13T15:11:06Z</time>
      </trkpt>
      <trkpt lat="45.0916" lon="3.50036">
        <ele>528</ele>
        <time>2021-04-13T15:11:07Z</time>
      </trkpt>
      <trkpt lat="45.09163" lon="3.50035">
        <ele>528</ele>
        <time>2021-04-13T15:11:08Z</time>
      </trkpt>
      <trkpt lat="45.09166" lon="3.50034">
        <ele>528</ele>
        <time>2021-04-13T15:11:09Z</time>
      </trkpt>
      <trkpt lat="45.0917" lon="3.50033">
        <ele>528</ele>
        <time>2021-04-13T15:11:10Z</time>
      </trkpt>
      <trkpt lat="45.09173" lon="3.50032">
        <ele>528</ele>
        <time>2021-04-13T15:11:11Z</time>
      </trkpt>
      <trkpt lat="45.09176" lon="3.50031">
        <ele>528</ele>
        <time>2021-04-13T15:11:12Z</time>
      </trkpt>
      <trkpt lat="45.09179" lon="3.5003">
        <ele>528</ele>
        <time>2021-04-13T15:11:13Z</time>
      </trkpt>
      <trkpt lat="45.09194" lon="3.50027">
        <ele>527</ele>
        <time>2021-04-13T15:11:17Z</time>
      </trkpt>
      <trkpt lat="45.09198" lon="3.50027">
        <ele>527</ele>
        <time>2021-04-13T15:11:18Z</time>
      </trkpt>
      <trkpt lat="45.09202" lon="3.50027">
        <ele>527</ele>
        <time>2021-04-13T15:11:19Z</time>
      </trkpt>
      <trkpt lat="45.09206" lon="3.5003">
        <ele>527</ele>
        <time>2021-04-13T15:11:20Z</time>
      </trkpt>
      <trkpt lat="45.0921" lon="3.50033">
        <ele>527</ele>
        <time>2021-04-13T15:11:21Z</time>
      </trkpt>
      <trkpt lat="45.09213" lon="3.50036">
        <ele>527</ele>
        <time>2021-04-13T15:11:22Z</time>
      </trkpt>
      <trkpt lat="45.09216" lon="3.5004">
        <ele>526</ele>
        <time>2021-04-13T15:11:23Z</time>
      </trkpt>
      <trkpt lat="45.09219" lon="3.50043">
        <ele>526</ele>
        <time>2021-04-13T15:11:24Z</time>
      </trkpt>
      <trkpt lat="45.09228" lon="3.50052">
        <ele>526</ele>
        <time>2021-04-13T15:11:26Z</time>
      </trkpt>
      <trkpt lat="45.09233" lon="3.50056">
        <ele>526</ele>
        <time>2021-04-13T15:11:27Z</time>
      </trkpt>
      <trkpt lat="45.09238" lon="3.5006">
        <ele>525</ele>
        <time>2021-04-13T15:11:28Z</time>
      </trkpt>
      <trkpt lat="45.09244" lon="3.50064">
        <ele>525</ele>
        <time>2021-04-13T15:11:29Z</time>
      </trkpt>
      <trkpt lat="45.0925" lon="3.50068">
        <ele>525</ele>
        <time>2021-04-13T15:11:30Z</time>
      </trkpt>
      <trkpt lat="45.09256" lon="3.50072">
        <ele>524</ele>
        <time>2021-04-13T15:11:31Z</time>
      </trkpt>
      <trkpt lat="45.09262" lon="3.50077">
        <ele>524</ele>
        <time>2021-04-13T15:11:32Z</time>
      </trkpt>
      <trkpt lat="45.09268" lon="3.50081">
        <ele>524</ele>
        <time>2021-04-13T15:11:33Z</time>
      </trkpt>
      <trkpt lat="45.09351" lon="3.50137">
        <ele>505.6</ele>
      </trkpt>
      <trkpt lat="45.09352" lon="3.50171">
        <ele>504.6</ele>
      </trkpt>
      <trkpt lat="45.09353" lon="3.50206">
        <ele>503.6</ele>
      </trkpt>
      <trkpt lat="45.09382" lon="3.50216">
        <ele>501.3</ele>
      </trkpt>
      <trkpt lat="45.09406" lon="3.50229">
        <ele>499.3</ele>
      </trkpt>
      <trkpt lat="45.09399" lon="3.50247">
        <ele>505</ele>
        <time>2021-04-13T15:17:31Z</time>
      </trkpt>
      <trkpt lat="45.09397" lon="3.50252">
        <ele>505</ele>
        <time>2021-04-13T15:17:32Z</time>
      </trkpt>
      <trkpt lat="45.09396" lon="3.50258">
        <ele>505</ele>
        <time>2021-04-13T15:17:33Z</time>
      </trkpt>
      <trkpt lat="45.09393" lon="3.50269">
        <ele>505</ele>
        <time>2021-04-13T15:17:35Z</time>
      </trkpt>
      <trkpt lat="45.09391" lon="3.50275">
        <ele>505</ele>
        <time>2021-04-13T15:17:36Z</time>
      </trkpt>
      <trkpt lat="45.09389" lon="3.50281">
        <ele>505</ele>
        <time>2021-04-13T15:17:37Z</time>
      </trkpt>
      <trkpt lat="45.09388" lon="3.50287">
        <ele>505</ele>
        <time>2021-04-13T15:17:38Z</time>
      </trkpt>
      <trkpt lat="45.09386" lon="3.50293">
        <ele>505</ele>
        <time>2021-04-13T15:17:39Z</time>
      </trkpt>
      <trkpt lat="45.09385" lon="3.50299">
        <ele>505</ele>
        <time>2021-04-13T15:17:40Z</time>
      </trkpt>
      <trkpt lat="45.09384" lon="3.50306">
        <ele>505</ele>
        <time>2021-04-13T15:17:41Z</time>
      </trkpt>
      <trkpt lat="45.09383" lon="3.50312">
        <ele>505</ele>
        <time>2021-04-13T15:17:42Z</time>
      </trkpt>
      <trkpt lat="45.09378" lon="3.50337">
        <ele>504</ele>
        <time>2021-04-13T15:17:46Z</time>
      </trkpt>
      <trkpt lat="45.09377" lon="3.50343">
        <ele>504</ele>
        <time>2021-04-13T15:17:47Z</time>
      </trkpt>
      <trkpt lat="45.09375" lon="3.50349">
        <ele>504</ele>
        <time>2021-04-13T15:17:48Z</time>
      </trkpt>
      <trkpt lat="45.09374" lon="3.50354">
        <ele>504</ele>
        <time>2021-04-13T15:17:49Z</time>
      </trkpt>
      <trkpt lat="45.09373" lon="3.50359">
        <ele>504</ele>
        <time>2021-04-13T15:17:50Z</time>
      </trkpt>
      <trkpt lat="45.09372" lon="3.50363">
        <ele>504</ele>
        <time>2021-04-13T15:17:51Z</time>
      </trkpt>
      <trkpt lat="45.09372" lon="3.50367">
        <ele>504</ele>
        <time>2021-04-13T15:17:52Z</time>
      </trkpt>
      <trkpt lat="45.09373" lon="3.50369">
        <ele>504</ele>
        <time>2021-04-13T15:17:53Z</time>
      </trkpt>
      <trkpt lat="45.09379" lon="3.5037">
        <ele>504</ele>
        <time>2021-04-13T15:17:57Z</time>
      </trkpt>
      <trkpt lat="45.09384" lon="3.50369">
        <ele>504</ele>
        <time>2021-04-13T15:17:59Z</time>
      </trkpt>
      <trkpt lat="45.09386" lon="3.50369">
        <ele>503</ele>
        <time>2021-04-13T15:18:00Z</time>
      </trkpt>
      <trkpt lat="45.09389" lon="3.50368">
        <ele>503</ele>
        <time>2021-04-13T15:18:01Z</time>
      </trkpt>
      <trkpt lat="45.09391" lon="3.50365">
        <ele>503</ele>
        <time>2021-04-13T15:18:02Z</time>
      </trkpt>
      <trkpt lat="45.09394" lon="3.50362">
        <ele>503</ele>
        <time>2021-04-13T15:18:03Z</time>
      </trkpt>
      <trkpt lat="45.09396" lon="3.50358">
        <ele>503</ele>
        <time>2021-04-13T15:18:04Z</time>
      </trkpt>
      <trkpt lat="45.09397" lon="3.50354">
        <ele>503</ele>
        <time>2021-04-13T15:18:05Z</time>
      </trkpt>
      <trkpt lat="45.09404" lon="3.50331">
        <ele>503</ele>
        <time>2021-04-13T15:18:09Z</time>
      </trkpt>
      <trkpt lat="45.09406" lon="3.50325">
        <ele>503</ele>
        <time>2021-04-13T15:18:10Z</time>
      </trkpt>
      <trkpt lat="45.09408" lon="3.50319">
        <ele>502</ele>
        <time>2021-04-13T15:18:11Z</time>
      </trkpt>
      <trkpt lat="45.0941" lon="3.50313">
        <ele>502</ele>
        <time>2021-04-13T15:18:12Z</time>
      </trkpt>
      <trkpt lat="45.09412" lon="3.50306">
        <ele>503</ele>
        <time>2021-04-13T15:18:13Z</time>
      </trkpt>
      <trkpt lat="45.09414" lon="3.503">
        <ele>503</ele>
        <time>2021-04-13T15:18:14Z</time>
      </trkpt>
      <trkpt lat="45.09416" lon="3.50294">
        <ele>502</ele>
        <time>2021-04-13T15:18:15Z</time>
      </trkpt>
      <trkpt lat="45.09419" lon="3.50288">
        <ele>503</ele>
        <time>2021-04-13T15:18:16Z</time>
      </trkpt>
      <trkpt lat="45.09424" lon="3.50277">
        <ele>503</ele>
        <time>2021-04-13T15:18:18Z</time>
      </trkpt>
      <trkpt lat="45.09427" lon="3.50271">
        <ele>503</ele>
        <time>2021-04-13T15:18:19Z</time>
      </trkpt>
      <trkpt lat="45.0943" lon="3.50264">
        <ele>502</ele>
        <time>2021-04-13T15:18:20Z</time>
      </trkpt>
      <trkpt lat="45.09433" lon="3.50258">
        <ele>502</ele>
        <time>2021-04-13T15:18:21Z</time>
      </trkpt>
      <trkpt lat="45.09436" lon="3.50252">
        <ele>502</ele>
        <time>2021-04-13T15:18:22Z</time>
      </trkpt>
      <trkpt lat="45.09439" lon="3.50246">
        <ele>502</ele>
        <time>2021-04-13T15:18:23Z</time>
      </trkpt>
      <trkpt lat="45.09442" lon="3.5024">
        <ele>502</ele>
        <time>2021-04-13T15:18:24Z</time>
      </trkpt>
      <trkpt lat="45.09445" lon="3.50235">
        <ele>502</ele>
        <time>2021-04-13T15:18:25Z</time>
      </trkpt>
      <trkpt lat="45.09463" lon="3.50202">
        <ele>502</ele>
        <time>2021-04-13T15:18:31Z</time>
      </trkpt>
      <trkpt lat="45.09466" lon="3.50196">
        <ele>502</ele>
        <time>2021-04-13T15:18:32Z</time>
      </trkpt>
      <trkpt lat="45.09469" lon="3.50191">
        <ele>502</ele>
        <time>2021-04-13T15:18:33Z</time>
      </trkpt>
      <trkpt lat="45.09472" lon="3.50185">
        <ele>502</ele>
        <time>2021-04-13T15:18:34Z</time>
      </trkpt>
      <trkpt lat="45.09475" lon="3.5018">
        <ele>502</ele>
        <time>2021-04-13T15:18:35Z</time>
      </trkpt>
      <trkpt lat="45.09478" lon="3.50174">
        <ele>502</ele>
        <time>2021-04-13T15:18:36Z</time>
      </trkpt>
      <trkpt lat="45.09481" lon="3.50169">
        <ele>502</ele>
        <time>2021-04-13T15:18:37Z</time>
      </trkpt>
      <trkpt lat="45.09484" lon="3.50163">
        <ele>502</ele>
        <time>2021-04-13T15:18:38Z</time>
      </trkpt>
      <trkpt lat="45.09491" lon="3.50152">
        <ele>502</ele>
        <time>2021-04-13T15:18:40Z</time>
      </trkpt>
      <trkpt lat="45.09494" lon="3.50147">
        <ele>502</ele>
        <time>2021-04-13T15:18:41Z</time>
      </trkpt>
      <trkpt lat="45.09497" lon="3.50141">
        <ele>502</ele>
        <time>2021-04-13T15:18:42Z</time>
      </trkpt>
      <trkpt lat="45.095" lon="3.50136">
        <ele>501</ele>
        <time>2021-04-13T15:18:43Z</time>
      </trkpt>
      <trkpt lat="45.09503" lon="3.50131">
        <ele>501</ele>
        <time>2021-04-13T15:18:44Z</time>
      </trkpt>
      <trkpt lat="45.09506" lon="3.50126">
        <ele>501</ele>
        <time>2021-04-13T15:18:45Z</time>
      </trkpt>
      <trkpt lat="45.0951" lon="3.50121">
        <ele>501</ele>
        <time>2021-04-13T15:18:46Z</time>
      </trkpt>
      <trkpt lat="45.09513" lon="3.50115">
        <ele>501</ele>
        <time>2021-04-13T15:18:47Z</time>
      </trkpt>
      <trkpt lat="45.09524" lon="3.50089">
        <ele>501</ele>
        <time>2021-04-13T15:18:51Z</time>
      </trkpt>
      <trkpt lat="45.09527" lon="3.50082">
        <ele>501</ele>
        <time>2021-04-13T15:18:52Z</time>
      </trkpt>
      <trkpt lat="45.09529" lon="3.50075">
        <ele>500</ele>
        <time>2021-04-13T15:18:53Z</time>
      </trkpt>
      <trkpt lat="45.09532" lon="3.50069">
        <ele>500</ele>
        <time>2021-04-13T15:18:54Z</time>
      </trkpt>
      <trkpt lat="45.09535" lon="3.50063">
        <ele>500</ele>
        <time>2021-04-13T15:18:55Z</time>
      </trkpt>
      <trkpt lat="45.09537" lon="3.50057">
        <ele>500</ele>
        <time>2021-04-13T15:18:56Z</time>
      </trkpt>
      <trkpt lat="45.0954" lon="3.5005">
        <ele>500</ele>
        <time>2021-04-13T15:18:57Z</time>
      </trkpt>
      <trkpt lat="45.09543" lon="3.50043">
        <ele>500</ele>
        <time>2021-04-13T15:18:58Z</time>
      </trkpt>
      <trkpt lat="45.09549" lon="3.5003">
        <ele>499</ele>
        <time>2021-04-13T15:19:00Z</time>
      </trkpt>
      <trkpt lat="45.09551" lon="3.50023">
        <ele>499</ele>
        <time>2021-04-13T15:19:01Z</time>
      </trkpt>
      <trkpt lat="45.09554" lon="3.50017">
        <ele>499</ele>
        <time>2021-04-13T15:19:02Z</time>
      </trkpt>
      <trkpt lat="45.09558" lon="3.50011">
        <ele>499</ele>
        <time>2021-04-13T15:19:03Z</time>
      </trkpt>
      <trkpt lat="45.0956" lon="3.50004">
        <ele>499</ele>
        <time>2021-04-13T15:19:04Z</time>
      </trkpt>
      <trkpt lat="45.09563" lon="3.49997">
        <ele>499</ele>
        <time>2021-04-13T15:19:05Z</time>
      </trkpt>
      <trkpt lat="45.09566" lon="3.49991">
        <ele>499</ele>
        <time>2021-04-13T15:19:06Z</time>
      </trkpt>
      <trkpt lat="45.0957" lon="3.49985">
        <ele>499</ele>
        <time>2021-04-13T15:19:07Z</time>
      </trkpt>
      <trkpt lat="45.09584" lon="3.49962">
        <ele>499</ele>
        <time>2021-04-13T15:19:11Z</time>
      </trkpt>
      <trkpt lat="45.09587" lon="3.49956">
        <ele>499</ele>
        <time>2021-04-13T15:19:12Z</time>
      </trkpt>
      <trkpt lat="45.09591" lon="3.49951">
        <ele>499</ele>
        <time>2021-04-13T15:19:13Z</time>
      </trkpt>
      <trkpt lat="45.09595" lon="3.49945">
        <ele>499</ele>
        <time>2021-04-13T15:19:14Z</time>
      </trkpt>
      <trkpt lat="45.09599" lon="3.4994">
        <ele>499</ele>
        <time>2021-04-13T15:19:15Z</time>
      </trkpt>
      <trkpt lat="45.09602" lon="3.49935">
        <ele>499</ele>
        <time>2021-04-13T15:19:16Z</time>
      </trkpt>
      <trkpt lat="45.09606" lon="3.49929">
        <ele>499</ele>
        <time>2021-04-13T15:19:17Z</time>
      </trkpt>
      <trkpt lat="45.09609" lon="3.49924">
        <ele>499</ele>
        <time>2021-04-13T15:19:18Z</time>
      </trkpt>
      <trkpt lat="45.09616" lon="3.49912">
        <ele>499</ele>
        <time>2021-04-13T15:19:20Z</time>
      </trkpt>
      <trkpt lat="45.0962" lon="3.49906">
        <ele>499</ele>
        <time>2021-04-13T15:19:21Z</time>
      </trkpt>
      <trkpt lat="45.09623" lon="3.499">
        <ele>499</ele>
        <time>2021-04-13T15:19:22Z</time>
      </trkpt>
      <trkpt lat="45.09627" lon="3.49894">
        <ele>499</ele>
        <time>2021-04-13T15:19:23Z</time>
      </trkpt>
      <trkpt lat="45.0963" lon="3.49888">
        <ele>499</ele>
        <time>2021-04-13T15:19:24Z</time>
      </trkpt>
      <trkpt lat="45.09634" lon="3.49883">
        <ele>499</ele>
        <time>2021-04-13T15:19:25Z</time>
      </trkpt>
      <trkpt lat="45.09637" lon="3.49877">
        <ele>499</ele>
        <time>2021-04-13T15:19:26Z</time>
      </trkpt>
      <trkpt lat="45.09641" lon="3.49871">
        <ele>499</ele>
        <time>2021-04-13T15:19:27Z</time>
      </trkpt>
      <trkpt lat="45.09656" lon="3.49851">
        <ele>499</ele>
        <time>2021-04-13T15:19:31Z</time>
      </trkpt>
      <trkpt lat="45.0966" lon="3.49845">
        <ele>499</ele>
        <time>2021-04-13T15:19:32Z</time>
      </trkpt>
      <trkpt lat="45.09663" lon="3.4984">
        <ele>499</ele>
        <time>2021-04-13T15:19:33Z</time>
      </trkpt>
      <trkpt lat="45.09667" lon="3.49835">
        <ele>499</ele>
        <time>2021-04-13T15:19:34Z</time>
      </trkpt>
      <trkpt lat="45.09671" lon="3.49831">
        <ele>499</ele>
        <time>2021-04-13T15:19:35Z</time>
      </trkpt>
      <trkpt lat="45.09674" lon="3.49826">
        <ele>499</ele>
        <time>2021-04-13T15:19:36Z</time>
      </trkpt>
      <trkpt lat="45.09679" lon="3.49822">
        <ele>499</ele>
        <time>2021-04-13T15:19:37Z</time>
      </trkpt>
      <trkpt lat="45.09683" lon="3.49817">
        <ele>499</ele>
        <time>2021-04-13T15:19:38Z</time>
      </trkpt>
      <trkpt lat="45.09691" lon="3.49809">
        <ele>499</ele>
        <time>2021-04-13T15:19:40Z</time>
      </trkpt>
      <trkpt lat="45.09695" lon="3.49804">
        <ele>499</ele>
        <time>2021-04-13T15:19:41Z</time>
      </trkpt>
      <trkpt lat="45.097" lon="3.49801">
        <ele>499</ele>
        <time>2021-04-13T15:19:42Z</time>
      </trkpt>
      <trkpt lat="45.09704" lon="3.49797">
        <ele>499</ele>
        <time>2021-04-13T15:19:43Z</time>
      </trkpt>
      <trkpt lat="45.09709" lon="3.49793">
        <ele>499</ele>
        <time>2021-04-13T15:19:44Z</time>
      </trkpt>
      <trkpt lat="45.09713" lon="3.49789">
        <ele>499</ele>
        <time>2021-04-13T15:19:45Z</time>
      </trkpt>
      <trkpt lat="45.09718" lon="3.49785">
        <ele>499</ele>
        <time>2021-04-13T15:19:46Z</time>
      </trkpt>
      <trkpt lat="45.09722" lon="3.4978">
        <ele>499</ele>
        <time>2021-04-13T15:19:47Z</time>
      </trkpt>
      <trkpt lat="45.09739" lon="3.49763">
        <ele>499</ele>
        <time>2021-04-13T15:19:51Z</time>
      </trkpt>
      <trkpt lat="45.09743" lon="3.49759">
        <ele>499</ele>
        <time>2021-04-13T15:19:52Z</time>
      </trkpt>
      <trkpt lat="45.09746" lon="3.49756">
        <ele>500</ele>
        <time>2021-04-13T15:19:53Z</time>
      </trkpt>
      <trkpt lat="45.09751" lon="3.49753">
        <ele>500</ele>
        <time>2021-04-13T15:19:54Z</time>
      </trkpt>
      <trkpt lat="45.09755" lon="3.49749">
        <ele>500</ele>
        <time>2021-04-13T15:19:55Z</time>
      </trkpt>
      <trkpt lat="45.09759" lon="3.49745">
        <ele>500</ele>
        <time>2021-04-13T15:19:56Z</time>
      </trkpt>
      <trkpt lat="45.09763" lon="3.49741">
        <ele>499</ele>
        <time>2021-04-13T15:19:57Z</time>
      </trkpt>
      <trkpt lat="45.09767" lon="3.49737">
        <ele>499</ele>
        <time>2021-04-13T15:19:58Z</time>
      </trkpt>
      <trkpt lat="45.09774" lon="3.49732">
        <ele>499</ele>
        <time>2021-04-13T15:20:00Z</time>
      </trkpt>
      <trkpt lat="45.09777" lon="3.49729">
        <ele>499</ele>
        <time>2021-04-13T15:20:01Z</time>
      </trkpt>
      <trkpt lat="45.0978" lon="3.49727">
        <ele>499</ele>
        <time>2021-04-13T15:20:02Z</time>
      </trkpt>
      <trkpt lat="45.09782" lon="3.49725">
        <ele>499</ele>
        <time>2021-04-13T15:20:03Z</time>
      </trkpt>
      <trkpt lat="45.09784" lon="3.49723">
        <ele>499</ele>
        <time>2021-04-13T15:20:04Z</time>
      </trkpt>
      <trkpt lat="45.09786" lon="3.49722">
        <ele>499</ele>
        <time>2021-04-13T15:20:05Z</time>
      </trkpt>
      <trkpt lat="45.09788" lon="3.4972">
        <ele>499</ele>
        <time>2021-04-13T15:20:06Z</time>
      </trkpt>
      <trkpt lat="45.09789" lon="3.49717">
        <ele>499</ele>
        <time>2021-04-13T15:20:07Z</time>
      </trkpt>
      <trkpt lat="45.09792" lon="3.49702">
        <ele>498</ele>
        <time>2021-04-13T15:20:11Z</time>
      </trkpt>
      <trkpt lat="45.09792" lon="3.49698">
        <ele>498</ele>
        <time>2021-04-13T15:20:12Z</time>
      </trkpt>
      <trkpt lat="45.09794" lon="3.49696">
        <ele>498</ele>
        <time>2021-04-13T15:20:13Z</time>
      </trkpt>
      <trkpt lat="45.09796" lon="3.49694">
        <ele>498</ele>
        <time>2021-04-13T15:20:14Z</time>
      </trkpt>
      <trkpt lat="45.09799" lon="3.49694">
        <ele>498</ele>
        <time>2021-04-13T15:20:15Z</time>
      </trkpt>
      <trkpt lat="45.09801" lon="3.49694">
        <ele>499</ele>
        <time>2021-04-13T15:20:16Z</time>
      </trkpt>
      <trkpt lat="45.09806" lon="3.49697">
        <ele>499</ele>
        <time>2021-04-13T15:20:18Z</time>
      </trkpt>
      <trkpt lat="45.09808" lon="3.49699">
        <ele>499</ele>
        <time>2021-04-13T15:20:19Z</time>
      </trkpt>
      <trkpt lat="45.09812" lon="3.49701">
        <ele>499</ele>
        <time>2021-04-13T15:20:21Z</time>
      </trkpt>
      <trkpt lat="45.09814" lon="3.49702">
        <ele>499</ele>
        <time>2021-04-13T15:20:22Z</time>
      </trkpt>
      <trkpt lat="45.09817" lon="3.49703">
        <ele>499</ele>
        <time>2021-04-13T15:20:23Z</time>
      </trkpt>
      <trkpt lat="45.09819" lon="3.49704">
        <ele>499</ele>
        <time>2021-04-13T15:20:24Z</time>
      </trkpt>
      <trkpt lat="45.09821" lon="3.49707">
        <ele>499</ele>
        <time>2021-04-13T15:20:25Z</time>
      </trkpt>
      <trkpt lat="45.09824" lon="3.4971">
        <ele>499</ele>
        <time>2021-04-13T15:20:26Z</time>
      </trkpt>
      <trkpt lat="45.09828" lon="3.49713">
        <ele>499</ele>
        <time>2021-04-13T15:20:27Z</time>
      </trkpt>
      <trkpt lat="45.09831" lon="3.49715">
        <ele>499</ele>
        <time>2021-04-13T15:20:28Z</time>
      </trkpt>
      <trkpt lat="45.09843" lon="3.49724">
        <ele>500</ele>
        <time>2021-04-13T15:20:32Z</time>
      </trkpt>
      <trkpt lat="45.09846" lon="3.49726">
        <ele>500</ele>
        <time>2021-04-13T15:20:33Z</time>
      </trkpt>
      <trkpt lat="45.09849" lon="3.49729">
        <ele>500</ele>
        <time>2021-04-13T15:20:34Z</time>
      </trkpt>
      <trkpt lat="45.09852" lon="3.49731">
        <ele>500</ele>
        <time>2021-04-13T15:20:35Z</time>
      </trkpt>
      <trkpt lat="45.09854" lon="3.49733">
        <ele>500</ele>
        <time>2021-04-13T15:20:36Z</time>
      </trkpt>
      <trkpt lat="45.09857" lon="3.49735">
        <ele>500</ele>
        <time>2021-04-13T15:20:37Z</time>
      </trkpt>
      <trkpt lat="45.0986" lon="3.49736">
        <ele>501</ele>
        <time>2021-04-13T15:20:38Z</time>
      </trkpt>
      <trkpt lat="45.09863" lon="3.49737">
        <ele>500</ele>
        <time>2021-04-13T15:20:39Z</time>
      </trkpt>
      <trkpt lat="45.0987" lon="3.49739">
        <ele>500</ele>
        <time>2021-04-13T15:20:41Z</time>
      </trkpt>
      <trkpt lat="45.09874" lon="3.49741">
        <ele>500</ele>
        <time>2021-04-13T15:20:42Z</time>
      </trkpt>
      <trkpt lat="45.09877" lon="3.49742">
        <ele>500</ele>
        <time>2021-04-13T15:20:43Z</time>
      </trkpt>
      <trkpt lat="45.0988" lon="3.49744">
        <ele>500</ele>
        <time>2021-04-13T15:20:44Z</time>
      </trkpt>
      <trkpt lat="45.09884" lon="3.49745">
        <ele>500</ele>
        <time>2021-04-13T15:20:45Z</time>
      </trkpt>
      <trkpt lat="45.09888" lon="3.49747">
        <ele>500</ele>
        <time>2021-04-13T15:20:46Z</time>
      </trkpt>
      <trkpt lat="45.09892" lon="3.49749">
        <ele>500</ele>
        <time>2021-04-13T15:20:47Z</time>
      </trkpt>
      <trkpt lat="45.09895" lon="3.4975">
        <ele>500</ele>
        <time>2021-04-13T15:20:48Z</time>
      </trkpt>
      <trkpt lat="45.09911" lon="3.49758">
        <ele>500</ele>
        <time>2021-04-13T15:20:52Z</time>
      </trkpt>
      <trkpt lat="45.09915" lon="3.4976">
        <ele>500</ele>
        <time>2021-04-13T15:20:53Z</time>
      </trkpt>
      <trkpt lat="45.09919" lon="3.49762">
        <ele>500</ele>
        <time>2021-04-13T15:20:54Z</time>
      </trkpt>
      <trkpt lat="45.09924" lon="3.49763">
        <ele>500</ele>
        <time>2021-04-13T15:20:55Z</time>
      </trkpt>
      <trkpt lat="45.09928" lon="3.49765">
        <ele>500</ele>
        <time>2021-04-13T15:20:56Z</time>
      </trkpt>
      <trkpt lat="45.09932" lon="3.49766">
        <ele>500</ele>
        <time>2021-04-13T15:20:57Z</time>
      </trkpt>
      <trkpt lat="45.09936" lon="3.49768">
        <ele>500</ele>
        <time>2021-04-13T15:20:58Z</time>
      </trkpt>
      <trkpt lat="45.0994" lon="3.49769">
        <ele>500</ele>
        <time>2021-04-13T15:20:59Z</time>
      </trkpt>
      <trkpt lat="45.09948" lon="3.49772">
        <ele>500</ele>
        <time>2021-04-13T15:21:01Z</time>
      </trkpt>
      <trkpt lat="45.09953" lon="3.49773">
        <ele>500</ele>
        <time>2021-04-13T15:21:02Z</time>
      </trkpt>
      <trkpt lat="45.09956" lon="3.49774">
        <ele>500</ele>
        <time>2021-04-13T15:21:03Z</time>
      </trkpt>
      <trkpt lat="45.0996" lon="3.49774">
        <ele>500</ele>
        <time>2021-04-13T15:21:04Z</time>
      </trkpt>
      <trkpt lat="45.09964" lon="3.49775">
        <ele>500</ele>
        <time>2021-04-13T15:21:05Z</time>
      </trkpt>
      <trkpt lat="45.09968" lon="3.49775">
        <ele>500</ele>
        <time>2021-04-13T15:21:06Z</time>
      </trkpt>
      <trkpt lat="45.09971" lon="3.49776">
        <ele>500</ele>
        <time>2021-04-13T15:21:07Z</time>
      </trkpt>
      <trkpt lat="45.09975" lon="3.49777">
        <ele>500</ele>
        <time>2021-04-13T15:21:08Z</time>
      </trkpt>
      <trkpt lat="45.09989" lon="3.49779">
        <ele>500</ele>
        <time>2021-04-13T15:21:12Z</time>
      </trkpt>
      <trkpt lat="45.09993" lon="3.49779">
        <ele>500</ele>
        <time>2021-04-13T15:21:13Z</time>
      </trkpt>
      <trkpt lat="45.09996" lon="3.4978">
        <ele>499</ele>
        <time>2021-04-13T15:21:14Z</time>
      </trkpt>
      <trkpt lat="45.1" lon="3.49781">
        <ele>499</ele>
        <time>2021-04-13T15:21:15Z</time>
      </trkpt>
      <trkpt lat="45.10004" lon="3.49781">
        <ele>499</ele>
        <time>2021-04-13T15:21:16Z</time>
      </trkpt>
      <trkpt lat="45.10007" lon="3.49782">
        <ele>499</ele>
        <time>2021-04-13T15:21:17Z</time>
      </trkpt>
      <trkpt lat="45.10011" lon="3.49783">
        <ele>499</ele>
        <time>2021-04-13T15:21:18Z</time>
      </trkpt>
      <trkpt lat="45.10014" lon="3.49784">
        <ele>499</ele>
        <time>2021-04-13T15:21:19Z</time>
      </trkpt>
      <trkpt lat="45.1002" lon="3.49787">
        <ele>499</ele>
        <time>2021-04-13T15:21:21Z</time>
      </trkpt>
      <trkpt lat="45.10023" lon="3.49789">
        <ele>499</ele>
        <time>2021-04-13T15:21:22Z</time>
      </trkpt>
      <trkpt lat="45.10026" lon="3.49791">
        <ele>499</ele>
        <time>2021-04-13T15:21:23Z</time>
      </trkpt>
      <trkpt lat="45.10029" lon="3.49793">
        <ele>499</ele>
        <time>2021-04-13T15:21:24Z</time>
      </trkpt>
      <trkpt lat="45.10031" lon="3.49795">
        <ele>499</ele>
        <time>2021-04-13T15:21:25Z</time>
      </trkpt>
      <trkpt lat="45.10034" lon="3.49797">
        <ele>499</ele>
        <time>2021-04-13T15:21:26Z</time>
      </trkpt>
      <trkpt lat="45.10037" lon="3.49799">
        <ele>499</ele>
        <time>2021-04-13T15:21:27Z</time>
      </trkpt>
      <trkpt lat="45.1004" lon="3.49801">
        <ele>499</ele>
        <time>2021-04-13T15:21:28Z</time>
      </trkpt>
      <trkpt lat="45.10051" lon="3.49809">
        <ele>498</ele>
        <time>2021-04-13T15:21:32Z</time>
      </trkpt>
      <trkpt lat="45.10053" lon="3.49811">
        <ele>498</ele>
        <time>2021-04-13T15:21:33Z</time>
      </trkpt>
      <trkpt lat="45.10056" lon="3.49812">
        <ele>499</ele>
        <time>2021-04-13T15:21:34Z</time>
      </trkpt>
      <trkpt lat="45.10058" lon="3.49814">
        <ele>499</ele>
        <time>2021-04-13T15:21:35Z</time>
      </trkpt>
      <trkpt lat="45.1006" lon="3.49816">
        <ele>499</ele>
        <time>2021-04-13T15:21:36Z</time>
      </trkpt>
      <trkpt lat="45.10062" lon="3.49818">
        <ele>498</ele>
        <time>2021-04-13T15:21:37Z</time>
      </trkpt>
      <trkpt lat="45.10064" lon="3.49819">
        <ele>498</ele>
        <time>2021-04-13T15:21:38Z</time>
      </trkpt>
      <trkpt lat="45.10066" lon="3.49821">
        <ele>498</ele>
        <time>2021-04-13T15:21:39Z</time>
      </trkpt>
      <trkpt lat="45.10071" lon="3.49824">
        <ele>498</ele>
        <time>2021-04-13T15:21:41Z</time>
      </trkpt>
      <trkpt lat="45.10073" lon="3.49826">
        <ele>498</ele>
        <time>2021-04-13T15:21:42Z</time>
      </trkpt>
      <trkpt lat="45.10076" lon="3.49829">
        <ele>498</ele>
        <time>2021-04-13T15:21:43Z</time>
      </trkpt>
      <trkpt lat="45.1008" lon="3.49831">
        <ele>498</ele>
        <time>2021-04-13T15:21:44Z</time>
      </trkpt>
      <trkpt lat="45.10084" lon="3.49834">
        <ele>498</ele>
        <time>2021-04-13T15:21:45Z</time>
      </trkpt>
      <trkpt lat="45.10088" lon="3.49837">
        <ele>498</ele>
        <time>2021-04-13T15:21:46Z</time>
      </trkpt>
      <trkpt lat="45.10091" lon="3.4984">
        <ele>498</ele>
        <time>2021-04-13T15:21:47Z</time>
      </trkpt>
      <trkpt lat="45.10094" lon="3.49843">
        <ele>498</ele>
        <time>2021-04-13T15:21:48Z</time>
      </trkpt>
      <trkpt lat="45.10106" lon="3.49856">
        <ele>498</ele>
        <time>2021-04-13T15:21:52Z</time>
      </trkpt>
      <trkpt lat="45.10108" lon="3.4986">
        <ele>499</ele>
        <time>2021-04-13T15:21:53Z</time>
      </trkpt>
      <trkpt lat="45.10111" lon="3.49864">
        <ele>499</ele>
        <time>2021-04-13T15:21:54Z</time>
      </trkpt>
      <trkpt lat="45.10114" lon="3.49868">
        <ele>499</ele>
        <time>2021-04-13T15:21:55Z</time>
      </trkpt>
      <trkpt lat="45.10117" lon="3.49872">
        <ele>499</ele>
        <time>2021-04-13T15:21:56Z</time>
      </trkpt>
      <trkpt lat="45.1012" lon="3.49876">
        <ele>499</ele>
        <time>2021-04-13T15:21:57Z</time>
      </trkpt>
      <trkpt lat="45.10123" lon="3.4988">
        <ele>499</ele>
        <time>2021-04-13T15:21:58Z</time>
      </trkpt>
      <trkpt lat="45.10126" lon="3.49884">
        <ele>499</ele>
        <time>2021-04-13T15:21:59Z</time>
      </trkpt>
      <trkpt lat="45.10133" lon="3.49891">
        <ele>499</ele>
        <time>2021-04-13T15:22:01Z</time>
      </trkpt>
      <trkpt lat="45.10136" lon="3.49895">
        <ele>499</ele>
        <time>2021-04-13T15:22:02Z</time>
      </trkpt>
      <trkpt lat="45.10139" lon="3.49899">
        <ele>499</ele>
        <time>2021-04-13T15:22:03Z</time>
      </trkpt>
      <trkpt lat="45.10142" lon="3.49902">
        <ele>499</ele>
        <time>2021-04-13T15:22:04Z</time>
      </trkpt>
      <trkpt lat="45.10145" lon="3.49906">
        <ele>499</ele>
        <time>2021-04-13T15:22:05Z</time>
      </trkpt>
      <trkpt lat="45.10149" lon="3.4991">
        <ele>499</ele>
        <time>2021-04-13T15:22:06Z</time>
      </trkpt>
      <trkpt lat="45.10152" lon="3.49914">
        <ele>499</ele>
        <time>2021-04-13T15:22:07Z</time>
      </trkpt>
      <trkpt lat="45.10156" lon="3.49917">
        <ele>499</ele>
        <time>2021-04-13T15:22:08Z</time>
      </trkpt>
      <trkpt lat="45.10171" lon="3.4993">
        <ele>498</ele>
        <time>2021-04-13T15:22:12Z</time>
      </trkpt>
      <trkpt lat="45.10175" lon="3.49933">
        <ele>498</ele>
        <time>2021-04-13T15:22:13Z</time>
      </trkpt>
      <trkpt lat="45.10178" lon="3.49935">
        <ele>498</ele>
        <time>2021-04-13T15:22:14Z</time>
      </trkpt>
      <trkpt lat="45.10182" lon="3.49938">
        <ele>498</ele>
        <time>2021-04-13T15:22:15Z</time>
      </trkpt>
      <trkpt lat="45.10186" lon="3.49941">
        <ele>498</ele>
        <time>2021-04-13T15:22:16Z</time>
      </trkpt>
      <trkpt lat="45.1019" lon="3.49943">
        <ele>498</ele>
        <time>2021-04-13T15:22:17Z</time>
      </trkpt>
      <trkpt lat="45.10194" lon="3.49946">
        <ele>498</ele>
        <time>2021-04-13T15:22:18Z</time>
      </trkpt>
      <trkpt lat="45.10198" lon="3.49949">
        <ele>498</ele>
        <time>2021-04-13T15:22:19Z</time>
      </trkpt>
      <trkpt lat="45.10205" lon="3.49954">
        <ele>499</ele>
        <time>2021-04-13T15:22:21Z</time>
      </trkpt>
      <trkpt lat="45.10209" lon="3.49957">
        <ele>499</ele>
        <time>2021-04-13T15:22:22Z</time>
      </trkpt>
      <trkpt lat="45.10212" lon="3.49959">
        <ele>499</ele>
        <time>2021-04-13T15:22:23Z</time>
      </trkpt>
      <trkpt lat="45.10215" lon="3.49962">
        <ele>499</ele>
        <time>2021-04-13T15:22:24Z</time>
      </trkpt>
      <trkpt lat="45.10218" lon="3.49964">
        <ele>499</ele>
        <time>2021-04-13T15:22:25Z</time>
      </trkpt>
      <trkpt lat="45.10221" lon="3.49966">
        <ele>499</ele>
        <time>2021-04-13T15:22:26Z</time>
      </trkpt>
      <trkpt lat="45.10224" lon="3.49967">
        <ele>499</ele>
        <time>2021-04-13T15:22:27Z</time>
      </trkpt>
      <trkpt lat="45.10227" lon="3.49965">
        <ele>499</ele>
        <time>2021-04-13T15:22:28Z</time>
      </trkpt>
      <trkpt lat="45.1023" lon="3.49954">
        <ele>499</ele>
        <time>2021-04-13T15:22:32Z</time>
      </trkpt>
      <trkpt lat="45.10226" lon="3.49948">
        <ele>499</ele>
        <time>2021-04-13T15:22:34Z</time>
      </trkpt>
      <trkpt lat="45.10224" lon="3.49947">
        <ele>499</ele>
        <time>2021-04-13T15:22:35Z</time>
      </trkpt>
      <trkpt lat="45.10221" lon="3.49945">
        <ele>499</ele>
        <time>2021-04-13T15:22:36Z</time>
      </trkpt>
      <trkpt lat="45.10218" lon="3.49943">
        <ele>499</ele>
        <time>2021-04-13T15:22:37Z</time>
      </trkpt>
      <trkpt lat="45.10215" lon="3.49942">
        <ele>499</ele>
        <time>2021-04-13T15:22:38Z</time>
      </trkpt>
      <trkpt lat="45.10212" lon="3.4994">
        <ele>499</ele>
        <time>2021-04-13T15:22:39Z</time>
      </trkpt>
      <trkpt lat="45.10209" lon="3.49938">
        <ele>499</ele>
        <time>2021-04-13T15:22:40Z</time>
      </trkpt>
      <trkpt lat="45.10203" lon="3.49934">
        <ele>499</ele>
        <time>2021-04-13T15:22:42Z</time>
      </trkpt>
      <trkpt lat="45.10201" lon="3.49932">
        <ele>499</ele>
        <time>2021-04-13T15:22:43Z</time>
      </trkpt>
      <trkpt lat="45.10198" lon="3.49929">
        <ele>499</ele>
        <time>2021-04-13T15:22:44Z</time>
      </trkpt>
      <trkpt lat="45.10195" lon="3.49927">
        <ele>499</ele>
        <time>2021-04-13T15:22:45Z</time>
      </trkpt>
      <trkpt lat="45.10193" lon="3.49923">
        <ele>499</ele>
        <time>2021-04-13T15:22:46Z</time>
      </trkpt>
      <trkpt lat="45.10192" lon="3.49919">
        <ele>499</ele>
        <time>2021-04-13T15:22:47Z</time>
      </trkpt>
      <trkpt lat="45.10192" lon="3.49914">
        <ele>499</ele>
        <time>2021-04-13T15:22:48Z</time>
      </trkpt>
      <trkpt lat="45.10193" lon="3.49909">
        <ele>499</ele>
        <time>2021-04-13T15:22:49Z</time>
      </trkpt>
      <trkpt lat="45.10194" lon="3.4989">
        <ele>500</ele>
        <time>2021-04-13T15:22:53Z</time>
      </trkpt>
      <trkpt lat="45.10194" lon="3.49885">
        <ele>500</ele>
        <time>2021-04-13T15:22:54Z</time>
      </trkpt>
      <trkpt lat="45.10194" lon="3.4988">
        <ele>500</ele>
        <time>2021-04-13T15:22:55Z</time>
      </trkpt>
      <trkpt lat="45.10194" lon="3.49875">
        <ele>500</ele>
        <time>2021-04-13T15:22:56Z</time>
      </trkpt>
      <trkpt lat="45.10194" lon="3.49869">
        <ele>500</ele>
        <time>2021-04-13T15:22:57Z</time>
      </trkpt>
      <trkpt lat="45.10194" lon="3.49865">
        <ele>501</ele>
        <time>2021-04-13T15:22:58Z</time>
      </trkpt>
      <trkpt lat="45.10194" lon="3.4986">
        <ele>501</ele>
        <time>2021-04-13T15:22:59Z</time>
      </trkpt>
      <trkpt lat="45.10194" lon="3.49855">
        <ele>501</ele>
        <time>2021-04-13T15:23:00Z</time>
      </trkpt>
      <trkpt lat="45.10195" lon="3.49844">
        <ele>501</ele>
        <time>2021-04-13T15:23:02Z</time>
      </trkpt>
      <trkpt lat="45.10195" lon="3.49839">
        <ele>501</ele>
        <time>2021-04-13T15:23:03Z</time>
      </trkpt>
      <trkpt lat="45.10195" lon="3.49834">
        <ele>501</ele>
        <time>2021-04-13T15:23:04Z</time>
      </trkpt>
      <trkpt lat="45.10196" lon="3.49828">
        <ele>501</ele>
        <time>2021-04-13T15:23:05Z</time>
      </trkpt>
      <trkpt lat="45.10196" lon="3.49823">
        <ele>501</ele>
        <time>2021-04-13T15:23:06Z</time>
      </trkpt>
      <trkpt lat="45.10196" lon="3.49818">
        <ele>501</ele>
        <time>2021-04-13T15:23:07Z</time>
      </trkpt>
      <trkpt lat="45.10196" lon="3.49812">
        <ele>501</ele>
        <time>2021-04-13T15:23:08Z</time>
      </trkpt>
      <trkpt lat="45.10196" lon="3.49807">
        <ele>502</ele>
        <time>2021-04-13T15:23:09Z</time>
      </trkpt>
      <trkpt lat="45.10197" lon="3.49786">
        <ele>502</ele>
        <time>2021-04-13T15:23:13Z</time>
      </trkpt>
      <trkpt lat="45.10198" lon="3.49781">
        <ele>502</ele>
        <time>2021-04-13T15:23:14Z</time>
      </trkpt>
      <trkpt lat="45.10198" lon="3.49776">
        <ele>502</ele>
        <time>2021-04-13T15:23:15Z</time>
      </trkpt>
      <trkpt lat="45.10198" lon="3.49772">
        <ele>502</ele>
        <time>2021-04-13T15:23:16Z</time>
      </trkpt>
      <trkpt lat="45.10198" lon="3.49768">
        <ele>502</ele>
        <time>2021-04-13T15:23:17Z</time>
      </trkpt>
      <trkpt lat="45.10198" lon="3.49765">
        <ele>502</ele>
        <time>2021-04-13T15:23:18Z</time>
      </trkpt>
      <trkpt lat="45.10199" lon="3.49763">
        <ele>502</ele>
        <time>2021-04-13T15:23:19Z</time>
      </trkpt>
      <trkpt lat="45.10201" lon="3.4976">
        <ele>502</ele>
        <time>2021-04-13T15:23:21Z</time>
      </trkpt>
      <trkpt lat="45.10213" lon="3.49745">
        <ele>503</ele>
        <time>2021-04-13T15:23:33Z</time>
      </trkpt>
      <trkpt lat="45.10214" lon="3.49739">
        <ele>503</ele>
        <time>2021-04-13T15:23:34Z</time>
      </trkpt>
      <trkpt lat="45.10214" lon="3.49733">
        <ele>503</ele>
        <time>2021-04-13T15:23:35Z</time>
      </trkpt>
      <trkpt lat="45.10213" lon="3.49726">
        <ele>503</ele>
        <time>2021-04-13T15:23:36Z</time>
      </trkpt>
      <trkpt lat="45.10211" lon="3.4972">
        <ele>503</ele>
        <time>2021-04-13T15:23:37Z</time>
      </trkpt>
      <trkpt lat="45.10209" lon="3.49714">
        <ele>503</ele>
        <time>2021-04-13T15:23:38Z</time>
      </trkpt>
      <trkpt lat="45.10207" lon="3.49708">
        <ele>503</ele>
        <time>2021-04-13T15:23:39Z</time>
      </trkpt>
      <trkpt lat="45.10206" lon="3.49701">
        <ele>503</ele>
        <time>2021-04-13T15:23:40Z</time>
      </trkpt>
      <trkpt lat="45.10204" lon="3.49675">
        <ele>503</ele>
        <time>2021-04-13T15:23:44Z</time>
      </trkpt>
      <trkpt lat="45.10204" lon="3.49669">
        <ele>504</ele>
        <time>2021-04-13T15:23:45Z</time>
      </trkpt>
      <trkpt lat="45.10204" lon="3.49662">
        <ele>504</ele>
        <time>2021-04-13T15:23:46Z</time>
      </trkpt>
      <trkpt lat="45.10204" lon="3.49656">
        <ele>504</ele>
        <time>2021-04-13T15:23:47Z</time>
      </trkpt>
      <trkpt lat="45.10204" lon="3.49649">
        <ele>504</ele>
        <time>2021-04-13T15:23:48Z</time>
      </trkpt>
      <trkpt lat="45.10204" lon="3.49643">
        <ele>504</ele>
        <time>2021-04-13T15:23:49Z</time>
      </trkpt>
      <trkpt lat="45.10204" lon="3.49637">
        <ele>504</ele>
        <time>2021-04-13T15:23:50Z</time>
      </trkpt>
      <trkpt lat="45.10205" lon="3.4963">
        <ele>504</ele>
        <time>2021-04-13T15:23:51Z</time>
      </trkpt>
      <trkpt lat="45.10206" lon="3.49618">
        <ele>504</ele>
        <time>2021-04-13T15:23:53Z</time>
      </trkpt>
      <trkpt lat="45.10206" lon="3.49611">
        <ele>505</ele>
        <time>2021-04-13T15:23:54Z</time>
      </trkpt>
      <trkpt lat="45.10207" lon="3.49605">
        <ele>505</ele>
        <time>2021-04-13T15:23:55Z</time>
      </trkpt>
      <trkpt lat="45.10207" lon="3.49598">
        <ele>505</ele>
        <time>2021-04-13T15:23:56Z</time>
      </trkpt>
      <trkpt lat="45.10207" lon="3.49592">
        <ele>505</ele>
        <time>2021-04-13T15:23:57Z</time>
      </trkpt>
      <trkpt lat="45.10207" lon="3.49585">
        <ele>505</ele>
        <time>2021-04-13T15:23:58Z</time>
      </trkpt>
      <trkpt lat="45.10207" lon="3.49579">
        <ele>505</ele>
        <time>2021-04-13T15:23:59Z</time>
      </trkpt>
      <trkpt lat="45.10207" lon="3.49572">
        <ele>505</ele>
        <time>2021-04-13T15:24:00Z</time>
      </trkpt>
      <trkpt lat="45.10205" lon="3.49544">
        <ele>506</ele>
        <time>2021-04-13T15:24:04Z</time>
      </trkpt>
      <trkpt lat="45.10205" lon="3.49537">
        <ele>506</ele>
        <time>2021-04-13T15:24:05Z</time>
      </trkpt>
      <trkpt lat="45.10204" lon="3.4953">
        <ele>506</ele>
        <time>2021-04-13T15:24:06Z</time>
      </trkpt>
      <trkpt lat="45.10189" lon="3.49442">
        <ele>506.1</ele>
      </trkpt>
      <trkpt lat="45.10324" lon="3.49368">
        <ele>504.4</ele>
      </trkpt>
      <trkpt lat="45.10554" lon="3.49283">
        <ele>504.2</ele>
      </trkpt>
      <trkpt lat="45.10612" lon="3.49259">
        <ele>503.4</ele>
      </trkpt>
      <trkpt lat="45.10663" lon="3.49227">
        <ele>501.2</ele>
      </trkpt>
      <trkpt lat="45.10896" lon="3.49203">
        <ele>499.4</ele>
      </trkpt>
      <trkpt lat="45.10983" lon="3.49196">
        <ele>499.7</ele>
      </trkpt>
      <trkpt lat="45.11027" lon="3.49177">
        <ele>499.2</ele>
      </trkpt>
      <trkpt lat="45.11081" lon="3.49159">
        <ele>498.3</ele>
      </trkpt>
      <trkpt lat="45.1118" lon="3.49137">
        <ele>499</ele>
      </trkpt>
      <trkpt lat="45.11287" lon="3.49231">
        <ele>495</ele>
        <time>2021-04-12T08:10:28Z</time>
      </trkpt>
      <trkpt lat="45.11287" lon="3.49231">
        <ele>495</ele>
        <time>2021-04-12T08:10:28Z</time>
      </trkpt>
      <trkpt lat="45.11287" lon="3.49231">
        <ele>495</ele>
        <time>2021-04-12T08:10:28Z</time>
      </trkpt>
      <trkpt lat="45.11304" lon="3.49222">
        <ele>500</ele>
        <time>2021-04-12T08:10:32Z</time>
      </trkpt>
      <trkpt lat="45.11312" lon="3.49212">
        <ele>500</ele>
        <time>2021-04-12T08:10:33Z</time>
      </trkpt>
      <trkpt lat="45.11316" lon="3.49205">
        <ele>499</ele>
        <time>2021-04-12T08:10:35Z</time>
      </trkpt>
      <trkpt lat="45.1132" lon="3.49198">
        <ele>499</ele>
        <time>2021-04-12T08:10:36Z</time>
      </trkpt>
      <trkpt lat="45.11325" lon="3.49193">
        <ele>499</ele>
        <time>2021-04-12T08:10:37Z</time>
      </trkpt>
      <trkpt lat="45.1133" lon="3.49187">
        <ele>499</ele>
        <time>2021-04-12T08:10:38Z</time>
      </trkpt>
      <trkpt lat="45.11335" lon="3.49182">
        <ele>499</ele>
        <time>2021-04-12T08:10:39Z</time>
      </trkpt>
      <trkpt lat="45.1134" lon="3.49177">
        <ele>498</ele>
        <time>2021-04-12T08:10:40Z</time>
      </trkpt>
      <trkpt lat="45.11351" lon="3.49166">
        <ele>498</ele>
        <time>2021-04-12T08:10:42Z</time>
      </trkpt>
      <trkpt lat="45.11357" lon="3.49161">
        <ele>498</ele>
        <time>2021-04-12T08:10:43Z</time>
      </trkpt>
      <trkpt lat="45.11362" lon="3.49156">
        <ele>498</ele>
        <time>2021-04-12T08:10:44Z</time>
      </trkpt>
      <trkpt lat="45.11368" lon="3.4915">
        <ele>498</ele>
        <time>2021-04-12T08:10:45Z</time>
      </trkpt>
      <trkpt lat="45.11373" lon="3.49145">
        <ele>498</ele>
        <time>2021-04-12T08:10:46Z</time>
      </trkpt>
      <trkpt lat="45.11378" lon="3.4914">
        <ele>498</ele>
        <time>2021-04-12T08:10:47Z</time>
      </trkpt>
      <trkpt lat="45.11384" lon="3.49134">
        <ele>498</ele>
        <time>2021-04-12T08:10:48Z</time>
      </trkpt>
      <trkpt lat="45.11389" lon="3.49129">
        <ele>498</ele>
        <time>2021-04-12T08:10:49Z</time>
      </trkpt>
      <trkpt lat="45.1141" lon="3.49108">
        <ele>497</ele>
        <time>2021-04-12T08:10:53Z</time>
      </trkpt>
      <trkpt lat="45.11415" lon="3.49103">
        <ele>497</ele>
        <time>2021-04-12T08:10:54Z</time>
      </trkpt>
      <trkpt lat="45.11421" lon="3.49098">
        <ele>497</ele>
        <time>2021-04-12T08:10:55Z</time>
      </trkpt>
      <trkpt lat="45.11426" lon="3.49093">
        <ele>497</ele>
        <time>2021-04-12T08:10:56Z</time>
      </trkpt>
      <trkpt lat="45.11431" lon="3.49088">
        <ele>497</ele>
        <time>2021-04-12T08:10:57Z</time>
      </trkpt>
      <trkpt lat="45.11437" lon="3.49083">
        <ele>497</ele>
        <time>2021-04-12T08:10:58Z</time>
      </trkpt>
      <trkpt lat="45.11442" lon="3.49078">
        <ele>498</ele>
        <time>2021-04-12T08:10:59Z</time>
      </trkpt>
      <trkpt lat="45.11453" lon="3.49069">
        <ele>498</ele>
        <time>2021-04-12T08:11:00Z</time>
      </trkpt>
      <trkpt lat="45.11464" lon="3.4906">
        <ele>498</ele>
        <time>2021-04-12T08:11:03Z</time>
      </trkpt>
      <trkpt lat="45.1147" lon="3.49056">
        <ele>498</ele>
        <time>2021-04-12T08:11:04Z</time>
      </trkpt>
      <trkpt lat="45.11482" lon="3.4905">
        <ele>499</ele>
        <time>2021-04-12T08:11:05Z</time>
      </trkpt>
      <trkpt lat="45.11488" lon="3.49047">
        <ele>499</ele>
        <time>2021-04-12T08:11:06Z</time>
      </trkpt>
      <trkpt lat="45.11494" lon="3.49045">
        <ele>499</ele>
        <time>2021-04-12T08:11:07Z</time>
      </trkpt>
      <trkpt lat="45.115" lon="3.49043">
        <ele>499</ele>
        <time>2021-04-12T08:11:08Z</time>
      </trkpt>
      <trkpt lat="45.11506" lon="3.49041">
        <ele>500</ele>
        <time>2021-04-12T08:11:10Z</time>
      </trkpt>
      <trkpt lat="45.11519" lon="3.49038">
        <ele>500</ele>
        <time>2021-04-12T08:11:12Z</time>
      </trkpt>
      <trkpt lat="45.11544" lon="3.49037">
        <ele>501</ele>
        <time>2021-04-12T08:11:16Z</time>
      </trkpt>
      <trkpt lat="45.11557" lon="3.49037">
        <ele>501</ele>
        <time>2021-04-12T08:11:17Z</time>
      </trkpt>
      <trkpt lat="45.11563" lon="3.49037">
        <ele>501</ele>
        <time>2021-04-12T08:11:18Z</time>
      </trkpt>
      <trkpt lat="45.11569" lon="3.49037">
        <ele>501</ele>
        <time>2021-04-12T08:11:19Z</time>
      </trkpt>
      <trkpt lat="45.11575" lon="3.49037">
        <ele>501</ele>
        <time>2021-04-12T08:11:20Z</time>
      </trkpt>
      <trkpt lat="45.11581" lon="3.49037">
        <ele>502</ele>
        <time>2021-04-12T08:11:21Z</time>
      </trkpt>
      <trkpt lat="45.11586" lon="3.49037">
        <ele>502</ele>
        <time>2021-04-12T08:11:22Z</time>
      </trkpt>
      <trkpt lat="45.11591" lon="3.49037">
        <ele>502</ele>
        <time>2021-04-12T08:11:23Z</time>
      </trkpt>
      <trkpt lat="45.11599" lon="3.49037">
        <ele>502</ele>
        <time>2021-04-12T08:11:25Z</time>
      </trkpt>
      <trkpt lat="45.11602" lon="3.49036">
        <ele>503</ele>
        <time>2021-04-12T08:11:27Z</time>
      </trkpt>
      <trkpt lat="45.11605" lon="3.49035">
        <ele>503</ele>
        <time>2021-04-12T08:11:28Z</time>
      </trkpt>
      <trkpt lat="45.11608" lon="3.49033">
        <ele>503</ele>
        <time>2021-04-12T08:11:29Z</time>
      </trkpt>
      <trkpt lat="45.11611" lon="3.49031">
        <ele>503</ele>
        <time>2021-04-12T08:11:30Z</time>
      </trkpt>
      <trkpt lat="45.11615" lon="3.4903">
        <ele>503</ele>
        <time>2021-04-12T08:11:31Z</time>
      </trkpt>
      <trkpt lat="45.11619" lon="3.49031">
        <ele>503</ele>
        <time>2021-04-12T08:11:32Z</time>
      </trkpt>
      <trkpt lat="45.11623" lon="3.49032">
        <ele>503</ele>
        <time>2021-04-12T08:11:33Z</time>
      </trkpt>
      <trkpt lat="45.11644" lon="3.49023">
        <ele>502</ele>
        <time>2021-04-12T08:11:37Z</time>
      </trkpt>
      <trkpt lat="45.11657" lon="3.49017">
        <ele>502</ele>
        <time>2021-04-12T08:11:38Z</time>
      </trkpt>
      <trkpt lat="45.11664" lon="3.49013">
        <ele>501</ele>
        <time>2021-04-12T08:11:39Z</time>
      </trkpt>
      <trkpt lat="45.11671" lon="3.49011">
        <ele>501</ele>
        <time>2021-04-12T08:11:40Z</time>
      </trkpt>
      <trkpt lat="45.11678" lon="3.4901">
        <ele>501</ele>
        <time>2021-04-12T08:11:41Z</time>
      </trkpt>
      <trkpt lat="45.11685" lon="3.4901">
        <ele>501</ele>
        <time>2021-04-12T08:11:42Z</time>
      </trkpt>
      <trkpt lat="45.11691" lon="3.4901">
        <ele>500</ele>
        <time>2021-04-12T08:11:43Z</time>
      </trkpt>
      <trkpt lat="45.11703" lon="3.49007">
        <ele>500</ele>
        <time>2021-04-12T08:11:45Z</time>
      </trkpt>
      <trkpt lat="45.11708" lon="3.49005">
        <ele>499</ele>
        <time>2021-04-12T08:11:47Z</time>
      </trkpt>
      <trkpt lat="45.11711" lon="3.49004">
        <ele>499</ele>
        <time>2021-04-12T08:11:49Z</time>
      </trkpt>
      <trkpt lat="45.11714" lon="3.49004">
        <ele>499</ele>
        <time>2021-04-12T08:11:51Z</time>
      </trkpt>
      <trkpt lat="45.11724" lon="3.49002">
        <ele>499</ele>
        <time>2021-04-12T08:12:12Z</time>
      </trkpt>
      <trkpt lat="45.11729" lon="3.49002">
        <ele>499</ele>
        <time>2021-04-12T08:12:13Z</time>
      </trkpt>
      <trkpt lat="45.11734" lon="3.49002">
        <ele>499</ele>
        <time>2021-04-12T08:12:15Z</time>
      </trkpt>
      <trkpt lat="45.1174" lon="3.49002">
        <ele>498</ele>
        <time>2021-04-12T08:12:16Z</time>
      </trkpt>
      <trkpt lat="45.11745" lon="3.49002">
        <ele>498</ele>
        <time>2021-04-12T08:12:17Z</time>
      </trkpt>
      <trkpt lat="45.11768" lon="3.48996">
        <ele>497</ele>
        <time>2021-04-12T08:12:21Z</time>
      </trkpt>
      <trkpt lat="45.11771" lon="3.48995">
        <ele>497</ele>
        <time>2021-04-12T08:12:22Z</time>
      </trkpt>
      <trkpt lat="45.11775" lon="3.48993">
        <ele>497</ele>
        <time>2021-04-12T08:12:23Z</time>
      </trkpt>
      <trkpt lat="45.11778" lon="3.48992">
        <ele>497</ele>
        <time>2021-04-12T08:12:24Z</time>
      </trkpt>
      <trkpt lat="45.11781" lon="3.48991">
        <ele>497</ele>
        <time>2021-04-12T08:12:25Z</time>
      </trkpt>
      <trkpt lat="45.11784" lon="3.4899">
        <ele>497</ele>
        <time>2021-04-12T08:12:26Z</time>
      </trkpt>
      <trkpt lat="45.11788" lon="3.48989">
        <ele>496</ele>
        <time>2021-04-12T08:12:27Z</time>
      </trkpt>
      <trkpt lat="45.11791" lon="3.48988">
        <ele>496</ele>
        <time>2021-04-12T08:12:28Z</time>
      </trkpt>
      <trkpt lat="45.11798" lon="3.48985">
        <ele>496</ele>
        <time>2021-04-12T08:12:30Z</time>
      </trkpt>
      <trkpt lat="45.11801" lon="3.48984">
        <ele>496</ele>
        <time>2021-04-12T08:12:31Z</time>
      </trkpt>
      <trkpt lat="45.11805" lon="3.48983">
        <ele>496</ele>
        <time>2021-04-12T08:12:33Z</time>
      </trkpt>
      <trkpt lat="45.11809" lon="3.48982">
        <ele>495</ele>
        <time>2021-04-12T08:12:34Z</time>
      </trkpt>
      <trkpt lat="45.11813" lon="3.48981">
        <ele>495</ele>
        <time>2021-04-12T08:12:35Z</time>
      </trkpt>
      <trkpt lat="45.11817" lon="3.4898">
        <ele>495</ele>
        <time>2021-04-12T08:12:36Z</time>
      </trkpt>
      <trkpt lat="45.11821" lon="3.4898">
        <ele>495</ele>
        <time>2021-04-12T08:12:37Z</time>
      </trkpt>
      <trkpt lat="45.11825" lon="3.48979">
        <ele>495</ele>
        <time>2021-04-12T08:12:38Z</time>
      </trkpt>
      <trkpt lat="45.11841" lon="3.48973">
        <ele>494</ele>
        <time>2021-04-12T08:12:42Z</time>
      </trkpt>
      <trkpt lat="45.11845" lon="3.48972">
        <ele>494</ele>
        <time>2021-04-12T08:12:43Z</time>
      </trkpt>
      <trkpt lat="45.1185" lon="3.4897">
        <ele>494</ele>
        <time>2021-04-12T08:12:44Z</time>
      </trkpt>
      <trkpt lat="45.11854" lon="3.48969">
        <ele>494</ele>
        <time>2021-04-12T08:12:45Z</time>
      </trkpt>
      <trkpt lat="45.11862" lon="3.48967">
        <ele>494</ele>
        <time>2021-04-12T08:12:46Z</time>
      </trkpt>
      <trkpt lat="45.11871" lon="3.48964">
        <ele>494</ele>
        <time>2021-04-12T08:12:48Z</time>
      </trkpt>
      <trkpt lat="45.11876" lon="3.48962">
        <ele>494</ele>
        <time>2021-04-12T08:12:49Z</time>
      </trkpt>
      <trkpt lat="45.1188" lon="3.48961">
        <ele>494</ele>
        <time>2021-04-12T08:12:50Z</time>
      </trkpt>
      <trkpt lat="45.11889" lon="3.48958">
        <ele>493</ele>
        <time>2021-04-12T08:12:53Z</time>
      </trkpt>
      <trkpt lat="45.11894" lon="3.48956">
        <ele>493</ele>
        <time>2021-04-12T08:12:54Z</time>
      </trkpt>
      <trkpt lat="45.11899" lon="3.48955">
        <ele>493</ele>
        <time>2021-04-12T08:12:55Z</time>
      </trkpt>
      <trkpt lat="45.11908" lon="3.48951">
        <ele>493</ele>
        <time>2021-04-12T08:12:56Z</time>
      </trkpt>
      <trkpt lat="45.11918" lon="3.48948">
        <ele>493</ele>
        <time>2021-04-12T08:12:58Z</time>
      </trkpt>
      <trkpt lat="45.11923" lon="3.48947">
        <ele>493</ele>
        <time>2021-04-12T08:12:59Z</time>
      </trkpt>
      <trkpt lat="45.11928" lon="3.48945">
        <ele>493</ele>
        <time>2021-04-12T08:13:00Z</time>
      </trkpt>
      <trkpt lat="45.11933" lon="3.48944">
        <ele>493</ele>
        <time>2021-04-12T08:13:01Z</time>
      </trkpt>
      <trkpt lat="45.11952" lon="3.4894">
        <ele>493</ele>
        <time>2021-04-12T08:13:06Z</time>
      </trkpt>
      <trkpt lat="45.11957" lon="3.48939">
        <ele>493</ele>
        <time>2021-04-12T08:13:07Z</time>
      </trkpt>
      <trkpt lat="45.11961" lon="3.48938">
        <ele>493</ele>
        <time>2021-04-12T08:13:08Z</time>
      </trkpt>
      <trkpt lat="45.11965" lon="3.48937">
        <ele>493</ele>
        <time>2021-04-12T08:13:09Z</time>
      </trkpt>
      <trkpt lat="45.11972" lon="3.48935">
        <ele>493</ele>
        <time>2021-04-12T08:13:10Z</time>
      </trkpt>
      <trkpt lat="45.11976" lon="3.48933">
        <ele>493</ele>
        <time>2021-04-12T08:13:12Z</time>
      </trkpt>
      <trkpt lat="45.11978" lon="3.48931">
        <ele>493</ele>
        <time>2021-04-12T08:13:13Z</time>
      </trkpt>
      <trkpt lat="45.1198" lon="3.48929">
        <ele>493</ele>
        <time>2021-04-12T08:13:14Z</time>
      </trkpt>
      <trkpt lat="45.11987" lon="3.48926">
        <ele>494</ele>
        <time>2021-04-12T08:13:16Z</time>
      </trkpt>
      <trkpt lat="45.11992" lon="3.48924">
        <ele>494</ele>
        <time>2021-04-12T08:13:17Z</time>
      </trkpt>
      <trkpt lat="45.11996" lon="3.48922">
        <ele>494</ele>
        <time>2021-04-12T08:13:18Z</time>
      </trkpt>
      <trkpt lat="45.12005" lon="3.48918">
        <ele>494</ele>
        <time>2021-04-12T08:13:19Z</time>
      </trkpt>
      <trkpt lat="45.12009" lon="3.48916">
        <ele>494</ele>
        <time>2021-04-12T08:13:20Z</time>
      </trkpt>
      <trkpt lat="45.12014" lon="3.48914">
        <ele>493</ele>
        <time>2021-04-12T08:13:22Z</time>
      </trkpt>
      <trkpt lat="45.12023" lon="3.4891">
        <ele>493</ele>
        <time>2021-04-12T08:13:23Z</time>
      </trkpt>
      <trkpt lat="45.12032" lon="3.48906">
        <ele>493</ele>
        <time>2021-04-12T08:13:25Z</time>
      </trkpt>
      <trkpt lat="45.12053" lon="3.48898">
        <ele>493</ele>
        <time>2021-04-12T08:13:31Z</time>
      </trkpt>
      <trkpt lat="45.12058" lon="3.48897">
        <ele>493</ele>
        <time>2021-04-12T08:13:32Z</time>
      </trkpt>
      <trkpt lat="45.12062" lon="3.48896">
        <ele>494</ele>
        <time>2021-04-12T08:13:33Z</time>
      </trkpt>
      <trkpt lat="45.12066" lon="3.48895">
        <ele>494</ele>
        <time>2021-04-12T08:13:34Z</time>
      </trkpt>
      <trkpt lat="45.1207" lon="3.48894">
        <ele>494</ele>
        <time>2021-04-12T08:13:35Z</time>
      </trkpt>
      <trkpt lat="45.12074" lon="3.48895">
        <ele>494</ele>
        <time>2021-04-12T08:13:36Z</time>
      </trkpt>
      <trkpt lat="45.12079" lon="3.48898">
        <ele>494</ele>
        <time>2021-04-12T08:13:37Z</time>
      </trkpt>
      <trkpt lat="45.12085" lon="3.489">
        <ele>493</ele>
        <time>2021-04-12T08:13:38Z</time>
      </trkpt>
      <trkpt lat="45.12095" lon="3.48902">
        <ele>493</ele>
        <time>2021-04-12T08:13:40Z</time>
      </trkpt>
      <trkpt lat="45.12101" lon="3.48902">
        <ele>493</ele>
        <time>2021-04-12T08:13:41Z</time>
      </trkpt>
      <trkpt lat="45.12106" lon="3.48901">
        <ele>493</ele>
        <time>2021-04-12T08:13:42Z</time>
      </trkpt>
      <trkpt lat="45.12112" lon="3.48899">
        <ele>493</ele>
        <time>2021-04-12T08:13:43Z</time>
      </trkpt>
      <trkpt lat="45.12117" lon="3.48896">
        <ele>493</ele>
        <time>2021-04-12T08:13:44Z</time>
      </trkpt>
      <trkpt lat="45.12122" lon="3.48894">
        <ele>493</ele>
        <time>2021-04-12T08:13:45Z</time>
      </trkpt>
      <trkpt lat="45.12127" lon="3.48891">
        <ele>493</ele>
        <time>2021-04-12T08:13:46Z</time>
      </trkpt>
      <trkpt lat="45.12132" lon="3.48889">
        <ele>493</ele>
        <time>2021-04-12T08:13:47Z</time>
      </trkpt>
      <trkpt lat="45.12163" lon="3.48877">
        <ele>493</ele>
        <time>2021-04-12T08:13:53Z</time>
      </trkpt>
      <trkpt lat="45.12168" lon="3.48874">
        <ele>493</ele>
        <time>2021-04-12T08:13:54Z</time>
      </trkpt>
      <trkpt lat="45.12173" lon="3.48872">
        <ele>494</ele>
        <time>2021-04-12T08:13:55Z</time>
      </trkpt>
      <trkpt lat="45.12178" lon="3.48869">
        <ele>494</ele>
        <time>2021-04-12T08:13:56Z</time>
      </trkpt>
      <trkpt lat="45.12183" lon="3.48866">
        <ele>494</ele>
        <time>2021-04-12T08:13:57Z</time>
      </trkpt>
      <trkpt lat="45.12188" lon="3.48863">
        <ele>494</ele>
        <time>2021-04-12T08:13:58Z</time>
      </trkpt>
      <trkpt lat="45.12193" lon="3.4886">
        <ele>494</ele>
        <time>2021-04-12T08:13:59Z</time>
      </trkpt>
      <trkpt lat="45.12198" lon="3.48858">
        <ele>494</ele>
        <time>2021-04-12T08:14:00Z</time>
      </trkpt>
      <trkpt lat="45.12209" lon="3.48853">
        <ele>494</ele>
        <time>2021-04-12T08:14:02Z</time>
      </trkpt>
      <trkpt lat="45.12214" lon="3.48851">
        <ele>494</ele>
        <time>2021-04-12T08:14:03Z</time>
      </trkpt>
      <trkpt lat="45.12219" lon="3.48849">
        <ele>494</ele>
        <time>2021-04-12T08:14:04Z</time>
      </trkpt>
      <trkpt lat="45.12229" lon="3.48846">
        <ele>494</ele>
        <time>2021-04-12T08:14:06Z</time>
      </trkpt>
      <trkpt lat="45.12241" lon="3.48842">
        <ele>494</ele>
        <time>2021-04-12T08:14:07Z</time>
      </trkpt>
      <trkpt lat="45.12246" lon="3.48841">
        <ele>493</ele>
        <time>2021-04-12T08:14:09Z</time>
      </trkpt>
      <trkpt lat="45.12252" lon="3.48839">
        <ele>493</ele>
        <time>2021-04-12T08:14:10Z</time>
      </trkpt>
      <trkpt lat="45.12257" lon="3.48838">
        <ele>493</ele>
        <time>2021-04-12T08:14:11Z</time>
      </trkpt>
      <trkpt lat="45.12279" lon="3.48832">
        <ele>492</ele>
        <time>2021-04-12T08:14:15Z</time>
      </trkpt>
      <trkpt lat="45.12285" lon="3.4883">
        <ele>492</ele>
        <time>2021-04-12T08:14:16Z</time>
      </trkpt>
      <trkpt lat="45.1229" lon="3.48828">
        <ele>491</ele>
        <time>2021-04-12T08:14:17Z</time>
      </trkpt>
      <trkpt lat="45.12295" lon="3.48826">
        <ele>491</ele>
        <time>2021-04-12T08:14:18Z</time>
      </trkpt>
      <trkpt lat="45.123" lon="3.48825">
        <ele>491</ele>
        <time>2021-04-12T08:14:19Z</time>
      </trkpt>
      <trkpt lat="45.12305" lon="3.48823">
        <ele>491</ele>
        <time>2021-04-12T08:14:20Z</time>
      </trkpt>
      <trkpt lat="45.1231" lon="3.48821">
        <ele>491</ele>
        <time>2021-04-12T08:14:21Z</time>
      </trkpt>
      <trkpt lat="45.12315" lon="3.48818">
        <ele>491</ele>
        <time>2021-04-12T08:14:22Z</time>
      </trkpt>
      <trkpt lat="45.12325" lon="3.48815">
        <ele>491</ele>
        <time>2021-04-12T08:14:24Z</time>
      </trkpt>
      <trkpt lat="45.12331" lon="3.48813">
        <ele>491</ele>
        <time>2021-04-12T08:14:25Z</time>
      </trkpt>
      <trkpt lat="45.12335" lon="3.48811">
        <ele>491</ele>
        <time>2021-04-12T08:14:26Z</time>
      </trkpt>
      <trkpt lat="45.1234" lon="3.48808">
        <ele>490</ele>
        <time>2021-04-12T08:14:27Z</time>
      </trkpt>
      <trkpt lat="45.12345" lon="3.48806">
        <ele>490</ele>
        <time>2021-04-12T08:14:28Z</time>
      </trkpt>
      <trkpt lat="45.1235" lon="3.48805">
        <ele>490</ele>
        <time>2021-04-12T08:14:29Z</time>
      </trkpt>
      <trkpt lat="45.12354" lon="3.48803">
        <ele>490</ele>
        <time>2021-04-12T08:14:30Z</time>
      </trkpt>
      <trkpt lat="45.12359" lon="3.48801">
        <ele>490</ele>
        <time>2021-04-12T08:14:31Z</time>
      </trkpt>
      <trkpt lat="45.12377" lon="3.4879">
        <ele>490</ele>
        <time>2021-04-12T08:14:35Z</time>
      </trkpt>
      <trkpt lat="45.12381" lon="3.48787">
        <ele>490</ele>
        <time>2021-04-12T08:14:36Z</time>
      </trkpt>
      <trkpt lat="45.12386" lon="3.48784">
        <ele>490</ele>
        <time>2021-04-12T08:14:37Z</time>
      </trkpt>
      <trkpt lat="45.1239" lon="3.48781">
        <ele>490</ele>
        <time>2021-04-12T08:14:38Z</time>
      </trkpt>
      <trkpt lat="45.12394" lon="3.48779">
        <ele>490</ele>
        <time>2021-04-12T08:14:39Z</time>
      </trkpt>
      <trkpt lat="45.12397" lon="3.48776">
        <ele>490</ele>
        <time>2021-04-12T08:14:40Z</time>
      </trkpt>
      <trkpt lat="45.124" lon="3.48775">
        <ele>490</ele>
        <time>2021-04-12T08:14:41Z</time>
      </trkpt>
      <trkpt lat="45.12403" lon="3.48772">
        <ele>490</ele>
        <time>2021-04-12T08:14:42Z</time>
      </trkpt>
      <trkpt lat="45.12407" lon="3.48767">
        <ele>491</ele>
        <time>2021-04-12T08:14:44Z</time>
      </trkpt>
      <trkpt lat="45.12413" lon="3.4876">
        <ele>491</ele>
        <time>2021-04-12T08:14:45Z</time>
      </trkpt>
      <trkpt lat="45.12415" lon="3.48756">
        <ele>491</ele>
        <time>2021-04-12T08:14:47Z</time>
      </trkpt>
      <trkpt lat="45.12417" lon="3.48753">
        <ele>492</ele>
        <time>2021-04-12T08:14:48Z</time>
      </trkpt>
      <trkpt lat="45.1242" lon="3.4875">
        <ele>492</ele>
        <time>2021-04-12T08:14:49Z</time>
      </trkpt>
      <trkpt lat="45.12422" lon="3.48748">
        <ele>492</ele>
        <time>2021-04-12T08:14:50Z</time>
      </trkpt>
      <trkpt lat="45.12424" lon="3.48747">
        <ele>492</ele>
        <time>2021-04-12T08:14:51Z</time>
      </trkpt>
      <trkpt lat="45.12426" lon="3.48748">
        <ele>492</ele>
        <time>2021-04-12T08:14:52Z</time>
      </trkpt>
      <trkpt lat="45.12439" lon="3.48756">
        <ele>493</ele>
        <time>2021-04-12T08:14:56Z</time>
      </trkpt>
      <trkpt lat="45.12443" lon="3.48758">
        <ele>493</ele>
        <time>2021-04-12T08:14:57Z</time>
      </trkpt>
      <trkpt lat="45.12448" lon="3.4876">
        <ele>493</ele>
        <time>2021-04-12T08:14:58Z</time>
      </trkpt>
      <trkpt lat="45.12452" lon="3.48761">
        <ele>493</ele>
        <time>2021-04-12T08:14:59Z</time>
      </trkpt>
      <trkpt lat="45.12457" lon="3.48762">
        <ele>493</ele>
        <time>2021-04-12T08:15:00Z</time>
      </trkpt>
      <trkpt lat="45.12461" lon="3.48762">
        <ele>493</ele>
        <time>2021-04-12T08:15:01Z</time>
      </trkpt>
      <trkpt lat="45.12465" lon="3.48762">
        <ele>493</ele>
        <time>2021-04-12T08:15:02Z</time>
      </trkpt>
      <trkpt lat="45.12468" lon="3.48761">
        <ele>493</ele>
        <time>2021-04-12T08:15:03Z</time>
      </trkpt>
      <trkpt lat="45.12473" lon="3.48758">
        <ele>493</ele>
        <time>2021-04-12T08:15:06Z</time>
      </trkpt>
      <trkpt lat="45.12478" lon="3.48757">
        <ele>493</ele>
        <time>2021-04-12T08:15:33Z</time>
      </trkpt>
      <trkpt lat="45.12484" lon="3.48755">
        <ele>493</ele>
        <time>2021-04-12T08:15:34Z</time>
      </trkpt>
      <trkpt lat="45.12492" lon="3.48752">
        <ele>493</ele>
        <time>2021-04-12T08:15:36Z</time>
      </trkpt>
      <trkpt lat="45.12496" lon="3.48751">
        <ele>493</ele>
        <time>2021-04-12T08:15:38Z</time>
      </trkpt>
      <trkpt lat="45.125" lon="3.48749">
        <ele>493</ele>
        <time>2021-04-12T08:15:39Z</time>
      </trkpt>
      <trkpt lat="45.12504" lon="3.48747">
        <ele>493</ele>
        <time>2021-04-12T08:15:40Z</time>
      </trkpt>
      <trkpt lat="45.12508" lon="3.48745">
        <ele>493</ele>
        <time>2021-04-12T08:15:41Z</time>
      </trkpt>
      <trkpt lat="45.12526" lon="3.48738">
        <ele>492</ele>
        <time>2021-04-12T08:15:45Z</time>
      </trkpt>
      <trkpt lat="45.12531" lon="3.48737">
        <ele>492</ele>
        <time>2021-04-12T08:15:46Z</time>
      </trkpt>
      <trkpt lat="45.12536" lon="3.48735">
        <ele>492</ele>
        <time>2021-04-12T08:15:47Z</time>
      </trkpt>
      <trkpt lat="45.12541" lon="3.48734">
        <ele>492</ele>
        <time>2021-04-12T08:15:48Z</time>
      </trkpt>
      <trkpt lat="45.12545" lon="3.48732">
        <ele>492</ele>
        <time>2021-04-12T08:15:49Z</time>
      </trkpt>
      <trkpt lat="45.1255" lon="3.48731">
        <ele>491</ele>
        <time>2021-04-12T08:15:50Z</time>
      </trkpt>
      <trkpt lat="45.12555" lon="3.48729">
        <ele>491</ele>
        <time>2021-04-12T08:15:51Z</time>
      </trkpt>
      <trkpt lat="45.12559" lon="3.48728">
        <ele>491</ele>
        <time>2021-04-12T08:15:52Z</time>
      </trkpt>
      <trkpt lat="45.12573" lon="3.48725">
        <ele>491</ele>
        <time>2021-04-12T08:15:55Z</time>
      </trkpt>
      <trkpt lat="45.12577" lon="3.48724">
        <ele>491</ele>
        <time>2021-04-12T08:15:56Z</time>
      </trkpt>
      <trkpt lat="45.12582" lon="3.48723">
        <ele>491</ele>
        <time>2021-04-12T08:15:57Z</time>
      </trkpt>
      <trkpt lat="45.12587" lon="3.48722">
        <ele>490</ele>
        <time>2021-04-12T08:15:58Z</time>
      </trkpt>
      <trkpt lat="45.12591" lon="3.48721">
        <ele>490</ele>
        <time>2021-04-12T08:15:59Z</time>
      </trkpt>
      <trkpt lat="45.12596" lon="3.48721">
        <ele>490</ele>
        <time>2021-04-12T08:16:00Z</time>
      </trkpt>
      <trkpt lat="45.12601" lon="3.4872">
        <ele>490</ele>
        <time>2021-04-12T08:16:01Z</time>
      </trkpt>
      <trkpt lat="45.12606" lon="3.48719">
        <ele>490</ele>
        <time>2021-04-12T08:16:02Z</time>
      </trkpt>
      <trkpt lat="45.12626" lon="3.48716">
        <ele>490</ele>
        <time>2021-04-12T08:16:06Z</time>
      </trkpt>
      <trkpt lat="45.12631" lon="3.48715">
        <ele>490</ele>
        <time>2021-04-12T08:16:07Z</time>
      </trkpt>
      <trkpt lat="45.12636" lon="3.48714">
        <ele>490</ele>
        <time>2021-04-12T08:16:08Z</time>
      </trkpt>
      <trkpt lat="45.12641" lon="3.48713">
        <ele>489</ele>
        <time>2021-04-12T08:16:09Z</time>
      </trkpt>
      <trkpt lat="45.12645" lon="3.48713">
        <ele>489</ele>
        <time>2021-04-12T08:16:10Z</time>
      </trkpt>
      <trkpt lat="45.1265" lon="3.48712">
        <ele>489</ele>
        <time>2021-04-12T08:16:11Z</time>
      </trkpt>
      <trkpt lat="45.1266" lon="3.4871">
        <ele>489</ele>
        <time>2021-04-12T08:16:12Z</time>
      </trkpt>
      <trkpt lat="45.12665" lon="3.48709">
        <ele>489</ele>
        <time>2021-04-12T08:16:14Z</time>
      </trkpt>
      <trkpt lat="45.12674" lon="3.48706">
        <ele>489</ele>
        <time>2021-04-12T08:16:16Z</time>
      </trkpt>
      <trkpt lat="45.12679" lon="3.48704">
        <ele>489</ele>
        <time>2021-04-12T08:16:17Z</time>
      </trkpt>
      <trkpt lat="45.12683" lon="3.48702">
        <ele>489</ele>
        <time>2021-04-12T08:16:18Z</time>
      </trkpt>
      <trkpt lat="45.12689" lon="3.48699">
        <ele>489</ele>
        <time>2021-04-12T08:16:19Z</time>
      </trkpt>
      <trkpt lat="45.12694" lon="3.48696">
        <ele>488</ele>
        <time>2021-04-12T08:16:20Z</time>
      </trkpt>
      <trkpt lat="45.127" lon="3.48693">
        <ele>488</ele>
        <time>2021-04-12T08:16:21Z</time>
      </trkpt>
      <trkpt lat="45.12706" lon="3.4869">
        <ele>488</ele>
        <time>2021-04-12T08:16:22Z</time>
      </trkpt>
      <trkpt lat="45.12712" lon="3.48687">
        <ele>488</ele>
        <time>2021-04-12T08:16:23Z</time>
      </trkpt>
      <trkpt lat="45.12735" lon="3.48674">
        <ele>488</ele>
        <time>2021-04-12T08:16:27Z</time>
      </trkpt>
      <trkpt lat="45.12741" lon="3.48671">
        <ele>488</ele>
        <time>2021-04-12T08:16:28Z</time>
      </trkpt>
      <trkpt lat="45.12747" lon="3.48668">
        <ele>488</ele>
        <time>2021-04-12T08:16:29Z</time>
      </trkpt>
      <trkpt lat="45.12752" lon="3.48666">
        <ele>488</ele>
        <time>2021-04-12T08:16:30Z</time>
      </trkpt>
      <trkpt lat="45.12764" lon="3.4866">
        <ele>488</ele>
        <time>2021-04-12T08:16:31Z</time>
      </trkpt>
      <trkpt lat="45.1277" lon="3.48657">
        <ele>487</ele>
        <time>2021-04-12T08:16:33Z</time>
      </trkpt>
      <trkpt lat="45.12776" lon="3.48654">
        <ele>488</ele>
        <time>2021-04-12T08:16:34Z</time>
      </trkpt>
      <trkpt lat="45.12781" lon="3.48651">
        <ele>488</ele>
        <time>2021-04-12T08:16:35Z</time>
      </trkpt>
      <trkpt lat="45.12793" lon="3.48645">
        <ele>488</ele>
        <time>2021-04-12T08:16:37Z</time>
      </trkpt>
      <trkpt lat="45.12799" lon="3.48643">
        <ele>487</ele>
        <time>2021-04-12T08:16:38Z</time>
      </trkpt>
      <trkpt lat="45.12805" lon="3.4864">
        <ele>488</ele>
        <time>2021-04-12T08:16:39Z</time>
      </trkpt>
      <trkpt lat="45.12811" lon="3.48638">
        <ele>488</ele>
        <time>2021-04-12T08:16:40Z</time>
      </trkpt>
      <trkpt lat="45.12817" lon="3.48636">
        <ele>488</ele>
        <time>2021-04-12T08:16:41Z</time>
      </trkpt>
      <trkpt lat="45.12822" lon="3.48635">
        <ele>487</ele>
        <time>2021-04-12T08:16:42Z</time>
      </trkpt>
      <trkpt lat="45.12828" lon="3.48633">
        <ele>487</ele>
        <time>2021-04-12T08:16:43Z</time>
      </trkpt>
      <trkpt lat="45.12834" lon="3.48631">
        <ele>487</ele>
        <time>2021-04-12T08:16:44Z</time>
      </trkpt>
      <trkpt lat="45.12856" lon="3.48625">
        <ele>487</ele>
        <time>2021-04-12T08:16:48Z</time>
      </trkpt>
      <trkpt lat="45.12861" lon="3.48623">
        <ele>487</ele>
        <time>2021-04-12T08:16:49Z</time>
      </trkpt>
      <trkpt lat="45.12866" lon="3.48619">
        <ele>487</ele>
        <time>2021-04-12T08:16:50Z</time>
      </trkpt>
      <trkpt lat="45.1287" lon="3.48614">
        <ele>487</ele>
        <time>2021-04-12T08:16:51Z</time>
      </trkpt>
      <trkpt lat="45.12874" lon="3.48609">
        <ele>487</ele>
        <time>2021-04-12T08:16:52Z</time>
      </trkpt>
      <trkpt lat="45.12878" lon="3.48603">
        <ele>487</ele>
        <time>2021-04-12T08:16:53Z</time>
      </trkpt>
      <trkpt lat="45.12882" lon="3.48598">
        <ele>488</ele>
        <time>2021-04-12T08:16:54Z</time>
      </trkpt>
      <trkpt lat="45.12889" lon="3.48588">
        <ele>488</ele>
        <time>2021-04-12T08:16:56Z</time>
      </trkpt>
      <trkpt lat="45.12896" lon="3.48579">
        <ele>488</ele>
        <time>2021-04-12T08:16:58Z</time>
      </trkpt>
      <trkpt lat="45.129" lon="3.48574">
        <ele>489</ele>
        <time>2021-04-12T08:16:59Z</time>
      </trkpt>
      <trkpt lat="45.12903" lon="3.4857">
        <ele>489</ele>
        <time>2021-04-12T08:17:00Z</time>
      </trkpt>
      <trkpt lat="45.12907" lon="3.48565">
        <ele>489</ele>
        <time>2021-04-12T08:17:01Z</time>
      </trkpt>
      <trkpt lat="45.1291" lon="3.48561">
        <ele>489</ele>
        <time>2021-04-12T08:17:02Z</time>
      </trkpt>
      <trkpt lat="45.12914" lon="3.48556">
        <ele>489</ele>
        <time>2021-04-12T08:17:03Z</time>
      </trkpt>
      <trkpt lat="45.12915" lon="3.4855">
        <ele>489</ele>
        <time>2021-04-12T08:17:04Z</time>
      </trkpt>
      <trkpt lat="45.12916" lon="3.48543">
        <ele>489</ele>
        <time>2021-04-12T08:17:05Z</time>
      </trkpt>
      <trkpt lat="45.12912" lon="3.48513">
        <ele>489</ele>
        <time>2021-04-12T08:17:09Z</time>
      </trkpt>
      <trkpt lat="45.12911" lon="3.48507">
        <ele>489</ele>
        <time>2021-04-12T08:17:11Z</time>
      </trkpt>
      <trkpt lat="45.1291" lon="3.48502">
        <ele>489</ele>
        <time>2021-04-12T08:17:12Z</time>
      </trkpt>
      <trkpt lat="45.1291" lon="3.48497">
        <ele>489</ele>
        <time>2021-04-12T08:17:13Z</time>
      </trkpt>
      <trkpt lat="45.12909" lon="3.48492">
        <ele>490</ele>
        <time>2021-04-12T08:17:14Z</time>
      </trkpt>
      <trkpt lat="45.12909" lon="3.48488">
        <ele>490</ele>
        <time>2021-04-12T08:17:15Z</time>
      </trkpt>
      <trkpt lat="45.12908" lon="3.48483">
        <ele>490</ele>
        <time>2021-04-12T08:17:16Z</time>
      </trkpt>
      <trkpt lat="45.12907" lon="3.48479">
        <ele>490</ele>
        <time>2021-04-12T08:17:17Z</time>
      </trkpt>
      <trkpt lat="45.12906" lon="3.48472">
        <ele>491</ele>
        <time>2021-04-12T08:17:19Z</time>
      </trkpt>
      <trkpt lat="45.12906" lon="3.48468">
        <ele>491</ele>
        <time>2021-04-12T08:17:20Z</time>
      </trkpt>
      <trkpt lat="45.12905" lon="3.48466">
        <ele>491</ele>
        <time>2021-04-12T08:17:21Z</time>
      </trkpt>
      <trkpt lat="45.12904" lon="3.48461">
        <ele>492</ele>
        <time>2021-04-12T08:17:23Z</time>
      </trkpt>
      <trkpt lat="45.12903" lon="3.48459">
        <ele>492</ele>
        <time>2021-04-12T08:17:25Z</time>
      </trkpt>
      <trkpt lat="45.12903" lon="3.48458">
        <ele>492</ele>
        <time>2021-04-12T08:17:30Z</time>
      </trkpt>
      <trkpt lat="45.12899" lon="3.48452">
        <ele>492</ele>
        <time>2021-04-12T08:17:54Z</time>
      </trkpt>
      <trkpt lat="45.12898" lon="3.48449">
        <ele>492</ele>
        <time>2021-04-12T08:17:55Z</time>
      </trkpt>
      <trkpt lat="45.12884" lon="3.48441">
        <ele>492</ele>
        <time>2021-04-12T08:17:59Z</time>
      </trkpt>
      <trkpt lat="45.12878" lon="3.4844">
        <ele>492</ele>
        <time>2021-04-12T08:18:00Z</time>
      </trkpt>
      <trkpt lat="45.12873" lon="3.48439">
        <ele>492</ele>
        <time>2021-04-12T08:18:01Z</time>
      </trkpt>
      <trkpt lat="45.12867" lon="3.48437">
        <ele>492</ele>
        <time>2021-04-12T08:18:02Z</time>
      </trkpt>
      <trkpt lat="45.12862" lon="3.48436">
        <ele>492</ele>
        <time>2021-04-12T08:18:03Z</time>
      </trkpt>
      <trkpt lat="45.12856" lon="3.48434">
        <ele>492</ele>
        <time>2021-04-12T08:18:04Z</time>
      </trkpt>
      <trkpt lat="45.12851" lon="3.48432">
        <ele>493</ele>
        <time>2021-04-12T08:18:05Z</time>
      </trkpt>
      <trkpt lat="45.12845" lon="3.48431">
        <ele>493</ele>
        <time>2021-04-12T08:18:06Z</time>
      </trkpt>
      <trkpt lat="45.12835" lon="3.48428">
        <ele>493</ele>
        <time>2021-04-12T08:18:08Z</time>
      </trkpt>
      <trkpt lat="45.1283" lon="3.48426">
        <ele>493</ele>
        <time>2021-04-12T08:18:09Z</time>
      </trkpt>
      <trkpt lat="45.12825" lon="3.48425">
        <ele>493</ele>
        <time>2021-04-12T08:18:10Z</time>
      </trkpt>
      <trkpt lat="45.1282" lon="3.48423">
        <ele>493</ele>
        <time>2021-04-12T08:18:11Z</time>
      </trkpt>
      <trkpt lat="45.12815" lon="3.48422">
        <ele>493</ele>
        <time>2021-04-12T08:18:12Z</time>
      </trkpt>
      <trkpt lat="45.12811" lon="3.4842">
        <ele>493</ele>
        <time>2021-04-12T08:18:13Z</time>
      </trkpt>
      <trkpt lat="45.12803" lon="3.48417">
        <ele>493</ele>
        <time>2021-04-12T08:18:14Z</time>
      </trkpt>
      <trkpt lat="45.12799" lon="3.48415">
        <ele>494</ele>
        <time>2021-04-12T08:18:16Z</time>
      </trkpt>
      <trkpt lat="45.1278" lon="3.48412">
        <ele>494</ele>
        <time>2021-04-12T08:18:20Z</time>
      </trkpt>
      <trkpt lat="45.12776" lon="3.48412">
        <ele>494</ele>
        <time>2021-04-12T08:18:21Z</time>
      </trkpt>
      <trkpt lat="45.12772" lon="3.48412">
        <ele>494</ele>
        <time>2021-04-12T08:18:22Z</time>
      </trkpt>
      <trkpt lat="45.12763" lon="3.48413">
        <ele>494</ele>
        <time>2021-04-12T08:18:23Z</time>
      </trkpt>
      <trkpt lat="45.1276" lon="3.48412">
        <ele>494</ele>
        <time>2021-04-12T08:18:25Z</time>
      </trkpt>
      <trkpt lat="45.12756" lon="3.48411">
        <ele>494</ele>
        <time>2021-04-12T08:18:26Z</time>
      </trkpt>
      <trkpt lat="45.12754" lon="3.48401">
        <ele>494</ele>
        <time>2021-04-12T08:18:27Z</time>
      </trkpt>
      <trkpt lat="45.12755" lon="3.48396">
        <ele>494</ele>
        <time>2021-04-12T08:18:29Z</time>
      </trkpt>
      <trkpt lat="45.12757" lon="3.48385">
        <ele>494</ele>
        <time>2021-04-12T08:18:31Z</time>
      </trkpt>
      <trkpt lat="45.12758" lon="3.4838">
        <ele>495</ele>
        <time>2021-04-12T08:18:32Z</time>
      </trkpt>
      <trkpt lat="45.12759" lon="3.48369">
        <ele>495</ele>
        <time>2021-04-12T08:18:33Z</time>
      </trkpt>
      <trkpt lat="45.12759" lon="3.48363">
        <ele>495</ele>
        <time>2021-04-12T08:18:35Z</time>
      </trkpt>
      <trkpt lat="45.1276" lon="3.48357">
        <ele>495</ele>
        <time>2021-04-12T08:18:36Z</time>
      </trkpt>
      <trkpt lat="45.12761" lon="3.48351">
        <ele>495</ele>
        <time>2021-04-12T08:18:37Z</time>
      </trkpt>
      <trkpt lat="45.12762" lon="3.48345">
        <ele>495</ele>
        <time>2021-04-12T08:18:38Z</time>
      </trkpt>
      <trkpt lat="45.12763" lon="3.48339">
        <ele>495</ele>
        <time>2021-04-12T08:18:39Z</time>
      </trkpt>
      <trkpt lat="45.12769" lon="3.48316">
        <ele>495</ele>
        <time>2021-04-12T08:18:43Z</time>
      </trkpt>
      <trkpt lat="45.12771" lon="3.4831">
        <ele>495</ele>
        <time>2021-04-12T08:18:44Z</time>
      </trkpt>
      <trkpt lat="45.12773" lon="3.48305">
        <ele>495</ele>
        <time>2021-04-12T08:18:45Z</time>
      </trkpt>
      <trkpt lat="45.12775" lon="3.483">
        <ele>495</ele>
        <time>2021-04-12T08:18:46Z</time>
      </trkpt>
      <trkpt lat="45.12777" lon="3.48294">
        <ele>495</ele>
        <time>2021-04-12T08:18:47Z</time>
      </trkpt>
      <trkpt lat="45.12779" lon="3.48288">
        <ele>495</ele>
        <time>2021-04-12T08:18:48Z</time>
      </trkpt>
      <trkpt lat="45.1278" lon="3.48282">
        <ele>496</ele>
        <time>2021-04-12T08:18:49Z</time>
      </trkpt>
      <trkpt lat="45.12783" lon="3.48276">
        <ele>496</ele>
        <time>2021-04-12T08:18:50Z</time>
      </trkpt>
      <trkpt lat="45.12789" lon="3.48259">
        <ele>496</ele>
        <time>2021-04-12T08:18:52Z</time>
      </trkpt>
      <trkpt lat="45.12792" lon="3.48254">
        <ele>496</ele>
        <time>2021-04-12T08:18:54Z</time>
      </trkpt>
      <trkpt lat="45.12794" lon="3.48248">
        <ele>496</ele>
        <time>2021-04-12T08:18:55Z</time>
      </trkpt>
      <trkpt lat="45.12797" lon="3.48243">
        <ele>496</ele>
        <time>2021-04-12T08:18:56Z</time>
      </trkpt>
      <trkpt lat="45.128" lon="3.48237">
        <ele>496</ele>
        <time>2021-04-12T08:18:57Z</time>
      </trkpt>
      <trkpt lat="45.12804" lon="3.48232">
        <ele>496</ele>
        <time>2021-04-12T08:18:58Z</time>
      </trkpt>
      <trkpt lat="45.12807" lon="3.48226">
        <ele>496</ele>
        <time>2021-04-12T08:18:59Z</time>
      </trkpt>
      <trkpt lat="45.1281" lon="3.48221">
        <ele>496</ele>
        <time>2021-04-12T08:19:00Z</time>
      </trkpt>
      <trkpt lat="45.12824" lon="3.48201">
        <ele>497</ele>
        <time>2021-04-12T08:19:04Z</time>
      </trkpt>
      <trkpt lat="45.12828" lon="3.48196">
        <ele>497</ele>
        <time>2021-04-12T08:19:05Z</time>
      </trkpt>
      <trkpt lat="45.12831" lon="3.48192">
        <ele>497</ele>
        <time>2021-04-12T08:19:06Z</time>
      </trkpt>
      <trkpt lat="45.12835" lon="3.48188">
        <ele>497</ele>
        <time>2021-04-12T08:19:07Z</time>
      </trkpt>
      <trkpt lat="45.1284" lon="3.48184">
        <ele>498</ele>
        <time>2021-04-12T08:19:08Z</time>
      </trkpt>
      <trkpt lat="45.12844" lon="3.48181">
        <ele>498</ele>
        <time>2021-04-12T08:19:09Z</time>
      </trkpt>
      <trkpt lat="45.12848" lon="3.48178">
        <ele>498</ele>
        <time>2021-04-12T08:19:10Z</time>
      </trkpt>
      <trkpt lat="45.12858" lon="3.48171">
        <ele>498</ele>
        <time>2021-04-12T08:19:11Z</time>
      </trkpt>
      <trkpt lat="45.12868" lon="3.48165">
        <ele>498</ele>
        <time>2021-04-12T08:19:14Z</time>
      </trkpt>
      <trkpt lat="45.12873" lon="3.48162">
        <ele>498</ele>
        <time>2021-04-12T08:19:15Z</time>
      </trkpt>
      <trkpt lat="45.12878" lon="3.48158">
        <ele>498</ele>
        <time>2021-04-12T08:19:16Z</time>
      </trkpt>
      <trkpt lat="45.12883" lon="3.48155">
        <ele>498</ele>
        <time>2021-04-12T08:19:17Z</time>
      </trkpt>
      <trkpt lat="45.12888" lon="3.48151">
        <ele>498</ele>
        <time>2021-04-12T08:19:18Z</time>
      </trkpt>
      <trkpt lat="45.12893" lon="3.48148">
        <ele>498</ele>
        <time>2021-04-12T08:19:19Z</time>
      </trkpt>
      <trkpt lat="45.12898" lon="3.48144">
        <ele>498</ele>
        <time>2021-04-12T08:19:20Z</time>
      </trkpt>
      <trkpt lat="45.12904" lon="3.4814">
        <ele>498</ele>
        <time>2021-04-12T08:19:21Z</time>
      </trkpt>
      <trkpt lat="45.12924" lon="3.48125">
        <ele>498</ele>
        <time>2021-04-12T08:19:25Z</time>
      </trkpt>
      <trkpt lat="45.1293" lon="3.48122">
        <ele>498</ele>
        <time>2021-04-12T08:19:26Z</time>
      </trkpt>
      <trkpt lat="45.12935" lon="3.48119">
        <ele>498</ele>
        <time>2021-04-12T08:19:27Z</time>
      </trkpt>
      <trkpt lat="45.1294" lon="3.48116">
        <ele>498</ele>
        <time>2021-04-12T08:19:28Z</time>
      </trkpt>
      <trkpt lat="45.12945" lon="3.48113">
        <ele>498</ele>
        <time>2021-04-12T08:19:29Z</time>
      </trkpt>
      <trkpt lat="45.12956" lon="3.48107">
        <ele>498</ele>
        <time>2021-04-12T08:19:30Z</time>
      </trkpt>
      <trkpt lat="45.12961" lon="3.48104">
        <ele>498</ele>
        <time>2021-04-12T08:19:32Z</time>
      </trkpt>
      <trkpt lat="45.12966" lon="3.48101">
        <ele>499</ele>
        <time>2021-04-12T08:19:33Z</time>
      </trkpt>
      <trkpt lat="45.12976" lon="3.48096">
        <ele>499</ele>
        <time>2021-04-12T08:19:35Z</time>
      </trkpt>
      <trkpt lat="45.12981" lon="3.48093">
        <ele>499</ele>
        <time>2021-04-12T08:19:36Z</time>
      </trkpt>
      <trkpt lat="45.12986" lon="3.48091">
        <ele>499</ele>
        <time>2021-04-12T08:19:37Z</time>
      </trkpt>
      <trkpt lat="45.12991" lon="3.48089">
        <ele>500</ele>
        <time>2021-04-12T08:19:38Z</time>
      </trkpt>
      <trkpt lat="45.12996" lon="3.48087">
        <ele>500</ele>
        <time>2021-04-12T08:19:39Z</time>
      </trkpt>
      <trkpt lat="45.13001" lon="3.48085">
        <ele>500</ele>
        <time>2021-04-12T08:19:40Z</time>
      </trkpt>
      <trkpt lat="45.13005" lon="3.48083">
        <ele>500</ele>
        <time>2021-04-12T08:19:41Z</time>
      </trkpt>
      <trkpt lat="45.13008" lon="3.48079">
        <ele>500</ele>
        <time>2021-04-12T08:19:42Z</time>
      </trkpt>
      <trkpt lat="45.13011" lon="3.48056">
        <ele>501</ele>
        <time>2021-04-12T08:19:46Z</time>
      </trkpt>
      <trkpt lat="45.1301" lon="3.4805">
        <ele>501</ele>
        <time>2021-04-12T08:19:47Z</time>
      </trkpt>
      <trkpt lat="45.13009" lon="3.48032">
        <ele>501</ele>
        <time>2021-04-12T08:19:49Z</time>
      </trkpt>
      <trkpt lat="45.13009" lon="3.48026">
        <ele>502</ele>
        <time>2021-04-12T08:19:51Z</time>
      </trkpt>
      <trkpt lat="45.1301" lon="3.48021">
        <ele>502</ele>
        <time>2021-04-12T08:19:52Z</time>
      </trkpt>
      <trkpt lat="45.13011" lon="3.48016">
        <ele>502</ele>
        <time>2021-04-12T08:19:53Z</time>
      </trkpt>
      <trkpt lat="45.13014" lon="3.48013">
        <ele>503</ele>
        <time>2021-04-12T08:19:54Z</time>
      </trkpt>
      <trkpt lat="45.13017" lon="3.48011">
        <ele>503</ele>
        <time>2021-04-12T08:19:55Z</time>
      </trkpt>
      <trkpt lat="45.13023" lon="3.48009">
        <ele>503</ele>
        <time>2021-04-12T08:19:57Z</time>
      </trkpt>
      <trkpt lat="45.13026" lon="3.48009">
        <ele>504</ele>
        <time>2021-04-12T08:19:58Z</time>
      </trkpt>
      <trkpt lat="45.1303" lon="3.48009">
        <ele>504</ele>
        <time>2021-04-12T08:19:59Z</time>
      </trkpt>
      <trkpt lat="45.13033" lon="3.48008">
        <ele>505</ele>
        <time>2021-04-12T08:20:00Z</time>
      </trkpt>
      <trkpt lat="45.13036" lon="3.48008">
        <ele>505</ele>
        <time>2021-04-12T08:20:01Z</time>
      </trkpt>
      <trkpt lat="45.13039" lon="3.48008">
        <ele>506</ele>
        <time>2021-04-12T08:20:02Z</time>
      </trkpt>
      <trkpt lat="45.13043" lon="3.48007">
        <ele>506</ele>
        <time>2021-04-12T08:20:03Z</time>
      </trkpt>
      <trkpt lat="45.13046" lon="3.48008">
        <ele>506</ele>
        <time>2021-04-12T08:20:04Z</time>
      </trkpt>
      <trkpt lat="45.13067" lon="3.48013">
        <ele>507</ele>
        <time>2021-04-12T08:20:08Z</time>
      </trkpt>
      <trkpt lat="45.13072" lon="3.48015">
        <ele>507</ele>
        <time>2021-04-12T08:20:10Z</time>
      </trkpt>
      <trkpt lat="45.13076" lon="3.48018">
        <ele>508</ele>
        <time>2021-04-12T08:20:11Z</time>
      </trkpt>
      <trkpt lat="45.13081" lon="3.4802">
        <ele>508</ele>
        <time>2021-04-12T08:20:12Z</time>
      </trkpt>
      <trkpt lat="45.13086" lon="3.48022">
        <ele>508</ele>
        <time>2021-04-12T08:20:13Z</time>
      </trkpt>
      <trkpt lat="45.13091" lon="3.48024">
        <ele>508</ele>
        <time>2021-04-12T08:20:14Z</time>
      </trkpt>
      <trkpt lat="45.13096" lon="3.48025">
        <ele>508</ele>
        <time>2021-04-12T08:20:15Z</time>
      </trkpt>
      <trkpt lat="45.13101" lon="3.48026">
        <ele>508</ele>
        <time>2021-04-12T08:20:16Z</time>
      </trkpt>
      <trkpt lat="45.13112" lon="3.48028">
        <ele>508</ele>
        <time>2021-04-12T08:20:18Z</time>
      </trkpt>
      <trkpt lat="45.13117" lon="3.48028">
        <ele>508</ele>
        <time>2021-04-12T08:20:19Z</time>
      </trkpt>
      <trkpt lat="45.13123" lon="3.48028">
        <ele>508</ele>
        <time>2021-04-12T08:20:20Z</time>
      </trkpt>
      <trkpt lat="45.13129" lon="3.48028">
        <ele>508</ele>
        <time>2021-04-12T08:20:21Z</time>
      </trkpt>
      <trkpt lat="45.1314" lon="3.48028">
        <ele>508</ele>
        <time>2021-04-12T08:20:22Z</time>
      </trkpt>
      <trkpt lat="45.13145" lon="3.48027">
        <ele>508</ele>
        <time>2021-04-12T08:20:24Z</time>
      </trkpt>
      <trkpt lat="45.13151" lon="3.48026">
        <ele>508</ele>
        <time>2021-04-12T08:20:25Z</time>
      </trkpt>
      <trkpt lat="45.13155" lon="3.48025">
        <ele>509</ele>
        <time>2021-04-12T08:20:26Z</time>
      </trkpt>
      <trkpt lat="45.13176" lon="3.48015">
        <ele>510</ele>
        <time>2021-04-12T08:20:31Z</time>
      </trkpt>
      <trkpt lat="45.1318" lon="3.48012">
        <ele>510</ele>
        <time>2021-04-12T08:20:32Z</time>
      </trkpt>
      <trkpt lat="45.13184" lon="3.48008">
        <ele>510</ele>
        <time>2021-04-12T08:20:33Z</time>
      </trkpt>
      <trkpt lat="45.13189" lon="3.48005">
        <ele>510</ele>
        <time>2021-04-12T08:20:34Z</time>
      </trkpt>
      <trkpt lat="45.13194" lon="3.48001">
        <ele>510</ele>
        <time>2021-04-12T08:20:35Z</time>
      </trkpt>
      <trkpt lat="45.13198" lon="3.47999">
        <ele>511</ele>
        <time>2021-04-12T08:20:36Z</time>
      </trkpt>
      <trkpt lat="45.13202" lon="3.47995">
        <ele>511</ele>
        <time>2021-04-12T08:20:37Z</time>
      </trkpt>
      <trkpt lat="45.13206" lon="3.47992">
        <ele>511</ele>
        <time>2021-04-12T08:20:38Z</time>
      </trkpt>
      <trkpt lat="45.13214" lon="3.47987">
        <ele>512</ele>
        <time>2021-04-12T08:20:40Z</time>
      </trkpt>
      <trkpt lat="45.13218" lon="3.47984">
        <ele>512</ele>
        <time>2021-04-12T08:20:41Z</time>
      </trkpt>
      <trkpt lat="45.13222" lon="3.47982">
        <ele>512</ele>
        <time>2021-04-12T08:20:42Z</time>
      </trkpt>
      <trkpt lat="45.13226" lon="3.4798">
        <ele>513</ele>
        <time>2021-04-12T08:20:43Z</time>
      </trkpt>
      <trkpt lat="45.1323" lon="3.47978">
        <ele>513</ele>
        <time>2021-04-12T08:20:44Z</time>
      </trkpt>
      <trkpt lat="45.13235" lon="3.47976">
        <ele>513</ele>
        <time>2021-04-12T08:20:45Z</time>
      </trkpt>
      <trkpt lat="45.13242" lon="3.47972">
        <ele>513</ele>
        <time>2021-04-12T08:20:46Z</time>
      </trkpt>
      <trkpt lat="45.13245" lon="3.47971">
        <ele>514</ele>
        <time>2021-04-12T08:20:48Z</time>
      </trkpt>
      <trkpt lat="45.1326" lon="3.47963">
        <ele>515</ele>
        <time>2021-04-12T08:20:52Z</time>
      </trkpt>
      <trkpt lat="45.13267" lon="3.47957">
        <ele>516</ele>
        <time>2021-04-12T08:20:54Z</time>
      </trkpt>
      <trkpt lat="45.1327" lon="3.47955">
        <ele>516</ele>
        <time>2021-04-12T08:20:55Z</time>
      </trkpt>
      <trkpt lat="45.13273" lon="3.47953">
        <ele>517</ele>
        <time>2021-04-12T08:20:56Z</time>
      </trkpt>
      <trkpt lat="45.13277" lon="3.4795">
        <ele>517</ele>
        <time>2021-04-12T08:20:57Z</time>
      </trkpt>
      <trkpt lat="45.1328" lon="3.47947">
        <ele>518</ele>
        <time>2021-04-12T08:20:58Z</time>
      </trkpt>
      <trkpt lat="45.13282" lon="3.47944">
        <ele>518</ele>
        <time>2021-04-12T08:20:59Z</time>
      </trkpt>
      <trkpt lat="45.13285" lon="3.47941">
        <ele>519</ele>
        <time>2021-04-12T08:21:00Z</time>
      </trkpt>
      <trkpt lat="45.13291" lon="3.47935">
        <ele>520</ele>
        <time>2021-04-12T08:21:02Z</time>
      </trkpt>
      <trkpt lat="45.13293" lon="3.47932">
        <ele>520</ele>
        <time>2021-04-12T08:21:03Z</time>
      </trkpt>
      <trkpt lat="45.13296" lon="3.47929">
        <ele>521</ele>
        <time>2021-04-12T08:21:04Z</time>
      </trkpt>
      <trkpt lat="45.13302" lon="3.47923">
        <ele>521</ele>
        <time>2021-04-12T08:21:05Z</time>
      </trkpt>
      <trkpt lat="45.13304" lon="3.47919">
        <ele>523</ele>
        <time>2021-04-12T08:21:07Z</time>
      </trkpt>
      <trkpt lat="45.13307" lon="3.47916">
        <ele>523</ele>
        <time>2021-04-12T08:21:08Z</time>
      </trkpt>
      <trkpt lat="45.1331" lon="3.47914">
        <ele>524</ele>
        <time>2021-04-12T08:21:09Z</time>
      </trkpt>
      <trkpt lat="45.13312" lon="3.47911">
        <ele>524</ele>
        <time>2021-04-12T08:21:10Z</time>
      </trkpt>
      <trkpt lat="45.13323" lon="3.479">
        <ele>526</ele>
        <time>2021-04-12T08:21:14Z</time>
      </trkpt>
      <trkpt lat="45.13326" lon="3.47897">
        <ele>526</ele>
        <time>2021-04-12T08:21:15Z</time>
      </trkpt>
      <trkpt lat="45.13328" lon="3.47894">
        <ele>526</ele>
        <time>2021-04-12T08:21:16Z</time>
      </trkpt>
      <trkpt lat="45.1333" lon="3.47891">
        <ele>527</ele>
        <time>2021-04-12T08:21:17Z</time>
      </trkpt>
      <trkpt lat="45.13334" lon="3.47884">
        <ele>527</ele>
        <time>2021-04-12T08:21:19Z</time>
      </trkpt>
      <trkpt lat="45.13336" lon="3.4788">
        <ele>528</ele>
        <time>2021-04-12T08:21:20Z</time>
      </trkpt>
      <trkpt lat="45.13337" lon="3.47876">
        <ele>528</ele>
        <time>2021-04-12T08:21:21Z</time>
      </trkpt>
      <trkpt lat="45.13339" lon="3.47872">
        <ele>528</ele>
        <time>2021-04-12T08:21:22Z</time>
      </trkpt>
      <trkpt lat="45.13342" lon="3.47859">
        <ele>529</ele>
        <time>2021-04-12T08:21:24Z</time>
      </trkpt>
      <trkpt lat="45.13343" lon="3.47855">
        <ele>530</ele>
        <time>2021-04-12T08:21:26Z</time>
      </trkpt>
      <trkpt lat="45.13345" lon="3.4785">
        <ele>531</ele>
        <time>2021-04-12T08:21:27Z</time>
      </trkpt>
      <trkpt lat="45.13346" lon="3.47846">
        <ele>531</ele>
        <time>2021-04-12T08:21:28Z</time>
      </trkpt>
      <trkpt lat="45.13348" lon="3.47842">
        <ele>532</ele>
        <time>2021-04-12T08:21:29Z</time>
      </trkpt>
      <trkpt lat="45.13351" lon="3.4784">
        <ele>532</ele>
        <time>2021-04-12T08:21:30Z</time>
      </trkpt>
      <trkpt lat="45.13353" lon="3.47838">
        <ele>533</ele>
        <time>2021-04-12T08:21:31Z</time>
      </trkpt>
      <trkpt lat="45.13356" lon="3.47836">
        <ele>533</ele>
        <time>2021-04-12T08:21:32Z</time>
      </trkpt>
      <trkpt lat="45.13384" lon="3.47847">
        <ele>535</ele>
        <time>2021-04-12T08:21:39Z</time>
      </trkpt>
      <trkpt lat="45.13388" lon="3.47849">
        <ele>535</ele>
        <time>2021-04-12T08:21:40Z</time>
      </trkpt>
      <trkpt lat="45.13393" lon="3.47851">
        <ele>536</ele>
        <time>2021-04-12T08:21:41Z</time>
      </trkpt>
      <trkpt lat="45.13397" lon="3.47853">
        <ele>536</ele>
        <time>2021-04-12T08:21:42Z</time>
      </trkpt>
      <trkpt lat="45.13402" lon="3.47853">
        <ele>536</ele>
        <time>2021-04-12T08:21:43Z</time>
      </trkpt>
      <trkpt lat="45.13407" lon="3.47854">
        <ele>536</ele>
        <time>2021-04-12T08:21:44Z</time>
      </trkpt>
      <trkpt lat="45.13412" lon="3.47854">
        <ele>537</ele>
        <time>2021-04-12T08:21:45Z</time>
      </trkpt>
      <trkpt lat="45.13417" lon="3.47853">
        <ele>537</ele>
        <time>2021-04-12T08:21:46Z</time>
      </trkpt>
      <trkpt lat="45.13428" lon="3.4785">
        <ele>537</ele>
        <time>2021-04-12T08:21:48Z</time>
      </trkpt>
      <trkpt lat="45.13433" lon="3.47848">
        <ele>538</ele>
        <time>2021-04-12T08:21:49Z</time>
      </trkpt>
      <trkpt lat="45.13439" lon="3.47846">
        <ele>538</ele>
        <time>2021-04-12T08:21:50Z</time>
      </trkpt>
      <trkpt lat="45.13445" lon="3.47844">
        <ele>538</ele>
        <time>2021-04-12T08:21:51Z</time>
      </trkpt>
      <trkpt lat="45.13451" lon="3.47842">
        <ele>538</ele>
        <time>2021-04-12T08:21:52Z</time>
      </trkpt>
      <trkpt lat="45.13456" lon="3.47841">
        <ele>538</ele>
        <time>2021-04-12T08:21:53Z</time>
      </trkpt>
      <trkpt lat="45.13461" lon="3.47841">
        <ele>539</ele>
        <time>2021-04-12T08:21:54Z</time>
      </trkpt>
      <trkpt lat="45.13467" lon="3.4784">
        <ele>539</ele>
        <time>2021-04-12T08:21:55Z</time>
      </trkpt>
      <trkpt lat="45.13492" lon="3.47828">
        <ele>540</ele>
        <time>2021-04-12T08:22:01Z</time>
      </trkpt>
      <trkpt lat="45.13499" lon="3.47814">
        <ele>541</ele>
        <time>2021-04-12T08:22:04Z</time>
      </trkpt>
      <trkpt lat="45.13507" lon="3.47801">
        <ele>542</ele>
        <time>2021-04-12T08:22:07Z</time>
      </trkpt>
      <trkpt lat="45.13517" lon="3.47795">
        <ele>543</ele>
        <time>2021-04-12T08:22:10Z</time>
      </trkpt>
      <trkpt lat="45.13526" lon="3.47796">
        <ele>544</ele>
        <time>2021-04-12T08:22:12Z</time>
      </trkpt>
      <trkpt lat="45.13536" lon="3.47799">
        <ele>544</ele>
        <time>2021-04-12T08:22:14Z</time>
      </trkpt>
      <trkpt lat="45.13549" lon="3.47802">
        <ele>545</ele>
        <time>2021-04-12T08:22:17Z</time>
      </trkpt>
      <trkpt lat="45.13563" lon="3.47803">
        <ele>545</ele>
        <time>2021-04-12T08:22:20Z</time>
      </trkpt>
      <trkpt lat="45.13586" lon="3.47797">
        <ele>546</ele>
        <time>2021-04-12T08:22:24Z</time>
      </trkpt>
      <trkpt lat="45.13596" lon="3.47794">
        <ele>547</ele>
        <time>2021-04-12T08:22:26Z</time>
      </trkpt>
      <trkpt lat="45.13606" lon="3.47793">
        <ele>548</ele>
        <time>2021-04-12T08:22:28Z</time>
      </trkpt>
      <trkpt lat="45.13611" lon="3.47792">
        <ele>548</ele>
        <time>2021-04-12T08:22:29Z</time>
      </trkpt>
      <trkpt lat="45.13616" lon="3.47791">
        <ele>548</ele>
        <time>2021-04-12T08:22:30Z</time>
      </trkpt>
      <trkpt lat="45.13626" lon="3.47789">
        <ele>549</ele>
        <time>2021-04-12T08:22:32Z</time>
      </trkpt>
      <trkpt lat="45.13636" lon="3.47786">
        <ele>549</ele>
        <time>2021-04-12T08:22:34Z</time>
      </trkpt>
      <trkpt lat="45.13646" lon="3.47784">
        <ele>550</ele>
        <time>2021-04-12T08:22:36Z</time>
      </trkpt>
      <trkpt lat="45.13686" lon="3.4778">
        <ele>552</ele>
        <time>2021-04-12T08:22:44Z</time>
      </trkpt>
      <trkpt lat="45.13695" lon="3.4778">
        <ele>552</ele>
        <time>2021-04-12T08:22:46Z</time>
      </trkpt>
      <trkpt lat="45.13699" lon="3.47779">
        <ele>552</ele>
        <time>2021-04-12T08:22:47Z</time>
      </trkpt>
      <trkpt lat="45.13704" lon="3.47779">
        <ele>553</ele>
        <time>2021-04-12T08:22:48Z</time>
      </trkpt>
      <trkpt lat="45.13709" lon="3.47778">
        <ele>553</ele>
        <time>2021-04-12T08:22:49Z</time>
      </trkpt>
      <trkpt lat="45.13713" lon="3.47778">
        <ele>553</ele>
        <time>2021-04-12T08:22:50Z</time>
      </trkpt>
      <trkpt lat="45.13726" lon="3.47775">
        <ele>554</ele>
        <time>2021-04-12T08:22:53Z</time>
      </trkpt>
      <trkpt lat="45.13731" lon="3.47773">
        <ele>554</ele>
        <time>2021-04-12T08:22:54Z</time>
      </trkpt>
      <trkpt lat="45.13739" lon="3.47771">
        <ele>554</ele>
        <time>2021-04-12T08:22:56Z</time>
      </trkpt>
      <trkpt lat="45.13744" lon="3.4777">
        <ele>555</ele>
        <time>2021-04-12T08:22:57Z</time>
      </trkpt>
      <trkpt lat="45.13748" lon="3.47769">
        <ele>555</ele>
        <time>2021-04-12T08:22:58Z</time>
      </trkpt>
      <trkpt lat="45.13757" lon="3.47768">
        <ele>555</ele>
        <time>2021-04-12T08:22:59Z</time>
      </trkpt>
      <trkpt lat="45.13761" lon="3.47767">
        <ele>556</ele>
        <time>2021-04-12T08:23:01Z</time>
      </trkpt>
      <trkpt lat="45.13765" lon="3.47766">
        <ele>556</ele>
        <time>2021-04-12T08:23:02Z</time>
      </trkpt>
      <trkpt lat="45.13769" lon="3.47766">
        <ele>557</ele>
        <time>2021-04-12T08:23:03Z</time>
      </trkpt>
      <trkpt lat="45.13773" lon="3.47765">
        <ele>557</ele>
        <time>2021-04-12T08:23:04Z</time>
      </trkpt>
      <trkpt lat="45.13786" lon="3.4776">
        <ele>560</ele>
        <time>2021-04-12T08:23:08Z</time>
      </trkpt>
      <trkpt lat="45.13789" lon="3.47757">
        <ele>561</ele>
        <time>2021-04-12T08:23:09Z</time>
      </trkpt>
      <trkpt lat="45.13792" lon="3.47754">
        <ele>562</ele>
        <time>2021-04-12T08:23:10Z</time>
      </trkpt>
      <trkpt lat="45.13795" lon="3.4775">
        <ele>563</ele>
        <time>2021-04-12T08:23:11Z</time>
      </trkpt>
      <trkpt lat="45.13798" lon="3.47746">
        <ele>563</ele>
        <time>2021-04-12T08:23:12Z</time>
      </trkpt>
      <trkpt lat="45.13801" lon="3.47742">
        <ele>564</ele>
        <time>2021-04-12T08:23:13Z</time>
      </trkpt>
      <trkpt lat="45.13803" lon="3.47738">
        <ele>564</ele>
        <time>2021-04-12T08:23:14Z</time>
      </trkpt>
      <trkpt lat="45.13806" lon="3.47733">
        <ele>564</ele>
        <time>2021-04-12T08:23:15Z</time>
      </trkpt>
      <trkpt lat="45.13811" lon="3.47724">
        <ele>565</ele>
        <time>2021-04-12T08:23:17Z</time>
      </trkpt>
      <trkpt lat="45.13816" lon="3.47714">
        <ele>566</ele>
        <time>2021-04-12T08:23:18Z</time>
      </trkpt>
      <trkpt lat="45.13819" lon="3.4771">
        <ele>566</ele>
        <time>2021-04-12T08:23:20Z</time>
      </trkpt>
      <trkpt lat="45.13821" lon="3.47704">
        <ele>567</ele>
        <time>2021-04-12T08:23:21Z</time>
      </trkpt>
      <trkpt lat="45.13823" lon="3.47699">
        <ele>567</ele>
        <time>2021-04-12T08:23:22Z</time>
      </trkpt>
      <trkpt lat="45.13825" lon="3.47694">
        <ele>567</ele>
        <time>2021-04-12T08:23:23Z</time>
      </trkpt>
      <trkpt lat="45.13826" lon="3.4769">
        <ele>567</ele>
        <time>2021-04-12T08:23:24Z</time>
      </trkpt>
      <trkpt lat="45.13827" lon="3.47686">
        <ele>567</ele>
        <time>2021-04-12T08:23:25Z</time>
      </trkpt>
      <trkpt lat="45.13828" lon="3.4767">
        <ele>568</ele>
        <time>2021-04-12T08:23:29Z</time>
      </trkpt>
      <trkpt lat="45.13828" lon="3.47665">
        <ele>568</ele>
        <time>2021-04-12T08:23:30Z</time>
      </trkpt>
      <trkpt lat="45.13827" lon="3.4766">
        <ele>568</ele>
        <time>2021-04-12T08:23:31Z</time>
      </trkpt>
      <trkpt lat="45.13825" lon="3.47654">
        <ele>568</ele>
        <time>2021-04-12T08:23:32Z</time>
      </trkpt>
      <trkpt lat="45.13823" lon="3.47649">
        <ele>568</ele>
        <time>2021-04-12T08:23:33Z</time>
      </trkpt>
      <trkpt lat="45.1382" lon="3.47644">
        <ele>568</ele>
        <time>2021-04-12T08:23:34Z</time>
      </trkpt>
      <trkpt lat="45.13818" lon="3.4764">
        <ele>568</ele>
        <time>2021-04-12T08:23:35Z</time>
      </trkpt>
      <trkpt lat="45.13817" lon="3.47635">
        <ele>568</ele>
        <time>2021-04-12T08:23:36Z</time>
      </trkpt>
      <trkpt lat="45.13814" lon="3.47628">
        <ele>568</ele>
        <time>2021-04-12T08:23:38Z</time>
      </trkpt>
      <trkpt lat="45.13813" lon="3.47625">
        <ele>568</ele>
        <time>2021-04-12T08:23:39Z</time>
      </trkpt>
      <trkpt lat="45.13812" lon="3.47622">
        <ele>568</ele>
        <time>2021-04-12T08:23:40Z</time>
      </trkpt>
      <trkpt lat="45.1381" lon="3.47619">
        <ele>568</ele>
        <time>2021-04-12T08:23:41Z</time>
      </trkpt>
      <trkpt lat="45.13808" lon="3.47616">
        <ele>568</ele>
        <time>2021-04-12T08:23:42Z</time>
      </trkpt>
      <trkpt lat="45.13806" lon="3.47612">
        <ele>568</ele>
        <time>2021-04-12T08:23:43Z</time>
      </trkpt>
      <trkpt lat="45.13803" lon="3.47607">
        <ele>567</ele>
        <time>2021-04-12T08:23:44Z</time>
      </trkpt>
      <trkpt lat="45.138" lon="3.47602">
        <ele>567</ele>
        <time>2021-04-12T08:23:45Z</time>
      </trkpt>
      <trkpt lat="45.13792" lon="3.47579">
        <ele>567</ele>
        <time>2021-04-12T08:23:49Z</time>
      </trkpt>
      <trkpt lat="45.13792" lon="3.47572">
        <ele>567</ele>
        <time>2021-04-12T08:23:50Z</time>
      </trkpt>
      <trkpt lat="45.13794" lon="3.47566">
        <ele>567</ele>
        <time>2021-04-12T08:23:51Z</time>
      </trkpt>
      <trkpt lat="45.13797" lon="3.4756">
        <ele>567</ele>
        <time>2021-04-12T08:23:52Z</time>
      </trkpt>
      <trkpt lat="45.13801" lon="3.47555">
        <ele>567</ele>
        <time>2021-04-12T08:23:53Z</time>
      </trkpt>
      <trkpt lat="45.13805" lon="3.47552">
        <ele>567</ele>
        <time>2021-04-12T08:23:54Z</time>
      </trkpt>
      <trkpt lat="45.13808" lon="3.47549">
        <ele>567</ele>
        <time>2021-04-12T08:23:55Z</time>
      </trkpt>
      <trkpt lat="45.13811" lon="3.47547">
        <ele>567</ele>
        <time>2021-04-12T08:23:56Z</time>
      </trkpt>
      <trkpt lat="45.13814" lon="3.47544">
        <ele>568</ele>
        <time>2021-04-12T08:24:02Z</time>
      </trkpt>
      <trkpt lat="45.13816" lon="3.47542">
        <ele>568</ele>
        <time>2021-04-12T08:24:03Z</time>
      </trkpt>
      <trkpt lat="45.13818" lon="3.47541">
        <ele>568</ele>
        <time>2021-04-12T08:24:04Z</time>
      </trkpt>
      <trkpt lat="45.1382" lon="3.47539">
        <ele>568</ele>
        <time>2021-04-12T08:24:05Z</time>
      </trkpt>
      <trkpt lat="45.13824" lon="3.47536">
        <ele>568</ele>
        <time>2021-04-12T08:24:06Z</time>
      </trkpt>
      <trkpt lat="45.13827" lon="3.47534">
        <ele>567</ele>
        <time>2021-04-12T08:24:07Z</time>
      </trkpt>
      <trkpt lat="45.13832" lon="3.47532">
        <ele>567</ele>
        <time>2021-04-12T08:24:08Z</time>
      </trkpt>
      <trkpt lat="45.13836" lon="3.47529">
        <ele>567</ele>
        <time>2021-04-12T08:24:09Z</time>
      </trkpt>
      <trkpt lat="45.1386" lon="3.47517">
        <ele>565</ele>
        <time>2021-04-12T08:24:13Z</time>
      </trkpt>
      <trkpt lat="45.13867" lon="3.47514">
        <ele>565</ele>
        <time>2021-04-12T08:24:14Z</time>
      </trkpt>
      <trkpt lat="45.13874" lon="3.4751">
        <ele>565</ele>
        <time>2021-04-12T08:24:15Z</time>
      </trkpt>
      <trkpt lat="45.13882" lon="3.47507">
        <ele>564</ele>
        <time>2021-04-12T08:24:16Z</time>
      </trkpt>
      <trkpt lat="45.1389" lon="3.47505">
        <ele>564</ele>
        <time>2021-04-12T08:24:17Z</time>
      </trkpt>
      <trkpt lat="45.13899" lon="3.47503">
        <ele>563</ele>
        <time>2021-04-12T08:24:18Z</time>
      </trkpt>
      <trkpt lat="45.13906" lon="3.475">
        <ele>563</ele>
        <time>2021-04-12T08:24:19Z</time>
      </trkpt>
      <trkpt lat="45.13911" lon="3.47495">
        <ele>562</ele>
        <time>2021-04-12T08:24:20Z</time>
      </trkpt>
      <trkpt lat="45.1391" lon="3.47481">
        <ele>561</ele>
        <time>2021-04-12T08:24:22Z</time>
      </trkpt>
      <trkpt lat="45.13906" lon="3.47474">
        <ele>561</ele>
        <time>2021-04-12T08:24:23Z</time>
      </trkpt>
      <trkpt lat="45.13902" lon="3.47468">
        <ele>561</ele>
        <time>2021-04-12T08:24:24Z</time>
      </trkpt>
      <trkpt lat="45.13896" lon="3.47462">
        <ele>561</ele>
        <time>2021-04-12T08:24:25Z</time>
      </trkpt>
      <trkpt lat="45.13892" lon="3.47457">
        <ele>561</ele>
        <time>2021-04-12T08:24:26Z</time>
      </trkpt>
      <trkpt lat="45.13887" lon="3.47453">
        <ele>560</ele>
        <time>2021-04-12T08:24:27Z</time>
      </trkpt>
      <trkpt lat="45.13882" lon="3.47449">
        <ele>560</ele>
        <time>2021-04-12T08:24:28Z</time>
      </trkpt>
      <trkpt lat="45.13877" lon="3.47444">
        <ele>560</ele>
        <time>2021-04-12T08:24:29Z</time>
      </trkpt>
      <trkpt lat="45.13857" lon="3.47424">
        <ele>560</ele>
        <time>2021-04-12T08:24:33Z</time>
      </trkpt>
      <trkpt lat="45.13845" lon="3.47413">
        <ele>559</ele>
        <time>2021-04-12T08:24:34Z</time>
      </trkpt>
      <trkpt lat="45.13839" lon="3.47408">
        <ele>558</ele>
        <time>2021-04-12T08:24:36Z</time>
      </trkpt>
      <trkpt lat="45.13832" lon="3.47403">
        <ele>558</ele>
        <time>2021-04-12T08:24:37Z</time>
      </trkpt>
      <trkpt lat="45.13824" lon="3.47397">
        <ele>557</ele>
        <time>2021-04-12T08:24:38Z</time>
      </trkpt>
      <trkpt lat="45.13816" lon="3.4739">
        <ele>557</ele>
        <time>2021-04-12T08:24:39Z</time>
      </trkpt>
      <trkpt lat="45.13808" lon="3.47384">
        <ele>556</ele>
        <time>2021-04-12T08:24:40Z</time>
      </trkpt>
      <trkpt lat="45.13801" lon="3.47376">
        <ele>556</ele>
        <time>2021-04-12T08:24:41Z</time>
      </trkpt>
      <trkpt lat="45.13788" lon="3.47359">
        <ele>555</ele>
        <time>2021-04-12T08:24:43Z</time>
      </trkpt>
      <trkpt lat="45.13783" lon="3.4735">
        <ele>554</ele>
        <time>2021-04-12T08:24:44Z</time>
      </trkpt>
      <trkpt lat="45.13781" lon="3.47339">
        <ele>554</ele>
        <time>2021-04-12T08:24:45Z</time>
      </trkpt>
      <trkpt lat="45.1378" lon="3.47327">
        <ele>552</ele>
        <time>2021-04-12T08:24:46Z</time>
      </trkpt>
      <trkpt lat="45.1378" lon="3.47317">
        <ele>551</ele>
        <time>2021-04-12T08:24:47Z</time>
      </trkpt>
      <trkpt lat="45.13779" lon="3.47308">
        <ele>551</ele>
        <time>2021-04-12T08:24:48Z</time>
      </trkpt>
      <trkpt lat="45.13778" lon="3.47299">
        <ele>550</ele>
        <time>2021-04-12T08:24:49Z</time>
      </trkpt>
      <trkpt lat="45.13777" lon="3.4729">
        <ele>549</ele>
        <time>2021-04-12T08:24:50Z</time>
      </trkpt>
      <trkpt lat="45.13771" lon="3.47235">
        <ele>545</ele>
        <time>2021-04-12T08:24:55Z</time>
      </trkpt>
      <trkpt lat="45.13769" lon="3.47223">
        <ele>544</ele>
        <time>2021-04-12T08:24:56Z</time>
      </trkpt>
      <trkpt lat="45.13767" lon="3.4721">
        <ele>543</ele>
        <time>2021-04-12T08:24:57Z</time>
      </trkpt>
      <trkpt lat="45.13765" lon="3.47196">
        <ele>542</ele>
        <time>2021-04-12T08:24:58Z</time>
      </trkpt>
      <trkpt lat="45.13764" lon="3.47181">
        <ele>540</ele>
        <time>2021-04-12T08:24:59Z</time>
      </trkpt>
      <trkpt lat="45.13764" lon="3.47165">
        <ele>539</ele>
        <time>2021-04-12T08:25:00Z</time>
      </trkpt>
      <trkpt lat="45.13765" lon="3.47149">
        <ele>537</ele>
        <time>2021-04-12T08:25:01Z</time>
      </trkpt>
      <trkpt lat="45.13767" lon="3.47132">
        <ele>535</ele>
        <time>2021-04-12T08:25:02Z</time>
      </trkpt>
      <trkpt lat="45.13773" lon="3.47101">
        <ele>530</ele>
        <time>2021-04-12T08:25:04Z</time>
      </trkpt>
      <trkpt lat="45.13777" lon="3.47086">
        <ele>528</ele>
        <time>2021-04-12T08:25:05Z</time>
      </trkpt>
      <trkpt lat="45.13781" lon="3.47072">
        <ele>526</ele>
        <time>2021-04-12T08:25:06Z</time>
      </trkpt>
      <trkpt lat="45.13784" lon="3.47059">
        <ele>524</ele>
        <time>2021-04-12T08:25:07Z</time>
      </trkpt>
      <trkpt lat="45.13793" lon="3.47019">
        <ele>521</ele>
        <time>2021-04-12T08:25:09Z</time>
      </trkpt>
      <trkpt lat="45.13796" lon="3.47006">
        <ele>518</ele>
        <time>2021-04-12T08:25:11Z</time>
      </trkpt>
      <trkpt lat="45.138" lon="3.4698">
        <ele>516</ele>
        <time>2021-04-12T08:25:12Z</time>
      </trkpt>
      <trkpt lat="45.13801" lon="3.46967">
        <ele>513</ele>
        <time>2021-04-12T08:25:14Z</time>
      </trkpt>
      <trkpt lat="45.13802" lon="3.46924">
        <ele>508</ele>
        <time>2021-04-12T08:25:18Z</time>
      </trkpt>
      <trkpt lat="45.13802" lon="3.46917">
        <ele>507</ele>
        <time>2021-04-12T08:25:19Z</time>
      </trkpt>
      <trkpt lat="45.13802" lon="3.46915">
        <ele>506</ele>
        <time>2021-04-12T08:25:20Z</time>
      </trkpt>
      <trkpt lat="45.138" lon="3.46912">
        <ele>505</ele>
        <time>2021-04-12T08:25:23Z</time>
      </trkpt>
      <trkpt lat="45.13798" lon="3.46912">
        <ele>505</ele>
        <time>2021-04-12T08:25:25Z</time>
      </trkpt>
      <trkpt lat="45.13796" lon="3.46913">
        <ele>504</ele>
        <time>2021-04-12T08:25:28Z</time>
      </trkpt>
      <trkpt lat="45.13798" lon="3.46916">
        <ele>504</ele>
        <time>2021-04-12T08:25:31Z</time>
      </trkpt>
      <trkpt lat="45.138" lon="3.46921">
        <ele>504</ele>
        <time>2021-04-12T08:25:33Z</time>
      </trkpt>
      <trkpt lat="45.138" lon="3.46916">
        <ele>503</ele>
        <time>2021-04-12T08:25:37Z</time>
      </trkpt>
      <trkpt lat="45.13798" lon="3.46915">
        <ele>503</ele>
        <time>2021-04-12T08:25:38Z</time>
      </trkpt>
      <trkpt lat="45.13796" lon="3.46914">
        <ele>503</ele>
        <time>2021-04-12T08:25:39Z</time>
      </trkpt>
      <trkpt lat="45.13794" lon="3.46912">
        <ele>503</ele>
        <time>2021-04-12T08:25:40Z</time>
      </trkpt>
      <trkpt lat="45.13793" lon="3.4691">
        <ele>503</ele>
        <time>2021-04-12T08:25:41Z</time>
      </trkpt>
      <trkpt lat="45.13791" lon="3.46905">
        <ele>503</ele>
        <time>2021-04-12T08:25:43Z</time>
      </trkpt>
      <trkpt lat="45.13789" lon="3.46903">
        <ele>504</ele>
        <time>2021-04-12T08:25:44Z</time>
      </trkpt>
      <trkpt lat="45.13788" lon="3.469">
        <ele>504</ele>
        <time>2021-04-12T08:25:45Z</time>
      </trkpt>
      <trkpt lat="45.13783" lon="3.46883">
        <ele>504</ele>
        <time>2021-04-12T08:25:49Z</time>
      </trkpt>
      <trkpt lat="45.1378" lon="3.46875">
        <ele>505</ele>
        <time>2021-04-12T08:25:50Z</time>
      </trkpt>
      <trkpt lat="45.13778" lon="3.46871">
        <ele>505</ele>
        <time>2021-04-12T08:25:52Z</time>
      </trkpt>
      <trkpt lat="45.13777" lon="3.46867">
        <ele>505</ele>
        <time>2021-04-12T08:25:53Z</time>
      </trkpt>
      <trkpt lat="45.13775" lon="3.46863">
        <ele>506</ele>
        <time>2021-04-12T08:25:54Z</time>
      </trkpt>
      <trkpt lat="45.13774" lon="3.46859">
        <ele>506</ele>
        <time>2021-04-12T08:25:55Z</time>
      </trkpt>
      <trkpt lat="45.13772" lon="3.46855">
        <ele>506</ele>
        <time>2021-04-12T08:25:56Z</time>
      </trkpt>
      <trkpt lat="45.1377" lon="3.46851">
        <ele>506</ele>
        <time>2021-04-12T08:25:57Z</time>
      </trkpt>
      <trkpt lat="45.13767" lon="3.46843">
        <ele>507</ele>
        <time>2021-04-12T08:25:59Z</time>
      </trkpt>
      <trkpt lat="45.13765" lon="3.46839">
        <ele>507</ele>
        <time>2021-04-12T08:26:00Z</time>
      </trkpt>
      <trkpt lat="45.13764" lon="3.46834">
        <ele>507</ele>
        <time>2021-04-12T08:26:01Z</time>
      </trkpt>
      <trkpt lat="45.13762" lon="3.4683">
        <ele>507</ele>
        <time>2021-04-12T08:26:02Z</time>
      </trkpt>
      <trkpt lat="45.1376" lon="3.46825">
        <ele>507</ele>
        <time>2021-04-12T08:26:03Z</time>
      </trkpt>
      <trkpt lat="45.13757" lon="3.4682">
        <ele>507</ele>
        <time>2021-04-12T08:26:04Z</time>
      </trkpt>
      <trkpt lat="45.13755" lon="3.46815">
        <ele>507</ele>
        <time>2021-04-12T08:26:05Z</time>
      </trkpt>
      <trkpt lat="45.13753" lon="3.46809">
        <ele>507</ele>
        <time>2021-04-12T08:26:06Z</time>
      </trkpt>
      <trkpt lat="45.13744" lon="3.46788">
        <ele>508</ele>
        <time>2021-04-12T08:26:10Z</time>
      </trkpt>
      <trkpt lat="45.13741" lon="3.46782">
        <ele>508</ele>
        <time>2021-04-12T08:26:11Z</time>
      </trkpt>
      <trkpt lat="45.13739" lon="3.46777">
        <ele>508</ele>
        <time>2021-04-12T08:26:12Z</time>
      </trkpt>
      <trkpt lat="45.13737" lon="3.46772">
        <ele>508</ele>
        <time>2021-04-12T08:26:13Z</time>
      </trkpt>
      <trkpt lat="45.13735" lon="3.46767">
        <ele>508</ele>
        <time>2021-04-12T08:26:14Z</time>
      </trkpt>
      <trkpt lat="45.13733" lon="3.46762">
        <ele>508</ele>
        <time>2021-04-12T08:26:15Z</time>
      </trkpt>
      <trkpt lat="45.13731" lon="3.46758">
        <ele>508</ele>
        <time>2021-04-12T08:26:16Z</time>
      </trkpt>
      <trkpt lat="45.13729" lon="3.46753">
        <ele>508</ele>
        <time>2021-04-12T08:26:17Z</time>
      </trkpt>
      <trkpt lat="45.13725" lon="3.46745">
        <ele>508</ele>
        <time>2021-04-12T08:26:19Z</time>
      </trkpt>
      <trkpt lat="45.13723" lon="3.4674">
        <ele>508</ele>
        <time>2021-04-12T08:26:20Z</time>
      </trkpt>
      <trkpt lat="45.13721" lon="3.46736">
        <ele>508</ele>
        <time>2021-04-12T08:26:21Z</time>
      </trkpt>
      <trkpt lat="45.13719" lon="3.46731">
        <ele>508</ele>
        <time>2021-04-12T08:26:22Z</time>
      </trkpt>
      <trkpt lat="45.13717" lon="3.46726">
        <ele>508</ele>
        <time>2021-04-12T08:26:23Z</time>
      </trkpt>
      <trkpt lat="45.13715" lon="3.46722">
        <ele>508</ele>
        <time>2021-04-12T08:26:24Z</time>
      </trkpt>
      <trkpt lat="45.13713" lon="3.46717">
        <ele>509</ele>
        <time>2021-04-12T08:26:25Z</time>
      </trkpt>
      <trkpt lat="45.13711" lon="3.46712">
        <ele>509</ele>
        <time>2021-04-12T08:26:26Z</time>
      </trkpt>
      <trkpt lat="45.137" lon="3.46687">
        <ele>509</ele>
        <time>2021-04-12T08:26:31Z</time>
      </trkpt>
      <trkpt lat="45.13698" lon="3.46682">
        <ele>509</ele>
        <time>2021-04-12T08:26:32Z</time>
      </trkpt>
      <trkpt lat="45.13696" lon="3.46677">
        <ele>509</ele>
        <time>2021-04-12T08:26:33Z</time>
      </trkpt>
      <trkpt lat="45.13694" lon="3.46671">
        <ele>509</ele>
        <time>2021-04-12T08:26:34Z</time>
      </trkpt>
      <trkpt lat="45.13692" lon="3.46666">
        <ele>509</ele>
        <time>2021-04-12T08:26:35Z</time>
      </trkpt>
      <trkpt lat="45.13689" lon="3.46661">
        <ele>509</ele>
        <time>2021-04-12T08:26:36Z</time>
      </trkpt>
      <trkpt lat="45.13687" lon="3.46655">
        <ele>509</ele>
        <time>2021-04-12T08:26:37Z</time>
      </trkpt>
      <trkpt lat="45.13685" lon="3.4665">
        <ele>509</ele>
        <time>2021-04-12T08:26:38Z</time>
      </trkpt>
      <trkpt lat="45.1368" lon="3.46639">
        <ele>509</ele>
        <time>2021-04-12T08:26:40Z</time>
      </trkpt>
      <trkpt lat="45.13678" lon="3.46634">
        <ele>509</ele>
        <time>2021-04-12T08:26:41Z</time>
      </trkpt>
      <trkpt lat="45.13676" lon="3.46628">
        <ele>510</ele>
        <time>2021-04-12T08:26:42Z</time>
      </trkpt>
      <trkpt lat="45.13673" lon="3.46623">
        <ele>509</ele>
        <time>2021-04-12T08:26:43Z</time>
      </trkpt>
      <trkpt lat="45.13671" lon="3.46616">
        <ele>509</ele>
        <time>2021-04-12T08:26:44Z</time>
      </trkpt>
      <trkpt lat="45.13669" lon="3.4661">
        <ele>509</ele>
        <time>2021-04-12T08:26:45Z</time>
      </trkpt>
      <trkpt lat="45.13667" lon="3.46604">
        <ele>509</ele>
        <time>2021-04-12T08:26:46Z</time>
      </trkpt>
      <trkpt lat="45.13662" lon="3.46592">
        <ele>509</ele>
        <time>2021-04-12T08:26:47Z</time>
      </trkpt>
      <trkpt lat="45.13653" lon="3.46568">
        <ele>509</ele>
        <time>2021-04-12T08:26:52Z</time>
      </trkpt>
      <trkpt lat="45.1365" lon="3.46563">
        <ele>510</ele>
        <time>2021-04-12T08:26:53Z</time>
      </trkpt>
      <trkpt lat="45.13648" lon="3.46558">
        <ele>510</ele>
        <time>2021-04-12T08:26:54Z</time>
      </trkpt>
      <trkpt lat="45.13645" lon="3.46552">
        <ele>510</ele>
        <time>2021-04-12T08:26:55Z</time>
      </trkpt>
      <trkpt lat="45.13642" lon="3.46547">
        <ele>510</ele>
        <time>2021-04-12T08:26:56Z</time>
      </trkpt>
      <trkpt lat="45.1364" lon="3.46542">
        <ele>510</ele>
        <time>2021-04-12T08:26:57Z</time>
      </trkpt>
      <trkpt lat="45.13637" lon="3.46536">
        <ele>510</ele>
        <time>2021-04-12T08:26:58Z</time>
      </trkpt>
      <trkpt lat="45.13634" lon="3.46531">
        <ele>510</ele>
        <time>2021-04-12T08:26:59Z</time>
      </trkpt>
      <trkpt lat="45.13628" lon="3.46522">
        <ele>509</ele>
        <time>2021-04-12T08:27:01Z</time>
      </trkpt>
      <trkpt lat="45.13625" lon="3.46517">
        <ele>509</ele>
        <time>2021-04-12T08:27:02Z</time>
      </trkpt>
      <trkpt lat="45.13622" lon="3.46512">
        <ele>509</ele>
        <time>2021-04-12T08:27:03Z</time>
      </trkpt>
      <trkpt lat="45.13618" lon="3.46508">
        <ele>509</ele>
        <time>2021-04-12T08:27:04Z</time>
      </trkpt>
      <trkpt lat="45.13614" lon="3.46504">
        <ele>509</ele>
        <time>2021-04-12T08:27:05Z</time>
      </trkpt>
      <trkpt lat="45.13606" lon="3.46497">
        <ele>509</ele>
        <time>2021-04-12T08:27:06Z</time>
      </trkpt>
      <trkpt lat="45.13602" lon="3.46494">
        <ele>509</ele>
        <time>2021-04-12T08:27:08Z</time>
      </trkpt>
      <trkpt lat="45.13597" lon="3.46492">
        <ele>510</ele>
        <time>2021-04-12T08:27:09Z</time>
      </trkpt>
      <trkpt lat="45.13581" lon="3.46485">
        <ele>510</ele>
        <time>2021-04-12T08:27:13Z</time>
      </trkpt>
      <trkpt lat="45.13577" lon="3.46484">
        <ele>510</ele>
        <time>2021-04-12T08:27:14Z</time>
      </trkpt>
      <trkpt lat="45.13572" lon="3.46482">
        <ele>510</ele>
        <time>2021-04-12T08:27:15Z</time>
      </trkpt>
      <trkpt lat="45.13568" lon="3.46481">
        <ele>510</ele>
        <time>2021-04-12T08:27:16Z</time>
      </trkpt>
      <trkpt lat="45.13564" lon="3.46479">
        <ele>510</ele>
        <time>2021-04-12T08:27:17Z</time>
      </trkpt>
      <trkpt lat="45.13559" lon="3.46477">
        <ele>510</ele>
        <time>2021-04-12T08:27:18Z</time>
      </trkpt>
      <trkpt lat="45.13555" lon="3.46474">
        <ele>510</ele>
        <time>2021-04-12T08:27:19Z</time>
      </trkpt>
      <trkpt lat="45.13552" lon="3.4647">
        <ele>510</ele>
        <time>2021-04-12T08:27:20Z</time>
      </trkpt>
      <trkpt lat="45.13544" lon="3.46461">
        <ele>510</ele>
        <time>2021-04-12T08:27:22Z</time>
      </trkpt>
      <trkpt lat="45.1354" lon="3.46457">
        <ele>510</ele>
        <time>2021-04-12T08:27:23Z</time>
      </trkpt>
      <trkpt lat="45.13535" lon="3.46454">
        <ele>510</ele>
        <time>2021-04-12T08:27:24Z</time>
      </trkpt>
      <trkpt lat="45.13526" lon="3.46451">
        <ele>510</ele>
        <time>2021-04-12T08:27:25Z</time>
      </trkpt>
      <trkpt lat="45.13521" lon="3.4645">
        <ele>510</ele>
        <time>2021-04-12T08:27:27Z</time>
      </trkpt>
      <trkpt lat="45.13517" lon="3.46449">
        <ele>510</ele>
        <time>2021-04-12T08:27:28Z</time>
      </trkpt>
      <trkpt lat="45.13512" lon="3.46447">
        <ele>510</ele>
        <time>2021-04-12T08:27:29Z</time>
      </trkpt>
      <trkpt lat="45.13508" lon="3.46446">
        <ele>510</ele>
        <time>2021-04-12T08:27:30Z</time>
      </trkpt>
      <trkpt lat="45.1349" lon="3.46447">
        <ele>511</ele>
        <time>2021-04-12T08:27:34Z</time>
      </trkpt>
      <trkpt lat="45.13486" lon="3.46447">
        <ele>511</ele>
        <time>2021-04-12T08:27:35Z</time>
      </trkpt>
      <trkpt lat="45.13481" lon="3.46447">
        <ele>511</ele>
        <time>2021-04-12T08:27:36Z</time>
      </trkpt>
      <trkpt lat="45.13477" lon="3.46447">
        <ele>511</ele>
        <time>2021-04-12T08:27:37Z</time>
      </trkpt>
      <trkpt lat="45.13473" lon="3.46446">
        <ele>511</ele>
        <time>2021-04-12T08:27:38Z</time>
      </trkpt>
      <trkpt lat="45.13469" lon="3.46444">
        <ele>511</ele>
        <time>2021-04-12T08:27:39Z</time>
      </trkpt>
      <trkpt lat="45.13464" lon="3.46443">
        <ele>511</ele>
        <time>2021-04-12T08:27:40Z</time>
      </trkpt>
      <trkpt lat="45.1346" lon="3.46441">
        <ele>511</ele>
        <time>2021-04-12T08:27:41Z</time>
      </trkpt>
      <trkpt lat="45.1344" lon="3.46432">
        <ele>511</ele>
        <time>2021-04-12T08:27:44Z</time>
      </trkpt>
      <trkpt lat="45.13435" lon="3.46429">
        <ele>511</ele>
        <time>2021-04-12T08:27:46Z</time>
      </trkpt>
      <trkpt lat="45.1343" lon="3.46426">
        <ele>510</ele>
        <time>2021-04-12T08:27:47Z</time>
      </trkpt>
      <trkpt lat="45.13424" lon="3.46423">
        <ele>510</ele>
        <time>2021-04-12T08:27:48Z</time>
      </trkpt>
      <trkpt lat="45.13419" lon="3.46421">
        <ele>510</ele>
        <time>2021-04-12T08:27:49Z</time>
      </trkpt>
      <trkpt lat="45.13413" lon="3.46419">
        <ele>510</ele>
        <time>2021-04-12T08:27:50Z</time>
      </trkpt>
      <trkpt lat="45.13407" lon="3.46417">
        <ele>510</ele>
        <time>2021-04-12T08:27:51Z</time>
      </trkpt>
      <trkpt lat="45.13401" lon="3.46416">
        <ele>510</ele>
        <time>2021-04-12T08:27:52Z</time>
      </trkpt>
      <trkpt lat="45.13376" lon="3.46425">
        <ele>509</ele>
        <time>2021-04-12T08:27:56Z</time>
      </trkpt>
      <trkpt lat="45.13369" lon="3.46427">
        <ele>509</ele>
        <time>2021-04-12T08:27:57Z</time>
      </trkpt>
      <trkpt lat="45.13362" lon="3.46429">
        <ele>509</ele>
        <time>2021-04-12T08:27:58Z</time>
      </trkpt>
      <trkpt lat="45.13355" lon="3.46432">
        <ele>508</ele>
        <time>2021-04-12T08:27:59Z</time>
      </trkpt>
      <trkpt lat="45.13348" lon="3.46433">
        <ele>508</ele>
        <time>2021-04-12T08:28:00Z</time>
      </trkpt>
      <trkpt lat="45.13341" lon="3.46435">
        <ele>508</ele>
        <time>2021-04-12T08:28:01Z</time>
      </trkpt>
      <trkpt lat="45.13334" lon="3.46436">
        <ele>507</ele>
        <time>2021-04-12T08:28:02Z</time>
      </trkpt>
      <trkpt lat="45.13321" lon="3.4644">
        <ele>507</ele>
        <time>2021-04-12T08:28:03Z</time>
      </trkpt>
      <trkpt lat="45.13315" lon="3.4644">
        <ele>506</ele>
        <time>2021-04-12T08:28:06Z</time>
      </trkpt>
      <trkpt lat="45.13314" lon="3.46441">
        <ele>507</ele>
        <time>2021-04-12T08:28:11Z</time>
      </trkpt>
      <trkpt lat="45.1331" lon="3.46433">
        <ele>506</ele>
        <time>2021-04-12T08:28:34Z</time>
      </trkpt>
      <trkpt lat="45.13307" lon="3.46422">
        <ele>506</ele>
        <time>2021-04-12T08:28:35Z</time>
      </trkpt>
      <trkpt lat="45.13307" lon="3.46414">
        <ele>506</ele>
        <time>2021-04-12T08:28:37Z</time>
      </trkpt>
      <trkpt lat="45.13306" lon="3.46406">
        <ele>505</ele>
        <time>2021-04-12T08:28:38Z</time>
      </trkpt>
      <trkpt lat="45.13306" lon="3.46399">
        <ele>505</ele>
        <time>2021-04-12T08:28:39Z</time>
      </trkpt>
      <trkpt lat="45.13303" lon="3.46392">
        <ele>505</ele>
        <time>2021-04-12T08:28:40Z</time>
      </trkpt>
      <trkpt lat="45.13291" lon="3.46376">
        <ele>505</ele>
        <time>2021-04-12T08:28:44Z</time>
      </trkpt>
      <trkpt lat="45.1329" lon="3.46371">
        <ele>505</ele>
        <time>2021-04-12T08:28:45Z</time>
      </trkpt>
      <trkpt lat="45.13288" lon="3.46365">
        <ele>505</ele>
        <time>2021-04-12T08:28:46Z</time>
      </trkpt>
      <trkpt lat="45.13286" lon="3.4636">
        <ele>505</ele>
        <time>2021-04-12T08:28:47Z</time>
      </trkpt>
      <trkpt lat="45.13285" lon="3.46355">
        <ele>505</ele>
        <time>2021-04-12T08:28:48Z</time>
      </trkpt>
      <trkpt lat="45.13283" lon="3.4635">
        <ele>505</ele>
        <time>2021-04-12T08:28:49Z</time>
      </trkpt>
      <trkpt lat="45.13281" lon="3.46346">
        <ele>505</ele>
        <time>2021-04-12T08:28:50Z</time>
      </trkpt>
      <trkpt lat="45.1328" lon="3.46342">
        <ele>505</ele>
        <time>2021-04-12T08:28:51Z</time>
      </trkpt>
      <trkpt lat="45.13279" lon="3.46332">
        <ele>505</ele>
        <time>2021-04-12T08:28:53Z</time>
      </trkpt>
      <trkpt lat="45.13276" lon="3.46321">
        <ele>505</ele>
        <time>2021-04-12T08:28:54Z</time>
      </trkpt>
      <trkpt lat="45.13274" lon="3.46317">
        <ele>505</ele>
        <time>2021-04-12T08:28:56Z</time>
      </trkpt>
      <trkpt lat="45.13272" lon="3.46311">
        <ele>504</ele>
        <time>2021-04-12T08:28:57Z</time>
      </trkpt>
      <trkpt lat="45.13266" lon="3.46303">
        <ele>504</ele>
        <time>2021-04-12T08:28:58Z</time>
      </trkpt>
      <trkpt lat="45.13263" lon="3.46299">
        <ele>504</ele>
        <time>2021-04-12T08:29:00Z</time>
      </trkpt>
      <trkpt lat="45.13259" lon="3.46297">
        <ele>504</ele>
        <time>2021-04-12T08:29:01Z</time>
      </trkpt>
      <trkpt lat="45.13255" lon="3.46296">
        <ele>504</ele>
        <time>2021-04-12T08:29:02Z</time>
      </trkpt>
      <trkpt lat="45.1324" lon="3.46292">
        <ele>504</ele>
        <time>2021-04-12T08:29:06Z</time>
      </trkpt>
      <trkpt lat="45.13232" lon="3.4629">
        <ele>504</ele>
        <time>2021-04-12T08:29:07Z</time>
      </trkpt>
      <trkpt lat="45.13224" lon="3.46287">
        <ele>505</ele>
        <time>2021-04-12T08:29:09Z</time>
      </trkpt>
      <trkpt lat="45.13221" lon="3.46284">
        <ele>505</ele>
        <time>2021-04-12T08:29:11Z</time>
      </trkpt>
      <trkpt lat="45.13217" lon="3.46283">
        <ele>505</ele>
        <time>2021-04-12T08:29:12Z</time>
      </trkpt>
      <trkpt lat="45.1321" lon="3.4628">
        <ele>505</ele>
        <time>2021-04-12T08:29:13Z</time>
      </trkpt>
      <trkpt lat="45.13206" lon="3.46279">
        <ele>505</ele>
        <time>2021-04-12T08:29:15Z</time>
      </trkpt>
      <trkpt lat="45.13202" lon="3.46277">
        <ele>505</ele>
        <time>2021-04-12T08:29:16Z</time>
      </trkpt>
      <trkpt lat="45.13194" lon="3.46274">
        <ele>505</ele>
        <time>2021-04-12T08:29:18Z</time>
      </trkpt>
      <trkpt lat="45.1319" lon="3.46272">
        <ele>506</ele>
        <time>2021-04-12T08:29:19Z</time>
      </trkpt>
      <trkpt lat="45.13187" lon="3.46269">
        <ele>506</ele>
        <time>2021-04-12T08:29:20Z</time>
      </trkpt>
      <trkpt lat="45.13183" lon="3.46265">
        <ele>506</ele>
        <time>2021-04-12T08:29:21Z</time>
      </trkpt>
      <trkpt lat="45.1318" lon="3.46261">
        <ele>506</ele>
        <time>2021-04-12T08:29:22Z</time>
      </trkpt>
      <trkpt lat="45.13178" lon="3.46256">
        <ele>506</ele>
        <time>2021-04-12T08:29:23Z</time>
      </trkpt>
      <trkpt lat="45.13175" lon="3.46252">
        <ele>507</ele>
        <time>2021-04-12T08:29:24Z</time>
      </trkpt>
      <trkpt lat="45.13172" lon="3.46248">
        <ele>507</ele>
        <time>2021-04-12T08:29:25Z</time>
      </trkpt>
      <trkpt lat="45.13158" lon="3.46237">
        <ele>508</ele>
        <time>2021-04-12T08:29:29Z</time>
      </trkpt>
      <trkpt lat="45.13155" lon="3.46235">
        <ele>508</ele>
        <time>2021-04-12T08:29:30Z</time>
      </trkpt>
      <trkpt lat="45.13152" lon="3.46233">
        <ele>508</ele>
        <time>2021-04-12T08:29:31Z</time>
      </trkpt>
      <trkpt lat="45.13146" lon="3.46229">
        <ele>509</ele>
        <time>2021-04-12T08:29:32Z</time>
      </trkpt>
      <trkpt lat="45.13143" lon="3.46228">
        <ele>509</ele>
        <time>2021-04-12T08:29:34Z</time>
      </trkpt>
      <trkpt lat="45.1314" lon="3.46227">
        <ele>509</ele>
        <time>2021-04-12T08:29:35Z</time>
      </trkpt>
      <trkpt lat="45.13137" lon="3.46226">
        <ele>510</ele>
        <time>2021-04-12T08:29:36Z</time>
      </trkpt>
      <trkpt lat="45.13134" lon="3.46224">
        <ele>510</ele>
        <time>2021-04-12T08:29:37Z</time>
      </trkpt>
      <trkpt lat="45.13128" lon="3.46221">
        <ele>510</ele>
        <time>2021-04-12T08:29:39Z</time>
      </trkpt>
      <trkpt lat="45.13125" lon="3.46219">
        <ele>510</ele>
        <time>2021-04-12T08:29:40Z</time>
      </trkpt>
      <trkpt lat="45.13121" lon="3.46217">
        <ele>511</ele>
        <time>2021-04-12T08:29:41Z</time>
      </trkpt>
      <trkpt lat="45.13118" lon="3.46215">
        <ele>511</ele>
        <time>2021-04-12T08:29:42Z</time>
      </trkpt>
      <trkpt lat="45.13115" lon="3.46213">
        <ele>511</ele>
        <time>2021-04-12T08:29:43Z</time>
      </trkpt>
      <trkpt lat="45.13112" lon="3.46211">
        <ele>511</ele>
        <time>2021-04-12T08:29:44Z</time>
      </trkpt>
      <trkpt lat="45.13109" lon="3.4621">
        <ele>511</ele>
        <time>2021-04-12T08:29:45Z</time>
      </trkpt>
      <trkpt lat="45.13106" lon="3.46208">
        <ele>512</ele>
        <time>2021-04-12T08:29:46Z</time>
      </trkpt>
      <trkpt lat="45.13095" lon="3.46202">
        <ele>513</ele>
        <time>2021-04-12T08:29:50Z</time>
      </trkpt>
      <trkpt lat="45.13092" lon="3.462">
        <ele>513</ele>
        <time>2021-04-12T08:29:51Z</time>
      </trkpt>
      <trkpt lat="45.1309" lon="3.46199">
        <ele>514</ele>
        <time>2021-04-12T08:29:52Z</time>
      </trkpt>
      <trkpt lat="45.13089" lon="3.46198">
        <ele>514</ele>
        <time>2021-04-12T08:29:53Z</time>
      </trkpt>
      <trkpt lat="45.13087" lon="3.46194">
        <ele>515</ele>
        <time>2021-04-12T08:29:55Z</time>
      </trkpt>
      <trkpt lat="45.13089" lon="3.46192">
        <ele>515</ele>
        <time>2021-04-12T08:29:56Z</time>
      </trkpt>
      <trkpt lat="45.13092" lon="3.46192">
        <ele>515</ele>
        <time>2021-04-12T08:29:57Z</time>
      </trkpt>
      <trkpt lat="45.13095" lon="3.46192">
        <ele>515</ele>
        <time>2021-04-12T08:29:58Z</time>
      </trkpt>
      <trkpt lat="45.13102" lon="3.46193">
        <ele>516</ele>
        <time>2021-04-12T08:30:00Z</time>
      </trkpt>
      <trkpt lat="45.13105" lon="3.46194">
        <ele>516</ele>
        <time>2021-04-12T08:30:01Z</time>
      </trkpt>
      <trkpt lat="45.13108" lon="3.46195">
        <ele>516</ele>
        <time>2021-04-12T08:30:02Z</time>
      </trkpt>
      <trkpt lat="45.13111" lon="3.46195">
        <ele>516</ele>
        <time>2021-04-12T08:30:03Z</time>
      </trkpt>
      <trkpt lat="45.13115" lon="3.46194">
        <ele>517</ele>
        <time>2021-04-12T08:30:04Z</time>
      </trkpt>
      <trkpt lat="45.13118" lon="3.46193">
        <ele>517</ele>
        <time>2021-04-12T08:30:05Z</time>
      </trkpt>
      <trkpt lat="45.13121" lon="3.46192">
        <ele>518</ele>
        <time>2021-04-12T08:30:06Z</time>
      </trkpt>
      <trkpt lat="45.13124" lon="3.4619">
        <ele>518</ele>
        <time>2021-04-12T08:30:07Z</time>
      </trkpt>
      <trkpt lat="45.13142" lon="3.4618">
        <ele>519</ele>
        <time>2021-04-12T08:30:12Z</time>
      </trkpt>
      <trkpt lat="45.13146" lon="3.46177">
        <ele>519</ele>
        <time>2021-04-12T08:30:13Z</time>
      </trkpt>
      <trkpt lat="45.1315" lon="3.46175">
        <ele>519</ele>
        <time>2021-04-12T08:30:14Z</time>
      </trkpt>
      <trkpt lat="45.13153" lon="3.46173">
        <ele>519</ele>
        <time>2021-04-12T08:30:15Z</time>
      </trkpt>
      <trkpt lat="45.13157" lon="3.4617">
        <ele>519</ele>
        <time>2021-04-12T08:30:16Z</time>
      </trkpt>
      <trkpt lat="45.13161" lon="3.46167">
        <ele>519</ele>
        <time>2021-04-12T08:30:17Z</time>
      </trkpt>
      <trkpt lat="45.13165" lon="3.46164">
        <ele>519</ele>
        <time>2021-04-12T08:30:18Z</time>
      </trkpt>
      <trkpt lat="45.13168" lon="3.46162">
        <ele>519</ele>
        <time>2021-04-12T08:30:19Z</time>
      </trkpt>
      <trkpt lat="45.13175" lon="3.46156">
        <ele>520</ele>
        <time>2021-04-12T08:30:21Z</time>
      </trkpt>
      <trkpt lat="45.13179" lon="3.46152">
        <ele>520</ele>
        <time>2021-04-12T08:30:22Z</time>
      </trkpt>
      <trkpt lat="45.13183" lon="3.46149">
        <ele>520</ele>
        <time>2021-04-12T08:30:23Z</time>
      </trkpt>
      <trkpt lat="45.13186" lon="3.46146">
        <ele>520</ele>
        <time>2021-04-12T08:30:24Z</time>
      </trkpt>
      <trkpt lat="45.1319" lon="3.46142">
        <ele>520</ele>
        <time>2021-04-12T08:30:25Z</time>
      </trkpt>
      <trkpt lat="45.13194" lon="3.4614">
        <ele>520</ele>
        <time>2021-04-12T08:30:26Z</time>
      </trkpt>
      <trkpt lat="45.13198" lon="3.46137">
        <ele>520</ele>
        <time>2021-04-12T08:30:27Z</time>
      </trkpt>
      <trkpt lat="45.13202" lon="3.46134">
        <ele>520</ele>
        <time>2021-04-12T08:30:28Z</time>
      </trkpt>
      <trkpt lat="45.13223" lon="3.46122">
        <ele>521</ele>
        <time>2021-04-12T08:30:33Z</time>
      </trkpt>
      <trkpt lat="45.13227" lon="3.4612">
        <ele>521</ele>
        <time>2021-04-12T08:30:34Z</time>
      </trkpt>
      <trkpt lat="45.13231" lon="3.46118">
        <ele>521</ele>
        <time>2021-04-12T08:30:35Z</time>
      </trkpt>
      <trkpt lat="45.1324" lon="3.46114">
        <ele>522</ele>
        <time>2021-04-12T08:30:37Z</time>
      </trkpt>
      <trkpt lat="45.13244" lon="3.46113">
        <ele>522</ele>
        <time>2021-04-12T08:30:38Z</time>
      </trkpt>
      <trkpt lat="45.13248" lon="3.46111">
        <ele>522</ele>
        <time>2021-04-12T08:30:39Z</time>
      </trkpt>
      <trkpt lat="45.13252" lon="3.46109">
        <ele>523</ele>
        <time>2021-04-12T08:30:40Z</time>
      </trkpt>
      <trkpt lat="45.13256" lon="3.46107">
        <ele>523</ele>
        <time>2021-04-12T08:30:41Z</time>
      </trkpt>
      <trkpt lat="45.13264" lon="3.46103">
        <ele>523</ele>
        <time>2021-04-12T08:30:43Z</time>
      </trkpt>
      <trkpt lat="45.13268" lon="3.46101">
        <ele>523</ele>
        <time>2021-04-12T08:30:44Z</time>
      </trkpt>
      <trkpt lat="45.13272" lon="3.46099">
        <ele>524</ele>
        <time>2021-04-12T08:30:45Z</time>
      </trkpt>
      <trkpt lat="45.13276" lon="3.46097">
        <ele>524</ele>
        <time>2021-04-12T08:30:46Z</time>
      </trkpt>
      <trkpt lat="45.13281" lon="3.46095">
        <ele>524</ele>
        <time>2021-04-12T08:30:47Z</time>
      </trkpt>
      <trkpt lat="45.13288" lon="3.46092">
        <ele>524</ele>
        <time>2021-04-12T08:30:48Z</time>
      </trkpt>
      <trkpt lat="45.13292" lon="3.4609">
        <ele>525</ele>
        <time>2021-04-12T08:30:50Z</time>
      </trkpt>
      <trkpt lat="45.13296" lon="3.46088">
        <ele>525</ele>
        <time>2021-04-12T08:30:51Z</time>
      </trkpt>
      <trkpt lat="45.13312" lon="3.46082">
        <ele>526</ele>
        <time>2021-04-12T08:30:55Z</time>
      </trkpt>
      <trkpt lat="45.13316" lon="3.4608">
        <ele>526</ele>
        <time>2021-04-12T08:30:56Z</time>
      </trkpt>
      <trkpt lat="45.13323" lon="3.46076">
        <ele>527</ele>
        <time>2021-04-12T08:30:57Z</time>
      </trkpt>
      <trkpt lat="45.13326" lon="3.46074">
        <ele>527</ele>
        <time>2021-04-12T08:30:59Z</time>
      </trkpt>
      <trkpt lat="45.1333" lon="3.46073">
        <ele>528</ele>
        <time>2021-04-12T08:31:00Z</time>
      </trkpt>
      <trkpt lat="45.13335" lon="3.46072">
        <ele>528</ele>
        <time>2021-04-12T08:31:01Z</time>
      </trkpt>
      <trkpt lat="45.13339" lon="3.46071">
        <ele>528</ele>
        <time>2021-04-12T08:31:02Z</time>
      </trkpt>
      <trkpt lat="45.13343" lon="3.4607">
        <ele>528</ele>
        <time>2021-04-12T08:31:03Z</time>
      </trkpt>
      <trkpt lat="45.13352" lon="3.46069">
        <ele>529</ele>
        <time>2021-04-12T08:31:05Z</time>
      </trkpt>
      <trkpt lat="45.13356" lon="3.46068">
        <ele>529</ele>
        <time>2021-04-12T08:31:06Z</time>
      </trkpt>
      <trkpt lat="45.1336" lon="3.46068">
        <ele>529</ele>
        <time>2021-04-12T08:31:07Z</time>
      </trkpt>
      <trkpt lat="45.13364" lon="3.46067">
        <ele>530</ele>
        <time>2021-04-12T08:31:08Z</time>
      </trkpt>
      <trkpt lat="45.13368" lon="3.46066">
        <ele>530</ele>
        <time>2021-04-12T08:31:09Z</time>
      </trkpt>
      <trkpt lat="45.13372" lon="3.46064">
        <ele>530</ele>
        <time>2021-04-12T08:31:10Z</time>
      </trkpt>
      <trkpt lat="45.13375" lon="3.46061">
        <ele>531</ele>
        <time>2021-04-12T08:31:11Z</time>
      </trkpt>
      <trkpt lat="45.13379" lon="3.46058">
        <ele>531</ele>
        <time>2021-04-12T08:31:12Z</time>
      </trkpt>
      <trkpt lat="45.13389" lon="3.4604">
        <ele>532</ele>
        <time>2021-04-12T08:31:16Z</time>
      </trkpt>
      <trkpt lat="45.13391" lon="3.46036">
        <ele>532</ele>
        <time>2021-04-12T08:31:17Z</time>
      </trkpt>
      <trkpt lat="45.13394" lon="3.46033">
        <ele>533</ele>
        <time>2021-04-12T08:31:18Z</time>
      </trkpt>
      <trkpt lat="45.13397" lon="3.46029">
        <ele>533</ele>
        <time>2021-04-12T08:31:19Z</time>
      </trkpt>
      <trkpt lat="45.134" lon="3.46026">
        <ele>533</ele>
        <time>2021-04-12T08:31:20Z</time>
      </trkpt>
      <trkpt lat="45.13403" lon="3.46023">
        <ele>533</ele>
        <time>2021-04-12T08:31:21Z</time>
      </trkpt>
      <trkpt lat="45.13406" lon="3.4602">
        <ele>533</ele>
        <time>2021-04-12T08:31:22Z</time>
      </trkpt>
      <trkpt lat="45.13409" lon="3.46017">
        <ele>534</ele>
        <time>2021-04-12T08:31:23Z</time>
      </trkpt>
      <trkpt lat="45.13415" lon="3.46011">
        <ele>535</ele>
        <time>2021-04-12T08:31:25Z</time>
      </trkpt>
      <trkpt lat="45.1342" lon="3.46003">
        <ele>535</ele>
        <time>2021-04-12T08:31:26Z</time>
      </trkpt>
      <trkpt lat="45.13422" lon="3.45998">
        <ele>536</ele>
        <time>2021-04-12T08:31:28Z</time>
      </trkpt>
      <trkpt lat="45.13424" lon="3.45994">
        <ele>536</ele>
        <time>2021-04-12T08:31:29Z</time>
      </trkpt>
      <trkpt lat="45.13426" lon="3.45989">
        <ele>536</ele>
        <time>2021-04-12T08:31:30Z</time>
      </trkpt>
      <trkpt lat="45.13428" lon="3.45985">
        <ele>536</ele>
        <time>2021-04-12T08:31:31Z</time>
      </trkpt>
      <trkpt lat="45.13429" lon="3.45981">
        <ele>537</ele>
        <time>2021-04-12T08:31:32Z</time>
      </trkpt>
      <trkpt lat="45.1343" lon="3.45976">
        <ele>537</ele>
        <time>2021-04-12T08:31:33Z</time>
      </trkpt>
      <trkpt lat="45.13435" lon="3.45964">
        <ele>538</ele>
        <time>2021-04-12T08:31:37Z</time>
      </trkpt>
      <trkpt lat="45.13438" lon="3.45962">
        <ele>538</ele>
        <time>2021-04-12T08:31:38Z</time>
      </trkpt>
      <trkpt lat="45.13441" lon="3.45961">
        <ele>538</ele>
        <time>2021-04-12T08:31:39Z</time>
      </trkpt>
      <trkpt lat="45.13444" lon="3.45959">
        <ele>538</ele>
        <time>2021-04-12T08:31:40Z</time>
      </trkpt>
      <trkpt lat="45.13446" lon="3.45958">
        <ele>538</ele>
        <time>2021-04-12T08:31:41Z</time>
      </trkpt>
      <trkpt lat="45.13449" lon="3.45957">
        <ele>539</ele>
        <time>2021-04-12T08:31:42Z</time>
      </trkpt>
      <trkpt lat="45.13452" lon="3.45957">
        <ele>539</ele>
        <time>2021-04-12T08:31:43Z</time>
      </trkpt>
      <trkpt lat="45.13456" lon="3.45957">
        <ele>539</ele>
        <time>2021-04-12T08:31:44Z</time>
      </trkpt>
      <trkpt lat="45.13466" lon="3.45961">
        <ele>539</ele>
        <time>2021-04-12T08:31:47Z</time>
      </trkpt>
      <trkpt lat="45.13469" lon="3.45964">
        <ele>540</ele>
        <time>2021-04-12T08:31:48Z</time>
      </trkpt>
      <trkpt lat="45.13471" lon="3.45967">
        <ele>540</ele>
        <time>2021-04-12T08:31:49Z</time>
      </trkpt>
      <trkpt lat="45.13473" lon="3.45969">
        <ele>540</ele>
        <time>2021-04-12T08:31:50Z</time>
      </trkpt>
      <trkpt lat="45.13476" lon="3.45971">
        <ele>540</ele>
        <time>2021-04-12T08:31:51Z</time>
      </trkpt>
      <trkpt lat="45.13478" lon="3.45972">
        <ele>540</ele>
        <time>2021-04-12T08:31:52Z</time>
      </trkpt>
      <trkpt lat="45.13481" lon="3.45973">
        <ele>541</ele>
        <time>2021-04-12T08:31:53Z</time>
      </trkpt>
      <trkpt lat="45.13484" lon="3.45973">
        <ele>541</ele>
        <time>2021-04-12T08:31:54Z</time>
      </trkpt>
      <trkpt lat="45.13495" lon="3.45967">
        <ele>542</ele>
        <time>2021-04-12T08:31:58Z</time>
      </trkpt>
      <trkpt lat="45.13497" lon="3.45964">
        <ele>543</ele>
        <time>2021-04-12T08:31:59Z</time>
      </trkpt>
      <trkpt lat="45.135" lon="3.45962">
        <ele>543</ele>
        <time>2021-04-12T08:32:00Z</time>
      </trkpt>
      <trkpt lat="45.13502" lon="3.45959">
        <ele>543</ele>
        <time>2021-04-12T08:32:01Z</time>
      </trkpt>
      <trkpt lat="45.13505" lon="3.45957">
        <ele>543</ele>
        <time>2021-04-12T08:32:02Z</time>
      </trkpt>
      <trkpt lat="45.13507" lon="3.45955">
        <ele>544</ele>
        <time>2021-04-12T08:32:03Z</time>
      </trkpt>
      <trkpt lat="45.13511" lon="3.45952">
        <ele>544</ele>
        <time>2021-04-12T08:32:04Z</time>
      </trkpt>
      <trkpt lat="45.13513" lon="3.4595">
        <ele>545</ele>
        <time>2021-04-12T08:32:06Z</time>
      </trkpt>
      <trkpt lat="45.13516" lon="3.45943">
        <ele>546</ele>
        <time>2021-04-12T08:32:09Z</time>
      </trkpt>
      <trkpt lat="45.13515" lon="3.4594">
        <ele>546</ele>
        <time>2021-04-12T08:32:10Z</time>
      </trkpt>
      <trkpt lat="45.13513" lon="3.45937">
        <ele>546</ele>
        <time>2021-04-12T08:32:11Z</time>
      </trkpt>
      <trkpt lat="45.13511" lon="3.45935">
        <ele>547</ele>
        <time>2021-04-12T08:32:12Z</time>
      </trkpt>
      <trkpt lat="45.13509" lon="3.45933">
        <ele>547</ele>
        <time>2021-04-12T08:32:13Z</time>
      </trkpt>
      <trkpt lat="45.13506" lon="3.45932">
        <ele>547</ele>
        <time>2021-04-12T08:32:14Z</time>
      </trkpt>
      <trkpt lat="45.13503" lon="3.4593">
        <ele>547</ele>
        <time>2021-04-12T08:32:15Z</time>
      </trkpt>
      <trkpt lat="45.135" lon="3.45929">
        <ele>547</ele>
        <time>2021-04-12T08:32:16Z</time>
      </trkpt>
      <trkpt lat="45.13488" lon="3.45921">
        <ele>548</ele>
        <time>2021-04-12T08:32:20Z</time>
      </trkpt>
      <trkpt lat="45.13485" lon="3.45919">
        <ele>549</ele>
        <time>2021-04-12T08:32:21Z</time>
      </trkpt>
      <trkpt lat="45.13483" lon="3.45916">
        <ele>549</ele>
        <time>2021-04-12T08:32:22Z</time>
      </trkpt>
      <trkpt lat="45.13479" lon="3.45908">
        <ele>549</ele>
        <time>2021-04-12T08:32:23Z</time>
      </trkpt>
      <trkpt lat="45.13478" lon="3.45903">
        <ele>550</ele>
        <time>2021-04-12T08:32:25Z</time>
      </trkpt>
      <trkpt lat="45.13477" lon="3.45899">
        <ele>550</ele>
        <time>2021-04-12T08:32:26Z</time>
      </trkpt>
      <trkpt lat="45.13475" lon="3.45895">
        <ele>550</ele>
        <time>2021-04-12T08:32:27Z</time>
      </trkpt>
      <trkpt lat="45.13474" lon="3.45891">
        <ele>550</ele>
        <time>2021-04-12T08:32:28Z</time>
      </trkpt>
      <trkpt lat="45.13471" lon="3.45883">
        <ele>551</ele>
        <time>2021-04-12T08:32:30Z</time>
      </trkpt>
      <trkpt lat="45.1347" lon="3.45879">
        <ele>551</ele>
        <time>2021-04-12T08:32:31Z</time>
      </trkpt>
      <trkpt lat="45.1347" lon="3.45874">
        <ele>552</ele>
        <time>2021-04-12T08:32:32Z</time>
      </trkpt>
      <trkpt lat="45.13469" lon="3.4587">
        <ele>552</ele>
        <time>2021-04-12T08:32:33Z</time>
      </trkpt>
      <trkpt lat="45.13469" lon="3.45867">
        <ele>552</ele>
        <time>2021-04-12T08:32:34Z</time>
      </trkpt>
      <trkpt lat="45.13469" lon="3.45864">
        <ele>553</ele>
        <time>2021-04-12T08:32:35Z</time>
      </trkpt>
      <trkpt lat="45.13468" lon="3.45861">
        <ele>554</ele>
        <time>2021-04-12T08:32:36Z</time>
      </trkpt>
      <trkpt lat="45.13467" lon="3.45859">
        <ele>554</ele>
        <time>2021-04-12T08:32:37Z</time>
      </trkpt>
      <trkpt lat="45.13464" lon="3.45835">
        <ele>556</ele>
        <time>2021-04-12T08:32:42Z</time>
      </trkpt>
      <trkpt lat="45.13463" lon="3.45831">
        <ele>557</ele>
        <time>2021-04-12T08:32:44Z</time>
      </trkpt>
      <trkpt lat="45.13462" lon="3.45828">
        <ele>558</ele>
        <time>2021-04-12T08:32:45Z</time>
      </trkpt>
      <trkpt lat="45.13462" lon="3.45825">
        <ele>558</ele>
        <time>2021-04-12T08:32:46Z</time>
      </trkpt>
      <trkpt lat="45.13462" lon="3.45821">
        <ele>558</ele>
        <time>2021-04-12T08:32:47Z</time>
      </trkpt>
      <trkpt lat="45.13461" lon="3.45818">
        <ele>559</ele>
        <time>2021-04-12T08:32:48Z</time>
      </trkpt>
      <trkpt lat="45.13461" lon="3.45814">
        <ele>560</ele>
        <time>2021-04-12T08:32:49Z</time>
      </trkpt>
      <trkpt lat="45.13461" lon="3.4581">
        <ele>560</ele>
        <time>2021-04-12T08:32:50Z</time>
      </trkpt>
      <trkpt lat="45.13461" lon="3.45802">
        <ele>561</ele>
        <time>2021-04-12T08:32:52Z</time>
      </trkpt>
      <trkpt lat="45.13462" lon="3.45798">
        <ele>562</ele>
        <time>2021-04-12T08:32:53Z</time>
      </trkpt>
      <trkpt lat="45.13463" lon="3.45795">
        <ele>563</ele>
        <time>2021-04-12T08:32:54Z</time>
      </trkpt>
      <trkpt lat="45.13464" lon="3.45793">
        <ele>563</ele>
        <time>2021-04-12T08:32:55Z</time>
      </trkpt>
      <trkpt lat="45.13465" lon="3.45789">
        <ele>564</ele>
        <time>2021-04-12T08:32:57Z</time>
      </trkpt>
      <trkpt lat="45.13466" lon="3.45784">
        <ele>565</ele>
        <time>2021-04-12T08:32:59Z</time>
      </trkpt>
      <trkpt lat="45.13466" lon="3.45782">
        <ele>566</ele>
        <time>2021-04-12T08:33:00Z</time>
      </trkpt>
      <trkpt lat="45.13467" lon="3.45774">
        <ele>567</ele>
        <time>2021-04-12T08:33:01Z</time>
      </trkpt>
      <trkpt lat="45.13466" lon="3.45756">
        <ele>570</ele>
        <time>2021-04-12T08:33:07Z</time>
      </trkpt>
      <trkpt lat="45.13465" lon="3.45753">
        <ele>570</ele>
        <time>2021-04-12T08:33:08Z</time>
      </trkpt>
      <trkpt lat="45.13464" lon="3.45749">
        <ele>571</ele>
        <time>2021-04-12T08:33:09Z</time>
      </trkpt>
      <trkpt lat="45.13463" lon="3.45746">
        <ele>572</ele>
        <time>2021-04-12T08:33:10Z</time>
      </trkpt>
      <trkpt lat="45.13461" lon="3.45742">
        <ele>572</ele>
        <time>2021-04-12T08:33:11Z</time>
      </trkpt>
      <trkpt lat="45.1346" lon="3.45739">
        <ele>573</ele>
        <time>2021-04-12T08:33:12Z</time>
      </trkpt>
      <trkpt lat="45.1346" lon="3.45735">
        <ele>573</ele>
        <time>2021-04-12T08:33:13Z</time>
      </trkpt>
      <trkpt lat="45.13458" lon="3.45731">
        <ele>573</ele>
        <time>2021-04-12T08:33:14Z</time>
      </trkpt>
      <trkpt lat="45.13456" lon="3.45726">
        <ele>574</ele>
        <time>2021-04-12T08:33:16Z</time>
      </trkpt>
      <trkpt lat="45.13456" lon="3.45722">
        <ele>575</ele>
        <time>2021-04-12T08:33:17Z</time>
      </trkpt>
      <trkpt lat="45.13456" lon="3.45719">
        <ele>575</ele>
        <time>2021-04-12T08:33:18Z</time>
      </trkpt>
      <trkpt lat="45.13457" lon="3.45716">
        <ele>576</ele>
        <time>2021-04-12T08:33:19Z</time>
      </trkpt>
      <trkpt lat="45.13458" lon="3.4571">
        <ele>577</ele>
        <time>2021-04-12T08:33:20Z</time>
      </trkpt>
      <trkpt lat="45.13459" lon="3.45708">
        <ele>579</ele>
        <time>2021-04-12T08:33:22Z</time>
      </trkpt>
      <trkpt lat="45.1346" lon="3.45705">
        <ele>580</ele>
        <time>2021-04-12T08:33:23Z</time>
      </trkpt>
      <trkpt lat="45.1346" lon="3.457">
        <ele>581</ele>
        <time>2021-04-12T08:33:25Z</time>
      </trkpt>
      <trkpt lat="45.13458" lon="3.45687">
        <ele>585</ele>
        <time>2021-04-12T08:33:30Z</time>
      </trkpt>
      <trkpt lat="45.13458" lon="3.45683">
        <ele>586</ele>
        <time>2021-04-12T08:33:31Z</time>
      </trkpt>
      <trkpt lat="45.13458" lon="3.45681">
        <ele>586</ele>
        <time>2021-04-12T08:33:32Z</time>
      </trkpt>
      <trkpt lat="45.13459" lon="3.45678">
        <ele>587</ele>
        <time>2021-04-12T08:33:34Z</time>
      </trkpt>
      <trkpt lat="45.13458" lon="3.4567">
        <ele>588</ele>
        <time>2021-04-12T08:33:39Z</time>
      </trkpt>
      <trkpt lat="45.13458" lon="3.45666">
        <ele>589</ele>
        <time>2021-04-12T08:33:41Z</time>
      </trkpt>
      <trkpt lat="45.13459" lon="3.45662">
        <ele>589</ele>
        <time>2021-04-12T08:33:42Z</time>
      </trkpt>
      <trkpt lat="45.13459" lon="3.45658">
        <ele>589</ele>
        <time>2021-04-12T08:33:43Z</time>
      </trkpt>
      <trkpt lat="45.13461" lon="3.45651">
        <ele>590</ele>
        <time>2021-04-12T08:33:45Z</time>
      </trkpt>
      <trkpt lat="45.13461" lon="3.45647">
        <ele>590</ele>
        <time>2021-04-12T08:33:46Z</time>
      </trkpt>
      <trkpt lat="45.13462" lon="3.45644">
        <ele>590</ele>
        <time>2021-04-12T08:33:47Z</time>
      </trkpt>
      <trkpt lat="45.13462" lon="3.4564">
        <ele>590</ele>
        <time>2021-04-12T08:33:48Z</time>
      </trkpt>
      <trkpt lat="45.13462" lon="3.45636">
        <ele>591</ele>
        <time>2021-04-12T08:33:49Z</time>
      </trkpt>
      <trkpt lat="45.13462" lon="3.45632">
        <ele>591</ele>
        <time>2021-04-12T08:33:50Z</time>
      </trkpt>
      <trkpt lat="45.13463" lon="3.45628">
        <ele>591</ele>
        <time>2021-04-12T08:33:51Z</time>
      </trkpt>
      <trkpt lat="45.13463" lon="3.45624">
        <ele>591</ele>
        <time>2021-04-12T08:33:52Z</time>
      </trkpt>
      <trkpt lat="45.13464" lon="3.45606">
        <ele>592</ele>
        <time>2021-04-12T08:33:56Z</time>
      </trkpt>
      <trkpt lat="45.13465" lon="3.45601">
        <ele>592</ele>
        <time>2021-04-12T08:33:57Z</time>
      </trkpt>
      <trkpt lat="45.13465" lon="3.45592">
        <ele>592</ele>
        <time>2021-04-12T08:33:58Z</time>
      </trkpt>
      <trkpt lat="45.13465" lon="3.45587">
        <ele>592</ele>
        <time>2021-04-12T08:34:00Z</time>
      </trkpt>
      <trkpt lat="45.13465" lon="3.45582">
        <ele>593</ele>
        <time>2021-04-12T08:34:01Z</time>
      </trkpt>
      <trkpt lat="45.13465" lon="3.45576">
        <ele>593</ele>
        <time>2021-04-12T08:34:02Z</time>
      </trkpt>
      <trkpt lat="45.13465" lon="3.4557">
        <ele>593</ele>
        <time>2021-04-12T08:34:03Z</time>
      </trkpt>
      <trkpt lat="45.13464" lon="3.45564">
        <ele>593</ele>
        <time>2021-04-12T08:34:04Z</time>
      </trkpt>
      <trkpt lat="45.13464" lon="3.45552">
        <ele>594</ele>
        <time>2021-04-12T08:34:06Z</time>
      </trkpt>
      <trkpt lat="45.13464" lon="3.45546">
        <ele>594</ele>
        <time>2021-04-12T08:34:07Z</time>
      </trkpt>
      <trkpt lat="45.13464" lon="3.4554">
        <ele>594</ele>
        <time>2021-04-12T08:34:08Z</time>
      </trkpt>
      <trkpt lat="45.13463" lon="3.45534">
        <ele>594</ele>
        <time>2021-04-12T08:34:09Z</time>
      </trkpt>
      <trkpt lat="45.13463" lon="3.45528">
        <ele>594</ele>
        <time>2021-04-12T08:34:10Z</time>
      </trkpt>
      <trkpt lat="45.13463" lon="3.45522">
        <ele>595</ele>
        <time>2021-04-12T08:34:11Z</time>
      </trkpt>
      <trkpt lat="45.13462" lon="3.45517">
        <ele>595</ele>
        <time>2021-04-12T08:34:12Z</time>
      </trkpt>
      <trkpt lat="45.13462" lon="3.45511">
        <ele>595</ele>
        <time>2021-04-12T08:34:13Z</time>
      </trkpt>
      <trkpt lat="45.1346" lon="3.45488">
        <ele>596</ele>
        <time>2021-04-12T08:34:17Z</time>
      </trkpt>
      <trkpt lat="45.1346" lon="3.45482">
        <ele>596</ele>
        <time>2021-04-12T08:34:18Z</time>
      </trkpt>
      <trkpt lat="45.1346" lon="3.45477">
        <ele>597</ele>
        <time>2021-04-12T08:34:19Z</time>
      </trkpt>
      <trkpt lat="45.13461" lon="3.45471">
        <ele>597</ele>
        <time>2021-04-12T08:34:20Z</time>
      </trkpt>
      <trkpt lat="45.13461" lon="3.45466">
        <ele>597</ele>
        <time>2021-04-12T08:34:21Z</time>
      </trkpt>
      <trkpt lat="45.13461" lon="3.45461">
        <ele>598</ele>
        <time>2021-04-12T08:34:22Z</time>
      </trkpt>
      <trkpt lat="45.13461" lon="3.45455">
        <ele>598</ele>
        <time>2021-04-12T08:34:23Z</time>
      </trkpt>
      <trkpt lat="45.13462" lon="3.4545">
        <ele>598</ele>
        <time>2021-04-12T08:34:24Z</time>
      </trkpt>
      <trkpt lat="45.13463" lon="3.45439">
        <ele>599</ele>
        <time>2021-04-12T08:34:26Z</time>
      </trkpt>
      <trkpt lat="45.13464" lon="3.45433">
        <ele>599</ele>
        <time>2021-04-12T08:34:27Z</time>
      </trkpt>
      <trkpt lat="45.13465" lon="3.45427">
        <ele>599</ele>
        <time>2021-04-12T08:34:28Z</time>
      </trkpt>
      <trkpt lat="45.13466" lon="3.45421">
        <ele>599</ele>
        <time>2021-04-12T08:34:29Z</time>
      </trkpt>
      <trkpt lat="45.13466" lon="3.45416">
        <ele>600</ele>
        <time>2021-04-12T08:34:30Z</time>
      </trkpt>
      <trkpt lat="45.13467" lon="3.4541">
        <ele>600</ele>
        <time>2021-04-12T08:34:31Z</time>
      </trkpt>
      <trkpt lat="45.13467" lon="3.45405">
        <ele>600</ele>
        <time>2021-04-12T08:34:32Z</time>
      </trkpt>
      <trkpt lat="45.13468" lon="3.454">
        <ele>600</ele>
        <time>2021-04-12T08:34:33Z</time>
      </trkpt>
      <trkpt lat="45.13472" lon="3.45374">
        <ele>601</ele>
        <time>2021-04-12T08:34:38Z</time>
      </trkpt>
      <trkpt lat="45.13472" lon="3.45369">
        <ele>602</ele>
        <time>2021-04-12T08:34:39Z</time>
      </trkpt>
      <trkpt lat="45.13473" lon="3.45364">
        <ele>602</ele>
        <time>2021-04-12T08:34:40Z</time>
      </trkpt>
      <trkpt lat="45.13473" lon="3.4536">
        <ele>602</ele>
        <time>2021-04-12T08:34:41Z</time>
      </trkpt>
      <trkpt lat="45.13474" lon="3.45355">
        <ele>602</ele>
        <time>2021-04-12T08:34:42Z</time>
      </trkpt>
      <trkpt lat="45.13475" lon="3.4535">
        <ele>603</ele>
        <time>2021-04-12T08:34:43Z</time>
      </trkpt>
      <trkpt lat="45.13476" lon="3.45346">
        <ele>603</ele>
        <time>2021-04-12T08:34:44Z</time>
      </trkpt>
      <trkpt lat="45.13478" lon="3.45341">
        <ele>603</ele>
        <time>2021-04-12T08:34:45Z</time>
      </trkpt>
      <trkpt lat="45.1348" lon="3.45332">
        <ele>604</ele>
        <time>2021-04-12T08:34:47Z</time>
      </trkpt>
      <trkpt lat="45.13482" lon="3.45328">
        <ele>605</ele>
        <time>2021-04-12T08:34:48Z</time>
      </trkpt>
      <trkpt lat="45.13483" lon="3.45323">
        <ele>605</ele>
        <time>2021-04-12T08:34:49Z</time>
      </trkpt>
      <trkpt lat="45.13485" lon="3.4532">
        <ele>605</ele>
        <time>2021-04-12T08:34:50Z</time>
      </trkpt>
      <trkpt lat="45.13486" lon="3.45316">
        <ele>605</ele>
        <time>2021-04-12T08:34:51Z</time>
      </trkpt>
      <trkpt lat="45.13487" lon="3.45312">
        <ele>605</ele>
        <time>2021-04-12T08:34:52Z</time>
      </trkpt>
      <trkpt lat="45.13489" lon="3.45309">
        <ele>605</ele>
        <time>2021-04-12T08:34:53Z</time>
      </trkpt>
      <trkpt lat="45.13491" lon="3.45306">
        <ele>605</ele>
        <time>2021-04-12T08:34:54Z</time>
      </trkpt>
      <trkpt lat="45.13502" lon="3.45286">
        <ele>606</ele>
        <time>2021-04-12T08:34:59Z</time>
      </trkpt>
      <trkpt lat="45.13505" lon="3.45281">
        <ele>605</ele>
        <time>2021-04-12T08:35:00Z</time>
      </trkpt>
      <trkpt lat="45.13507" lon="3.45274">
        <ele>605</ele>
        <time>2021-04-12T08:35:01Z</time>
      </trkpt>
      <trkpt lat="45.1351" lon="3.45267">
        <ele>605</ele>
        <time>2021-04-12T08:35:02Z</time>
      </trkpt>
      <trkpt lat="45.13512" lon="3.45259">
        <ele>605</ele>
        <time>2021-04-12T08:35:03Z</time>
      </trkpt>
      <trkpt lat="45.13515" lon="3.45251">
        <ele>605</ele>
        <time>2021-04-12T08:35:04Z</time>
      </trkpt>
      <trkpt lat="45.13518" lon="3.45243">
        <ele>605</ele>
        <time>2021-04-12T08:35:05Z</time>
      </trkpt>
      <trkpt lat="45.13522" lon="3.45234">
        <ele>605</ele>
        <time>2021-04-12T08:35:06Z</time>
      </trkpt>
      <trkpt lat="45.13528" lon="3.45216">
        <ele>605</ele>
        <time>2021-04-12T08:35:08Z</time>
      </trkpt>
      <trkpt lat="45.13531" lon="3.45207">
        <ele>605</ele>
        <time>2021-04-12T08:35:09Z</time>
      </trkpt>
      <trkpt lat="45.13533" lon="3.45197">
        <ele>604</ele>
        <time>2021-04-12T08:35:10Z</time>
      </trkpt>
      <trkpt lat="45.13535" lon="3.45188">
        <ele>604</ele>
        <time>2021-04-12T08:35:11Z</time>
      </trkpt>
      <trkpt lat="45.13538" lon="3.45179">
        <ele>603</ele>
        <time>2021-04-12T08:35:12Z</time>
      </trkpt>
      <trkpt lat="45.13541" lon="3.4517">
        <ele>603</ele>
        <time>2021-04-12T08:35:13Z</time>
      </trkpt>
      <trkpt lat="45.13545" lon="3.4516">
        <ele>603</ele>
        <time>2021-04-12T08:35:14Z</time>
      </trkpt>
      <trkpt lat="45.13548" lon="3.4515">
        <ele>602</ele>
        <time>2021-04-12T08:35:15Z</time>
      </trkpt>
      <trkpt lat="45.13564" lon="3.45115">
        <ele>597</ele>
        <time>2021-04-12T08:35:19Z</time>
      </trkpt>
      <trkpt lat="45.1357" lon="3.45107">
        <ele>596</ele>
        <time>2021-04-12T08:35:20Z</time>
      </trkpt>
      <trkpt lat="45.13577" lon="3.451">
        <ele>594</ele>
        <time>2021-04-12T08:35:21Z</time>
      </trkpt>
      <trkpt lat="45.13583" lon="3.45094">
        <ele>593</ele>
        <time>2021-04-12T08:35:22Z</time>
      </trkpt>
      <trkpt lat="45.13587" lon="3.45088">
        <ele>593</ele>
        <time>2021-04-12T08:35:23Z</time>
      </trkpt>
      <trkpt lat="45.13589" lon="3.45083">
        <ele>592</ele>
        <time>2021-04-12T08:35:24Z</time>
      </trkpt>
      <trkpt lat="45.13588" lon="3.45078">
        <ele>592</ele>
        <time>2021-04-12T08:35:25Z</time>
      </trkpt>
      <trkpt lat="45.13584" lon="3.45073">
        <ele>591</ele>
        <time>2021-04-12T08:35:26Z</time>
      </trkpt>
      <trkpt lat="45.13573" lon="3.45071">
        <ele>590</ele>
        <time>2021-04-12T08:35:28Z</time>
      </trkpt>
      <trkpt lat="45.13566" lon="3.45071">
        <ele>590</ele>
        <time>2021-04-12T08:35:29Z</time>
      </trkpt>
      <trkpt lat="45.1356" lon="3.45071">
        <ele>589</ele>
        <time>2021-04-12T08:35:30Z</time>
      </trkpt>
      <trkpt lat="45.13553" lon="3.45071">
        <ele>588</ele>
        <time>2021-04-12T08:35:31Z</time>
      </trkpt>
      <trkpt lat="45.13547" lon="3.45072">
        <ele>588</ele>
        <time>2021-04-12T08:35:32Z</time>
      </trkpt>
      <trkpt lat="45.13524" lon="3.45074">
        <ele>585</ele>
        <time>2021-04-12T08:35:35Z</time>
      </trkpt>
      <trkpt lat="45.13516" lon="3.45075">
        <ele>585</ele>
        <time>2021-04-12T08:35:36Z</time>
      </trkpt>
      <trkpt lat="45.13508" lon="3.45077">
        <ele>584</ele>
        <time>2021-04-12T08:35:37Z</time>
      </trkpt>
      <trkpt lat="45.13477" lon="3.45072">
        <ele>581</ele>
        <time>2021-04-12T08:35:41Z</time>
      </trkpt>
      <trkpt lat="45.1347" lon="3.45067">
        <ele>581</ele>
        <time>2021-04-12T08:35:42Z</time>
      </trkpt>
      <trkpt lat="45.13463" lon="3.45062">
        <ele>580</ele>
        <time>2021-04-12T08:35:43Z</time>
      </trkpt>
      <trkpt lat="45.13456" lon="3.45056">
        <ele>579</ele>
        <time>2021-04-12T08:35:44Z</time>
      </trkpt>
      <trkpt lat="45.13449" lon="3.45051">
        <ele>579</ele>
        <time>2021-04-12T08:35:45Z</time>
      </trkpt>
      <trkpt lat="45.13442" lon="3.45045">
        <ele>579</ele>
        <time>2021-04-12T08:35:46Z</time>
      </trkpt>
      <trkpt lat="45.13435" lon="3.45037">
        <ele>578</ele>
        <time>2021-04-12T08:35:47Z</time>
      </trkpt>
      <trkpt lat="45.13428" lon="3.4503">
        <ele>578</ele>
        <time>2021-04-12T08:35:48Z</time>
      </trkpt>
      <trkpt lat="45.13412" lon="3.45016">
        <ele>576</ele>
        <time>2021-04-12T08:35:50Z</time>
      </trkpt>
      <trkpt lat="45.13404" lon="3.45011">
        <ele>575</ele>
        <time>2021-04-12T08:35:51Z</time>
      </trkpt>
      <trkpt lat="45.1339" lon="3.45">
        <ele>574</ele>
        <time>2021-04-12T08:35:52Z</time>
      </trkpt>
      <trkpt lat="45.13385" lon="3.44996">
        <ele>573</ele>
        <time>2021-04-12T08:35:54Z</time>
      </trkpt>
      <trkpt lat="45.13382" lon="3.44994">
        <ele>572</ele>
        <time>2021-04-12T08:35:55Z</time>
      </trkpt>
      <trkpt lat="45.13383" lon="3.44996">
        <ele>570</ele>
        <time>2021-04-12T08:36:00Z</time>
      </trkpt>
      <trkpt lat="45.13386" lon="3.44997">
        <ele>570</ele>
        <time>2021-04-12T08:36:01Z</time>
      </trkpt>
      <trkpt lat="45.13388" lon="3.44999">
        <ele>570</ele>
        <time>2021-04-12T08:36:02Z</time>
      </trkpt>
      <trkpt lat="45.13393" lon="3.45">
        <ele>569</ele>
        <time>2021-04-12T08:36:09Z</time>
      </trkpt>
      <trkpt lat="45.13397" lon="3.45">
        <ele>566</ele>
        <time>2021-04-12T08:41:32Z</time>
      </trkpt>
      <trkpt lat="45.13399" lon="3.45001">
        <ele>565</ele>
        <time>2021-04-12T08:41:33Z</time>
      </trkpt>
      <trkpt lat="45.13405" lon="3.45003">
        <ele>565</ele>
        <time>2021-04-12T08:41:34Z</time>
      </trkpt>
      <trkpt lat="45.13408" lon="3.45003">
        <ele>565</ele>
        <time>2021-04-12T08:41:36Z</time>
      </trkpt>
      <trkpt lat="45.13413" lon="3.45004">
        <ele>564</ele>
        <time>2021-04-12T08:41:37Z</time>
      </trkpt>
      <trkpt lat="45.13418" lon="3.45004">
        <ele>564</ele>
        <time>2021-04-12T08:41:38Z</time>
      </trkpt>
      <trkpt lat="45.13423" lon="3.45004">
        <ele>564</ele>
        <time>2021-04-12T08:41:39Z</time>
      </trkpt>
      <trkpt lat="45.13434" lon="3.44999">
        <ele>564</ele>
        <time>2021-04-12T08:41:41Z</time>
      </trkpt>
      <trkpt lat="45.1344" lon="3.44994">
        <ele>564</ele>
        <time>2021-04-12T08:41:42Z</time>
      </trkpt>
      <trkpt lat="45.13445" lon="3.44989">
        <ele>563</ele>
        <time>2021-04-12T08:41:43Z</time>
      </trkpt>
      <trkpt lat="45.1345" lon="3.44984">
        <ele>563</ele>
        <time>2021-04-12T08:41:44Z</time>
      </trkpt>
      <trkpt lat="45.13455" lon="3.44979">
        <ele>563</ele>
        <time>2021-04-12T08:41:45Z</time>
      </trkpt>
      <trkpt lat="45.1346" lon="3.44974">
        <ele>563</ele>
        <time>2021-04-12T08:41:46Z</time>
      </trkpt>
      <trkpt lat="45.13464" lon="3.44968">
        <ele>563</ele>
        <time>2021-04-12T08:41:47Z</time>
      </trkpt>
      <trkpt lat="45.13466" lon="3.4496">
        <ele>562</ele>
        <time>2021-04-12T08:41:48Z</time>
      </trkpt>
      <trkpt lat="45.13473" lon="3.44942">
        <ele>560</ele>
        <time>2021-04-12T08:41:52Z</time>
      </trkpt>
      <trkpt lat="45.13474" lon="3.4494">
        <ele>559</ele>
        <time>2021-04-12T08:41:54Z</time>
      </trkpt>
      <trkpt lat="45.13476" lon="3.44937">
        <ele>558</ele>
        <time>2021-04-12T08:41:57Z</time>
      </trkpt>
      <trkpt lat="45.13477" lon="3.44935">
        <ele>557</ele>
        <time>2021-04-12T08:42:00Z</time>
      </trkpt>
      <trkpt lat="45.1348" lon="3.4493">
        <ele>556</ele>
        <time>2021-04-12T08:42:09Z</time>
      </trkpt>
      <trkpt lat="45.1348" lon="3.44929">
        <ele>556</ele>
        <time>2021-04-12T08:42:10Z</time>
      </trkpt>
      <trkpt lat="45.13478" lon="3.44928">
        <ele>556</ele>
        <time>2021-04-12T08:42:14Z</time>
      </trkpt>
      <trkpt lat="45.13477" lon="3.4493">
        <ele>556</ele>
        <time>2021-04-12T08:42:16Z</time>
      </trkpt>
      <trkpt lat="45.13469" lon="3.44933">
        <ele>555</ele>
        <time>2021-04-12T08:42:19Z</time>
      </trkpt>
      <trkpt lat="45.13465" lon="3.44934">
        <ele>555</ele>
        <time>2021-04-12T08:42:20Z</time>
      </trkpt>
      <trkpt lat="45.1346" lon="3.44936">
        <ele>555</ele>
        <time>2021-04-12T08:42:21Z</time>
      </trkpt>
      <trkpt lat="45.13455" lon="3.44937">
        <ele>554</ele>
        <time>2021-04-12T08:42:22Z</time>
      </trkpt>
      <trkpt lat="45.13451" lon="3.44938">
        <ele>554</ele>
        <time>2021-04-12T08:42:23Z</time>
      </trkpt>
      <trkpt lat="45.13447" lon="3.44939">
        <ele>554</ele>
        <time>2021-04-12T08:42:24Z</time>
      </trkpt>
      <trkpt lat="45.13443" lon="3.4494">
        <ele>554</ele>
        <time>2021-04-12T08:42:25Z</time>
      </trkpt>
      <trkpt lat="45.1344" lon="3.44941">
        <ele>554</ele>
        <time>2021-04-12T08:42:26Z</time>
      </trkpt>
      <trkpt lat="45.13426" lon="3.44945">
        <ele>553</ele>
        <time>2021-04-12T08:42:31Z</time>
      </trkpt>
      <trkpt lat="45.13423" lon="3.44946">
        <ele>553</ele>
        <time>2021-04-12T08:42:32Z</time>
      </trkpt>
      <trkpt lat="45.1342" lon="3.44946">
        <ele>553</ele>
        <time>2021-04-12T08:42:33Z</time>
      </trkpt>
      <trkpt lat="45.13417" lon="3.44947">
        <ele>553</ele>
        <time>2021-04-12T08:42:34Z</time>
      </trkpt>
      <trkpt lat="45.13413" lon="3.44947">
        <ele>553</ele>
        <time>2021-04-12T08:42:35Z</time>
      </trkpt>
      <trkpt lat="45.13409" lon="3.44947">
        <ele>553</ele>
        <time>2021-04-12T08:42:36Z</time>
      </trkpt>
      <trkpt lat="45.13405" lon="3.44947">
        <ele>553</ele>
        <time>2021-04-12T08:42:37Z</time>
      </trkpt>
      <trkpt lat="45.13401" lon="3.44947">
        <ele>553</ele>
        <time>2021-04-12T08:42:38Z</time>
      </trkpt>
      <trkpt lat="45.13392" lon="3.44947">
        <ele>553</ele>
        <time>2021-04-12T08:42:40Z</time>
      </trkpt>
      <trkpt lat="45.13388" lon="3.44947">
        <ele>553</ele>
        <time>2021-04-12T08:42:41Z</time>
      </trkpt>
      <trkpt lat="45.13378" lon="3.44948">
        <ele>553</ele>
        <time>2021-04-12T08:42:42Z</time>
      </trkpt>
      <trkpt lat="45.13374" lon="3.44947">
        <ele>553</ele>
        <time>2021-04-12T08:42:44Z</time>
      </trkpt>
      <trkpt lat="45.13371" lon="3.44945">
        <ele>553</ele>
        <time>2021-04-12T08:42:45Z</time>
      </trkpt>
      <trkpt lat="45.13368" lon="3.44943">
        <ele>553</ele>
        <time>2021-04-12T08:42:46Z</time>
      </trkpt>
      <trkpt lat="45.13364" lon="3.44942">
        <ele>553</ele>
        <time>2021-04-12T08:42:47Z</time>
      </trkpt>
      <trkpt lat="45.13355" lon="3.44939">
        <ele>553</ele>
        <time>2021-04-12T08:42:48Z</time>
      </trkpt>
      <trkpt lat="45.13342" lon="3.44931">
        <ele>551</ele>
        <time>2021-04-12T08:42:53Z</time>
      </trkpt>
      <trkpt lat="45.13341" lon="3.44928">
        <ele>551</ele>
        <time>2021-04-12T08:42:54Z</time>
      </trkpt>
      <trkpt lat="45.1334" lon="3.44926">
        <ele>551</ele>
        <time>2021-04-12T08:42:56Z</time>
      </trkpt>
      <trkpt lat="45.13337" lon="3.44923">
        <ele>551</ele>
        <time>2021-04-12T08:43:01Z</time>
      </trkpt>
      <trkpt lat="45.13334" lon="3.44921">
        <ele>551</ele>
        <time>2021-04-12T08:43:02Z</time>
      </trkpt>
      <trkpt lat="45.13331" lon="3.4492">
        <ele>551</ele>
        <time>2021-04-12T08:43:03Z</time>
      </trkpt>
      <trkpt lat="45.13327" lon="3.4492">
        <ele>551</ele>
        <time>2021-04-12T08:43:04Z</time>
      </trkpt>
      <trkpt lat="45.13323" lon="3.4492">
        <ele>551</ele>
        <time>2021-04-12T08:43:05Z</time>
      </trkpt>
      <trkpt lat="45.13312" lon="3.44918">
        <ele>551</ele>
        <time>2021-04-12T08:43:07Z</time>
      </trkpt>
      <trkpt lat="45.13308" lon="3.44917">
        <ele>551</ele>
        <time>2021-04-12T08:43:09Z</time>
      </trkpt>
      <trkpt lat="45.13304" lon="3.44914">
        <ele>551</ele>
        <time>2021-04-12T08:43:10Z</time>
      </trkpt>
      <trkpt lat="45.13301" lon="3.44912">
        <ele>551</ele>
        <time>2021-04-12T08:43:11Z</time>
      </trkpt>
      <trkpt lat="45.13298" lon="3.44909">
        <ele>551</ele>
        <time>2021-04-12T08:43:12Z</time>
      </trkpt>
      <trkpt lat="45.13294" lon="3.44907">
        <ele>550</ele>
        <time>2021-04-12T08:43:13Z</time>
      </trkpt>
      <trkpt lat="45.13291" lon="3.44906">
        <ele>550</ele>
        <time>2021-04-12T08:43:14Z</time>
      </trkpt>
      <trkpt lat="45.13288" lon="3.44904">
        <ele>550</ele>
        <time>2021-04-12T08:43:15Z</time>
      </trkpt>
      <trkpt lat="45.13272" lon="3.44904">
        <ele>549</ele>
        <time>2021-04-12T08:43:19Z</time>
      </trkpt>
      <trkpt lat="45.13269" lon="3.44902">
        <ele>549</ele>
        <time>2021-04-12T08:43:20Z</time>
      </trkpt>
      <trkpt lat="45.13266" lon="3.44899">
        <ele>548</ele>
        <time>2021-04-12T08:43:21Z</time>
      </trkpt>
      <trkpt lat="45.13263" lon="3.44896">
        <ele>548</ele>
        <time>2021-04-12T08:43:22Z</time>
      </trkpt>
      <trkpt lat="45.13261" lon="3.44894">
        <ele>548</ele>
        <time>2021-04-12T08:43:23Z</time>
      </trkpt>
      <trkpt lat="45.13257" lon="3.44892">
        <ele>547</ele>
        <time>2021-04-12T08:43:24Z</time>
      </trkpt>
      <trkpt lat="45.13253" lon="3.44891">
        <ele>547</ele>
        <time>2021-04-12T08:43:25Z</time>
      </trkpt>
      <trkpt lat="45.13248" lon="3.44888">
        <ele>547</ele>
        <time>2021-04-12T08:43:26Z</time>
      </trkpt>
      <trkpt lat="45.13237" lon="3.44883">
        <ele>546</ele>
        <time>2021-04-12T08:43:28Z</time>
      </trkpt>
      <trkpt lat="45.13231" lon="3.44879">
        <ele>545</ele>
        <time>2021-04-12T08:43:29Z</time>
      </trkpt>
      <trkpt lat="45.13224" lon="3.44876">
        <ele>545</ele>
        <time>2021-04-12T08:43:30Z</time>
      </trkpt>
      <trkpt lat="45.13218" lon="3.44873">
        <ele>544</ele>
        <time>2021-04-12T08:43:31Z</time>
      </trkpt>
      <trkpt lat="45.13211" lon="3.44871">
        <ele>544</ele>
        <time>2021-04-12T08:43:32Z</time>
      </trkpt>
      <trkpt lat="45.13205" lon="3.44869">
        <ele>544</ele>
        <time>2021-04-12T08:43:33Z</time>
      </trkpt>
      <trkpt lat="45.13198" lon="3.44868">
        <ele>544</ele>
        <time>2021-04-12T08:43:34Z</time>
      </trkpt>
      <trkpt lat="45.13191" lon="3.44866">
        <ele>543</ele>
        <time>2021-04-12T08:43:35Z</time>
      </trkpt>
      <trkpt lat="45.13164" lon="3.44861">
        <ele>542</ele>
        <time>2021-04-12T08:43:39Z</time>
      </trkpt>
      <trkpt lat="45.13157" lon="3.4486">
        <ele>542</ele>
        <time>2021-04-12T08:43:40Z</time>
      </trkpt>
      <trkpt lat="45.13151" lon="3.44859">
        <ele>542</ele>
        <time>2021-04-12T08:43:41Z</time>
      </trkpt>
      <trkpt lat="45.13144" lon="3.44858">
        <ele>542</ele>
        <time>2021-04-12T08:43:42Z</time>
      </trkpt>
      <trkpt lat="45.13138" lon="3.44856">
        <ele>541</ele>
        <time>2021-04-12T08:43:43Z</time>
      </trkpt>
      <trkpt lat="45.13132" lon="3.44855">
        <ele>541</ele>
        <time>2021-04-12T08:43:44Z</time>
      </trkpt>
      <trkpt lat="45.13126" lon="3.44853">
        <ele>541</ele>
        <time>2021-04-12T08:43:45Z</time>
      </trkpt>
      <trkpt lat="45.13121" lon="3.44851">
        <ele>540</ele>
        <time>2021-04-12T08:43:46Z</time>
      </trkpt>
      <trkpt lat="45.13113" lon="3.44843">
        <ele>540</ele>
        <time>2021-04-12T08:43:49Z</time>
      </trkpt>
      <trkpt lat="45.13112" lon="3.44838">
        <ele>539</ele>
        <time>2021-04-12T08:43:50Z</time>
      </trkpt>
      <trkpt lat="45.13112" lon="3.44832">
        <ele>539</ele>
        <time>2021-04-12T08:43:51Z</time>
      </trkpt>
      <trkpt lat="45.13111" lon="3.44826">
        <ele>539</ele>
        <time>2021-04-12T08:43:52Z</time>
      </trkpt>
      <trkpt lat="45.13111" lon="3.44819">
        <ele>539</ele>
        <time>2021-04-12T08:43:53Z</time>
      </trkpt>
      <trkpt lat="45.13111" lon="3.44813">
        <ele>538</ele>
        <time>2021-04-12T08:43:54Z</time>
      </trkpt>
      <trkpt lat="45.13111" lon="3.44806">
        <ele>538</ele>
        <time>2021-04-12T08:43:55Z</time>
      </trkpt>
      <trkpt lat="45.13111" lon="3.448">
        <ele>538</ele>
        <time>2021-04-12T08:43:56Z</time>
      </trkpt>
      <trkpt lat="45.13111" lon="3.44771">
        <ele>536</ele>
        <time>2021-04-12T08:44:00Z</time>
      </trkpt>
      <trkpt lat="45.13111" lon="3.44764">
        <ele>536</ele>
        <time>2021-04-12T08:44:01Z</time>
      </trkpt>
      <trkpt lat="45.13111" lon="3.44757">
        <ele>536</ele>
        <time>2021-04-12T08:44:02Z</time>
      </trkpt>
      <trkpt lat="45.13113" lon="3.4475">
        <ele>535</ele>
        <time>2021-04-12T08:44:03Z</time>
      </trkpt>
      <trkpt lat="45.13119" lon="3.44739">
        <ele>535</ele>
        <time>2021-04-12T08:44:04Z</time>
      </trkpt>
      <trkpt lat="45.13123" lon="3.44735">
        <ele>534</ele>
        <time>2021-04-12T08:44:06Z</time>
      </trkpt>
      <trkpt lat="45.13128" lon="3.44731">
        <ele>534</ele>
        <time>2021-04-12T08:44:07Z</time>
      </trkpt>
      <trkpt lat="45.13133" lon="3.44729">
        <ele>534</ele>
        <time>2021-04-12T08:44:08Z</time>
      </trkpt>
      <trkpt lat="45.13143" lon="3.44723">
        <ele>533</ele>
        <time>2021-04-12T08:44:10Z</time>
      </trkpt>
      <trkpt lat="45.13148" lon="3.4472">
        <ele>533</ele>
        <time>2021-04-12T08:44:11Z</time>
      </trkpt>
      <trkpt lat="45.13153" lon="3.44717">
        <ele>532</ele>
        <time>2021-04-12T08:44:12Z</time>
      </trkpt>
      <trkpt lat="45.13158" lon="3.44714">
        <ele>532</ele>
        <time>2021-04-12T08:44:13Z</time>
      </trkpt>
      <trkpt lat="45.13163" lon="3.44711">
        <ele>532</ele>
        <time>2021-04-12T08:44:14Z</time>
      </trkpt>
      <trkpt lat="45.13168" lon="3.44708">
        <ele>532</ele>
        <time>2021-04-12T08:44:15Z</time>
      </trkpt>
      <trkpt lat="45.13173" lon="3.44705">
        <ele>531</ele>
        <time>2021-04-12T08:44:16Z</time>
      </trkpt>
      <trkpt lat="45.13178" lon="3.44702">
        <ele>531</ele>
        <time>2021-04-12T08:44:17Z</time>
      </trkpt>
      <trkpt lat="45.132" lon="3.44692">
        <ele>530</ele>
        <time>2021-04-12T08:44:21Z</time>
      </trkpt>
      <trkpt lat="45.13205" lon="3.4469">
        <ele>529</ele>
        <time>2021-04-12T08:44:22Z</time>
      </trkpt>
      <trkpt lat="45.13216" lon="3.44685">
        <ele>529</ele>
        <time>2021-04-12T08:44:23Z</time>
      </trkpt>
      <trkpt lat="45.13221" lon="3.44683">
        <ele>528</ele>
        <time>2021-04-12T08:44:25Z</time>
      </trkpt>
      <trkpt lat="45.13227" lon="3.4468">
        <ele>528</ele>
        <time>2021-04-12T08:44:26Z</time>
      </trkpt>
      <trkpt lat="45.13232" lon="3.44678">
        <ele>528</ele>
        <time>2021-04-12T08:44:27Z</time>
      </trkpt>
      <trkpt lat="45.13238" lon="3.44676">
        <ele>527</ele>
        <time>2021-04-12T08:44:28Z</time>
      </trkpt>
      <trkpt lat="45.13243" lon="3.44673">
        <ele>527</ele>
        <time>2021-04-12T08:44:29Z</time>
      </trkpt>
      <trkpt lat="45.13254" lon="3.44668">
        <ele>527</ele>
        <time>2021-04-12T08:44:31Z</time>
      </trkpt>
      <trkpt lat="45.13259" lon="3.44665">
        <ele>527</ele>
        <time>2021-04-12T08:44:32Z</time>
      </trkpt>
      <trkpt lat="45.13265" lon="3.44661">
        <ele>527</ele>
        <time>2021-04-12T08:44:33Z</time>
      </trkpt>
      <trkpt lat="45.1327" lon="3.44658">
        <ele>526</ele>
        <time>2021-04-12T08:44:34Z</time>
      </trkpt>
      <trkpt lat="45.13276" lon="3.44654">
        <ele>526</ele>
        <time>2021-04-12T08:44:35Z</time>
      </trkpt>
      <trkpt lat="45.13282" lon="3.44649">
        <ele>525</ele>
        <time>2021-04-12T08:44:36Z</time>
      </trkpt>
      <trkpt lat="45.13289" lon="3.44644">
        <ele>524</ele>
        <time>2021-04-12T08:44:37Z</time>
      </trkpt>
      <trkpt lat="45.13297" lon="3.44639">
        <ele>523</ele>
        <time>2021-04-12T08:44:38Z</time>
      </trkpt>
      <trkpt lat="45.13325" lon="3.44617">
        <ele>520</ele>
        <time>2021-04-12T08:44:42Z</time>
      </trkpt>
      <trkpt lat="45.13332" lon="3.44612">
        <ele>518</ele>
        <time>2021-04-12T08:44:43Z</time>
      </trkpt>
      <trkpt lat="45.1334" lon="3.44607">
        <ele>517</ele>
        <time>2021-04-12T08:44:44Z</time>
      </trkpt>
      <trkpt lat="45.13348" lon="3.44603">
        <ele>516</ele>
        <time>2021-04-12T08:44:45Z</time>
      </trkpt>
      <trkpt lat="45.13356" lon="3.44599">
        <ele>515</ele>
        <time>2021-04-12T08:44:46Z</time>
      </trkpt>
      <trkpt lat="45.13364" lon="3.44594">
        <ele>514</ele>
        <time>2021-04-12T08:44:47Z</time>
      </trkpt>
      <trkpt lat="45.13373" lon="3.44589">
        <ele>513</ele>
        <time>2021-04-12T08:44:48Z</time>
      </trkpt>
      <trkpt lat="45.13381" lon="3.44584">
        <ele>513</ele>
        <time>2021-04-12T08:44:49Z</time>
      </trkpt>
      <trkpt lat="45.13397" lon="3.44575">
        <ele>511</ele>
        <time>2021-04-12T08:44:51Z</time>
      </trkpt>
      <trkpt lat="45.13404" lon="3.44573">
        <ele>511</ele>
        <time>2021-04-12T08:44:52Z</time>
      </trkpt>
      <trkpt lat="45.13411" lon="3.44571">
        <ele>511</ele>
        <time>2021-04-12T08:44:53Z</time>
      </trkpt>
      <trkpt lat="45.13417" lon="3.44569">
        <ele>510</ele>
        <time>2021-04-12T08:44:54Z</time>
      </trkpt>
      <trkpt lat="45.13423" lon="3.44567">
        <ele>510</ele>
        <time>2021-04-12T08:44:55Z</time>
      </trkpt>
      <trkpt lat="45.13429" lon="3.44565">
        <ele>510</ele>
        <time>2021-04-12T08:44:56Z</time>
      </trkpt>
      <trkpt lat="45.13435" lon="3.44565">
        <ele>510</ele>
        <time>2021-04-12T08:44:57Z</time>
      </trkpt>
      <trkpt lat="45.13441" lon="3.44565">
        <ele>510</ele>
        <time>2021-04-12T08:44:58Z</time>
      </trkpt>
      <trkpt lat="45.13467" lon="3.4457">
        <ele>509</ele>
        <time>2021-04-12T08:45:03Z</time>
      </trkpt>
      <trkpt lat="45.13473" lon="3.44567">
        <ele>509</ele>
        <time>2021-04-12T08:45:04Z</time>
      </trkpt>
      <trkpt lat="45.13478" lon="3.44564">
        <ele>509</ele>
        <time>2021-04-12T08:45:05Z</time>
      </trkpt>
      <trkpt lat="45.13484" lon="3.44561">
        <ele>509</ele>
        <time>2021-04-12T08:45:06Z</time>
      </trkpt>
      <trkpt lat="45.1349" lon="3.4456">
        <ele>508</ele>
        <time>2021-04-12T08:45:07Z</time>
      </trkpt>
      <trkpt lat="45.13495" lon="3.44561">
        <ele>508</ele>
        <time>2021-04-12T08:45:08Z</time>
      </trkpt>
      <trkpt lat="45.135" lon="3.44564">
        <ele>508</ele>
        <time>2021-04-12T08:45:09Z</time>
      </trkpt>
      <trkpt lat="45.13504" lon="3.44566">
        <ele>508</ele>
        <time>2021-04-12T08:45:10Z</time>
      </trkpt>
      <trkpt lat="45.13511" lon="3.44571">
        <ele>508</ele>
        <time>2021-04-12T08:45:12Z</time>
      </trkpt>
      <trkpt lat="45.13515" lon="3.44573">
        <ele>508</ele>
        <time>2021-04-12T08:45:13Z</time>
      </trkpt>
      <trkpt lat="45.13519" lon="3.44576">
        <ele>508</ele>
        <time>2021-04-12T08:45:14Z</time>
      </trkpt>
      <trkpt lat="45.13522" lon="3.44578">
        <ele>507</ele>
        <time>2021-04-12T08:45:15Z</time>
      </trkpt>
      <trkpt lat="45.13525" lon="3.4458">
        <ele>507</ele>
        <time>2021-04-12T08:45:16Z</time>
      </trkpt>
      <trkpt lat="45.13528" lon="3.44582">
        <ele>507</ele>
        <time>2021-04-12T08:45:17Z</time>
      </trkpt>
      <trkpt lat="45.13532" lon="3.44582">
        <ele>506</ele>
        <time>2021-04-12T08:45:18Z</time>
      </trkpt>
      <trkpt lat="45.13536" lon="3.44582">
        <ele>506</ele>
        <time>2021-04-12T08:45:19Z</time>
      </trkpt>
      <trkpt lat="45.13552" lon="3.44555">
        <ele>503</ele>
        <time>2021-04-12T08:45:24Z</time>
      </trkpt>
      <trkpt lat="45.13553" lon="3.44547">
        <ele>503</ele>
        <time>2021-04-12T08:45:25Z</time>
      </trkpt>
      <trkpt lat="45.13553" lon="3.4454">
        <ele>503</ele>
        <time>2021-04-12T08:45:26Z</time>
      </trkpt>
      <trkpt lat="45.13553" lon="3.44533">
        <ele>502</ele>
        <time>2021-04-12T08:45:27Z</time>
      </trkpt>
      <trkpt lat="45.13554" lon="3.44526">
        <ele>502</ele>
        <time>2021-04-12T08:45:28Z</time>
      </trkpt>
      <trkpt lat="45.13554" lon="3.4452">
        <ele>502</ele>
        <time>2021-04-12T08:45:29Z</time>
      </trkpt>
      <trkpt lat="45.13555" lon="3.44513">
        <ele>502</ele>
        <time>2021-04-12T08:45:30Z</time>
      </trkpt>
      <trkpt lat="45.13555" lon="3.44507">
        <ele>502</ele>
        <time>2021-04-12T08:45:31Z</time>
      </trkpt>
      <trkpt lat="45.13555" lon="3.44494">
        <ele>502</ele>
        <time>2021-04-12T08:45:33Z</time>
      </trkpt>
      <trkpt lat="45.13555" lon="3.44487">
        <ele>502</ele>
        <time>2021-04-12T08:45:34Z</time>
      </trkpt>
      <trkpt lat="45.13554" lon="3.4448">
        <ele>502</ele>
        <time>2021-04-12T08:45:35Z</time>
      </trkpt>
      <trkpt lat="45.13554" lon="3.44472">
        <ele>502</ele>
        <time>2021-04-12T08:45:36Z</time>
      </trkpt>
      <trkpt lat="45.13555" lon="3.44464">
        <ele>502</ele>
        <time>2021-04-12T08:45:37Z</time>
      </trkpt>
      <trkpt lat="45.13556" lon="3.44455">
        <ele>501</ele>
        <time>2021-04-12T08:45:38Z</time>
      </trkpt>
      <trkpt lat="45.13563" lon="3.4444">
        <ele>501</ele>
        <time>2021-04-12T08:45:39Z</time>
      </trkpt>
      <trkpt lat="45.13568" lon="3.44433">
        <ele>500</ele>
        <time>2021-04-12T08:45:41Z</time>
      </trkpt>
      <trkpt lat="45.13584" lon="3.44407">
        <ele>500</ele>
        <time>2021-04-12T08:45:45Z</time>
      </trkpt>
      <trkpt lat="45.13588" lon="3.444">
        <ele>500</ele>
        <time>2021-04-12T08:45:46Z</time>
      </trkpt>
      <trkpt lat="45.13592" lon="3.44394">
        <ele>500</ele>
        <time>2021-04-12T08:45:47Z</time>
      </trkpt>
      <trkpt lat="45.13596" lon="3.44388">
        <ele>500</ele>
        <time>2021-04-12T08:45:48Z</time>
      </trkpt>
      <trkpt lat="45.13601" lon="3.44382">
        <ele>499</ele>
        <time>2021-04-12T08:45:49Z</time>
      </trkpt>
      <trkpt lat="45.13605" lon="3.44376">
        <ele>499</ele>
        <time>2021-04-12T08:45:50Z</time>
      </trkpt>
      <trkpt lat="45.1361" lon="3.44369">
        <ele>499</ele>
        <time>2021-04-12T08:45:51Z</time>
      </trkpt>
      <trkpt lat="45.13614" lon="3.44363">
        <ele>499</ele>
        <time>2021-04-12T08:45:52Z</time>
      </trkpt>
      <trkpt lat="45.13622" lon="3.44351">
        <ele>499</ele>
        <time>2021-04-12T08:45:54Z</time>
      </trkpt>
      <trkpt lat="45.13626" lon="3.44346">
        <ele>499</ele>
        <time>2021-04-12T08:45:55Z</time>
      </trkpt>
      <trkpt lat="45.1363" lon="3.4434">
        <ele>499</ele>
        <time>2021-04-12T08:45:56Z</time>
      </trkpt>
      <trkpt lat="45.13634" lon="3.44334">
        <ele>499</ele>
        <time>2021-04-12T08:45:57Z</time>
      </trkpt>
      <trkpt lat="45.13641" lon="3.44323">
        <ele>499</ele>
        <time>2021-04-12T08:45:58Z</time>
      </trkpt>
      <trkpt lat="45.13645" lon="3.44317">
        <ele>500</ele>
        <time>2021-04-12T08:46:00Z</time>
      </trkpt>
      <trkpt lat="45.13648" lon="3.44312">
        <ele>500</ele>
        <time>2021-04-12T08:46:01Z</time>
      </trkpt>
      <trkpt lat="45.13652" lon="3.44307">
        <ele>500</ele>
        <time>2021-04-12T08:46:02Z</time>
      </trkpt>
      <trkpt lat="45.13664" lon="3.44285">
        <ele>500</ele>
        <time>2021-04-12T08:46:06Z</time>
      </trkpt>
      <trkpt lat="45.13666" lon="3.44279">
        <ele>500</ele>
        <time>2021-04-12T08:46:07Z</time>
      </trkpt>
      <trkpt lat="45.13669" lon="3.44273">
        <ele>500</ele>
        <time>2021-04-12T08:46:08Z</time>
      </trkpt>
      <trkpt lat="45.13672" lon="3.44266">
        <ele>500</ele>
        <time>2021-04-12T08:46:09Z</time>
      </trkpt>
      <trkpt lat="45.13676" lon="3.4426">
        <ele>500</ele>
        <time>2021-04-12T08:46:10Z</time>
      </trkpt>
      <trkpt lat="45.13684" lon="3.44248">
        <ele>500</ele>
        <time>2021-04-12T08:46:12Z</time>
      </trkpt>
      <trkpt lat="45.13688" lon="3.44243">
        <ele>500</ele>
        <time>2021-04-12T08:46:13Z</time>
      </trkpt>
      <trkpt lat="45.13692" lon="3.44237">
        <ele>500</ele>
        <time>2021-04-12T08:46:14Z</time>
      </trkpt>
      <trkpt lat="45.13704" lon="3.44223">
        <ele>500</ele>
        <time>2021-04-12T08:46:16Z</time>
      </trkpt>
      <trkpt lat="45.13708" lon="3.44218">
        <ele>500</ele>
        <time>2021-04-12T08:46:17Z</time>
      </trkpt>
      <trkpt lat="45.13712" lon="3.44213">
        <ele>501</ele>
        <time>2021-04-12T08:46:19Z</time>
      </trkpt>
      <trkpt lat="45.13716" lon="3.44208">
        <ele>501</ele>
        <time>2021-04-12T08:46:20Z</time>
      </trkpt>
      <trkpt lat="45.1372" lon="3.44203">
        <ele>501</ele>
        <time>2021-04-12T08:46:21Z</time>
      </trkpt>
      <trkpt lat="45.13723" lon="3.44197">
        <ele>501</ele>
        <time>2021-04-12T08:46:22Z</time>
      </trkpt>
      <trkpt lat="45.13727" lon="3.44192">
        <ele>501</ele>
        <time>2021-04-12T08:46:23Z</time>
      </trkpt>
      <trkpt lat="45.13731" lon="3.44187">
        <ele>501</ele>
        <time>2021-04-12T08:46:24Z</time>
      </trkpt>
      <trkpt lat="45.13744" lon="3.44166">
        <ele>502</ele>
        <time>2021-04-12T08:46:28Z</time>
      </trkpt>
      <trkpt lat="45.13747" lon="3.44161">
        <ele>502</ele>
        <time>2021-04-12T08:46:29Z</time>
      </trkpt>
      <trkpt lat="45.13749" lon="3.44156">
        <ele>503</ele>
        <time>2021-04-12T08:46:30Z</time>
      </trkpt>
      <trkpt lat="45.13752" lon="3.4415">
        <ele>503</ele>
        <time>2021-04-12T08:46:31Z</time>
      </trkpt>
      <trkpt lat="45.13754" lon="3.44144">
        <ele>503</ele>
        <time>2021-04-12T08:46:32Z</time>
      </trkpt>
      <trkpt lat="45.13756" lon="3.44139">
        <ele>503</ele>
        <time>2021-04-12T08:46:33Z</time>
      </trkpt>
      <trkpt lat="45.13758" lon="3.44134">
        <ele>504</ele>
        <time>2021-04-12T08:46:34Z</time>
      </trkpt>
      <trkpt lat="45.13761" lon="3.44129">
        <ele>504</ele>
        <time>2021-04-12T08:46:35Z</time>
      </trkpt>
      <trkpt lat="45.1377" lon="3.44115">
        <ele>505</ele>
        <time>2021-04-12T08:46:38Z</time>
      </trkpt>
      <trkpt lat="45.13773" lon="3.4411">
        <ele>505</ele>
        <time>2021-04-12T08:46:39Z</time>
      </trkpt>
      <trkpt lat="45.13776" lon="3.44106">
        <ele>506</ele>
        <time>2021-04-12T08:46:40Z</time>
      </trkpt>
      <trkpt lat="45.13778" lon="3.44102">
        <ele>506</ele>
        <time>2021-04-12T08:46:41Z</time>
      </trkpt>
      <trkpt lat="45.13781" lon="3.44098">
        <ele>506</ele>
        <time>2021-04-12T08:46:42Z</time>
      </trkpt>
      <trkpt lat="45.13784" lon="3.44094">
        <ele>507</ele>
        <time>2021-04-12T08:46:43Z</time>
      </trkpt>
      <trkpt lat="45.13786" lon="3.44089">
        <ele>507</ele>
        <time>2021-04-12T08:46:44Z</time>
      </trkpt>
      <trkpt lat="45.13789" lon="3.44084">
        <ele>507</ele>
        <time>2021-04-12T08:46:45Z</time>
      </trkpt>
      <trkpt lat="45.13797" lon="3.44064">
        <ele>508</ele>
        <time>2021-04-12T08:46:49Z</time>
      </trkpt>
      <trkpt lat="45.13799" lon="3.44059">
        <ele>509</ele>
        <time>2021-04-12T08:46:50Z</time>
      </trkpt>
      <trkpt lat="45.13801" lon="3.44053">
        <ele>509</ele>
        <time>2021-04-12T08:46:51Z</time>
      </trkpt>
      <trkpt lat="45.13802" lon="3.44048">
        <ele>509</ele>
        <time>2021-04-12T08:46:52Z</time>
      </trkpt>
      <trkpt lat="45.13803" lon="3.44042">
        <ele>509</ele>
        <time>2021-04-12T08:46:53Z</time>
      </trkpt>
      <trkpt lat="45.13804" lon="3.44037">
        <ele>509</ele>
        <time>2021-04-12T08:46:54Z</time>
      </trkpt>
      <trkpt lat="45.13805" lon="3.44025">
        <ele>510</ele>
        <time>2021-04-12T08:46:55Z</time>
      </trkpt>
      <trkpt lat="45.13806" lon="3.44019">
        <ele>510</ele>
        <time>2021-04-12T08:46:57Z</time>
      </trkpt>
      <trkpt lat="45.13805" lon="3.44007">
        <ele>510</ele>
        <time>2021-04-12T08:46:59Z</time>
      </trkpt>
      <trkpt lat="45.13805" lon="3.44">
        <ele>511</ele>
        <time>2021-04-12T08:47:00Z</time>
      </trkpt>
      <trkpt lat="45.13804" lon="3.43994">
        <ele>511</ele>
        <time>2021-04-12T08:47:01Z</time>
      </trkpt>
      <trkpt lat="45.13803" lon="3.43988">
        <ele>511</ele>
        <time>2021-04-12T08:47:02Z</time>
      </trkpt>
      <trkpt lat="45.13802" lon="3.43983">
        <ele>512</ele>
        <time>2021-04-12T08:47:03Z</time>
      </trkpt>
      <trkpt lat="45.138" lon="3.43977">
        <ele>512</ele>
        <time>2021-04-12T08:47:04Z</time>
      </trkpt>
      <trkpt lat="45.13799" lon="3.43973">
        <ele>512</ele>
        <time>2021-04-12T08:47:05Z</time>
      </trkpt>
      <trkpt lat="45.13798" lon="3.43968">
        <ele>513</ele>
        <time>2021-04-12T08:47:06Z</time>
      </trkpt>
      <trkpt lat="45.13801" lon="3.43949">
        <ele>514</ele>
        <time>2021-04-12T08:47:10Z</time>
      </trkpt>
      <trkpt lat="45.13804" lon="3.43946">
        <ele>514</ele>
        <time>2021-04-12T08:47:11Z</time>
      </trkpt>
      <trkpt lat="45.13808" lon="3.43942">
        <ele>514</ele>
        <time>2021-04-12T08:47:12Z</time>
      </trkpt>
      <trkpt lat="45.13812" lon="3.4394">
        <ele>514</ele>
        <time>2021-04-12T08:47:13Z</time>
      </trkpt>
      <trkpt lat="45.13821" lon="3.43938">
        <ele>515</ele>
        <time>2021-04-12T08:47:14Z</time>
      </trkpt>
      <trkpt lat="45.13825" lon="3.43937">
        <ele>515</ele>
        <time>2021-04-12T08:47:16Z</time>
      </trkpt>
      <trkpt lat="45.1383" lon="3.43936">
        <ele>516</ele>
        <time>2021-04-12T08:47:17Z</time>
      </trkpt>
      <trkpt lat="45.13834" lon="3.43936">
        <ele>516</ele>
        <time>2021-04-12T08:47:18Z</time>
      </trkpt>
      <trkpt lat="45.13844" lon="3.43935">
        <ele>516</ele>
        <time>2021-04-12T08:47:20Z</time>
      </trkpt>
      <trkpt lat="45.13848" lon="3.43935">
        <ele>517</ele>
        <time>2021-04-12T08:47:21Z</time>
      </trkpt>
      <trkpt lat="45.13853" lon="3.43934">
        <ele>517</ele>
        <time>2021-04-12T08:47:22Z</time>
      </trkpt>
      <trkpt lat="45.13857" lon="3.43933">
        <ele>517</ele>
        <time>2021-04-12T08:47:23Z</time>
      </trkpt>
      <trkpt lat="45.13862" lon="3.43932">
        <ele>518</ele>
        <time>2021-04-12T08:47:24Z</time>
      </trkpt>
      <trkpt lat="45.13866" lon="3.43929">
        <ele>518</ele>
        <time>2021-04-12T08:47:25Z</time>
      </trkpt>
      <trkpt lat="45.1387" lon="3.43925">
        <ele>518</ele>
        <time>2021-04-12T08:47:26Z</time>
      </trkpt>
      <trkpt lat="45.13874" lon="3.43921">
        <ele>518</ele>
        <time>2021-04-12T08:47:27Z</time>
      </trkpt>
      <trkpt lat="45.13885" lon="3.43898">
        <ele>519</ele>
        <time>2021-04-12T08:47:31Z</time>
      </trkpt>
      <trkpt lat="45.13888" lon="3.43892">
        <ele>519</ele>
        <time>2021-04-12T08:47:32Z</time>
      </trkpt>
      <trkpt lat="45.13893" lon="3.43881">
        <ele>519</ele>
        <time>2021-04-12T08:47:33Z</time>
      </trkpt>
      <trkpt lat="45.13895" lon="3.43875">
        <ele>520</ele>
        <time>2021-04-12T08:47:35Z</time>
      </trkpt>
      <trkpt lat="45.13898" lon="3.43869">
        <ele>520</ele>
        <time>2021-04-12T08:47:36Z</time>
      </trkpt>
      <trkpt lat="45.139" lon="3.43864">
        <ele>520</ele>
        <time>2021-04-12T08:47:37Z</time>
      </trkpt>
      <trkpt lat="45.13903" lon="3.43858">
        <ele>520</ele>
        <time>2021-04-12T08:47:38Z</time>
      </trkpt>
      <trkpt lat="45.13908" lon="3.43848">
        <ele>520</ele>
        <time>2021-04-12T08:47:39Z</time>
      </trkpt>
      <trkpt lat="45.13913" lon="3.43837">
        <ele>520</ele>
        <time>2021-04-12T08:47:42Z</time>
      </trkpt>
      <trkpt lat="45.13915" lon="3.43831">
        <ele>520</ele>
        <time>2021-04-12T08:47:43Z</time>
      </trkpt>
      <trkpt lat="45.13917" lon="3.43826">
        <ele>521</ele>
        <time>2021-04-12T08:47:44Z</time>
      </trkpt>
      <trkpt lat="45.1392" lon="3.43821">
        <ele>521</ele>
        <time>2021-04-12T08:47:45Z</time>
      </trkpt>
      <trkpt lat="45.13922" lon="3.43816">
        <ele>521</ele>
        <time>2021-04-12T08:47:46Z</time>
      </trkpt>
      <trkpt lat="45.13924" lon="3.4381">
        <ele>521</ele>
        <time>2021-04-12T08:47:47Z</time>
      </trkpt>
      <trkpt lat="45.13926" lon="3.43805">
        <ele>521</ele>
        <time>2021-04-12T08:47:48Z</time>
      </trkpt>
      <trkpt lat="45.13928" lon="3.438">
        <ele>522</ele>
        <time>2021-04-12T08:47:49Z</time>
      </trkpt>
      <trkpt lat="45.13943" lon="3.43774">
        <ele>522</ele>
        <time>2021-04-12T08:47:54Z</time>
      </trkpt>
      <trkpt lat="45.13945" lon="3.43767">
        <ele>521</ele>
        <time>2021-04-12T08:47:55Z</time>
      </trkpt>
      <trkpt lat="45.13949" lon="3.43762">
        <ele>521</ele>
        <time>2021-04-12T08:47:56Z</time>
      </trkpt>
      <trkpt lat="45.13953" lon="3.43756">
        <ele>521</ele>
        <time>2021-04-12T08:47:57Z</time>
      </trkpt>
      <trkpt lat="45.13957" lon="3.43752">
        <ele>521</ele>
        <time>2021-04-12T08:47:58Z</time>
      </trkpt>
      <trkpt lat="45.13962" lon="3.43748">
        <ele>521</ele>
        <time>2021-04-12T08:47:59Z</time>
      </trkpt>
      <trkpt lat="45.13967" lon="3.43744">
        <ele>521</ele>
        <time>2021-04-12T08:48:00Z</time>
      </trkpt>
      <trkpt lat="45.13972" lon="3.4374">
        <ele>520</ele>
        <time>2021-04-12T08:48:01Z</time>
      </trkpt>
      <trkpt lat="45.13984" lon="3.43732">
        <ele>520</ele>
        <time>2021-04-12T08:48:03Z</time>
      </trkpt>
      <trkpt lat="45.13991" lon="3.43728">
        <ele>519</ele>
        <time>2021-04-12T08:48:04Z</time>
      </trkpt>
      <trkpt lat="45.13997" lon="3.43724">
        <ele>519</ele>
        <time>2021-04-12T08:48:05Z</time>
      </trkpt>
      <trkpt lat="45.14003" lon="3.4372">
        <ele>519</ele>
        <time>2021-04-12T08:48:06Z</time>
      </trkpt>
      <trkpt lat="45.14008" lon="3.43716">
        <ele>519</ele>
        <time>2021-04-12T08:48:07Z</time>
      </trkpt>
      <trkpt lat="45.14014" lon="3.43711">
        <ele>519</ele>
        <time>2021-04-12T08:48:08Z</time>
      </trkpt>
      <trkpt lat="45.1402" lon="3.43707">
        <ele>519</ele>
        <time>2021-04-12T08:48:09Z</time>
      </trkpt>
      <trkpt lat="45.14026" lon="3.43702">
        <ele>519</ele>
        <time>2021-04-12T08:48:10Z</time>
      </trkpt>
      <trkpt lat="45.14063" lon="3.43672">
        <ele>517</ele>
        <time>2021-04-12T08:48:15Z</time>
      </trkpt>
      <trkpt lat="45.1407" lon="3.43668">
        <ele>515</ele>
        <time>2021-04-12T08:48:17Z</time>
      </trkpt>
      <trkpt lat="45.14077" lon="3.43663">
        <ele>515</ele>
        <time>2021-04-12T08:48:18Z</time>
      </trkpt>
      <trkpt lat="45.14084" lon="3.43657">
        <ele>514</ele>
        <time>2021-04-12T08:48:19Z</time>
      </trkpt>
      <trkpt lat="45.14092" lon="3.43651">
        <ele>513</ele>
        <time>2021-04-12T08:48:20Z</time>
      </trkpt>
      <trkpt lat="45.14099" lon="3.43645">
        <ele>512</ele>
        <time>2021-04-12T08:48:21Z</time>
      </trkpt>
      <trkpt lat="45.14107" lon="3.4364">
        <ele>511</ele>
        <time>2021-04-12T08:48:22Z</time>
      </trkpt>
      <trkpt lat="45.14114" lon="3.43635">
        <ele>510</ele>
        <time>2021-04-12T08:48:23Z</time>
      </trkpt>
      <trkpt lat="45.14125" lon="3.43629">
        <ele>509</ele>
        <time>2021-04-12T08:48:25Z</time>
      </trkpt>
      <trkpt lat="45.14128" lon="3.4363">
        <ele>509</ele>
        <time>2021-04-12T08:48:26Z</time>
      </trkpt>
      <trkpt lat="45.14129" lon="3.43632">
        <ele>508</ele>
        <time>2021-04-12T08:48:27Z</time>
      </trkpt>
      <trkpt lat="45.1413" lon="3.43637">
        <ele>508</ele>
        <time>2021-04-12T08:48:28Z</time>
      </trkpt>
      <trkpt lat="45.14132" lon="3.43642">
        <ele>507</ele>
        <time>2021-04-12T08:48:29Z</time>
      </trkpt>
      <trkpt lat="45.14133" lon="3.43654">
        <ele>507</ele>
        <time>2021-04-12T08:48:30Z</time>
      </trkpt>
      <trkpt lat="45.14134" lon="3.4366">
        <ele>506</ele>
        <time>2021-04-12T08:48:32Z</time>
      </trkpt>
      <trkpt lat="45.14134" lon="3.43668">
        <ele>505</ele>
        <time>2021-04-12T08:48:33Z</time>
      </trkpt>
      <trkpt lat="45.1414" lon="3.437">
        <ele>504</ele>
        <time>2021-04-12T08:48:38Z</time>
      </trkpt>
      <trkpt lat="45.14141" lon="3.43706">
        <ele>504</ele>
        <time>2021-04-12T08:48:39Z</time>
      </trkpt>
      <trkpt lat="45.14141" lon="3.43714">
        <ele>503</ele>
        <time>2021-04-12T08:48:40Z</time>
      </trkpt>
      <trkpt lat="45.14141" lon="3.43722">
        <ele>503</ele>
        <time>2021-04-12T08:48:41Z</time>
      </trkpt>
      <trkpt lat="45.14142" lon="3.4373">
        <ele>503</ele>
        <time>2021-04-12T08:48:42Z</time>
      </trkpt>
      <trkpt lat="45.14143" lon="3.43739">
        <ele>503</ele>
        <time>2021-04-12T08:48:43Z</time>
      </trkpt>
      <trkpt lat="45.14143" lon="3.43747">
        <ele>502</ele>
        <time>2021-04-12T08:48:44Z</time>
      </trkpt>
      <trkpt lat="45.14144" lon="3.43755">
        <ele>502</ele>
        <time>2021-04-12T08:48:45Z</time>
      </trkpt>
      <trkpt lat="45.14149" lon="3.4377">
        <ele>501</ele>
        <time>2021-04-12T08:48:47Z</time>
      </trkpt>
      <trkpt lat="45.14153" lon="3.43777">
        <ele>501</ele>
        <time>2021-04-12T08:48:48Z</time>
      </trkpt>
      <trkpt lat="45.14159" lon="3.43784">
        <ele>500</ele>
        <time>2021-04-12T08:48:49Z</time>
      </trkpt>
      <trkpt lat="45.14162" lon="3.43786">
        <ele>499</ele>
        <time>2021-04-12T08:48:51Z</time>
      </trkpt>
      <trkpt lat="45.14165" lon="3.43787">
        <ele>499</ele>
        <time>2021-04-12T08:48:52Z</time>
      </trkpt>
      <trkpt lat="45.14168" lon="3.43789">
        <ele>499</ele>
        <time>2021-04-12T08:48:53Z</time>
      </trkpt>
      <trkpt lat="45.1417" lon="3.43789">
        <ele>499</ele>
        <time>2021-04-12T08:48:54Z</time>
      </trkpt>
      <trkpt lat="45.14172" lon="3.43789">
        <ele>499</ele>
        <time>2021-04-12T08:48:55Z</time>
      </trkpt>
      <trkpt lat="45.1418" lon="3.43783">
        <ele>498</ele>
        <time>2021-04-12T08:48:59Z</time>
      </trkpt>
      <trkpt lat="45.14182" lon="3.4378">
        <ele>497</ele>
        <time>2021-04-12T08:49:00Z</time>
      </trkpt>
      <trkpt lat="45.14184" lon="3.43777">
        <ele>497</ele>
        <time>2021-04-12T08:49:01Z</time>
      </trkpt>
      <trkpt lat="45.14185" lon="3.43774">
        <ele>497</ele>
        <time>2021-04-12T08:49:02Z</time>
      </trkpt>
      <trkpt lat="45.14187" lon="3.4377">
        <ele>497</ele>
        <time>2021-04-12T08:49:03Z</time>
      </trkpt>
      <trkpt lat="45.14188" lon="3.43765">
        <ele>497</ele>
        <time>2021-04-12T08:49:04Z</time>
      </trkpt>
      <trkpt lat="45.1419" lon="3.43761">
        <ele>497</ele>
        <time>2021-04-12T08:49:05Z</time>
      </trkpt>
      <trkpt lat="45.14192" lon="3.43756">
        <ele>497</ele>
        <time>2021-04-12T08:49:06Z</time>
      </trkpt>
      <trkpt lat="45.14196" lon="3.43742">
        <ele>497</ele>
        <time>2021-04-12T08:49:08Z</time>
      </trkpt>
      <trkpt lat="45.14198" lon="3.43738">
        <ele>497</ele>
        <time>2021-04-12T08:49:10Z</time>
      </trkpt>
      <trkpt lat="45.142" lon="3.43733">
        <ele>497</ele>
        <time>2021-04-12T08:49:11Z</time>
      </trkpt>
      <trkpt lat="45.14202" lon="3.43729">
        <ele>497</ele>
        <time>2021-04-12T08:49:12Z</time>
      </trkpt>
      <trkpt lat="45.14204" lon="3.43725">
        <ele>497</ele>
        <time>2021-04-12T08:49:13Z</time>
      </trkpt>
      <trkpt lat="45.14206" lon="3.43721">
        <ele>497</ele>
        <time>2021-04-12T08:49:14Z</time>
      </trkpt>
      <trkpt lat="45.14209" lon="3.43717">
        <ele>497</ele>
        <time>2021-04-12T08:49:15Z</time>
      </trkpt>
      <trkpt lat="45.14211" lon="3.43713">
        <ele>497</ele>
        <time>2021-04-12T08:49:16Z</time>
      </trkpt>
      <trkpt lat="45.14223" lon="3.437">
        <ele>497</ele>
        <time>2021-04-12T08:49:20Z</time>
      </trkpt>
      <trkpt lat="45.14226" lon="3.43698">
        <ele>497</ele>
        <time>2021-04-12T08:49:21Z</time>
      </trkpt>
      <trkpt lat="45.14229" lon="3.43695">
        <ele>497</ele>
        <time>2021-04-12T08:49:22Z</time>
      </trkpt>
      <trkpt lat="45.14233" lon="3.43693">
        <ele>497</ele>
        <time>2021-04-12T08:49:23Z</time>
      </trkpt>
      <trkpt lat="45.14236" lon="3.43691">
        <ele>497</ele>
        <time>2021-04-12T08:49:24Z</time>
      </trkpt>
      <trkpt lat="45.14239" lon="3.43689">
        <ele>497</ele>
        <time>2021-04-12T08:49:25Z</time>
      </trkpt>
      <trkpt lat="45.14243" lon="3.43687">
        <ele>497</ele>
        <time>2021-04-12T08:49:26Z</time>
      </trkpt>
      <trkpt lat="45.1425" lon="3.43683">
        <ele>498</ele>
        <time>2021-04-12T08:49:27Z</time>
      </trkpt>
      <trkpt lat="45.14254" lon="3.4368">
        <ele>498</ele>
        <time>2021-04-12T08:49:31Z</time>
      </trkpt>
      <trkpt lat="45.14252" lon="3.4368">
        <ele>498</ele>
        <time>2021-04-12T08:49:35Z</time>
      </trkpt>
      <trkpt lat="45.1425" lon="3.43682">
        <ele>498</ele>
        <time>2021-04-12T08:49:37Z</time>
      </trkpt>
      <trkpt lat="45.14248" lon="3.43684">
        <ele>498</ele>
        <time>2021-04-12T08:49:38Z</time>
      </trkpt>
      <trkpt lat="45.14247" lon="3.43685">
        <ele>498</ele>
        <time>2021-04-12T08:49:39Z</time>
      </trkpt>
      <trkpt lat="45.14246" lon="3.43689">
        <ele>498</ele>
        <time>2021-04-12T08:49:41Z</time>
      </trkpt>
      <trkpt lat="45.14244" lon="3.43691">
        <ele>499</ele>
        <time>2021-04-12T08:49:44Z</time>
      </trkpt>
      <trkpt lat="45.1424" lon="3.43697">
        <ele>499</ele>
        <time>2021-04-12T08:49:46Z</time>
      </trkpt>
      <trkpt lat="45.14234" lon="3.43706">
        <ele>500</ele>
        <time>2021-04-12T08:49:52Z</time>
      </trkpt>
      <trkpt lat="45.14232" lon="3.43709">
        <ele>500</ele>
        <time>2021-04-12T08:49:53Z</time>
      </trkpt>
      <trkpt lat="45.14231" lon="3.43711">
        <ele>501</ele>
        <time>2021-04-12T08:49:54Z</time>
      </trkpt>
      <trkpt lat="45.1423" lon="3.43714">
        <ele>501</ele>
        <time>2021-04-12T08:49:55Z</time>
      </trkpt>
      <trkpt lat="45.1423" lon="3.43718">
        <ele>501</ele>
        <time>2021-04-12T08:49:56Z</time>
      </trkpt>
      <trkpt lat="45.14229" lon="3.43721">
        <ele>502</ele>
        <time>2021-04-12T08:49:57Z</time>
      </trkpt>
      <trkpt lat="45.14229" lon="3.43725">
        <ele>502</ele>
        <time>2021-04-12T08:49:58Z</time>
      </trkpt>
      <trkpt lat="45.14229" lon="3.43728">
        <ele>502</ele>
        <time>2021-04-12T08:49:59Z</time>
      </trkpt>
      <trkpt lat="45.14231" lon="3.43734">
        <ele>503</ele>
        <time>2021-04-12T08:50:01Z</time>
      </trkpt>
      <trkpt lat="45.14232" lon="3.43737">
        <ele>503</ele>
        <time>2021-04-12T08:50:02Z</time>
      </trkpt>
      <trkpt lat="45.14233" lon="3.4374">
        <ele>503</ele>
        <time>2021-04-12T08:50:03Z</time>
      </trkpt>
      <trkpt lat="45.14235" lon="3.43742">
        <ele>504</ele>
        <time>2021-04-12T08:50:04Z</time>
      </trkpt>
      <trkpt lat="45.14237" lon="3.43745">
        <ele>504</ele>
        <time>2021-04-12T08:50:05Z</time>
      </trkpt>
      <trkpt lat="45.14239" lon="3.43748">
        <ele>504</ele>
        <time>2021-04-12T08:50:06Z</time>
      </trkpt>
      <trkpt lat="45.14242" lon="3.4375">
        <ele>504</ele>
        <time>2021-04-12T08:50:07Z</time>
      </trkpt>
      <trkpt lat="45.14244" lon="3.43753">
        <ele>505</ele>
        <time>2021-04-12T08:50:08Z</time>
      </trkpt>
      <trkpt lat="45.14252" lon="3.43767">
        <ele>505</ele>
        <time>2021-04-12T08:50:12Z</time>
      </trkpt>
      <trkpt lat="45.14254" lon="3.4377">
        <ele>506</ele>
        <time>2021-04-12T08:50:13Z</time>
      </trkpt>
      <trkpt lat="45.14256" lon="3.43774">
        <ele>506</ele>
        <time>2021-04-12T08:50:14Z</time>
      </trkpt>
      <trkpt lat="45.14258" lon="3.43777">
        <ele>506</ele>
        <time>2021-04-12T08:50:15Z</time>
      </trkpt>
      <trkpt lat="45.1426" lon="3.43781">
        <ele>506</ele>
        <time>2021-04-12T08:50:16Z</time>
      </trkpt>
      <trkpt lat="45.14262" lon="3.43785">
        <ele>506</ele>
        <time>2021-04-12T08:50:17Z</time>
      </trkpt>
      <trkpt lat="45.14264" lon="3.43789">
        <ele>506</ele>
        <time>2021-04-12T08:50:18Z</time>
      </trkpt>
      <trkpt lat="45.14267" lon="3.43792">
        <ele>507</ele>
        <time>2021-04-12T08:50:19Z</time>
      </trkpt>
      <trkpt lat="45.14271" lon="3.43801">
        <ele>507</ele>
        <time>2021-04-12T08:50:21Z</time>
      </trkpt>
      <trkpt lat="45.14272" lon="3.43806">
        <ele>508</ele>
        <time>2021-04-12T08:50:22Z</time>
      </trkpt>
      <trkpt lat="45.14273" lon="3.43809">
        <ele>508</ele>
        <time>2021-04-12T08:50:23Z</time>
      </trkpt>
      <trkpt lat="45.14276" lon="3.43811">
        <ele>508</ele>
        <time>2021-04-12T08:50:24Z</time>
      </trkpt>
      <trkpt lat="45.14278" lon="3.4381">
        <ele>509</ele>
        <time>2021-04-12T08:50:26Z</time>
      </trkpt>
      <trkpt lat="45.14279" lon="3.43808">
        <ele>509</ele>
        <time>2021-04-12T08:50:27Z</time>
      </trkpt>
      <trkpt lat="45.14281" lon="3.43806">
        <ele>509</ele>
        <time>2021-04-12T08:50:28Z</time>
      </trkpt>
      <trkpt lat="45.14283" lon="3.43804">
        <ele>509</ele>
        <time>2021-04-12T08:50:29Z</time>
      </trkpt>
      <trkpt lat="45.1429" lon="3.43791">
        <ele>510</ele>
        <time>2021-04-12T08:50:33Z</time>
      </trkpt>
      <trkpt lat="45.14292" lon="3.43788">
        <ele>510</ele>
        <time>2021-04-12T08:50:34Z</time>
      </trkpt>
      <trkpt lat="45.14293" lon="3.43785">
        <ele>510</ele>
        <time>2021-04-12T08:50:35Z</time>
      </trkpt>
      <trkpt lat="45.14295" lon="3.43784">
        <ele>510</ele>
        <time>2021-04-12T08:50:36Z</time>
      </trkpt>
      <trkpt lat="45.14298" lon="3.43784">
        <ele>510</ele>
        <time>2021-04-12T08:50:38Z</time>
      </trkpt>
      <trkpt lat="45.143" lon="3.43787">
        <ele>511</ele>
        <time>2021-04-12T08:50:40Z</time>
      </trkpt>
      <trkpt lat="45.143" lon="3.43792">
        <ele>511</ele>
        <time>2021-04-12T08:50:42Z</time>
      </trkpt>
      <trkpt lat="45.143" lon="3.43795">
        <ele>511</ele>
        <time>2021-04-12T08:50:43Z</time>
      </trkpt>
      <trkpt lat="45.14298" lon="3.43801">
        <ele>512</ele>
        <time>2021-04-12T08:50:45Z</time>
      </trkpt>
      <trkpt lat="45.14297" lon="3.43805">
        <ele>512</ele>
        <time>2021-04-12T08:50:46Z</time>
      </trkpt>
      <trkpt lat="45.14296" lon="3.43809">
        <ele>512</ele>
        <time>2021-04-12T08:50:47Z</time>
      </trkpt>
      <trkpt lat="45.14296" lon="3.43812">
        <ele>512</ele>
        <time>2021-04-12T08:50:48Z</time>
      </trkpt>
      <trkpt lat="45.14295" lon="3.43816">
        <ele>512</ele>
        <time>2021-04-12T08:50:49Z</time>
      </trkpt>
      <trkpt lat="45.14294" lon="3.4382">
        <ele>513</ele>
        <time>2021-04-12T08:50:50Z</time>
      </trkpt>
      <trkpt lat="45.14292" lon="3.43823">
        <ele>513</ele>
        <time>2021-04-12T08:50:51Z</time>
      </trkpt>
      <trkpt lat="45.14291" lon="3.43827">
        <ele>513</ele>
        <time>2021-04-12T08:50:52Z</time>
      </trkpt>
      <trkpt lat="45.14285" lon="3.43842">
        <ele>514</ele>
        <time>2021-04-12T08:50:56Z</time>
      </trkpt>
      <trkpt lat="45.14283" lon="3.43846">
        <ele>514</ele>
        <time>2021-04-12T08:50:57Z</time>
      </trkpt>
      <trkpt lat="45.14281" lon="3.43849">
        <ele>514</ele>
        <time>2021-04-12T08:50:58Z</time>
      </trkpt>
      <trkpt lat="45.14279" lon="3.43853">
        <ele>515</ele>
        <time>2021-04-12T08:50:59Z</time>
      </trkpt>
      <trkpt lat="45.14276" lon="3.43856">
        <ele>515</ele>
        <time>2021-04-12T08:51:00Z</time>
      </trkpt>
      <trkpt lat="45.14274" lon="3.43859">
        <ele>515</ele>
        <time>2021-04-12T08:51:01Z</time>
      </trkpt>
      <trkpt lat="45.1427" lon="3.43863">
        <ele>515</ele>
        <time>2021-04-12T08:51:02Z</time>
      </trkpt>
      <trkpt lat="45.14268" lon="3.43865">
        <ele>515</ele>
        <time>2021-04-12T08:51:04Z</time>
      </trkpt>
      <trkpt lat="45.14265" lon="3.43871">
        <ele>516</ele>
        <time>2021-04-12T08:51:06Z</time>
      </trkpt>
      <trkpt lat="45.14262" lon="3.43874">
        <ele>516</ele>
        <time>2021-04-12T08:51:07Z</time>
      </trkpt>
      <trkpt lat="45.14261" lon="3.43878">
        <ele>516</ele>
        <time>2021-04-12T08:51:08Z</time>
      </trkpt>
      <trkpt lat="45.14259" lon="3.43882">
        <ele>516</ele>
        <time>2021-04-12T08:51:09Z</time>
      </trkpt>
      <trkpt lat="45.14257" lon="3.43886">
        <ele>517</ele>
        <time>2021-04-12T08:51:10Z</time>
      </trkpt>
      <trkpt lat="45.14255" lon="3.4389">
        <ele>517</ele>
        <time>2021-04-12T08:51:11Z</time>
      </trkpt>
      <trkpt lat="45.14252" lon="3.43898">
        <ele>517</ele>
        <time>2021-04-12T08:51:13Z</time>
      </trkpt>
      <trkpt lat="45.14252" lon="3.43902">
        <ele>518</ele>
        <time>2021-04-12T08:51:14Z</time>
      </trkpt>
      <trkpt lat="45.14248" lon="3.43918">
        <ele>519</ele>
        <time>2021-04-12T08:51:18Z</time>
      </trkpt>
      <trkpt lat="45.14246" lon="3.43922">
        <ele>519</ele>
        <time>2021-04-12T08:51:19Z</time>
      </trkpt>
      <trkpt lat="45.14245" lon="3.43926">
        <ele>520</ele>
        <time>2021-04-12T08:51:20Z</time>
      </trkpt>
      <trkpt lat="45.14242" lon="3.43934">
        <ele>520</ele>
        <time>2021-04-12T08:51:21Z</time>
      </trkpt>
      <trkpt lat="45.1424" lon="3.43938">
        <ele>521</ele>
        <time>2021-04-12T08:51:23Z</time>
      </trkpt>
      <trkpt lat="45.14239" lon="3.43942">
        <ele>522</ele>
        <time>2021-04-12T08:51:24Z</time>
      </trkpt>
      <trkpt lat="45.14237" lon="3.43946">
        <ele>522</ele>
        <time>2021-04-12T08:51:25Z</time>
      </trkpt>
      <trkpt lat="45.14235" lon="3.4395">
        <ele>522</ele>
        <time>2021-04-12T08:51:26Z</time>
      </trkpt>
      <trkpt lat="45.14233" lon="3.43958">
        <ele>522</ele>
        <time>2021-04-12T08:51:28Z</time>
      </trkpt>
      <trkpt lat="45.14232" lon="3.43962">
        <ele>523</ele>
        <time>2021-04-12T08:51:29Z</time>
      </trkpt>
      <trkpt lat="45.14231" lon="3.43967">
        <ele>523</ele>
        <time>2021-04-12T08:51:30Z</time>
      </trkpt>
      <trkpt lat="45.14229" lon="3.43972">
        <ele>523</ele>
        <time>2021-04-12T08:51:31Z</time>
      </trkpt>
      <trkpt lat="45.14228" lon="3.43976">
        <ele>523</ele>
        <time>2021-04-12T08:51:32Z</time>
      </trkpt>
      <trkpt lat="45.14227" lon="3.43981">
        <ele>523</ele>
        <time>2021-04-12T08:51:33Z</time>
      </trkpt>
      <trkpt lat="45.14226" lon="3.43986">
        <ele>524</ele>
        <time>2021-04-12T08:51:34Z</time>
      </trkpt>
      <trkpt lat="45.14225" lon="3.4399">
        <ele>524</ele>
        <time>2021-04-12T08:51:35Z</time>
      </trkpt>
      <trkpt lat="45.14222" lon="3.4401">
        <ele>525</ele>
        <time>2021-04-12T08:51:39Z</time>
      </trkpt>
      <trkpt lat="45.14223" lon="3.44022">
        <ele>525</ele>
        <time>2021-04-12T08:51:40Z</time>
      </trkpt>
      <trkpt lat="45.14223" lon="3.44027">
        <ele>525</ele>
        <time>2021-04-12T08:51:42Z</time>
      </trkpt>
      <trkpt lat="45.14224" lon="3.44033">
        <ele>525</ele>
        <time>2021-04-12T08:51:43Z</time>
      </trkpt>
      <trkpt lat="45.14225" lon="3.44039">
        <ele>525</ele>
        <time>2021-04-12T08:51:44Z</time>
      </trkpt>
      <trkpt lat="45.14225" lon="3.44044">
        <ele>525</ele>
        <time>2021-04-12T08:51:45Z</time>
      </trkpt>
      <trkpt lat="45.14226" lon="3.4405">
        <ele>525</ele>
        <time>2021-04-12T08:51:46Z</time>
      </trkpt>
      <trkpt lat="45.14228" lon="3.44055">
        <ele>525</ele>
        <time>2021-04-12T08:51:47Z</time>
      </trkpt>
      <trkpt lat="45.14231" lon="3.44065">
        <ele>526</ele>
        <time>2021-04-12T08:51:49Z</time>
      </trkpt>
      <trkpt lat="45.14232" lon="3.44069">
        <ele>526</ele>
        <time>2021-04-12T08:51:50Z</time>
      </trkpt>
      <trkpt lat="45.14234" lon="3.44072">
        <ele>526</ele>
        <time>2021-04-12T08:51:51Z</time>
      </trkpt>
      <trkpt lat="45.14236" lon="3.44071">
        <ele>526</ele>
        <time>2021-04-12T08:51:53Z</time>
      </trkpt>
      <trkpt lat="45.14238" lon="3.44069">
        <ele>526</ele>
        <time>2021-04-12T08:51:57Z</time>
      </trkpt>
      <trkpt lat="45.1424" lon="3.44066">
        <ele>526</ele>
        <time>2021-04-12T08:51:58Z</time>
      </trkpt>
      <trkpt lat="45.14244" lon="3.44058">
        <ele>526</ele>
        <time>2021-04-12T08:51:59Z</time>
      </trkpt>
      <trkpt lat="45.14247" lon="3.44054">
        <ele>526</ele>
        <time>2021-04-12T08:52:01Z</time>
      </trkpt>
      <trkpt lat="45.14259" lon="3.44037">
        <ele>527</ele>
        <time>2021-04-12T08:52:05Z</time>
      </trkpt>
      <trkpt lat="45.14262" lon="3.44034">
        <ele>527</ele>
        <time>2021-04-12T08:52:06Z</time>
      </trkpt>
      <trkpt lat="45.14266" lon="3.44031">
        <ele>528</ele>
        <time>2021-04-12T08:52:07Z</time>
      </trkpt>
      <trkpt lat="45.14269" lon="3.44029">
        <ele>528</ele>
        <time>2021-04-12T08:52:08Z</time>
      </trkpt>
      <trkpt lat="45.14273" lon="3.44027">
        <ele>529</ele>
        <time>2021-04-12T08:52:09Z</time>
      </trkpt>
      <trkpt lat="45.14277" lon="3.44025">
        <ele>529</ele>
        <time>2021-04-12T08:52:10Z</time>
      </trkpt>
      <trkpt lat="45.1428" lon="3.44023">
        <ele>530</ele>
        <time>2021-04-12T08:52:11Z</time>
      </trkpt>
      <trkpt lat="45.14284" lon="3.44021">
        <ele>530</ele>
        <time>2021-04-12T08:52:12Z</time>
      </trkpt>
      <trkpt lat="45.1429" lon="3.44017">
        <ele>531</ele>
        <time>2021-04-12T08:52:14Z</time>
      </trkpt>
      <trkpt lat="45.14293" lon="3.44015">
        <ele>531</ele>
        <time>2021-04-12T08:52:15Z</time>
      </trkpt>
      <trkpt lat="45.14296" lon="3.44011">
        <ele>531</ele>
        <time>2021-04-12T08:52:16Z</time>
      </trkpt>
      <trkpt lat="45.14299" lon="3.44008">
        <ele>531</ele>
        <time>2021-04-12T08:52:17Z</time>
      </trkpt>
      <trkpt lat="45.14307" lon="3.44003">
        <ele>532</ele>
        <time>2021-04-12T08:52:18Z</time>
      </trkpt>
      <trkpt lat="45.1431" lon="3.44001">
        <ele>532</ele>
        <time>2021-04-12T08:52:20Z</time>
      </trkpt>
      <trkpt lat="45.14317" lon="3.43995">
        <ele>532</ele>
        <time>2021-04-12T08:52:21Z</time>
      </trkpt>
      <trkpt lat="45.14322" lon="3.43991">
        <ele>533</ele>
        <time>2021-04-12T08:52:23Z</time>
      </trkpt>
      <trkpt lat="45.14337" lon="3.43977">
        <ele>534</ele>
        <time>2021-04-12T08:52:27Z</time>
      </trkpt>
      <trkpt lat="45.14342" lon="3.43973">
        <ele>534</ele>
        <time>2021-04-12T08:52:28Z</time>
      </trkpt>
      <trkpt lat="45.14346" lon="3.43969">
        <ele>534</ele>
        <time>2021-04-12T08:52:29Z</time>
      </trkpt>
      <trkpt lat="45.14351" lon="3.43964">
        <ele>534</ele>
        <time>2021-04-12T08:52:30Z</time>
      </trkpt>
      <trkpt lat="45.14355" lon="3.4396">
        <ele>534</ele>
        <time>2021-04-12T08:52:31Z</time>
      </trkpt>
      <trkpt lat="45.1436" lon="3.43955">
        <ele>534</ele>
        <time>2021-04-12T08:52:32Z</time>
      </trkpt>
      <trkpt lat="45.14365" lon="3.43951">
        <ele>534</ele>
        <time>2021-04-12T08:52:33Z</time>
      </trkpt>
      <trkpt lat="45.1437" lon="3.43947">
        <ele>534</ele>
        <time>2021-04-12T08:52:34Z</time>
      </trkpt>
      <trkpt lat="45.14382" lon="3.43943">
        <ele>534</ele>
        <time>2021-04-12T08:52:36Z</time>
      </trkpt>
      <trkpt lat="45.14386" lon="3.43939">
        <ele>534</ele>
        <time>2021-04-12T08:52:37Z</time>
      </trkpt>
      <trkpt lat="45.14391" lon="3.43934">
        <ele>534</ele>
        <time>2021-04-12T08:52:38Z</time>
      </trkpt>
      <trkpt lat="45.14395" lon="3.4393">
        <ele>534</ele>
        <time>2021-04-12T08:52:39Z</time>
      </trkpt>
      <trkpt lat="45.14399" lon="3.43927">
        <ele>534</ele>
        <time>2021-04-12T08:52:40Z</time>
      </trkpt>
      <trkpt lat="45.14403" lon="3.43924">
        <ele>534</ele>
        <time>2021-04-12T08:52:41Z</time>
      </trkpt>
      <trkpt lat="45.14408" lon="3.43921">
        <ele>534</ele>
        <time>2021-04-12T08:52:42Z</time>
      </trkpt>
      <trkpt lat="45.14412" lon="3.43919">
        <ele>534</ele>
        <time>2021-04-12T08:52:43Z</time>
      </trkpt>
      <trkpt lat="45.14428" lon="3.43908">
        <ele>535</ele>
        <time>2021-04-12T08:52:47Z</time>
      </trkpt>
      <trkpt lat="45.14433" lon="3.43905">
        <ele>535</ele>
        <time>2021-04-12T08:52:48Z</time>
      </trkpt>
      <trkpt lat="45.14437" lon="3.43902">
        <ele>535</ele>
        <time>2021-04-12T08:52:49Z</time>
      </trkpt>
      <trkpt lat="45.14442" lon="3.43899">
        <ele>535</ele>
        <time>2021-04-12T08:52:50Z</time>
      </trkpt>
      <trkpt lat="45.14447" lon="3.43897">
        <ele>535</ele>
        <time>2021-04-12T08:52:51Z</time>
      </trkpt>
      <trkpt lat="45.14452" lon="3.43894">
        <ele>535</ele>
        <time>2021-04-12T08:52:52Z</time>
      </trkpt>
      <trkpt lat="45.14457" lon="3.43891">
        <ele>535</ele>
        <time>2021-04-12T08:52:53Z</time>
      </trkpt>
      <trkpt lat="45.14461" lon="3.43888">
        <ele>536</ele>
        <time>2021-04-12T08:52:54Z</time>
      </trkpt>
      <trkpt lat="45.1447" lon="3.43875">
        <ele>537</ele>
        <time>2021-04-12T08:52:56Z</time>
      </trkpt>
      <trkpt lat="45.1447" lon="3.43869">
        <ele>537</ele>
        <time>2021-04-12T08:52:58Z</time>
      </trkpt>
      <trkpt lat="45.14468" lon="3.43864">
        <ele>537</ele>
        <time>2021-04-12T08:52:59Z</time>
      </trkpt>
      <trkpt lat="45.14467" lon="3.43858">
        <ele>537</ele>
        <time>2021-04-12T08:53:00Z</time>
      </trkpt>
      <trkpt lat="45.14467" lon="3.43853">
        <ele>538</ele>
        <time>2021-04-12T08:53:01Z</time>
      </trkpt>
      <trkpt lat="45.14469" lon="3.43848">
        <ele>538</ele>
        <time>2021-04-12T08:53:02Z</time>
      </trkpt>
      <trkpt lat="45.14472" lon="3.43845">
        <ele>538</ele>
        <time>2021-04-12T08:53:03Z</time>
      </trkpt>
      <trkpt lat="45.14477" lon="3.43843">
        <ele>538</ele>
        <time>2021-04-12T08:53:04Z</time>
      </trkpt>
      <trkpt lat="45.14493" lon="3.43835">
        <ele>539</ele>
        <time>2021-04-12T08:53:08Z</time>
      </trkpt>
      <trkpt lat="45.14497" lon="3.43834">
        <ele>539</ele>
        <time>2021-04-12T08:53:09Z</time>
      </trkpt>
      <trkpt lat="45.14501" lon="3.43832">
        <ele>539</ele>
        <time>2021-04-12T08:53:10Z</time>
      </trkpt>
      <trkpt lat="45.14505" lon="3.43831">
        <ele>540</ele>
        <time>2021-04-12T08:53:11Z</time>
      </trkpt>
      <trkpt lat="45.14509" lon="3.43828">
        <ele>540</ele>
        <time>2021-04-12T08:53:12Z</time>
      </trkpt>
      <trkpt lat="45.14513" lon="3.43826">
        <ele>540</ele>
        <time>2021-04-12T08:53:13Z</time>
      </trkpt>
      <trkpt lat="45.14517" lon="3.43824">
        <ele>540</ele>
        <time>2021-04-12T08:53:14Z</time>
      </trkpt>
      <trkpt lat="45.14524" lon="3.43819">
        <ele>541</ele>
        <time>2021-04-12T08:53:15Z</time>
      </trkpt>
      <trkpt lat="45.14531" lon="3.43811">
        <ele>542</ele>
        <time>2021-04-12T08:53:18Z</time>
      </trkpt>
      <trkpt lat="45.14534" lon="3.43807">
        <ele>542</ele>
        <time>2021-04-12T08:53:19Z</time>
      </trkpt>
      <trkpt lat="45.14537" lon="3.43805">
        <ele>542</ele>
        <time>2021-04-12T08:53:20Z</time>
      </trkpt>
      <trkpt lat="45.14541" lon="3.43803">
        <ele>542</ele>
        <time>2021-04-12T08:53:21Z</time>
      </trkpt>
      <trkpt lat="45.14544" lon="3.43801">
        <ele>543</ele>
        <time>2021-04-12T08:53:22Z</time>
      </trkpt>
      <trkpt lat="45.14547" lon="3.43799">
        <ele>543</ele>
        <time>2021-04-12T08:53:23Z</time>
      </trkpt>
      <trkpt lat="45.1455" lon="3.43797">
        <ele>543</ele>
        <time>2021-04-12T08:53:24Z</time>
      </trkpt>
      <trkpt lat="45.14553" lon="3.43795">
        <ele>544</ele>
        <time>2021-04-12T08:53:25Z</time>
      </trkpt>
      <trkpt lat="45.14568" lon="3.43786">
        <ele>545</ele>
        <time>2021-04-12T08:53:29Z</time>
      </trkpt>
      <trkpt lat="45.14572" lon="3.43784">
        <ele>546</ele>
        <time>2021-04-12T08:53:30Z</time>
      </trkpt>
      <trkpt lat="45.14576" lon="3.43782">
        <ele>546</ele>
        <time>2021-04-12T08:53:31Z</time>
      </trkpt>
      <trkpt lat="45.1458" lon="3.4378">
        <ele>546</ele>
        <time>2021-04-12T08:53:32Z</time>
      </trkpt>
      <trkpt lat="45.14584" lon="3.43777">
        <ele>547</ele>
        <time>2021-04-12T08:53:33Z</time>
      </trkpt>
      <trkpt lat="45.14591" lon="3.43773">
        <ele>547</ele>
        <time>2021-04-12T08:53:34Z</time>
      </trkpt>
      <trkpt lat="45.14595" lon="3.43771">
        <ele>548</ele>
        <time>2021-04-12T08:53:36Z</time>
      </trkpt>
      <trkpt lat="45.146" lon="3.43769">
        <ele>549</ele>
        <time>2021-04-12T08:53:37Z</time>
      </trkpt>
      <trkpt lat="45.14608" lon="3.43769">
        <ele>550</ele>
        <time>2021-04-12T08:53:39Z</time>
      </trkpt>
      <trkpt lat="45.14612" lon="3.4377">
        <ele>550</ele>
        <time>2021-04-12T08:53:40Z</time>
      </trkpt>
      <trkpt lat="45.14619" lon="3.43771">
        <ele>551</ele>
        <time>2021-04-12T08:53:42Z</time>
      </trkpt>
      <trkpt lat="45.14622" lon="3.4377">
        <ele>551</ele>
        <time>2021-04-12T08:53:43Z</time>
      </trkpt>
      <trkpt lat="45.14625" lon="3.43768">
        <ele>551</ele>
        <time>2021-04-12T08:53:44Z</time>
      </trkpt>
      <trkpt lat="45.14629" lon="3.43766">
        <ele>551</ele>
        <time>2021-04-12T08:53:45Z</time>
      </trkpt>
      <trkpt lat="45.14635" lon="3.43763">
        <ele>551</ele>
        <time>2021-04-12T08:53:46Z</time>
      </trkpt>
      <trkpt lat="45.14641" lon="3.4376">
        <ele>551</ele>
        <time>2021-04-12T08:53:47Z</time>
      </trkpt>
      <trkpt lat="45.14665" lon="3.43743">
        <ele>551</ele>
        <time>2021-04-12T08:53:51Z</time>
      </trkpt>
      <trkpt lat="45.14671" lon="3.43739">
        <ele>550</ele>
        <time>2021-04-12T08:53:52Z</time>
      </trkpt>
      <trkpt lat="45.14684" lon="3.43733">
        <ele>550</ele>
        <time>2021-04-12T08:53:53Z</time>
      </trkpt>
      <trkpt lat="45.1469" lon="3.4373">
        <ele>550</ele>
        <time>2021-04-12T08:53:55Z</time>
      </trkpt>
      <trkpt lat="45.14696" lon="3.43729">
        <ele>550</ele>
        <time>2021-04-12T08:53:56Z</time>
      </trkpt>
      <trkpt lat="45.14703" lon="3.43727">
        <ele>549</ele>
        <time>2021-04-12T08:53:57Z</time>
      </trkpt>
      <trkpt lat="45.1471" lon="3.43725">
        <ele>549</ele>
        <time>2021-04-12T08:53:58Z</time>
      </trkpt>
      <trkpt lat="45.14718" lon="3.43725">
        <ele>549</ele>
        <time>2021-04-12T08:53:59Z</time>
      </trkpt>
      <trkpt lat="45.14734" lon="3.43728">
        <ele>548</ele>
        <time>2021-04-12T08:54:01Z</time>
      </trkpt>
      <trkpt lat="45.14741" lon="3.4373">
        <ele>548</ele>
        <time>2021-04-12T08:54:02Z</time>
      </trkpt>
      <trkpt lat="45.14747" lon="3.43732">
        <ele>548</ele>
        <time>2021-04-12T08:54:03Z</time>
      </trkpt>
      <trkpt lat="45.14753" lon="3.43735">
        <ele>548</ele>
        <time>2021-04-12T08:54:04Z</time>
      </trkpt>
      <trkpt lat="45.14758" lon="3.43738">
        <ele>548</ele>
        <time>2021-04-12T08:54:05Z</time>
      </trkpt>
      <trkpt lat="45.14763" lon="3.43742">
        <ele>548</ele>
        <time>2021-04-12T08:54:06Z</time>
      </trkpt>
      <trkpt lat="45.14767" lon="3.43745">
        <ele>548</ele>
        <time>2021-04-12T08:54:07Z</time>
      </trkpt>
      <trkpt lat="45.1477" lon="3.43747">
        <ele>548</ele>
        <time>2021-04-12T08:54:08Z</time>
      </trkpt>
      <trkpt lat="45.14781" lon="3.43761">
        <ele>548</ele>
        <time>2021-04-12T08:54:12Z</time>
      </trkpt>
      <trkpt lat="45.14782" lon="3.43765">
        <ele>548</ele>
        <time>2021-04-12T08:54:14Z</time>
      </trkpt>
      <trkpt lat="45.14783" lon="3.43769">
        <ele>549</ele>
        <time>2021-04-12T08:54:15Z</time>
      </trkpt>
      <trkpt lat="45.14784" lon="3.43772">
        <ele>549</ele>
        <time>2021-04-12T08:54:16Z</time>
      </trkpt>
      <trkpt lat="45.14785" lon="3.43776">
        <ele>549</ele>
        <time>2021-04-12T08:54:17Z</time>
      </trkpt>
      <trkpt lat="45.14787" lon="3.43779">
        <ele>550</ele>
        <time>2021-04-12T08:54:18Z</time>
      </trkpt>
      <trkpt lat="45.14789" lon="3.43783">
        <ele>550</ele>
        <time>2021-04-12T08:54:19Z</time>
      </trkpt>
      <trkpt lat="45.14791" lon="3.43785">
        <ele>550</ele>
        <time>2021-04-12T08:54:20Z</time>
      </trkpt>
      <trkpt lat="45.14797" lon="3.43786">
        <ele>550</ele>
        <time>2021-04-12T08:54:22Z</time>
      </trkpt>
      <trkpt lat="45.148" lon="3.43786">
        <ele>550</ele>
        <time>2021-04-12T08:54:23Z</time>
      </trkpt>
      <trkpt lat="45.14803" lon="3.43787">
        <ele>550</ele>
        <time>2021-04-12T08:54:24Z</time>
      </trkpt>
      <trkpt lat="45.14807" lon="3.43788">
        <ele>550</ele>
        <time>2021-04-12T08:54:25Z</time>
      </trkpt>
      <trkpt lat="45.14812" lon="3.43791">
        <ele>550</ele>
        <time>2021-04-12T08:54:26Z</time>
      </trkpt>
      <trkpt lat="45.14817" lon="3.43794">
        <ele>549</ele>
        <time>2021-04-12T08:54:27Z</time>
      </trkpt>
      <trkpt lat="45.14823" lon="3.43797">
        <ele>549</ele>
        <time>2021-04-12T08:54:28Z</time>
      </trkpt>
      <trkpt lat="45.14829" lon="3.438">
        <ele>549</ele>
        <time>2021-04-12T08:54:29Z</time>
      </trkpt>
      <trkpt lat="45.14856" lon="3.43815">
        <ele>549</ele>
        <time>2021-04-12T08:54:34Z</time>
      </trkpt>
      <trkpt lat="45.14861" lon="3.43817">
        <ele>549</ele>
        <time>2021-04-12T08:54:35Z</time>
      </trkpt>
      <trkpt lat="45.14866" lon="3.43819">
        <ele>549</ele>
        <time>2021-04-12T08:54:36Z</time>
      </trkpt>
      <trkpt lat="45.14872" lon="3.43821">
        <ele>548</ele>
        <time>2021-04-12T08:54:37Z</time>
      </trkpt>
      <trkpt lat="45.14876" lon="3.43823">
        <ele>548</ele>
        <time>2021-04-12T08:54:38Z</time>
      </trkpt>
      <trkpt lat="45.1488" lon="3.43823">
        <ele>548</ele>
        <time>2021-04-12T08:54:39Z</time>
      </trkpt>
      <trkpt lat="45.14885" lon="3.43822">
        <ele>548</ele>
        <time>2021-04-12T08:54:40Z</time>
      </trkpt>
      <trkpt lat="45.14889" lon="3.4382">
        <ele>548</ele>
        <time>2021-04-12T08:54:41Z</time>
      </trkpt>
      <trkpt lat="45.14897" lon="3.43815">
        <ele>548</ele>
        <time>2021-04-12T08:54:43Z</time>
      </trkpt>
      <trkpt lat="45.14901" lon="3.43812">
        <ele>548</ele>
        <time>2021-04-12T08:54:44Z</time>
      </trkpt>
      <trkpt lat="45.14904" lon="3.43809">
        <ele>549</ele>
        <time>2021-04-12T08:54:45Z</time>
      </trkpt>
      <trkpt lat="45.14909" lon="3.43807">
        <ele>549</ele>
        <time>2021-04-12T08:54:46Z</time>
      </trkpt>
      <trkpt lat="45.14915" lon="3.43807">
        <ele>549</ele>
        <time>2021-04-12T08:54:47Z</time>
      </trkpt>
      <trkpt lat="45.14921" lon="3.43807">
        <ele>549</ele>
        <time>2021-04-12T08:54:48Z</time>
      </trkpt>
      <trkpt lat="45.14926" lon="3.43808">
        <ele>549</ele>
        <time>2021-04-12T08:54:49Z</time>
      </trkpt>
      <trkpt lat="45.14938" lon="3.43808">
        <ele>549</ele>
        <time>2021-04-12T08:54:50Z</time>
      </trkpt>
      <trkpt lat="45.14957" lon="3.43812">
        <ele>549</ele>
        <time>2021-04-12T08:54:55Z</time>
      </trkpt>
      <trkpt lat="45.14962" lon="3.43812">
        <ele>549</ele>
        <time>2021-04-12T08:54:56Z</time>
      </trkpt>
      <trkpt lat="45.14968" lon="3.43813">
        <ele>549</ele>
        <time>2021-04-12T08:54:57Z</time>
      </trkpt>
      <trkpt lat="45.1498" lon="3.43813">
        <ele>548</ele>
        <time>2021-04-12T08:54:59Z</time>
      </trkpt>
      <trkpt lat="45.14986" lon="3.43814">
        <ele>548</ele>
        <time>2021-04-12T08:55:00Z</time>
      </trkpt>
      <trkpt lat="45.14996" lon="3.43813">
        <ele>547</ele>
        <time>2021-04-12T08:55:02Z</time>
      </trkpt>
      <trkpt lat="45.15003" lon="3.4381">
        <ele>547</ele>
        <time>2021-04-12T08:55:03Z</time>
      </trkpt>
      <trkpt lat="45.15009" lon="3.43808">
        <ele>547</ele>
        <time>2021-04-12T08:55:04Z</time>
      </trkpt>
      <trkpt lat="45.15023" lon="3.43801">
        <ele>546</ele>
        <time>2021-04-12T08:55:06Z</time>
      </trkpt>
      <trkpt lat="45.15029" lon="3.43798">
        <ele>545</ele>
        <time>2021-04-12T08:55:07Z</time>
      </trkpt>
      <trkpt lat="45.15035" lon="3.43795">
        <ele>545</ele>
        <time>2021-04-12T08:55:08Z</time>
      </trkpt>
      <trkpt lat="45.15046" lon="3.43789">
        <ele>544</ele>
        <time>2021-04-12T08:55:09Z</time>
      </trkpt>
      <trkpt lat="45.15052" lon="3.43786">
        <ele>543</ele>
        <time>2021-04-12T08:55:11Z</time>
      </trkpt>
      <trkpt lat="45.15058" lon="3.43784">
        <ele>543</ele>
        <time>2021-04-12T08:55:12Z</time>
      </trkpt>
      <trkpt lat="45.15066" lon="3.4378">
        <ele>542</ele>
        <time>2021-04-12T08:55:13Z</time>
      </trkpt>
      <trkpt lat="45.1508" lon="3.43774">
        <ele>541</ele>
        <time>2021-04-12T08:55:15Z</time>
      </trkpt>
      <trkpt lat="45.15134" lon="3.43756">
        <ele>537</ele>
        <time>2021-04-12T08:55:21Z</time>
      </trkpt>
      <trkpt lat="45.15143" lon="3.43753">
        <ele>536</ele>
        <time>2021-04-12T08:55:22Z</time>
      </trkpt>
      <trkpt lat="45.15158" lon="3.43747">
        <ele>534</ele>
        <time>2021-04-12T08:55:24Z</time>
      </trkpt>
      <trkpt lat="45.15172" lon="3.43741">
        <ele>533</ele>
        <time>2021-04-12T08:55:26Z</time>
      </trkpt>
      <trkpt lat="45.15186" lon="3.43738">
        <ele>531</ele>
        <time>2021-04-12T08:55:28Z</time>
      </trkpt>
      <trkpt lat="45.15199" lon="3.43737">
        <ele>529</ele>
        <time>2021-04-12T08:55:30Z</time>
      </trkpt>
      <trkpt lat="45.15212" lon="3.43736">
        <ele>526</ele>
        <time>2021-04-12T08:55:32Z</time>
      </trkpt>
      <trkpt lat="45.15225" lon="3.43735">
        <ele>523</ele>
        <time>2021-04-12T08:55:34Z</time>
      </trkpt>
      <trkpt lat="45.15239" lon="3.43735">
        <ele>521</ele>
        <time>2021-04-12T08:55:36Z</time>
      </trkpt>
      <trkpt lat="45.15244" lon="3.43734">
        <ele>519</ele>
        <time>2021-04-12T08:55:37Z</time>
      </trkpt>
      <trkpt lat="45.15248" lon="3.43733">
        <ele>518</ele>
        <time>2021-04-12T08:55:38Z</time>
      </trkpt>
      <trkpt lat="45.15251" lon="3.43732">
        <ele>516</ele>
        <time>2021-04-12T08:55:39Z</time>
      </trkpt>
      <trkpt lat="45.15254" lon="3.43731">
        <ele>515</ele>
        <time>2021-04-12T08:55:40Z</time>
      </trkpt>
      <trkpt lat="45.15257" lon="3.4373">
        <ele>514</ele>
        <time>2021-04-12T08:55:41Z</time>
      </trkpt>
      <trkpt lat="45.15259" lon="3.4373">
        <ele>513</ele>
        <time>2021-04-12T08:55:42Z</time>
      </trkpt>
      <trkpt lat="45.15262" lon="3.4373">
        <ele>512</ele>
        <time>2021-04-12T08:55:43Z</time>
      </trkpt>
      <trkpt lat="45.1528" lon="3.43728">
        <ele>510</ele>
        <time>2021-04-12T08:55:47Z</time>
      </trkpt>
      <trkpt lat="45.15284" lon="3.43729">
        <ele>509</ele>
        <time>2021-04-12T08:55:49Z</time>
      </trkpt>
      <trkpt lat="45.15287" lon="3.4373">
        <ele>509</ele>
        <time>2021-04-12T08:55:50Z</time>
      </trkpt>
      <trkpt lat="45.15289" lon="3.43732">
        <ele>508</ele>
        <time>2021-04-12T08:55:51Z</time>
      </trkpt>
      <trkpt lat="45.15291" lon="3.43735">
        <ele>507</ele>
        <time>2021-04-12T08:55:52Z</time>
      </trkpt>
      <trkpt lat="45.15292" lon="3.43737">
        <ele>507</ele>
        <time>2021-04-12T08:55:53Z</time>
      </trkpt>
      <trkpt lat="45.15293" lon="3.4374">
        <ele>506</ele>
        <time>2021-04-12T08:55:54Z</time>
      </trkpt>
      <trkpt lat="45.15293" lon="3.43742">
        <ele>506</ele>
        <time>2021-04-12T08:55:55Z</time>
      </trkpt>
      <trkpt lat="45.15294" lon="3.43753">
        <ele>502</ele>
        <time>2021-04-12T08:57:27Z</time>
      </trkpt>
      <trkpt lat="45.15294" lon="3.43757">
        <ele>502</ele>
        <time>2021-04-12T08:57:28Z</time>
      </trkpt>
      <trkpt lat="45.15294" lon="3.43767">
        <ele>502</ele>
        <time>2021-04-12T08:57:29Z</time>
      </trkpt>
      <trkpt lat="45.15294" lon="3.43773">
        <ele>501</ele>
        <time>2021-04-12T08:57:31Z</time>
      </trkpt>
      <trkpt lat="45.15294" lon="3.43779">
        <ele>501</ele>
        <time>2021-04-12T08:57:32Z</time>
      </trkpt>
      <trkpt lat="45.15294" lon="3.43786">
        <ele>501</ele>
        <time>2021-04-12T08:57:33Z</time>
      </trkpt>
      <trkpt lat="45.15294" lon="3.43792">
        <ele>501</ele>
        <time>2021-04-12T08:57:34Z</time>
      </trkpt>
      <trkpt lat="45.15294" lon="3.43799">
        <ele>501</ele>
        <time>2021-04-12T08:57:35Z</time>
      </trkpt>
      <trkpt lat="45.15298" lon="3.43827">
        <ele>500</ele>
        <time>2021-04-12T08:57:39Z</time>
      </trkpt>
      <trkpt lat="45.15299" lon="3.43834">
        <ele>500</ele>
        <time>2021-04-12T08:57:40Z</time>
      </trkpt>
      <trkpt lat="45.153" lon="3.43841">
        <ele>499</ele>
        <time>2021-04-12T08:57:41Z</time>
      </trkpt>
      <trkpt lat="45.15301" lon="3.43848">
        <ele>499</ele>
        <time>2021-04-12T08:57:42Z</time>
      </trkpt>
      <trkpt lat="45.15302" lon="3.43855">
        <ele>498</ele>
        <time>2021-04-12T08:57:43Z</time>
      </trkpt>
      <trkpt lat="45.15304" lon="3.43862">
        <ele>498</ele>
        <time>2021-04-12T08:57:44Z</time>
      </trkpt>
      <trkpt lat="45.15307" lon="3.43878">
        <ele>497</ele>
        <time>2021-04-12T08:57:46Z</time>
      </trkpt>
      <trkpt lat="45.15311" lon="3.43895">
        <ele>496</ele>
        <time>2021-04-12T08:57:47Z</time>
      </trkpt>
      <trkpt lat="45.15316" lon="3.43912">
        <ele>494</ele>
        <time>2021-04-12T08:57:50Z</time>
      </trkpt>
      <trkpt lat="45.15319" lon="3.4392">
        <ele>493</ele>
        <time>2021-04-12T08:57:51Z</time>
      </trkpt>
      <trkpt lat="45.15323" lon="3.43927">
        <ele>493</ele>
        <time>2021-04-12T08:57:52Z</time>
      </trkpt>
      <trkpt lat="45.15327" lon="3.43933">
        <ele>492</ele>
        <time>2021-04-12T08:57:53Z</time>
      </trkpt>
      <trkpt lat="45.15331" lon="3.43939">
        <ele>492</ele>
        <time>2021-04-12T08:57:54Z</time>
      </trkpt>
      <trkpt lat="45.15334" lon="3.43945">
        <ele>491</ele>
        <time>2021-04-12T08:57:55Z</time>
      </trkpt>
      <trkpt lat="45.15338" lon="3.43949">
        <ele>491</ele>
        <time>2021-04-12T08:57:56Z</time>
      </trkpt>
      <trkpt lat="45.15343" lon="3.4395">
        <ele>490</ele>
        <time>2021-04-12T08:57:57Z</time>
      </trkpt>
      <trkpt lat="45.15361" lon="3.43928">
        <ele>489</ele>
        <time>2021-04-12T08:58:02Z</time>
      </trkpt>
      <trkpt lat="45.15364" lon="3.43922">
        <ele>489</ele>
        <time>2021-04-12T08:58:03Z</time>
      </trkpt>
      <trkpt lat="45.15368" lon="3.43916">
        <ele>489</ele>
        <time>2021-04-12T08:58:04Z</time>
      </trkpt>
      <trkpt lat="45.15372" lon="3.4391">
        <ele>488</ele>
        <time>2021-04-12T08:58:05Z</time>
      </trkpt>
      <trkpt lat="45.15379" lon="3.43898">
        <ele>488</ele>
        <time>2021-04-12T08:58:06Z</time>
      </trkpt>
      <trkpt lat="45.15383" lon="3.43892">
        <ele>488</ele>
        <time>2021-04-12T08:58:08Z</time>
      </trkpt>
      <trkpt lat="45.15386" lon="3.43886">
        <ele>487</ele>
        <time>2021-04-12T08:58:09Z</time>
      </trkpt>
      <trkpt lat="45.15389" lon="3.4388">
        <ele>487</ele>
        <time>2021-04-12T08:58:10Z</time>
      </trkpt>
      <trkpt lat="45.15393" lon="3.43867">
        <ele>487</ele>
        <time>2021-04-12T08:58:12Z</time>
      </trkpt>
      <trkpt lat="45.15395" lon="3.4386">
        <ele>486</ele>
        <time>2021-04-12T08:58:13Z</time>
      </trkpt>
      <trkpt lat="45.15396" lon="3.43853">
        <ele>486</ele>
        <time>2021-04-12T08:58:14Z</time>
      </trkpt>
      <trkpt lat="45.15397" lon="3.43846">
        <ele>486</ele>
        <time>2021-04-12T08:58:15Z</time>
      </trkpt>
      <trkpt lat="45.15399" lon="3.43839">
        <ele>486</ele>
        <time>2021-04-12T08:58:16Z</time>
      </trkpt>
      <trkpt lat="45.154" lon="3.43832">
        <ele>486</ele>
        <time>2021-04-12T08:58:17Z</time>
      </trkpt>
      <trkpt lat="45.15401" lon="3.43825">
        <ele>485</ele>
        <time>2021-04-12T08:58:18Z</time>
      </trkpt>
      <trkpt lat="45.15403" lon="3.43818">
        <ele>485</ele>
        <time>2021-04-12T08:58:19Z</time>
      </trkpt>
      <trkpt lat="45.15407" lon="3.43789">
        <ele>485</ele>
        <time>2021-04-12T08:58:23Z</time>
      </trkpt>
      <trkpt lat="45.15409" lon="3.43782">
        <ele>485</ele>
        <time>2021-04-12T08:58:24Z</time>
      </trkpt>
      <trkpt lat="45.15412" lon="3.43768">
        <ele>484</ele>
        <time>2021-04-12T08:58:25Z</time>
      </trkpt>
      <trkpt lat="45.15413" lon="3.43762">
        <ele>484</ele>
        <time>2021-04-12T08:58:27Z</time>
      </trkpt>
      <trkpt lat="45.15415" lon="3.43755">
        <ele>484</ele>
        <time>2021-04-12T08:58:28Z</time>
      </trkpt>
      <trkpt lat="45.15417" lon="3.43749">
        <ele>484</ele>
        <time>2021-04-12T08:58:29Z</time>
      </trkpt>
      <trkpt lat="45.15419" lon="3.43743">
        <ele>484</ele>
        <time>2021-04-12T08:58:30Z</time>
      </trkpt>
      <trkpt lat="45.15422" lon="3.43739">
        <ele>483</ele>
        <time>2021-04-12T08:58:31Z</time>
      </trkpt>
      <trkpt lat="45.15427" lon="3.43731">
        <ele>483</ele>
        <time>2021-04-12T08:58:33Z</time>
      </trkpt>
      <trkpt lat="45.1543" lon="3.43728">
        <ele>483</ele>
        <time>2021-04-12T08:58:34Z</time>
      </trkpt>
      <trkpt lat="45.15434" lon="3.43726">
        <ele>483</ele>
        <time>2021-04-12T08:58:35Z</time>
      </trkpt>
      <trkpt lat="45.15437" lon="3.43725">
        <ele>483</ele>
        <time>2021-04-12T08:58:36Z</time>
      </trkpt>
      <trkpt lat="45.15441" lon="3.43723">
        <ele>483</ele>
        <time>2021-04-12T08:58:37Z</time>
      </trkpt>
      <trkpt lat="45.15445" lon="3.43722">
        <ele>483</ele>
        <time>2021-04-12T08:58:38Z</time>
      </trkpt>
      <trkpt lat="45.15448" lon="3.4372">
        <ele>482</ele>
        <time>2021-04-12T08:58:39Z</time>
      </trkpt>
      <trkpt lat="45.15452" lon="3.43719">
        <ele>483</ele>
        <time>2021-04-12T08:58:40Z</time>
      </trkpt>
      <trkpt lat="45.15469" lon="3.43712">
        <ele>483</ele>
        <time>2021-04-12T08:58:44Z</time>
      </trkpt>
      <trkpt lat="45.15473" lon="3.43711">
        <ele>483</ele>
        <time>2021-04-12T08:58:46Z</time>
      </trkpt>
      <trkpt lat="45.15476" lon="3.43709">
        <ele>483</ele>
        <time>2021-04-12T08:58:47Z</time>
      </trkpt>
      <trkpt lat="45.1548" lon="3.43707">
        <ele>483</ele>
        <time>2021-04-12T08:58:48Z</time>
      </trkpt>
      <trkpt lat="45.15484" lon="3.43706">
        <ele>483</ele>
        <time>2021-04-12T08:58:49Z</time>
      </trkpt>
      <trkpt lat="45.15488" lon="3.43705">
        <ele>483</ele>
        <time>2021-04-12T08:58:50Z</time>
      </trkpt>
      <trkpt lat="45.1549" lon="3.43703">
        <ele>483</ele>
        <time>2021-04-12T08:58:51Z</time>
      </trkpt>
      <trkpt lat="45.15494" lon="3.43702">
        <ele>483</ele>
        <time>2021-04-12T08:58:52Z</time>
      </trkpt>
      <trkpt lat="45.155" lon="3.437">
        <ele>483</ele>
        <time>2021-04-12T08:58:54Z</time>
      </trkpt>
      <trkpt lat="45.15503" lon="3.43699">
        <ele>484</ele>
        <time>2021-04-12T08:58:55Z</time>
      </trkpt>
      <trkpt lat="45.15506" lon="3.43697">
        <ele>484</ele>
        <time>2021-04-12T08:58:56Z</time>
      </trkpt>
      <trkpt lat="45.15509" lon="3.43695">
        <ele>484</ele>
        <time>2021-04-12T08:58:57Z</time>
      </trkpt>
      <trkpt lat="45.15511" lon="3.43692">
        <ele>484</ele>
        <time>2021-04-12T08:58:58Z</time>
      </trkpt>
      <trkpt lat="45.15513" lon="3.43689">
        <ele>484</ele>
        <time>2021-04-12T08:58:59Z</time>
      </trkpt>
      <trkpt lat="45.15513" lon="3.43686">
        <ele>484</ele>
        <time>2021-04-12T08:59:00Z</time>
      </trkpt>
      <trkpt lat="45.15511" lon="3.43678">
        <ele>484</ele>
        <time>2021-04-12T08:59:35Z</time>
      </trkpt>
      <trkpt lat="45.15507" lon="3.43651">
        <ele>484</ele>
        <time>2021-04-12T08:59:41Z</time>
      </trkpt>
      <trkpt lat="45.15506" lon="3.43646">
        <ele>484</ele>
        <time>2021-04-12T08:59:42Z</time>
      </trkpt>
      <trkpt lat="45.15505" lon="3.43641">
        <ele>484</ele>
        <time>2021-04-12T08:59:43Z</time>
      </trkpt>
      <trkpt lat="45.15505" lon="3.43637">
        <ele>484</ele>
        <time>2021-04-12T08:59:44Z</time>
      </trkpt>
      <trkpt lat="45.15504" lon="3.43633">
        <ele>484</ele>
        <time>2021-04-12T08:59:45Z</time>
      </trkpt>
      <trkpt lat="45.15503" lon="3.43629">
        <ele>484</ele>
        <time>2021-04-12T08:59:46Z</time>
      </trkpt>
      <trkpt lat="45.15503" lon="3.43626">
        <ele>483</ele>
        <time>2021-04-12T08:59:47Z</time>
      </trkpt>
      <trkpt lat="45.15504" lon="3.43623">
        <ele>483</ele>
        <time>2021-04-12T08:59:49Z</time>
      </trkpt>
      <trkpt lat="45.15507" lon="3.43627">
        <ele>484</ele>
        <time>2021-04-12T08:59:51Z</time>
      </trkpt>
      <trkpt lat="45.15508" lon="3.43631">
        <ele>484</ele>
        <time>2021-04-12T08:59:52Z</time>
      </trkpt>
      <trkpt lat="45.15509" lon="3.43635">
        <ele>484</ele>
        <time>2021-04-12T08:59:53Z</time>
      </trkpt>
      <trkpt lat="45.1551" lon="3.43639">
        <ele>484</ele>
        <time>2021-04-12T08:59:54Z</time>
      </trkpt>
      <trkpt lat="45.15513" lon="3.43648">
        <ele>484</ele>
        <time>2021-04-12T08:59:55Z</time>
      </trkpt>
      <trkpt lat="45.15514" lon="3.43652">
        <ele>484</ele>
        <time>2021-04-12T08:59:57Z</time>
      </trkpt>
      <trkpt lat="45.15515" lon="3.43657">
        <ele>484</ele>
        <time>2021-04-12T08:59:58Z</time>
      </trkpt>
      <trkpt lat="45.15516" lon="3.43662">
        <ele>484</ele>
        <time>2021-04-12T08:59:59Z</time>
      </trkpt>
      <trkpt lat="45.15522" lon="3.43678">
        <ele>485</ele>
        <time>2021-04-12T09:00:03Z</time>
      </trkpt>
      <trkpt lat="45.15523" lon="3.43682">
        <ele>485</ele>
        <time>2021-04-12T09:00:04Z</time>
      </trkpt>
      <trkpt lat="45.15525" lon="3.43685">
        <ele>485</ele>
        <time>2021-04-12T09:00:05Z</time>
      </trkpt>
      <trkpt lat="45.15527" lon="3.43688">
        <ele>486</ele>
        <time>2021-04-12T09:00:06Z</time>
      </trkpt>
      <trkpt lat="45.15529" lon="3.43691">
        <ele>486</ele>
        <time>2021-04-12T09:00:07Z</time>
      </trkpt>
      <trkpt lat="45.1553" lon="3.43694">
        <ele>486</ele>
        <time>2021-04-12T09:00:08Z</time>
      </trkpt>
      <trkpt lat="45.15531" lon="3.43698">
        <ele>486</ele>
        <time>2021-04-12T09:00:09Z</time>
      </trkpt>
      <trkpt lat="45.15531" lon="3.43702">
        <ele>486</ele>
        <time>2021-04-12T09:00:10Z</time>
      </trkpt>
      <trkpt lat="45.15532" lon="3.43711">
        <ele>487</ele>
        <time>2021-04-12T09:00:12Z</time>
      </trkpt>
      <trkpt lat="45.15533" lon="3.43714">
        <ele>487</ele>
        <time>2021-04-12T09:00:13Z</time>
      </trkpt>
      <trkpt lat="45.15535" lon="3.43722">
        <ele>487</ele>
        <time>2021-04-12T09:00:14Z</time>
      </trkpt>
      <trkpt lat="45.15536" lon="3.43724">
        <ele>488</ele>
        <time>2021-04-12T09:00:16Z</time>
      </trkpt>
      <trkpt lat="45.1554" lon="3.43724">
        <ele>489</ele>
        <time>2021-04-12T09:00:18Z</time>
      </trkpt>
      <trkpt lat="45.15542" lon="3.43721">
        <ele>489</ele>
        <time>2021-04-12T09:00:19Z</time>
      </trkpt>
      <trkpt lat="45.15543" lon="3.43718">
        <ele>489</ele>
        <time>2021-04-12T09:00:20Z</time>
      </trkpt>
      <trkpt lat="45.15543" lon="3.43714">
        <ele>489</ele>
        <time>2021-04-12T09:00:21Z</time>
      </trkpt>
      <trkpt lat="45.15541" lon="3.437">
        <ele>490</ele>
        <time>2021-04-12T09:00:25Z</time>
      </trkpt>
      <trkpt lat="45.1554" lon="3.43696">
        <ele>490</ele>
        <time>2021-04-12T09:00:26Z</time>
      </trkpt>
      <trkpt lat="45.15539" lon="3.43693">
        <ele>490</ele>
        <time>2021-04-12T09:00:27Z</time>
      </trkpt>
      <trkpt lat="45.15539" lon="3.43689">
        <ele>490</ele>
        <time>2021-04-12T09:00:28Z</time>
      </trkpt>
      <trkpt lat="45.15538" lon="3.43684">
        <ele>490</ele>
        <time>2021-04-12T09:00:29Z</time>
      </trkpt>
      <trkpt lat="45.15538" lon="3.43679">
        <ele>490</ele>
        <time>2021-04-12T09:00:30Z</time>
      </trkpt>
      <trkpt lat="45.15537" lon="3.43673">
        <ele>490</ele>
        <time>2021-04-12T09:00:31Z</time>
      </trkpt>
      <trkpt lat="45.15536" lon="3.43668">
        <ele>490</ele>
        <time>2021-04-12T09:00:32Z</time>
      </trkpt>
      <trkpt lat="45.15532" lon="3.43653">
        <ele>490</ele>
        <time>2021-04-12T09:00:35Z</time>
      </trkpt>
      <trkpt lat="45.15532" lon="3.43649">
        <ele>490</ele>
        <time>2021-04-12T09:00:36Z</time>
      </trkpt>
      <trkpt lat="45.15531" lon="3.43644">
        <ele>491</ele>
        <time>2021-04-12T09:00:37Z</time>
      </trkpt>
      <trkpt lat="45.1553" lon="3.43639">
        <ele>491</ele>
        <time>2021-04-12T09:00:38Z</time>
      </trkpt>
      <trkpt lat="45.1553" lon="3.43634">
        <ele>492</ele>
        <time>2021-04-12T09:00:39Z</time>
      </trkpt>
      <trkpt lat="45.15529" lon="3.43629">
        <ele>492</ele>
        <time>2021-04-12T09:00:40Z</time>
      </trkpt>
      <trkpt lat="45.15529" lon="3.43624">
        <ele>492</ele>
        <time>2021-04-12T09:00:41Z</time>
      </trkpt>
      <trkpt lat="45.15529" lon="3.4362">
        <ele>493</ele>
        <time>2021-04-12T09:00:42Z</time>
      </trkpt>
      <trkpt lat="45.15529" lon="3.43603">
        <ele>494</ele>
        <time>2021-04-12T09:00:46Z</time>
      </trkpt>
      <trkpt lat="45.1553" lon="3.43596">
        <ele>494</ele>
        <time>2021-04-12T09:00:48Z</time>
      </trkpt>
      <trkpt lat="45.15531" lon="3.43593">
        <ele>494</ele>
        <time>2021-04-12T09:00:49Z</time>
      </trkpt>
      <trkpt lat="45.15532" lon="3.4359">
        <ele>495</ele>
        <time>2021-04-12T09:00:50Z</time>
      </trkpt>
      <trkpt lat="45.15534" lon="3.43588">
        <ele>495</ele>
        <time>2021-04-12T09:00:51Z</time>
      </trkpt>
      <trkpt lat="45.15538" lon="3.43584">
        <ele>495</ele>
        <time>2021-04-12T09:00:52Z</time>
      </trkpt>
      <trkpt lat="45.15541" lon="3.43582">
        <ele>495</ele>
        <time>2021-04-12T09:00:54Z</time>
      </trkpt>
      <trkpt lat="45.15543" lon="3.43581">
        <ele>496</ele>
        <time>2021-04-12T09:00:55Z</time>
      </trkpt>
      <trkpt lat="45.15549" lon="3.43582">
        <ele>496</ele>
        <time>2021-04-12T09:00:57Z</time>
      </trkpt>
      <trkpt lat="45.15552" lon="3.43583">
        <ele>497</ele>
        <time>2021-04-12T09:00:58Z</time>
      </trkpt>
      <trkpt lat="45.15554" lon="3.43585">
        <ele>497</ele>
        <time>2021-04-12T09:00:59Z</time>
      </trkpt>
      <trkpt lat="45.15556" lon="3.43588">
        <ele>497</ele>
        <time>2021-04-12T09:01:00Z</time>
      </trkpt>
      <trkpt lat="45.15558" lon="3.43591">
        <ele>498</ele>
        <time>2021-04-12T09:01:01Z</time>
      </trkpt>
      <trkpt lat="45.15561" lon="3.43593">
        <ele>498</ele>
        <time>2021-04-12T09:01:02Z</time>
      </trkpt>
      <trkpt lat="45.15563" lon="3.43596">
        <ele>499</ele>
        <time>2021-04-12T09:01:03Z</time>
      </trkpt>
      <trkpt lat="45.15565" lon="3.43599">
        <ele>499</ele>
        <time>2021-04-12T09:01:04Z</time>
      </trkpt>
      <trkpt lat="45.15576" lon="3.4361">
        <ele>500</ele>
        <time>2021-04-12T09:01:08Z</time>
      </trkpt>
      <trkpt lat="45.15579" lon="3.43613">
        <ele>500</ele>
        <time>2021-04-12T09:01:09Z</time>
      </trkpt>
      <trkpt lat="45.15582" lon="3.43614">
        <ele>500</ele>
        <time>2021-04-12T09:01:10Z</time>
      </trkpt>
      <trkpt lat="45.15588" lon="3.43618">
        <ele>501</ele>
        <time>2021-04-12T09:01:11Z</time>
      </trkpt>
      <trkpt lat="45.15591" lon="3.4362">
        <ele>501</ele>
        <time>2021-04-12T09:01:13Z</time>
      </trkpt>
      <trkpt lat="45.15595" lon="3.43622">
        <ele>502</ele>
        <time>2021-04-12T09:01:14Z</time>
      </trkpt>
      <trkpt lat="45.15599" lon="3.43623">
        <ele>502</ele>
        <time>2021-04-12T09:01:15Z</time>
      </trkpt>
      <trkpt lat="45.15602" lon="3.43624">
        <ele>502</ele>
        <time>2021-04-12T09:01:16Z</time>
      </trkpt>
      <trkpt lat="45.15609" lon="3.43627">
        <ele>503</ele>
        <time>2021-04-12T09:01:18Z</time>
      </trkpt>
      <trkpt lat="45.15613" lon="3.43628">
        <ele>503</ele>
        <time>2021-04-12T09:01:19Z</time>
      </trkpt>
      <trkpt lat="45.15616" lon="3.4363">
        <ele>503</ele>
        <time>2021-04-12T09:01:20Z</time>
      </trkpt>
      <trkpt lat="45.15619" lon="3.43632">
        <ele>503</ele>
        <time>2021-04-12T09:01:21Z</time>
      </trkpt>
      <trkpt lat="45.15623" lon="3.43633">
        <ele>504</ele>
        <time>2021-04-12T09:01:22Z</time>
      </trkpt>
      <trkpt lat="45.15626" lon="3.43634">
        <ele>504</ele>
        <time>2021-04-12T09:01:23Z</time>
      </trkpt>
      <trkpt lat="45.15629" lon="3.43635">
        <ele>505</ele>
        <time>2021-04-12T09:01:24Z</time>
      </trkpt>
      <trkpt lat="45.15632" lon="3.43636">
        <ele>505</ele>
        <time>2021-04-12T09:01:25Z</time>
      </trkpt>
      <trkpt lat="45.15645" lon="3.43642">
        <ele>507</ele>
        <time>2021-04-12T09:01:29Z</time>
      </trkpt>
      <trkpt lat="45.15651" lon="3.43645">
        <ele>507</ele>
        <time>2021-04-12T09:01:30Z</time>
      </trkpt>
      <trkpt lat="45.15655" lon="3.43646">
        <ele>507</ele>
        <time>2021-04-12T09:01:32Z</time>
      </trkpt>
      <trkpt lat="45.15658" lon="3.43648">
        <ele>508</ele>
        <time>2021-04-12T09:01:33Z</time>
      </trkpt>
      <trkpt lat="45.15661" lon="3.43649">
        <ele>508</ele>
        <time>2021-04-12T09:01:34Z</time>
      </trkpt>
      <trkpt lat="45.15664" lon="3.4365">
        <ele>508</ele>
        <time>2021-04-12T09:01:35Z</time>
      </trkpt>
      <trkpt lat="45.15666" lon="3.43651">
        <ele>509</ele>
        <time>2021-04-12T09:01:36Z</time>
      </trkpt>
      <trkpt lat="45.15669" lon="3.43652">
        <ele>509</ele>
        <time>2021-04-12T09:01:37Z</time>
      </trkpt>
      <trkpt lat="45.15677" lon="3.43654">
        <ele>510</ele>
        <time>2021-04-12T09:01:40Z</time>
      </trkpt>
      <trkpt lat="45.1568" lon="3.43655">
        <ele>511</ele>
        <time>2021-04-12T09:01:41Z</time>
      </trkpt>
      <trkpt lat="45.15683" lon="3.43656">
        <ele>511</ele>
        <time>2021-04-12T09:01:42Z</time>
      </trkpt>
      <trkpt lat="45.15685" lon="3.43657">
        <ele>511</ele>
        <time>2021-04-12T09:01:43Z</time>
      </trkpt>
      <trkpt lat="45.15688" lon="3.43658">
        <ele>512</ele>
        <time>2021-04-12T09:01:44Z</time>
      </trkpt>
      <trkpt lat="45.15691" lon="3.4366">
        <ele>512</ele>
        <time>2021-04-12T09:01:45Z</time>
      </trkpt>
      <trkpt lat="45.15693" lon="3.43661">
        <ele>513</ele>
        <time>2021-04-12T09:01:46Z</time>
      </trkpt>
      <trkpt lat="45.15696" lon="3.43662">
        <ele>513</ele>
        <time>2021-04-12T09:01:47Z</time>
      </trkpt>
      <trkpt lat="45.15712" lon="3.43672">
        <ele>516</ele>
        <time>2021-04-12T09:01:54Z</time>
      </trkpt>
      <trkpt lat="45.15714" lon="3.43674">
        <ele>516</ele>
        <time>2021-04-12T09:01:55Z</time>
      </trkpt>
      <trkpt lat="45.15717" lon="3.43677">
        <ele>517</ele>
        <time>2021-04-12T09:01:56Z</time>
      </trkpt>
      <trkpt lat="45.1572" lon="3.43679">
        <ele>517</ele>
        <time>2021-04-12T09:01:57Z</time>
      </trkpt>
      <trkpt lat="45.15723" lon="3.4368">
        <ele>518</ele>
        <time>2021-04-12T09:01:58Z</time>
      </trkpt>
    </trkseg>
  </trk>
</gpx>